<?xml version="1.0" encoding="UTF-8" standalone="no" ?>
<gpx xmlns="http://www.topografix.com/GPX/1/1" xmlns:xsi="http://www.w3.org/2001/XMLSchema-instance" xsi:schemaLocation="http://www.topografix.com/GPX/1/1 http://www.topografix.com/GPX/1/1/gpx.xsd" version="1.1" creator="VisuGPX - https://www.visugpx.com">
  <metadata>
    <name>Ougney - Avanne 6/09</name>
    <desc><![CDATA[[img][/img]]]></desc>
  </metadata>
  <trk>
    <name><![CDATA[Trace sans titre]]></name>
    <trkseg>
      <trkpt lat="47.314" lon="6.26364">
        <ele>259.614</ele>
        <time>2016-09-06T07:20:02.000Z</time>
      </trkpt>
      <trkpt lat="47.314" lon="6.26364">
        <ele>259.597</ele>
        <time>2016-09-06T07:20:03.000Z</time>
      </trkpt>
      <trkpt lat="47.31399" lon="6.26357">
        <ele>259.677</ele>
        <time>2016-09-06T07:20:04.000Z</time>
      </trkpt>
      <trkpt lat="47.31399" lon="6.26357">
        <ele>259.635</ele>
        <time>2016-09-06T07:20:05.000Z</time>
      </trkpt>
      <trkpt lat="47.31399" lon="6.26357">
        <ele>259.539</ele>
        <time>2016-09-06T07:20:06.000Z</time>
      </trkpt>
      <trkpt lat="47.31399" lon="6.26357">
        <ele>259.582</ele>
        <time>2016-09-06T07:20:07.000Z</time>
      </trkpt>
      <trkpt lat="47.31399" lon="6.26357">
        <ele>259.623</ele>
        <time>2016-09-06T07:20:08.000Z</time>
      </trkpt>
      <trkpt lat="47.31399" lon="6.26357">
        <ele>259.404</ele>
        <time>2016-09-06T07:20:09.000Z</time>
      </trkpt>
      <trkpt lat="47.31396" lon="6.26352">
        <ele>259.32</ele>
        <time>2016-09-06T07:20:10.000Z</time>
      </trkpt>
      <trkpt lat="47.31396" lon="6.26352">
        <ele>259.321</ele>
        <time>2016-09-06T07:20:11.000Z</time>
      </trkpt>
      <trkpt lat="47.31396" lon="6.26352">
        <ele>259.241</ele>
        <time>2016-09-06T07:20:12.000Z</time>
      </trkpt>
      <trkpt lat="47.31396" lon="6.26352">
        <ele>259.07</ele>
        <time>2016-09-06T07:20:13.000Z</time>
      </trkpt>
      <trkpt lat="47.31396" lon="6.26352">
        <ele>258.924</ele>
        <time>2016-09-06T07:20:14.000Z</time>
      </trkpt>
      <trkpt lat="47.31392" lon="6.26356">
        <ele>258.825</ele>
        <time>2016-09-06T07:20:15.000Z</time>
      </trkpt>
      <trkpt lat="47.31392" lon="6.26356">
        <ele>258.888</ele>
        <time>2016-09-06T07:20:16.000Z</time>
      </trkpt>
      <trkpt lat="47.31392" lon="6.26356">
        <ele>258.953</ele>
        <time>2016-09-06T07:20:17.000Z</time>
      </trkpt>
      <trkpt lat="47.31392" lon="6.26356">
        <ele>259.031</ele>
        <time>2016-09-06T07:20:18.000Z</time>
      </trkpt>
      <trkpt lat="47.31392" lon="6.26356">
        <ele>259.064</ele>
        <time>2016-09-06T07:20:19.000Z</time>
      </trkpt>
      <trkpt lat="47.31392" lon="6.26356">
        <ele>258.733</ele>
        <time>2016-09-06T07:20:20.000Z</time>
      </trkpt>
      <trkpt lat="47.31392" lon="6.26356">
        <ele>258.618</ele>
        <time>2016-09-06T07:20:21.000Z</time>
      </trkpt>
      <trkpt lat="47.31392" lon="6.26356">
        <ele>258.53</ele>
        <time>2016-09-06T07:20:22.000Z</time>
      </trkpt>
      <trkpt lat="47.31392" lon="6.26356">
        <ele>258.455</ele>
        <time>2016-09-06T07:20:23.000Z</time>
      </trkpt>
      <trkpt lat="47.31396" lon="6.26349">
        <ele>258.393</ele>
        <time>2016-09-06T07:20:24.000Z</time>
      </trkpt>
      <trkpt lat="47.31396" lon="6.26349">
        <ele>258.323</ele>
        <time>2016-09-06T07:20:25.000Z</time>
      </trkpt>
      <trkpt lat="47.31396" lon="6.26349">
        <ele>258.293</ele>
        <time>2016-09-06T07:20:26.000Z</time>
      </trkpt>
      <trkpt lat="47.31396" lon="6.26349">
        <ele>258.264</ele>
        <time>2016-09-06T07:20:27.000Z</time>
      </trkpt>
      <trkpt lat="47.31396" lon="6.26349">
        <ele>258.318</ele>
        <time>2016-09-06T07:20:28.000Z</time>
      </trkpt>
      <trkpt lat="47.31396" lon="6.26349">
        <ele>258.278</ele>
        <time>2016-09-06T07:20:29.000Z</time>
      </trkpt>
      <trkpt lat="47.31396" lon="6.26349">
        <ele>258.245</ele>
        <time>2016-09-06T07:20:30.000Z</time>
      </trkpt>
      <trkpt lat="47.31396" lon="6.26342">
        <ele>258.204</ele>
        <time>2016-09-06T07:20:31.000Z</time>
      </trkpt>
      <trkpt lat="47.31396" lon="6.26342">
        <ele>258.228</ele>
        <time>2016-09-06T07:20:32.000Z</time>
      </trkpt>
      <trkpt lat="47.31396" lon="6.26342">
        <ele>258.294</ele>
        <time>2016-09-06T07:20:33.000Z</time>
      </trkpt>
      <trkpt lat="47.31396" lon="6.26342">
        <ele>258.323</ele>
        <time>2016-09-06T07:20:34.000Z</time>
      </trkpt>
      <trkpt lat="47.31396" lon="6.26342">
        <ele>258.276</ele>
        <time>2016-09-06T07:20:35.000Z</time>
      </trkpt>
      <trkpt lat="47.31398" lon="6.26336">
        <ele>258.179</ele>
        <time>2016-09-06T07:20:36.000Z</time>
      </trkpt>
      <trkpt lat="47.31398" lon="6.26336">
        <ele>258.218</ele>
        <time>2016-09-06T07:20:37.000Z</time>
      </trkpt>
      <trkpt lat="47.31398" lon="6.26336">
        <ele>258.283</ele>
        <time>2016-09-06T07:20:38.000Z</time>
      </trkpt>
      <trkpt lat="47.31398" lon="6.26336">
        <ele>258.429</ele>
        <time>2016-09-06T07:20:39.000Z</time>
      </trkpt>
      <trkpt lat="47.31398" lon="6.26336">
        <ele>258.426</ele>
        <time>2016-09-06T07:20:40.000Z</time>
      </trkpt>
      <trkpt lat="47.31398" lon="6.26336">
        <ele>258.503</ele>
        <time>2016-09-06T07:20:41.000Z</time>
      </trkpt>
      <trkpt lat="47.31398" lon="6.26336">
        <ele>258.61</ele>
        <time>2016-09-06T07:20:42.000Z</time>
      </trkpt>
      <trkpt lat="47.31398" lon="6.26336">
        <ele>258.613</ele>
        <time>2016-09-06T07:20:43.000Z</time>
      </trkpt>
      <trkpt lat="47.31398" lon="6.26336">
        <ele>258.512</ele>
        <time>2016-09-06T07:20:44.000Z</time>
      </trkpt>
      <trkpt lat="47.31398" lon="6.26336">
        <ele>258.484</ele>
        <time>2016-09-06T07:20:45.000Z</time>
      </trkpt>
      <trkpt lat="47.31398" lon="6.26336">
        <ele>258.491</ele>
        <time>2016-09-06T07:20:46.000Z</time>
      </trkpt>
      <trkpt lat="47.31398" lon="6.26336">
        <ele>258.466</ele>
        <time>2016-09-06T07:20:47.000Z</time>
      </trkpt>
      <trkpt lat="47.31398" lon="6.26336">
        <ele>258.393</ele>
        <time>2016-09-06T07:20:48.000Z</time>
      </trkpt>
      <trkpt lat="47.31398" lon="6.26336">
        <ele>258.442</ele>
        <time>2016-09-06T07:20:49.000Z</time>
      </trkpt>
      <trkpt lat="47.31398" lon="6.26336">
        <ele>258.499</ele>
        <time>2016-09-06T07:20:50.000Z</time>
      </trkpt>
      <trkpt lat="47.31403" lon="6.26334">
        <ele>258.477</ele>
        <time>2016-09-06T07:20:51.000Z</time>
      </trkpt>
      <trkpt lat="47.31403" lon="6.26334">
        <ele>258.405</ele>
        <time>2016-09-06T07:20:52.000Z</time>
      </trkpt>
      <trkpt lat="47.31403" lon="6.26334">
        <ele>258.411</ele>
        <time>2016-09-06T07:20:53.000Z</time>
      </trkpt>
      <trkpt lat="47.31403" lon="6.26334">
        <ele>258.37</ele>
        <time>2016-09-06T07:20:54.000Z</time>
      </trkpt>
      <trkpt lat="47.31403" lon="6.26334">
        <ele>258.395</ele>
        <time>2016-09-06T07:20:55.000Z</time>
      </trkpt>
      <trkpt lat="47.31403" lon="6.26334">
        <ele>258.458</ele>
        <time>2016-09-06T07:20:56.000Z</time>
      </trkpt>
      <trkpt lat="47.31403" lon="6.26334">
        <ele>258.433</ele>
        <time>2016-09-06T07:20:57.000Z</time>
      </trkpt>
      <trkpt lat="47.31403" lon="6.26334">
        <ele>258.45</ele>
        <time>2016-09-06T07:20:58.000Z</time>
      </trkpt>
      <trkpt lat="47.31403" lon="6.26334">
        <ele>258.453</ele>
        <time>2016-09-06T07:20:59.000Z</time>
      </trkpt>
      <trkpt lat="47.31403" lon="6.26334">
        <ele>258.497</ele>
        <time>2016-09-06T07:21:00.000Z</time>
      </trkpt>
      <trkpt lat="47.31403" lon="6.26334">
        <ele>258.509</ele>
        <time>2016-09-06T07:21:01.000Z</time>
      </trkpt>
      <trkpt lat="47.31403" lon="6.26334">
        <ele>258.531</ele>
        <time>2016-09-06T07:21:02.000Z</time>
      </trkpt>
      <trkpt lat="47.31403" lon="6.26334">
        <ele>258.557</ele>
        <time>2016-09-06T07:21:03.000Z</time>
      </trkpt>
      <trkpt lat="47.31403" lon="6.26334">
        <ele>258.612</ele>
        <time>2016-09-06T07:21:04.000Z</time>
      </trkpt>
      <trkpt lat="47.31403" lon="6.26334">
        <ele>258.671</ele>
        <time>2016-09-06T07:21:05.000Z</time>
      </trkpt>
      <trkpt lat="47.31403" lon="6.26334">
        <ele>258.754</ele>
        <time>2016-09-06T07:21:06.000Z</time>
      </trkpt>
      <trkpt lat="47.31403" lon="6.26334">
        <ele>258.874</ele>
        <time>2016-09-06T07:21:07.000Z</time>
      </trkpt>
      <trkpt lat="47.31403" lon="6.26334">
        <ele>258.79</ele>
        <time>2016-09-06T07:21:08.000Z</time>
      </trkpt>
      <trkpt lat="47.31403" lon="6.26334">
        <ele>258.681</ele>
        <time>2016-09-06T07:21:09.000Z</time>
      </trkpt>
      <trkpt lat="47.31403" lon="6.26334">
        <ele>258.715</ele>
        <time>2016-09-06T07:21:10.000Z</time>
      </trkpt>
      <trkpt lat="47.31403" lon="6.26334">
        <ele>258.71</ele>
        <time>2016-09-06T07:21:11.000Z</time>
      </trkpt>
      <trkpt lat="47.31403" lon="6.26334">
        <ele>258.694</ele>
        <time>2016-09-06T07:21:12.000Z</time>
      </trkpt>
      <trkpt lat="47.31403" lon="6.26334">
        <ele>258.669</ele>
        <time>2016-09-06T07:21:13.000Z</time>
      </trkpt>
      <trkpt lat="47.31403" lon="6.26334">
        <ele>258.755</ele>
        <time>2016-09-06T07:21:14.000Z</time>
      </trkpt>
      <trkpt lat="47.31403" lon="6.26334">
        <ele>258.733</ele>
        <time>2016-09-06T07:21:15.000Z</time>
      </trkpt>
      <trkpt lat="47.31403" lon="6.26334">
        <ele>258.639</ele>
        <time>2016-09-06T07:21:16.000Z</time>
      </trkpt>
      <trkpt lat="47.31403" lon="6.26334">
        <ele>258.642</ele>
        <time>2016-09-06T07:21:17.000Z</time>
      </trkpt>
      <trkpt lat="47.31403" lon="6.26334">
        <ele>258.709</ele>
        <time>2016-09-06T07:21:18.000Z</time>
      </trkpt>
      <trkpt lat="47.31403" lon="6.26334">
        <ele>258.785</ele>
        <time>2016-09-06T07:21:19.000Z</time>
      </trkpt>
      <trkpt lat="47.31403" lon="6.26334">
        <ele>258.824</ele>
        <time>2016-09-06T07:21:20.000Z</time>
      </trkpt>
      <trkpt lat="47.31403" lon="6.26334">
        <ele>258.848</ele>
        <time>2016-09-06T07:21:21.000Z</time>
      </trkpt>
      <trkpt lat="47.31403" lon="6.26334">
        <ele>258.845</ele>
        <time>2016-09-06T07:21:22.000Z</time>
      </trkpt>
      <trkpt lat="47.31403" lon="6.26334">
        <ele>258.688</ele>
        <time>2016-09-06T07:21:23.000Z</time>
      </trkpt>
      <trkpt lat="47.31403" lon="6.26334">
        <ele>258.668</ele>
        <time>2016-09-06T07:21:24.000Z</time>
      </trkpt>
      <trkpt lat="47.31403" lon="6.26334">
        <ele>258.661</ele>
        <time>2016-09-06T07:21:25.000Z</time>
      </trkpt>
      <trkpt lat="47.31403" lon="6.26334">
        <ele>258.591</ele>
        <time>2016-09-06T07:21:26.000Z</time>
      </trkpt>
      <trkpt lat="47.31403" lon="6.26334">
        <ele>258.559</ele>
        <time>2016-09-06T07:21:27.000Z</time>
      </trkpt>
      <trkpt lat="47.31403" lon="6.26334">
        <ele>258.61</ele>
        <time>2016-09-06T07:21:28.000Z</time>
      </trkpt>
      <trkpt lat="47.31403" lon="6.26334">
        <ele>258.625</ele>
        <time>2016-09-06T07:21:29.000Z</time>
      </trkpt>
      <trkpt lat="47.31403" lon="6.26334">
        <ele>258.627</ele>
        <time>2016-09-06T07:21:30.000Z</time>
      </trkpt>
      <trkpt lat="47.31403" lon="6.26334">
        <ele>258.618</ele>
        <time>2016-09-06T07:21:31.000Z</time>
      </trkpt>
      <trkpt lat="47.31403" lon="6.26334">
        <ele>258.455</ele>
        <time>2016-09-06T07:21:32.000Z</time>
      </trkpt>
      <trkpt lat="47.31403" lon="6.26334">
        <ele>258.344</ele>
        <time>2016-09-06T07:21:33.000Z</time>
      </trkpt>
      <trkpt lat="47.31403" lon="6.26334">
        <ele>258.33</ele>
        <time>2016-09-06T07:21:34.000Z</time>
      </trkpt>
      <trkpt lat="47.31403" lon="6.26334">
        <ele>258.302</ele>
        <time>2016-09-06T07:21:35.000Z</time>
      </trkpt>
      <trkpt lat="47.31403" lon="6.26334">
        <ele>258.443</ele>
        <time>2016-09-06T07:21:36.000Z</time>
      </trkpt>
      <trkpt lat="47.31403" lon="6.26334">
        <ele>258.461</ele>
        <time>2016-09-06T07:21:37.000Z</time>
      </trkpt>
      <trkpt lat="47.31403" lon="6.26334">
        <ele>258.549</ele>
        <time>2016-09-06T07:21:38.000Z</time>
      </trkpt>
      <trkpt lat="47.31403" lon="6.26334">
        <ele>258.476</ele>
        <time>2016-09-06T07:21:39.000Z</time>
      </trkpt>
      <trkpt lat="47.31403" lon="6.26334">
        <ele>258.444</ele>
        <time>2016-09-06T07:21:40.000Z</time>
      </trkpt>
      <trkpt lat="47.31403" lon="6.26334">
        <ele>258.428</ele>
        <time>2016-09-06T07:21:41.000Z</time>
      </trkpt>
      <trkpt lat="47.31403" lon="6.26334">
        <ele>258.495</ele>
        <time>2016-09-06T07:21:42.000Z</time>
      </trkpt>
      <trkpt lat="47.31403" lon="6.26334">
        <ele>258.566</ele>
        <time>2016-09-06T07:21:43.000Z</time>
      </trkpt>
      <trkpt lat="47.31403" lon="6.26334">
        <ele>258.522</ele>
        <time>2016-09-06T07:21:44.000Z</time>
      </trkpt>
      <trkpt lat="47.31403" lon="6.26334">
        <ele>258.435</ele>
        <time>2016-09-06T07:21:45.000Z</time>
      </trkpt>
      <trkpt lat="47.31403" lon="6.26334">
        <ele>258.451</ele>
        <time>2016-09-06T07:21:46.000Z</time>
      </trkpt>
      <trkpt lat="47.31403" lon="6.26334">
        <ele>258.319</ele>
        <time>2016-09-06T07:21:47.000Z</time>
      </trkpt>
      <trkpt lat="47.31403" lon="6.26334">
        <ele>258.255</ele>
        <time>2016-09-06T07:21:48.000Z</time>
      </trkpt>
      <trkpt lat="47.31403" lon="6.26334">
        <ele>258.268</ele>
        <time>2016-09-06T07:21:49.000Z</time>
      </trkpt>
      <trkpt lat="47.31403" lon="6.26334">
        <ele>258.338</ele>
        <time>2016-09-06T07:21:50.000Z</time>
      </trkpt>
      <trkpt lat="47.31403" lon="6.26334">
        <ele>258.367</ele>
        <time>2016-09-06T07:21:51.000Z</time>
      </trkpt>
      <trkpt lat="47.31403" lon="6.26334">
        <ele>258.375</ele>
        <time>2016-09-06T07:21:52.000Z</time>
      </trkpt>
      <trkpt lat="47.31403" lon="6.26334">
        <ele>258.482</ele>
        <time>2016-09-06T07:21:53.000Z</time>
      </trkpt>
      <trkpt lat="47.31403" lon="6.26334">
        <ele>258.596</ele>
        <time>2016-09-06T07:21:54.000Z</time>
      </trkpt>
      <trkpt lat="47.31403" lon="6.26334">
        <ele>258.472</ele>
        <time>2016-09-06T07:21:55.000Z</time>
      </trkpt>
      <trkpt lat="47.31403" lon="6.26334">
        <ele>258.463</ele>
        <time>2016-09-06T07:21:56.000Z</time>
      </trkpt>
      <trkpt lat="47.31403" lon="6.26334">
        <ele>258.4</ele>
        <time>2016-09-06T07:21:57.000Z</time>
      </trkpt>
      <trkpt lat="47.31403" lon="6.26334">
        <ele>258.32</ele>
        <time>2016-09-06T07:21:58.000Z</time>
      </trkpt>
      <trkpt lat="47.31403" lon="6.26334">
        <ele>258.28</ele>
        <time>2016-09-06T07:21:59.000Z</time>
      </trkpt>
      <trkpt lat="47.31403" lon="6.26334">
        <ele>258.269</ele>
        <time>2016-09-06T07:22:00.000Z</time>
      </trkpt>
      <trkpt lat="47.31403" lon="6.26334">
        <ele>258.197</ele>
        <time>2016-09-06T07:22:01.000Z</time>
      </trkpt>
      <trkpt lat="47.31403" lon="6.26334">
        <ele>258.157</ele>
        <time>2016-09-06T07:22:02.000Z</time>
      </trkpt>
      <trkpt lat="47.31403" lon="6.26334">
        <ele>258.069</ele>
        <time>2016-09-06T07:22:03.000Z</time>
      </trkpt>
      <trkpt lat="47.31403" lon="6.26334">
        <ele>258.148</ele>
        <time>2016-09-06T07:22:04.000Z</time>
      </trkpt>
      <trkpt lat="47.31403" lon="6.26334">
        <ele>258.187</ele>
        <time>2016-09-06T07:22:05.000Z</time>
      </trkpt>
      <trkpt lat="47.31403" lon="6.26334">
        <ele>258.205</ele>
        <time>2016-09-06T07:22:06.000Z</time>
      </trkpt>
      <trkpt lat="47.31403" lon="6.26334">
        <ele>258.123</ele>
        <time>2016-09-06T07:22:07.000Z</time>
      </trkpt>
      <trkpt lat="47.31403" lon="6.26334">
        <ele>258.127</ele>
        <time>2016-09-06T07:22:08.000Z</time>
      </trkpt>
      <trkpt lat="47.31403" lon="6.26334">
        <ele>258.149</ele>
        <time>2016-09-06T07:22:09.000Z</time>
      </trkpt>
      <trkpt lat="47.31403" lon="6.26334">
        <ele>258.119</ele>
        <time>2016-09-06T07:22:10.000Z</time>
      </trkpt>
      <trkpt lat="47.31403" lon="6.26334">
        <ele>258.165</ele>
        <time>2016-09-06T07:22:11.000Z</time>
      </trkpt>
      <trkpt lat="47.31403" lon="6.26334">
        <ele>258.206</ele>
        <time>2016-09-06T07:22:12.000Z</time>
      </trkpt>
      <trkpt lat="47.31403" lon="6.26334">
        <ele>258.252</ele>
        <time>2016-09-06T07:22:13.000Z</time>
      </trkpt>
      <trkpt lat="47.31403" lon="6.26334">
        <ele>258.277</ele>
        <time>2016-09-06T07:22:14.000Z</time>
      </trkpt>
      <trkpt lat="47.31403" lon="6.26334">
        <ele>258.362</ele>
        <time>2016-09-06T07:22:15.000Z</time>
      </trkpt>
      <trkpt lat="47.31403" lon="6.26334">
        <ele>258.417</ele>
        <time>2016-09-06T07:22:16.000Z</time>
      </trkpt>
      <trkpt lat="47.31403" lon="6.26334">
        <ele>258.5</ele>
        <time>2016-09-06T07:22:17.000Z</time>
      </trkpt>
      <trkpt lat="47.31403" lon="6.26334">
        <ele>258.562</ele>
        <time>2016-09-06T07:22:18.000Z</time>
      </trkpt>
      <trkpt lat="47.31403" lon="6.26334">
        <ele>258.8</ele>
        <time>2016-09-06T07:22:19.000Z</time>
      </trkpt>
      <trkpt lat="47.31403" lon="6.26334">
        <ele>258.763</ele>
        <time>2016-09-06T07:22:20.000Z</time>
      </trkpt>
      <trkpt lat="47.31403" lon="6.26334">
        <ele>258.681</ele>
        <time>2016-09-06T07:22:21.000Z</time>
      </trkpt>
      <trkpt lat="47.31403" lon="6.26334">
        <ele>258.761</ele>
        <time>2016-09-06T07:22:22.000Z</time>
      </trkpt>
      <trkpt lat="47.31403" lon="6.26334">
        <ele>258.93</ele>
        <time>2016-09-06T07:22:23.000Z</time>
      </trkpt>
      <trkpt lat="47.31403" lon="6.26334">
        <ele>258.819</ele>
        <time>2016-09-06T07:22:24.000Z</time>
      </trkpt>
      <trkpt lat="47.31403" lon="6.26334">
        <ele>258.898</ele>
        <time>2016-09-06T07:22:25.000Z</time>
      </trkpt>
      <trkpt lat="47.31403" lon="6.26334">
        <ele>258.867</ele>
        <time>2016-09-06T07:22:26.000Z</time>
      </trkpt>
      <trkpt lat="47.31403" lon="6.26334">
        <ele>258.781</ele>
        <time>2016-09-06T07:22:27.000Z</time>
      </trkpt>
      <trkpt lat="47.31403" lon="6.26334">
        <ele>258.675</ele>
        <time>2016-09-06T07:22:28.000Z</time>
      </trkpt>
      <trkpt lat="47.31403" lon="6.26334">
        <ele>258.67</ele>
        <time>2016-09-06T07:22:29.000Z</time>
      </trkpt>
      <trkpt lat="47.31403" lon="6.26334">
        <ele>258.758</ele>
        <time>2016-09-06T07:22:30.000Z</time>
      </trkpt>
      <trkpt lat="47.31407" lon="6.26337">
        <ele>258.853</ele>
        <time>2016-09-06T07:22:31.000Z</time>
      </trkpt>
      <trkpt lat="47.31407" lon="6.26337">
        <ele>258.891</ele>
        <time>2016-09-06T07:22:32.000Z</time>
      </trkpt>
      <trkpt lat="47.31407" lon="6.26337">
        <ele>258.786</ele>
        <time>2016-09-06T07:22:33.000Z</time>
      </trkpt>
      <trkpt lat="47.31407" lon="6.26337">
        <ele>258.667</ele>
        <time>2016-09-06T07:22:34.000Z</time>
      </trkpt>
      <trkpt lat="47.31407" lon="6.26337">
        <ele>258.537</ele>
        <time>2016-09-06T07:22:35.000Z</time>
      </trkpt>
      <trkpt lat="47.31407" lon="6.26337">
        <ele>258.478</ele>
        <time>2016-09-06T07:22:36.000Z</time>
      </trkpt>
      <trkpt lat="47.31407" lon="6.26337">
        <ele>258.474</ele>
        <time>2016-09-06T07:22:37.000Z</time>
      </trkpt>
      <trkpt lat="47.31407" lon="6.26337">
        <ele>258.503</ele>
        <time>2016-09-06T07:22:38.000Z</time>
      </trkpt>
      <trkpt lat="47.31407" lon="6.26337">
        <ele>258.515</ele>
        <time>2016-09-06T07:22:39.000Z</time>
      </trkpt>
      <trkpt lat="47.31407" lon="6.26337">
        <ele>258.609</ele>
        <time>2016-09-06T07:22:40.000Z</time>
      </trkpt>
      <trkpt lat="47.31407" lon="6.26337">
        <ele>258.613</ele>
        <time>2016-09-06T07:22:41.000Z</time>
      </trkpt>
      <trkpt lat="47.31407" lon="6.26337">
        <ele>258.627</ele>
        <time>2016-09-06T07:22:42.000Z</time>
      </trkpt>
      <trkpt lat="47.31407" lon="6.26337">
        <ele>258.695</ele>
        <time>2016-09-06T07:22:43.000Z</time>
      </trkpt>
      <trkpt lat="47.31407" lon="6.26337">
        <ele>258.726</ele>
        <time>2016-09-06T07:22:44.000Z</time>
      </trkpt>
      <trkpt lat="47.31407" lon="6.26337">
        <ele>258.842</ele>
        <time>2016-09-06T07:22:45.000Z</time>
      </trkpt>
      <trkpt lat="47.31407" lon="6.26337">
        <ele>258.971</ele>
        <time>2016-09-06T07:22:46.000Z</time>
      </trkpt>
      <trkpt lat="47.31407" lon="6.26337">
        <ele>259.18</ele>
        <time>2016-09-06T07:22:47.000Z</time>
      </trkpt>
      <trkpt lat="47.31407" lon="6.26337">
        <ele>259.368</ele>
        <time>2016-09-06T07:22:48.000Z</time>
      </trkpt>
      <trkpt lat="47.31407" lon="6.26337">
        <ele>259.351</ele>
        <time>2016-09-06T07:22:49.000Z</time>
      </trkpt>
      <trkpt lat="47.31407" lon="6.26337">
        <ele>259.355</ele>
        <time>2016-09-06T07:22:50.000Z</time>
      </trkpt>
      <trkpt lat="47.31406" lon="6.26343">
        <ele>259.335</ele>
        <time>2016-09-06T07:22:51.000Z</time>
      </trkpt>
      <trkpt lat="47.31406" lon="6.26343">
        <ele>259.287</ele>
        <time>2016-09-06T07:22:52.000Z</time>
      </trkpt>
      <trkpt lat="47.31406" lon="6.26343">
        <ele>259.556</ele>
        <time>2016-09-06T07:22:53.000Z</time>
      </trkpt>
      <trkpt lat="47.31406" lon="6.26343">
        <ele>259.656</ele>
        <time>2016-09-06T07:22:54.000Z</time>
      </trkpt>
      <trkpt lat="47.31406" lon="6.26343">
        <ele>259.656</ele>
        <time>2016-09-06T07:22:55.000Z</time>
      </trkpt>
      <trkpt lat="47.31406" lon="6.26343">
        <ele>259.623</ele>
        <time>2016-09-06T07:22:56.000Z</time>
      </trkpt>
      <trkpt lat="47.31406" lon="6.26343">
        <ele>259.765</ele>
        <time>2016-09-06T07:22:57.000Z</time>
      </trkpt>
      <trkpt lat="47.31404" lon="6.26353">
        <ele>259.749</ele>
        <time>2016-09-06T07:22:58.000Z</time>
      </trkpt>
      <trkpt lat="47.31404" lon="6.26353">
        <ele>259.96</ele>
        <time>2016-09-06T07:22:59.000Z</time>
      </trkpt>
      <trkpt lat="47.31404" lon="6.26353">
        <ele>260.036</ele>
        <time>2016-09-06T07:23:00.000Z</time>
      </trkpt>
      <trkpt lat="47.31404" lon="6.26353">
        <ele>260.068</ele>
        <time>2016-09-06T07:23:01.000Z</time>
      </trkpt>
      <trkpt lat="47.31404" lon="6.26353">
        <ele>260.107</ele>
        <time>2016-09-06T07:23:02.000Z</time>
      </trkpt>
      <trkpt lat="47.31404" lon="6.26353">
        <ele>259.905</ele>
        <time>2016-09-06T07:23:03.000Z</time>
      </trkpt>
      <trkpt lat="47.31404" lon="6.26353">
        <ele>259.967</ele>
        <time>2016-09-06T07:23:04.000Z</time>
      </trkpt>
      <trkpt lat="47.31404" lon="6.26353">
        <ele>259.936</ele>
        <time>2016-09-06T07:23:05.000Z</time>
      </trkpt>
      <trkpt lat="47.31402" lon="6.26358">
        <ele>259.683</ele>
        <time>2016-09-06T07:23:06.000Z</time>
      </trkpt>
      <trkpt lat="47.31402" lon="6.2636">
        <ele>259.452</ele>
        <time>2016-09-06T07:23:07.000Z</time>
      </trkpt>
      <trkpt lat="47.31402" lon="6.26362">
        <ele>259.519</ele>
        <time>2016-09-06T07:23:08.000Z</time>
      </trkpt>
      <trkpt lat="47.31402" lon="6.26363">
        <ele>260.19</ele>
        <time>2016-09-06T07:23:09.000Z</time>
      </trkpt>
      <trkpt lat="47.31402" lon="6.26365">
        <ele>260.35</ele>
        <time>2016-09-06T07:23:10.000Z</time>
      </trkpt>
      <trkpt lat="47.31403" lon="6.26366">
        <ele>260.772</ele>
        <time>2016-09-06T07:23:11.000Z</time>
      </trkpt>
      <trkpt lat="47.31403" lon="6.26368">
        <ele>261.088</ele>
        <time>2016-09-06T07:23:12.000Z</time>
      </trkpt>
      <trkpt lat="47.31402" lon="6.26369">
        <ele>261.703</ele>
        <time>2016-09-06T07:23:13.000Z</time>
      </trkpt>
      <trkpt lat="47.31402" lon="6.26369">
        <ele>261.078</ele>
        <time>2016-09-06T07:23:14.000Z</time>
      </trkpt>
      <trkpt lat="47.31402" lon="6.2637">
        <ele>261.505</ele>
        <time>2016-09-06T07:23:15.000Z</time>
      </trkpt>
      <trkpt lat="47.31402" lon="6.26371">
        <ele>260.646</ele>
        <time>2016-09-06T07:23:16.000Z</time>
      </trkpt>
      <trkpt lat="47.31401" lon="6.26372">
        <ele>260.092</ele>
        <time>2016-09-06T07:23:17.000Z</time>
      </trkpt>
      <trkpt lat="47.31401" lon="6.26373">
        <ele>259.806</ele>
        <time>2016-09-06T07:23:18.000Z</time>
      </trkpt>
      <trkpt lat="47.31401" lon="6.26373">
        <ele>260.055</ele>
        <time>2016-09-06T07:23:19.000Z</time>
      </trkpt>
      <trkpt lat="47.31401" lon="6.26373">
        <ele>260.506</ele>
        <time>2016-09-06T07:23:20.000Z</time>
      </trkpt>
      <trkpt lat="47.31401" lon="6.26373">
        <ele>260.699</ele>
        <time>2016-09-06T07:23:21.000Z</time>
      </trkpt>
      <trkpt lat="47.31401" lon="6.26373">
        <ele>261.18</ele>
        <time>2016-09-06T07:23:22.000Z</time>
      </trkpt>
      <trkpt lat="47.31401" lon="6.26373">
        <ele>261.456</ele>
        <time>2016-09-06T07:23:23.000Z</time>
      </trkpt>
      <trkpt lat="47.31401" lon="6.26373">
        <ele>261.884</ele>
        <time>2016-09-06T07:23:24.000Z</time>
      </trkpt>
      <trkpt lat="47.31401" lon="6.26373">
        <ele>262.011</ele>
        <time>2016-09-06T07:23:25.000Z</time>
      </trkpt>
      <trkpt lat="47.31401" lon="6.26373">
        <ele>261.747</ele>
        <time>2016-09-06T07:23:26.000Z</time>
      </trkpt>
      <trkpt lat="47.314" lon="6.26376">
        <ele>261.826</ele>
        <time>2016-09-06T07:23:27.000Z</time>
      </trkpt>
      <trkpt lat="47.314" lon="6.26376">
        <ele>262.023</ele>
        <time>2016-09-06T07:23:28.000Z</time>
      </trkpt>
      <trkpt lat="47.314" lon="6.26376">
        <ele>261.785</ele>
        <time>2016-09-06T07:23:29.000Z</time>
      </trkpt>
      <trkpt lat="47.314" lon="6.26376">
        <ele>261.829</ele>
        <time>2016-09-06T07:23:30.000Z</time>
      </trkpt>
      <trkpt lat="47.314" lon="6.26376">
        <ele>262.047</ele>
        <time>2016-09-06T07:23:31.000Z</time>
      </trkpt>
      <trkpt lat="47.314" lon="6.26376">
        <ele>262.163</ele>
        <time>2016-09-06T07:23:32.000Z</time>
      </trkpt>
      <trkpt lat="47.314" lon="6.26376">
        <ele>262.317</ele>
        <time>2016-09-06T07:23:33.000Z</time>
      </trkpt>
      <trkpt lat="47.314" lon="6.26376">
        <ele>262.073</ele>
        <time>2016-09-06T07:23:34.000Z</time>
      </trkpt>
      <trkpt lat="47.314" lon="6.26376">
        <ele>261.803</ele>
        <time>2016-09-06T07:23:35.000Z</time>
      </trkpt>
      <trkpt lat="47.31402" lon="6.26376">
        <ele>262.006</ele>
        <time>2016-09-06T07:23:36.000Z</time>
      </trkpt>
      <trkpt lat="47.31402" lon="6.26376">
        <ele>261.768</ele>
        <time>2016-09-06T07:23:37.000Z</time>
      </trkpt>
      <trkpt lat="47.31403" lon="6.26377">
        <ele>261.699</ele>
        <time>2016-09-06T07:23:38.000Z</time>
      </trkpt>
      <trkpt lat="47.31403" lon="6.26377">
        <ele>262.193</ele>
        <time>2016-09-06T07:23:39.000Z</time>
      </trkpt>
      <trkpt lat="47.31403" lon="6.26377">
        <ele>262.672</ele>
        <time>2016-09-06T07:23:40.000Z</time>
      </trkpt>
      <trkpt lat="47.31404" lon="6.26377">
        <ele>262.309</ele>
        <time>2016-09-06T07:23:41.000Z</time>
      </trkpt>
      <trkpt lat="47.31405" lon="6.26378">
        <ele>262.04</ele>
        <time>2016-09-06T07:23:42.000Z</time>
      </trkpt>
      <trkpt lat="47.31406" lon="6.26379">
        <ele>261.795</ele>
        <time>2016-09-06T07:23:43.000Z</time>
      </trkpt>
      <trkpt lat="47.31406" lon="6.2638">
        <ele>262.193</ele>
        <time>2016-09-06T07:23:44.000Z</time>
      </trkpt>
      <trkpt lat="47.31407" lon="6.26381">
        <ele>261.952</ele>
        <time>2016-09-06T07:23:45.000Z</time>
      </trkpt>
      <trkpt lat="47.31407" lon="6.26382">
        <ele>261.882</ele>
        <time>2016-09-06T07:23:46.000Z</time>
      </trkpt>
      <trkpt lat="47.31408" lon="6.26383">
        <ele>261.864</ele>
        <time>2016-09-06T07:23:47.000Z</time>
      </trkpt>
      <trkpt lat="47.31409" lon="6.26383">
        <ele>261.623</ele>
        <time>2016-09-06T07:23:48.000Z</time>
      </trkpt>
      <trkpt lat="47.3141" lon="6.26384">
        <ele>261.655</ele>
        <time>2016-09-06T07:23:49.000Z</time>
      </trkpt>
      <trkpt lat="47.31411" lon="6.26385">
        <ele>261.797</ele>
        <time>2016-09-06T07:23:50.000Z</time>
      </trkpt>
      <trkpt lat="47.31412" lon="6.26386">
        <ele>262.083</ele>
        <time>2016-09-06T07:23:51.000Z</time>
      </trkpt>
      <trkpt lat="47.31415" lon="6.26387">
        <ele>260.991</ele>
        <time>2016-09-06T07:23:52.000Z</time>
      </trkpt>
      <trkpt lat="47.31417" lon="6.26388">
        <ele>261.188</ele>
        <time>2016-09-06T07:23:53.000Z</time>
      </trkpt>
      <trkpt lat="47.3142" lon="6.26389">
        <ele>261.549</ele>
        <time>2016-09-06T07:23:54.000Z</time>
      </trkpt>
      <trkpt lat="47.31423" lon="6.2639">
        <ele>261.424</ele>
        <time>2016-09-06T07:23:55.000Z</time>
      </trkpt>
      <trkpt lat="47.31425" lon="6.26391">
        <ele>261.678</ele>
        <time>2016-09-06T07:23:56.000Z</time>
      </trkpt>
      <trkpt lat="47.31428" lon="6.26392">
        <ele>261.582</ele>
        <time>2016-09-06T07:23:57.000Z</time>
      </trkpt>
      <trkpt lat="47.31431" lon="6.26393">
        <ele>261.824</ele>
        <time>2016-09-06T07:23:58.000Z</time>
      </trkpt>
      <trkpt lat="47.31433" lon="6.26393">
        <ele>261.748</ele>
        <time>2016-09-06T07:23:59.000Z</time>
      </trkpt>
      <trkpt lat="47.31435" lon="6.26393">
        <ele>261.769</ele>
        <time>2016-09-06T07:24:00.000Z</time>
      </trkpt>
      <trkpt lat="47.31436" lon="6.26394">
        <ele>261.832</ele>
        <time>2016-09-06T07:24:01.000Z</time>
      </trkpt>
      <trkpt lat="47.31436" lon="6.26394">
        <ele>261.595</ele>
        <time>2016-09-06T07:24:02.000Z</time>
      </trkpt>
      <trkpt lat="47.31436" lon="6.26394">
        <ele>261.953</ele>
        <time>2016-09-06T07:24:03.000Z</time>
      </trkpt>
      <trkpt lat="47.31437" lon="6.26394">
        <ele>262.346</ele>
        <time>2016-09-06T07:24:04.000Z</time>
      </trkpt>
      <trkpt lat="47.31437" lon="6.26394">
        <ele>262.392</ele>
        <time>2016-09-06T07:24:05.000Z</time>
      </trkpt>
      <trkpt lat="47.31437" lon="6.26394">
        <ele>261.15</ele>
        <time>2016-09-06T07:24:06.000Z</time>
      </trkpt>
      <trkpt lat="47.31437" lon="6.26394">
        <ele>259.269</ele>
        <time>2016-09-06T07:24:07.000Z</time>
      </trkpt>
      <trkpt lat="47.31437" lon="6.26394">
        <ele>258.577</ele>
        <time>2016-09-06T07:24:08.000Z</time>
      </trkpt>
      <trkpt lat="47.31437" lon="6.26394">
        <ele>257.889</ele>
        <time>2016-09-06T07:24:09.000Z</time>
      </trkpt>
      <trkpt lat="47.31432" lon="6.26395">
        <ele>257.778</ele>
        <time>2016-09-06T07:24:10.000Z</time>
      </trkpt>
      <trkpt lat="47.31432" lon="6.26395">
        <ele>257.69</ele>
        <time>2016-09-06T07:24:11.000Z</time>
      </trkpt>
      <trkpt lat="47.31432" lon="6.26395">
        <ele>257.849</ele>
        <time>2016-09-06T07:24:12.000Z</time>
      </trkpt>
      <trkpt lat="47.31432" lon="6.26395">
        <ele>258.096</ele>
        <time>2016-09-06T07:24:13.000Z</time>
      </trkpt>
      <trkpt lat="47.31431" lon="6.26396">
        <ele>257.561</ele>
        <time>2016-09-06T07:24:14.000Z</time>
      </trkpt>
      <trkpt lat="47.31432" lon="6.26397">
        <ele>257.148</ele>
        <time>2016-09-06T07:24:15.000Z</time>
      </trkpt>
      <trkpt lat="47.31433" lon="6.26398">
        <ele>257.35</ele>
        <time>2016-09-06T07:24:16.000Z</time>
      </trkpt>
      <trkpt lat="47.31434" lon="6.26398">
        <ele>257.555</ele>
        <time>2016-09-06T07:24:17.000Z</time>
      </trkpt>
      <trkpt lat="47.31435" lon="6.26399">
        <ele>258.051</ele>
        <time>2016-09-06T07:24:18.000Z</time>
      </trkpt>
      <trkpt lat="47.31436" lon="6.264">
        <ele>258.229</ele>
        <time>2016-09-06T07:24:19.000Z</time>
      </trkpt>
      <trkpt lat="47.31437" lon="6.264">
        <ele>258.475</ele>
        <time>2016-09-06T07:24:20.000Z</time>
      </trkpt>
      <trkpt lat="47.31438" lon="6.26401">
        <ele>258.307</ele>
        <time>2016-09-06T07:24:21.000Z</time>
      </trkpt>
      <trkpt lat="47.31439" lon="6.26401">
        <ele>258.591</ele>
        <time>2016-09-06T07:24:22.000Z</time>
      </trkpt>
      <trkpt lat="47.31442" lon="6.26402">
        <ele>259.062</ele>
        <time>2016-09-06T07:24:23.000Z</time>
      </trkpt>
      <trkpt lat="47.31444" lon="6.26402">
        <ele>258.676</ele>
        <time>2016-09-06T07:24:24.000Z</time>
      </trkpt>
      <trkpt lat="47.31447" lon="6.26403">
        <ele>259.273</ele>
        <time>2016-09-06T07:24:25.000Z</time>
      </trkpt>
      <trkpt lat="47.3145" lon="6.26404">
        <ele>258.997</ele>
        <time>2016-09-06T07:24:26.000Z</time>
      </trkpt>
      <trkpt lat="47.31453" lon="6.26406">
        <ele>258.973</ele>
        <time>2016-09-06T07:24:27.000Z</time>
      </trkpt>
      <trkpt lat="47.31456" lon="6.26407">
        <ele>258.866</ele>
        <time>2016-09-06T07:24:28.000Z</time>
      </trkpt>
      <trkpt lat="47.31459" lon="6.26409">
        <ele>258.791</ele>
        <time>2016-09-06T07:24:29.000Z</time>
      </trkpt>
      <trkpt lat="47.31462" lon="6.2641">
        <ele>259.055</ele>
        <time>2016-09-06T07:24:30.000Z</time>
      </trkpt>
      <trkpt lat="47.31466" lon="6.26412">
        <ele>258.174</ele>
        <time>2016-09-06T07:24:31.000Z</time>
      </trkpt>
      <trkpt lat="47.31469" lon="6.26413">
        <ele>259.259</ele>
        <time>2016-09-06T07:24:32.000Z</time>
      </trkpt>
      <trkpt lat="47.31472" lon="6.26415">
        <ele>259.653</ele>
        <time>2016-09-06T07:24:33.000Z</time>
      </trkpt>
      <trkpt lat="47.31476" lon="6.26417">
        <ele>259.266</ele>
        <time>2016-09-06T07:24:34.000Z</time>
      </trkpt>
      <trkpt lat="47.31479" lon="6.26418">
        <ele>259.18</ele>
        <time>2016-09-06T07:24:35.000Z</time>
      </trkpt>
      <trkpt lat="47.31481" lon="6.2642">
        <ele>259.217</ele>
        <time>2016-09-06T07:24:36.000Z</time>
      </trkpt>
      <trkpt lat="47.31484" lon="6.26422">
        <ele>259.473</ele>
        <time>2016-09-06T07:24:37.000Z</time>
      </trkpt>
      <trkpt lat="47.31488" lon="6.26423">
        <ele>259.45</ele>
        <time>2016-09-06T07:24:38.000Z</time>
      </trkpt>
      <trkpt lat="47.31491" lon="6.26425">
        <ele>259.219</ele>
        <time>2016-09-06T07:24:39.000Z</time>
      </trkpt>
      <trkpt lat="47.31493" lon="6.26426">
        <ele>258.982</ele>
        <time>2016-09-06T07:24:40.000Z</time>
      </trkpt>
      <trkpt lat="47.31496" lon="6.26426">
        <ele>259.208</ele>
        <time>2016-09-06T07:24:41.000Z</time>
      </trkpt>
      <trkpt lat="47.31496" lon="6.26426">
        <ele>258.972</ele>
        <time>2016-09-06T07:24:42.000Z</time>
      </trkpt>
      <trkpt lat="47.31499" lon="6.26425">
        <ele>258.93</ele>
        <time>2016-09-06T07:24:43.000Z</time>
      </trkpt>
      <trkpt lat="47.31502" lon="6.26426">
        <ele>259.282</ele>
        <time>2016-09-06T07:24:44.000Z</time>
      </trkpt>
      <trkpt lat="47.31506" lon="6.26427">
        <ele>259.611</ele>
        <time>2016-09-06T07:24:45.000Z</time>
      </trkpt>
      <trkpt lat="47.3151" lon="6.26428">
        <ele>259.71</ele>
        <time>2016-09-06T07:24:46.000Z</time>
      </trkpt>
      <trkpt lat="47.31515" lon="6.26428">
        <ele>259.787</ele>
        <time>2016-09-06T07:24:47.000Z</time>
      </trkpt>
      <trkpt lat="47.31519" lon="6.26429">
        <ele>260.116</ele>
        <time>2016-09-06T07:24:48.000Z</time>
      </trkpt>
      <trkpt lat="47.31523" lon="6.26429">
        <ele>260.013</ele>
        <time>2016-09-06T07:24:49.000Z</time>
      </trkpt>
      <trkpt lat="47.31528" lon="6.2643">
        <ele>259.658</ele>
        <time>2016-09-06T07:24:50.000Z</time>
      </trkpt>
      <trkpt lat="47.31531" lon="6.26431">
        <ele>259.328</ele>
        <time>2016-09-06T07:24:51.000Z</time>
      </trkpt>
      <trkpt lat="47.31534" lon="6.26432">
        <ele>259.628</ele>
        <time>2016-09-06T07:24:52.000Z</time>
      </trkpt>
      <trkpt lat="47.31538" lon="6.26434">
        <ele>259.226</ele>
        <time>2016-09-06T07:24:53.000Z</time>
      </trkpt>
      <trkpt lat="47.31542" lon="6.26436">
        <ele>259.31</ele>
        <time>2016-09-06T07:24:54.000Z</time>
      </trkpt>
      <trkpt lat="47.31546" lon="6.26439">
        <ele>259.328</ele>
        <time>2016-09-06T07:24:55.000Z</time>
      </trkpt>
      <trkpt lat="47.3155" lon="6.26443">
        <ele>259.817</ele>
        <time>2016-09-06T07:24:56.000Z</time>
      </trkpt>
      <trkpt lat="47.31554" lon="6.26446">
        <ele>259.532</ele>
        <time>2016-09-06T07:24:57.000Z</time>
      </trkpt>
      <trkpt lat="47.31557" lon="6.2645">
        <ele>259.51</ele>
        <time>2016-09-06T07:24:58.000Z</time>
      </trkpt>
      <trkpt lat="47.3156" lon="6.26454">
        <ele>259.553</ele>
        <time>2016-09-06T07:24:59.000Z</time>
      </trkpt>
      <trkpt lat="47.31562" lon="6.26458">
        <ele>259.851</ele>
        <time>2016-09-06T07:25:00.000Z</time>
      </trkpt>
      <trkpt lat="47.31565" lon="6.26462">
        <ele>260.018</ele>
        <time>2016-09-06T07:25:01.000Z</time>
      </trkpt>
      <trkpt lat="47.31567" lon="6.26466">
        <ele>260.018</ele>
        <time>2016-09-06T07:25:02.000Z</time>
      </trkpt>
      <trkpt lat="47.3157" lon="6.26471">
        <ele>260.171</ele>
        <time>2016-09-06T07:25:03.000Z</time>
      </trkpt>
      <trkpt lat="47.31572" lon="6.26475">
        <ele>260.003</ele>
        <time>2016-09-06T07:25:04.000Z</time>
      </trkpt>
      <trkpt lat="47.31575" lon="6.26478">
        <ele>259.986</ele>
        <time>2016-09-06T07:25:05.000Z</time>
      </trkpt>
      <trkpt lat="47.31577" lon="6.26482">
        <ele>260.394</ele>
        <time>2016-09-06T07:25:06.000Z</time>
      </trkpt>
      <trkpt lat="47.3158" lon="6.26486">
        <ele>259.364</ele>
        <time>2016-09-06T07:25:07.000Z</time>
      </trkpt>
      <trkpt lat="47.31582" lon="6.26489">
        <ele>259.234</ele>
        <time>2016-09-06T07:25:08.000Z</time>
      </trkpt>
      <trkpt lat="47.31584" lon="6.26493">
        <ele>259.705</ele>
        <time>2016-09-06T07:25:09.000Z</time>
      </trkpt>
      <trkpt lat="47.31587" lon="6.26497">
        <ele>259.812</ele>
        <time>2016-09-06T07:25:10.000Z</time>
      </trkpt>
      <trkpt lat="47.3159" lon="6.26501">
        <ele>258.885</ele>
        <time>2016-09-06T07:25:11.000Z</time>
      </trkpt>
      <trkpt lat="47.31592" lon="6.26505">
        <ele>259.252</ele>
        <time>2016-09-06T07:25:12.000Z</time>
      </trkpt>
      <trkpt lat="47.31596" lon="6.26508">
        <ele>259.382</ele>
        <time>2016-09-06T07:25:13.000Z</time>
      </trkpt>
      <trkpt lat="47.31599" lon="6.26512">
        <ele>259.437</ele>
        <time>2016-09-06T07:25:14.000Z</time>
      </trkpt>
      <trkpt lat="47.31602" lon="6.26515">
        <ele>259.855</ele>
        <time>2016-09-06T07:25:15.000Z</time>
      </trkpt>
      <trkpt lat="47.31604" lon="6.26519">
        <ele>261.037</ele>
        <time>2016-09-06T07:25:16.000Z</time>
      </trkpt>
      <trkpt lat="47.31607" lon="6.26522">
        <ele>261.055</ele>
        <time>2016-09-06T07:25:17.000Z</time>
      </trkpt>
      <trkpt lat="47.3161" lon="6.26525">
        <ele>260.675</ele>
        <time>2016-09-06T07:25:18.000Z</time>
      </trkpt>
      <trkpt lat="47.31613" lon="6.26528">
        <ele>260.042</ele>
        <time>2016-09-06T07:25:19.000Z</time>
      </trkpt>
      <trkpt lat="47.31616" lon="6.26531">
        <ele>258.955</ele>
        <time>2016-09-06T07:25:20.000Z</time>
      </trkpt>
      <trkpt lat="47.31619" lon="6.26534">
        <ele>259.358</ele>
        <time>2016-09-06T07:25:21.000Z</time>
      </trkpt>
      <trkpt lat="47.31623" lon="6.26537">
        <ele>259.612</ele>
        <time>2016-09-06T07:25:22.000Z</time>
      </trkpt>
      <trkpt lat="47.31626" lon="6.2654">
        <ele>259.824</ele>
        <time>2016-09-06T07:25:23.000Z</time>
      </trkpt>
      <trkpt lat="47.31629" lon="6.26543">
        <ele>260.319</ele>
        <time>2016-09-06T07:25:24.000Z</time>
      </trkpt>
      <trkpt lat="47.31632" lon="6.26545">
        <ele>260.552</ele>
        <time>2016-09-06T07:25:25.000Z</time>
      </trkpt>
      <trkpt lat="47.31635" lon="6.26548">
        <ele>260.665</ele>
        <time>2016-09-06T07:25:26.000Z</time>
      </trkpt>
      <trkpt lat="47.31638" lon="6.2655">
        <ele>260.842</ele>
        <time>2016-09-06T07:25:27.000Z</time>
      </trkpt>
      <trkpt lat="47.31642" lon="6.26553">
        <ele>261.078</ele>
        <time>2016-09-06T07:25:28.000Z</time>
      </trkpt>
      <trkpt lat="47.31645" lon="6.26556">
        <ele>261.045</ele>
        <time>2016-09-06T07:25:29.000Z</time>
      </trkpt>
      <trkpt lat="47.31648" lon="6.26559">
        <ele>261.031</ele>
        <time>2016-09-06T07:25:30.000Z</time>
      </trkpt>
      <trkpt lat="47.31652" lon="6.26561">
        <ele>261.151</ele>
        <time>2016-09-06T07:25:31.000Z</time>
      </trkpt>
      <trkpt lat="47.31655" lon="6.26564">
        <ele>261.005</ele>
        <time>2016-09-06T07:25:32.000Z</time>
      </trkpt>
      <trkpt lat="47.31658" lon="6.26566">
        <ele>261.008</ele>
        <time>2016-09-06T07:25:33.000Z</time>
      </trkpt>
      <trkpt lat="47.31662" lon="6.26568">
        <ele>260.98</ele>
        <time>2016-09-06T07:25:34.000Z</time>
      </trkpt>
      <trkpt lat="47.31665" lon="6.26571">
        <ele>261.081</ele>
        <time>2016-09-06T07:25:35.000Z</time>
      </trkpt>
      <trkpt lat="47.31668" lon="6.26573">
        <ele>261.206</ele>
        <time>2016-09-06T07:25:36.000Z</time>
      </trkpt>
      <trkpt lat="47.31671" lon="6.26575">
        <ele>261.035</ele>
        <time>2016-09-06T07:25:37.000Z</time>
      </trkpt>
      <trkpt lat="47.31674" lon="6.26578">
        <ele>261.031</ele>
        <time>2016-09-06T07:25:38.000Z</time>
      </trkpt>
      <trkpt lat="47.31678" lon="6.26581">
        <ele>261.132</ele>
        <time>2016-09-06T07:25:39.000Z</time>
      </trkpt>
      <trkpt lat="47.31681" lon="6.26583">
        <ele>261.061</ele>
        <time>2016-09-06T07:25:40.000Z</time>
      </trkpt>
      <trkpt lat="47.31685" lon="6.26586">
        <ele>260.792</ele>
        <time>2016-09-06T07:25:41.000Z</time>
      </trkpt>
      <trkpt lat="47.31688" lon="6.26588">
        <ele>260.888</ele>
        <time>2016-09-06T07:25:42.000Z</time>
      </trkpt>
      <trkpt lat="47.31691" lon="6.26591">
        <ele>260.887</ele>
        <time>2016-09-06T07:25:43.000Z</time>
      </trkpt>
      <trkpt lat="47.31694" lon="6.26593">
        <ele>261.081</ele>
        <time>2016-09-06T07:25:44.000Z</time>
      </trkpt>
      <trkpt lat="47.31698" lon="6.26596">
        <ele>261.143</ele>
        <time>2016-09-06T07:25:45.000Z</time>
      </trkpt>
      <trkpt lat="47.31701" lon="6.26599">
        <ele>261.215</ele>
        <time>2016-09-06T07:25:46.000Z</time>
      </trkpt>
      <trkpt lat="47.31704" lon="6.26602">
        <ele>261.364</ele>
        <time>2016-09-06T07:25:47.000Z</time>
      </trkpt>
      <trkpt lat="47.31707" lon="6.26605">
        <ele>261.185</ele>
        <time>2016-09-06T07:25:48.000Z</time>
      </trkpt>
      <trkpt lat="47.3171" lon="6.26608">
        <ele>261.147</ele>
        <time>2016-09-06T07:25:49.000Z</time>
      </trkpt>
      <trkpt lat="47.31713" lon="6.26612">
        <ele>260.981</ele>
        <time>2016-09-06T07:25:50.000Z</time>
      </trkpt>
      <trkpt lat="47.31716" lon="6.26615">
        <ele>260.739</ele>
        <time>2016-09-06T07:25:51.000Z</time>
      </trkpt>
      <trkpt lat="47.31719" lon="6.26619">
        <ele>261.058</ele>
        <time>2016-09-06T07:25:52.000Z</time>
      </trkpt>
      <trkpt lat="47.31722" lon="6.26623">
        <ele>260.9</ele>
        <time>2016-09-06T07:25:53.000Z</time>
      </trkpt>
      <trkpt lat="47.31725" lon="6.26627">
        <ele>261.107</ele>
        <time>2016-09-06T07:25:54.000Z</time>
      </trkpt>
      <trkpt lat="47.31728" lon="6.2663">
        <ele>261.359</ele>
        <time>2016-09-06T07:25:55.000Z</time>
      </trkpt>
      <trkpt lat="47.31731" lon="6.26634">
        <ele>261.597</ele>
        <time>2016-09-06T07:25:56.000Z</time>
      </trkpt>
      <trkpt lat="47.31734" lon="6.26638">
        <ele>261.829</ele>
        <time>2016-09-06T07:25:57.000Z</time>
      </trkpt>
      <trkpt lat="47.31737" lon="6.26641">
        <ele>261.353</ele>
        <time>2016-09-06T07:25:58.000Z</time>
      </trkpt>
      <trkpt lat="47.31739" lon="6.26644">
        <ele>261.745</ele>
        <time>2016-09-06T07:25:59.000Z</time>
      </trkpt>
      <trkpt lat="47.31742" lon="6.26648">
        <ele>261.167</ele>
        <time>2016-09-06T07:26:00.000Z</time>
      </trkpt>
      <trkpt lat="47.31745" lon="6.26651">
        <ele>261.23</ele>
        <time>2016-09-06T07:26:01.000Z</time>
      </trkpt>
      <trkpt lat="47.31748" lon="6.26655">
        <ele>261.184</ele>
        <time>2016-09-06T07:26:02.000Z</time>
      </trkpt>
      <trkpt lat="47.3175" lon="6.26658">
        <ele>261.836</ele>
        <time>2016-09-06T07:26:03.000Z</time>
      </trkpt>
      <trkpt lat="47.31753" lon="6.26661">
        <ele>262.085</ele>
        <time>2016-09-06T07:26:04.000Z</time>
      </trkpt>
      <trkpt lat="47.31756" lon="6.26664">
        <ele>261.643</ele>
        <time>2016-09-06T07:26:05.000Z</time>
      </trkpt>
      <trkpt lat="47.31759" lon="6.26668">
        <ele>261.513</ele>
        <time>2016-09-06T07:26:06.000Z</time>
      </trkpt>
      <trkpt lat="47.31761" lon="6.26671">
        <ele>260.591</ele>
        <time>2016-09-06T07:26:07.000Z</time>
      </trkpt>
      <trkpt lat="47.31764" lon="6.26674">
        <ele>260.559</ele>
        <time>2016-09-06T07:26:08.000Z</time>
      </trkpt>
      <trkpt lat="47.31766" lon="6.26676">
        <ele>260.937</ele>
        <time>2016-09-06T07:26:09.000Z</time>
      </trkpt>
      <trkpt lat="47.31769" lon="6.26679">
        <ele>260.466</ele>
        <time>2016-09-06T07:26:10.000Z</time>
      </trkpt>
      <trkpt lat="47.31772" lon="6.26683">
        <ele>259.428</ele>
        <time>2016-09-06T07:26:11.000Z</time>
      </trkpt>
      <trkpt lat="47.31775" lon="6.26686">
        <ele>258.841</ele>
        <time>2016-09-06T07:26:12.000Z</time>
      </trkpt>
      <trkpt lat="47.31778" lon="6.26689">
        <ele>259.019</ele>
        <time>2016-09-06T07:26:13.000Z</time>
      </trkpt>
      <trkpt lat="47.31782" lon="6.26692">
        <ele>259.64</ele>
        <time>2016-09-06T07:26:14.000Z</time>
      </trkpt>
      <trkpt lat="47.31785" lon="6.26695">
        <ele>259.741</ele>
        <time>2016-09-06T07:26:15.000Z</time>
      </trkpt>
      <trkpt lat="47.31788" lon="6.26698">
        <ele>259.862</ele>
        <time>2016-09-06T07:26:16.000Z</time>
      </trkpt>
      <trkpt lat="47.31791" lon="6.26702">
        <ele>259.926</ele>
        <time>2016-09-06T07:26:17.000Z</time>
      </trkpt>
      <trkpt lat="47.31793" lon="6.26706">
        <ele>259.644</ele>
        <time>2016-09-06T07:26:18.000Z</time>
      </trkpt>
      <trkpt lat="47.31796" lon="6.26711">
        <ele>260.168</ele>
        <time>2016-09-06T07:26:19.000Z</time>
      </trkpt>
      <trkpt lat="47.31799" lon="6.26715">
        <ele>260.738</ele>
        <time>2016-09-06T07:26:20.000Z</time>
      </trkpt>
      <trkpt lat="47.31802" lon="6.2672">
        <ele>260.564</ele>
        <time>2016-09-06T07:26:21.000Z</time>
      </trkpt>
      <trkpt lat="47.31805" lon="6.26724">
        <ele>260.665</ele>
        <time>2016-09-06T07:26:22.000Z</time>
      </trkpt>
      <trkpt lat="47.31808" lon="6.26729">
        <ele>261.312</ele>
        <time>2016-09-06T07:26:23.000Z</time>
      </trkpt>
      <trkpt lat="47.31811" lon="6.26734">
        <ele>261.411</ele>
        <time>2016-09-06T07:26:24.000Z</time>
      </trkpt>
      <trkpt lat="47.31813" lon="6.26738">
        <ele>260.002</ele>
        <time>2016-09-06T07:26:25.000Z</time>
      </trkpt>
      <trkpt lat="47.31815" lon="6.26743">
        <ele>260.11</ele>
        <time>2016-09-06T07:26:26.000Z</time>
      </trkpt>
      <trkpt lat="47.31816" lon="6.26747">
        <ele>261.494</ele>
        <time>2016-09-06T07:26:27.000Z</time>
      </trkpt>
      <trkpt lat="47.31817" lon="6.26752">
        <ele>261.134</ele>
        <time>2016-09-06T07:26:28.000Z</time>
      </trkpt>
      <trkpt lat="47.31819" lon="6.26757">
        <ele>261.516</ele>
        <time>2016-09-06T07:26:29.000Z</time>
      </trkpt>
      <trkpt lat="47.3182" lon="6.26762">
        <ele>261.583</ele>
        <time>2016-09-06T07:26:30.000Z</time>
      </trkpt>
      <trkpt lat="47.31822" lon="6.26767">
        <ele>260.624</ele>
        <time>2016-09-06T07:26:31.000Z</time>
      </trkpt>
      <trkpt lat="47.31824" lon="6.26771">
        <ele>260.926</ele>
        <time>2016-09-06T07:26:32.000Z</time>
      </trkpt>
      <trkpt lat="47.31826" lon="6.26775">
        <ele>261.229</ele>
        <time>2016-09-06T07:26:33.000Z</time>
      </trkpt>
      <trkpt lat="47.31828" lon="6.26779">
        <ele>260.325</ele>
        <time>2016-09-06T07:26:34.000Z</time>
      </trkpt>
      <trkpt lat="47.3183" lon="6.26783">
        <ele>260.89</ele>
        <time>2016-09-06T07:26:35.000Z</time>
      </trkpt>
      <trkpt lat="47.31832" lon="6.26788">
        <ele>261.711</ele>
        <time>2016-09-06T07:26:36.000Z</time>
      </trkpt>
      <trkpt lat="47.31833" lon="6.26793">
        <ele>262.308</ele>
        <time>2016-09-06T07:26:37.000Z</time>
      </trkpt>
      <trkpt lat="47.31835" lon="6.26797">
        <ele>262.525</ele>
        <time>2016-09-06T07:26:38.000Z</time>
      </trkpt>
      <trkpt lat="47.31836" lon="6.26801">
        <ele>262.162</ele>
        <time>2016-09-06T07:26:39.000Z</time>
      </trkpt>
      <trkpt lat="47.31838" lon="6.26804">
        <ele>262.699</ele>
        <time>2016-09-06T07:26:40.000Z</time>
      </trkpt>
      <trkpt lat="47.3184" lon="6.26807">
        <ele>262.645</ele>
        <time>2016-09-06T07:26:41.000Z</time>
      </trkpt>
      <trkpt lat="47.31842" lon="6.26811">
        <ele>262.775</ele>
        <time>2016-09-06T07:26:42.000Z</time>
      </trkpt>
      <trkpt lat="47.31844" lon="6.26816">
        <ele>262.822</ele>
        <time>2016-09-06T07:26:43.000Z</time>
      </trkpt>
      <trkpt lat="47.31845" lon="6.2682">
        <ele>263.056</ele>
        <time>2016-09-06T07:26:44.000Z</time>
      </trkpt>
      <trkpt lat="47.31847" lon="6.26823">
        <ele>263.235</ele>
        <time>2016-09-06T07:26:45.000Z</time>
      </trkpt>
      <trkpt lat="47.31848" lon="6.26827">
        <ele>263.147</ele>
        <time>2016-09-06T07:26:46.000Z</time>
      </trkpt>
      <trkpt lat="47.3185" lon="6.26831">
        <ele>262.737</ele>
        <time>2016-09-06T07:26:47.000Z</time>
      </trkpt>
      <trkpt lat="47.31851" lon="6.26835">
        <ele>262.257</ele>
        <time>2016-09-06T07:26:48.000Z</time>
      </trkpt>
      <trkpt lat="47.31853" lon="6.2684">
        <ele>262.738</ele>
        <time>2016-09-06T07:26:49.000Z</time>
      </trkpt>
      <trkpt lat="47.31854" lon="6.26845">
        <ele>263.197</ele>
        <time>2016-09-06T07:26:50.000Z</time>
      </trkpt>
      <trkpt lat="47.31856" lon="6.2685">
        <ele>262.966</ele>
        <time>2016-09-06T07:26:51.000Z</time>
      </trkpt>
      <trkpt lat="47.31857" lon="6.26856">
        <ele>263.424</ele>
        <time>2016-09-06T07:26:52.000Z</time>
      </trkpt>
      <trkpt lat="47.31858" lon="6.26861">
        <ele>262.898</ele>
        <time>2016-09-06T07:26:53.000Z</time>
      </trkpt>
      <trkpt lat="47.3186" lon="6.26867">
        <ele>263.101</ele>
        <time>2016-09-06T07:26:54.000Z</time>
      </trkpt>
      <trkpt lat="47.31861" lon="6.26872">
        <ele>263.29</ele>
        <time>2016-09-06T07:26:55.000Z</time>
      </trkpt>
      <trkpt lat="47.31862" lon="6.26878">
        <ele>263.604</ele>
        <time>2016-09-06T07:26:56.000Z</time>
      </trkpt>
      <trkpt lat="47.31863" lon="6.26883">
        <ele>263.304</ele>
        <time>2016-09-06T07:26:57.000Z</time>
      </trkpt>
      <trkpt lat="47.31865" lon="6.26889">
        <ele>263.332</ele>
        <time>2016-09-06T07:26:58.000Z</time>
      </trkpt>
      <trkpt lat="47.31866" lon="6.26894">
        <ele>263.505</ele>
        <time>2016-09-06T07:26:59.000Z</time>
      </trkpt>
      <trkpt lat="47.31868" lon="6.26899">
        <ele>263.951</ele>
        <time>2016-09-06T07:27:00.000Z</time>
      </trkpt>
      <trkpt lat="47.3187" lon="6.26904">
        <ele>263.63</ele>
        <time>2016-09-06T07:27:01.000Z</time>
      </trkpt>
      <trkpt lat="47.31872" lon="6.26909">
        <ele>263.682</ele>
        <time>2016-09-06T07:27:02.000Z</time>
      </trkpt>
      <trkpt lat="47.31874" lon="6.26914">
        <ele>263.314</ele>
        <time>2016-09-06T07:27:03.000Z</time>
      </trkpt>
      <trkpt lat="47.31875" lon="6.26919">
        <ele>263.214</ele>
        <time>2016-09-06T07:27:04.000Z</time>
      </trkpt>
      <trkpt lat="47.31877" lon="6.26924">
        <ele>263.32</ele>
        <time>2016-09-06T07:27:05.000Z</time>
      </trkpt>
      <trkpt lat="47.31878" lon="6.26928">
        <ele>263.401</ele>
        <time>2016-09-06T07:27:06.000Z</time>
      </trkpt>
      <trkpt lat="47.3188" lon="6.26932">
        <ele>263.366</ele>
        <time>2016-09-06T07:27:07.000Z</time>
      </trkpt>
      <trkpt lat="47.31882" lon="6.26937">
        <ele>263.497</ele>
        <time>2016-09-06T07:27:08.000Z</time>
      </trkpt>
      <trkpt lat="47.31883" lon="6.26942">
        <ele>263.955</ele>
        <time>2016-09-06T07:27:09.000Z</time>
      </trkpt>
      <trkpt lat="47.31884" lon="6.26947">
        <ele>263.152</ele>
        <time>2016-09-06T07:27:10.000Z</time>
      </trkpt>
      <trkpt lat="47.31886" lon="6.26952">
        <ele>263.139</ele>
        <time>2016-09-06T07:27:11.000Z</time>
      </trkpt>
      <trkpt lat="47.31888" lon="6.26957">
        <ele>262.699</ele>
        <time>2016-09-06T07:27:12.000Z</time>
      </trkpt>
      <trkpt lat="47.31889" lon="6.26963">
        <ele>263.141</ele>
        <time>2016-09-06T07:27:13.000Z</time>
      </trkpt>
      <trkpt lat="47.31891" lon="6.2697">
        <ele>263.102</ele>
        <time>2016-09-06T07:27:14.000Z</time>
      </trkpt>
      <trkpt lat="47.31892" lon="6.26977">
        <ele>262.987</ele>
        <time>2016-09-06T07:27:15.000Z</time>
      </trkpt>
      <trkpt lat="47.31893" lon="6.26983">
        <ele>262.926</ele>
        <time>2016-09-06T07:27:16.000Z</time>
      </trkpt>
      <trkpt lat="47.31895" lon="6.26988">
        <ele>263.221</ele>
        <time>2016-09-06T07:27:17.000Z</time>
      </trkpt>
      <trkpt lat="47.31896" lon="6.26994">
        <ele>263.373</ele>
        <time>2016-09-06T07:27:18.000Z</time>
      </trkpt>
      <trkpt lat="47.31898" lon="6.26999">
        <ele>262.731</ele>
        <time>2016-09-06T07:27:19.000Z</time>
      </trkpt>
      <trkpt lat="47.319" lon="6.27004">
        <ele>262.494</ele>
        <time>2016-09-06T07:27:20.000Z</time>
      </trkpt>
      <trkpt lat="47.31901" lon="6.27009">
        <ele>263.147</ele>
        <time>2016-09-06T07:27:21.000Z</time>
      </trkpt>
      <trkpt lat="47.31903" lon="6.27015">
        <ele>263.003</ele>
        <time>2016-09-06T07:27:22.000Z</time>
      </trkpt>
      <trkpt lat="47.31905" lon="6.2702">
        <ele>262.875</ele>
        <time>2016-09-06T07:27:23.000Z</time>
      </trkpt>
      <trkpt lat="47.31907" lon="6.27025">
        <ele>263.255</ele>
        <time>2016-09-06T07:27:24.000Z</time>
      </trkpt>
      <trkpt lat="47.3191" lon="6.2703">
        <ele>263.472</ele>
        <time>2016-09-06T07:27:25.000Z</time>
      </trkpt>
      <trkpt lat="47.31911" lon="6.27035">
        <ele>263.255</ele>
        <time>2016-09-06T07:27:26.000Z</time>
      </trkpt>
      <trkpt lat="47.31913" lon="6.27041">
        <ele>263.747</ele>
        <time>2016-09-06T07:27:27.000Z</time>
      </trkpt>
      <trkpt lat="47.31915" lon="6.27046">
        <ele>263.765</ele>
        <time>2016-09-06T07:27:28.000Z</time>
      </trkpt>
      <trkpt lat="47.31916" lon="6.27051">
        <ele>263.827</ele>
        <time>2016-09-06T07:27:29.000Z</time>
      </trkpt>
      <trkpt lat="47.31917" lon="6.27057">
        <ele>263.212</ele>
        <time>2016-09-06T07:27:30.000Z</time>
      </trkpt>
      <trkpt lat="47.31919" lon="6.27062">
        <ele>262.86</ele>
        <time>2016-09-06T07:27:31.000Z</time>
      </trkpt>
      <trkpt lat="47.3192" lon="6.27068">
        <ele>263.379</ele>
        <time>2016-09-06T07:27:32.000Z</time>
      </trkpt>
      <trkpt lat="47.31922" lon="6.27074">
        <ele>262.867</ele>
        <time>2016-09-06T07:27:33.000Z</time>
      </trkpt>
      <trkpt lat="47.31923" lon="6.27081">
        <ele>262.929</ele>
        <time>2016-09-06T07:27:34.000Z</time>
      </trkpt>
      <trkpt lat="47.31925" lon="6.27086">
        <ele>262.782</ele>
        <time>2016-09-06T07:27:35.000Z</time>
      </trkpt>
      <trkpt lat="47.31926" lon="6.27092">
        <ele>262.891</ele>
        <time>2016-09-06T07:27:36.000Z</time>
      </trkpt>
      <trkpt lat="47.31927" lon="6.27097">
        <ele>263.167</ele>
        <time>2016-09-06T07:27:37.000Z</time>
      </trkpt>
      <trkpt lat="47.31929" lon="6.27102">
        <ele>263.499</ele>
        <time>2016-09-06T07:27:38.000Z</time>
      </trkpt>
      <trkpt lat="47.3193" lon="6.27107">
        <ele>263.295</ele>
        <time>2016-09-06T07:27:39.000Z</time>
      </trkpt>
      <trkpt lat="47.31931" lon="6.27112">
        <ele>263.479</ele>
        <time>2016-09-06T07:27:40.000Z</time>
      </trkpt>
      <trkpt lat="47.31932" lon="6.27117">
        <ele>263.885</ele>
        <time>2016-09-06T07:27:41.000Z</time>
      </trkpt>
      <trkpt lat="47.31933" lon="6.27122">
        <ele>264.373</ele>
        <time>2016-09-06T07:27:42.000Z</time>
      </trkpt>
      <trkpt lat="47.31934" lon="6.27128">
        <ele>264.251</ele>
        <time>2016-09-06T07:27:43.000Z</time>
      </trkpt>
      <trkpt lat="47.31935" lon="6.27133">
        <ele>264.629</ele>
        <time>2016-09-06T07:27:44.000Z</time>
      </trkpt>
      <trkpt lat="47.31936" lon="6.27138">
        <ele>264.618</ele>
        <time>2016-09-06T07:27:45.000Z</time>
      </trkpt>
      <trkpt lat="47.31938" lon="6.27144">
        <ele>264.641</ele>
        <time>2016-09-06T07:27:46.000Z</time>
      </trkpt>
      <trkpt lat="47.31939" lon="6.27149">
        <ele>264.52</ele>
        <time>2016-09-06T07:27:47.000Z</time>
      </trkpt>
      <trkpt lat="47.31941" lon="6.27155">
        <ele>264.606</ele>
        <time>2016-09-06T07:27:48.000Z</time>
      </trkpt>
      <trkpt lat="47.31942" lon="6.27161">
        <ele>264.658</ele>
        <time>2016-09-06T07:27:49.000Z</time>
      </trkpt>
      <trkpt lat="47.31943" lon="6.27167">
        <ele>263.896</ele>
        <time>2016-09-06T07:27:50.000Z</time>
      </trkpt>
      <trkpt lat="47.31944" lon="6.27173">
        <ele>264.007</ele>
        <time>2016-09-06T07:27:51.000Z</time>
      </trkpt>
      <trkpt lat="47.31944" lon="6.27179">
        <ele>264.389</ele>
        <time>2016-09-06T07:27:52.000Z</time>
      </trkpt>
      <trkpt lat="47.31945" lon="6.27184">
        <ele>264.127</ele>
        <time>2016-09-06T07:27:53.000Z</time>
      </trkpt>
      <trkpt lat="47.31946" lon="6.2719">
        <ele>263.754</ele>
        <time>2016-09-06T07:27:54.000Z</time>
      </trkpt>
      <trkpt lat="47.31947" lon="6.27196">
        <ele>264.384</ele>
        <time>2016-09-06T07:27:55.000Z</time>
      </trkpt>
      <trkpt lat="47.31948" lon="6.27201">
        <ele>264.757</ele>
        <time>2016-09-06T07:27:56.000Z</time>
      </trkpt>
      <trkpt lat="47.31949" lon="6.27206">
        <ele>264.987</ele>
        <time>2016-09-06T07:27:57.000Z</time>
      </trkpt>
      <trkpt lat="47.3195" lon="6.27212">
        <ele>265.011</ele>
        <time>2016-09-06T07:27:58.000Z</time>
      </trkpt>
      <trkpt lat="47.31951" lon="6.27217">
        <ele>264.648</ele>
        <time>2016-09-06T07:27:59.000Z</time>
      </trkpt>
      <trkpt lat="47.31952" lon="6.27223">
        <ele>264.901</ele>
        <time>2016-09-06T07:28:00.000Z</time>
      </trkpt>
      <trkpt lat="47.31953" lon="6.27228">
        <ele>265.002</ele>
        <time>2016-09-06T07:28:01.000Z</time>
      </trkpt>
      <trkpt lat="47.31953" lon="6.27234">
        <ele>265.113</ele>
        <time>2016-09-06T07:28:02.000Z</time>
      </trkpt>
      <trkpt lat="47.31954" lon="6.27238">
        <ele>265.246</ele>
        <time>2016-09-06T07:28:03.000Z</time>
      </trkpt>
      <trkpt lat="47.31955" lon="6.27243">
        <ele>265.348</ele>
        <time>2016-09-06T07:28:04.005Z</time>
      </trkpt>
      <trkpt lat="47.31956" lon="6.27249">
        <ele>265.347</ele>
        <time>2016-09-06T07:28:05.001Z</time>
      </trkpt>
      <trkpt lat="47.31957" lon="6.27254">
        <ele>264.942</ele>
        <time>2016-09-06T07:28:06.000Z</time>
      </trkpt>
      <trkpt lat="47.31958" lon="6.27259">
        <ele>264.683</ele>
        <time>2016-09-06T07:28:07.000Z</time>
      </trkpt>
      <trkpt lat="47.31959" lon="6.27264">
        <ele>264.924</ele>
        <time>2016-09-06T07:28:08.000Z</time>
      </trkpt>
      <trkpt lat="47.3196" lon="6.27269">
        <ele>264.282</ele>
        <time>2016-09-06T07:28:09.000Z</time>
      </trkpt>
      <trkpt lat="47.31961" lon="6.27274">
        <ele>264.471</ele>
        <time>2016-09-06T07:28:10.000Z</time>
      </trkpt>
      <trkpt lat="47.31961" lon="6.27279">
        <ele>264.872</ele>
        <time>2016-09-06T07:28:11.000Z</time>
      </trkpt>
      <trkpt lat="47.31962" lon="6.27285">
        <ele>265.015</ele>
        <time>2016-09-06T07:28:12.000Z</time>
      </trkpt>
      <trkpt lat="47.31963" lon="6.2729">
        <ele>264.065</ele>
        <time>2016-09-06T07:28:13.000Z</time>
      </trkpt>
      <trkpt lat="47.31963" lon="6.27295">
        <ele>265.431</ele>
        <time>2016-09-06T07:28:14.000Z</time>
      </trkpt>
      <trkpt lat="47.31965" lon="6.27301">
        <ele>266.529</ele>
        <time>2016-09-06T07:28:15.000Z</time>
      </trkpt>
      <trkpt lat="47.31966" lon="6.27306">
        <ele>266.591</ele>
        <time>2016-09-06T07:28:16.000Z</time>
      </trkpt>
      <trkpt lat="47.31967" lon="6.2731">
        <ele>267.113</ele>
        <time>2016-09-06T07:28:17.000Z</time>
      </trkpt>
      <trkpt lat="47.31968" lon="6.27315">
        <ele>268.015</ele>
        <time>2016-09-06T07:28:18.000Z</time>
      </trkpt>
      <trkpt lat="47.31969" lon="6.27321">
        <ele>268.189</ele>
        <time>2016-09-06T07:28:19.000Z</time>
      </trkpt>
      <trkpt lat="47.3197" lon="6.27326">
        <ele>268.914</ele>
        <time>2016-09-06T07:28:20.000Z</time>
      </trkpt>
      <trkpt lat="47.31972" lon="6.27332">
        <ele>269.788</ele>
        <time>2016-09-06T07:28:21.000Z</time>
      </trkpt>
      <trkpt lat="47.31973" lon="6.27338">
        <ele>269.346</ele>
        <time>2016-09-06T07:28:22.000Z</time>
      </trkpt>
      <trkpt lat="47.31974" lon="6.27345">
        <ele>268.387</ele>
        <time>2016-09-06T07:28:23.000Z</time>
      </trkpt>
      <trkpt lat="47.31974" lon="6.27351">
        <ele>268.184</ele>
        <time>2016-09-06T07:28:24.000Z</time>
      </trkpt>
      <trkpt lat="47.31975" lon="6.27357">
        <ele>267.478</ele>
        <time>2016-09-06T07:28:25.000Z</time>
      </trkpt>
      <trkpt lat="47.31975" lon="6.27364">
        <ele>267.461</ele>
        <time>2016-09-06T07:28:26.000Z</time>
      </trkpt>
      <trkpt lat="47.31976" lon="6.27371">
        <ele>267.311</ele>
        <time>2016-09-06T07:28:27.000Z</time>
      </trkpt>
      <trkpt lat="47.31976" lon="6.27377">
        <ele>267.125</ele>
        <time>2016-09-06T07:28:28.000Z</time>
      </trkpt>
      <trkpt lat="47.31976" lon="6.27383">
        <ele>268.986</ele>
        <time>2016-09-06T07:28:29.000Z</time>
      </trkpt>
      <trkpt lat="47.31977" lon="6.27389">
        <ele>269.002</ele>
        <time>2016-09-06T07:28:30.000Z</time>
      </trkpt>
      <trkpt lat="47.31978" lon="6.27395">
        <ele>268.967</ele>
        <time>2016-09-06T07:28:31.000Z</time>
      </trkpt>
      <trkpt lat="47.31978" lon="6.27401">
        <ele>268.566</ele>
        <time>2016-09-06T07:28:32.000Z</time>
      </trkpt>
      <trkpt lat="47.31978" lon="6.27407">
        <ele>266.87</ele>
        <time>2016-09-06T07:28:33.000Z</time>
      </trkpt>
      <trkpt lat="47.31978" lon="6.27413">
        <ele>266.434</ele>
        <time>2016-09-06T07:28:34.000Z</time>
      </trkpt>
      <trkpt lat="47.31978" lon="6.27419">
        <ele>266.873</ele>
        <time>2016-09-06T07:28:35.000Z</time>
      </trkpt>
      <trkpt lat="47.31978" lon="6.27425">
        <ele>267.651</ele>
        <time>2016-09-06T07:28:36.000Z</time>
      </trkpt>
      <trkpt lat="47.31979" lon="6.27431">
        <ele>267.068</ele>
        <time>2016-09-06T07:28:37.000Z</time>
      </trkpt>
      <trkpt lat="47.3198" lon="6.27438">
        <ele>266.811</ele>
        <time>2016-09-06T07:28:38.000Z</time>
      </trkpt>
      <trkpt lat="47.31981" lon="6.27444">
        <ele>266.456</ele>
        <time>2016-09-06T07:28:39.000Z</time>
      </trkpt>
      <trkpt lat="47.31981" lon="6.2745">
        <ele>267.668</ele>
        <time>2016-09-06T07:28:40.000Z</time>
      </trkpt>
      <trkpt lat="47.31982" lon="6.27457">
        <ele>266.837</ele>
        <time>2016-09-06T07:28:41.000Z</time>
      </trkpt>
      <trkpt lat="47.31982" lon="6.27463">
        <ele>266.772</ele>
        <time>2016-09-06T07:28:42.000Z</time>
      </trkpt>
      <trkpt lat="47.31982" lon="6.27469">
        <ele>267.924</ele>
        <time>2016-09-06T07:28:43.000Z</time>
      </trkpt>
      <trkpt lat="47.31982" lon="6.27476">
        <ele>267.86</ele>
        <time>2016-09-06T07:28:44.000Z</time>
      </trkpt>
      <trkpt lat="47.31983" lon="6.27482">
        <ele>267.774</ele>
        <time>2016-09-06T07:28:45.000Z</time>
      </trkpt>
      <trkpt lat="47.31984" lon="6.27488">
        <ele>268.264</ele>
        <time>2016-09-06T07:28:46.000Z</time>
      </trkpt>
      <trkpt lat="47.31984" lon="6.27494">
        <ele>268.205</ele>
        <time>2016-09-06T07:28:47.000Z</time>
      </trkpt>
      <trkpt lat="47.31985" lon="6.275">
        <ele>268.109</ele>
        <time>2016-09-06T07:28:48.000Z</time>
      </trkpt>
      <trkpt lat="47.31985" lon="6.27506">
        <ele>268.285</ele>
        <time>2016-09-06T07:28:49.000Z</time>
      </trkpt>
      <trkpt lat="47.31986" lon="6.27512">
        <ele>267.963</ele>
        <time>2016-09-06T07:28:50.000Z</time>
      </trkpt>
      <trkpt lat="47.31987" lon="6.27518">
        <ele>267.898</ele>
        <time>2016-09-06T07:28:51.000Z</time>
      </trkpt>
      <trkpt lat="47.31987" lon="6.27523">
        <ele>266.282</ele>
        <time>2016-09-06T07:28:52.000Z</time>
      </trkpt>
      <trkpt lat="47.31989" lon="6.27528">
        <ele>266.094</ele>
        <time>2016-09-06T07:28:53.000Z</time>
      </trkpt>
      <trkpt lat="47.31991" lon="6.27533">
        <ele>265.4</ele>
        <time>2016-09-06T07:28:54.000Z</time>
      </trkpt>
      <trkpt lat="47.31994" lon="6.27537">
        <ele>265.566</ele>
        <time>2016-09-06T07:28:55.000Z</time>
      </trkpt>
      <trkpt lat="47.31996" lon="6.27541">
        <ele>264.912</ele>
        <time>2016-09-06T07:28:56.000Z</time>
      </trkpt>
      <trkpt lat="47.31999" lon="6.27545">
        <ele>266.406</ele>
        <time>2016-09-06T07:28:57.000Z</time>
      </trkpt>
      <trkpt lat="47.32003" lon="6.27549">
        <ele>264.701</ele>
        <time>2016-09-06T07:28:58.000Z</time>
      </trkpt>
      <trkpt lat="47.32006" lon="6.27551">
        <ele>263.984</ele>
        <time>2016-09-06T07:28:59.000Z</time>
      </trkpt>
      <trkpt lat="47.3201" lon="6.27554">
        <ele>264.664</ele>
        <time>2016-09-06T07:29:00.000Z</time>
      </trkpt>
      <trkpt lat="47.32015" lon="6.27555">
        <ele>264.966</ele>
        <time>2016-09-06T07:29:01.000Z</time>
      </trkpt>
      <trkpt lat="47.32019" lon="6.27555">
        <ele>263.164</ele>
        <time>2016-09-06T07:29:02.000Z</time>
      </trkpt>
      <trkpt lat="47.32023" lon="6.27555">
        <ele>262.6</ele>
        <time>2016-09-06T07:29:03.000Z</time>
      </trkpt>
      <trkpt lat="47.32027" lon="6.27554">
        <ele>262.521</ele>
        <time>2016-09-06T07:29:04.000Z</time>
      </trkpt>
      <trkpt lat="47.32031" lon="6.27553">
        <ele>261.657</ele>
        <time>2016-09-06T07:29:05.000Z</time>
      </trkpt>
      <trkpt lat="47.32034" lon="6.27551">
        <ele>261.134</ele>
        <time>2016-09-06T07:29:06.000Z</time>
      </trkpt>
      <trkpt lat="47.32038" lon="6.2755">
        <ele>260.896</ele>
        <time>2016-09-06T07:29:07.000Z</time>
      </trkpt>
      <trkpt lat="47.32041" lon="6.27548">
        <ele>261.149</ele>
        <time>2016-09-06T07:29:08.000Z</time>
      </trkpt>
      <trkpt lat="47.32045" lon="6.27546">
        <ele>261.45</ele>
        <time>2016-09-06T07:29:09.000Z</time>
      </trkpt>
      <trkpt lat="47.32049" lon="6.27544">
        <ele>261.213</ele>
        <time>2016-09-06T07:29:10.000Z</time>
      </trkpt>
      <trkpt lat="47.32052" lon="6.27542">
        <ele>260.881</ele>
        <time>2016-09-06T07:29:11.000Z</time>
      </trkpt>
      <trkpt lat="47.32055" lon="6.2754">
        <ele>261.104</ele>
        <time>2016-09-06T07:29:12.000Z</time>
      </trkpt>
      <trkpt lat="47.32058" lon="6.27538">
        <ele>261.299</ele>
        <time>2016-09-06T07:29:13.000Z</time>
      </trkpt>
      <trkpt lat="47.32062" lon="6.27537">
        <ele>261.402</ele>
        <time>2016-09-06T07:29:14.000Z</time>
      </trkpt>
      <trkpt lat="47.32065" lon="6.27535">
        <ele>261.918</ele>
        <time>2016-09-06T07:29:15.000Z</time>
      </trkpt>
      <trkpt lat="47.32068" lon="6.27534">
        <ele>261.945</ele>
        <time>2016-09-06T07:29:16.000Z</time>
      </trkpt>
      <trkpt lat="47.32071" lon="6.27532">
        <ele>262.487</ele>
        <time>2016-09-06T07:29:17.000Z</time>
      </trkpt>
      <trkpt lat="47.32075" lon="6.27531">
        <ele>262.908</ele>
        <time>2016-09-06T07:29:18.000Z</time>
      </trkpt>
      <trkpt lat="47.32079" lon="6.27529">
        <ele>263.255</ele>
        <time>2016-09-06T07:29:19.000Z</time>
      </trkpt>
      <trkpt lat="47.32083" lon="6.27528">
        <ele>263.039</ele>
        <time>2016-09-06T07:29:20.000Z</time>
      </trkpt>
      <trkpt lat="47.32086" lon="6.27526">
        <ele>263.778</ele>
        <time>2016-09-06T07:29:21.000Z</time>
      </trkpt>
      <trkpt lat="47.3209" lon="6.27524">
        <ele>264.33</ele>
        <time>2016-09-06T07:29:22.000Z</time>
      </trkpt>
      <trkpt lat="47.32093" lon="6.27522">
        <ele>264.398</ele>
        <time>2016-09-06T07:29:23.000Z</time>
      </trkpt>
      <trkpt lat="47.32096" lon="6.2752">
        <ele>264.6</ele>
        <time>2016-09-06T07:29:24.000Z</time>
      </trkpt>
      <trkpt lat="47.321" lon="6.27518">
        <ele>264.467</ele>
        <time>2016-09-06T07:29:25.000Z</time>
      </trkpt>
      <trkpt lat="47.32103" lon="6.27517">
        <ele>264.584</ele>
        <time>2016-09-06T07:29:26.000Z</time>
      </trkpt>
      <trkpt lat="47.32106" lon="6.27515">
        <ele>264.979</ele>
        <time>2016-09-06T07:29:27.000Z</time>
      </trkpt>
      <trkpt lat="47.3211" lon="6.27513">
        <ele>265.285</ele>
        <time>2016-09-06T07:29:28.000Z</time>
      </trkpt>
      <trkpt lat="47.32113" lon="6.27511">
        <ele>265.497</ele>
        <time>2016-09-06T07:29:29.000Z</time>
      </trkpt>
      <trkpt lat="47.32117" lon="6.2751">
        <ele>264.983</ele>
        <time>2016-09-06T07:29:30.000Z</time>
      </trkpt>
      <trkpt lat="47.32121" lon="6.27508">
        <ele>264.719</ele>
        <time>2016-09-06T07:29:31.000Z</time>
      </trkpt>
      <trkpt lat="47.32124" lon="6.27506">
        <ele>264.75</ele>
        <time>2016-09-06T07:29:32.000Z</time>
      </trkpt>
      <trkpt lat="47.32128" lon="6.27504">
        <ele>264.818</ele>
        <time>2016-09-06T07:29:33.000Z</time>
      </trkpt>
      <trkpt lat="47.32131" lon="6.27501">
        <ele>264.609</ele>
        <time>2016-09-06T07:29:34.000Z</time>
      </trkpt>
      <trkpt lat="47.32134" lon="6.275">
        <ele>265.382</ele>
        <time>2016-09-06T07:29:35.000Z</time>
      </trkpt>
      <trkpt lat="47.32138" lon="6.27498">
        <ele>265.838</ele>
        <time>2016-09-06T07:29:36.000Z</time>
      </trkpt>
      <trkpt lat="47.32142" lon="6.27496">
        <ele>265.921</ele>
        <time>2016-09-06T07:29:37.000Z</time>
      </trkpt>
      <trkpt lat="47.32147" lon="6.27495">
        <ele>265.587</ele>
        <time>2016-09-06T07:29:38.000Z</time>
      </trkpt>
      <trkpt lat="47.32151" lon="6.27495">
        <ele>264.139</ele>
        <time>2016-09-06T07:29:39.000Z</time>
      </trkpt>
      <trkpt lat="47.32156" lon="6.27496">
        <ele>263.86</ele>
        <time>2016-09-06T07:29:40.000Z</time>
      </trkpt>
      <trkpt lat="47.32161" lon="6.27498">
        <ele>263.276</ele>
        <time>2016-09-06T07:29:41.000Z</time>
      </trkpt>
      <trkpt lat="47.32166" lon="6.275">
        <ele>263.31</ele>
        <time>2016-09-06T07:29:42.000Z</time>
      </trkpt>
      <trkpt lat="47.3217" lon="6.27502">
        <ele>263.198</ele>
        <time>2016-09-06T07:29:43.000Z</time>
      </trkpt>
      <trkpt lat="47.32174" lon="6.27502">
        <ele>263.438</ele>
        <time>2016-09-06T07:29:44.000Z</time>
      </trkpt>
      <trkpt lat="47.32177" lon="6.275">
        <ele>263.222</ele>
        <time>2016-09-06T07:29:45.000Z</time>
      </trkpt>
      <trkpt lat="47.32179" lon="6.27495">
        <ele>263.155</ele>
        <time>2016-09-06T07:29:46.000Z</time>
      </trkpt>
      <trkpt lat="47.32178" lon="6.27489">
        <ele>262.305</ele>
        <time>2016-09-06T07:29:47.000Z</time>
      </trkpt>
      <trkpt lat="47.32176" lon="6.27483">
        <ele>262.637</ele>
        <time>2016-09-06T07:29:48.000Z</time>
      </trkpt>
      <trkpt lat="47.32172" lon="6.27479">
        <ele>262.644</ele>
        <time>2016-09-06T07:29:49.000Z</time>
      </trkpt>
      <trkpt lat="47.32167" lon="6.27477">
        <ele>262.538</ele>
        <time>2016-09-06T07:29:50.000Z</time>
      </trkpt>
      <trkpt lat="47.32161" lon="6.27475">
        <ele>262.206</ele>
        <time>2016-09-06T07:29:51.000Z</time>
      </trkpt>
      <trkpt lat="47.3215" lon="6.27478">
        <ele>261.971</ele>
        <time>2016-09-06T07:29:52.000Z</time>
      </trkpt>
      <trkpt lat="47.32145" lon="6.27476">
        <ele>261.47</ele>
        <time>2016-09-06T07:29:53.000Z</time>
      </trkpt>
      <trkpt lat="47.3214" lon="6.27473">
        <ele>261.439</ele>
        <time>2016-09-06T07:29:54.000Z</time>
      </trkpt>
      <trkpt lat="47.32136" lon="6.27469">
        <ele>261.027</ele>
        <time>2016-09-06T07:29:55.000Z</time>
      </trkpt>
      <trkpt lat="47.32133" lon="6.27464">
        <ele>260.637</ele>
        <time>2016-09-06T07:29:56.000Z</time>
      </trkpt>
      <trkpt lat="47.32129" lon="6.27458">
        <ele>260.54</ele>
        <time>2016-09-06T07:29:57.000Z</time>
      </trkpt>
      <trkpt lat="47.32126" lon="6.27453">
        <ele>260.346</ele>
        <time>2016-09-06T07:29:58.000Z</time>
      </trkpt>
      <trkpt lat="47.32123" lon="6.27446">
        <ele>259.91</ele>
        <time>2016-09-06T07:29:59.000Z</time>
      </trkpt>
      <trkpt lat="47.32122" lon="6.2744">
        <ele>259.901</ele>
        <time>2016-09-06T07:30:00.000Z</time>
      </trkpt>
      <trkpt lat="47.32121" lon="6.27434">
        <ele>259.554</ele>
        <time>2016-09-06T07:30:01.000Z</time>
      </trkpt>
      <trkpt lat="47.32121" lon="6.27427">
        <ele>259.425</ele>
        <time>2016-09-06T07:30:02.000Z</time>
      </trkpt>
      <trkpt lat="47.3212" lon="6.2742">
        <ele>259.341</ele>
        <time>2016-09-06T07:30:03.000Z</time>
      </trkpt>
      <trkpt lat="47.3212" lon="6.27413">
        <ele>259.443</ele>
        <time>2016-09-06T07:30:04.000Z</time>
      </trkpt>
      <trkpt lat="47.32118" lon="6.27407">
        <ele>259.131</ele>
        <time>2016-09-06T07:30:05.000Z</time>
      </trkpt>
      <trkpt lat="47.32117" lon="6.274">
        <ele>259.59</ele>
        <time>2016-09-06T07:30:06.000Z</time>
      </trkpt>
      <trkpt lat="47.32116" lon="6.27394">
        <ele>259.339</ele>
        <time>2016-09-06T07:30:07.000Z</time>
      </trkpt>
      <trkpt lat="47.32115" lon="6.27387">
        <ele>259.073</ele>
        <time>2016-09-06T07:30:08.000Z</time>
      </trkpt>
      <trkpt lat="47.32114" lon="6.2738">
        <ele>259.079</ele>
        <time>2016-09-06T07:30:09.000Z</time>
      </trkpt>
      <trkpt lat="47.32114" lon="6.27373">
        <ele>259.24</ele>
        <time>2016-09-06T07:30:10.000Z</time>
      </trkpt>
      <trkpt lat="47.32112" lon="6.27367">
        <ele>259.419</ele>
        <time>2016-09-06T07:30:11.000Z</time>
      </trkpt>
      <trkpt lat="47.32111" lon="6.2736">
        <ele>259.604</ele>
        <time>2016-09-06T07:30:12.000Z</time>
      </trkpt>
      <trkpt lat="47.3211" lon="6.27354">
        <ele>259.572</ele>
        <time>2016-09-06T07:30:13.000Z</time>
      </trkpt>
      <trkpt lat="47.32109" lon="6.27347">
        <ele>259.38</ele>
        <time>2016-09-06T07:30:14.000Z</time>
      </trkpt>
      <trkpt lat="47.32107" lon="6.27341">
        <ele>259.791</ele>
        <time>2016-09-06T07:30:15.000Z</time>
      </trkpt>
      <trkpt lat="47.32106" lon="6.27335">
        <ele>259.581</ele>
        <time>2016-09-06T07:30:16.000Z</time>
      </trkpt>
      <trkpt lat="47.32105" lon="6.27329">
        <ele>259.536</ele>
        <time>2016-09-06T07:30:17.000Z</time>
      </trkpt>
      <trkpt lat="47.32104" lon="6.27322">
        <ele>259.746</ele>
        <time>2016-09-06T07:30:18.000Z</time>
      </trkpt>
      <trkpt lat="47.32104" lon="6.27315">
        <ele>259.568</ele>
        <time>2016-09-06T07:30:19.000Z</time>
      </trkpt>
      <trkpt lat="47.32103" lon="6.27308">
        <ele>259.271</ele>
        <time>2016-09-06T07:30:20.000Z</time>
      </trkpt>
      <trkpt lat="47.32102" lon="6.27301">
        <ele>258.777</ele>
        <time>2016-09-06T07:30:21.000Z</time>
      </trkpt>
      <trkpt lat="47.32101" lon="6.27294">
        <ele>258.278</ele>
        <time>2016-09-06T07:30:22.000Z</time>
      </trkpt>
      <trkpt lat="47.32101" lon="6.27287">
        <ele>258.024</ele>
        <time>2016-09-06T07:30:23.000Z</time>
      </trkpt>
      <trkpt lat="47.32099" lon="6.27281">
        <ele>258.513</ele>
        <time>2016-09-06T07:30:24.000Z</time>
      </trkpt>
      <trkpt lat="47.32099" lon="6.27274">
        <ele>258.452</ele>
        <time>2016-09-06T07:30:25.000Z</time>
      </trkpt>
      <trkpt lat="47.32098" lon="6.27266">
        <ele>258.824</ele>
        <time>2016-09-06T07:30:26.000Z</time>
      </trkpt>
      <trkpt lat="47.32097" lon="6.27259">
        <ele>258.939</ele>
        <time>2016-09-06T07:30:27.000Z</time>
      </trkpt>
      <trkpt lat="47.32097" lon="6.27252">
        <ele>259.075</ele>
        <time>2016-09-06T07:30:28.000Z</time>
      </trkpt>
      <trkpt lat="47.32095" lon="6.27244">
        <ele>258.967</ele>
        <time>2016-09-06T07:30:29.000Z</time>
      </trkpt>
      <trkpt lat="47.32093" lon="6.27238">
        <ele>259.019</ele>
        <time>2016-09-06T07:30:30.000Z</time>
      </trkpt>
      <trkpt lat="47.32091" lon="6.27232">
        <ele>258.921</ele>
        <time>2016-09-06T07:30:31.000Z</time>
      </trkpt>
      <trkpt lat="47.32091" lon="6.27226">
        <ele>259.178</ele>
        <time>2016-09-06T07:30:32.000Z</time>
      </trkpt>
      <trkpt lat="47.32091" lon="6.27219">
        <ele>259.048</ele>
        <time>2016-09-06T07:30:33.000Z</time>
      </trkpt>
      <trkpt lat="47.3209" lon="6.27212">
        <ele>259.019</ele>
        <time>2016-09-06T07:30:34.000Z</time>
      </trkpt>
      <trkpt lat="47.32089" lon="6.27203">
        <ele>259.039</ele>
        <time>2016-09-06T07:30:35.000Z</time>
      </trkpt>
      <trkpt lat="47.32088" lon="6.27194">
        <ele>259.166</ele>
        <time>2016-09-06T07:30:36.000Z</time>
      </trkpt>
      <trkpt lat="47.32088" lon="6.27188">
        <ele>259.43</ele>
        <time>2016-09-06T07:30:37.000Z</time>
      </trkpt>
      <trkpt lat="47.32087" lon="6.27181">
        <ele>259.826</ele>
        <time>2016-09-06T07:30:38.000Z</time>
      </trkpt>
      <trkpt lat="47.32086" lon="6.27174">
        <ele>260.077</ele>
        <time>2016-09-06T07:30:39.000Z</time>
      </trkpt>
      <trkpt lat="47.32085" lon="6.27168">
        <ele>260.11</ele>
        <time>2016-09-06T07:30:40.000Z</time>
      </trkpt>
      <trkpt lat="47.32085" lon="6.2716">
        <ele>259.521</ele>
        <time>2016-09-06T07:30:41.000Z</time>
      </trkpt>
      <trkpt lat="47.32089" lon="6.27152">
        <ele>260.288</ele>
        <time>2016-09-06T07:30:42.000Z</time>
      </trkpt>
      <trkpt lat="47.32088" lon="6.27143">
        <ele>260.298</ele>
        <time>2016-09-06T07:30:43.000Z</time>
      </trkpt>
      <trkpt lat="47.32088" lon="6.27137">
        <ele>260.162</ele>
        <time>2016-09-06T07:30:44.000Z</time>
      </trkpt>
      <trkpt lat="47.32089" lon="6.27129">
        <ele>260.01</ele>
        <time>2016-09-06T07:30:45.000Z</time>
      </trkpt>
      <trkpt lat="47.3209" lon="6.27121">
        <ele>259.957</ele>
        <time>2016-09-06T07:30:46.000Z</time>
      </trkpt>
      <trkpt lat="47.32089" lon="6.27115">
        <ele>260.01</ele>
        <time>2016-09-06T07:30:47.000Z</time>
      </trkpt>
      <trkpt lat="47.32089" lon="6.27108">
        <ele>259.796</ele>
        <time>2016-09-06T07:30:48.000Z</time>
      </trkpt>
      <trkpt lat="47.32089" lon="6.27102">
        <ele>259.716</ele>
        <time>2016-09-06T07:30:49.000Z</time>
      </trkpt>
      <trkpt lat="47.32088" lon="6.27095">
        <ele>259.745</ele>
        <time>2016-09-06T07:30:50.000Z</time>
      </trkpt>
      <trkpt lat="47.32089" lon="6.27086">
        <ele>259.706</ele>
        <time>2016-09-06T07:30:51.000Z</time>
      </trkpt>
      <trkpt lat="47.32088" lon="6.27081">
        <ele>259.677</ele>
        <time>2016-09-06T07:30:52.000Z</time>
      </trkpt>
      <trkpt lat="47.32088" lon="6.27075">
        <ele>259.666</ele>
        <time>2016-09-06T07:30:53.000Z</time>
      </trkpt>
      <trkpt lat="47.32086" lon="6.2707">
        <ele>259.517</ele>
        <time>2016-09-06T07:30:54.000Z</time>
      </trkpt>
      <trkpt lat="47.32086" lon="6.27064">
        <ele>259.322</ele>
        <time>2016-09-06T07:30:55.000Z</time>
      </trkpt>
      <trkpt lat="47.32086" lon="6.2706">
        <ele>259.552</ele>
        <time>2016-09-06T07:30:56.000Z</time>
      </trkpt>
      <trkpt lat="47.32086" lon="6.27053">
        <ele>259.571</ele>
        <time>2016-09-06T07:30:57.000Z</time>
      </trkpt>
      <trkpt lat="47.32087" lon="6.27045">
        <ele>259.471</ele>
        <time>2016-09-06T07:30:58.000Z</time>
      </trkpt>
      <trkpt lat="47.32088" lon="6.27037">
        <ele>259.519</ele>
        <time>2016-09-06T07:30:59.000Z</time>
      </trkpt>
      <trkpt lat="47.32088" lon="6.2703">
        <ele>259.186</ele>
        <time>2016-09-06T07:31:00.000Z</time>
      </trkpt>
      <trkpt lat="47.32087" lon="6.27024">
        <ele>259.179</ele>
        <time>2016-09-06T07:31:01.000Z</time>
      </trkpt>
      <trkpt lat="47.32082" lon="6.27015">
        <ele>256.46</ele>
        <time>2016-09-06T07:31:02.000Z</time>
      </trkpt>
      <trkpt lat="47.32082" lon="6.27009">
        <ele>256.22</ele>
        <time>2016-09-06T07:31:03.000Z</time>
      </trkpt>
      <trkpt lat="47.32082" lon="6.27002">
        <ele>255.844</ele>
        <time>2016-09-06T07:31:04.000Z</time>
      </trkpt>
      <trkpt lat="47.32083" lon="6.26996">
        <ele>255.954</ele>
        <time>2016-09-06T07:31:05.000Z</time>
      </trkpt>
      <trkpt lat="47.32083" lon="6.26989">
        <ele>255.241</ele>
        <time>2016-09-06T07:31:06.000Z</time>
      </trkpt>
      <trkpt lat="47.32083" lon="6.26981">
        <ele>256.121</ele>
        <time>2016-09-06T07:31:07.000Z</time>
      </trkpt>
      <trkpt lat="47.32083" lon="6.26974">
        <ele>256.575</ele>
        <time>2016-09-06T07:31:08.000Z</time>
      </trkpt>
      <trkpt lat="47.32084" lon="6.26967">
        <ele>255.607</ele>
        <time>2016-09-06T07:31:09.000Z</time>
      </trkpt>
      <trkpt lat="47.32085" lon="6.26957">
        <ele>256.645</ele>
        <time>2016-09-06T07:31:10.000Z</time>
      </trkpt>
      <trkpt lat="47.32082" lon="6.26954">
        <ele>257.346</ele>
        <time>2016-09-06T07:31:11.000Z</time>
      </trkpt>
      <trkpt lat="47.3208" lon="6.26951">
        <ele>257.154</ele>
        <time>2016-09-06T07:31:12.000Z</time>
      </trkpt>
      <trkpt lat="47.32079" lon="6.26945">
        <ele>257.095</ele>
        <time>2016-09-06T07:31:13.000Z</time>
      </trkpt>
      <trkpt lat="47.32079" lon="6.26939">
        <ele>257.691</ele>
        <time>2016-09-06T07:31:14.000Z</time>
      </trkpt>
      <trkpt lat="47.3208" lon="6.26933">
        <ele>258.312</ele>
        <time>2016-09-06T07:31:15.000Z</time>
      </trkpt>
      <trkpt lat="47.3208" lon="6.26927">
        <ele>258.204</ele>
        <time>2016-09-06T07:31:16.000Z</time>
      </trkpt>
      <trkpt lat="47.3208" lon="6.26919">
        <ele>258.562</ele>
        <time>2016-09-06T07:31:17.000Z</time>
      </trkpt>
      <trkpt lat="47.3208" lon="6.26914">
        <ele>258.612</ele>
        <time>2016-09-06T07:31:18.000Z</time>
      </trkpt>
      <trkpt lat="47.3208" lon="6.26908">
        <ele>258.569</ele>
        <time>2016-09-06T07:31:19.000Z</time>
      </trkpt>
      <trkpt lat="47.32081" lon="6.269">
        <ele>258.559</ele>
        <time>2016-09-06T07:31:20.000Z</time>
      </trkpt>
      <trkpt lat="47.32084" lon="6.26893">
        <ele>258.226</ele>
        <time>2016-09-06T07:31:21.000Z</time>
      </trkpt>
      <trkpt lat="47.32085" lon="6.26884">
        <ele>258.247</ele>
        <time>2016-09-06T07:31:22.000Z</time>
      </trkpt>
      <trkpt lat="47.32083" lon="6.26878">
        <ele>258.143</ele>
        <time>2016-09-06T07:31:23.000Z</time>
      </trkpt>
      <trkpt lat="47.32083" lon="6.26872">
        <ele>258.165</ele>
        <time>2016-09-06T07:31:24.000Z</time>
      </trkpt>
      <trkpt lat="47.32083" lon="6.26864">
        <ele>257.835</ele>
        <time>2016-09-06T07:31:25.000Z</time>
      </trkpt>
      <trkpt lat="47.32084" lon="6.26858">
        <ele>257.759</ele>
        <time>2016-09-06T07:31:26.000Z</time>
      </trkpt>
      <trkpt lat="47.32085" lon="6.26852">
        <ele>257.814</ele>
        <time>2016-09-06T07:31:27.000Z</time>
      </trkpt>
      <trkpt lat="47.32083" lon="6.26844">
        <ele>257.936</ele>
        <time>2016-09-06T07:31:28.000Z</time>
      </trkpt>
      <trkpt lat="47.32082" lon="6.26839">
        <ele>257.898</ele>
        <time>2016-09-06T07:31:29.000Z</time>
      </trkpt>
      <trkpt lat="47.32081" lon="6.26832">
        <ele>257.5</ele>
        <time>2016-09-06T07:31:30.000Z</time>
      </trkpt>
      <trkpt lat="47.32082" lon="6.26822">
        <ele>257.236</ele>
        <time>2016-09-06T07:31:31.000Z</time>
      </trkpt>
      <trkpt lat="47.32083" lon="6.26814">
        <ele>257.202</ele>
        <time>2016-09-06T07:31:32.000Z</time>
      </trkpt>
      <trkpt lat="47.32082" lon="6.26809">
        <ele>256.639</ele>
        <time>2016-09-06T07:31:33.000Z</time>
      </trkpt>
      <trkpt lat="47.32083" lon="6.26801">
        <ele>257.391</ele>
        <time>2016-09-06T07:31:34.000Z</time>
      </trkpt>
      <trkpt lat="47.32084" lon="6.26794">
        <ele>256.816</ele>
        <time>2016-09-06T07:31:35.000Z</time>
      </trkpt>
      <trkpt lat="47.32085" lon="6.26785">
        <ele>257.712</ele>
        <time>2016-09-06T07:31:36.000Z</time>
      </trkpt>
      <trkpt lat="47.32085" lon="6.26779">
        <ele>258.428</ele>
        <time>2016-09-06T07:31:37.000Z</time>
      </trkpt>
      <trkpt lat="47.32085" lon="6.26772">
        <ele>258.457</ele>
        <time>2016-09-06T07:31:38.000Z</time>
      </trkpt>
      <trkpt lat="47.32081" lon="6.26764">
        <ele>255.157</ele>
        <time>2016-09-06T07:31:39.000Z</time>
      </trkpt>
      <trkpt lat="47.32079" lon="6.2676">
        <ele>256.959</ele>
        <time>2016-09-06T07:31:40.000Z</time>
      </trkpt>
      <trkpt lat="47.32081" lon="6.2675">
        <ele>257.202</ele>
        <time>2016-09-06T07:31:41.000Z</time>
      </trkpt>
      <trkpt lat="47.3208" lon="6.26743">
        <ele>257.01</ele>
        <time>2016-09-06T07:31:42.000Z</time>
      </trkpt>
      <trkpt lat="47.3208" lon="6.26736">
        <ele>257.124</ele>
        <time>2016-09-06T07:31:43.000Z</time>
      </trkpt>
      <trkpt lat="47.3208" lon="6.26729">
        <ele>257.313</ele>
        <time>2016-09-06T07:31:44.000Z</time>
      </trkpt>
      <trkpt lat="47.32079" lon="6.26723">
        <ele>257.397</ele>
        <time>2016-09-06T07:31:45.000Z</time>
      </trkpt>
      <trkpt lat="47.3208" lon="6.26711">
        <ele>255.649</ele>
        <time>2016-09-06T07:31:46.000Z</time>
      </trkpt>
      <trkpt lat="47.32079" lon="6.26704">
        <ele>256.119</ele>
        <time>2016-09-06T07:31:47.000Z</time>
      </trkpt>
      <trkpt lat="47.32081" lon="6.26696">
        <ele>255.896</ele>
        <time>2016-09-06T07:31:48.000Z</time>
      </trkpt>
      <trkpt lat="47.3208" lon="6.26689">
        <ele>254.667</ele>
        <time>2016-09-06T07:31:49.000Z</time>
      </trkpt>
      <trkpt lat="47.32082" lon="6.2668">
        <ele>255.021</ele>
        <time>2016-09-06T07:31:50.000Z</time>
      </trkpt>
      <trkpt lat="47.32081" lon="6.26672">
        <ele>255.688</ele>
        <time>2016-09-06T07:31:51.000Z</time>
      </trkpt>
      <trkpt lat="47.32081" lon="6.26666">
        <ele>254.226</ele>
        <time>2016-09-06T07:31:52.000Z</time>
      </trkpt>
      <trkpt lat="47.32081" lon="6.26661">
        <ele>254.481</ele>
        <time>2016-09-06T07:31:53.000Z</time>
      </trkpt>
      <trkpt lat="47.32079" lon="6.26655">
        <ele>255.209</ele>
        <time>2016-09-06T07:31:54.000Z</time>
      </trkpt>
      <trkpt lat="47.32078" lon="6.2665">
        <ele>255.028</ele>
        <time>2016-09-06T07:31:55.000Z</time>
      </trkpt>
      <trkpt lat="47.32075" lon="6.26646">
        <ele>255.32</ele>
        <time>2016-09-06T07:31:56.000Z</time>
      </trkpt>
      <trkpt lat="47.32073" lon="6.26641">
        <ele>257.035</ele>
        <time>2016-09-06T07:31:57.000Z</time>
      </trkpt>
      <trkpt lat="47.32073" lon="6.26635">
        <ele>255.512</ele>
        <time>2016-09-06T07:31:58.000Z</time>
      </trkpt>
      <trkpt lat="47.3207" lon="6.26629">
        <ele>255.009</ele>
        <time>2016-09-06T07:31:59.000Z</time>
      </trkpt>
      <trkpt lat="47.32065" lon="6.26623">
        <ele>256.515</ele>
        <time>2016-09-06T07:32:00.000Z</time>
      </trkpt>
      <trkpt lat="47.32062" lon="6.26617">
        <ele>257.5</ele>
        <time>2016-09-06T07:32:01.000Z</time>
      </trkpt>
      <trkpt lat="47.3206" lon="6.2661">
        <ele>257.032</ele>
        <time>2016-09-06T07:32:02.000Z</time>
      </trkpt>
      <trkpt lat="47.32057" lon="6.26605">
        <ele>256.437</ele>
        <time>2016-09-06T07:32:03.000Z</time>
      </trkpt>
      <trkpt lat="47.32054" lon="6.266">
        <ele>258.059</ele>
        <time>2016-09-06T07:32:04.000Z</time>
      </trkpt>
      <trkpt lat="47.3205" lon="6.26595">
        <ele>258.16</ele>
        <time>2016-09-06T07:32:05.000Z</time>
      </trkpt>
      <trkpt lat="47.32049" lon="6.26588">
        <ele>258.794</ele>
        <time>2016-09-06T07:32:06.000Z</time>
      </trkpt>
      <trkpt lat="47.32045" lon="6.26584">
        <ele>258.531</ele>
        <time>2016-09-06T07:32:07.000Z</time>
      </trkpt>
      <trkpt lat="47.32043" lon="6.26579">
        <ele>257.368</ele>
        <time>2016-09-06T07:32:08.000Z</time>
      </trkpt>
      <trkpt lat="47.32041" lon="6.26574">
        <ele>255.752</ele>
        <time>2016-09-06T07:32:09.000Z</time>
      </trkpt>
      <trkpt lat="47.32041" lon="6.2657">
        <ele>256.519</ele>
        <time>2016-09-06T07:32:10.000Z</time>
      </trkpt>
      <trkpt lat="47.32036" lon="6.26567">
        <ele>256.755</ele>
        <time>2016-09-06T07:32:11.000Z</time>
      </trkpt>
      <trkpt lat="47.32033" lon="6.26562">
        <ele>257.129</ele>
        <time>2016-09-06T07:32:12.000Z</time>
      </trkpt>
      <trkpt lat="47.3203" lon="6.26558">
        <ele>257.333</ele>
        <time>2016-09-06T07:32:13.000Z</time>
      </trkpt>
      <trkpt lat="47.32026" lon="6.26554">
        <ele>257.829</ele>
        <time>2016-09-06T07:32:14.000Z</time>
      </trkpt>
      <trkpt lat="47.32025" lon="6.26551">
        <ele>257.124</ele>
        <time>2016-09-06T07:32:15.000Z</time>
      </trkpt>
      <trkpt lat="47.32021" lon="6.26547">
        <ele>256.761</ele>
        <time>2016-09-06T07:32:16.000Z</time>
      </trkpt>
      <trkpt lat="47.32017" lon="6.26545">
        <ele>257.621</ele>
        <time>2016-09-06T07:32:17.000Z</time>
      </trkpt>
      <trkpt lat="47.32014" lon="6.26541">
        <ele>257.841</ele>
        <time>2016-09-06T07:32:18.000Z</time>
      </trkpt>
      <trkpt lat="47.3201" lon="6.26537">
        <ele>258.004</ele>
        <time>2016-09-06T07:32:19.000Z</time>
      </trkpt>
      <trkpt lat="47.32007" lon="6.26535">
        <ele>257.938</ele>
        <time>2016-09-06T07:32:20.000Z</time>
      </trkpt>
      <trkpt lat="47.32005" lon="6.2653">
        <ele>258.212</ele>
        <time>2016-09-06T07:32:21.000Z</time>
      </trkpt>
      <trkpt lat="47.31999" lon="6.26526">
        <ele>257.022</ele>
        <time>2016-09-06T07:32:22.000Z</time>
      </trkpt>
      <trkpt lat="47.31997" lon="6.26524">
        <ele>257.616</ele>
        <time>2016-09-06T07:32:23.000Z</time>
      </trkpt>
      <trkpt lat="47.31994" lon="6.26521">
        <ele>257.734</ele>
        <time>2016-09-06T07:32:24.000Z</time>
      </trkpt>
      <trkpt lat="47.31991" lon="6.26517">
        <ele>258.061</ele>
        <time>2016-09-06T07:32:25.000Z</time>
      </trkpt>
      <trkpt lat="47.31987" lon="6.26515">
        <ele>258.308</ele>
        <time>2016-09-06T07:32:26.000Z</time>
      </trkpt>
      <trkpt lat="47.31983" lon="6.26512">
        <ele>258.148</ele>
        <time>2016-09-06T07:32:27.000Z</time>
      </trkpt>
      <trkpt lat="47.3198" lon="6.2651">
        <ele>260.28</ele>
        <time>2016-09-06T07:32:28.000Z</time>
      </trkpt>
      <trkpt lat="47.31977" lon="6.26509">
        <ele>260.185</ele>
        <time>2016-09-06T07:32:29.000Z</time>
      </trkpt>
      <trkpt lat="47.31973" lon="6.26507">
        <ele>260.613</ele>
        <time>2016-09-06T07:32:30.000Z</time>
      </trkpt>
      <trkpt lat="47.3197" lon="6.26505">
        <ele>261.543</ele>
        <time>2016-09-06T07:32:31.000Z</time>
      </trkpt>
      <trkpt lat="47.31967" lon="6.26502">
        <ele>260.471</ele>
        <time>2016-09-06T07:32:32.000Z</time>
      </trkpt>
      <trkpt lat="47.31964" lon="6.26499">
        <ele>259.999</ele>
        <time>2016-09-06T07:32:33.000Z</time>
      </trkpt>
      <trkpt lat="47.31961" lon="6.26496">
        <ele>258.547</ele>
        <time>2016-09-06T07:32:34.000Z</time>
      </trkpt>
      <trkpt lat="47.31957" lon="6.26493">
        <ele>259.076</ele>
        <time>2016-09-06T07:32:35.000Z</time>
      </trkpt>
      <trkpt lat="47.3195" lon="6.26486">
        <ele>258.585</ele>
        <time>2016-09-06T07:32:36.000Z</time>
      </trkpt>
      <trkpt lat="47.31946" lon="6.26483">
        <ele>258.672</ele>
        <time>2016-09-06T07:32:37.000Z</time>
      </trkpt>
      <trkpt lat="47.31941" lon="6.26481">
        <ele>259.909</ele>
        <time>2016-09-06T07:32:38.000Z</time>
      </trkpt>
      <trkpt lat="47.31937" lon="6.26479">
        <ele>260.07</ele>
        <time>2016-09-06T07:32:39.000Z</time>
      </trkpt>
      <trkpt lat="47.31934" lon="6.26475">
        <ele>260.859</ele>
        <time>2016-09-06T07:32:40.000Z</time>
      </trkpt>
      <trkpt lat="47.31929" lon="6.26471">
        <ele>261.197</ele>
        <time>2016-09-06T07:32:41.000Z</time>
      </trkpt>
      <trkpt lat="47.31925" lon="6.26469">
        <ele>260.567</ele>
        <time>2016-09-06T07:32:42.000Z</time>
      </trkpt>
      <trkpt lat="47.31922" lon="6.26465">
        <ele>258.648</ele>
        <time>2016-09-06T07:32:43.000Z</time>
      </trkpt>
      <trkpt lat="47.31917" lon="6.26464">
        <ele>257.066</ele>
        <time>2016-09-06T07:32:44.000Z</time>
      </trkpt>
      <trkpt lat="47.31914" lon="6.26462">
        <ele>258.583</ele>
        <time>2016-09-06T07:32:45.000Z</time>
      </trkpt>
      <trkpt lat="47.3191" lon="6.26461">
        <ele>258.941</ele>
        <time>2016-09-06T07:32:46.000Z</time>
      </trkpt>
      <trkpt lat="47.31907" lon="6.2646">
        <ele>258.833</ele>
        <time>2016-09-06T07:32:47.000Z</time>
      </trkpt>
      <trkpt lat="47.31903" lon="6.26458">
        <ele>258.077</ele>
        <time>2016-09-06T07:32:48.000Z</time>
      </trkpt>
      <trkpt lat="47.31899" lon="6.26456">
        <ele>258.455</ele>
        <time>2016-09-06T07:32:49.000Z</time>
      </trkpt>
      <trkpt lat="47.31895" lon="6.26453">
        <ele>259.614</ele>
        <time>2016-09-06T07:32:50.000Z</time>
      </trkpt>
      <trkpt lat="47.31891" lon="6.26451">
        <ele>260.411</ele>
        <time>2016-09-06T07:32:51.000Z</time>
      </trkpt>
      <trkpt lat="47.31887" lon="6.26449">
        <ele>260.606</ele>
        <time>2016-09-06T07:32:52.000Z</time>
      </trkpt>
      <trkpt lat="47.31883" lon="6.26446">
        <ele>260.655</ele>
        <time>2016-09-06T07:32:53.000Z</time>
      </trkpt>
      <trkpt lat="47.31879" lon="6.26444">
        <ele>260.315</ele>
        <time>2016-09-06T07:32:54.000Z</time>
      </trkpt>
      <trkpt lat="47.31875" lon="6.26441">
        <ele>260.282</ele>
        <time>2016-09-06T07:32:55.000Z</time>
      </trkpt>
      <trkpt lat="47.3187" lon="6.26439">
        <ele>260.086</ele>
        <time>2016-09-06T07:32:56.000Z</time>
      </trkpt>
      <trkpt lat="47.31863" lon="6.26436">
        <ele>260.71</ele>
        <time>2016-09-06T07:32:57.000Z</time>
      </trkpt>
      <trkpt lat="47.31857" lon="6.26433">
        <ele>260.926</ele>
        <time>2016-09-06T07:32:58.000Z</time>
      </trkpt>
      <trkpt lat="47.31855" lon="6.26431">
        <ele>262.293</ele>
        <time>2016-09-06T07:32:59.000Z</time>
      </trkpt>
      <trkpt lat="47.31849" lon="6.26427">
        <ele>261.271</ele>
        <time>2016-09-06T07:33:00.000Z</time>
      </trkpt>
      <trkpt lat="47.31845" lon="6.26425">
        <ele>261.36</ele>
        <time>2016-09-06T07:33:01.000Z</time>
      </trkpt>
      <trkpt lat="47.31842" lon="6.26423">
        <ele>260.622</ele>
        <time>2016-09-06T07:33:02.000Z</time>
      </trkpt>
      <trkpt lat="47.31837" lon="6.2642">
        <ele>260.547</ele>
        <time>2016-09-06T07:33:03.000Z</time>
      </trkpt>
      <trkpt lat="47.31834" lon="6.26417">
        <ele>261.134</ele>
        <time>2016-09-06T07:33:04.000Z</time>
      </trkpt>
      <trkpt lat="47.31831" lon="6.26414">
        <ele>261.675</ele>
        <time>2016-09-06T07:33:05.000Z</time>
      </trkpt>
      <trkpt lat="47.31828" lon="6.26412">
        <ele>262.327</ele>
        <time>2016-09-06T07:33:06.000Z</time>
      </trkpt>
      <trkpt lat="47.31825" lon="6.26407">
        <ele>262.504</ele>
        <time>2016-09-06T07:33:07.000Z</time>
      </trkpt>
      <trkpt lat="47.31822" lon="6.26405">
        <ele>263.382</ele>
        <time>2016-09-06T07:33:08.000Z</time>
      </trkpt>
      <trkpt lat="47.31819" lon="6.26403">
        <ele>264.734</ele>
        <time>2016-09-06T07:33:09.000Z</time>
      </trkpt>
      <trkpt lat="47.31816" lon="6.26401">
        <ele>264.547</ele>
        <time>2016-09-06T07:33:10.000Z</time>
      </trkpt>
      <trkpt lat="47.31812" lon="6.26398">
        <ele>264.564</ele>
        <time>2016-09-06T07:33:11.000Z</time>
      </trkpt>
      <trkpt lat="47.31808" lon="6.26397">
        <ele>263.488</ele>
        <time>2016-09-06T07:33:12.000Z</time>
      </trkpt>
      <trkpt lat="47.31804" lon="6.26394">
        <ele>264.416</ele>
        <time>2016-09-06T07:33:13.000Z</time>
      </trkpt>
      <trkpt lat="47.31799" lon="6.26392">
        <ele>264.153</ele>
        <time>2016-09-06T07:33:14.000Z</time>
      </trkpt>
      <trkpt lat="47.31795" lon="6.26389">
        <ele>263.748</ele>
        <time>2016-09-06T07:33:15.000Z</time>
      </trkpt>
      <trkpt lat="47.31792" lon="6.26387">
        <ele>263.528</ele>
        <time>2016-09-06T07:33:16.000Z</time>
      </trkpt>
      <trkpt lat="47.31789" lon="6.26385">
        <ele>262.637</ele>
        <time>2016-09-06T07:33:17.000Z</time>
      </trkpt>
      <trkpt lat="47.31786" lon="6.26382">
        <ele>262.775</ele>
        <time>2016-09-06T07:33:18.000Z</time>
      </trkpt>
      <trkpt lat="47.31783" lon="6.2638">
        <ele>262.964</ele>
        <time>2016-09-06T07:33:19.000Z</time>
      </trkpt>
      <trkpt lat="47.31779" lon="6.26378">
        <ele>261.909</ele>
        <time>2016-09-06T07:33:20.000Z</time>
      </trkpt>
      <trkpt lat="47.31776" lon="6.26377">
        <ele>262.69</ele>
        <time>2016-09-06T07:33:21.000Z</time>
      </trkpt>
      <trkpt lat="47.31773" lon="6.26376">
        <ele>263.155</ele>
        <time>2016-09-06T07:33:22.000Z</time>
      </trkpt>
      <trkpt lat="47.31769" lon="6.26376">
        <ele>263.13</ele>
        <time>2016-09-06T07:33:23.000Z</time>
      </trkpt>
      <trkpt lat="47.31766" lon="6.26375">
        <ele>262.258</ele>
        <time>2016-09-06T07:33:24.000Z</time>
      </trkpt>
      <trkpt lat="47.31763" lon="6.26374">
        <ele>263.015</ele>
        <time>2016-09-06T07:33:25.000Z</time>
      </trkpt>
      <trkpt lat="47.3176" lon="6.26373">
        <ele>262.821</ele>
        <time>2016-09-06T07:33:26.000Z</time>
      </trkpt>
      <trkpt lat="47.31758" lon="6.26372">
        <ele>262.396</ele>
        <time>2016-09-06T07:33:27.000Z</time>
      </trkpt>
      <trkpt lat="47.31755" lon="6.2637">
        <ele>261.727</ele>
        <time>2016-09-06T07:33:28.000Z</time>
      </trkpt>
      <trkpt lat="47.31753" lon="6.26368">
        <ele>261.303</ele>
        <time>2016-09-06T07:33:29.000Z</time>
      </trkpt>
      <trkpt lat="47.31752" lon="6.26367">
        <ele>261.599</ele>
        <time>2016-09-06T07:33:30.000Z</time>
      </trkpt>
      <trkpt lat="47.3175" lon="6.26366">
        <ele>261.52</ele>
        <time>2016-09-06T07:33:31.000Z</time>
      </trkpt>
      <trkpt lat="47.3175" lon="6.26366">
        <ele>262.213</ele>
        <time>2016-09-06T07:33:32.000Z</time>
      </trkpt>
      <trkpt lat="47.3175" lon="6.26366">
        <ele>262.14</ele>
        <time>2016-09-06T07:33:33.000Z</time>
      </trkpt>
      <trkpt lat="47.3175" lon="6.26366">
        <ele>261.684</ele>
        <time>2016-09-06T07:33:34.000Z</time>
      </trkpt>
      <trkpt lat="47.3175" lon="6.26366">
        <ele>261.272</ele>
        <time>2016-09-06T07:33:35.000Z</time>
      </trkpt>
      <trkpt lat="47.3175" lon="6.26366">
        <ele>260.98</ele>
        <time>2016-09-06T07:33:36.000Z</time>
      </trkpt>
      <trkpt lat="47.3175" lon="6.26366">
        <ele>261.199</ele>
        <time>2016-09-06T07:33:37.000Z</time>
      </trkpt>
      <trkpt lat="47.3175" lon="6.26366">
        <ele>261.123</ele>
        <time>2016-09-06T07:33:38.000Z</time>
      </trkpt>
      <trkpt lat="47.3175" lon="6.26366">
        <ele>261.624</ele>
        <time>2016-09-06T07:33:39.000Z</time>
      </trkpt>
      <trkpt lat="47.3175" lon="6.26366">
        <ele>261.621</ele>
        <time>2016-09-06T07:33:40.000Z</time>
      </trkpt>
      <trkpt lat="47.3175" lon="6.26366">
        <ele>261.663</ele>
        <time>2016-09-06T07:33:41.000Z</time>
      </trkpt>
      <trkpt lat="47.31747" lon="6.26366">
        <ele>261.899</ele>
        <time>2016-09-06T07:33:42.000Z</time>
      </trkpt>
      <trkpt lat="47.31747" lon="6.26366">
        <ele>262.122</ele>
        <time>2016-09-06T07:33:43.000Z</time>
      </trkpt>
      <trkpt lat="47.31747" lon="6.26366">
        <ele>261.988</ele>
        <time>2016-09-06T07:33:44.000Z</time>
      </trkpt>
      <trkpt lat="47.31747" lon="6.26366">
        <ele>261.93</ele>
        <time>2016-09-06T07:33:45.000Z</time>
      </trkpt>
      <trkpt lat="47.31747" lon="6.26366">
        <ele>262.381</ele>
        <time>2016-09-06T07:33:46.000Z</time>
      </trkpt>
      <trkpt lat="47.31747" lon="6.26366">
        <ele>262.206</ele>
        <time>2016-09-06T07:33:47.000Z</time>
      </trkpt>
      <trkpt lat="47.31747" lon="6.26366">
        <ele>262.07</ele>
        <time>2016-09-06T07:33:48.000Z</time>
      </trkpt>
      <trkpt lat="47.31747" lon="6.26366">
        <ele>261.644</ele>
        <time>2016-09-06T07:33:49.000Z</time>
      </trkpt>
      <trkpt lat="47.31747" lon="6.26366">
        <ele>261.793</ele>
        <time>2016-09-06T07:33:50.000Z</time>
      </trkpt>
      <trkpt lat="47.31747" lon="6.26366">
        <ele>261.788</ele>
        <time>2016-09-06T07:33:51.000Z</time>
      </trkpt>
      <trkpt lat="47.31747" lon="6.26366">
        <ele>261.725</ele>
        <time>2016-09-06T07:33:52.000Z</time>
      </trkpt>
      <trkpt lat="47.31747" lon="6.26366">
        <ele>261.532</ele>
        <time>2016-09-06T07:33:53.000Z</time>
      </trkpt>
      <trkpt lat="47.31747" lon="6.26366">
        <ele>261.161</ele>
        <time>2016-09-06T07:33:54.000Z</time>
      </trkpt>
      <trkpt lat="47.31747" lon="6.26366">
        <ele>261.017</ele>
        <time>2016-09-06T07:33:55.000Z</time>
      </trkpt>
      <trkpt lat="47.31747" lon="6.26366">
        <ele>260.936</ele>
        <time>2016-09-06T07:33:56.000Z</time>
      </trkpt>
      <trkpt lat="47.31747" lon="6.26366">
        <ele>261.358</ele>
        <time>2016-09-06T07:33:57.000Z</time>
      </trkpt>
      <trkpt lat="47.31747" lon="6.26366">
        <ele>261.218</ele>
        <time>2016-09-06T07:33:58.000Z</time>
      </trkpt>
      <trkpt lat="47.31747" lon="6.26366">
        <ele>261.79</ele>
        <time>2016-09-06T07:33:59.000Z</time>
      </trkpt>
      <trkpt lat="47.31747" lon="6.26366">
        <ele>261.799</ele>
        <time>2016-09-06T07:34:00.000Z</time>
      </trkpt>
      <trkpt lat="47.31744" lon="6.26364">
        <ele>262.255</ele>
        <time>2016-09-06T07:34:01.000Z</time>
      </trkpt>
      <trkpt lat="47.31744" lon="6.26363">
        <ele>262.538</ele>
        <time>2016-09-06T07:34:02.000Z</time>
      </trkpt>
      <trkpt lat="47.31744" lon="6.26362">
        <ele>262.819</ele>
        <time>2016-09-06T07:34:03.000Z</time>
      </trkpt>
      <trkpt lat="47.31744" lon="6.26361">
        <ele>263.458</ele>
        <time>2016-09-06T07:34:04.000Z</time>
      </trkpt>
      <trkpt lat="47.31744" lon="6.26361">
        <ele>263.247</ele>
        <time>2016-09-06T07:34:05.000Z</time>
      </trkpt>
      <trkpt lat="47.31744" lon="6.26361">
        <ele>263.713</ele>
        <time>2016-09-06T07:34:06.000Z</time>
      </trkpt>
      <trkpt lat="47.31744" lon="6.26361">
        <ele>264.821</ele>
        <time>2016-09-06T07:34:07.000Z</time>
      </trkpt>
      <trkpt lat="47.31744" lon="6.26361">
        <ele>265.936</ele>
        <time>2016-09-06T07:34:08.000Z</time>
      </trkpt>
      <trkpt lat="47.31744" lon="6.26361">
        <ele>266.326</ele>
        <time>2016-09-06T07:34:09.000Z</time>
      </trkpt>
      <trkpt lat="47.31744" lon="6.26361">
        <ele>267.715</ele>
        <time>2016-09-06T07:34:10.000Z</time>
      </trkpt>
      <trkpt lat="47.31744" lon="6.26361">
        <ele>267.396</ele>
        <time>2016-09-06T07:34:11.000Z</time>
      </trkpt>
      <trkpt lat="47.31744" lon="6.26361">
        <ele>267.834</ele>
        <time>2016-09-06T07:34:12.000Z</time>
      </trkpt>
      <trkpt lat="47.31744" lon="6.26361">
        <ele>268.448</ele>
        <time>2016-09-06T07:34:13.000Z</time>
      </trkpt>
      <trkpt lat="47.31744" lon="6.26361">
        <ele>267.925</ele>
        <time>2016-09-06T07:34:14.000Z</time>
      </trkpt>
      <trkpt lat="47.31744" lon="6.26361">
        <ele>268.254</ele>
        <time>2016-09-06T07:34:15.000Z</time>
      </trkpt>
      <trkpt lat="47.31744" lon="6.26361">
        <ele>267.303</ele>
        <time>2016-09-06T07:34:16.000Z</time>
      </trkpt>
      <trkpt lat="47.31744" lon="6.26361">
        <ele>267.326</ele>
        <time>2016-09-06T07:34:17.000Z</time>
      </trkpt>
      <trkpt lat="47.31744" lon="6.26361">
        <ele>266.832</ele>
        <time>2016-09-06T07:34:18.000Z</time>
      </trkpt>
      <trkpt lat="47.31744" lon="6.26361">
        <ele>266.171</ele>
        <time>2016-09-06T07:34:19.000Z</time>
      </trkpt>
      <trkpt lat="47.31744" lon="6.26361">
        <ele>266.194</ele>
        <time>2016-09-06T07:34:20.000Z</time>
      </trkpt>
      <trkpt lat="47.31747" lon="6.26361">
        <ele>264.793</ele>
        <time>2016-09-06T07:34:21.000Z</time>
      </trkpt>
      <trkpt lat="47.31746" lon="6.26361">
        <ele>264.593</ele>
        <time>2016-09-06T07:34:22.000Z</time>
      </trkpt>
      <trkpt lat="47.31744" lon="6.2636">
        <ele>265.173</ele>
        <time>2016-09-06T07:34:23.000Z</time>
      </trkpt>
      <trkpt lat="47.31743" lon="6.2636">
        <ele>265.847</ele>
        <time>2016-09-06T07:34:24.000Z</time>
      </trkpt>
      <trkpt lat="47.31741" lon="6.26359">
        <ele>266.079</ele>
        <time>2016-09-06T07:34:25.000Z</time>
      </trkpt>
      <trkpt lat="47.3174" lon="6.26358">
        <ele>265.639</ele>
        <time>2016-09-06T07:34:26.000Z</time>
      </trkpt>
      <trkpt lat="47.31739" lon="6.26357">
        <ele>265.792</ele>
        <time>2016-09-06T07:34:27.000Z</time>
      </trkpt>
      <trkpt lat="47.31738" lon="6.26355">
        <ele>266.597</ele>
        <time>2016-09-06T07:34:28.000Z</time>
      </trkpt>
      <trkpt lat="47.31736" lon="6.26354">
        <ele>266.94</ele>
        <time>2016-09-06T07:34:29.000Z</time>
      </trkpt>
      <trkpt lat="47.31734" lon="6.26352">
        <ele>265.939</ele>
        <time>2016-09-06T07:34:30.000Z</time>
      </trkpt>
      <trkpt lat="47.31732" lon="6.26351">
        <ele>265.954</ele>
        <time>2016-09-06T07:34:31.000Z</time>
      </trkpt>
      <trkpt lat="47.3173" lon="6.26349">
        <ele>265.64</ele>
        <time>2016-09-06T07:34:32.000Z</time>
      </trkpt>
      <trkpt lat="47.31727" lon="6.26348">
        <ele>266.701</ele>
        <time>2016-09-06T07:34:33.000Z</time>
      </trkpt>
      <trkpt lat="47.31724" lon="6.26346">
        <ele>266.612</ele>
        <time>2016-09-06T07:34:34.000Z</time>
      </trkpt>
      <trkpt lat="47.31721" lon="6.26345">
        <ele>266.049</ele>
        <time>2016-09-06T07:34:35.000Z</time>
      </trkpt>
      <trkpt lat="47.31718" lon="6.26344">
        <ele>266.051</ele>
        <time>2016-09-06T07:34:36.000Z</time>
      </trkpt>
      <trkpt lat="47.31715" lon="6.26342">
        <ele>266.436</ele>
        <time>2016-09-06T07:34:37.000Z</time>
      </trkpt>
      <trkpt lat="47.31712" lon="6.26339">
        <ele>266.089</ele>
        <time>2016-09-06T07:34:38.000Z</time>
      </trkpt>
      <trkpt lat="47.31709" lon="6.26337">
        <ele>266.31</ele>
        <time>2016-09-06T07:34:39.000Z</time>
      </trkpt>
      <trkpt lat="47.31706" lon="6.26334">
        <ele>262.997</ele>
        <time>2016-09-06T07:34:40.000Z</time>
      </trkpt>
      <trkpt lat="47.31702" lon="6.26332">
        <ele>262.424</ele>
        <time>2016-09-06T07:34:41.000Z</time>
      </trkpt>
      <trkpt lat="47.31699" lon="6.2633">
        <ele>261.901</ele>
        <time>2016-09-06T07:34:42.000Z</time>
      </trkpt>
      <trkpt lat="47.31691" lon="6.26325">
        <ele>259.884</ele>
        <time>2016-09-06T07:34:43.000Z</time>
      </trkpt>
      <trkpt lat="47.31686" lon="6.26324">
        <ele>260.261</ele>
        <time>2016-09-06T07:34:44.000Z</time>
      </trkpt>
      <trkpt lat="47.31684" lon="6.26323">
        <ele>260.645</ele>
        <time>2016-09-06T07:34:45.000Z</time>
      </trkpt>
      <trkpt lat="47.3168" lon="6.26321">
        <ele>261.477</ele>
        <time>2016-09-06T07:34:46.000Z</time>
      </trkpt>
      <trkpt lat="47.31676" lon="6.26319">
        <ele>261.583</ele>
        <time>2016-09-06T07:34:47.000Z</time>
      </trkpt>
      <trkpt lat="47.31673" lon="6.26316">
        <ele>262.474</ele>
        <time>2016-09-06T07:34:48.000Z</time>
      </trkpt>
      <trkpt lat="47.31669" lon="6.26315">
        <ele>262.22</ele>
        <time>2016-09-06T07:34:49.000Z</time>
      </trkpt>
      <trkpt lat="47.31665" lon="6.26313">
        <ele>262.903</ele>
        <time>2016-09-06T07:34:50.000Z</time>
      </trkpt>
      <trkpt lat="47.31661" lon="6.26312">
        <ele>262.993</ele>
        <time>2016-09-06T07:34:51.000Z</time>
      </trkpt>
      <trkpt lat="47.31659" lon="6.26309">
        <ele>262.005</ele>
        <time>2016-09-06T07:34:52.000Z</time>
      </trkpt>
      <trkpt lat="47.31654" lon="6.26304">
        <ele>260.738</ele>
        <time>2016-09-06T07:34:53.000Z</time>
      </trkpt>
      <trkpt lat="47.31649" lon="6.26302">
        <ele>262.333</ele>
        <time>2016-09-06T07:34:54.000Z</time>
      </trkpt>
      <trkpt lat="47.31645" lon="6.263">
        <ele>262.972</ele>
        <time>2016-09-06T07:34:55.000Z</time>
      </trkpt>
      <trkpt lat="47.31641" lon="6.26298">
        <ele>263.49</ele>
        <time>2016-09-06T07:34:56.000Z</time>
      </trkpt>
      <trkpt lat="47.31638" lon="6.26295">
        <ele>262.307</ele>
        <time>2016-09-06T07:34:57.000Z</time>
      </trkpt>
      <trkpt lat="47.31635" lon="6.26292">
        <ele>262.481</ele>
        <time>2016-09-06T07:34:58.000Z</time>
      </trkpt>
      <trkpt lat="47.31631" lon="6.2629">
        <ele>263.009</ele>
        <time>2016-09-06T07:34:59.000Z</time>
      </trkpt>
      <trkpt lat="47.31627" lon="6.26288">
        <ele>263.068</ele>
        <time>2016-09-06T07:35:00.000Z</time>
      </trkpt>
      <trkpt lat="47.31623" lon="6.26286">
        <ele>262.742</ele>
        <time>2016-09-06T07:35:01.000Z</time>
      </trkpt>
      <trkpt lat="47.31619" lon="6.26284">
        <ele>263.96</ele>
        <time>2016-09-06T07:35:02.000Z</time>
      </trkpt>
      <trkpt lat="47.31616" lon="6.26282">
        <ele>263.61</ele>
        <time>2016-09-06T07:35:03.000Z</time>
      </trkpt>
      <trkpt lat="47.31613" lon="6.26279">
        <ele>263.985</ele>
        <time>2016-09-06T07:35:04.000Z</time>
      </trkpt>
      <trkpt lat="47.3161" lon="6.26277">
        <ele>263.545</ele>
        <time>2016-09-06T07:35:05.000Z</time>
      </trkpt>
      <trkpt lat="47.31606" lon="6.26274">
        <ele>263.239</ele>
        <time>2016-09-06T07:35:06.000Z</time>
      </trkpt>
      <trkpt lat="47.31602" lon="6.26271">
        <ele>262.473</ele>
        <time>2016-09-06T07:35:07.000Z</time>
      </trkpt>
      <trkpt lat="47.31598" lon="6.26269">
        <ele>263.224</ele>
        <time>2016-09-06T07:35:08.000Z</time>
      </trkpt>
      <trkpt lat="47.31594" lon="6.26267">
        <ele>262.315</ele>
        <time>2016-09-06T07:35:09.000Z</time>
      </trkpt>
      <trkpt lat="47.3159" lon="6.26265">
        <ele>262.109</ele>
        <time>2016-09-06T07:35:10.000Z</time>
      </trkpt>
      <trkpt lat="47.31586" lon="6.26262">
        <ele>262.237</ele>
        <time>2016-09-06T07:35:11.000Z</time>
      </trkpt>
      <trkpt lat="47.31582" lon="6.2626">
        <ele>262.15</ele>
        <time>2016-09-06T07:35:12.000Z</time>
      </trkpt>
      <trkpt lat="47.31577" lon="6.26257">
        <ele>262.52</ele>
        <time>2016-09-06T07:35:13.000Z</time>
      </trkpt>
      <trkpt lat="47.31573" lon="6.26255">
        <ele>262.444</ele>
        <time>2016-09-06T07:35:14.000Z</time>
      </trkpt>
      <trkpt lat="47.31569" lon="6.26253">
        <ele>261.744</ele>
        <time>2016-09-06T07:35:15.000Z</time>
      </trkpt>
      <trkpt lat="47.31565" lon="6.2625">
        <ele>260.834</ele>
        <time>2016-09-06T07:35:16.000Z</time>
      </trkpt>
      <trkpt lat="47.3156" lon="6.26247">
        <ele>261.488</ele>
        <time>2016-09-06T07:35:17.000Z</time>
      </trkpt>
      <trkpt lat="47.31556" lon="6.26244">
        <ele>262.061</ele>
        <time>2016-09-06T07:35:18.000Z</time>
      </trkpt>
      <trkpt lat="47.31552" lon="6.2624">
        <ele>260.645</ele>
        <time>2016-09-06T07:35:19.000Z</time>
      </trkpt>
      <trkpt lat="47.31547" lon="6.26232">
        <ele>260.889</ele>
        <time>2016-09-06T07:35:20.000Z</time>
      </trkpt>
      <trkpt lat="47.31541" lon="6.2623">
        <ele>260.926</ele>
        <time>2016-09-06T07:35:21.000Z</time>
      </trkpt>
      <trkpt lat="47.31537" lon="6.26229">
        <ele>260.579</ele>
        <time>2016-09-06T07:35:22.000Z</time>
      </trkpt>
      <trkpt lat="47.31533" lon="6.26226">
        <ele>260.456</ele>
        <time>2016-09-06T07:35:23.000Z</time>
      </trkpt>
      <trkpt lat="47.31528" lon="6.26222">
        <ele>259.272</ele>
        <time>2016-09-06T07:35:24.000Z</time>
      </trkpt>
      <trkpt lat="47.31525" lon="6.26219">
        <ele>259.193</ele>
        <time>2016-09-06T07:35:25.000Z</time>
      </trkpt>
      <trkpt lat="47.31522" lon="6.26216">
        <ele>259.156</ele>
        <time>2016-09-06T07:35:26.000Z</time>
      </trkpt>
      <trkpt lat="47.31516" lon="6.26212">
        <ele>257.917</ele>
        <time>2016-09-06T07:35:27.000Z</time>
      </trkpt>
      <trkpt lat="47.31513" lon="6.26208">
        <ele>258.252</ele>
        <time>2016-09-06T07:35:28.000Z</time>
      </trkpt>
      <trkpt lat="47.31509" lon="6.26205">
        <ele>258.408</ele>
        <time>2016-09-06T07:35:29.000Z</time>
      </trkpt>
      <trkpt lat="47.31507" lon="6.26203">
        <ele>256.746</ele>
        <time>2016-09-06T07:35:30.000Z</time>
      </trkpt>
      <trkpt lat="47.31504" lon="6.262">
        <ele>256.392</ele>
        <time>2016-09-06T07:35:31.000Z</time>
      </trkpt>
      <trkpt lat="47.31501" lon="6.26198">
        <ele>256.538</ele>
        <time>2016-09-06T07:35:32.000Z</time>
      </trkpt>
      <trkpt lat="47.31497" lon="6.26196">
        <ele>257.677</ele>
        <time>2016-09-06T07:35:33.000Z</time>
      </trkpt>
      <trkpt lat="47.31494" lon="6.26194">
        <ele>256.536</ele>
        <time>2016-09-06T07:35:34.000Z</time>
      </trkpt>
      <trkpt lat="47.3149" lon="6.26192">
        <ele>256.36</ele>
        <time>2016-09-06T07:35:35.000Z</time>
      </trkpt>
      <trkpt lat="47.31487" lon="6.2619">
        <ele>257.088</ele>
        <time>2016-09-06T07:35:36.000Z</time>
      </trkpt>
      <trkpt lat="47.31484" lon="6.26188">
        <ele>258.106</ele>
        <time>2016-09-06T07:35:37.000Z</time>
      </trkpt>
      <trkpt lat="47.3148" lon="6.26186">
        <ele>257.894</ele>
        <time>2016-09-06T07:35:38.000Z</time>
      </trkpt>
      <trkpt lat="47.31477" lon="6.26183">
        <ele>257.557</ele>
        <time>2016-09-06T07:35:39.000Z</time>
      </trkpt>
      <trkpt lat="47.31474" lon="6.26181">
        <ele>257.954</ele>
        <time>2016-09-06T07:35:40.000Z</time>
      </trkpt>
      <trkpt lat="47.3147" lon="6.26178">
        <ele>258.106</ele>
        <time>2016-09-06T07:35:41.000Z</time>
      </trkpt>
      <trkpt lat="47.31467" lon="6.26174">
        <ele>257.823</ele>
        <time>2016-09-06T07:35:42.000Z</time>
      </trkpt>
      <trkpt lat="47.31463" lon="6.26172">
        <ele>257.731</ele>
        <time>2016-09-06T07:35:43.000Z</time>
      </trkpt>
      <trkpt lat="47.31459" lon="6.26168">
        <ele>257.347</ele>
        <time>2016-09-06T07:35:44.000Z</time>
      </trkpt>
      <trkpt lat="47.31455" lon="6.26165">
        <ele>257.035</ele>
        <time>2016-09-06T07:35:45.000Z</time>
      </trkpt>
      <trkpt lat="47.31452" lon="6.26162">
        <ele>257.307</ele>
        <time>2016-09-06T07:35:46.000Z</time>
      </trkpt>
      <trkpt lat="47.31448" lon="6.26158">
        <ele>257.797</ele>
        <time>2016-09-06T07:35:47.000Z</time>
      </trkpt>
      <trkpt lat="47.31445" lon="6.26155">
        <ele>257.97</ele>
        <time>2016-09-06T07:35:48.000Z</time>
      </trkpt>
      <trkpt lat="47.31442" lon="6.26152">
        <ele>257.748</ele>
        <time>2016-09-06T07:35:49.000Z</time>
      </trkpt>
      <trkpt lat="47.31437" lon="6.26148">
        <ele>257.849</ele>
        <time>2016-09-06T07:35:50.000Z</time>
      </trkpt>
      <trkpt lat="47.31433" lon="6.26144">
        <ele>257.827</ele>
        <time>2016-09-06T07:35:51.000Z</time>
      </trkpt>
      <trkpt lat="47.31429" lon="6.2614">
        <ele>257.803</ele>
        <time>2016-09-06T07:35:52.000Z</time>
      </trkpt>
      <trkpt lat="47.31424" lon="6.26136">
        <ele>257.777</ele>
        <time>2016-09-06T07:35:53.000Z</time>
      </trkpt>
      <trkpt lat="47.31419" lon="6.26131">
        <ele>257.443</ele>
        <time>2016-09-06T07:35:54.000Z</time>
      </trkpt>
      <trkpt lat="47.31415" lon="6.26127">
        <ele>257.213</ele>
        <time>2016-09-06T07:35:55.000Z</time>
      </trkpt>
      <trkpt lat="47.31411" lon="6.26124">
        <ele>257.311</ele>
        <time>2016-09-06T07:35:56.000Z</time>
      </trkpt>
      <trkpt lat="47.31406" lon="6.26121">
        <ele>257.5</ele>
        <time>2016-09-06T07:35:57.000Z</time>
      </trkpt>
      <trkpt lat="47.31401" lon="6.26118">
        <ele>257.47</ele>
        <time>2016-09-06T07:35:58.000Z</time>
      </trkpt>
      <trkpt lat="47.31397" lon="6.26114">
        <ele>257.08</ele>
        <time>2016-09-06T07:35:59.000Z</time>
      </trkpt>
      <trkpt lat="47.31392" lon="6.2611">
        <ele>256.971</ele>
        <time>2016-09-06T07:36:00.000Z</time>
      </trkpt>
      <trkpt lat="47.31388" lon="6.26108">
        <ele>257.243</ele>
        <time>2016-09-06T07:36:01.000Z</time>
      </trkpt>
      <trkpt lat="47.31383" lon="6.26106">
        <ele>257.239</ele>
        <time>2016-09-06T07:36:02.000Z</time>
      </trkpt>
      <trkpt lat="47.31379" lon="6.26104">
        <ele>257.336</ele>
        <time>2016-09-06T07:36:03.000Z</time>
      </trkpt>
      <trkpt lat="47.31375" lon="6.26101">
        <ele>257.284</ele>
        <time>2016-09-06T07:36:04.000Z</time>
      </trkpt>
      <trkpt lat="47.31371" lon="6.261">
        <ele>257.347</ele>
        <time>2016-09-06T07:36:05.000Z</time>
      </trkpt>
      <trkpt lat="47.31366" lon="6.26097">
        <ele>257.647</ele>
        <time>2016-09-06T07:36:06.000Z</time>
      </trkpt>
      <trkpt lat="47.31362" lon="6.26095">
        <ele>257.754</ele>
        <time>2016-09-06T07:36:07.000Z</time>
      </trkpt>
      <trkpt lat="47.31358" lon="6.26093">
        <ele>257.911</ele>
        <time>2016-09-06T07:36:08.000Z</time>
      </trkpt>
      <trkpt lat="47.31354" lon="6.26091">
        <ele>257.949</ele>
        <time>2016-09-06T07:36:09.000Z</time>
      </trkpt>
      <trkpt lat="47.31349" lon="6.26086">
        <ele>258.361</ele>
        <time>2016-09-06T07:36:10.000Z</time>
      </trkpt>
      <trkpt lat="47.31346" lon="6.26085">
        <ele>258.038</ele>
        <time>2016-09-06T07:36:11.000Z</time>
      </trkpt>
      <trkpt lat="47.31342" lon="6.26083">
        <ele>258.203</ele>
        <time>2016-09-06T07:36:12.000Z</time>
      </trkpt>
      <trkpt lat="47.31338" lon="6.26081">
        <ele>258.204</ele>
        <time>2016-09-06T07:36:13.000Z</time>
      </trkpt>
      <trkpt lat="47.31334" lon="6.2608">
        <ele>258.093</ele>
        <time>2016-09-06T07:36:14.000Z</time>
      </trkpt>
      <trkpt lat="47.31331" lon="6.26078">
        <ele>258.258</ele>
        <time>2016-09-06T07:36:15.000Z</time>
      </trkpt>
      <trkpt lat="47.31327" lon="6.26076">
        <ele>258.001</ele>
        <time>2016-09-06T07:36:16.000Z</time>
      </trkpt>
      <trkpt lat="47.31323" lon="6.26074">
        <ele>258.036</ele>
        <time>2016-09-06T07:36:17.000Z</time>
      </trkpt>
      <trkpt lat="47.3132" lon="6.26072">
        <ele>258.198</ele>
        <time>2016-09-06T07:36:18.000Z</time>
      </trkpt>
      <trkpt lat="47.31317" lon="6.26071">
        <ele>258.422</ele>
        <time>2016-09-06T07:36:19.000Z</time>
      </trkpt>
      <trkpt lat="47.31314" lon="6.2607">
        <ele>258.182</ele>
        <time>2016-09-06T07:36:20.000Z</time>
      </trkpt>
      <trkpt lat="47.31313" lon="6.26068">
        <ele>258.236</ele>
        <time>2016-09-06T07:36:21.000Z</time>
      </trkpt>
      <trkpt lat="47.31312" lon="6.26067">
        <ele>258.313</ele>
        <time>2016-09-06T07:36:22.000Z</time>
      </trkpt>
      <trkpt lat="47.31311" lon="6.26066">
        <ele>258.108</ele>
        <time>2016-09-06T07:36:23.000Z</time>
      </trkpt>
      <trkpt lat="47.3131" lon="6.26067">
        <ele>258.487</ele>
        <time>2016-09-06T07:36:24.000Z</time>
      </trkpt>
      <trkpt lat="47.3131" lon="6.26067">
        <ele>258.455</ele>
        <time>2016-09-06T07:36:25.000Z</time>
      </trkpt>
      <trkpt lat="47.3131" lon="6.26067">
        <ele>258.126</ele>
        <time>2016-09-06T07:36:26.000Z</time>
      </trkpt>
      <trkpt lat="47.3131" lon="6.26069">
        <ele>258.023</ele>
        <time>2016-09-06T07:36:27.000Z</time>
      </trkpt>
      <trkpt lat="47.31311" lon="6.2607">
        <ele>258.336</ele>
        <time>2016-09-06T07:36:28.000Z</time>
      </trkpt>
      <trkpt lat="47.31311" lon="6.2607">
        <ele>258.582</ele>
        <time>2016-09-06T07:36:29.000Z</time>
      </trkpt>
      <trkpt lat="47.31312" lon="6.26071">
        <ele>258.67</ele>
        <time>2016-09-06T07:36:30.000Z</time>
      </trkpt>
      <trkpt lat="47.31312" lon="6.26071">
        <ele>259.122</ele>
        <time>2016-09-06T07:36:31.000Z</time>
      </trkpt>
      <trkpt lat="47.31312" lon="6.26071">
        <ele>259.576</ele>
        <time>2016-09-06T07:36:32.000Z</time>
      </trkpt>
      <trkpt lat="47.31313" lon="6.26072">
        <ele>259.87</ele>
        <time>2016-09-06T07:36:33.000Z</time>
      </trkpt>
      <trkpt lat="47.31313" lon="6.26072">
        <ele>259.773</ele>
        <time>2016-09-06T07:36:34.000Z</time>
      </trkpt>
      <trkpt lat="47.31313" lon="6.26072">
        <ele>259.576</ele>
        <time>2016-09-06T07:36:35.000Z</time>
      </trkpt>
      <trkpt lat="47.31315" lon="6.26075">
        <ele>259.498</ele>
        <time>2016-09-06T07:36:36.000Z</time>
      </trkpt>
      <trkpt lat="47.31315" lon="6.26076">
        <ele>259.265</ele>
        <time>2016-09-06T07:36:37.000Z</time>
      </trkpt>
      <trkpt lat="47.31315" lon="6.26076">
        <ele>259.945</ele>
        <time>2016-09-06T07:36:38.000Z</time>
      </trkpt>
      <trkpt lat="47.31315" lon="6.26076">
        <ele>259.744</ele>
        <time>2016-09-06T07:36:39.000Z</time>
      </trkpt>
      <trkpt lat="47.31314" lon="6.26078">
        <ele>259.896</ele>
        <time>2016-09-06T07:36:40.000Z</time>
      </trkpt>
      <trkpt lat="47.31314" lon="6.26078">
        <ele>259.591</ele>
        <time>2016-09-06T07:36:41.000Z</time>
      </trkpt>
      <trkpt lat="47.31314" lon="6.26078">
        <ele>259.612</ele>
        <time>2016-09-06T07:36:42.000Z</time>
      </trkpt>
      <trkpt lat="47.31314" lon="6.26078">
        <ele>259.246</ele>
        <time>2016-09-06T07:36:43.000Z</time>
      </trkpt>
      <trkpt lat="47.31313" lon="6.26077">
        <ele>259.347</ele>
        <time>2016-09-06T07:36:44.000Z</time>
      </trkpt>
      <trkpt lat="47.31313" lon="6.26077">
        <ele>259.458</ele>
        <time>2016-09-06T07:36:45.000Z</time>
      </trkpt>
      <trkpt lat="47.31313" lon="6.26077">
        <ele>259.503</ele>
        <time>2016-09-06T07:36:46.000Z</time>
      </trkpt>
      <trkpt lat="47.31313" lon="6.26077">
        <ele>259.297</ele>
        <time>2016-09-06T07:36:47.000Z</time>
      </trkpt>
      <trkpt lat="47.31313" lon="6.26075">
        <ele>259.057</ele>
        <time>2016-09-06T07:36:48.000Z</time>
      </trkpt>
      <trkpt lat="47.31314" lon="6.26075">
        <ele>259.548</ele>
        <time>2016-09-06T07:36:49.000Z</time>
      </trkpt>
      <trkpt lat="47.31313" lon="6.26075">
        <ele>259.616</ele>
        <time>2016-09-06T07:36:50.005Z</time>
      </trkpt>
      <trkpt lat="47.31313" lon="6.26075">
        <ele>259.659</ele>
        <time>2016-09-06T07:36:51.001Z</time>
      </trkpt>
      <trkpt lat="47.31312" lon="6.26075">
        <ele>259.635</ele>
        <time>2016-09-06T07:36:51.998Z</time>
      </trkpt>
      <trkpt lat="47.31312" lon="6.26075">
        <ele>259.709</ele>
        <time>2016-09-06T07:36:52.997Z</time>
      </trkpt>
      <trkpt lat="47.31312" lon="6.26075">
        <ele>259.737</ele>
        <time>2016-09-06T07:36:54.000Z</time>
      </trkpt>
      <trkpt lat="47.31312" lon="6.26075">
        <ele>259.939</ele>
        <time>2016-09-06T07:36:55.000Z</time>
      </trkpt>
      <trkpt lat="47.31311" lon="6.26073">
        <ele>260.069</ele>
        <time>2016-09-06T07:36:56.000Z</time>
      </trkpt>
      <trkpt lat="47.31311" lon="6.26073">
        <ele>260.132</ele>
        <time>2016-09-06T07:36:57.000Z</time>
      </trkpt>
      <trkpt lat="47.31311" lon="6.26073">
        <ele>260.386</ele>
        <time>2016-09-06T07:36:58.000Z</time>
      </trkpt>
      <trkpt lat="47.31311" lon="6.26073">
        <ele>260.434</ele>
        <time>2016-09-06T07:36:59.000Z</time>
      </trkpt>
      <trkpt lat="47.31311" lon="6.26073">
        <ele>260.843</ele>
        <time>2016-09-06T07:37:00.000Z</time>
      </trkpt>
      <trkpt lat="47.31311" lon="6.26073">
        <ele>261.17</ele>
        <time>2016-09-06T07:37:01.000Z</time>
      </trkpt>
      <trkpt lat="47.31311" lon="6.26073">
        <ele>261.371</ele>
        <time>2016-09-06T07:37:02.000Z</time>
      </trkpt>
      <trkpt lat="47.31311" lon="6.26073">
        <ele>261.282</ele>
        <time>2016-09-06T07:37:03.000Z</time>
      </trkpt>
      <trkpt lat="47.31311" lon="6.26073">
        <ele>261.698</ele>
        <time>2016-09-06T07:37:04.000Z</time>
      </trkpt>
      <trkpt lat="47.31311" lon="6.26073">
        <ele>262.087</ele>
        <time>2016-09-06T07:37:05.000Z</time>
      </trkpt>
      <trkpt lat="47.31311" lon="6.26073">
        <ele>262.669</ele>
        <time>2016-09-06T07:37:06.000Z</time>
      </trkpt>
      <trkpt lat="47.31311" lon="6.26073">
        <ele>263.066</ele>
        <time>2016-09-06T07:37:07.000Z</time>
      </trkpt>
      <trkpt lat="47.31311" lon="6.26073">
        <ele>262.725</ele>
        <time>2016-09-06T07:37:08.000Z</time>
      </trkpt>
      <trkpt lat="47.31311" lon="6.26073">
        <ele>262.405</ele>
        <time>2016-09-06T07:37:09.000Z</time>
      </trkpt>
      <trkpt lat="47.31311" lon="6.26073">
        <ele>262.813</ele>
        <time>2016-09-06T07:37:10.000Z</time>
      </trkpt>
      <trkpt lat="47.31311" lon="6.26073">
        <ele>262.188</ele>
        <time>2016-09-06T07:37:11.000Z</time>
      </trkpt>
      <trkpt lat="47.31311" lon="6.26073">
        <ele>261.785</ele>
        <time>2016-09-06T07:37:12.000Z</time>
      </trkpt>
      <trkpt lat="47.31311" lon="6.26073">
        <ele>261.318</ele>
        <time>2016-09-06T07:37:13.000Z</time>
      </trkpt>
      <trkpt lat="47.31309" lon="6.26072">
        <ele>261.231</ele>
        <time>2016-09-06T07:37:14.000Z</time>
      </trkpt>
      <trkpt lat="47.31309" lon="6.26072">
        <ele>261.012</ele>
        <time>2016-09-06T07:37:15.000Z</time>
      </trkpt>
      <trkpt lat="47.31309" lon="6.26072">
        <ele>261.237</ele>
        <time>2016-09-06T07:37:16.000Z</time>
      </trkpt>
      <trkpt lat="47.31309" lon="6.26072">
        <ele>261.58</ele>
        <time>2016-09-06T07:37:17.000Z</time>
      </trkpt>
      <trkpt lat="47.31309" lon="6.26072">
        <ele>261.649</ele>
        <time>2016-09-06T07:37:18.000Z</time>
      </trkpt>
      <trkpt lat="47.31309" lon="6.26072">
        <ele>261.591</ele>
        <time>2016-09-06T07:37:19.000Z</time>
      </trkpt>
      <trkpt lat="47.31309" lon="6.26072">
        <ele>261.488</ele>
        <time>2016-09-06T07:37:20.000Z</time>
      </trkpt>
      <trkpt lat="47.31309" lon="6.26072">
        <ele>261.276</ele>
        <time>2016-09-06T07:37:21.000Z</time>
      </trkpt>
      <trkpt lat="47.3131" lon="6.26072">
        <ele>261.023</ele>
        <time>2016-09-06T07:37:22.000Z</time>
      </trkpt>
      <trkpt lat="47.3131" lon="6.26072">
        <ele>260.782</ele>
        <time>2016-09-06T07:37:23.000Z</time>
      </trkpt>
      <trkpt lat="47.31311" lon="6.26071">
        <ele>260.747</ele>
        <time>2016-09-06T07:37:24.000Z</time>
      </trkpt>
      <trkpt lat="47.31311" lon="6.26071">
        <ele>260.665</ele>
        <time>2016-09-06T07:37:25.000Z</time>
      </trkpt>
      <trkpt lat="47.31311" lon="6.26071">
        <ele>260.474</ele>
        <time>2016-09-06T07:37:26.000Z</time>
      </trkpt>
      <trkpt lat="47.31311" lon="6.26071">
        <ele>260.174</ele>
        <time>2016-09-06T07:37:27.000Z</time>
      </trkpt>
      <trkpt lat="47.31311" lon="6.26071">
        <ele>260.207</ele>
        <time>2016-09-06T07:37:28.000Z</time>
      </trkpt>
      <trkpt lat="47.31311" lon="6.26071">
        <ele>260.217</ele>
        <time>2016-09-06T07:37:29.000Z</time>
      </trkpt>
      <trkpt lat="47.31311" lon="6.26071">
        <ele>260.512</ele>
        <time>2016-09-06T07:37:30.000Z</time>
      </trkpt>
      <trkpt lat="47.31311" lon="6.26071">
        <ele>260.929</ele>
        <time>2016-09-06T07:37:31.000Z</time>
      </trkpt>
      <trkpt lat="47.31311" lon="6.26071">
        <ele>260.981</ele>
        <time>2016-09-06T07:37:32.000Z</time>
      </trkpt>
      <trkpt lat="47.31313" lon="6.26071">
        <ele>260.351</ele>
        <time>2016-09-06T07:37:33.000Z</time>
      </trkpt>
      <trkpt lat="47.31313" lon="6.26071">
        <ele>260.159</ele>
        <time>2016-09-06T07:37:34.000Z</time>
      </trkpt>
      <trkpt lat="47.31313" lon="6.26071">
        <ele>260.068</ele>
        <time>2016-09-06T07:37:35.000Z</time>
      </trkpt>
      <trkpt lat="47.31312" lon="6.26071">
        <ele>260.592</ele>
        <time>2016-09-06T07:37:36.000Z</time>
      </trkpt>
      <trkpt lat="47.31312" lon="6.26071">
        <ele>261.006</ele>
        <time>2016-09-06T07:37:37.000Z</time>
      </trkpt>
      <trkpt lat="47.31312" lon="6.26071">
        <ele>260.46</ele>
        <time>2016-09-06T07:37:38.000Z</time>
      </trkpt>
      <trkpt lat="47.31312" lon="6.26071">
        <ele>260.27</ele>
        <time>2016-09-06T07:37:39.000Z</time>
      </trkpt>
      <trkpt lat="47.31312" lon="6.26071">
        <ele>260.204</ele>
        <time>2016-09-06T07:37:40.000Z</time>
      </trkpt>
      <trkpt lat="47.31312" lon="6.26071">
        <ele>260.236</ele>
        <time>2016-09-06T07:37:41.000Z</time>
      </trkpt>
      <trkpt lat="47.31312" lon="6.26071">
        <ele>260.511</ele>
        <time>2016-09-06T07:37:42.000Z</time>
      </trkpt>
      <trkpt lat="47.31312" lon="6.26071">
        <ele>260.365</ele>
        <time>2016-09-06T07:37:43.000Z</time>
      </trkpt>
      <trkpt lat="47.31309" lon="6.26073">
        <ele>259.507</ele>
        <time>2016-09-06T07:37:44.000Z</time>
      </trkpt>
      <trkpt lat="47.31309" lon="6.26073">
        <ele>258.947</ele>
        <time>2016-09-06T07:37:45.000Z</time>
      </trkpt>
      <trkpt lat="47.31309" lon="6.26073">
        <ele>259.033</ele>
        <time>2016-09-06T07:37:46.000Z</time>
      </trkpt>
      <trkpt lat="47.31309" lon="6.26073">
        <ele>258.855</ele>
        <time>2016-09-06T07:37:47.000Z</time>
      </trkpt>
      <trkpt lat="47.31309" lon="6.26073">
        <ele>258.73</ele>
        <time>2016-09-06T07:37:48.000Z</time>
      </trkpt>
      <trkpt lat="47.31309" lon="6.26073">
        <ele>258.692</ele>
        <time>2016-09-06T07:37:49.000Z</time>
      </trkpt>
      <trkpt lat="47.31309" lon="6.26073">
        <ele>258.688</ele>
        <time>2016-09-06T07:37:50.000Z</time>
      </trkpt>
      <trkpt lat="47.31309" lon="6.26073">
        <ele>259.197</ele>
        <time>2016-09-06T07:37:51.000Z</time>
      </trkpt>
      <trkpt lat="47.31309" lon="6.26073">
        <ele>259.509</ele>
        <time>2016-09-06T07:37:52.000Z</time>
      </trkpt>
      <trkpt lat="47.31309" lon="6.26073">
        <ele>259.53</ele>
        <time>2016-09-06T07:37:53.000Z</time>
      </trkpt>
      <trkpt lat="47.31309" lon="6.26073">
        <ele>259.967</ele>
        <time>2016-09-06T07:37:54.000Z</time>
      </trkpt>
      <trkpt lat="47.3131" lon="6.26073">
        <ele>259.791</ele>
        <time>2016-09-06T07:37:55.000Z</time>
      </trkpt>
      <trkpt lat="47.3131" lon="6.26073">
        <ele>259.612</ele>
        <time>2016-09-06T07:37:56.000Z</time>
      </trkpt>
      <trkpt lat="47.3131" lon="6.26073">
        <ele>259.405</ele>
        <time>2016-09-06T07:37:57.000Z</time>
      </trkpt>
      <trkpt lat="47.31311" lon="6.26072">
        <ele>259.589</ele>
        <time>2016-09-06T07:37:58.000Z</time>
      </trkpt>
      <trkpt lat="47.31311" lon="6.26072">
        <ele>260.15</ele>
        <time>2016-09-06T07:37:59.000Z</time>
      </trkpt>
      <trkpt lat="47.31311" lon="6.26072">
        <ele>260.278</ele>
        <time>2016-09-06T07:38:00.000Z</time>
      </trkpt>
      <trkpt lat="47.31311" lon="6.26072">
        <ele>260.231</ele>
        <time>2016-09-06T07:38:01.000Z</time>
      </trkpt>
      <trkpt lat="47.31311" lon="6.26072">
        <ele>259.831</ele>
        <time>2016-09-06T07:38:02.000Z</time>
      </trkpt>
      <trkpt lat="47.31311" lon="6.26071">
        <ele>259.792</ele>
        <time>2016-09-06T07:38:03.000Z</time>
      </trkpt>
      <trkpt lat="47.31311" lon="6.2607">
        <ele>259.797</ele>
        <time>2016-09-06T07:38:04.000Z</time>
      </trkpt>
      <trkpt lat="47.31312" lon="6.26069">
        <ele>259.501</ele>
        <time>2016-09-06T07:38:05.000Z</time>
      </trkpt>
      <trkpt lat="47.31312" lon="6.26067">
        <ele>259.443</ele>
        <time>2016-09-06T07:38:06.000Z</time>
      </trkpt>
      <trkpt lat="47.31311" lon="6.26066">
        <ele>259.502</ele>
        <time>2016-09-06T07:38:07.000Z</time>
      </trkpt>
      <trkpt lat="47.31311" lon="6.26065">
        <ele>259.411</ele>
        <time>2016-09-06T07:38:08.000Z</time>
      </trkpt>
      <trkpt lat="47.31311" lon="6.26065">
        <ele>259.399</ele>
        <time>2016-09-06T07:38:09.000Z</time>
      </trkpt>
      <trkpt lat="47.31312" lon="6.26065">
        <ele>259.184</ele>
        <time>2016-09-06T07:38:10.000Z</time>
      </trkpt>
      <trkpt lat="47.31312" lon="6.26065">
        <ele>259.089</ele>
        <time>2016-09-06T07:38:11.000Z</time>
      </trkpt>
      <trkpt lat="47.31312" lon="6.26065">
        <ele>258.919</ele>
        <time>2016-09-06T07:38:12.000Z</time>
      </trkpt>
      <trkpt lat="47.31312" lon="6.26065">
        <ele>258.951</ele>
        <time>2016-09-06T07:38:13.000Z</time>
      </trkpt>
      <trkpt lat="47.31312" lon="6.26065">
        <ele>259.393</ele>
        <time>2016-09-06T07:38:14.000Z</time>
      </trkpt>
      <trkpt lat="47.31312" lon="6.26065">
        <ele>259.573</ele>
        <time>2016-09-06T07:38:15.000Z</time>
      </trkpt>
      <trkpt lat="47.31312" lon="6.26065">
        <ele>259.697</ele>
        <time>2016-09-06T07:38:16.000Z</time>
      </trkpt>
      <trkpt lat="47.31312" lon="6.26065">
        <ele>260.006</ele>
        <time>2016-09-06T07:38:17.000Z</time>
      </trkpt>
      <trkpt lat="47.31312" lon="6.26065">
        <ele>260.124</ele>
        <time>2016-09-06T07:38:18.000Z</time>
      </trkpt>
      <trkpt lat="47.31312" lon="6.26065">
        <ele>259.652</ele>
        <time>2016-09-06T07:38:19.000Z</time>
      </trkpt>
      <trkpt lat="47.31312" lon="6.26065">
        <ele>259.92</ele>
        <time>2016-09-06T07:38:20.000Z</time>
      </trkpt>
      <trkpt lat="47.31312" lon="6.26065">
        <ele>260.282</ele>
        <time>2016-09-06T07:38:21.000Z</time>
      </trkpt>
      <trkpt lat="47.31312" lon="6.26065">
        <ele>260.326</ele>
        <time>2016-09-06T07:38:22.000Z</time>
      </trkpt>
      <trkpt lat="47.31312" lon="6.26065">
        <ele>260.347</ele>
        <time>2016-09-06T07:38:23.000Z</time>
      </trkpt>
      <trkpt lat="47.31312" lon="6.26065">
        <ele>260.57</ele>
        <time>2016-09-06T07:38:24.000Z</time>
      </trkpt>
      <trkpt lat="47.31312" lon="6.26065">
        <ele>260.786</ele>
        <time>2016-09-06T07:38:25.000Z</time>
      </trkpt>
      <trkpt lat="47.31312" lon="6.26065">
        <ele>261.055</ele>
        <time>2016-09-06T07:38:26.000Z</time>
      </trkpt>
      <trkpt lat="47.31312" lon="6.26065">
        <ele>260.721</ele>
        <time>2016-09-06T07:38:27.000Z</time>
      </trkpt>
      <trkpt lat="47.31312" lon="6.26065">
        <ele>260.399</ele>
        <time>2016-09-06T07:38:28.000Z</time>
      </trkpt>
      <trkpt lat="47.31312" lon="6.26065">
        <ele>260.213</ele>
        <time>2016-09-06T07:38:29.000Z</time>
      </trkpt>
      <trkpt lat="47.31312" lon="6.26065">
        <ele>260.472</ele>
        <time>2016-09-06T07:38:30.000Z</time>
      </trkpt>
      <trkpt lat="47.31312" lon="6.26065">
        <ele>260.438</ele>
        <time>2016-09-06T07:38:31.000Z</time>
      </trkpt>
      <trkpt lat="47.31312" lon="6.26065">
        <ele>260.454</ele>
        <time>2016-09-06T07:38:32.000Z</time>
      </trkpt>
      <trkpt lat="47.31312" lon="6.26065">
        <ele>260.422</ele>
        <time>2016-09-06T07:38:33.000Z</time>
      </trkpt>
      <trkpt lat="47.31312" lon="6.26065">
        <ele>260.274</ele>
        <time>2016-09-06T07:38:34.000Z</time>
      </trkpt>
      <trkpt lat="47.31312" lon="6.26065">
        <ele>260.236</ele>
        <time>2016-09-06T07:38:35.000Z</time>
      </trkpt>
      <trkpt lat="47.31312" lon="6.26065">
        <ele>260.049</ele>
        <time>2016-09-06T07:38:36.000Z</time>
      </trkpt>
      <trkpt lat="47.31312" lon="6.26065">
        <ele>259.843</ele>
        <time>2016-09-06T07:38:37.000Z</time>
      </trkpt>
      <trkpt lat="47.31312" lon="6.26065">
        <ele>259.583</ele>
        <time>2016-09-06T07:38:38.000Z</time>
      </trkpt>
      <trkpt lat="47.31312" lon="6.26065">
        <ele>259.662</ele>
        <time>2016-09-06T07:38:39.000Z</time>
      </trkpt>
      <trkpt lat="47.31312" lon="6.26065">
        <ele>259.605</ele>
        <time>2016-09-06T07:38:40.000Z</time>
      </trkpt>
      <trkpt lat="47.31312" lon="6.26065">
        <ele>259.553</ele>
        <time>2016-09-06T07:38:41.000Z</time>
      </trkpt>
      <trkpt lat="47.31312" lon="6.26065">
        <ele>259.586</ele>
        <time>2016-09-06T07:38:42.000Z</time>
      </trkpt>
      <trkpt lat="47.31312" lon="6.26065">
        <ele>259.744</ele>
        <time>2016-09-06T07:38:43.000Z</time>
      </trkpt>
      <trkpt lat="47.31312" lon="6.26065">
        <ele>259.602</ele>
        <time>2016-09-06T07:38:44.000Z</time>
      </trkpt>
      <trkpt lat="47.31312" lon="6.26065">
        <ele>259.516</ele>
        <time>2016-09-06T07:38:45.000Z</time>
      </trkpt>
      <trkpt lat="47.31312" lon="6.26065">
        <ele>259.553</ele>
        <time>2016-09-06T07:38:46.000Z</time>
      </trkpt>
      <trkpt lat="47.31312" lon="6.26065">
        <ele>259.461</ele>
        <time>2016-09-06T07:38:47.000Z</time>
      </trkpt>
      <trkpt lat="47.31312" lon="6.26065">
        <ele>259.375</ele>
        <time>2016-09-06T07:38:48.000Z</time>
      </trkpt>
      <trkpt lat="47.31312" lon="6.26065">
        <ele>259.35</ele>
        <time>2016-09-06T07:38:49.000Z</time>
      </trkpt>
      <trkpt lat="47.31312" lon="6.26065">
        <ele>259.263</ele>
        <time>2016-09-06T07:38:50.000Z</time>
      </trkpt>
      <trkpt lat="47.31312" lon="6.26065">
        <ele>259.154</ele>
        <time>2016-09-06T07:38:51.000Z</time>
      </trkpt>
      <trkpt lat="47.31312" lon="6.26065">
        <ele>259.161</ele>
        <time>2016-09-06T07:38:52.000Z</time>
      </trkpt>
      <trkpt lat="47.31312" lon="6.26065">
        <ele>259.188</ele>
        <time>2016-09-06T07:38:53.000Z</time>
      </trkpt>
      <trkpt lat="47.31312" lon="6.26065">
        <ele>259.123</ele>
        <time>2016-09-06T07:38:54.000Z</time>
      </trkpt>
      <trkpt lat="47.31312" lon="6.26065">
        <ele>259.052</ele>
        <time>2016-09-06T07:38:55.000Z</time>
      </trkpt>
      <trkpt lat="47.31312" lon="6.26065">
        <ele>259.021</ele>
        <time>2016-09-06T07:38:56.000Z</time>
      </trkpt>
      <trkpt lat="47.31312" lon="6.26065">
        <ele>259.096</ele>
        <time>2016-09-06T07:38:57.000Z</time>
      </trkpt>
      <trkpt lat="47.31312" lon="6.26065">
        <ele>259.094</ele>
        <time>2016-09-06T07:38:58.000Z</time>
      </trkpt>
      <trkpt lat="47.31312" lon="6.26065">
        <ele>259.316</ele>
        <time>2016-09-06T07:38:59.000Z</time>
      </trkpt>
      <trkpt lat="47.31312" lon="6.26065">
        <ele>259.26</ele>
        <time>2016-09-06T07:39:00.000Z</time>
      </trkpt>
      <trkpt lat="47.31312" lon="6.26065">
        <ele>259.51</ele>
        <time>2016-09-06T07:39:01.000Z</time>
      </trkpt>
      <trkpt lat="47.31312" lon="6.26065">
        <ele>259.499</ele>
        <time>2016-09-06T07:39:02.000Z</time>
      </trkpt>
      <trkpt lat="47.31312" lon="6.26065">
        <ele>259.709</ele>
        <time>2016-09-06T07:39:03.000Z</time>
      </trkpt>
      <trkpt lat="47.31312" lon="6.26065">
        <ele>259.829</ele>
        <time>2016-09-06T07:39:04.000Z</time>
      </trkpt>
      <trkpt lat="47.31312" lon="6.26065">
        <ele>259.641</ele>
        <time>2016-09-06T07:39:05.000Z</time>
      </trkpt>
      <trkpt lat="47.31312" lon="6.26065">
        <ele>259.866</ele>
        <time>2016-09-06T07:39:06.000Z</time>
      </trkpt>
      <trkpt lat="47.31312" lon="6.26065">
        <ele>259.596</ele>
        <time>2016-09-06T07:39:07.000Z</time>
      </trkpt>
      <trkpt lat="47.31312" lon="6.26065">
        <ele>259.818</ele>
        <time>2016-09-06T07:39:08.000Z</time>
      </trkpt>
      <trkpt lat="47.31312" lon="6.26065">
        <ele>260.079</ele>
        <time>2016-09-06T07:39:09.000Z</time>
      </trkpt>
      <trkpt lat="47.31312" lon="6.26065">
        <ele>260.047</ele>
        <time>2016-09-06T07:39:10.000Z</time>
      </trkpt>
      <trkpt lat="47.31312" lon="6.26065">
        <ele>260.014</ele>
        <time>2016-09-06T07:39:11.000Z</time>
      </trkpt>
      <trkpt lat="47.31312" lon="6.26065">
        <ele>260.123</ele>
        <time>2016-09-06T07:39:12.000Z</time>
      </trkpt>
      <trkpt lat="47.31312" lon="6.26065">
        <ele>260.132</ele>
        <time>2016-09-06T07:39:13.000Z</time>
      </trkpt>
      <trkpt lat="47.31312" lon="6.26065">
        <ele>259.872</ele>
        <time>2016-09-06T07:39:14.000Z</time>
      </trkpt>
      <trkpt lat="47.31312" lon="6.26065">
        <ele>259.788</ele>
        <time>2016-09-06T07:39:15.000Z</time>
      </trkpt>
      <trkpt lat="47.31312" lon="6.26065">
        <ele>259.562</ele>
        <time>2016-09-06T07:39:16.000Z</time>
      </trkpt>
      <trkpt lat="47.31312" lon="6.26065">
        <ele>259.654</ele>
        <time>2016-09-06T07:39:17.000Z</time>
      </trkpt>
      <trkpt lat="47.31312" lon="6.26065">
        <ele>259.771</ele>
        <time>2016-09-06T07:39:18.000Z</time>
      </trkpt>
      <trkpt lat="47.31312" lon="6.26065">
        <ele>259.917</ele>
        <time>2016-09-06T07:39:19.000Z</time>
      </trkpt>
      <trkpt lat="47.31312" lon="6.26065">
        <ele>260.044</ele>
        <time>2016-09-06T07:39:20.000Z</time>
      </trkpt>
      <trkpt lat="47.31312" lon="6.26065">
        <ele>260.041</ele>
        <time>2016-09-06T07:39:21.000Z</time>
      </trkpt>
      <trkpt lat="47.31312" lon="6.26065">
        <ele>260.071</ele>
        <time>2016-09-06T07:39:22.000Z</time>
      </trkpt>
      <trkpt lat="47.31312" lon="6.26065">
        <ele>259.859</ele>
        <time>2016-09-06T07:39:23.000Z</time>
      </trkpt>
      <trkpt lat="47.31312" lon="6.26065">
        <ele>259.974</ele>
        <time>2016-09-06T07:39:24.000Z</time>
      </trkpt>
      <trkpt lat="47.31312" lon="6.26065">
        <ele>259.838</ele>
        <time>2016-09-06T07:39:25.000Z</time>
      </trkpt>
      <trkpt lat="47.31312" lon="6.26065">
        <ele>259.763</ele>
        <time>2016-09-06T07:39:26.000Z</time>
      </trkpt>
      <trkpt lat="47.31312" lon="6.26065">
        <ele>259.946</ele>
        <time>2016-09-06T07:39:27.000Z</time>
      </trkpt>
      <trkpt lat="47.31312" lon="6.26065">
        <ele>259.904</ele>
        <time>2016-09-06T07:39:28.000Z</time>
      </trkpt>
      <trkpt lat="47.31312" lon="6.26065">
        <ele>259.788</ele>
        <time>2016-09-06T07:39:29.000Z</time>
      </trkpt>
      <trkpt lat="47.31312" lon="6.26065">
        <ele>259.646</ele>
        <time>2016-09-06T07:39:30.000Z</time>
      </trkpt>
      <trkpt lat="47.31312" lon="6.26065">
        <ele>259.644</ele>
        <time>2016-09-06T07:39:31.000Z</time>
      </trkpt>
      <trkpt lat="47.31312" lon="6.26065">
        <ele>259.557</ele>
        <time>2016-09-06T07:39:32.000Z</time>
      </trkpt>
      <trkpt lat="47.31312" lon="6.26065">
        <ele>259.45</ele>
        <time>2016-09-06T07:39:33.000Z</time>
      </trkpt>
      <trkpt lat="47.31312" lon="6.26065">
        <ele>259.503</ele>
        <time>2016-09-06T07:39:34.000Z</time>
      </trkpt>
      <trkpt lat="47.31312" lon="6.26065">
        <ele>259.536</ele>
        <time>2016-09-06T07:39:35.000Z</time>
      </trkpt>
      <trkpt lat="47.31312" lon="6.26065">
        <ele>259.709</ele>
        <time>2016-09-06T07:39:36.000Z</time>
      </trkpt>
      <trkpt lat="47.31312" lon="6.26065">
        <ele>259.767</ele>
        <time>2016-09-06T07:39:37.000Z</time>
      </trkpt>
      <trkpt lat="47.31312" lon="6.26065">
        <ele>259.77</ele>
        <time>2016-09-06T07:39:38.000Z</time>
      </trkpt>
      <trkpt lat="47.31312" lon="6.26065">
        <ele>259.627</ele>
        <time>2016-09-06T07:39:39.000Z</time>
      </trkpt>
      <trkpt lat="47.31312" lon="6.26065">
        <ele>259.681</ele>
        <time>2016-09-06T07:39:40.000Z</time>
      </trkpt>
      <trkpt lat="47.31312" lon="6.26065">
        <ele>259.724</ele>
        <time>2016-09-06T07:39:41.000Z</time>
      </trkpt>
      <trkpt lat="47.31312" lon="6.26065">
        <ele>259.621</ele>
        <time>2016-09-06T07:39:42.000Z</time>
      </trkpt>
      <trkpt lat="47.31312" lon="6.26065">
        <ele>259.778</ele>
        <time>2016-09-06T07:39:43.000Z</time>
      </trkpt>
      <trkpt lat="47.31312" lon="6.26065">
        <ele>259.75</ele>
        <time>2016-09-06T07:39:44.000Z</time>
      </trkpt>
      <trkpt lat="47.31312" lon="6.26065">
        <ele>259.808</ele>
        <time>2016-09-06T07:39:45.000Z</time>
      </trkpt>
      <trkpt lat="47.31312" lon="6.26065">
        <ele>259.803</ele>
        <time>2016-09-06T07:39:46.000Z</time>
      </trkpt>
      <trkpt lat="47.31312" lon="6.26065">
        <ele>259.6</ele>
        <time>2016-09-06T07:39:47.000Z</time>
      </trkpt>
      <trkpt lat="47.31312" lon="6.26065">
        <ele>259.32</ele>
        <time>2016-09-06T07:39:48.000Z</time>
      </trkpt>
      <trkpt lat="47.31312" lon="6.26065">
        <ele>259.329</ele>
        <time>2016-09-06T07:39:49.000Z</time>
      </trkpt>
      <trkpt lat="47.31312" lon="6.26065">
        <ele>259.307</ele>
        <time>2016-09-06T07:39:50.000Z</time>
      </trkpt>
      <trkpt lat="47.31312" lon="6.26065">
        <ele>259.301</ele>
        <time>2016-09-06T07:39:51.000Z</time>
      </trkpt>
      <trkpt lat="47.31312" lon="6.26065">
        <ele>259.295</ele>
        <time>2016-09-06T07:39:52.000Z</time>
      </trkpt>
      <trkpt lat="47.3131" lon="6.26067">
        <ele>259.291</ele>
        <time>2016-09-06T07:39:53.000Z</time>
      </trkpt>
      <trkpt lat="47.3131" lon="6.26067">
        <ele>259.821</ele>
        <time>2016-09-06T07:39:54.000Z</time>
      </trkpt>
      <trkpt lat="47.31311" lon="6.26067">
        <ele>259.709</ele>
        <time>2016-09-06T07:39:55.000Z</time>
      </trkpt>
      <trkpt lat="47.31311" lon="6.26068">
        <ele>259.847</ele>
        <time>2016-09-06T07:39:56.000Z</time>
      </trkpt>
      <trkpt lat="47.31311" lon="6.26069">
        <ele>259.808</ele>
        <time>2016-09-06T07:39:57.000Z</time>
      </trkpt>
      <trkpt lat="47.31311" lon="6.2607">
        <ele>260.106</ele>
        <time>2016-09-06T07:39:58.000Z</time>
      </trkpt>
      <trkpt lat="47.31311" lon="6.26071">
        <ele>259.911</ele>
        <time>2016-09-06T07:39:59.000Z</time>
      </trkpt>
      <trkpt lat="47.31311" lon="6.26071">
        <ele>259.894</ele>
        <time>2016-09-06T07:40:00.000Z</time>
      </trkpt>
      <trkpt lat="47.31311" lon="6.26071">
        <ele>259.777</ele>
        <time>2016-09-06T07:40:01.000Z</time>
      </trkpt>
      <trkpt lat="47.31312" lon="6.26071">
        <ele>260.029</ele>
        <time>2016-09-06T07:40:02.000Z</time>
      </trkpt>
      <trkpt lat="47.31313" lon="6.26071">
        <ele>260.013</ele>
        <time>2016-09-06T07:40:03.000Z</time>
      </trkpt>
      <trkpt lat="47.31315" lon="6.26071">
        <ele>260.032</ele>
        <time>2016-09-06T07:40:04.000Z</time>
      </trkpt>
      <trkpt lat="47.31317" lon="6.26071">
        <ele>260.208</ele>
        <time>2016-09-06T07:40:05.000Z</time>
      </trkpt>
      <trkpt lat="47.31319" lon="6.26072">
        <ele>259.662</ele>
        <time>2016-09-06T07:40:06.000Z</time>
      </trkpt>
      <trkpt lat="47.31321" lon="6.26073">
        <ele>259.416</ele>
        <time>2016-09-06T07:40:07.000Z</time>
      </trkpt>
      <trkpt lat="47.31323" lon="6.26074">
        <ele>259.66</ele>
        <time>2016-09-06T07:40:08.000Z</time>
      </trkpt>
      <trkpt lat="47.31324" lon="6.26074">
        <ele>259.559</ele>
        <time>2016-09-06T07:40:09.000Z</time>
      </trkpt>
      <trkpt lat="47.31324" lon="6.26075">
        <ele>259.437</ele>
        <time>2016-09-06T07:40:10.000Z</time>
      </trkpt>
      <trkpt lat="47.31325" lon="6.26075">
        <ele>259.228</ele>
        <time>2016-09-06T07:40:11.000Z</time>
      </trkpt>
      <trkpt lat="47.31326" lon="6.26076">
        <ele>259.247</ele>
        <time>2016-09-06T07:40:12.000Z</time>
      </trkpt>
      <trkpt lat="47.31326" lon="6.26077">
        <ele>259.102</ele>
        <time>2016-09-06T07:40:13.000Z</time>
      </trkpt>
      <trkpt lat="47.31327" lon="6.26078">
        <ele>259.309</ele>
        <time>2016-09-06T07:40:14.000Z</time>
      </trkpt>
      <trkpt lat="47.31328" lon="6.26078">
        <ele>259.481</ele>
        <time>2016-09-06T07:40:15.000Z</time>
      </trkpt>
      <trkpt lat="47.31329" lon="6.26079">
        <ele>259.297</ele>
        <time>2016-09-06T07:40:16.000Z</time>
      </trkpt>
      <trkpt lat="47.31331" lon="6.26081">
        <ele>259.26</ele>
        <time>2016-09-06T07:40:17.000Z</time>
      </trkpt>
      <trkpt lat="47.31333" lon="6.26082">
        <ele>259.458</ele>
        <time>2016-09-06T07:40:18.000Z</time>
      </trkpt>
      <trkpt lat="47.31336" lon="6.26082">
        <ele>259.28</ele>
        <time>2016-09-06T07:40:19.000Z</time>
      </trkpt>
      <trkpt lat="47.31338" lon="6.26083">
        <ele>258.98</ele>
        <time>2016-09-06T07:40:20.000Z</time>
      </trkpt>
      <trkpt lat="47.31339" lon="6.26084">
        <ele>258.892</ele>
        <time>2016-09-06T07:40:21.000Z</time>
      </trkpt>
      <trkpt lat="47.31341" lon="6.26085">
        <ele>258.64</ele>
        <time>2016-09-06T07:40:22.000Z</time>
      </trkpt>
      <trkpt lat="47.31342" lon="6.26085">
        <ele>258.383</ele>
        <time>2016-09-06T07:40:23.000Z</time>
      </trkpt>
      <trkpt lat="47.31343" lon="6.26084">
        <ele>258.437</ele>
        <time>2016-09-06T07:40:24.000Z</time>
      </trkpt>
      <trkpt lat="47.31343" lon="6.26081">
        <ele>257.97</ele>
        <time>2016-09-06T07:40:25.000Z</time>
      </trkpt>
      <trkpt lat="47.31342" lon="6.26079">
        <ele>257.996</ele>
        <time>2016-09-06T07:40:26.000Z</time>
      </trkpt>
      <trkpt lat="47.3134" lon="6.26078">
        <ele>258.294</ele>
        <time>2016-09-06T07:40:27.000Z</time>
      </trkpt>
      <trkpt lat="47.31338" lon="6.26078">
        <ele>258.556</ele>
        <time>2016-09-06T07:40:28.000Z</time>
      </trkpt>
      <trkpt lat="47.31336" lon="6.26078">
        <ele>258.964</ele>
        <time>2016-09-06T07:40:29.000Z</time>
      </trkpt>
      <trkpt lat="47.31333" lon="6.26079">
        <ele>258.878</ele>
        <time>2016-09-06T07:40:30.000Z</time>
      </trkpt>
      <trkpt lat="47.3133" lon="6.26078">
        <ele>258.526</ele>
        <time>2016-09-06T07:40:31.000Z</time>
      </trkpt>
      <trkpt lat="47.31327" lon="6.26078">
        <ele>258.446</ele>
        <time>2016-09-06T07:40:32.000Z</time>
      </trkpt>
      <trkpt lat="47.31324" lon="6.26077">
        <ele>258.834</ele>
        <time>2016-09-06T07:40:33.000Z</time>
      </trkpt>
      <trkpt lat="47.31321" lon="6.26075">
        <ele>258.949</ele>
        <time>2016-09-06T07:40:34.000Z</time>
      </trkpt>
      <trkpt lat="47.31318" lon="6.26073">
        <ele>258.859</ele>
        <time>2016-09-06T07:40:35.000Z</time>
      </trkpt>
      <trkpt lat="47.31316" lon="6.26072">
        <ele>259.108</ele>
        <time>2016-09-06T07:40:36.000Z</time>
      </trkpt>
      <trkpt lat="47.31315" lon="6.26071">
        <ele>259.068</ele>
        <time>2016-09-06T07:40:37.000Z</time>
      </trkpt>
      <trkpt lat="47.31314" lon="6.26071">
        <ele>258.656</ele>
        <time>2016-09-06T07:40:38.000Z</time>
      </trkpt>
      <trkpt lat="47.31314" lon="6.26071">
        <ele>258.699</ele>
        <time>2016-09-06T07:40:39.000Z</time>
      </trkpt>
      <trkpt lat="47.31314" lon="6.26071">
        <ele>258.878</ele>
        <time>2016-09-06T07:40:40.000Z</time>
      </trkpt>
      <trkpt lat="47.31314" lon="6.26071">
        <ele>258.71</ele>
        <time>2016-09-06T07:40:41.000Z</time>
      </trkpt>
      <trkpt lat="47.31314" lon="6.26071">
        <ele>258.88</ele>
        <time>2016-09-06T07:40:42.000Z</time>
      </trkpt>
      <trkpt lat="47.31314" lon="6.26071">
        <ele>258.837</ele>
        <time>2016-09-06T07:40:43.000Z</time>
      </trkpt>
      <trkpt lat="47.31314" lon="6.26071">
        <ele>258.776</ele>
        <time>2016-09-06T07:40:44.000Z</time>
      </trkpt>
      <trkpt lat="47.31314" lon="6.26071">
        <ele>258.579</ele>
        <time>2016-09-06T07:40:45.000Z</time>
      </trkpt>
      <trkpt lat="47.31314" lon="6.26071">
        <ele>258.607</ele>
        <time>2016-09-06T07:40:46.000Z</time>
      </trkpt>
      <trkpt lat="47.31314" lon="6.26071">
        <ele>258.294</ele>
        <time>2016-09-06T07:40:47.000Z</time>
      </trkpt>
      <trkpt lat="47.31314" lon="6.26071">
        <ele>257.956</ele>
        <time>2016-09-06T07:40:48.000Z</time>
      </trkpt>
      <trkpt lat="47.31314" lon="6.26071">
        <ele>257.894</ele>
        <time>2016-09-06T07:40:49.000Z</time>
      </trkpt>
      <trkpt lat="47.31312" lon="6.26068">
        <ele>257.758</ele>
        <time>2016-09-06T07:40:50.000Z</time>
      </trkpt>
      <trkpt lat="47.31312" lon="6.26068">
        <ele>257.812</ele>
        <time>2016-09-06T07:40:51.000Z</time>
      </trkpt>
      <trkpt lat="47.31312" lon="6.26068">
        <ele>257.674</ele>
        <time>2016-09-06T07:40:52.000Z</time>
      </trkpt>
      <trkpt lat="47.31312" lon="6.26068">
        <ele>257.72</ele>
        <time>2016-09-06T07:40:53.000Z</time>
      </trkpt>
      <trkpt lat="47.31312" lon="6.26068">
        <ele>257.739</ele>
        <time>2016-09-06T07:40:54.000Z</time>
      </trkpt>
      <trkpt lat="47.31312" lon="6.26068">
        <ele>257.747</ele>
        <time>2016-09-06T07:40:55.000Z</time>
      </trkpt>
      <trkpt lat="47.31312" lon="6.26068">
        <ele>257.674</ele>
        <time>2016-09-06T07:40:56.000Z</time>
      </trkpt>
      <trkpt lat="47.31309" lon="6.2607">
        <ele>257.732</ele>
        <time>2016-09-06T07:40:57.000Z</time>
      </trkpt>
      <trkpt lat="47.31309" lon="6.2607">
        <ele>257.614</ele>
        <time>2016-09-06T07:40:58.000Z</time>
      </trkpt>
      <trkpt lat="47.31308" lon="6.26071">
        <ele>257.601</ele>
        <time>2016-09-06T07:40:59.000Z</time>
      </trkpt>
      <trkpt lat="47.31308" lon="6.26071">
        <ele>257.583</ele>
        <time>2016-09-06T07:41:00.000Z</time>
      </trkpt>
      <trkpt lat="47.31308" lon="6.26073">
        <ele>257.625</ele>
        <time>2016-09-06T07:41:01.000Z</time>
      </trkpt>
      <trkpt lat="47.31308" lon="6.26073">
        <ele>257.747</ele>
        <time>2016-09-06T07:41:02.000Z</time>
      </trkpt>
      <trkpt lat="47.31308" lon="6.26075">
        <ele>257.62</ele>
        <time>2016-09-06T07:41:03.000Z</time>
      </trkpt>
      <trkpt lat="47.31308" lon="6.26075">
        <ele>257.367</ele>
        <time>2016-09-06T07:41:04.000Z</time>
      </trkpt>
      <trkpt lat="47.31308" lon="6.26075">
        <ele>257.395</ele>
        <time>2016-09-06T07:41:05.000Z</time>
      </trkpt>
      <trkpt lat="47.31308" lon="6.26075">
        <ele>257.405</ele>
        <time>2016-09-06T07:41:06.000Z</time>
      </trkpt>
      <trkpt lat="47.31308" lon="6.26075">
        <ele>257.509</ele>
        <time>2016-09-06T07:41:07.000Z</time>
      </trkpt>
      <trkpt lat="47.31308" lon="6.26075">
        <ele>257.571</ele>
        <time>2016-09-06T07:41:08.000Z</time>
      </trkpt>
      <trkpt lat="47.31308" lon="6.26075">
        <ele>257.771</ele>
        <time>2016-09-06T07:41:09.000Z</time>
      </trkpt>
      <trkpt lat="47.31308" lon="6.26075">
        <ele>257.375</ele>
        <time>2016-09-06T07:41:10.000Z</time>
      </trkpt>
      <trkpt lat="47.31308" lon="6.26075">
        <ele>257.532</ele>
        <time>2016-09-06T07:41:11.000Z</time>
      </trkpt>
      <trkpt lat="47.31308" lon="6.26075">
        <ele>257.467</ele>
        <time>2016-09-06T07:41:12.000Z</time>
      </trkpt>
      <trkpt lat="47.31307" lon="6.26075">
        <ele>257.603</ele>
        <time>2016-09-06T07:41:13.000Z</time>
      </trkpt>
      <trkpt lat="47.31306" lon="6.26075">
        <ele>257.022</ele>
        <time>2016-09-06T07:41:14.000Z</time>
      </trkpt>
      <trkpt lat="47.31306" lon="6.26076">
        <ele>257.137</ele>
        <time>2016-09-06T07:41:15.000Z</time>
      </trkpt>
      <trkpt lat="47.31306" lon="6.26076">
        <ele>257.188</ele>
        <time>2016-09-06T07:41:16.000Z</time>
      </trkpt>
      <trkpt lat="47.31304" lon="6.26075">
        <ele>257.157</ele>
        <time>2016-09-06T07:41:17.000Z</time>
      </trkpt>
      <trkpt lat="47.31303" lon="6.26074">
        <ele>257.32</ele>
        <time>2016-09-06T07:41:18.000Z</time>
      </trkpt>
      <trkpt lat="47.31301" lon="6.26073">
        <ele>257.449</ele>
        <time>2016-09-06T07:41:19.000Z</time>
      </trkpt>
      <trkpt lat="47.313" lon="6.26071">
        <ele>257.509</ele>
        <time>2016-09-06T07:41:20.000Z</time>
      </trkpt>
      <trkpt lat="47.31298" lon="6.2607">
        <ele>257.543</ele>
        <time>2016-09-06T07:41:21.000Z</time>
      </trkpt>
      <trkpt lat="47.31296" lon="6.26068">
        <ele>257.329</ele>
        <time>2016-09-06T07:41:22.000Z</time>
      </trkpt>
      <trkpt lat="47.31294" lon="6.26066">
        <ele>257.405</ele>
        <time>2016-09-06T07:41:23.000Z</time>
      </trkpt>
      <trkpt lat="47.31292" lon="6.26065">
        <ele>257.355</ele>
        <time>2016-09-06T07:41:24.000Z</time>
      </trkpt>
      <trkpt lat="47.31289" lon="6.26063">
        <ele>257.125</ele>
        <time>2016-09-06T07:41:25.000Z</time>
      </trkpt>
      <trkpt lat="47.31286" lon="6.26061">
        <ele>256.748</ele>
        <time>2016-09-06T07:41:26.000Z</time>
      </trkpt>
      <trkpt lat="47.31283" lon="6.26058">
        <ele>256.664</ele>
        <time>2016-09-06T07:41:27.000Z</time>
      </trkpt>
      <trkpt lat="47.3128" lon="6.26055">
        <ele>256.526</ele>
        <time>2016-09-06T07:41:28.000Z</time>
      </trkpt>
      <trkpt lat="47.31277" lon="6.26051">
        <ele>255.428</ele>
        <time>2016-09-06T07:41:29.000Z</time>
      </trkpt>
      <trkpt lat="47.31274" lon="6.26048">
        <ele>255.762</ele>
        <time>2016-09-06T07:41:30.000Z</time>
      </trkpt>
      <trkpt lat="47.31271" lon="6.26045">
        <ele>255.866</ele>
        <time>2016-09-06T07:41:31.000Z</time>
      </trkpt>
      <trkpt lat="47.31269" lon="6.26042">
        <ele>255.297</ele>
        <time>2016-09-06T07:41:32.000Z</time>
      </trkpt>
      <trkpt lat="47.31266" lon="6.2604">
        <ele>255.11</ele>
        <time>2016-09-06T07:41:33.000Z</time>
      </trkpt>
      <trkpt lat="47.31263" lon="6.26038">
        <ele>254.842</ele>
        <time>2016-09-06T07:41:34.000Z</time>
      </trkpt>
      <trkpt lat="47.31259" lon="6.26036">
        <ele>254.565</ele>
        <time>2016-09-06T07:41:35.000Z</time>
      </trkpt>
      <trkpt lat="47.31256" lon="6.26035">
        <ele>254.564</ele>
        <time>2016-09-06T07:41:36.000Z</time>
      </trkpt>
      <trkpt lat="47.31253" lon="6.26034">
        <ele>254.997</ele>
        <time>2016-09-06T07:41:37.000Z</time>
      </trkpt>
      <trkpt lat="47.31249" lon="6.26032">
        <ele>255.136</ele>
        <time>2016-09-06T07:41:38.000Z</time>
      </trkpt>
      <trkpt lat="47.31245" lon="6.26031">
        <ele>254.711</ele>
        <time>2016-09-06T07:41:39.000Z</time>
      </trkpt>
      <trkpt lat="47.31241" lon="6.26031">
        <ele>254.549</ele>
        <time>2016-09-06T07:41:40.000Z</time>
      </trkpt>
      <trkpt lat="47.31238" lon="6.2603">
        <ele>254.72</ele>
        <time>2016-09-06T07:41:41.000Z</time>
      </trkpt>
      <trkpt lat="47.31234" lon="6.26028">
        <ele>254.197</ele>
        <time>2016-09-06T07:41:42.000Z</time>
      </trkpt>
      <trkpt lat="47.31231" lon="6.26027">
        <ele>254.532</ele>
        <time>2016-09-06T07:41:43.000Z</time>
      </trkpt>
      <trkpt lat="47.31228" lon="6.26024">
        <ele>255.516</ele>
        <time>2016-09-06T07:41:44.000Z</time>
      </trkpt>
      <trkpt lat="47.31225" lon="6.26022">
        <ele>256.053</ele>
        <time>2016-09-06T07:41:45.000Z</time>
      </trkpt>
      <trkpt lat="47.31222" lon="6.26019">
        <ele>256.084</ele>
        <time>2016-09-06T07:41:46.000Z</time>
      </trkpt>
      <trkpt lat="47.3122" lon="6.26016">
        <ele>256.379</ele>
        <time>2016-09-06T07:41:47.000Z</time>
      </trkpt>
      <trkpt lat="47.31217" lon="6.26014">
        <ele>256.496</ele>
        <time>2016-09-06T07:41:48.000Z</time>
      </trkpt>
      <trkpt lat="47.31214" lon="6.26011">
        <ele>256.636</ele>
        <time>2016-09-06T07:41:49.000Z</time>
      </trkpt>
      <trkpt lat="47.31211" lon="6.26008">
        <ele>256.742</ele>
        <time>2016-09-06T07:41:50.000Z</time>
      </trkpt>
      <trkpt lat="47.31208" lon="6.26006">
        <ele>256.79</ele>
        <time>2016-09-06T07:41:51.000Z</time>
      </trkpt>
      <trkpt lat="47.31205" lon="6.26003">
        <ele>256.776</ele>
        <time>2016-09-06T07:41:52.000Z</time>
      </trkpt>
      <trkpt lat="47.31202" lon="6.26">
        <ele>256.543</ele>
        <time>2016-09-06T07:41:53.000Z</time>
      </trkpt>
      <trkpt lat="47.31198" lon="6.25997">
        <ele>256.531</ele>
        <time>2016-09-06T07:41:54.000Z</time>
      </trkpt>
      <trkpt lat="47.31195" lon="6.25995">
        <ele>256.362</ele>
        <time>2016-09-06T07:41:55.000Z</time>
      </trkpt>
      <trkpt lat="47.31192" lon="6.25993">
        <ele>256.552</ele>
        <time>2016-09-06T07:41:56.000Z</time>
      </trkpt>
      <trkpt lat="47.31188" lon="6.25991">
        <ele>256.639</ele>
        <time>2016-09-06T07:41:57.000Z</time>
      </trkpt>
      <trkpt lat="47.31185" lon="6.25989">
        <ele>256.531</ele>
        <time>2016-09-06T07:41:58.000Z</time>
      </trkpt>
      <trkpt lat="47.31181" lon="6.25986">
        <ele>256.533</ele>
        <time>2016-09-06T07:41:59.000Z</time>
      </trkpt>
      <trkpt lat="47.31178" lon="6.25983">
        <ele>256.661</ele>
        <time>2016-09-06T07:42:00.000Z</time>
      </trkpt>
      <trkpt lat="47.31175" lon="6.25979">
        <ele>256.535</ele>
        <time>2016-09-06T07:42:01.000Z</time>
      </trkpt>
      <trkpt lat="47.31173" lon="6.25975">
        <ele>256.688</ele>
        <time>2016-09-06T07:42:02.000Z</time>
      </trkpt>
      <trkpt lat="47.31171" lon="6.25971">
        <ele>256.647</ele>
        <time>2016-09-06T07:42:03.000Z</time>
      </trkpt>
      <trkpt lat="47.31168" lon="6.25967">
        <ele>256.571</ele>
        <time>2016-09-06T07:42:04.000Z</time>
      </trkpt>
      <trkpt lat="47.31166" lon="6.25964">
        <ele>256.532</ele>
        <time>2016-09-06T07:42:05.000Z</time>
      </trkpt>
      <trkpt lat="47.31163" lon="6.2596">
        <ele>256.577</ele>
        <time>2016-09-06T07:42:06.000Z</time>
      </trkpt>
      <trkpt lat="47.31161" lon="6.25957">
        <ele>256.732</ele>
        <time>2016-09-06T07:42:07.000Z</time>
      </trkpt>
      <trkpt lat="47.3116" lon="6.25953">
        <ele>256.737</ele>
        <time>2016-09-06T07:42:08.000Z</time>
      </trkpt>
      <trkpt lat="47.31158" lon="6.25949">
        <ele>256.622</ele>
        <time>2016-09-06T07:42:09.000Z</time>
      </trkpt>
      <trkpt lat="47.31157" lon="6.25946">
        <ele>256.627</ele>
        <time>2016-09-06T07:42:10.000Z</time>
      </trkpt>
      <trkpt lat="47.31155" lon="6.25942">
        <ele>256.991</ele>
        <time>2016-09-06T07:42:11.000Z</time>
      </trkpt>
      <trkpt lat="47.31153" lon="6.25939">
        <ele>257.085</ele>
        <time>2016-09-06T07:42:12.000Z</time>
      </trkpt>
      <trkpt lat="47.31152" lon="6.25935">
        <ele>257.16</ele>
        <time>2016-09-06T07:42:13.000Z</time>
      </trkpt>
      <trkpt lat="47.3115" lon="6.25931">
        <ele>257.382</ele>
        <time>2016-09-06T07:42:14.000Z</time>
      </trkpt>
      <trkpt lat="47.31148" lon="6.25927">
        <ele>257.323</ele>
        <time>2016-09-06T07:42:15.000Z</time>
      </trkpt>
      <trkpt lat="47.31146" lon="6.25923">
        <ele>257.067</ele>
        <time>2016-09-06T07:42:16.000Z</time>
      </trkpt>
      <trkpt lat="47.31144" lon="6.25919">
        <ele>257.183</ele>
        <time>2016-09-06T07:42:17.000Z</time>
      </trkpt>
      <trkpt lat="47.31141" lon="6.25913">
        <ele>258.891</ele>
        <time>2016-09-06T07:42:18.000Z</time>
      </trkpt>
      <trkpt lat="47.31138" lon="6.25908">
        <ele>258.839</ele>
        <time>2016-09-06T07:42:19.000Z</time>
      </trkpt>
      <trkpt lat="47.31136" lon="6.25903">
        <ele>259.428</ele>
        <time>2016-09-06T07:42:20.000Z</time>
      </trkpt>
      <trkpt lat="47.31133" lon="6.25899">
        <ele>258.957</ele>
        <time>2016-09-06T07:42:21.000Z</time>
      </trkpt>
      <trkpt lat="47.31131" lon="6.25894">
        <ele>258.952</ele>
        <time>2016-09-06T07:42:22.000Z</time>
      </trkpt>
      <trkpt lat="47.31129" lon="6.2589">
        <ele>258.457</ele>
        <time>2016-09-06T07:42:23.000Z</time>
      </trkpt>
      <trkpt lat="47.31127" lon="6.25886">
        <ele>258.432</ele>
        <time>2016-09-06T07:42:24.000Z</time>
      </trkpt>
      <trkpt lat="47.31126" lon="6.25882">
        <ele>258.74</ele>
        <time>2016-09-06T07:42:25.000Z</time>
      </trkpt>
      <trkpt lat="47.31124" lon="6.25877">
        <ele>258.707</ele>
        <time>2016-09-06T07:42:26.000Z</time>
      </trkpt>
      <trkpt lat="47.31122" lon="6.25873">
        <ele>258.472</ele>
        <time>2016-09-06T07:42:27.000Z</time>
      </trkpt>
      <trkpt lat="47.31119" lon="6.25868">
        <ele>258.43</ele>
        <time>2016-09-06T07:42:28.000Z</time>
      </trkpt>
      <trkpt lat="47.31117" lon="6.25864">
        <ele>258.158</ele>
        <time>2016-09-06T07:42:29.000Z</time>
      </trkpt>
      <trkpt lat="47.31115" lon="6.25859">
        <ele>258.089</ele>
        <time>2016-09-06T07:42:30.000Z</time>
      </trkpt>
      <trkpt lat="47.31112" lon="6.25855">
        <ele>258.054</ele>
        <time>2016-09-06T07:42:31.000Z</time>
      </trkpt>
      <trkpt lat="47.31109" lon="6.2585">
        <ele>258.141</ele>
        <time>2016-09-06T07:42:32.000Z</time>
      </trkpt>
      <trkpt lat="47.31107" lon="6.25846">
        <ele>258.243</ele>
        <time>2016-09-06T07:42:33.000Z</time>
      </trkpt>
      <trkpt lat="47.31104" lon="6.25842">
        <ele>258.336</ele>
        <time>2016-09-06T07:42:34.000Z</time>
      </trkpt>
      <trkpt lat="47.31102" lon="6.25838">
        <ele>258.402</ele>
        <time>2016-09-06T07:42:35.000Z</time>
      </trkpt>
      <trkpt lat="47.31099" lon="6.25834">
        <ele>258.36</ele>
        <time>2016-09-06T07:42:36.000Z</time>
      </trkpt>
      <trkpt lat="47.31096" lon="6.2583">
        <ele>258.376</ele>
        <time>2016-09-06T07:42:37.000Z</time>
      </trkpt>
      <trkpt lat="47.31093" lon="6.25826">
        <ele>258.411</ele>
        <time>2016-09-06T07:42:38.000Z</time>
      </trkpt>
      <trkpt lat="47.3109" lon="6.25822">
        <ele>258.431</ele>
        <time>2016-09-06T07:42:39.000Z</time>
      </trkpt>
      <trkpt lat="47.31088" lon="6.25819">
        <ele>258.457</ele>
        <time>2016-09-06T07:42:40.000Z</time>
      </trkpt>
      <trkpt lat="47.31085" lon="6.25815">
        <ele>258.439</ele>
        <time>2016-09-06T07:42:41.000Z</time>
      </trkpt>
      <trkpt lat="47.31082" lon="6.25812">
        <ele>258.61</ele>
        <time>2016-09-06T07:42:42.000Z</time>
      </trkpt>
      <trkpt lat="47.3108" lon="6.25808">
        <ele>258.663</ele>
        <time>2016-09-06T07:42:43.000Z</time>
      </trkpt>
      <trkpt lat="47.31077" lon="6.25804">
        <ele>258.64</ele>
        <time>2016-09-06T07:42:44.000Z</time>
      </trkpt>
      <trkpt lat="47.31075" lon="6.258">
        <ele>258.662</ele>
        <time>2016-09-06T07:42:45.000Z</time>
      </trkpt>
      <trkpt lat="47.31072" lon="6.25796">
        <ele>258.61</ele>
        <time>2016-09-06T07:42:46.000Z</time>
      </trkpt>
      <trkpt lat="47.3107" lon="6.25791">
        <ele>258.409</ele>
        <time>2016-09-06T07:42:47.000Z</time>
      </trkpt>
      <trkpt lat="47.31067" lon="6.25787">
        <ele>258.248</ele>
        <time>2016-09-06T07:42:48.000Z</time>
      </trkpt>
      <trkpt lat="47.31064" lon="6.25782">
        <ele>258.086</ele>
        <time>2016-09-06T07:42:49.000Z</time>
      </trkpt>
      <trkpt lat="47.31061" lon="6.25777">
        <ele>258.03</ele>
        <time>2016-09-06T07:42:50.000Z</time>
      </trkpt>
      <trkpt lat="47.31058" lon="6.25772">
        <ele>258.001</ele>
        <time>2016-09-06T07:42:51.000Z</time>
      </trkpt>
      <trkpt lat="47.31055" lon="6.25767">
        <ele>258.122</ele>
        <time>2016-09-06T07:42:52.000Z</time>
      </trkpt>
      <trkpt lat="47.31052" lon="6.25763">
        <ele>258.317</ele>
        <time>2016-09-06T07:42:53.000Z</time>
      </trkpt>
      <trkpt lat="47.31048" lon="6.25758">
        <ele>258.345</ele>
        <time>2016-09-06T07:42:54.000Z</time>
      </trkpt>
      <trkpt lat="47.31045" lon="6.25753">
        <ele>258.618</ele>
        <time>2016-09-06T07:42:55.000Z</time>
      </trkpt>
      <trkpt lat="47.31039" lon="6.25745">
        <ele>258.463</ele>
        <time>2016-09-06T07:42:56.000Z</time>
      </trkpt>
      <trkpt lat="47.31035" lon="6.25738">
        <ele>258.36</ele>
        <time>2016-09-06T07:42:57.000Z</time>
      </trkpt>
      <trkpt lat="47.31034" lon="6.25733">
        <ele>258.289</ele>
        <time>2016-09-06T07:42:58.000Z</time>
      </trkpt>
      <trkpt lat="47.3103" lon="6.25728">
        <ele>258.204</ele>
        <time>2016-09-06T07:42:59.000Z</time>
      </trkpt>
      <trkpt lat="47.31028" lon="6.2572">
        <ele>258.598</ele>
        <time>2016-09-06T07:43:00.000Z</time>
      </trkpt>
      <trkpt lat="47.31027" lon="6.25714">
        <ele>258.22</ele>
        <time>2016-09-06T07:43:01.000Z</time>
      </trkpt>
      <trkpt lat="47.31025" lon="6.25704">
        <ele>258.306</ele>
        <time>2016-09-06T07:43:02.000Z</time>
      </trkpt>
      <trkpt lat="47.31022" lon="6.25693">
        <ele>258.073</ele>
        <time>2016-09-06T07:43:03.000Z</time>
      </trkpt>
      <trkpt lat="47.31019" lon="6.25681">
        <ele>258.706</ele>
        <time>2016-09-06T07:43:04.000Z</time>
      </trkpt>
      <trkpt lat="47.31019" lon="6.25671">
        <ele>258.969</ele>
        <time>2016-09-06T07:43:05.000Z</time>
      </trkpt>
      <trkpt lat="47.31017" lon="6.25658">
        <ele>259.185</ele>
        <time>2016-09-06T07:43:06.000Z</time>
      </trkpt>
      <trkpt lat="47.31017" lon="6.25649">
        <ele>259.431</ele>
        <time>2016-09-06T07:43:07.000Z</time>
      </trkpt>
      <trkpt lat="47.31015" lon="6.25642">
        <ele>259.507</ele>
        <time>2016-09-06T07:43:08.000Z</time>
      </trkpt>
      <trkpt lat="47.31011" lon="6.25633">
        <ele>259.379</ele>
        <time>2016-09-06T07:43:09.000Z</time>
      </trkpt>
      <trkpt lat="47.31012" lon="6.25625">
        <ele>259.147</ele>
        <time>2016-09-06T07:43:10.000Z</time>
      </trkpt>
      <trkpt lat="47.31012" lon="6.25617">
        <ele>259.153</ele>
        <time>2016-09-06T07:43:11.000Z</time>
      </trkpt>
      <trkpt lat="47.31011" lon="6.25609">
        <ele>259.154</ele>
        <time>2016-09-06T07:43:12.000Z</time>
      </trkpt>
      <trkpt lat="47.31009" lon="6.25601">
        <ele>259.386</ele>
        <time>2016-09-06T07:43:13.000Z</time>
      </trkpt>
      <trkpt lat="47.31008" lon="6.25594">
        <ele>259.227</ele>
        <time>2016-09-06T07:43:14.000Z</time>
      </trkpt>
      <trkpt lat="47.31006" lon="6.25586">
        <ele>259.035</ele>
        <time>2016-09-06T07:43:15.000Z</time>
      </trkpt>
      <trkpt lat="47.31004" lon="6.25579">
        <ele>258.816</ele>
        <time>2016-09-06T07:43:16.000Z</time>
      </trkpt>
      <trkpt lat="47.31002" lon="6.25572">
        <ele>258.888</ele>
        <time>2016-09-06T07:43:17.000Z</time>
      </trkpt>
      <trkpt lat="47.31001" lon="6.25565">
        <ele>258.944</ele>
        <time>2016-09-06T07:43:18.000Z</time>
      </trkpt>
      <trkpt lat="47.31002" lon="6.25559">
        <ele>259.28</ele>
        <time>2016-09-06T07:43:19.000Z</time>
      </trkpt>
      <trkpt lat="47.31" lon="6.25551">
        <ele>259.323</ele>
        <time>2016-09-06T07:43:20.000Z</time>
      </trkpt>
      <trkpt lat="47.30997" lon="6.25545">
        <ele>259.344</ele>
        <time>2016-09-06T07:43:21.000Z</time>
      </trkpt>
      <trkpt lat="47.30995" lon="6.25537">
        <ele>259.142</ele>
        <time>2016-09-06T07:43:22.000Z</time>
      </trkpt>
      <trkpt lat="47.30993" lon="6.25528">
        <ele>259.272</ele>
        <time>2016-09-06T07:43:23.000Z</time>
      </trkpt>
      <trkpt lat="47.30991" lon="6.25522">
        <ele>259.256</ele>
        <time>2016-09-06T07:43:24.000Z</time>
      </trkpt>
      <trkpt lat="47.3099" lon="6.25514">
        <ele>259.358</ele>
        <time>2016-09-06T07:43:25.000Z</time>
      </trkpt>
      <trkpt lat="47.3099" lon="6.25505">
        <ele>259.337</ele>
        <time>2016-09-06T07:43:26.000Z</time>
      </trkpt>
      <trkpt lat="47.3099" lon="6.25496">
        <ele>259.68</ele>
        <time>2016-09-06T07:43:27.000Z</time>
      </trkpt>
      <trkpt lat="47.3099" lon="6.25492">
        <ele>259.797</ele>
        <time>2016-09-06T07:43:28.000Z</time>
      </trkpt>
      <trkpt lat="47.3099" lon="6.25485">
        <ele>259.929</ele>
        <time>2016-09-06T07:43:29.000Z</time>
      </trkpt>
      <trkpt lat="47.30987" lon="6.25479">
        <ele>259.928</ele>
        <time>2016-09-06T07:43:30.000Z</time>
      </trkpt>
      <trkpt lat="47.30983" lon="6.25473">
        <ele>260.054</ele>
        <time>2016-09-06T07:43:31.000Z</time>
      </trkpt>
      <trkpt lat="47.30981" lon="6.25466">
        <ele>259.934</ele>
        <time>2016-09-06T07:43:32.000Z</time>
      </trkpt>
      <trkpt lat="47.30981" lon="6.25459">
        <ele>259.583</ele>
        <time>2016-09-06T07:43:33.000Z</time>
      </trkpt>
      <trkpt lat="47.3098" lon="6.25452">
        <ele>259.46</ele>
        <time>2016-09-06T07:43:34.000Z</time>
      </trkpt>
      <trkpt lat="47.3098" lon="6.25445">
        <ele>259.525</ele>
        <time>2016-09-06T07:43:35.000Z</time>
      </trkpt>
      <trkpt lat="47.3098" lon="6.25438">
        <ele>259.568</ele>
        <time>2016-09-06T07:43:36.000Z</time>
      </trkpt>
      <trkpt lat="47.30978" lon="6.25433">
        <ele>259.785</ele>
        <time>2016-09-06T07:43:37.000Z</time>
      </trkpt>
      <trkpt lat="47.30976" lon="6.25426">
        <ele>259.636</ele>
        <time>2016-09-06T07:43:38.000Z</time>
      </trkpt>
      <trkpt lat="47.30975" lon="6.25417">
        <ele>259.755</ele>
        <time>2016-09-06T07:43:39.000Z</time>
      </trkpt>
      <trkpt lat="47.30974" lon="6.25411">
        <ele>260.391</ele>
        <time>2016-09-06T07:43:40.000Z</time>
      </trkpt>
      <trkpt lat="47.30972" lon="6.25406">
        <ele>260.662</ele>
        <time>2016-09-06T07:43:41.000Z</time>
      </trkpt>
      <trkpt lat="47.30971" lon="6.25399">
        <ele>260.868</ele>
        <time>2016-09-06T07:43:42.000Z</time>
      </trkpt>
      <trkpt lat="47.30971" lon="6.25393">
        <ele>260.573</ele>
        <time>2016-09-06T07:43:43.000Z</time>
      </trkpt>
      <trkpt lat="47.3097" lon="6.25388">
        <ele>260.452</ele>
        <time>2016-09-06T07:43:44.000Z</time>
      </trkpt>
      <trkpt lat="47.3097" lon="6.25382">
        <ele>260.655</ele>
        <time>2016-09-06T07:43:45.000Z</time>
      </trkpt>
      <trkpt lat="47.30969" lon="6.25375">
        <ele>261.307</ele>
        <time>2016-09-06T07:43:46.000Z</time>
      </trkpt>
      <trkpt lat="47.30968" lon="6.25368">
        <ele>261.304</ele>
        <time>2016-09-06T07:43:47.000Z</time>
      </trkpt>
      <trkpt lat="47.30967" lon="6.25361">
        <ele>261.68</ele>
        <time>2016-09-06T07:43:48.000Z</time>
      </trkpt>
      <trkpt lat="47.30965" lon="6.25355">
        <ele>261.953</ele>
        <time>2016-09-06T07:43:49.000Z</time>
      </trkpt>
      <trkpt lat="47.30964" lon="6.25348">
        <ele>261.998</ele>
        <time>2016-09-06T07:43:50.000Z</time>
      </trkpt>
      <trkpt lat="47.30964" lon="6.25342">
        <ele>261.624</ele>
        <time>2016-09-06T07:43:51.000Z</time>
      </trkpt>
      <trkpt lat="47.30964" lon="6.25336">
        <ele>261.494</ele>
        <time>2016-09-06T07:43:52.000Z</time>
      </trkpt>
      <trkpt lat="47.30964" lon="6.25329">
        <ele>261.845</ele>
        <time>2016-09-06T07:43:53.000Z</time>
      </trkpt>
      <trkpt lat="47.30962" lon="6.25322">
        <ele>261.698</ele>
        <time>2016-09-06T07:43:54.000Z</time>
      </trkpt>
      <trkpt lat="47.30961" lon="6.25315">
        <ele>261.719</ele>
        <time>2016-09-06T07:43:55.000Z</time>
      </trkpt>
      <trkpt lat="47.3096" lon="6.25307">
        <ele>262.238</ele>
        <time>2016-09-06T07:43:56.000Z</time>
      </trkpt>
      <trkpt lat="47.30959" lon="6.25299">
        <ele>262.535</ele>
        <time>2016-09-06T07:43:57.000Z</time>
      </trkpt>
      <trkpt lat="47.30959" lon="6.25292">
        <ele>261.683</ele>
        <time>2016-09-06T07:43:58.000Z</time>
      </trkpt>
      <trkpt lat="47.30958" lon="6.25284">
        <ele>261.353</ele>
        <time>2016-09-06T07:43:59.000Z</time>
      </trkpt>
      <trkpt lat="47.30957" lon="6.25275">
        <ele>261.671</ele>
        <time>2016-09-06T07:44:00.000Z</time>
      </trkpt>
      <trkpt lat="47.30955" lon="6.25268">
        <ele>261.507</ele>
        <time>2016-09-06T07:44:01.000Z</time>
      </trkpt>
      <trkpt lat="47.30952" lon="6.2526">
        <ele>260.71</ele>
        <time>2016-09-06T07:44:02.000Z</time>
      </trkpt>
      <trkpt lat="47.30951" lon="6.25253">
        <ele>260.542</ele>
        <time>2016-09-06T07:44:03.000Z</time>
      </trkpt>
      <trkpt lat="47.3095" lon="6.25245">
        <ele>260.708</ele>
        <time>2016-09-06T07:44:04.000Z</time>
      </trkpt>
      <trkpt lat="47.3095" lon="6.25236">
        <ele>260.789</ele>
        <time>2016-09-06T07:44:05.000Z</time>
      </trkpt>
      <trkpt lat="47.3095" lon="6.25228">
        <ele>260.999</ele>
        <time>2016-09-06T07:44:06.000Z</time>
      </trkpt>
      <trkpt lat="47.30949" lon="6.25219">
        <ele>261.14</ele>
        <time>2016-09-06T07:44:07.000Z</time>
      </trkpt>
      <trkpt lat="47.30949" lon="6.25211">
        <ele>261.163</ele>
        <time>2016-09-06T07:44:08.000Z</time>
      </trkpt>
      <trkpt lat="47.30949" lon="6.25203">
        <ele>262.213</ele>
        <time>2016-09-06T07:44:09.000Z</time>
      </trkpt>
      <trkpt lat="47.30949" lon="6.25196">
        <ele>262.139</ele>
        <time>2016-09-06T07:44:10.000Z</time>
      </trkpt>
      <trkpt lat="47.30945" lon="6.2519">
        <ele>262.225</ele>
        <time>2016-09-06T07:44:11.000Z</time>
      </trkpt>
      <trkpt lat="47.30943" lon="6.25183">
        <ele>261.21</ele>
        <time>2016-09-06T07:44:12.000Z</time>
      </trkpt>
      <trkpt lat="47.30942" lon="6.25177">
        <ele>261.362</ele>
        <time>2016-09-06T07:44:13.000Z</time>
      </trkpt>
      <trkpt lat="47.30939" lon="6.25169">
        <ele>261.246</ele>
        <time>2016-09-06T07:44:14.000Z</time>
      </trkpt>
      <trkpt lat="47.30938" lon="6.25161">
        <ele>261.252</ele>
        <time>2016-09-06T07:44:15.000Z</time>
      </trkpt>
      <trkpt lat="47.30933" lon="6.25155">
        <ele>261.313</ele>
        <time>2016-09-06T07:44:16.000Z</time>
      </trkpt>
      <trkpt lat="47.30932" lon="6.25146">
        <ele>261.089</ele>
        <time>2016-09-06T07:44:17.000Z</time>
      </trkpt>
      <trkpt lat="47.30931" lon="6.25141">
        <ele>261.241</ele>
        <time>2016-09-06T07:44:18.000Z</time>
      </trkpt>
      <trkpt lat="47.3093" lon="6.25134">
        <ele>261.314</ele>
        <time>2016-09-06T07:44:19.000Z</time>
      </trkpt>
      <trkpt lat="47.3093" lon="6.25128">
        <ele>261.248</ele>
        <time>2016-09-06T07:44:20.000Z</time>
      </trkpt>
      <trkpt lat="47.30929" lon="6.25121">
        <ele>261.288</ele>
        <time>2016-09-06T07:44:21.000Z</time>
      </trkpt>
      <trkpt lat="47.30926" lon="6.25116">
        <ele>261.686</ele>
        <time>2016-09-06T07:44:22.000Z</time>
      </trkpt>
      <trkpt lat="47.30923" lon="6.25112">
        <ele>262.359</ele>
        <time>2016-09-06T07:44:23.000Z</time>
      </trkpt>
      <trkpt lat="47.30921" lon="6.25105">
        <ele>262.117</ele>
        <time>2016-09-06T07:44:24.000Z</time>
      </trkpt>
      <trkpt lat="47.30921" lon="6.25099">
        <ele>262.72</ele>
        <time>2016-09-06T07:44:25.000Z</time>
      </trkpt>
      <trkpt lat="47.30921" lon="6.25091">
        <ele>262.162</ele>
        <time>2016-09-06T07:44:26.000Z</time>
      </trkpt>
      <trkpt lat="47.3092" lon="6.25081">
        <ele>261.237</ele>
        <time>2016-09-06T07:44:27.000Z</time>
      </trkpt>
      <trkpt lat="47.30918" lon="6.25074">
        <ele>261.372</ele>
        <time>2016-09-06T07:44:28.000Z</time>
      </trkpt>
      <trkpt lat="47.30919" lon="6.25068">
        <ele>261.101</ele>
        <time>2016-09-06T07:44:29.000Z</time>
      </trkpt>
      <trkpt lat="47.30918" lon="6.25061">
        <ele>261.025</ele>
        <time>2016-09-06T07:44:30.000Z</time>
      </trkpt>
      <trkpt lat="47.30917" lon="6.25053">
        <ele>261.542</ele>
        <time>2016-09-06T07:44:31.000Z</time>
      </trkpt>
      <trkpt lat="47.30916" lon="6.25045">
        <ele>259.948</ele>
        <time>2016-09-06T07:44:32.000Z</time>
      </trkpt>
      <trkpt lat="47.30917" lon="6.25038">
        <ele>259.567</ele>
        <time>2016-09-06T07:44:33.000Z</time>
      </trkpt>
      <trkpt lat="47.30916" lon="6.25031">
        <ele>259.507</ele>
        <time>2016-09-06T07:44:34.000Z</time>
      </trkpt>
      <trkpt lat="47.30915" lon="6.25023">
        <ele>259.507</ele>
        <time>2016-09-06T07:44:35.000Z</time>
      </trkpt>
      <trkpt lat="47.30913" lon="6.25019">
        <ele>259.729</ele>
        <time>2016-09-06T07:44:36.000Z</time>
      </trkpt>
      <trkpt lat="47.30912" lon="6.25012">
        <ele>259.481</ele>
        <time>2016-09-06T07:44:37.000Z</time>
      </trkpt>
      <trkpt lat="47.30911" lon="6.25005">
        <ele>259.577</ele>
        <time>2016-09-06T07:44:38.000Z</time>
      </trkpt>
      <trkpt lat="47.3091" lon="6.24998">
        <ele>259.586</ele>
        <time>2016-09-06T07:44:39.000Z</time>
      </trkpt>
      <trkpt lat="47.3091" lon="6.24989">
        <ele>260.031</ele>
        <time>2016-09-06T07:44:40.000Z</time>
      </trkpt>
      <trkpt lat="47.3091" lon="6.2498">
        <ele>259.744</ele>
        <time>2016-09-06T07:44:41.000Z</time>
      </trkpt>
      <trkpt lat="47.30909" lon="6.24974">
        <ele>259.682</ele>
        <time>2016-09-06T07:44:42.000Z</time>
      </trkpt>
      <trkpt lat="47.30908" lon="6.24966">
        <ele>259.278</ele>
        <time>2016-09-06T07:44:43.000Z</time>
      </trkpt>
      <trkpt lat="47.30908" lon="6.24959">
        <ele>259.18</ele>
        <time>2016-09-06T07:44:44.000Z</time>
      </trkpt>
      <trkpt lat="47.30909" lon="6.24954">
        <ele>258.581</ele>
        <time>2016-09-06T07:44:45.000Z</time>
      </trkpt>
      <trkpt lat="47.30906" lon="6.24946">
        <ele>258.477</ele>
        <time>2016-09-06T07:44:46.000Z</time>
      </trkpt>
      <trkpt lat="47.30905" lon="6.24939">
        <ele>258.391</ele>
        <time>2016-09-06T07:44:47.000Z</time>
      </trkpt>
      <trkpt lat="47.30904" lon="6.24932">
        <ele>258.557</ele>
        <time>2016-09-06T07:44:48.000Z</time>
      </trkpt>
      <trkpt lat="47.30904" lon="6.24923">
        <ele>258.93</ele>
        <time>2016-09-06T07:44:49.000Z</time>
      </trkpt>
      <trkpt lat="47.30903" lon="6.24915">
        <ele>259.121</ele>
        <time>2016-09-06T07:44:50.000Z</time>
      </trkpt>
      <trkpt lat="47.30902" lon="6.24907">
        <ele>259.209</ele>
        <time>2016-09-06T07:44:51.000Z</time>
      </trkpt>
      <trkpt lat="47.30902" lon="6.249">
        <ele>259.242</ele>
        <time>2016-09-06T07:44:52.000Z</time>
      </trkpt>
      <trkpt lat="47.30905" lon="6.24893">
        <ele>259.591</ele>
        <time>2016-09-06T07:44:53.000Z</time>
      </trkpt>
      <trkpt lat="47.30904" lon="6.24887">
        <ele>259.856</ele>
        <time>2016-09-06T07:44:54.000Z</time>
      </trkpt>
      <trkpt lat="47.30903" lon="6.24879">
        <ele>259.897</ele>
        <time>2016-09-06T07:44:55.000Z</time>
      </trkpt>
      <trkpt lat="47.30902" lon="6.24873">
        <ele>259.777</ele>
        <time>2016-09-06T07:44:56.000Z</time>
      </trkpt>
      <trkpt lat="47.309" lon="6.24865">
        <ele>259.371</ele>
        <time>2016-09-06T07:44:57.000Z</time>
      </trkpt>
      <trkpt lat="47.30898" lon="6.24857">
        <ele>259.083</ele>
        <time>2016-09-06T07:44:58.000Z</time>
      </trkpt>
      <trkpt lat="47.30897" lon="6.24851">
        <ele>258.684</ele>
        <time>2016-09-06T07:44:59.000Z</time>
      </trkpt>
      <trkpt lat="47.30896" lon="6.24843">
        <ele>258.461</ele>
        <time>2016-09-06T07:45:00.000Z</time>
      </trkpt>
      <trkpt lat="47.30894" lon="6.24836">
        <ele>258.249</ele>
        <time>2016-09-06T07:45:01.000Z</time>
      </trkpt>
      <trkpt lat="47.30892" lon="6.24829">
        <ele>257.735</ele>
        <time>2016-09-06T07:45:02.000Z</time>
      </trkpt>
      <trkpt lat="47.30891" lon="6.24822">
        <ele>257.352</ele>
        <time>2016-09-06T07:45:03.000Z</time>
      </trkpt>
      <trkpt lat="47.3089" lon="6.24815">
        <ele>257.284</ele>
        <time>2016-09-06T07:45:04.000Z</time>
      </trkpt>
      <trkpt lat="47.30889" lon="6.24807">
        <ele>256.778</ele>
        <time>2016-09-06T07:45:05.000Z</time>
      </trkpt>
      <trkpt lat="47.30886" lon="6.24799">
        <ele>256.804</ele>
        <time>2016-09-06T07:45:06.000Z</time>
      </trkpt>
      <trkpt lat="47.30884" lon="6.2479">
        <ele>256.875</ele>
        <time>2016-09-06T07:45:07.000Z</time>
      </trkpt>
      <trkpt lat="47.30884" lon="6.24781">
        <ele>257.027</ele>
        <time>2016-09-06T07:45:08.000Z</time>
      </trkpt>
      <trkpt lat="47.30884" lon="6.24774">
        <ele>257.305</ele>
        <time>2016-09-06T07:45:09.000Z</time>
      </trkpt>
      <trkpt lat="47.30883" lon="6.24765">
        <ele>257.271</ele>
        <time>2016-09-06T07:45:10.000Z</time>
      </trkpt>
      <trkpt lat="47.3088" lon="6.24756">
        <ele>257.113</ele>
        <time>2016-09-06T07:45:11.000Z</time>
      </trkpt>
      <trkpt lat="47.30879" lon="6.24749">
        <ele>257.173</ele>
        <time>2016-09-06T07:45:12.000Z</time>
      </trkpt>
      <trkpt lat="47.30879" lon="6.24743">
        <ele>256.932</ele>
        <time>2016-09-06T07:45:13.000Z</time>
      </trkpt>
      <trkpt lat="47.30879" lon="6.24738">
        <ele>257.33</ele>
        <time>2016-09-06T07:45:14.000Z</time>
      </trkpt>
      <trkpt lat="47.30879" lon="6.24729">
        <ele>257.588</ele>
        <time>2016-09-06T07:45:15.000Z</time>
      </trkpt>
      <trkpt lat="47.30879" lon="6.24721">
        <ele>257.767</ele>
        <time>2016-09-06T07:45:16.000Z</time>
      </trkpt>
      <trkpt lat="47.30878" lon="6.24715">
        <ele>258.189</ele>
        <time>2016-09-06T07:45:17.000Z</time>
      </trkpt>
      <trkpt lat="47.30877" lon="6.24707">
        <ele>257.99</ele>
        <time>2016-09-06T07:45:18.000Z</time>
      </trkpt>
      <trkpt lat="47.30877" lon="6.24698">
        <ele>257.468</ele>
        <time>2016-09-06T07:45:19.000Z</time>
      </trkpt>
      <trkpt lat="47.30875" lon="6.24692">
        <ele>256.129</ele>
        <time>2016-09-06T07:45:20.000Z</time>
      </trkpt>
      <trkpt lat="47.30874" lon="6.24686">
        <ele>257.38</ele>
        <time>2016-09-06T07:45:21.000Z</time>
      </trkpt>
      <trkpt lat="47.30872" lon="6.24678">
        <ele>257.568</ele>
        <time>2016-09-06T07:45:22.000Z</time>
      </trkpt>
      <trkpt lat="47.30869" lon="6.24671">
        <ele>257.488</ele>
        <time>2016-09-06T07:45:23.000Z</time>
      </trkpt>
      <trkpt lat="47.30867" lon="6.24664">
        <ele>257.963</ele>
        <time>2016-09-06T07:45:24.000Z</time>
      </trkpt>
      <trkpt lat="47.30866" lon="6.24656">
        <ele>257.932</ele>
        <time>2016-09-06T07:45:25.000Z</time>
      </trkpt>
      <trkpt lat="47.30865" lon="6.24651">
        <ele>257.62</ele>
        <time>2016-09-06T07:45:26.000Z</time>
      </trkpt>
      <trkpt lat="47.30865" lon="6.24645">
        <ele>257.341</ele>
        <time>2016-09-06T07:45:27.000Z</time>
      </trkpt>
      <trkpt lat="47.30864" lon="6.24637">
        <ele>257.247</ele>
        <time>2016-09-06T07:45:28.000Z</time>
      </trkpt>
      <trkpt lat="47.30866" lon="6.24628">
        <ele>257.028</ele>
        <time>2016-09-06T07:45:29.000Z</time>
      </trkpt>
      <trkpt lat="47.30865" lon="6.24622">
        <ele>256.991</ele>
        <time>2016-09-06T07:45:30.000Z</time>
      </trkpt>
      <trkpt lat="47.30863" lon="6.24615">
        <ele>257.378</ele>
        <time>2016-09-06T07:45:31.000Z</time>
      </trkpt>
      <trkpt lat="47.30862" lon="6.24607">
        <ele>257.375</ele>
        <time>2016-09-06T07:45:32.000Z</time>
      </trkpt>
      <trkpt lat="47.30861" lon="6.24597">
        <ele>256.877</ele>
        <time>2016-09-06T07:45:33.000Z</time>
      </trkpt>
      <trkpt lat="47.3086" lon="6.24591">
        <ele>256.805</ele>
        <time>2016-09-06T07:45:34.000Z</time>
      </trkpt>
      <trkpt lat="47.3086" lon="6.24584">
        <ele>256.547</ele>
        <time>2016-09-06T07:45:35.000Z</time>
      </trkpt>
      <trkpt lat="47.30862" lon="6.24577">
        <ele>256.781</ele>
        <time>2016-09-06T07:45:36.000Z</time>
      </trkpt>
      <trkpt lat="47.3086" lon="6.24569">
        <ele>256.798</ele>
        <time>2016-09-06T07:45:37.000Z</time>
      </trkpt>
      <trkpt lat="47.30858" lon="6.24561">
        <ele>257.102</ele>
        <time>2016-09-06T07:45:38.000Z</time>
      </trkpt>
      <trkpt lat="47.30856" lon="6.24556">
        <ele>257.139</ele>
        <time>2016-09-06T07:45:39.000Z</time>
      </trkpt>
      <trkpt lat="47.30854" lon="6.24549">
        <ele>256.987</ele>
        <time>2016-09-06T07:45:40.000Z</time>
      </trkpt>
      <trkpt lat="47.30854" lon="6.24543">
        <ele>257.009</ele>
        <time>2016-09-06T07:45:41.000Z</time>
      </trkpt>
      <trkpt lat="47.30853" lon="6.24534">
        <ele>256.736</ele>
        <time>2016-09-06T07:45:42.000Z</time>
      </trkpt>
      <trkpt lat="47.30852" lon="6.24526">
        <ele>256.812</ele>
        <time>2016-09-06T07:45:43.000Z</time>
      </trkpt>
      <trkpt lat="47.30852" lon="6.24519">
        <ele>256.219</ele>
        <time>2016-09-06T07:45:44.000Z</time>
      </trkpt>
      <trkpt lat="47.3085" lon="6.24514">
        <ele>256.398</ele>
        <time>2016-09-06T07:45:45.000Z</time>
      </trkpt>
      <trkpt lat="47.30849" lon="6.24506">
        <ele>256.301</ele>
        <time>2016-09-06T07:45:46.000Z</time>
      </trkpt>
      <trkpt lat="47.30848" lon="6.24499">
        <ele>256.67</ele>
        <time>2016-09-06T07:45:47.000Z</time>
      </trkpt>
      <trkpt lat="47.30848" lon="6.24493">
        <ele>256.619</ele>
        <time>2016-09-06T07:45:48.000Z</time>
      </trkpt>
      <trkpt lat="47.30847" lon="6.24487">
        <ele>256.276</ele>
        <time>2016-09-06T07:45:49.000Z</time>
      </trkpt>
      <trkpt lat="47.30846" lon="6.2448">
        <ele>256.347</ele>
        <time>2016-09-06T07:45:50.000Z</time>
      </trkpt>
      <trkpt lat="47.30844" lon="6.24473">
        <ele>256.291</ele>
        <time>2016-09-06T07:45:51.000Z</time>
      </trkpt>
      <trkpt lat="47.30843" lon="6.24468">
        <ele>256.233</ele>
        <time>2016-09-06T07:45:52.000Z</time>
      </trkpt>
      <trkpt lat="47.30841" lon="6.24462">
        <ele>256.079</ele>
        <time>2016-09-06T07:45:53.000Z</time>
      </trkpt>
      <trkpt lat="47.30839" lon="6.24456">
        <ele>256.347</ele>
        <time>2016-09-06T07:45:54.000Z</time>
      </trkpt>
      <trkpt lat="47.30838" lon="6.24449">
        <ele>256.608</ele>
        <time>2016-09-06T07:45:55.000Z</time>
      </trkpt>
      <trkpt lat="47.30837" lon="6.24444">
        <ele>256.335</ele>
        <time>2016-09-06T07:45:56.000Z</time>
      </trkpt>
      <trkpt lat="47.30835" lon="6.24437">
        <ele>256.596</ele>
        <time>2016-09-06T07:45:57.000Z</time>
      </trkpt>
      <trkpt lat="47.30832" lon="6.24431">
        <ele>256.297</ele>
        <time>2016-09-06T07:45:58.000Z</time>
      </trkpt>
      <trkpt lat="47.30832" lon="6.24424">
        <ele>256.385</ele>
        <time>2016-09-06T07:45:59.000Z</time>
      </trkpt>
      <trkpt lat="47.3083" lon="6.24417">
        <ele>256.732</ele>
        <time>2016-09-06T07:46:00.000Z</time>
      </trkpt>
      <trkpt lat="47.30826" lon="6.2441">
        <ele>256.301</ele>
        <time>2016-09-06T07:46:01.000Z</time>
      </trkpt>
      <trkpt lat="47.30824" lon="6.24404">
        <ele>255.828</ele>
        <time>2016-09-06T07:46:02.000Z</time>
      </trkpt>
      <trkpt lat="47.30821" lon="6.244">
        <ele>255.392</ele>
        <time>2016-09-06T07:46:03.005Z</time>
      </trkpt>
      <trkpt lat="47.3082" lon="6.24392">
        <ele>254.406</ele>
        <time>2016-09-06T07:46:04.001Z</time>
      </trkpt>
      <trkpt lat="47.30817" lon="6.24385">
        <ele>253.767</ele>
        <time>2016-09-06T07:46:05.000Z</time>
      </trkpt>
      <trkpt lat="47.30815" lon="6.24379">
        <ele>253.412</ele>
        <time>2016-09-06T07:46:06.000Z</time>
      </trkpt>
      <trkpt lat="47.30813" lon="6.24373">
        <ele>253.179</ele>
        <time>2016-09-06T07:46:07.000Z</time>
      </trkpt>
      <trkpt lat="47.30811" lon="6.24366">
        <ele>252.693</ele>
        <time>2016-09-06T07:46:08.000Z</time>
      </trkpt>
      <trkpt lat="47.30808" lon="6.2436">
        <ele>252.926</ele>
        <time>2016-09-06T07:46:09.000Z</time>
      </trkpt>
      <trkpt lat="47.30806" lon="6.24352">
        <ele>252.588</ele>
        <time>2016-09-06T07:46:10.000Z</time>
      </trkpt>
      <trkpt lat="47.30804" lon="6.24345">
        <ele>252.348</ele>
        <time>2016-09-06T07:46:11.000Z</time>
      </trkpt>
      <trkpt lat="47.30802" lon="6.24339">
        <ele>252.193</ele>
        <time>2016-09-06T07:46:12.000Z</time>
      </trkpt>
      <trkpt lat="47.30801" lon="6.24334">
        <ele>252.075</ele>
        <time>2016-09-06T07:46:13.000Z</time>
      </trkpt>
      <trkpt lat="47.30799" lon="6.24328">
        <ele>251.554</ele>
        <time>2016-09-06T07:46:14.000Z</time>
      </trkpt>
      <trkpt lat="47.30797" lon="6.24323">
        <ele>251.273</ele>
        <time>2016-09-06T07:46:15.000Z</time>
      </trkpt>
      <trkpt lat="47.30795" lon="6.24317">
        <ele>251.681</ele>
        <time>2016-09-06T07:46:16.000Z</time>
      </trkpt>
      <trkpt lat="47.30793" lon="6.24311">
        <ele>251.499</ele>
        <time>2016-09-06T07:46:17.000Z</time>
      </trkpt>
      <trkpt lat="47.30791" lon="6.24305">
        <ele>252.101</ele>
        <time>2016-09-06T07:46:18.000Z</time>
      </trkpt>
      <trkpt lat="47.30789" lon="6.24298">
        <ele>252.339</ele>
        <time>2016-09-06T07:46:19.000Z</time>
      </trkpt>
      <trkpt lat="47.30787" lon="6.24293">
        <ele>252.533</ele>
        <time>2016-09-06T07:46:20.000Z</time>
      </trkpt>
      <trkpt lat="47.30785" lon="6.24287">
        <ele>252.613</ele>
        <time>2016-09-06T07:46:21.000Z</time>
      </trkpt>
      <trkpt lat="47.30783" lon="6.2428">
        <ele>251.832</ele>
        <time>2016-09-06T07:46:22.000Z</time>
      </trkpt>
      <trkpt lat="47.3078" lon="6.24275">
        <ele>251.84</ele>
        <time>2016-09-06T07:46:23.000Z</time>
      </trkpt>
      <trkpt lat="47.30778" lon="6.24268">
        <ele>251.213</ele>
        <time>2016-09-06T07:46:24.000Z</time>
      </trkpt>
      <trkpt lat="47.30776" lon="6.24262">
        <ele>250.764</ele>
        <time>2016-09-06T07:46:25.000Z</time>
      </trkpt>
      <trkpt lat="47.30774" lon="6.24255">
        <ele>250.911</ele>
        <time>2016-09-06T07:46:26.000Z</time>
      </trkpt>
      <trkpt lat="47.30772" lon="6.24249">
        <ele>251.212</ele>
        <time>2016-09-06T07:46:27.000Z</time>
      </trkpt>
      <trkpt lat="47.3077" lon="6.24243">
        <ele>252.861</ele>
        <time>2016-09-06T07:46:28.000Z</time>
      </trkpt>
      <trkpt lat="47.30769" lon="6.24237">
        <ele>253.568</ele>
        <time>2016-09-06T07:46:29.000Z</time>
      </trkpt>
      <trkpt lat="47.30768" lon="6.2423">
        <ele>254.221</ele>
        <time>2016-09-06T07:46:30.000Z</time>
      </trkpt>
      <trkpt lat="47.30766" lon="6.24224">
        <ele>254.897</ele>
        <time>2016-09-06T07:46:31.000Z</time>
      </trkpt>
      <trkpt lat="47.30764" lon="6.24219">
        <ele>255.204</ele>
        <time>2016-09-06T07:46:32.000Z</time>
      </trkpt>
      <trkpt lat="47.30761" lon="6.24213">
        <ele>255.424</ele>
        <time>2016-09-06T07:46:33.000Z</time>
      </trkpt>
      <trkpt lat="47.3076" lon="6.24204">
        <ele>255.698</ele>
        <time>2016-09-06T07:46:34.000Z</time>
      </trkpt>
      <trkpt lat="47.30759" lon="6.24198">
        <ele>256.056</ele>
        <time>2016-09-06T07:46:35.000Z</time>
      </trkpt>
      <trkpt lat="47.30755" lon="6.24191">
        <ele>256.413</ele>
        <time>2016-09-06T07:46:36.000Z</time>
      </trkpt>
      <trkpt lat="47.30754" lon="6.24186">
        <ele>256.507</ele>
        <time>2016-09-06T07:46:37.000Z</time>
      </trkpt>
      <trkpt lat="47.30753" lon="6.24179">
        <ele>256.137</ele>
        <time>2016-09-06T07:46:38.000Z</time>
      </trkpt>
      <trkpt lat="47.30752" lon="6.24171">
        <ele>255.165</ele>
        <time>2016-09-06T07:46:39.000Z</time>
      </trkpt>
      <trkpt lat="47.3075" lon="6.24164">
        <ele>255.912</ele>
        <time>2016-09-06T07:46:40.000Z</time>
      </trkpt>
      <trkpt lat="47.30748" lon="6.24157">
        <ele>255.586</ele>
        <time>2016-09-06T07:46:41.000Z</time>
      </trkpt>
      <trkpt lat="47.30747" lon="6.2415">
        <ele>255.706</ele>
        <time>2016-09-06T07:46:42.000Z</time>
      </trkpt>
      <trkpt lat="47.30746" lon="6.24144">
        <ele>255.778</ele>
        <time>2016-09-06T07:46:43.000Z</time>
      </trkpt>
      <trkpt lat="47.30745" lon="6.24136">
        <ele>256.048</ele>
        <time>2016-09-06T07:46:44.000Z</time>
      </trkpt>
      <trkpt lat="47.30743" lon="6.24129">
        <ele>255.87</ele>
        <time>2016-09-06T07:46:45.000Z</time>
      </trkpt>
      <trkpt lat="47.30741" lon="6.24123">
        <ele>255.8</ele>
        <time>2016-09-06T07:46:46.000Z</time>
      </trkpt>
      <trkpt lat="47.3074" lon="6.24116">
        <ele>255.567</ele>
        <time>2016-09-06T07:46:47.000Z</time>
      </trkpt>
      <trkpt lat="47.3074" lon="6.24108">
        <ele>255.919</ele>
        <time>2016-09-06T07:46:48.000Z</time>
      </trkpt>
      <trkpt lat="47.30738" lon="6.24103">
        <ele>256.267</ele>
        <time>2016-09-06T07:46:49.000Z</time>
      </trkpt>
      <trkpt lat="47.30737" lon="6.24097">
        <ele>256.168</ele>
        <time>2016-09-06T07:46:50.000Z</time>
      </trkpt>
      <trkpt lat="47.30735" lon="6.24093">
        <ele>256.439</ele>
        <time>2016-09-06T07:46:51.000Z</time>
      </trkpt>
      <trkpt lat="47.30734" lon="6.24084">
        <ele>256.421</ele>
        <time>2016-09-06T07:46:52.000Z</time>
      </trkpt>
      <trkpt lat="47.30732" lon="6.24077">
        <ele>255.218</ele>
        <time>2016-09-06T07:46:53.000Z</time>
      </trkpt>
      <trkpt lat="47.30731" lon="6.24071">
        <ele>256.646</ele>
        <time>2016-09-06T07:46:54.000Z</time>
      </trkpt>
      <trkpt lat="47.30729" lon="6.24063">
        <ele>256.48</ele>
        <time>2016-09-06T07:46:55.000Z</time>
      </trkpt>
      <trkpt lat="47.30727" lon="6.24057">
        <ele>256.64</ele>
        <time>2016-09-06T07:46:56.000Z</time>
      </trkpt>
      <trkpt lat="47.30725" lon="6.24047">
        <ele>256.07</ele>
        <time>2016-09-06T07:46:57.000Z</time>
      </trkpt>
      <trkpt lat="47.30724" lon="6.24042">
        <ele>256.521</ele>
        <time>2016-09-06T07:46:58.000Z</time>
      </trkpt>
      <trkpt lat="47.30721" lon="6.24031">
        <ele>256.091</ele>
        <time>2016-09-06T07:46:59.000Z</time>
      </trkpt>
      <trkpt lat="47.30719" lon="6.24024">
        <ele>256.745</ele>
        <time>2016-09-06T07:47:00.000Z</time>
      </trkpt>
      <trkpt lat="47.30718" lon="6.24018">
        <ele>256.948</ele>
        <time>2016-09-06T07:47:01.000Z</time>
      </trkpt>
      <trkpt lat="47.30715" lon="6.24014">
        <ele>256.614</ele>
        <time>2016-09-06T07:47:02.000Z</time>
      </trkpt>
      <trkpt lat="47.30712" lon="6.24008">
        <ele>256.481</ele>
        <time>2016-09-06T07:47:03.000Z</time>
      </trkpt>
      <trkpt lat="47.30711" lon="6.24002">
        <ele>256.343</ele>
        <time>2016-09-06T07:47:04.000Z</time>
      </trkpt>
      <trkpt lat="47.30709" lon="6.23997">
        <ele>256.266</ele>
        <time>2016-09-06T07:47:05.000Z</time>
      </trkpt>
      <trkpt lat="47.30708" lon="6.23991">
        <ele>256.303</ele>
        <time>2016-09-06T07:47:06.000Z</time>
      </trkpt>
      <trkpt lat="47.30707" lon="6.23983">
        <ele>256.218</ele>
        <time>2016-09-06T07:47:07.000Z</time>
      </trkpt>
      <trkpt lat="47.30707" lon="6.23975">
        <ele>256.16</ele>
        <time>2016-09-06T07:47:08.000Z</time>
      </trkpt>
      <trkpt lat="47.30705" lon="6.23969">
        <ele>256.214</ele>
        <time>2016-09-06T07:47:09.000Z</time>
      </trkpt>
      <trkpt lat="47.30704" lon="6.23964">
        <ele>256.446</ele>
        <time>2016-09-06T07:47:10.000Z</time>
      </trkpt>
      <trkpt lat="47.30702" lon="6.23958">
        <ele>256.645</ele>
        <time>2016-09-06T07:47:11.000Z</time>
      </trkpt>
      <trkpt lat="47.307" lon="6.23953">
        <ele>256.748</ele>
        <time>2016-09-06T07:47:12.000Z</time>
      </trkpt>
      <trkpt lat="47.30698" lon="6.23946">
        <ele>256.948</ele>
        <time>2016-09-06T07:47:13.000Z</time>
      </trkpt>
      <trkpt lat="47.30696" lon="6.23941">
        <ele>257.231</ele>
        <time>2016-09-06T07:47:14.000Z</time>
      </trkpt>
      <trkpt lat="47.30694" lon="6.23935">
        <ele>257.086</ele>
        <time>2016-09-06T07:47:15.000Z</time>
      </trkpt>
      <trkpt lat="47.30693" lon="6.23929">
        <ele>257.041</ele>
        <time>2016-09-06T07:47:16.000Z</time>
      </trkpt>
      <trkpt lat="47.30692" lon="6.23922">
        <ele>257.2</ele>
        <time>2016-09-06T07:47:17.000Z</time>
      </trkpt>
      <trkpt lat="47.3069" lon="6.23915">
        <ele>256.883</ele>
        <time>2016-09-06T07:47:18.000Z</time>
      </trkpt>
      <trkpt lat="47.30689" lon="6.23908">
        <ele>256.932</ele>
        <time>2016-09-06T07:47:19.000Z</time>
      </trkpt>
      <trkpt lat="47.30687" lon="6.23905">
        <ele>257.126</ele>
        <time>2016-09-06T07:47:20.000Z</time>
      </trkpt>
      <trkpt lat="47.30686" lon="6.23899">
        <ele>257.17</ele>
        <time>2016-09-06T07:47:21.000Z</time>
      </trkpt>
      <trkpt lat="47.30686" lon="6.23894">
        <ele>257.334</ele>
        <time>2016-09-06T07:47:22.000Z</time>
      </trkpt>
      <trkpt lat="47.30684" lon="6.23887">
        <ele>257.281</ele>
        <time>2016-09-06T07:47:23.000Z</time>
      </trkpt>
      <trkpt lat="47.30678" lon="6.23878">
        <ele>257.098</ele>
        <time>2016-09-06T07:47:24.000Z</time>
      </trkpt>
      <trkpt lat="47.30677" lon="6.2387">
        <ele>256.979</ele>
        <time>2016-09-06T07:47:25.000Z</time>
      </trkpt>
      <trkpt lat="47.30675" lon="6.23863">
        <ele>257.087</ele>
        <time>2016-09-06T07:47:26.000Z</time>
      </trkpt>
      <trkpt lat="47.30673" lon="6.23857">
        <ele>257.006</ele>
        <time>2016-09-06T07:47:27.000Z</time>
      </trkpt>
      <trkpt lat="47.3067" lon="6.23853">
        <ele>257.361</ele>
        <time>2016-09-06T07:47:28.000Z</time>
      </trkpt>
      <trkpt lat="47.30668" lon="6.23848">
        <ele>257.379</ele>
        <time>2016-09-06T07:47:29.000Z</time>
      </trkpt>
      <trkpt lat="47.30666" lon="6.2384">
        <ele>257.418</ele>
        <time>2016-09-06T07:47:30.000Z</time>
      </trkpt>
      <trkpt lat="47.30664" lon="6.23835">
        <ele>257.656</ele>
        <time>2016-09-06T07:47:31.000Z</time>
      </trkpt>
      <trkpt lat="47.30663" lon="6.23828">
        <ele>258.231</ele>
        <time>2016-09-06T07:47:32.000Z</time>
      </trkpt>
      <trkpt lat="47.3066" lon="6.23821">
        <ele>258.304</ele>
        <time>2016-09-06T07:47:33.000Z</time>
      </trkpt>
      <trkpt lat="47.30659" lon="6.23816">
        <ele>258.252</ele>
        <time>2016-09-06T07:47:34.000Z</time>
      </trkpt>
      <trkpt lat="47.30656" lon="6.23808">
        <ele>258.064</ele>
        <time>2016-09-06T07:47:35.000Z</time>
      </trkpt>
      <trkpt lat="47.30654" lon="6.23803">
        <ele>257.966</ele>
        <time>2016-09-06T07:47:36.000Z</time>
      </trkpt>
      <trkpt lat="47.30653" lon="6.23799">
        <ele>258.224</ele>
        <time>2016-09-06T07:47:37.000Z</time>
      </trkpt>
      <trkpt lat="47.30649" lon="6.23794">
        <ele>258.166</ele>
        <time>2016-09-06T07:47:38.000Z</time>
      </trkpt>
      <trkpt lat="47.30647" lon="6.23788">
        <ele>257.859</ele>
        <time>2016-09-06T07:47:39.000Z</time>
      </trkpt>
      <trkpt lat="47.30645" lon="6.23782">
        <ele>258.004</ele>
        <time>2016-09-06T07:47:40.000Z</time>
      </trkpt>
      <trkpt lat="47.30643" lon="6.23777">
        <ele>258.443</ele>
        <time>2016-09-06T07:47:41.000Z</time>
      </trkpt>
      <trkpt lat="47.30639" lon="6.23771">
        <ele>258.708</ele>
        <time>2016-09-06T07:47:42.000Z</time>
      </trkpt>
      <trkpt lat="47.30637" lon="6.23767">
        <ele>258.779</ele>
        <time>2016-09-06T07:47:43.000Z</time>
      </trkpt>
      <trkpt lat="47.30635" lon="6.23762">
        <ele>259.009</ele>
        <time>2016-09-06T07:47:44.000Z</time>
      </trkpt>
      <trkpt lat="47.30632" lon="6.23758">
        <ele>258.97</ele>
        <time>2016-09-06T07:47:45.000Z</time>
      </trkpt>
      <trkpt lat="47.30629" lon="6.23752">
        <ele>258.984</ele>
        <time>2016-09-06T07:47:46.000Z</time>
      </trkpt>
      <trkpt lat="47.30626" lon="6.23746">
        <ele>259.115</ele>
        <time>2016-09-06T07:47:47.000Z</time>
      </trkpt>
      <trkpt lat="47.30623" lon="6.23741">
        <ele>258.892</ele>
        <time>2016-09-06T07:47:48.000Z</time>
      </trkpt>
      <trkpt lat="47.30615" lon="6.23735">
        <ele>258.366</ele>
        <time>2016-09-06T07:47:49.000Z</time>
      </trkpt>
      <trkpt lat="47.30613" lon="6.23729">
        <ele>257.947</ele>
        <time>2016-09-06T07:47:50.000Z</time>
      </trkpt>
      <trkpt lat="47.30611" lon="6.23725">
        <ele>257.934</ele>
        <time>2016-09-06T07:47:51.000Z</time>
      </trkpt>
      <trkpt lat="47.30608" lon="6.23721">
        <ele>257.964</ele>
        <time>2016-09-06T07:47:52.000Z</time>
      </trkpt>
      <trkpt lat="47.30605" lon="6.23716">
        <ele>257.863</ele>
        <time>2016-09-06T07:47:53.000Z</time>
      </trkpt>
      <trkpt lat="47.30602" lon="6.2371">
        <ele>258.254</ele>
        <time>2016-09-06T07:47:54.000Z</time>
      </trkpt>
      <trkpt lat="47.30598" lon="6.23705">
        <ele>258.45</ele>
        <time>2016-09-06T07:47:55.000Z</time>
      </trkpt>
      <trkpt lat="47.30597" lon="6.237">
        <ele>258.649</ele>
        <time>2016-09-06T07:47:56.000Z</time>
      </trkpt>
      <trkpt lat="47.30594" lon="6.23694">
        <ele>258.441</ele>
        <time>2016-09-06T07:47:57.000Z</time>
      </trkpt>
      <trkpt lat="47.30592" lon="6.2369">
        <ele>258.583</ele>
        <time>2016-09-06T07:47:58.000Z</time>
      </trkpt>
      <trkpt lat="47.30588" lon="6.23685">
        <ele>258.667</ele>
        <time>2016-09-06T07:47:59.000Z</time>
      </trkpt>
      <trkpt lat="47.30585" lon="6.2368">
        <ele>258.595</ele>
        <time>2016-09-06T07:48:00.000Z</time>
      </trkpt>
      <trkpt lat="47.30583" lon="6.23675">
        <ele>258.285</ele>
        <time>2016-09-06T07:48:01.000Z</time>
      </trkpt>
      <trkpt lat="47.3058" lon="6.2367">
        <ele>258.346</ele>
        <time>2016-09-06T07:48:02.000Z</time>
      </trkpt>
      <trkpt lat="47.30578" lon="6.23664">
        <ele>258.957</ele>
        <time>2016-09-06T07:48:03.000Z</time>
      </trkpt>
      <trkpt lat="47.30575" lon="6.23661">
        <ele>259.159</ele>
        <time>2016-09-06T07:48:04.000Z</time>
      </trkpt>
      <trkpt lat="47.30572" lon="6.23657">
        <ele>259.105</ele>
        <time>2016-09-06T07:48:05.000Z</time>
      </trkpt>
      <trkpt lat="47.30566" lon="6.23653">
        <ele>259.11</ele>
        <time>2016-09-06T07:48:06.000Z</time>
      </trkpt>
      <trkpt lat="47.30563" lon="6.23651">
        <ele>259.343</ele>
        <time>2016-09-06T07:48:07.000Z</time>
      </trkpt>
      <trkpt lat="47.30559" lon="6.23647">
        <ele>258.863</ele>
        <time>2016-09-06T07:48:08.000Z</time>
      </trkpt>
      <trkpt lat="47.30555" lon="6.23645">
        <ele>258.877</ele>
        <time>2016-09-06T07:48:09.000Z</time>
      </trkpt>
      <trkpt lat="47.30551" lon="6.23644">
        <ele>259.135</ele>
        <time>2016-09-06T07:48:10.000Z</time>
      </trkpt>
      <trkpt lat="47.30547" lon="6.23642">
        <ele>258.944</ele>
        <time>2016-09-06T07:48:11.000Z</time>
      </trkpt>
      <trkpt lat="47.30539" lon="6.2364">
        <ele>258.941</ele>
        <time>2016-09-06T07:48:12.000Z</time>
      </trkpt>
      <trkpt lat="47.30534" lon="6.23638">
        <ele>259.381</ele>
        <time>2016-09-06T07:48:13.000Z</time>
      </trkpt>
      <trkpt lat="47.30529" lon="6.23636">
        <ele>259</ele>
        <time>2016-09-06T07:48:14.000Z</time>
      </trkpt>
      <trkpt lat="47.30526" lon="6.23636">
        <ele>258.785</ele>
        <time>2016-09-06T07:48:15.000Z</time>
      </trkpt>
      <trkpt lat="47.30521" lon="6.23635">
        <ele>259.283</ele>
        <time>2016-09-06T07:48:16.000Z</time>
      </trkpt>
      <trkpt lat="47.30516" lon="6.23633">
        <ele>258.996</ele>
        <time>2016-09-06T07:48:17.000Z</time>
      </trkpt>
      <trkpt lat="47.30511" lon="6.23632">
        <ele>259.045</ele>
        <time>2016-09-06T07:48:18.000Z</time>
      </trkpt>
      <trkpt lat="47.30506" lon="6.2363">
        <ele>258.922</ele>
        <time>2016-09-06T07:48:19.000Z</time>
      </trkpt>
      <trkpt lat="47.30503" lon="6.23626">
        <ele>258.993</ele>
        <time>2016-09-06T07:48:20.000Z</time>
      </trkpt>
      <trkpt lat="47.30499" lon="6.23625">
        <ele>257.838</ele>
        <time>2016-09-06T07:48:21.000Z</time>
      </trkpt>
      <trkpt lat="47.30492" lon="6.23623">
        <ele>257.708</ele>
        <time>2016-09-06T07:48:22.000Z</time>
      </trkpt>
      <trkpt lat="47.30488" lon="6.23622">
        <ele>258.043</ele>
        <time>2016-09-06T07:48:23.000Z</time>
      </trkpt>
      <trkpt lat="47.30484" lon="6.23622">
        <ele>257.89</ele>
        <time>2016-09-06T07:48:24.000Z</time>
      </trkpt>
      <trkpt lat="47.30478" lon="6.23621">
        <ele>257.678</ele>
        <time>2016-09-06T07:48:25.000Z</time>
      </trkpt>
      <trkpt lat="47.30473" lon="6.23621">
        <ele>257.546</ele>
        <time>2016-09-06T07:48:26.000Z</time>
      </trkpt>
      <trkpt lat="47.3047" lon="6.2362">
        <ele>257.645</ele>
        <time>2016-09-06T07:48:27.000Z</time>
      </trkpt>
      <trkpt lat="47.30466" lon="6.23617">
        <ele>257.71</ele>
        <time>2016-09-06T07:48:28.000Z</time>
      </trkpt>
      <trkpt lat="47.30462" lon="6.23616">
        <ele>257.947</ele>
        <time>2016-09-06T07:48:29.000Z</time>
      </trkpt>
      <trkpt lat="47.3046" lon="6.23613">
        <ele>258.316</ele>
        <time>2016-09-06T07:48:30.000Z</time>
      </trkpt>
      <trkpt lat="47.30456" lon="6.2361">
        <ele>260.079</ele>
        <time>2016-09-06T07:48:31.000Z</time>
      </trkpt>
      <trkpt lat="47.30451" lon="6.23607">
        <ele>260.144</ele>
        <time>2016-09-06T07:48:32.000Z</time>
      </trkpt>
      <trkpt lat="47.30448" lon="6.23605">
        <ele>259.85</ele>
        <time>2016-09-06T07:48:33.000Z</time>
      </trkpt>
      <trkpt lat="47.30442" lon="6.23604">
        <ele>259.082</ele>
        <time>2016-09-06T07:48:34.000Z</time>
      </trkpt>
      <trkpt lat="47.30439" lon="6.23601">
        <ele>258.668</ele>
        <time>2016-09-06T07:48:35.000Z</time>
      </trkpt>
      <trkpt lat="47.30435" lon="6.236">
        <ele>258.475</ele>
        <time>2016-09-06T07:48:36.000Z</time>
      </trkpt>
      <trkpt lat="47.3043" lon="6.23599">
        <ele>258.493</ele>
        <time>2016-09-06T07:48:37.000Z</time>
      </trkpt>
      <trkpt lat="47.30426" lon="6.23596">
        <ele>258.188</ele>
        <time>2016-09-06T07:48:38.000Z</time>
      </trkpt>
      <trkpt lat="47.30422" lon="6.23593">
        <ele>258.03</ele>
        <time>2016-09-06T07:48:39.000Z</time>
      </trkpt>
      <trkpt lat="47.30419" lon="6.2359">
        <ele>258.024</ele>
        <time>2016-09-06T07:48:40.000Z</time>
      </trkpt>
      <trkpt lat="47.30415" lon="6.23588">
        <ele>258.273</ele>
        <time>2016-09-06T07:48:41.000Z</time>
      </trkpt>
      <trkpt lat="47.3041" lon="6.23585">
        <ele>258.326</ele>
        <time>2016-09-06T07:48:42.000Z</time>
      </trkpt>
      <trkpt lat="47.30407" lon="6.23583">
        <ele>260.245</ele>
        <time>2016-09-06T07:48:43.000Z</time>
      </trkpt>
      <trkpt lat="47.30403" lon="6.23579">
        <ele>261.377</ele>
        <time>2016-09-06T07:48:44.000Z</time>
      </trkpt>
      <trkpt lat="47.30399" lon="6.23578">
        <ele>261.993</ele>
        <time>2016-09-06T07:48:45.000Z</time>
      </trkpt>
      <trkpt lat="47.30395" lon="6.23575">
        <ele>262.122</ele>
        <time>2016-09-06T07:48:46.000Z</time>
      </trkpt>
      <trkpt lat="47.3039" lon="6.23573">
        <ele>262.081</ele>
        <time>2016-09-06T07:48:47.000Z</time>
      </trkpt>
      <trkpt lat="47.30385" lon="6.23571">
        <ele>261.558</ele>
        <time>2016-09-06T07:48:48.000Z</time>
      </trkpt>
      <trkpt lat="47.30381" lon="6.23568">
        <ele>260.634</ele>
        <time>2016-09-06T07:48:49.000Z</time>
      </trkpt>
      <trkpt lat="47.30376" lon="6.23564">
        <ele>259.248</ele>
        <time>2016-09-06T07:48:50.000Z</time>
      </trkpt>
      <trkpt lat="47.30372" lon="6.2356">
        <ele>259.311</ele>
        <time>2016-09-06T07:48:51.000Z</time>
      </trkpt>
      <trkpt lat="47.30369" lon="6.23556">
        <ele>259.984</ele>
        <time>2016-09-06T07:48:52.000Z</time>
      </trkpt>
      <trkpt lat="47.30366" lon="6.23552">
        <ele>262.473</ele>
        <time>2016-09-06T07:48:53.000Z</time>
      </trkpt>
      <trkpt lat="47.30362" lon="6.23549">
        <ele>262.574</ele>
        <time>2016-09-06T07:48:54.000Z</time>
      </trkpt>
      <trkpt lat="47.30356" lon="6.23546">
        <ele>261.66</ele>
        <time>2016-09-06T07:48:55.000Z</time>
      </trkpt>
      <trkpt lat="47.30353" lon="6.23543">
        <ele>261.618</ele>
        <time>2016-09-06T07:48:56.000Z</time>
      </trkpt>
      <trkpt lat="47.30349" lon="6.23542">
        <ele>262.625</ele>
        <time>2016-09-06T07:48:57.000Z</time>
      </trkpt>
      <trkpt lat="47.30345" lon="6.2354">
        <ele>262.317</ele>
        <time>2016-09-06T07:48:58.000Z</time>
      </trkpt>
      <trkpt lat="47.30339" lon="6.23538">
        <ele>262.218</ele>
        <time>2016-09-06T07:48:59.000Z</time>
      </trkpt>
      <trkpt lat="47.30334" lon="6.23536">
        <ele>261.941</ele>
        <time>2016-09-06T07:49:00.000Z</time>
      </trkpt>
      <trkpt lat="47.3033" lon="6.23533">
        <ele>260.846</ele>
        <time>2016-09-06T07:49:01.000Z</time>
      </trkpt>
      <trkpt lat="47.30324" lon="6.23531">
        <ele>260.646</ele>
        <time>2016-09-06T07:49:02.000Z</time>
      </trkpt>
      <trkpt lat="47.30319" lon="6.2353">
        <ele>260.409</ele>
        <time>2016-09-06T07:49:03.000Z</time>
      </trkpt>
      <trkpt lat="47.30314" lon="6.23527">
        <ele>260.616</ele>
        <time>2016-09-06T07:49:04.000Z</time>
      </trkpt>
      <trkpt lat="47.30311" lon="6.23524">
        <ele>263.334</ele>
        <time>2016-09-06T07:49:05.000Z</time>
      </trkpt>
      <trkpt lat="47.30306" lon="6.23523">
        <ele>263.56</ele>
        <time>2016-09-06T07:49:06.000Z</time>
      </trkpt>
      <trkpt lat="47.30303" lon="6.23524">
        <ele>265.106</ele>
        <time>2016-09-06T07:49:07.000Z</time>
      </trkpt>
      <trkpt lat="47.30299" lon="6.23521">
        <ele>264.287</ele>
        <time>2016-09-06T07:49:08.000Z</time>
      </trkpt>
      <trkpt lat="47.30294" lon="6.2352">
        <ele>263.879</ele>
        <time>2016-09-06T07:49:09.000Z</time>
      </trkpt>
      <trkpt lat="47.30291" lon="6.23519">
        <ele>264.775</ele>
        <time>2016-09-06T07:49:10.000Z</time>
      </trkpt>
      <trkpt lat="47.30286" lon="6.23519">
        <ele>264.718</ele>
        <time>2016-09-06T07:49:11.000Z</time>
      </trkpt>
      <trkpt lat="47.30281" lon="6.23518">
        <ele>264.353</ele>
        <time>2016-09-06T07:49:12.000Z</time>
      </trkpt>
      <trkpt lat="47.30277" lon="6.23517">
        <ele>264.58</ele>
        <time>2016-09-06T07:49:13.000Z</time>
      </trkpt>
      <trkpt lat="47.30272" lon="6.23517">
        <ele>263.477</ele>
        <time>2016-09-06T07:49:14.000Z</time>
      </trkpt>
      <trkpt lat="47.30268" lon="6.23518">
        <ele>263.123</ele>
        <time>2016-09-06T07:49:15.000Z</time>
      </trkpt>
      <trkpt lat="47.30264" lon="6.23518">
        <ele>263.495</ele>
        <time>2016-09-06T07:49:16.000Z</time>
      </trkpt>
      <trkpt lat="47.3026" lon="6.23518">
        <ele>262.384</ele>
        <time>2016-09-06T07:49:17.000Z</time>
      </trkpt>
      <trkpt lat="47.30255" lon="6.23517">
        <ele>262.37</ele>
        <time>2016-09-06T07:49:18.000Z</time>
      </trkpt>
      <trkpt lat="47.3025" lon="6.23518">
        <ele>262.585</ele>
        <time>2016-09-06T07:49:19.000Z</time>
      </trkpt>
      <trkpt lat="47.30246" lon="6.23518">
        <ele>262.329</ele>
        <time>2016-09-06T07:49:20.000Z</time>
      </trkpt>
      <trkpt lat="47.30241" lon="6.23519">
        <ele>262.551</ele>
        <time>2016-09-06T07:49:21.000Z</time>
      </trkpt>
      <trkpt lat="47.30235" lon="6.23518">
        <ele>262.539</ele>
        <time>2016-09-06T07:49:22.000Z</time>
      </trkpt>
      <trkpt lat="47.3023" lon="6.23519">
        <ele>262.235</ele>
        <time>2016-09-06T07:49:23.000Z</time>
      </trkpt>
      <trkpt lat="47.30226" lon="6.23519">
        <ele>262.994</ele>
        <time>2016-09-06T07:49:24.000Z</time>
      </trkpt>
      <trkpt lat="47.30222" lon="6.23518">
        <ele>262.129</ele>
        <time>2016-09-06T07:49:25.000Z</time>
      </trkpt>
      <trkpt lat="47.30217" lon="6.23518">
        <ele>262.388</ele>
        <time>2016-09-06T07:49:26.000Z</time>
      </trkpt>
      <trkpt lat="47.30212" lon="6.2352">
        <ele>263.505</ele>
        <time>2016-09-06T07:49:27.000Z</time>
      </trkpt>
      <trkpt lat="47.30207" lon="6.2352">
        <ele>263.371</ele>
        <time>2016-09-06T07:49:28.000Z</time>
      </trkpt>
      <trkpt lat="47.30201" lon="6.2352">
        <ele>262.479</ele>
        <time>2016-09-06T07:49:29.000Z</time>
      </trkpt>
      <trkpt lat="47.30197" lon="6.23521">
        <ele>262.561</ele>
        <time>2016-09-06T07:49:30.000Z</time>
      </trkpt>
      <trkpt lat="47.30193" lon="6.23522">
        <ele>262.753</ele>
        <time>2016-09-06T07:49:31.000Z</time>
      </trkpt>
      <trkpt lat="47.30188" lon="6.23523">
        <ele>263.645</ele>
        <time>2016-09-06T07:49:32.000Z</time>
      </trkpt>
      <trkpt lat="47.30182" lon="6.23524">
        <ele>262.338</ele>
        <time>2016-09-06T07:49:33.000Z</time>
      </trkpt>
      <trkpt lat="47.30176" lon="6.23525">
        <ele>261.736</ele>
        <time>2016-09-06T07:49:34.000Z</time>
      </trkpt>
      <trkpt lat="47.30171" lon="6.23526">
        <ele>261.827</ele>
        <time>2016-09-06T07:49:35.000Z</time>
      </trkpt>
      <trkpt lat="47.30166" lon="6.23527">
        <ele>261.822</ele>
        <time>2016-09-06T07:49:36.000Z</time>
      </trkpt>
      <trkpt lat="47.30161" lon="6.23528">
        <ele>258.829</ele>
        <time>2016-09-06T07:49:37.000Z</time>
      </trkpt>
      <trkpt lat="47.30156" lon="6.2353">
        <ele>258.724</ele>
        <time>2016-09-06T07:49:38.000Z</time>
      </trkpt>
      <trkpt lat="47.30153" lon="6.23531">
        <ele>257.948</ele>
        <time>2016-09-06T07:49:39.000Z</time>
      </trkpt>
      <trkpt lat="47.30148" lon="6.23532">
        <ele>257.926</ele>
        <time>2016-09-06T07:49:40.000Z</time>
      </trkpt>
      <trkpt lat="47.30144" lon="6.23533">
        <ele>257.727</ele>
        <time>2016-09-06T07:49:41.000Z</time>
      </trkpt>
      <trkpt lat="47.30139" lon="6.23532">
        <ele>257.605</ele>
        <time>2016-09-06T07:49:42.000Z</time>
      </trkpt>
      <trkpt lat="47.30135" lon="6.23532">
        <ele>258.308</ele>
        <time>2016-09-06T07:49:43.000Z</time>
      </trkpt>
      <trkpt lat="47.30131" lon="6.23532">
        <ele>258.288</ele>
        <time>2016-09-06T07:49:44.000Z</time>
      </trkpt>
      <trkpt lat="47.30126" lon="6.23534">
        <ele>259.023</ele>
        <time>2016-09-06T07:49:45.000Z</time>
      </trkpt>
      <trkpt lat="47.30122" lon="6.23534">
        <ele>259.214</ele>
        <time>2016-09-06T07:49:46.000Z</time>
      </trkpt>
      <trkpt lat="47.30119" lon="6.23534">
        <ele>259.268</ele>
        <time>2016-09-06T07:49:47.000Z</time>
      </trkpt>
      <trkpt lat="47.30117" lon="6.23535">
        <ele>259.286</ele>
        <time>2016-09-06T07:49:48.000Z</time>
      </trkpt>
      <trkpt lat="47.30114" lon="6.23535">
        <ele>259.572</ele>
        <time>2016-09-06T07:49:49.000Z</time>
      </trkpt>
      <trkpt lat="47.30111" lon="6.23535">
        <ele>259.57</ele>
        <time>2016-09-06T07:49:50.000Z</time>
      </trkpt>
      <trkpt lat="47.30108" lon="6.23535">
        <ele>259.376</ele>
        <time>2016-09-06T07:49:51.000Z</time>
      </trkpt>
      <trkpt lat="47.30106" lon="6.23534">
        <ele>259.703</ele>
        <time>2016-09-06T07:49:52.000Z</time>
      </trkpt>
      <trkpt lat="47.30104" lon="6.23532">
        <ele>259.799</ele>
        <time>2016-09-06T07:49:53.000Z</time>
      </trkpt>
      <trkpt lat="47.30102" lon="6.23531">
        <ele>260.329</ele>
        <time>2016-09-06T07:49:54.000Z</time>
      </trkpt>
      <trkpt lat="47.30102" lon="6.2353">
        <ele>260.246</ele>
        <time>2016-09-06T07:49:55.000Z</time>
      </trkpt>
      <trkpt lat="47.30102" lon="6.2353">
        <ele>260.159</ele>
        <time>2016-09-06T07:49:56.000Z</time>
      </trkpt>
      <trkpt lat="47.30102" lon="6.23529">
        <ele>259.966</ele>
        <time>2016-09-06T07:49:57.000Z</time>
      </trkpt>
      <trkpt lat="47.30101" lon="6.23528">
        <ele>259.812</ele>
        <time>2016-09-06T07:49:58.000Z</time>
      </trkpt>
      <trkpt lat="47.301" lon="6.23527">
        <ele>259.882</ele>
        <time>2016-09-06T07:49:59.000Z</time>
      </trkpt>
      <trkpt lat="47.30099" lon="6.23526">
        <ele>260.347</ele>
        <time>2016-09-06T07:50:00.000Z</time>
      </trkpt>
      <trkpt lat="47.30098" lon="6.23526">
        <ele>261.263</ele>
        <time>2016-09-06T07:50:01.000Z</time>
      </trkpt>
      <trkpt lat="47.30096" lon="6.23526">
        <ele>262.116</ele>
        <time>2016-09-06T07:50:02.000Z</time>
      </trkpt>
      <trkpt lat="47.30095" lon="6.23525">
        <ele>262.391</ele>
        <time>2016-09-06T07:50:03.000Z</time>
      </trkpt>
      <trkpt lat="47.30092" lon="6.23524">
        <ele>262.877</ele>
        <time>2016-09-06T07:50:04.000Z</time>
      </trkpt>
      <trkpt lat="47.30089" lon="6.23524">
        <ele>264.142</ele>
        <time>2016-09-06T07:50:05.000Z</time>
      </trkpt>
      <trkpt lat="47.30086" lon="6.23524">
        <ele>263.709</ele>
        <time>2016-09-06T07:50:06.000Z</time>
      </trkpt>
      <trkpt lat="47.30083" lon="6.23525">
        <ele>264.411</ele>
        <time>2016-09-06T07:50:07.000Z</time>
      </trkpt>
      <trkpt lat="47.3008" lon="6.23525">
        <ele>264.791</ele>
        <time>2016-09-06T07:50:08.000Z</time>
      </trkpt>
      <trkpt lat="47.30077" lon="6.23526">
        <ele>264.446</ele>
        <time>2016-09-06T07:50:09.000Z</time>
      </trkpt>
      <trkpt lat="47.30073" lon="6.23526">
        <ele>264.653</ele>
        <time>2016-09-06T07:50:10.000Z</time>
      </trkpt>
      <trkpt lat="47.3007" lon="6.23525">
        <ele>264.487</ele>
        <time>2016-09-06T07:50:11.000Z</time>
      </trkpt>
      <trkpt lat="47.30066" lon="6.23525">
        <ele>264.26</ele>
        <time>2016-09-06T07:50:12.000Z</time>
      </trkpt>
      <trkpt lat="47.30062" lon="6.23524">
        <ele>264.641</ele>
        <time>2016-09-06T07:50:13.000Z</time>
      </trkpt>
      <trkpt lat="47.30059" lon="6.23524">
        <ele>264.19</ele>
        <time>2016-09-06T07:50:14.000Z</time>
      </trkpt>
      <trkpt lat="47.30055" lon="6.23523">
        <ele>264.396</ele>
        <time>2016-09-06T07:50:15.000Z</time>
      </trkpt>
      <trkpt lat="47.30052" lon="6.23523">
        <ele>264.437</ele>
        <time>2016-09-06T07:50:16.000Z</time>
      </trkpt>
      <trkpt lat="47.30048" lon="6.23523">
        <ele>264.278</ele>
        <time>2016-09-06T07:50:17.000Z</time>
      </trkpt>
      <trkpt lat="47.30045" lon="6.23522">
        <ele>264.295</ele>
        <time>2016-09-06T07:50:18.000Z</time>
      </trkpt>
      <trkpt lat="47.30042" lon="6.23522">
        <ele>264.536</ele>
        <time>2016-09-06T07:50:19.000Z</time>
      </trkpt>
      <trkpt lat="47.30038" lon="6.23521">
        <ele>264.591</ele>
        <time>2016-09-06T07:50:20.000Z</time>
      </trkpt>
      <trkpt lat="47.30035" lon="6.23521">
        <ele>263.821</ele>
        <time>2016-09-06T07:50:21.000Z</time>
      </trkpt>
      <trkpt lat="47.30032" lon="6.2352">
        <ele>264.194</ele>
        <time>2016-09-06T07:50:22.000Z</time>
      </trkpt>
      <trkpt lat="47.30029" lon="6.23519">
        <ele>264.195</ele>
        <time>2016-09-06T07:50:23.000Z</time>
      </trkpt>
      <trkpt lat="47.30027" lon="6.23518">
        <ele>262.216</ele>
        <time>2016-09-06T07:50:24.000Z</time>
      </trkpt>
      <trkpt lat="47.30024" lon="6.23517">
        <ele>262.46</ele>
        <time>2016-09-06T07:50:25.000Z</time>
      </trkpt>
      <trkpt lat="47.30021" lon="6.23515">
        <ele>262.326</ele>
        <time>2016-09-06T07:50:26.000Z</time>
      </trkpt>
      <trkpt lat="47.30018" lon="6.23513">
        <ele>262.601</ele>
        <time>2016-09-06T07:50:27.000Z</time>
      </trkpt>
      <trkpt lat="47.30015" lon="6.2351">
        <ele>261.694</ele>
        <time>2016-09-06T07:50:28.000Z</time>
      </trkpt>
      <trkpt lat="47.30012" lon="6.23507">
        <ele>260.937</ele>
        <time>2016-09-06T07:50:29.000Z</time>
      </trkpt>
      <trkpt lat="47.3001" lon="6.23504">
        <ele>260.925</ele>
        <time>2016-09-06T07:50:30.000Z</time>
      </trkpt>
      <trkpt lat="47.30007" lon="6.235">
        <ele>260.25</ele>
        <time>2016-09-06T07:50:31.000Z</time>
      </trkpt>
      <trkpt lat="47.30005" lon="6.23496">
        <ele>260.859</ele>
        <time>2016-09-06T07:50:32.000Z</time>
      </trkpt>
      <trkpt lat="47.30003" lon="6.23493">
        <ele>260.418</ele>
        <time>2016-09-06T07:50:33.000Z</time>
      </trkpt>
      <trkpt lat="47.3" lon="6.23489">
        <ele>259.599</ele>
        <time>2016-09-06T07:50:34.000Z</time>
      </trkpt>
      <trkpt lat="47.29997" lon="6.23487">
        <ele>260.543</ele>
        <time>2016-09-06T07:50:35.000Z</time>
      </trkpt>
      <trkpt lat="47.29994" lon="6.23484">
        <ele>260.716</ele>
        <time>2016-09-06T07:50:36.000Z</time>
      </trkpt>
      <trkpt lat="47.29992" lon="6.23481">
        <ele>260.356</ele>
        <time>2016-09-06T07:50:37.000Z</time>
      </trkpt>
      <trkpt lat="47.29989" lon="6.23478">
        <ele>259.753</ele>
        <time>2016-09-06T07:50:38.000Z</time>
      </trkpt>
      <trkpt lat="47.29985" lon="6.23474">
        <ele>258.967</ele>
        <time>2016-09-06T07:50:39.000Z</time>
      </trkpt>
      <trkpt lat="47.29982" lon="6.2347">
        <ele>258.605</ele>
        <time>2016-09-06T07:50:40.000Z</time>
      </trkpt>
      <trkpt lat="47.29978" lon="6.23467">
        <ele>258.56</ele>
        <time>2016-09-06T07:50:41.000Z</time>
      </trkpt>
      <trkpt lat="47.29975" lon="6.23464">
        <ele>258.768</ele>
        <time>2016-09-06T07:50:42.000Z</time>
      </trkpt>
      <trkpt lat="47.29972" lon="6.23461">
        <ele>258.833</ele>
        <time>2016-09-06T07:50:43.000Z</time>
      </trkpt>
      <trkpt lat="47.2997" lon="6.23459">
        <ele>260.036</ele>
        <time>2016-09-06T07:50:44.000Z</time>
      </trkpt>
      <trkpt lat="47.29968" lon="6.23456">
        <ele>260.237</ele>
        <time>2016-09-06T07:50:45.000Z</time>
      </trkpt>
      <trkpt lat="47.29965" lon="6.23454">
        <ele>260.732</ele>
        <time>2016-09-06T07:50:46.000Z</time>
      </trkpt>
      <trkpt lat="47.29963" lon="6.23451">
        <ele>260.372</ele>
        <time>2016-09-06T07:50:47.000Z</time>
      </trkpt>
      <trkpt lat="47.2996" lon="6.23448">
        <ele>260.679</ele>
        <time>2016-09-06T07:50:48.000Z</time>
      </trkpt>
      <trkpt lat="47.29958" lon="6.23445">
        <ele>260.441</ele>
        <time>2016-09-06T07:50:49.000Z</time>
      </trkpt>
      <trkpt lat="47.29955" lon="6.23441">
        <ele>258.255</ele>
        <time>2016-09-06T07:50:50.000Z</time>
      </trkpt>
      <trkpt lat="47.29953" lon="6.23438">
        <ele>257.976</ele>
        <time>2016-09-06T07:50:51.000Z</time>
      </trkpt>
      <trkpt lat="47.2995" lon="6.23434">
        <ele>258.524</ele>
        <time>2016-09-06T07:50:52.000Z</time>
      </trkpt>
      <trkpt lat="47.29948" lon="6.23431">
        <ele>260.059</ele>
        <time>2016-09-06T07:50:53.000Z</time>
      </trkpt>
      <trkpt lat="47.29945" lon="6.23428">
        <ele>260.525</ele>
        <time>2016-09-06T07:50:54.000Z</time>
      </trkpt>
      <trkpt lat="47.29942" lon="6.23425">
        <ele>260.889</ele>
        <time>2016-09-06T07:50:55.000Z</time>
      </trkpt>
      <trkpt lat="47.29939" lon="6.23421">
        <ele>260.444</ele>
        <time>2016-09-06T07:50:56.000Z</time>
      </trkpt>
      <trkpt lat="47.29937" lon="6.23418">
        <ele>260.875</ele>
        <time>2016-09-06T07:50:57.000Z</time>
      </trkpt>
      <trkpt lat="47.29934" lon="6.23415">
        <ele>260.372</ele>
        <time>2016-09-06T07:50:58.000Z</time>
      </trkpt>
      <trkpt lat="47.29931" lon="6.23413">
        <ele>260.988</ele>
        <time>2016-09-06T07:50:59.000Z</time>
      </trkpt>
      <trkpt lat="47.29928" lon="6.2341">
        <ele>261.115</ele>
        <time>2016-09-06T07:51:00.000Z</time>
      </trkpt>
      <trkpt lat="47.29924" lon="6.23408">
        <ele>261.226</ele>
        <time>2016-09-06T07:51:01.000Z</time>
      </trkpt>
      <trkpt lat="47.29921" lon="6.23406">
        <ele>261.436</ele>
        <time>2016-09-06T07:51:02.000Z</time>
      </trkpt>
      <trkpt lat="47.29918" lon="6.23405">
        <ele>262.992</ele>
        <time>2016-09-06T07:51:03.000Z</time>
      </trkpt>
      <trkpt lat="47.29914" lon="6.23404">
        <ele>264.362</ele>
        <time>2016-09-06T07:51:04.000Z</time>
      </trkpt>
      <trkpt lat="47.29911" lon="6.23403">
        <ele>264.848</ele>
        <time>2016-09-06T07:51:05.000Z</time>
      </trkpt>
      <trkpt lat="47.29908" lon="6.23402">
        <ele>265.252</ele>
        <time>2016-09-06T07:51:06.000Z</time>
      </trkpt>
      <trkpt lat="47.29906" lon="6.23402">
        <ele>265.941</ele>
        <time>2016-09-06T07:51:07.000Z</time>
      </trkpt>
      <trkpt lat="47.29903" lon="6.23402">
        <ele>266.143</ele>
        <time>2016-09-06T07:51:08.000Z</time>
      </trkpt>
      <trkpt lat="47.29899" lon="6.23401">
        <ele>264.964</ele>
        <time>2016-09-06T07:51:09.000Z</time>
      </trkpt>
      <trkpt lat="47.29896" lon="6.23401">
        <ele>265.324</ele>
        <time>2016-09-06T07:51:10.000Z</time>
      </trkpt>
      <trkpt lat="47.29893" lon="6.234">
        <ele>265.697</ele>
        <time>2016-09-06T07:51:11.000Z</time>
      </trkpt>
      <trkpt lat="47.29889" lon="6.23399">
        <ele>265.788</ele>
        <time>2016-09-06T07:51:12.000Z</time>
      </trkpt>
      <trkpt lat="47.29886" lon="6.23398">
        <ele>265.548</ele>
        <time>2016-09-06T07:51:13.000Z</time>
      </trkpt>
      <trkpt lat="47.29882" lon="6.23396">
        <ele>265.401</ele>
        <time>2016-09-06T07:51:14.000Z</time>
      </trkpt>
      <trkpt lat="47.2988" lon="6.23395">
        <ele>265.28</ele>
        <time>2016-09-06T07:51:15.000Z</time>
      </trkpt>
      <trkpt lat="47.29877" lon="6.23395">
        <ele>265.577</ele>
        <time>2016-09-06T07:51:16.000Z</time>
      </trkpt>
      <trkpt lat="47.29874" lon="6.23396">
        <ele>265.885</ele>
        <time>2016-09-06T07:51:17.000Z</time>
      </trkpt>
      <trkpt lat="47.29872" lon="6.23398">
        <ele>265.661</ele>
        <time>2016-09-06T07:51:18.000Z</time>
      </trkpt>
      <trkpt lat="47.29869" lon="6.234">
        <ele>265.557</ele>
        <time>2016-09-06T07:51:19.000Z</time>
      </trkpt>
      <trkpt lat="47.29867" lon="6.23402">
        <ele>264.968</ele>
        <time>2016-09-06T07:51:20.000Z</time>
      </trkpt>
      <trkpt lat="47.29867" lon="6.23402">
        <ele>264.968</ele>
        <time>2016-09-06T07:51:20.827Z</time>
      </trkpt>
      <trkpt lat="47.29866" lon="6.23404">
        <ele>264.853</ele>
        <time>2016-09-06T07:51:21.000Z</time>
      </trkpt>
      <trkpt lat="47.29864" lon="6.23406">
        <ele>263.827</ele>
        <time>2016-09-06T07:51:22.000Z</time>
      </trkpt>
      <trkpt lat="47.29863" lon="6.23407">
        <ele>263.858</ele>
        <time>2016-09-06T07:51:23.000Z</time>
      </trkpt>
      <trkpt lat="47.29862" lon="6.23407">
        <ele>264.015</ele>
        <time>2016-09-06T07:51:24.000Z</time>
      </trkpt>
      <trkpt lat="47.29862" lon="6.23407">
        <ele>264.103</ele>
        <time>2016-09-06T07:51:25.000Z</time>
      </trkpt>
      <trkpt lat="47.29862" lon="6.23407">
        <ele>265.479</ele>
        <time>2016-09-06T07:51:26.000Z</time>
      </trkpt>
      <trkpt lat="47.29862" lon="6.23407">
        <ele>264.916</ele>
        <time>2016-09-06T07:51:27.000Z</time>
      </trkpt>
      <trkpt lat="47.29862" lon="6.23407">
        <ele>264.454</ele>
        <time>2016-09-06T07:51:28.000Z</time>
      </trkpt>
      <trkpt lat="47.29862" lon="6.23407">
        <ele>264.386</ele>
        <time>2016-09-06T07:51:29.000Z</time>
      </trkpt>
      <trkpt lat="47.29862" lon="6.23407">
        <ele>264.206</ele>
        <time>2016-09-06T07:51:30.000Z</time>
      </trkpt>
      <trkpt lat="47.29862" lon="6.23407">
        <ele>264.101</ele>
        <time>2016-09-06T07:51:31.000Z</time>
      </trkpt>
      <trkpt lat="47.29862" lon="6.23407">
        <ele>264.09</ele>
        <time>2016-09-06T07:51:32.000Z</time>
      </trkpt>
      <trkpt lat="47.29862" lon="6.23407">
        <ele>264.246</ele>
        <time>2016-09-06T07:51:33.000Z</time>
      </trkpt>
      <trkpt lat="47.29862" lon="6.23407">
        <ele>264.272</ele>
        <time>2016-09-06T07:51:34.000Z</time>
      </trkpt>
      <trkpt lat="47.29862" lon="6.23407">
        <ele>264.296</ele>
        <time>2016-09-06T07:51:35.000Z</time>
      </trkpt>
      <trkpt lat="47.29862" lon="6.23407">
        <ele>264.32</ele>
        <time>2016-09-06T07:51:36.000Z</time>
      </trkpt>
      <trkpt lat="47.29862" lon="6.23407">
        <ele>264.421</ele>
        <time>2016-09-06T07:51:37.000Z</time>
      </trkpt>
      <trkpt lat="47.29862" lon="6.23407">
        <ele>264.422</ele>
        <time>2016-09-06T07:51:38.000Z</time>
      </trkpt>
      <trkpt lat="47.29862" lon="6.23407">
        <ele>264.365</ele>
        <time>2016-09-06T07:51:39.000Z</time>
      </trkpt>
      <trkpt lat="47.29862" lon="6.23407">
        <ele>264.219</ele>
        <time>2016-09-06T07:51:40.000Z</time>
      </trkpt>
      <trkpt lat="47.29862" lon="6.23407">
        <ele>264.046</ele>
        <time>2016-09-06T07:51:41.000Z</time>
      </trkpt>
      <trkpt lat="47.29862" lon="6.23407">
        <ele>263.795</ele>
        <time>2016-09-06T07:51:42.000Z</time>
      </trkpt>
      <trkpt lat="47.29862" lon="6.23407">
        <ele>263.654</ele>
        <time>2016-09-06T07:51:43.000Z</time>
      </trkpt>
      <trkpt lat="47.29862" lon="6.23407">
        <ele>263.725</ele>
        <time>2016-09-06T07:51:44.000Z</time>
      </trkpt>
      <trkpt lat="47.29862" lon="6.23407">
        <ele>263.791</ele>
        <time>2016-09-06T07:51:45.000Z</time>
      </trkpt>
      <trkpt lat="47.29863" lon="6.2341">
        <ele>263.886</ele>
        <time>2016-09-06T07:51:46.000Z</time>
      </trkpt>
      <trkpt lat="47.29863" lon="6.2341">
        <ele>264.154</ele>
        <time>2016-09-06T07:51:47.000Z</time>
      </trkpt>
      <trkpt lat="47.29863" lon="6.2341">
        <ele>263.891</ele>
        <time>2016-09-06T07:51:48.000Z</time>
      </trkpt>
      <trkpt lat="47.29863" lon="6.2341">
        <ele>263.744</ele>
        <time>2016-09-06T07:51:49.000Z</time>
      </trkpt>
      <trkpt lat="47.29863" lon="6.2341">
        <ele>263.736</ele>
        <time>2016-09-06T07:51:50.000Z</time>
      </trkpt>
      <trkpt lat="47.29863" lon="6.2341">
        <ele>263.822</ele>
        <time>2016-09-06T07:51:51.000Z</time>
      </trkpt>
      <trkpt lat="47.29861" lon="6.2341">
        <ele>263.78</ele>
        <time>2016-09-06T07:51:52.000Z</time>
      </trkpt>
      <trkpt lat="47.2986" lon="6.23411">
        <ele>263.924</ele>
        <time>2016-09-06T07:51:53.000Z</time>
      </trkpt>
      <trkpt lat="47.29858" lon="6.23412">
        <ele>263.668</ele>
        <time>2016-09-06T07:51:54.000Z</time>
      </trkpt>
      <trkpt lat="47.29856" lon="6.23413">
        <ele>263.459</ele>
        <time>2016-09-06T07:51:55.000Z</time>
      </trkpt>
      <trkpt lat="47.29853" lon="6.23415">
        <ele>263.221</ele>
        <time>2016-09-06T07:51:56.000Z</time>
      </trkpt>
      <trkpt lat="47.2985" lon="6.23417">
        <ele>263.044</ele>
        <time>2016-09-06T07:51:57.000Z</time>
      </trkpt>
      <trkpt lat="47.29846" lon="6.23418">
        <ele>262.953</ele>
        <time>2016-09-06T07:51:58.000Z</time>
      </trkpt>
      <trkpt lat="47.2984" lon="6.2342">
        <ele>262.837</ele>
        <time>2016-09-06T07:51:59.000Z</time>
      </trkpt>
      <trkpt lat="47.29834" lon="6.23421">
        <ele>262.679</ele>
        <time>2016-09-06T07:52:00.000Z</time>
      </trkpt>
      <trkpt lat="47.29829" lon="6.23423">
        <ele>263.639</ele>
        <time>2016-09-06T07:52:01.000Z</time>
      </trkpt>
      <trkpt lat="47.29822" lon="6.23424">
        <ele>263.984</ele>
        <time>2016-09-06T07:52:02.000Z</time>
      </trkpt>
      <trkpt lat="47.29817" lon="6.23427">
        <ele>263.605</ele>
        <time>2016-09-06T07:52:03.000Z</time>
      </trkpt>
      <trkpt lat="47.29811" lon="6.23427">
        <ele>263.963</ele>
        <time>2016-09-06T07:52:04.000Z</time>
      </trkpt>
      <trkpt lat="47.29805" lon="6.23427">
        <ele>264.187</ele>
        <time>2016-09-06T07:52:05.000Z</time>
      </trkpt>
      <trkpt lat="47.29799" lon="6.23423">
        <ele>263.504</ele>
        <time>2016-09-06T07:52:06.000Z</time>
      </trkpt>
      <trkpt lat="47.29793" lon="6.23418">
        <ele>263.929</ele>
        <time>2016-09-06T07:52:07.000Z</time>
      </trkpt>
      <trkpt lat="47.29788" lon="6.23412">
        <ele>264.222</ele>
        <time>2016-09-06T07:52:08.000Z</time>
      </trkpt>
      <trkpt lat="47.29784" lon="6.23406">
        <ele>265.48</ele>
        <time>2016-09-06T07:52:09.000Z</time>
      </trkpt>
      <trkpt lat="47.29781" lon="6.23401">
        <ele>266.589</ele>
        <time>2016-09-06T07:52:10.000Z</time>
      </trkpt>
      <trkpt lat="47.29777" lon="6.23395">
        <ele>266.438</ele>
        <time>2016-09-06T07:52:11.000Z</time>
      </trkpt>
      <trkpt lat="47.29774" lon="6.23389">
        <ele>268.384</ele>
        <time>2016-09-06T07:52:12.000Z</time>
      </trkpt>
      <trkpt lat="47.29771" lon="6.23382">
        <ele>269.501</ele>
        <time>2016-09-06T07:52:13.000Z</time>
      </trkpt>
      <trkpt lat="47.29768" lon="6.23377">
        <ele>269.498</ele>
        <time>2016-09-06T07:52:14.000Z</time>
      </trkpt>
      <trkpt lat="47.29765" lon="6.23371">
        <ele>267.862</ele>
        <time>2016-09-06T07:52:15.000Z</time>
      </trkpt>
      <trkpt lat="47.29762" lon="6.23365">
        <ele>268.339</ele>
        <time>2016-09-06T07:52:16.000Z</time>
      </trkpt>
      <trkpt lat="47.29759" lon="6.2336">
        <ele>269.127</ele>
        <time>2016-09-06T07:52:17.000Z</time>
      </trkpt>
      <trkpt lat="47.29756" lon="6.23355">
        <ele>269.147</ele>
        <time>2016-09-06T07:52:18.000Z</time>
      </trkpt>
      <trkpt lat="47.29753" lon="6.23351">
        <ele>270.725</ele>
        <time>2016-09-06T07:52:19.000Z</time>
      </trkpt>
      <trkpt lat="47.2975" lon="6.23347">
        <ele>270.266</ele>
        <time>2016-09-06T07:52:20.000Z</time>
      </trkpt>
      <trkpt lat="47.29747" lon="6.23343">
        <ele>268.297</ele>
        <time>2016-09-06T07:52:21.000Z</time>
      </trkpt>
      <trkpt lat="47.29745" lon="6.23339">
        <ele>268.039</ele>
        <time>2016-09-06T07:52:22.000Z</time>
      </trkpt>
      <trkpt lat="47.29742" lon="6.23334">
        <ele>267.746</ele>
        <time>2016-09-06T07:52:23.000Z</time>
      </trkpt>
      <trkpt lat="47.29739" lon="6.23329">
        <ele>266.578</ele>
        <time>2016-09-06T07:52:24.000Z</time>
      </trkpt>
      <trkpt lat="47.29737" lon="6.23326">
        <ele>266.619</ele>
        <time>2016-09-06T07:52:25.000Z</time>
      </trkpt>
      <trkpt lat="47.29734" lon="6.23319">
        <ele>267.675</ele>
        <time>2016-09-06T07:52:26.000Z</time>
      </trkpt>
      <trkpt lat="47.29731" lon="6.23311">
        <ele>269.4</ele>
        <time>2016-09-06T07:52:27.000Z</time>
      </trkpt>
      <trkpt lat="47.29729" lon="6.23307">
        <ele>270.751</ele>
        <time>2016-09-06T07:52:28.000Z</time>
      </trkpt>
      <trkpt lat="47.29728" lon="6.23303">
        <ele>270.816</ele>
        <time>2016-09-06T07:52:29.000Z</time>
      </trkpt>
      <trkpt lat="47.29726" lon="6.23305">
        <ele>272.316</ele>
        <time>2016-09-06T07:52:30.000Z</time>
      </trkpt>
      <trkpt lat="47.29725" lon="6.23304">
        <ele>272.125</ele>
        <time>2016-09-06T07:52:31.000Z</time>
      </trkpt>
      <trkpt lat="47.29723" lon="6.23304">
        <ele>271.819</ele>
        <time>2016-09-06T07:52:32.000Z</time>
      </trkpt>
      <trkpt lat="47.2972" lon="6.23305">
        <ele>269.621</ele>
        <time>2016-09-06T07:52:33.000Z</time>
      </trkpt>
      <trkpt lat="47.29717" lon="6.23308">
        <ele>269.766</ele>
        <time>2016-09-06T07:52:34.000Z</time>
      </trkpt>
      <trkpt lat="47.29708" lon="6.23317">
        <ele>268.175</ele>
        <time>2016-09-06T07:52:35.000Z</time>
      </trkpt>
      <trkpt lat="47.29701" lon="6.23319">
        <ele>267.197</ele>
        <time>2016-09-06T07:52:36.000Z</time>
      </trkpt>
      <trkpt lat="47.29696" lon="6.23319">
        <ele>267.878</ele>
        <time>2016-09-06T07:52:37.000Z</time>
      </trkpt>
      <trkpt lat="47.29692" lon="6.23322">
        <ele>266.55</ele>
        <time>2016-09-06T07:52:38.000Z</time>
      </trkpt>
      <trkpt lat="47.29686" lon="6.23325">
        <ele>264.908</ele>
        <time>2016-09-06T07:52:39.000Z</time>
      </trkpt>
      <trkpt lat="47.2968" lon="6.23328">
        <ele>264.88</ele>
        <time>2016-09-06T07:52:40.000Z</time>
      </trkpt>
      <trkpt lat="47.29672" lon="6.23331">
        <ele>263.471</ele>
        <time>2016-09-06T07:52:41.000Z</time>
      </trkpt>
      <trkpt lat="47.29666" lon="6.23335">
        <ele>263.055</ele>
        <time>2016-09-06T07:52:42.000Z</time>
      </trkpt>
      <trkpt lat="47.2966" lon="6.23338">
        <ele>262.74</ele>
        <time>2016-09-06T07:52:43.000Z</time>
      </trkpt>
      <trkpt lat="47.29655" lon="6.23344">
        <ele>263.329</ele>
        <time>2016-09-06T07:52:44.000Z</time>
      </trkpt>
      <trkpt lat="47.2965" lon="6.23347">
        <ele>264.327</ele>
        <time>2016-09-06T07:52:45.000Z</time>
      </trkpt>
      <trkpt lat="47.29645" lon="6.23349">
        <ele>264.099</ele>
        <time>2016-09-06T07:52:46.000Z</time>
      </trkpt>
      <trkpt lat="47.29642" lon="6.23346">
        <ele>263.517</ele>
        <time>2016-09-06T07:52:47.000Z</time>
      </trkpt>
      <trkpt lat="47.2964" lon="6.23339">
        <ele>264.576</ele>
        <time>2016-09-06T07:52:48.000Z</time>
      </trkpt>
      <trkpt lat="47.29638" lon="6.23335">
        <ele>266.76</ele>
        <time>2016-09-06T07:52:49.000Z</time>
      </trkpt>
      <trkpt lat="47.29632" lon="6.23328">
        <ele>268.203</ele>
        <time>2016-09-06T07:52:50.000Z</time>
      </trkpt>
      <trkpt lat="47.29628" lon="6.23322">
        <ele>270.098</ele>
        <time>2016-09-06T07:52:51.000Z</time>
      </trkpt>
      <trkpt lat="47.29626" lon="6.23315">
        <ele>271.561</ele>
        <time>2016-09-06T07:52:52.000Z</time>
      </trkpt>
      <trkpt lat="47.29625" lon="6.23309">
        <ele>273.651</ele>
        <time>2016-09-06T07:52:53.000Z</time>
      </trkpt>
      <trkpt lat="47.29621" lon="6.23303">
        <ele>272.552</ele>
        <time>2016-09-06T07:52:54.000Z</time>
      </trkpt>
      <trkpt lat="47.29619" lon="6.23298">
        <ele>272.97</ele>
        <time>2016-09-06T07:52:55.000Z</time>
      </trkpt>
      <trkpt lat="47.29617" lon="6.23292">
        <ele>272.95</ele>
        <time>2016-09-06T07:52:56.000Z</time>
      </trkpt>
      <trkpt lat="47.29615" lon="6.23287">
        <ele>270.193</ele>
        <time>2016-09-06T07:52:57.000Z</time>
      </trkpt>
      <trkpt lat="47.29613" lon="6.23281">
        <ele>268.047</ele>
        <time>2016-09-06T07:52:58.000Z</time>
      </trkpt>
      <trkpt lat="47.2961" lon="6.23275">
        <ele>266.18</ele>
        <time>2016-09-06T07:52:59.000Z</time>
      </trkpt>
      <trkpt lat="47.29608" lon="6.23269">
        <ele>266.342</ele>
        <time>2016-09-06T07:53:00.000Z</time>
      </trkpt>
      <trkpt lat="47.29607" lon="6.23266">
        <ele>267.165</ele>
        <time>2016-09-06T07:53:01.000Z</time>
      </trkpt>
      <trkpt lat="47.29605" lon="6.2326">
        <ele>266.293</ele>
        <time>2016-09-06T07:53:02.000Z</time>
      </trkpt>
      <trkpt lat="47.29604" lon="6.23253">
        <ele>267.239</ele>
        <time>2016-09-06T07:53:03.000Z</time>
      </trkpt>
      <trkpt lat="47.29603" lon="6.23247">
        <ele>266.261</ele>
        <time>2016-09-06T07:53:04.000Z</time>
      </trkpt>
      <trkpt lat="47.29602" lon="6.2324">
        <ele>268.356</ele>
        <time>2016-09-06T07:53:05.000Z</time>
      </trkpt>
      <trkpt lat="47.296" lon="6.23232">
        <ele>266.796</ele>
        <time>2016-09-06T07:53:06.000Z</time>
      </trkpt>
      <trkpt lat="47.296" lon="6.23221">
        <ele>264.255</ele>
        <time>2016-09-06T07:53:07.000Z</time>
      </trkpt>
      <trkpt lat="47.29599" lon="6.23216">
        <ele>263.714</ele>
        <time>2016-09-06T07:53:08.000Z</time>
      </trkpt>
      <trkpt lat="47.29597" lon="6.23208">
        <ele>263.578</ele>
        <time>2016-09-06T07:53:09.000Z</time>
      </trkpt>
      <trkpt lat="47.29596" lon="6.23201">
        <ele>263.757</ele>
        <time>2016-09-06T07:53:10.000Z</time>
      </trkpt>
      <trkpt lat="47.29595" lon="6.23196">
        <ele>261.939</ele>
        <time>2016-09-06T07:53:11.000Z</time>
      </trkpt>
      <trkpt lat="47.29594" lon="6.23189">
        <ele>261.332</ele>
        <time>2016-09-06T07:53:12.000Z</time>
      </trkpt>
      <trkpt lat="47.29594" lon="6.23181">
        <ele>260.992</ele>
        <time>2016-09-06T07:53:13.000Z</time>
      </trkpt>
      <trkpt lat="47.29593" lon="6.23174">
        <ele>260.981</ele>
        <time>2016-09-06T07:53:14.000Z</time>
      </trkpt>
      <trkpt lat="47.29596" lon="6.2317">
        <ele>261.458</ele>
        <time>2016-09-06T07:53:15.000Z</time>
      </trkpt>
      <trkpt lat="47.29596" lon="6.23164">
        <ele>261.44</ele>
        <time>2016-09-06T07:53:16.000Z</time>
      </trkpt>
      <trkpt lat="47.29597" lon="6.23156">
        <ele>261.213</ele>
        <time>2016-09-06T07:53:17.000Z</time>
      </trkpt>
      <trkpt lat="47.29598" lon="6.23149">
        <ele>261.848</ele>
        <time>2016-09-06T07:53:18.000Z</time>
      </trkpt>
      <trkpt lat="47.29601" lon="6.2314">
        <ele>260.403</ele>
        <time>2016-09-06T07:53:19.000Z</time>
      </trkpt>
      <trkpt lat="47.296" lon="6.23136">
        <ele>260.181</ele>
        <time>2016-09-06T07:53:20.000Z</time>
      </trkpt>
      <trkpt lat="47.296" lon="6.23132">
        <ele>259.998</ele>
        <time>2016-09-06T07:53:21.000Z</time>
      </trkpt>
      <trkpt lat="47.29599" lon="6.23126">
        <ele>260.911</ele>
        <time>2016-09-06T07:53:22.000Z</time>
      </trkpt>
      <trkpt lat="47.296" lon="6.23118">
        <ele>264.097</ele>
        <time>2016-09-06T07:53:23.000Z</time>
      </trkpt>
      <trkpt lat="47.29601" lon="6.23111">
        <ele>263.951</ele>
        <time>2016-09-06T07:53:24.000Z</time>
      </trkpt>
      <trkpt lat="47.29602" lon="6.23104">
        <ele>262.769</ele>
        <time>2016-09-06T07:53:25.000Z</time>
      </trkpt>
      <trkpt lat="47.29603" lon="6.23097">
        <ele>262.583</ele>
        <time>2016-09-06T07:53:26.000Z</time>
      </trkpt>
      <trkpt lat="47.29604" lon="6.23089">
        <ele>262.545</ele>
        <time>2016-09-06T07:53:27.000Z</time>
      </trkpt>
      <trkpt lat="47.29606" lon="6.23082">
        <ele>261.05</ele>
        <time>2016-09-06T07:53:28.000Z</time>
      </trkpt>
      <trkpt lat="47.29607" lon="6.23074">
        <ele>261.623</ele>
        <time>2016-09-06T07:53:29.000Z</time>
      </trkpt>
      <trkpt lat="47.29608" lon="6.23067">
        <ele>262.661</ele>
        <time>2016-09-06T07:53:30.000Z</time>
      </trkpt>
      <trkpt lat="47.29608" lon="6.23061">
        <ele>262.194</ele>
        <time>2016-09-06T07:53:31.000Z</time>
      </trkpt>
      <trkpt lat="47.29608" lon="6.23054">
        <ele>261.869</ele>
        <time>2016-09-06T07:53:32.000Z</time>
      </trkpt>
      <trkpt lat="47.29608" lon="6.23047">
        <ele>261.006</ele>
        <time>2016-09-06T07:53:33.000Z</time>
      </trkpt>
      <trkpt lat="47.29609" lon="6.23041">
        <ele>261.53</ele>
        <time>2016-09-06T07:53:34.000Z</time>
      </trkpt>
      <trkpt lat="47.29608" lon="6.23037">
        <ele>261.663</ele>
        <time>2016-09-06T07:53:35.000Z</time>
      </trkpt>
      <trkpt lat="47.29609" lon="6.2303">
        <ele>261.631</ele>
        <time>2016-09-06T07:53:36.000Z</time>
      </trkpt>
      <trkpt lat="47.29611" lon="6.23023">
        <ele>260.444</ele>
        <time>2016-09-06T07:53:37.000Z</time>
      </trkpt>
      <trkpt lat="47.29612" lon="6.23018">
        <ele>260.166</ele>
        <time>2016-09-06T07:53:38.000Z</time>
      </trkpt>
      <trkpt lat="47.29612" lon="6.23009">
        <ele>261.168</ele>
        <time>2016-09-06T07:53:39.000Z</time>
      </trkpt>
      <trkpt lat="47.29613" lon="6.23003">
        <ele>262.689</ele>
        <time>2016-09-06T07:53:40.000Z</time>
      </trkpt>
      <trkpt lat="47.29611" lon="6.22998">
        <ele>262.673</ele>
        <time>2016-09-06T07:53:41.000Z</time>
      </trkpt>
      <trkpt lat="47.29613" lon="6.2299">
        <ele>264.376</ele>
        <time>2016-09-06T07:53:42.000Z</time>
      </trkpt>
      <trkpt lat="47.29613" lon="6.22983">
        <ele>264.005</ele>
        <time>2016-09-06T07:53:43.000Z</time>
      </trkpt>
      <trkpt lat="47.29615" lon="6.22975">
        <ele>264.544</ele>
        <time>2016-09-06T07:53:44.000Z</time>
      </trkpt>
      <trkpt lat="47.29615" lon="6.22969">
        <ele>264.383</ele>
        <time>2016-09-06T07:53:45.000Z</time>
      </trkpt>
      <trkpt lat="47.29617" lon="6.22963">
        <ele>262.399</ele>
        <time>2016-09-06T07:53:46.000Z</time>
      </trkpt>
      <trkpt lat="47.29618" lon="6.22957">
        <ele>262.592</ele>
        <time>2016-09-06T07:53:47.000Z</time>
      </trkpt>
      <trkpt lat="47.29619" lon="6.22952">
        <ele>260.75</ele>
        <time>2016-09-06T07:53:48.000Z</time>
      </trkpt>
      <trkpt lat="47.29619" lon="6.22946">
        <ele>260.13</ele>
        <time>2016-09-06T07:53:49.000Z</time>
      </trkpt>
      <trkpt lat="47.2962" lon="6.2294">
        <ele>258.72</ele>
        <time>2016-09-06T07:53:50.000Z</time>
      </trkpt>
      <trkpt lat="47.29621" lon="6.22934">
        <ele>258.026</ele>
        <time>2016-09-06T07:53:51.000Z</time>
      </trkpt>
      <trkpt lat="47.29622" lon="6.22929">
        <ele>257.864</ele>
        <time>2016-09-06T07:53:52.000Z</time>
      </trkpt>
      <trkpt lat="47.29623" lon="6.22923">
        <ele>259.226</ele>
        <time>2016-09-06T07:53:53.000Z</time>
      </trkpt>
      <trkpt lat="47.29625" lon="6.22917">
        <ele>259.358</ele>
        <time>2016-09-06T07:53:54.000Z</time>
      </trkpt>
      <trkpt lat="47.29627" lon="6.22911">
        <ele>259.575</ele>
        <time>2016-09-06T07:53:55.000Z</time>
      </trkpt>
      <trkpt lat="47.2963" lon="6.22905">
        <ele>262.017</ele>
        <time>2016-09-06T07:53:56.000Z</time>
      </trkpt>
      <trkpt lat="47.29632" lon="6.22898">
        <ele>265.35</ele>
        <time>2016-09-06T07:53:57.000Z</time>
      </trkpt>
      <trkpt lat="47.29634" lon="6.22892">
        <ele>268.151</ele>
        <time>2016-09-06T07:53:58.000Z</time>
      </trkpt>
      <trkpt lat="47.29636" lon="6.22886">
        <ele>269.232</ele>
        <time>2016-09-06T07:53:59.000Z</time>
      </trkpt>
      <trkpt lat="47.29639" lon="6.22881">
        <ele>269.436</ele>
        <time>2016-09-06T07:54:00.000Z</time>
      </trkpt>
      <trkpt lat="47.29643" lon="6.22872">
        <ele>269.752</ele>
        <time>2016-09-06T07:54:01.000Z</time>
      </trkpt>
      <trkpt lat="47.29648" lon="6.22871">
        <ele>269.598</ele>
        <time>2016-09-06T07:54:02.004Z</time>
      </trkpt>
      <trkpt lat="47.29651" lon="6.22864">
        <ele>268.571</ele>
        <time>2016-09-06T07:54:03.000Z</time>
      </trkpt>
      <trkpt lat="47.29652" lon="6.2286">
        <ele>269.429</ele>
        <time>2016-09-06T07:54:04.000Z</time>
      </trkpt>
      <trkpt lat="47.29656" lon="6.22855">
        <ele>266.938</ele>
        <time>2016-09-06T07:54:05.000Z</time>
      </trkpt>
      <trkpt lat="47.29657" lon="6.22851">
        <ele>266.612</ele>
        <time>2016-09-06T07:54:06.000Z</time>
      </trkpt>
      <trkpt lat="47.2966" lon="6.22847">
        <ele>266.508</ele>
        <time>2016-09-06T07:54:07.000Z</time>
      </trkpt>
      <trkpt lat="47.29663" lon="6.22841">
        <ele>266.953</ele>
        <time>2016-09-06T07:54:08.000Z</time>
      </trkpt>
      <trkpt lat="47.29664" lon="6.22835">
        <ele>267.332</ele>
        <time>2016-09-06T07:54:09.000Z</time>
      </trkpt>
      <trkpt lat="47.29667" lon="6.22831">
        <ele>267.704</ele>
        <time>2016-09-06T07:54:10.000Z</time>
      </trkpt>
      <trkpt lat="47.29669" lon="6.22827">
        <ele>267.384</ele>
        <time>2016-09-06T07:54:11.000Z</time>
      </trkpt>
      <trkpt lat="47.29671" lon="6.22822">
        <ele>266.248</ele>
        <time>2016-09-06T07:54:12.000Z</time>
      </trkpt>
      <trkpt lat="47.29673" lon="6.22818">
        <ele>265.715</ele>
        <time>2016-09-06T07:54:13.000Z</time>
      </trkpt>
      <trkpt lat="47.29676" lon="6.22813">
        <ele>265.708</ele>
        <time>2016-09-06T07:54:14.000Z</time>
      </trkpt>
      <trkpt lat="47.29678" lon="6.22808">
        <ele>265.794</ele>
        <time>2016-09-06T07:54:15.000Z</time>
      </trkpt>
      <trkpt lat="47.2968" lon="6.22803">
        <ele>265.99</ele>
        <time>2016-09-06T07:54:16.000Z</time>
      </trkpt>
      <trkpt lat="47.29682" lon="6.22799">
        <ele>266.728</ele>
        <time>2016-09-06T07:54:17.000Z</time>
      </trkpt>
      <trkpt lat="47.29684" lon="6.22794">
        <ele>266.858</ele>
        <time>2016-09-06T07:54:18.000Z</time>
      </trkpt>
      <trkpt lat="47.29686" lon="6.22789">
        <ele>267.075</ele>
        <time>2016-09-06T07:54:19.000Z</time>
      </trkpt>
      <trkpt lat="47.29688" lon="6.22782">
        <ele>267.292</ele>
        <time>2016-09-06T07:54:20.000Z</time>
      </trkpt>
      <trkpt lat="47.29691" lon="6.22776">
        <ele>266.906</ele>
        <time>2016-09-06T07:54:21.000Z</time>
      </trkpt>
      <trkpt lat="47.29693" lon="6.22771">
        <ele>266.546</ele>
        <time>2016-09-06T07:54:22.000Z</time>
      </trkpt>
      <trkpt lat="47.29696" lon="6.22765">
        <ele>266.565</ele>
        <time>2016-09-06T07:54:23.000Z</time>
      </trkpt>
      <trkpt lat="47.29699" lon="6.22759">
        <ele>266.418</ele>
        <time>2016-09-06T07:54:24.000Z</time>
      </trkpt>
      <trkpt lat="47.29702" lon="6.22754">
        <ele>266.627</ele>
        <time>2016-09-06T07:54:25.000Z</time>
      </trkpt>
      <trkpt lat="47.29704" lon="6.22748">
        <ele>265.028</ele>
        <time>2016-09-06T07:54:26.000Z</time>
      </trkpt>
      <trkpt lat="47.29707" lon="6.22743">
        <ele>263.334</ele>
        <time>2016-09-06T07:54:27.000Z</time>
      </trkpt>
      <trkpt lat="47.2971" lon="6.22738">
        <ele>261.98</ele>
        <time>2016-09-06T07:54:28.000Z</time>
      </trkpt>
      <trkpt lat="47.29713" lon="6.22732">
        <ele>261.28</ele>
        <time>2016-09-06T07:54:29.000Z</time>
      </trkpt>
      <trkpt lat="47.29715" lon="6.22727">
        <ele>261.164</ele>
        <time>2016-09-06T07:54:30.000Z</time>
      </trkpt>
      <trkpt lat="47.29718" lon="6.22721">
        <ele>262.256</ele>
        <time>2016-09-06T07:54:31.000Z</time>
      </trkpt>
      <trkpt lat="47.2972" lon="6.22716">
        <ele>261.876</ele>
        <time>2016-09-06T07:54:32.000Z</time>
      </trkpt>
      <trkpt lat="47.29723" lon="6.2271">
        <ele>262.017</ele>
        <time>2016-09-06T07:54:33.000Z</time>
      </trkpt>
      <trkpt lat="47.29725" lon="6.22705">
        <ele>262.574</ele>
        <time>2016-09-06T07:54:34.000Z</time>
      </trkpt>
      <trkpt lat="47.29728" lon="6.227">
        <ele>262.357</ele>
        <time>2016-09-06T07:54:35.000Z</time>
      </trkpt>
      <trkpt lat="47.2973" lon="6.22695">
        <ele>262.194</ele>
        <time>2016-09-06T07:54:36.000Z</time>
      </trkpt>
      <trkpt lat="47.29733" lon="6.22689">
        <ele>263.206</ele>
        <time>2016-09-06T07:54:37.000Z</time>
      </trkpt>
      <trkpt lat="47.29735" lon="6.22684">
        <ele>263.375</ele>
        <time>2016-09-06T07:54:38.000Z</time>
      </trkpt>
      <trkpt lat="47.29737" lon="6.22679">
        <ele>262.303</ele>
        <time>2016-09-06T07:54:39.000Z</time>
      </trkpt>
      <trkpt lat="47.2974" lon="6.22674">
        <ele>263.053</ele>
        <time>2016-09-06T07:54:40.000Z</time>
      </trkpt>
      <trkpt lat="47.29742" lon="6.22669">
        <ele>263.556</ele>
        <time>2016-09-06T07:54:41.000Z</time>
      </trkpt>
      <trkpt lat="47.29744" lon="6.22664">
        <ele>262.932</ele>
        <time>2016-09-06T07:54:42.000Z</time>
      </trkpt>
      <trkpt lat="47.29746" lon="6.22658">
        <ele>261.894</ele>
        <time>2016-09-06T07:54:43.000Z</time>
      </trkpt>
      <trkpt lat="47.29749" lon="6.22652">
        <ele>261.723</ele>
        <time>2016-09-06T07:54:44.000Z</time>
      </trkpt>
      <trkpt lat="47.29751" lon="6.22647">
        <ele>261.211</ele>
        <time>2016-09-06T07:54:45.000Z</time>
      </trkpt>
      <trkpt lat="47.29753" lon="6.22641">
        <ele>261.372</ele>
        <time>2016-09-06T07:54:46.000Z</time>
      </trkpt>
      <trkpt lat="47.29756" lon="6.22634">
        <ele>260.907</ele>
        <time>2016-09-06T07:54:47.000Z</time>
      </trkpt>
      <trkpt lat="47.29759" lon="6.22629">
        <ele>260.421</ele>
        <time>2016-09-06T07:54:48.000Z</time>
      </trkpt>
      <trkpt lat="47.29762" lon="6.22623">
        <ele>260.956</ele>
        <time>2016-09-06T07:54:49.000Z</time>
      </trkpt>
      <trkpt lat="47.29764" lon="6.22616">
        <ele>260.764</ele>
        <time>2016-09-06T07:54:50.000Z</time>
      </trkpt>
      <trkpt lat="47.29767" lon="6.22609">
        <ele>260.001</ele>
        <time>2016-09-06T07:54:51.000Z</time>
      </trkpt>
      <trkpt lat="47.29769" lon="6.22601">
        <ele>259.313</ele>
        <time>2016-09-06T07:54:52.000Z</time>
      </trkpt>
      <trkpt lat="47.29771" lon="6.22595">
        <ele>258.668</ele>
        <time>2016-09-06T07:54:53.000Z</time>
      </trkpt>
      <trkpt lat="47.29773" lon="6.2259">
        <ele>258.143</ele>
        <time>2016-09-06T07:54:54.000Z</time>
      </trkpt>
      <trkpt lat="47.29777" lon="6.22586">
        <ele>256.324</ele>
        <time>2016-09-06T07:54:55.000Z</time>
      </trkpt>
      <trkpt lat="47.29779" lon="6.2258">
        <ele>255.581</ele>
        <time>2016-09-06T07:54:56.000Z</time>
      </trkpt>
      <trkpt lat="47.29781" lon="6.22574">
        <ele>257.019</ele>
        <time>2016-09-06T07:54:57.000Z</time>
      </trkpt>
      <trkpt lat="47.29783" lon="6.22566">
        <ele>257.106</ele>
        <time>2016-09-06T07:54:58.000Z</time>
      </trkpt>
      <trkpt lat="47.29784" lon="6.2256">
        <ele>256.907</ele>
        <time>2016-09-06T07:54:59.000Z</time>
      </trkpt>
      <trkpt lat="47.29786" lon="6.22553">
        <ele>256.803</ele>
        <time>2016-09-06T07:55:00.000Z</time>
      </trkpt>
      <trkpt lat="47.29788" lon="6.22548">
        <ele>257.118</ele>
        <time>2016-09-06T07:55:01.000Z</time>
      </trkpt>
      <trkpt lat="47.29789" lon="6.22542">
        <ele>258.052</ele>
        <time>2016-09-06T07:55:02.000Z</time>
      </trkpt>
      <trkpt lat="47.2979" lon="6.22535">
        <ele>259.817</ele>
        <time>2016-09-06T07:55:03.000Z</time>
      </trkpt>
      <trkpt lat="47.29792" lon="6.22528">
        <ele>260.038</ele>
        <time>2016-09-06T07:55:04.000Z</time>
      </trkpt>
      <trkpt lat="47.29794" lon="6.22521">
        <ele>259.528</ele>
        <time>2016-09-06T07:55:05.000Z</time>
      </trkpt>
      <trkpt lat="47.29798" lon="6.22517">
        <ele>259.457</ele>
        <time>2016-09-06T07:55:06.000Z</time>
      </trkpt>
      <trkpt lat="47.29802" lon="6.22515">
        <ele>258.716</ele>
        <time>2016-09-06T07:55:07.000Z</time>
      </trkpt>
      <trkpt lat="47.29803" lon="6.22507">
        <ele>258.716</ele>
        <time>2016-09-06T07:55:08.000Z</time>
      </trkpt>
      <trkpt lat="47.29805" lon="6.22501">
        <ele>258.454</ele>
        <time>2016-09-06T07:55:09.000Z</time>
      </trkpt>
      <trkpt lat="47.29806" lon="6.22495">
        <ele>258.361</ele>
        <time>2016-09-06T07:55:10.000Z</time>
      </trkpt>
      <trkpt lat="47.29807" lon="6.22491">
        <ele>256.999</ele>
        <time>2016-09-06T07:55:11.000Z</time>
      </trkpt>
      <trkpt lat="47.29809" lon="6.22484">
        <ele>258.602</ele>
        <time>2016-09-06T07:55:12.000Z</time>
      </trkpt>
      <trkpt lat="47.2981" lon="6.22477">
        <ele>258.885</ele>
        <time>2016-09-06T07:55:13.000Z</time>
      </trkpt>
      <trkpt lat="47.29811" lon="6.22469">
        <ele>257.636</ele>
        <time>2016-09-06T07:55:14.000Z</time>
      </trkpt>
      <trkpt lat="47.29812" lon="6.22462">
        <ele>257.341</ele>
        <time>2016-09-06T07:55:15.000Z</time>
      </trkpt>
      <trkpt lat="47.29813" lon="6.22455">
        <ele>257.423</ele>
        <time>2016-09-06T07:55:16.000Z</time>
      </trkpt>
      <trkpt lat="47.29815" lon="6.22448">
        <ele>256.815</ele>
        <time>2016-09-06T07:55:17.000Z</time>
      </trkpt>
      <trkpt lat="47.29817" lon="6.2244">
        <ele>258.217</ele>
        <time>2016-09-06T07:55:18.000Z</time>
      </trkpt>
      <trkpt lat="47.29817" lon="6.22434">
        <ele>257.885</ele>
        <time>2016-09-06T07:55:19.000Z</time>
      </trkpt>
      <trkpt lat="47.29819" lon="6.22427">
        <ele>257.743</ele>
        <time>2016-09-06T07:55:20.000Z</time>
      </trkpt>
      <trkpt lat="47.29821" lon="6.22422">
        <ele>258.481</ele>
        <time>2016-09-06T07:55:21.000Z</time>
      </trkpt>
      <trkpt lat="47.29825" lon="6.22415">
        <ele>258.133</ele>
        <time>2016-09-06T07:55:22.000Z</time>
      </trkpt>
      <trkpt lat="47.29825" lon="6.22408">
        <ele>258.291</ele>
        <time>2016-09-06T07:55:23.000Z</time>
      </trkpt>
      <trkpt lat="47.29828" lon="6.22403">
        <ele>257.399</ele>
        <time>2016-09-06T07:55:24.000Z</time>
      </trkpt>
      <trkpt lat="47.29827" lon="6.22397">
        <ele>257.013</ele>
        <time>2016-09-06T07:55:25.000Z</time>
      </trkpt>
      <trkpt lat="47.29829" lon="6.2239">
        <ele>256.902</ele>
        <time>2016-09-06T07:55:26.000Z</time>
      </trkpt>
      <trkpt lat="47.29831" lon="6.22383">
        <ele>258.033</ele>
        <time>2016-09-06T07:55:27.000Z</time>
      </trkpt>
      <trkpt lat="47.29831" lon="6.22378">
        <ele>256.675</ele>
        <time>2016-09-06T07:55:28.000Z</time>
      </trkpt>
      <trkpt lat="47.29833" lon="6.22371">
        <ele>257.832</ele>
        <time>2016-09-06T07:55:29.000Z</time>
      </trkpt>
      <trkpt lat="47.29834" lon="6.22365">
        <ele>258.275</ele>
        <time>2016-09-06T07:55:30.000Z</time>
      </trkpt>
      <trkpt lat="47.29835" lon="6.22359">
        <ele>257.639</ele>
        <time>2016-09-06T07:55:31.000Z</time>
      </trkpt>
      <trkpt lat="47.29836" lon="6.22353">
        <ele>257.281</ele>
        <time>2016-09-06T07:55:32.000Z</time>
      </trkpt>
      <trkpt lat="47.29837" lon="6.22347">
        <ele>257.055</ele>
        <time>2016-09-06T07:55:33.000Z</time>
      </trkpt>
      <trkpt lat="47.29838" lon="6.22341">
        <ele>256.572</ele>
        <time>2016-09-06T07:55:34.000Z</time>
      </trkpt>
      <trkpt lat="47.2984" lon="6.22334">
        <ele>256.771</ele>
        <time>2016-09-06T07:55:35.000Z</time>
      </trkpt>
      <trkpt lat="47.29841" lon="6.22327">
        <ele>256.581</ele>
        <time>2016-09-06T07:55:36.000Z</time>
      </trkpt>
      <trkpt lat="47.29845" lon="6.2232">
        <ele>257.501</ele>
        <time>2016-09-06T07:55:37.000Z</time>
      </trkpt>
      <trkpt lat="47.29846" lon="6.22314">
        <ele>257.27</ele>
        <time>2016-09-06T07:55:38.000Z</time>
      </trkpt>
      <trkpt lat="47.29846" lon="6.22307">
        <ele>256.486</ele>
        <time>2016-09-06T07:55:39.000Z</time>
      </trkpt>
      <trkpt lat="47.2985" lon="6.22301">
        <ele>256.695</ele>
        <time>2016-09-06T07:55:40.000Z</time>
      </trkpt>
      <trkpt lat="47.29853" lon="6.22295">
        <ele>256.896</ele>
        <time>2016-09-06T07:55:41.000Z</time>
      </trkpt>
      <trkpt lat="47.29855" lon="6.22287">
        <ele>257.542</ele>
        <time>2016-09-06T07:55:42.000Z</time>
      </trkpt>
      <trkpt lat="47.29855" lon="6.22282">
        <ele>256.085</ele>
        <time>2016-09-06T07:55:43.000Z</time>
      </trkpt>
      <trkpt lat="47.29855" lon="6.22275">
        <ele>255.565</ele>
        <time>2016-09-06T07:55:44.000Z</time>
      </trkpt>
      <trkpt lat="47.29857" lon="6.22268">
        <ele>255.286</ele>
        <time>2016-09-06T07:55:45.000Z</time>
      </trkpt>
      <trkpt lat="47.29859" lon="6.22261">
        <ele>254.208</ele>
        <time>2016-09-06T07:55:46.000Z</time>
      </trkpt>
      <trkpt lat="47.29861" lon="6.22255">
        <ele>253.163</ele>
        <time>2016-09-06T07:55:47.000Z</time>
      </trkpt>
      <trkpt lat="47.29861" lon="6.22248">
        <ele>254.203</ele>
        <time>2016-09-06T07:55:48.000Z</time>
      </trkpt>
      <trkpt lat="47.29864" lon="6.22243">
        <ele>253.204</ele>
        <time>2016-09-06T07:55:49.000Z</time>
      </trkpt>
      <trkpt lat="47.29866" lon="6.22236">
        <ele>253.249</ele>
        <time>2016-09-06T07:55:50.000Z</time>
      </trkpt>
      <trkpt lat="47.29867" lon="6.22229">
        <ele>252.011</ele>
        <time>2016-09-06T07:55:51.000Z</time>
      </trkpt>
      <trkpt lat="47.2987" lon="6.22223">
        <ele>252.678</ele>
        <time>2016-09-06T07:55:52.000Z</time>
      </trkpt>
      <trkpt lat="47.29872" lon="6.22217">
        <ele>252.978</ele>
        <time>2016-09-06T07:55:53.000Z</time>
      </trkpt>
      <trkpt lat="47.29873" lon="6.22209">
        <ele>253.271</ele>
        <time>2016-09-06T07:55:54.000Z</time>
      </trkpt>
      <trkpt lat="47.29875" lon="6.22203">
        <ele>253.755</ele>
        <time>2016-09-06T07:55:55.000Z</time>
      </trkpt>
      <trkpt lat="47.29877" lon="6.22196">
        <ele>254.34</ele>
        <time>2016-09-06T07:55:56.000Z</time>
      </trkpt>
      <trkpt lat="47.29879" lon="6.2219">
        <ele>254.944</ele>
        <time>2016-09-06T07:55:57.000Z</time>
      </trkpt>
      <trkpt lat="47.29881" lon="6.22182">
        <ele>254.991</ele>
        <time>2016-09-06T07:55:58.000Z</time>
      </trkpt>
      <trkpt lat="47.29883" lon="6.22176">
        <ele>255.58</ele>
        <time>2016-09-06T07:55:59.000Z</time>
      </trkpt>
      <trkpt lat="47.29885" lon="6.22168">
        <ele>254.322</ele>
        <time>2016-09-06T07:56:00.000Z</time>
      </trkpt>
      <trkpt lat="47.29886" lon="6.22162">
        <ele>253.894</ele>
        <time>2016-09-06T07:56:01.000Z</time>
      </trkpt>
      <trkpt lat="47.2989" lon="6.22157">
        <ele>253.95</ele>
        <time>2016-09-06T07:56:02.000Z</time>
      </trkpt>
      <trkpt lat="47.29895" lon="6.22153">
        <ele>253.919</ele>
        <time>2016-09-06T07:56:03.000Z</time>
      </trkpt>
      <trkpt lat="47.29899" lon="6.22152">
        <ele>252.783</ele>
        <time>2016-09-06T07:56:04.000Z</time>
      </trkpt>
      <trkpt lat="47.29902" lon="6.22149">
        <ele>253.219</ele>
        <time>2016-09-06T07:56:05.000Z</time>
      </trkpt>
      <trkpt lat="47.29903" lon="6.22145">
        <ele>253.702</ele>
        <time>2016-09-06T07:56:06.000Z</time>
      </trkpt>
      <trkpt lat="47.29905" lon="6.22141">
        <ele>253.004</ele>
        <time>2016-09-06T07:56:07.000Z</time>
      </trkpt>
      <trkpt lat="47.29906" lon="6.22136">
        <ele>253.885</ele>
        <time>2016-09-06T07:56:08.000Z</time>
      </trkpt>
      <trkpt lat="47.29907" lon="6.22131">
        <ele>253.772</ele>
        <time>2016-09-06T07:56:09.000Z</time>
      </trkpt>
      <trkpt lat="47.29909" lon="6.22127">
        <ele>254.147</ele>
        <time>2016-09-06T07:56:10.000Z</time>
      </trkpt>
      <trkpt lat="47.29911" lon="6.22123">
        <ele>254.091</ele>
        <time>2016-09-06T07:56:11.000Z</time>
      </trkpt>
      <trkpt lat="47.29914" lon="6.22119">
        <ele>254.611</ele>
        <time>2016-09-06T07:56:12.000Z</time>
      </trkpt>
      <trkpt lat="47.29916" lon="6.22113">
        <ele>255.778</ele>
        <time>2016-09-06T07:56:13.000Z</time>
      </trkpt>
      <trkpt lat="47.29918" lon="6.22108">
        <ele>255.608</ele>
        <time>2016-09-06T07:56:14.000Z</time>
      </trkpt>
      <trkpt lat="47.29921" lon="6.22104">
        <ele>255.591</ele>
        <time>2016-09-06T07:56:15.000Z</time>
      </trkpt>
      <trkpt lat="47.29923" lon="6.22099">
        <ele>255.338</ele>
        <time>2016-09-06T07:56:16.000Z</time>
      </trkpt>
      <trkpt lat="47.29926" lon="6.22093">
        <ele>255.311</ele>
        <time>2016-09-06T07:56:17.000Z</time>
      </trkpt>
      <trkpt lat="47.29928" lon="6.22088">
        <ele>255.338</ele>
        <time>2016-09-06T07:56:18.000Z</time>
      </trkpt>
      <trkpt lat="47.29931" lon="6.22083">
        <ele>255.249</ele>
        <time>2016-09-06T07:56:19.000Z</time>
      </trkpt>
      <trkpt lat="47.29934" lon="6.22078">
        <ele>255.075</ele>
        <time>2016-09-06T07:56:20.000Z</time>
      </trkpt>
      <trkpt lat="47.29938" lon="6.22074">
        <ele>254.284</ele>
        <time>2016-09-06T07:56:21.000Z</time>
      </trkpt>
      <trkpt lat="47.29941" lon="6.22073">
        <ele>253.78</ele>
        <time>2016-09-06T07:56:22.000Z</time>
      </trkpt>
      <trkpt lat="47.29943" lon="6.2207">
        <ele>254.406</ele>
        <time>2016-09-06T07:56:23.000Z</time>
      </trkpt>
      <trkpt lat="47.29946" lon="6.22067">
        <ele>254.516</ele>
        <time>2016-09-06T07:56:24.000Z</time>
      </trkpt>
      <trkpt lat="47.29949" lon="6.22063">
        <ele>254.52</ele>
        <time>2016-09-06T07:56:25.000Z</time>
      </trkpt>
      <trkpt lat="47.29951" lon="6.22059">
        <ele>254.401</ele>
        <time>2016-09-06T07:56:26.000Z</time>
      </trkpt>
      <trkpt lat="47.29953" lon="6.22055">
        <ele>254.367</ele>
        <time>2016-09-06T07:56:27.000Z</time>
      </trkpt>
      <trkpt lat="47.29954" lon="6.22051">
        <ele>256.836</ele>
        <time>2016-09-06T07:56:28.000Z</time>
      </trkpt>
      <trkpt lat="47.29956" lon="6.22048">
        <ele>257.061</ele>
        <time>2016-09-06T07:56:29.000Z</time>
      </trkpt>
      <trkpt lat="47.29958" lon="6.22044">
        <ele>257.044</ele>
        <time>2016-09-06T07:56:30.000Z</time>
      </trkpt>
      <trkpt lat="47.2996" lon="6.2204">
        <ele>256.913</ele>
        <time>2016-09-06T07:56:31.000Z</time>
      </trkpt>
      <trkpt lat="47.29962" lon="6.22036">
        <ele>256.48</ele>
        <time>2016-09-06T07:56:32.000Z</time>
      </trkpt>
      <trkpt lat="47.29965" lon="6.22031">
        <ele>260.319</ele>
        <time>2016-09-06T07:56:33.000Z</time>
      </trkpt>
      <trkpt lat="47.29967" lon="6.22026">
        <ele>260.497</ele>
        <time>2016-09-06T07:56:34.000Z</time>
      </trkpt>
      <trkpt lat="47.29969" lon="6.22021">
        <ele>259.865</ele>
        <time>2016-09-06T07:56:35.000Z</time>
      </trkpt>
      <trkpt lat="47.29972" lon="6.22016">
        <ele>259.775</ele>
        <time>2016-09-06T07:56:36.000Z</time>
      </trkpt>
      <trkpt lat="47.29974" lon="6.22011">
        <ele>260.562</ele>
        <time>2016-09-06T07:56:37.000Z</time>
      </trkpt>
      <trkpt lat="47.29977" lon="6.22006">
        <ele>260.599</ele>
        <time>2016-09-06T07:56:38.000Z</time>
      </trkpt>
      <trkpt lat="47.2998" lon="6.22001">
        <ele>259.18</ele>
        <time>2016-09-06T07:56:39.000Z</time>
      </trkpt>
      <trkpt lat="47.29985" lon="6.21998">
        <ele>257.365</ele>
        <time>2016-09-06T07:56:40.000Z</time>
      </trkpt>
      <trkpt lat="47.29989" lon="6.21995">
        <ele>256.154</ele>
        <time>2016-09-06T07:56:41.000Z</time>
      </trkpt>
      <trkpt lat="47.29993" lon="6.21993">
        <ele>259.688</ele>
        <time>2016-09-06T07:56:42.000Z</time>
      </trkpt>
      <trkpt lat="47.29997" lon="6.21991">
        <ele>259.103</ele>
        <time>2016-09-06T07:56:43.000Z</time>
      </trkpt>
      <trkpt lat="47.30001" lon="6.21988">
        <ele>260.383</ele>
        <time>2016-09-06T07:56:44.000Z</time>
      </trkpt>
      <trkpt lat="47.30004" lon="6.21984">
        <ele>260.758</ele>
        <time>2016-09-06T07:56:45.000Z</time>
      </trkpt>
      <trkpt lat="47.30007" lon="6.2198">
        <ele>260.844</ele>
        <time>2016-09-06T07:56:46.000Z</time>
      </trkpt>
      <trkpt lat="47.3001" lon="6.21975">
        <ele>259.83</ele>
        <time>2016-09-06T07:56:47.000Z</time>
      </trkpt>
      <trkpt lat="47.30012" lon="6.2197">
        <ele>260.846</ele>
        <time>2016-09-06T07:56:48.000Z</time>
      </trkpt>
      <trkpt lat="47.30014" lon="6.21965">
        <ele>260.811</ele>
        <time>2016-09-06T07:56:49.000Z</time>
      </trkpt>
      <trkpt lat="47.30017" lon="6.21959">
        <ele>257.266</ele>
        <time>2016-09-06T07:56:50.000Z</time>
      </trkpt>
      <trkpt lat="47.30019" lon="6.21955">
        <ele>257.391</ele>
        <time>2016-09-06T07:56:51.000Z</time>
      </trkpt>
      <trkpt lat="47.30021" lon="6.2195">
        <ele>257.359</ele>
        <time>2016-09-06T07:56:52.000Z</time>
      </trkpt>
      <trkpt lat="47.30023" lon="6.21945">
        <ele>257.202</ele>
        <time>2016-09-06T07:56:53.000Z</time>
      </trkpt>
      <trkpt lat="47.30025" lon="6.21941">
        <ele>256.996</ele>
        <time>2016-09-06T07:56:54.000Z</time>
      </trkpt>
      <trkpt lat="47.30028" lon="6.21936">
        <ele>257.1</ele>
        <time>2016-09-06T07:56:55.000Z</time>
      </trkpt>
      <trkpt lat="47.30031" lon="6.21931">
        <ele>257.571</ele>
        <time>2016-09-06T07:56:56.000Z</time>
      </trkpt>
      <trkpt lat="47.30033" lon="6.21926">
        <ele>257.421</ele>
        <time>2016-09-06T07:56:57.000Z</time>
      </trkpt>
      <trkpt lat="47.30036" lon="6.21921">
        <ele>256.987</ele>
        <time>2016-09-06T07:56:58.000Z</time>
      </trkpt>
      <trkpt lat="47.30039" lon="6.21916">
        <ele>256.476</ele>
        <time>2016-09-06T07:56:59.000Z</time>
      </trkpt>
      <trkpt lat="47.30042" lon="6.2191">
        <ele>256.416</ele>
        <time>2016-09-06T07:57:00.000Z</time>
      </trkpt>
      <trkpt lat="47.30045" lon="6.21905">
        <ele>256.642</ele>
        <time>2016-09-06T07:57:01.000Z</time>
      </trkpt>
      <trkpt lat="47.30047" lon="6.219">
        <ele>256.696</ele>
        <time>2016-09-06T07:57:02.000Z</time>
      </trkpt>
      <trkpt lat="47.30049" lon="6.21896">
        <ele>256.983</ele>
        <time>2016-09-06T07:57:03.000Z</time>
      </trkpt>
      <trkpt lat="47.30051" lon="6.21891">
        <ele>256.864</ele>
        <time>2016-09-06T07:57:04.000Z</time>
      </trkpt>
      <trkpt lat="47.30053" lon="6.21886">
        <ele>256.361</ele>
        <time>2016-09-06T07:57:05.000Z</time>
      </trkpt>
      <trkpt lat="47.30056" lon="6.21881">
        <ele>256.864</ele>
        <time>2016-09-06T07:57:06.000Z</time>
      </trkpt>
      <trkpt lat="47.30058" lon="6.21876">
        <ele>256.483</ele>
        <time>2016-09-06T07:57:07.000Z</time>
      </trkpt>
      <trkpt lat="47.3006" lon="6.21872">
        <ele>255.961</ele>
        <time>2016-09-06T07:57:08.000Z</time>
      </trkpt>
      <trkpt lat="47.30063" lon="6.21867">
        <ele>255.893</ele>
        <time>2016-09-06T07:57:09.000Z</time>
      </trkpt>
      <trkpt lat="47.30067" lon="6.21862">
        <ele>256.124</ele>
        <time>2016-09-06T07:57:10.000Z</time>
      </trkpt>
      <trkpt lat="47.3007" lon="6.21858">
        <ele>255.155</ele>
        <time>2016-09-06T07:57:11.000Z</time>
      </trkpt>
      <trkpt lat="47.30073" lon="6.21853">
        <ele>254.921</ele>
        <time>2016-09-06T07:57:12.000Z</time>
      </trkpt>
      <trkpt lat="47.30075" lon="6.21849">
        <ele>254.95</ele>
        <time>2016-09-06T07:57:13.000Z</time>
      </trkpt>
      <trkpt lat="47.30078" lon="6.21845">
        <ele>255.028</ele>
        <time>2016-09-06T07:57:14.000Z</time>
      </trkpt>
      <trkpt lat="47.30082" lon="6.21841">
        <ele>254.941</ele>
        <time>2016-09-06T07:57:15.000Z</time>
      </trkpt>
      <trkpt lat="47.30085" lon="6.21837">
        <ele>254.796</ele>
        <time>2016-09-06T07:57:16.000Z</time>
      </trkpt>
      <trkpt lat="47.30088" lon="6.21832">
        <ele>254.98</ele>
        <time>2016-09-06T07:57:17.000Z</time>
      </trkpt>
      <trkpt lat="47.30091" lon="6.21828">
        <ele>255.104</ele>
        <time>2016-09-06T07:57:18.000Z</time>
      </trkpt>
      <trkpt lat="47.30095" lon="6.21823">
        <ele>254.774</ele>
        <time>2016-09-06T07:57:19.000Z</time>
      </trkpt>
      <trkpt lat="47.30098" lon="6.21817">
        <ele>254.84</ele>
        <time>2016-09-06T07:57:20.000Z</time>
      </trkpt>
      <trkpt lat="47.30102" lon="6.21812">
        <ele>254.85</ele>
        <time>2016-09-06T07:57:21.000Z</time>
      </trkpt>
      <trkpt lat="47.30105" lon="6.21807">
        <ele>255.182</ele>
        <time>2016-09-06T07:57:22.000Z</time>
      </trkpt>
      <trkpt lat="47.30106" lon="6.21803">
        <ele>255.267</ele>
        <time>2016-09-06T07:57:23.000Z</time>
      </trkpt>
      <trkpt lat="47.30108" lon="6.21799">
        <ele>255.108</ele>
        <time>2016-09-06T07:57:24.000Z</time>
      </trkpt>
      <trkpt lat="47.30111" lon="6.21794">
        <ele>254.995</ele>
        <time>2016-09-06T07:57:25.000Z</time>
      </trkpt>
      <trkpt lat="47.30114" lon="6.21787">
        <ele>254.854</ele>
        <time>2016-09-06T07:57:26.000Z</time>
      </trkpt>
      <trkpt lat="47.30115" lon="6.21786">
        <ele>254.686</ele>
        <time>2016-09-06T07:57:27.000Z</time>
      </trkpt>
      <trkpt lat="47.30118" lon="6.21782">
        <ele>254.885</ele>
        <time>2016-09-06T07:57:28.000Z</time>
      </trkpt>
      <trkpt lat="47.30121" lon="6.21776">
        <ele>254.507</ele>
        <time>2016-09-06T07:57:29.000Z</time>
      </trkpt>
      <trkpt lat="47.30124" lon="6.21772">
        <ele>254.656</ele>
        <time>2016-09-06T07:57:30.000Z</time>
      </trkpt>
      <trkpt lat="47.30129" lon="6.21765">
        <ele>254.346</ele>
        <time>2016-09-06T07:57:31.000Z</time>
      </trkpt>
      <trkpt lat="47.30132" lon="6.2176">
        <ele>254.402</ele>
        <time>2016-09-06T07:57:32.000Z</time>
      </trkpt>
      <trkpt lat="47.30135" lon="6.21755">
        <ele>254.35</ele>
        <time>2016-09-06T07:57:33.000Z</time>
      </trkpt>
      <trkpt lat="47.30137" lon="6.21751">
        <ele>254.31</ele>
        <time>2016-09-06T07:57:34.000Z</time>
      </trkpt>
      <trkpt lat="47.3014" lon="6.21746">
        <ele>254.387</ele>
        <time>2016-09-06T07:57:35.000Z</time>
      </trkpt>
      <trkpt lat="47.30143" lon="6.2174">
        <ele>254.469</ele>
        <time>2016-09-06T07:57:36.000Z</time>
      </trkpt>
      <trkpt lat="47.30145" lon="6.21737">
        <ele>254.592</ele>
        <time>2016-09-06T07:57:37.000Z</time>
      </trkpt>
      <trkpt lat="47.30147" lon="6.21732">
        <ele>254.628</ele>
        <time>2016-09-06T07:57:38.000Z</time>
      </trkpt>
      <trkpt lat="47.3015" lon="6.21727">
        <ele>254.876</ele>
        <time>2016-09-06T07:57:39.000Z</time>
      </trkpt>
      <trkpt lat="47.30152" lon="6.21722">
        <ele>255.03</ele>
        <time>2016-09-06T07:57:40.000Z</time>
      </trkpt>
      <trkpt lat="47.30156" lon="6.21718">
        <ele>255.236</ele>
        <time>2016-09-06T07:57:41.000Z</time>
      </trkpt>
      <trkpt lat="47.30157" lon="6.21713">
        <ele>255.592</ele>
        <time>2016-09-06T07:57:42.000Z</time>
      </trkpt>
      <trkpt lat="47.30161" lon="6.21708">
        <ele>255.503</ele>
        <time>2016-09-06T07:57:43.000Z</time>
      </trkpt>
      <trkpt lat="47.30165" lon="6.21701">
        <ele>255.253</ele>
        <time>2016-09-06T07:57:44.000Z</time>
      </trkpt>
      <trkpt lat="47.30167" lon="6.21697">
        <ele>256.063</ele>
        <time>2016-09-06T07:57:45.000Z</time>
      </trkpt>
      <trkpt lat="47.30172" lon="6.21692">
        <ele>255.11</ele>
        <time>2016-09-06T07:57:46.000Z</time>
      </trkpt>
      <trkpt lat="47.30174" lon="6.21688">
        <ele>255.485</ele>
        <time>2016-09-06T07:57:47.000Z</time>
      </trkpt>
      <trkpt lat="47.30177" lon="6.21682">
        <ele>255.59</ele>
        <time>2016-09-06T07:57:48.000Z</time>
      </trkpt>
      <trkpt lat="47.3018" lon="6.21677">
        <ele>254.906</ele>
        <time>2016-09-06T07:57:49.000Z</time>
      </trkpt>
      <trkpt lat="47.30184" lon="6.21673">
        <ele>254.558</ele>
        <time>2016-09-06T07:57:50.000Z</time>
      </trkpt>
      <trkpt lat="47.30188" lon="6.2167">
        <ele>254.672</ele>
        <time>2016-09-06T07:57:51.000Z</time>
      </trkpt>
      <trkpt lat="47.30192" lon="6.21663">
        <ele>254.767</ele>
        <time>2016-09-06T07:57:52.000Z</time>
      </trkpt>
      <trkpt lat="47.30195" lon="6.21658">
        <ele>253.952</ele>
        <time>2016-09-06T07:57:53.000Z</time>
      </trkpt>
      <trkpt lat="47.30198" lon="6.21653">
        <ele>253.839</ele>
        <time>2016-09-06T07:57:54.000Z</time>
      </trkpt>
      <trkpt lat="47.30201" lon="6.21649">
        <ele>253.74</ele>
        <time>2016-09-06T07:57:55.000Z</time>
      </trkpt>
      <trkpt lat="47.30204" lon="6.21644">
        <ele>253.978</ele>
        <time>2016-09-06T07:57:56.000Z</time>
      </trkpt>
      <trkpt lat="47.30207" lon="6.2164">
        <ele>254.28</ele>
        <time>2016-09-06T07:57:57.000Z</time>
      </trkpt>
      <trkpt lat="47.3021" lon="6.21635">
        <ele>255.192</ele>
        <time>2016-09-06T07:57:58.000Z</time>
      </trkpt>
      <trkpt lat="47.30213" lon="6.21631">
        <ele>255.449</ele>
        <time>2016-09-06T07:57:59.000Z</time>
      </trkpt>
      <trkpt lat="47.30217" lon="6.21624">
        <ele>254.556</ele>
        <time>2016-09-06T07:58:00.000Z</time>
      </trkpt>
      <trkpt lat="47.3022" lon="6.2162">
        <ele>254.75</ele>
        <time>2016-09-06T07:58:01.000Z</time>
      </trkpt>
      <trkpt lat="47.30223" lon="6.21616">
        <ele>253.539</ele>
        <time>2016-09-06T07:58:02.000Z</time>
      </trkpt>
      <trkpt lat="47.30226" lon="6.21612">
        <ele>253.44</ele>
        <time>2016-09-06T07:58:03.000Z</time>
      </trkpt>
      <trkpt lat="47.3023" lon="6.21607">
        <ele>254.368</ele>
        <time>2016-09-06T07:58:04.000Z</time>
      </trkpt>
      <trkpt lat="47.30235" lon="6.21605">
        <ele>254.171</ele>
        <time>2016-09-06T07:58:05.000Z</time>
      </trkpt>
      <trkpt lat="47.30238" lon="6.21601">
        <ele>254.564</ele>
        <time>2016-09-06T07:58:06.000Z</time>
      </trkpt>
      <trkpt lat="47.30242" lon="6.21597">
        <ele>253.807</ele>
        <time>2016-09-06T07:58:07.000Z</time>
      </trkpt>
      <trkpt lat="47.30245" lon="6.21591">
        <ele>254.1</ele>
        <time>2016-09-06T07:58:08.000Z</time>
      </trkpt>
      <trkpt lat="47.30248" lon="6.21585">
        <ele>253.652</ele>
        <time>2016-09-06T07:58:09.000Z</time>
      </trkpt>
      <trkpt lat="47.30251" lon="6.21582">
        <ele>253.112</ele>
        <time>2016-09-06T07:58:10.000Z</time>
      </trkpt>
      <trkpt lat="47.30253" lon="6.21577">
        <ele>252.635</ele>
        <time>2016-09-06T07:58:11.000Z</time>
      </trkpt>
      <trkpt lat="47.30257" lon="6.21571">
        <ele>253.967</ele>
        <time>2016-09-06T07:58:12.000Z</time>
      </trkpt>
      <trkpt lat="47.3026" lon="6.21566">
        <ele>254.571</ele>
        <time>2016-09-06T07:58:13.000Z</time>
      </trkpt>
      <trkpt lat="47.30262" lon="6.2156">
        <ele>254.741</ele>
        <time>2016-09-06T07:58:14.000Z</time>
      </trkpt>
      <trkpt lat="47.30265" lon="6.21555">
        <ele>255.538</ele>
        <time>2016-09-06T07:58:15.000Z</time>
      </trkpt>
      <trkpt lat="47.30267" lon="6.21549">
        <ele>255.043</ele>
        <time>2016-09-06T07:58:16.000Z</time>
      </trkpt>
      <trkpt lat="47.30272" lon="6.21547">
        <ele>254.537</ele>
        <time>2016-09-06T07:58:17.000Z</time>
      </trkpt>
      <trkpt lat="47.30273" lon="6.21542">
        <ele>254.971</ele>
        <time>2016-09-06T07:58:18.000Z</time>
      </trkpt>
      <trkpt lat="47.30276" lon="6.21537">
        <ele>254.653</ele>
        <time>2016-09-06T07:58:19.000Z</time>
      </trkpt>
      <trkpt lat="47.30278" lon="6.21533">
        <ele>253.463</ele>
        <time>2016-09-06T07:58:20.000Z</time>
      </trkpt>
      <trkpt lat="47.3028" lon="6.21528">
        <ele>254.621</ele>
        <time>2016-09-06T07:58:21.000Z</time>
      </trkpt>
      <trkpt lat="47.30282" lon="6.21524">
        <ele>255.556</ele>
        <time>2016-09-06T07:58:22.000Z</time>
      </trkpt>
      <trkpt lat="47.30285" lon="6.21519">
        <ele>254.907</ele>
        <time>2016-09-06T07:58:23.000Z</time>
      </trkpt>
      <trkpt lat="47.30287" lon="6.21514">
        <ele>254.713</ele>
        <time>2016-09-06T07:58:24.000Z</time>
      </trkpt>
      <trkpt lat="47.30289" lon="6.21508">
        <ele>254.365</ele>
        <time>2016-09-06T07:58:25.000Z</time>
      </trkpt>
      <trkpt lat="47.30291" lon="6.21503">
        <ele>254.458</ele>
        <time>2016-09-06T07:58:26.000Z</time>
      </trkpt>
      <trkpt lat="47.30294" lon="6.21498">
        <ele>255.339</ele>
        <time>2016-09-06T07:58:27.000Z</time>
      </trkpt>
      <trkpt lat="47.30296" lon="6.21494">
        <ele>255.432</ele>
        <time>2016-09-06T07:58:28.000Z</time>
      </trkpt>
      <trkpt lat="47.30299" lon="6.21489">
        <ele>255.484</ele>
        <time>2016-09-06T07:58:29.000Z</time>
      </trkpt>
      <trkpt lat="47.30302" lon="6.21485">
        <ele>254.432</ele>
        <time>2016-09-06T07:58:30.000Z</time>
      </trkpt>
      <trkpt lat="47.30305" lon="6.21482">
        <ele>253.303</ele>
        <time>2016-09-06T07:58:31.000Z</time>
      </trkpt>
      <trkpt lat="47.30308" lon="6.21479">
        <ele>252.223</ele>
        <time>2016-09-06T07:58:32.000Z</time>
      </trkpt>
      <trkpt lat="47.30313" lon="6.21475">
        <ele>251.975</ele>
        <time>2016-09-06T07:58:33.000Z</time>
      </trkpt>
      <trkpt lat="47.30315" lon="6.21468">
        <ele>253.113</ele>
        <time>2016-09-06T07:58:34.000Z</time>
      </trkpt>
      <trkpt lat="47.30318" lon="6.21463">
        <ele>253.868</ele>
        <time>2016-09-06T07:58:35.000Z</time>
      </trkpt>
      <trkpt lat="47.30321" lon="6.21457">
        <ele>254.642</ele>
        <time>2016-09-06T07:58:36.000Z</time>
      </trkpt>
      <trkpt lat="47.30324" lon="6.21452">
        <ele>255.711</ele>
        <time>2016-09-06T07:58:37.000Z</time>
      </trkpt>
      <trkpt lat="47.30326" lon="6.21446">
        <ele>255.934</ele>
        <time>2016-09-06T07:58:38.000Z</time>
      </trkpt>
      <trkpt lat="47.30328" lon="6.21439">
        <ele>257.099</ele>
        <time>2016-09-06T07:58:39.000Z</time>
      </trkpt>
      <trkpt lat="47.30332" lon="6.21433">
        <ele>257.036</ele>
        <time>2016-09-06T07:58:40.000Z</time>
      </trkpt>
      <trkpt lat="47.30333" lon="6.21427">
        <ele>256.109</ele>
        <time>2016-09-06T07:58:41.000Z</time>
      </trkpt>
      <trkpt lat="47.30334" lon="6.21422">
        <ele>255.709</ele>
        <time>2016-09-06T07:58:42.000Z</time>
      </trkpt>
      <trkpt lat="47.30337" lon="6.21415">
        <ele>255.175</ele>
        <time>2016-09-06T07:58:43.000Z</time>
      </trkpt>
      <trkpt lat="47.3034" lon="6.21409">
        <ele>255.612</ele>
        <time>2016-09-06T07:58:44.000Z</time>
      </trkpt>
      <trkpt lat="47.30341" lon="6.21401">
        <ele>256.325</ele>
        <time>2016-09-06T07:58:45.000Z</time>
      </trkpt>
      <trkpt lat="47.30342" lon="6.21394">
        <ele>256.3</ele>
        <time>2016-09-06T07:58:46.000Z</time>
      </trkpt>
      <trkpt lat="47.30343" lon="6.21387">
        <ele>256.002</ele>
        <time>2016-09-06T07:58:47.000Z</time>
      </trkpt>
      <trkpt lat="47.30344" lon="6.21382">
        <ele>255.832</ele>
        <time>2016-09-06T07:58:48.000Z</time>
      </trkpt>
      <trkpt lat="47.30343" lon="6.21377">
        <ele>256.177</ele>
        <time>2016-09-06T07:58:49.000Z</time>
      </trkpt>
      <trkpt lat="47.30344" lon="6.21371">
        <ele>255.799</ele>
        <time>2016-09-06T07:58:50.000Z</time>
      </trkpt>
      <trkpt lat="47.30345" lon="6.21363">
        <ele>254.4</ele>
        <time>2016-09-06T07:58:51.000Z</time>
      </trkpt>
      <trkpt lat="47.30346" lon="6.21356">
        <ele>254.488</ele>
        <time>2016-09-06T07:58:52.000Z</time>
      </trkpt>
      <trkpt lat="47.30346" lon="6.21349">
        <ele>254.504</ele>
        <time>2016-09-06T07:58:53.000Z</time>
      </trkpt>
      <trkpt lat="47.30346" lon="6.21342">
        <ele>254.832</ele>
        <time>2016-09-06T07:58:54.000Z</time>
      </trkpt>
      <trkpt lat="47.30347" lon="6.21335">
        <ele>255.027</ele>
        <time>2016-09-06T07:58:55.000Z</time>
      </trkpt>
      <trkpt lat="47.30347" lon="6.21328">
        <ele>254.739</ele>
        <time>2016-09-06T07:58:56.000Z</time>
      </trkpt>
      <trkpt lat="47.30348" lon="6.21322">
        <ele>254.599</ele>
        <time>2016-09-06T07:58:57.000Z</time>
      </trkpt>
      <trkpt lat="47.30348" lon="6.21315">
        <ele>254.065</ele>
        <time>2016-09-06T07:58:58.000Z</time>
      </trkpt>
      <trkpt lat="47.30348" lon="6.21309">
        <ele>254.025</ele>
        <time>2016-09-06T07:58:59.000Z</time>
      </trkpt>
      <trkpt lat="47.30349" lon="6.21303">
        <ele>253.306</ele>
        <time>2016-09-06T07:59:00.000Z</time>
      </trkpt>
      <trkpt lat="47.3035" lon="6.21296">
        <ele>253.281</ele>
        <time>2016-09-06T07:59:01.000Z</time>
      </trkpt>
      <trkpt lat="47.30352" lon="6.2129">
        <ele>252.851</ele>
        <time>2016-09-06T07:59:02.000Z</time>
      </trkpt>
      <trkpt lat="47.30353" lon="6.21283">
        <ele>252.698</ele>
        <time>2016-09-06T07:59:03.000Z</time>
      </trkpt>
      <trkpt lat="47.30356" lon="6.21275">
        <ele>252.891</ele>
        <time>2016-09-06T07:59:04.000Z</time>
      </trkpt>
      <trkpt lat="47.30357" lon="6.21269">
        <ele>253.235</ele>
        <time>2016-09-06T07:59:05.000Z</time>
      </trkpt>
      <trkpt lat="47.30359" lon="6.21264">
        <ele>252.948</ele>
        <time>2016-09-06T07:59:06.000Z</time>
      </trkpt>
      <trkpt lat="47.3036" lon="6.21257">
        <ele>252.925</ele>
        <time>2016-09-06T07:59:07.000Z</time>
      </trkpt>
      <trkpt lat="47.30362" lon="6.21251">
        <ele>252.131</ele>
        <time>2016-09-06T07:59:08.000Z</time>
      </trkpt>
      <trkpt lat="47.30365" lon="6.21244">
        <ele>251.607</ele>
        <time>2016-09-06T07:59:09.000Z</time>
      </trkpt>
      <trkpt lat="47.3037" lon="6.21236">
        <ele>250.548</ele>
        <time>2016-09-06T07:59:10.000Z</time>
      </trkpt>
      <trkpt lat="47.30372" lon="6.2123">
        <ele>251.787</ele>
        <time>2016-09-06T07:59:11.000Z</time>
      </trkpt>
      <trkpt lat="47.30374" lon="6.21224">
        <ele>252.443</ele>
        <time>2016-09-06T07:59:12.000Z</time>
      </trkpt>
      <trkpt lat="47.30374" lon="6.21217">
        <ele>253.457</ele>
        <time>2016-09-06T07:59:13.000Z</time>
      </trkpt>
      <trkpt lat="47.30374" lon="6.21211">
        <ele>253.188</ele>
        <time>2016-09-06T07:59:14.000Z</time>
      </trkpt>
      <trkpt lat="47.30377" lon="6.21206">
        <ele>253.153</ele>
        <time>2016-09-06T07:59:15.000Z</time>
      </trkpt>
      <trkpt lat="47.30378" lon="6.21199">
        <ele>252.823</ele>
        <time>2016-09-06T07:59:16.000Z</time>
      </trkpt>
      <trkpt lat="47.30381" lon="6.21193">
        <ele>252.986</ele>
        <time>2016-09-06T07:59:17.000Z</time>
      </trkpt>
      <trkpt lat="47.30382" lon="6.21187">
        <ele>252.727</ele>
        <time>2016-09-06T07:59:18.000Z</time>
      </trkpt>
      <trkpt lat="47.30383" lon="6.21181">
        <ele>253.1</ele>
        <time>2016-09-06T07:59:19.000Z</time>
      </trkpt>
      <trkpt lat="47.30385" lon="6.21174">
        <ele>252.885</ele>
        <time>2016-09-06T07:59:20.000Z</time>
      </trkpt>
      <trkpt lat="47.30387" lon="6.21168">
        <ele>252.376</ele>
        <time>2016-09-06T07:59:21.000Z</time>
      </trkpt>
      <trkpt lat="47.30388" lon="6.21161">
        <ele>252.297</ele>
        <time>2016-09-06T07:59:22.000Z</time>
      </trkpt>
      <trkpt lat="47.30388" lon="6.21154">
        <ele>251.362</ele>
        <time>2016-09-06T07:59:23.000Z</time>
      </trkpt>
      <trkpt lat="47.30388" lon="6.21148">
        <ele>249.667</ele>
        <time>2016-09-06T07:59:24.000Z</time>
      </trkpt>
      <trkpt lat="47.3039" lon="6.21142">
        <ele>248.774</ele>
        <time>2016-09-06T07:59:25.000Z</time>
      </trkpt>
      <trkpt lat="47.30391" lon="6.21136">
        <ele>248.38</ele>
        <time>2016-09-06T07:59:26.000Z</time>
      </trkpt>
      <trkpt lat="47.30392" lon="6.2113">
        <ele>247.109</ele>
        <time>2016-09-06T07:59:27.000Z</time>
      </trkpt>
      <trkpt lat="47.30392" lon="6.21122">
        <ele>247.778</ele>
        <time>2016-09-06T07:59:28.000Z</time>
      </trkpt>
      <trkpt lat="47.30393" lon="6.21115">
        <ele>247.576</ele>
        <time>2016-09-06T07:59:29.000Z</time>
      </trkpt>
      <trkpt lat="47.30394" lon="6.21108">
        <ele>247.592</ele>
        <time>2016-09-06T07:59:30.000Z</time>
      </trkpt>
      <trkpt lat="47.30395" lon="6.211">
        <ele>247.029</ele>
        <time>2016-09-06T07:59:31.000Z</time>
      </trkpt>
      <trkpt lat="47.30394" lon="6.21093">
        <ele>247.665</ele>
        <time>2016-09-06T07:59:32.000Z</time>
      </trkpt>
      <trkpt lat="47.30395" lon="6.21086">
        <ele>247.838</ele>
        <time>2016-09-06T07:59:33.000Z</time>
      </trkpt>
      <trkpt lat="47.30395" lon="6.2108">
        <ele>247.13</ele>
        <time>2016-09-06T07:59:34.000Z</time>
      </trkpt>
      <trkpt lat="47.30395" lon="6.21073">
        <ele>248.038</ele>
        <time>2016-09-06T07:59:35.000Z</time>
      </trkpt>
      <trkpt lat="47.30395" lon="6.21067">
        <ele>248.497</ele>
        <time>2016-09-06T07:59:36.000Z</time>
      </trkpt>
      <trkpt lat="47.30394" lon="6.21059">
        <ele>249.603</ele>
        <time>2016-09-06T07:59:37.000Z</time>
      </trkpt>
      <trkpt lat="47.30395" lon="6.21052">
        <ele>250.314</ele>
        <time>2016-09-06T07:59:38.000Z</time>
      </trkpt>
      <trkpt lat="47.30395" lon="6.21046">
        <ele>251.12</ele>
        <time>2016-09-06T07:59:39.000Z</time>
      </trkpt>
      <trkpt lat="47.30395" lon="6.21038">
        <ele>251.004</ele>
        <time>2016-09-06T07:59:40.000Z</time>
      </trkpt>
      <trkpt lat="47.30395" lon="6.2103">
        <ele>250.438</ele>
        <time>2016-09-06T07:59:41.000Z</time>
      </trkpt>
      <trkpt lat="47.30395" lon="6.21024">
        <ele>249.784</ele>
        <time>2016-09-06T07:59:42.000Z</time>
      </trkpt>
      <trkpt lat="47.30395" lon="6.21017">
        <ele>248.947</ele>
        <time>2016-09-06T07:59:43.000Z</time>
      </trkpt>
      <trkpt lat="47.30394" lon="6.21011">
        <ele>249.198</ele>
        <time>2016-09-06T07:59:44.000Z</time>
      </trkpt>
      <trkpt lat="47.30394" lon="6.21005">
        <ele>249.371</ele>
        <time>2016-09-06T07:59:45.000Z</time>
      </trkpt>
      <trkpt lat="47.30394" lon="6.20998">
        <ele>249.199</ele>
        <time>2016-09-06T07:59:46.000Z</time>
      </trkpt>
      <trkpt lat="47.30394" lon="6.20992">
        <ele>249.654</ele>
        <time>2016-09-06T07:59:47.000Z</time>
      </trkpt>
      <trkpt lat="47.30394" lon="6.20985">
        <ele>248.892</ele>
        <time>2016-09-06T07:59:48.000Z</time>
      </trkpt>
      <trkpt lat="47.30394" lon="6.20978">
        <ele>249.26</ele>
        <time>2016-09-06T07:59:49.000Z</time>
      </trkpt>
      <trkpt lat="47.30393" lon="6.20971">
        <ele>249.15</ele>
        <time>2016-09-06T07:59:50.000Z</time>
      </trkpt>
      <trkpt lat="47.30393" lon="6.20964">
        <ele>249.401</ele>
        <time>2016-09-06T07:59:51.000Z</time>
      </trkpt>
      <trkpt lat="47.30392" lon="6.20959">
        <ele>249.941</ele>
        <time>2016-09-06T07:59:52.000Z</time>
      </trkpt>
      <trkpt lat="47.30392" lon="6.20952">
        <ele>249.359</ele>
        <time>2016-09-06T07:59:53.000Z</time>
      </trkpt>
      <trkpt lat="47.30391" lon="6.20944">
        <ele>249.176</ele>
        <time>2016-09-06T07:59:54.000Z</time>
      </trkpt>
      <trkpt lat="47.3039" lon="6.20938">
        <ele>248.732</ele>
        <time>2016-09-06T07:59:55.000Z</time>
      </trkpt>
      <trkpt lat="47.30388" lon="6.20931">
        <ele>248.64</ele>
        <time>2016-09-06T07:59:56.000Z</time>
      </trkpt>
      <trkpt lat="47.30387" lon="6.20924">
        <ele>250.916</ele>
        <time>2016-09-06T07:59:57.000Z</time>
      </trkpt>
      <trkpt lat="47.30386" lon="6.20918">
        <ele>250.595</ele>
        <time>2016-09-06T07:59:58.000Z</time>
      </trkpt>
      <trkpt lat="47.30385" lon="6.20912">
        <ele>249.92</ele>
        <time>2016-09-06T07:59:59.000Z</time>
      </trkpt>
      <trkpt lat="47.30386" lon="6.20905">
        <ele>249.613</ele>
        <time>2016-09-06T08:00:00.000Z</time>
      </trkpt>
      <trkpt lat="47.30383" lon="6.20899">
        <ele>250.915</ele>
        <time>2016-09-06T08:00:01.000Z</time>
      </trkpt>
      <trkpt lat="47.30382" lon="6.20892">
        <ele>250.852</ele>
        <time>2016-09-06T08:00:02.000Z</time>
      </trkpt>
      <trkpt lat="47.30379" lon="6.20886">
        <ele>250.959</ele>
        <time>2016-09-06T08:00:03.000Z</time>
      </trkpt>
      <trkpt lat="47.30377" lon="6.20881">
        <ele>250.229</ele>
        <time>2016-09-06T08:00:04.000Z</time>
      </trkpt>
      <trkpt lat="47.30376" lon="6.20875">
        <ele>249.298</ele>
        <time>2016-09-06T08:00:05.000Z</time>
      </trkpt>
      <trkpt lat="47.30374" lon="6.20869">
        <ele>249.05</ele>
        <time>2016-09-06T08:00:06.000Z</time>
      </trkpt>
      <trkpt lat="47.30373" lon="6.20863">
        <ele>247.034</ele>
        <time>2016-09-06T08:00:07.000Z</time>
      </trkpt>
      <trkpt lat="47.30371" lon="6.20858">
        <ele>246.098</ele>
        <time>2016-09-06T08:00:08.000Z</time>
      </trkpt>
      <trkpt lat="47.30368" lon="6.20852">
        <ele>247.272</ele>
        <time>2016-09-06T08:00:09.000Z</time>
      </trkpt>
      <trkpt lat="47.30366" lon="6.20846">
        <ele>247.806</ele>
        <time>2016-09-06T08:00:10.000Z</time>
      </trkpt>
      <trkpt lat="47.30365" lon="6.20841">
        <ele>247.504</ele>
        <time>2016-09-06T08:00:11.000Z</time>
      </trkpt>
      <trkpt lat="47.30363" lon="6.20835">
        <ele>247.259</ele>
        <time>2016-09-06T08:00:12.000Z</time>
      </trkpt>
      <trkpt lat="47.30361" lon="6.2083">
        <ele>247.718</ele>
        <time>2016-09-06T08:00:13.000Z</time>
      </trkpt>
      <trkpt lat="47.30358" lon="6.20824">
        <ele>248.335</ele>
        <time>2016-09-06T08:00:14.000Z</time>
      </trkpt>
      <trkpt lat="47.30355" lon="6.20818">
        <ele>249.491</ele>
        <time>2016-09-06T08:00:15.000Z</time>
      </trkpt>
      <trkpt lat="47.30353" lon="6.20813">
        <ele>249.511</ele>
        <time>2016-09-06T08:00:16.000Z</time>
      </trkpt>
      <trkpt lat="47.30351" lon="6.20808">
        <ele>249.095</ele>
        <time>2016-09-06T08:00:17.000Z</time>
      </trkpt>
      <trkpt lat="47.30347" lon="6.20804">
        <ele>249.858</ele>
        <time>2016-09-06T08:00:18.000Z</time>
      </trkpt>
      <trkpt lat="47.30345" lon="6.20799">
        <ele>250.126</ele>
        <time>2016-09-06T08:00:19.000Z</time>
      </trkpt>
      <trkpt lat="47.30342" lon="6.20794">
        <ele>250.73</ele>
        <time>2016-09-06T08:00:20.000Z</time>
      </trkpt>
      <trkpt lat="47.3034" lon="6.20788">
        <ele>251.909</ele>
        <time>2016-09-06T08:00:21.000Z</time>
      </trkpt>
      <trkpt lat="47.30338" lon="6.20782">
        <ele>252.337</ele>
        <time>2016-09-06T08:00:22.000Z</time>
      </trkpt>
      <trkpt lat="47.30336" lon="6.20777">
        <ele>253.656</ele>
        <time>2016-09-06T08:00:23.000Z</time>
      </trkpt>
      <trkpt lat="47.30333" lon="6.20773">
        <ele>255.376</ele>
        <time>2016-09-06T08:00:24.000Z</time>
      </trkpt>
      <trkpt lat="47.30331" lon="6.20768">
        <ele>256.118</ele>
        <time>2016-09-06T08:00:25.000Z</time>
      </trkpt>
      <trkpt lat="47.30328" lon="6.20764">
        <ele>256.782</ele>
        <time>2016-09-06T08:00:26.000Z</time>
      </trkpt>
      <trkpt lat="47.30326" lon="6.2076">
        <ele>256.16</ele>
        <time>2016-09-06T08:00:27.000Z</time>
      </trkpt>
      <trkpt lat="47.30322" lon="6.20756">
        <ele>256.435</ele>
        <time>2016-09-06T08:00:28.000Z</time>
      </trkpt>
      <trkpt lat="47.30319" lon="6.20753">
        <ele>257.405</ele>
        <time>2016-09-06T08:00:29.000Z</time>
      </trkpt>
      <trkpt lat="47.30316" lon="6.2075">
        <ele>256.219</ele>
        <time>2016-09-06T08:00:30.000Z</time>
      </trkpt>
      <trkpt lat="47.30312" lon="6.20747">
        <ele>256.542</ele>
        <time>2016-09-06T08:00:31.000Z</time>
      </trkpt>
      <trkpt lat="47.3031" lon="6.20745">
        <ele>256.757</ele>
        <time>2016-09-06T08:00:32.000Z</time>
      </trkpt>
      <trkpt lat="47.30307" lon="6.20742">
        <ele>257.368</ele>
        <time>2016-09-06T08:00:33.000Z</time>
      </trkpt>
      <trkpt lat="47.30303" lon="6.20739">
        <ele>258.07</ele>
        <time>2016-09-06T08:00:34.000Z</time>
      </trkpt>
      <trkpt lat="47.30299" lon="6.20736">
        <ele>258.08</ele>
        <time>2016-09-06T08:00:35.000Z</time>
      </trkpt>
      <trkpt lat="47.30297" lon="6.20733">
        <ele>258.961</ele>
        <time>2016-09-06T08:00:36.000Z</time>
      </trkpt>
      <trkpt lat="47.30294" lon="6.20731">
        <ele>259.303</ele>
        <time>2016-09-06T08:00:37.000Z</time>
      </trkpt>
      <trkpt lat="47.30291" lon="6.20728">
        <ele>258.915</ele>
        <time>2016-09-06T08:00:38.000Z</time>
      </trkpt>
      <trkpt lat="47.30288" lon="6.20725">
        <ele>258.082</ele>
        <time>2016-09-06T08:00:39.000Z</time>
      </trkpt>
      <trkpt lat="47.30285" lon="6.20722">
        <ele>257.737</ele>
        <time>2016-09-06T08:00:40.000Z</time>
      </trkpt>
      <trkpt lat="47.30281" lon="6.20719">
        <ele>257.582</ele>
        <time>2016-09-06T08:00:41.000Z</time>
      </trkpt>
      <trkpt lat="47.30277" lon="6.20716">
        <ele>256.988</ele>
        <time>2016-09-06T08:00:42.000Z</time>
      </trkpt>
      <trkpt lat="47.30273" lon="6.20714">
        <ele>256.864</ele>
        <time>2016-09-06T08:00:43.000Z</time>
      </trkpt>
      <trkpt lat="47.3027" lon="6.20711">
        <ele>257.34</ele>
        <time>2016-09-06T08:00:44.000Z</time>
      </trkpt>
      <trkpt lat="47.30267" lon="6.20709">
        <ele>257.728</ele>
        <time>2016-09-06T08:00:45.000Z</time>
      </trkpt>
      <trkpt lat="47.30264" lon="6.20706">
        <ele>258.494</ele>
        <time>2016-09-06T08:00:46.000Z</time>
      </trkpt>
      <trkpt lat="47.30261" lon="6.20703">
        <ele>258.777</ele>
        <time>2016-09-06T08:00:47.000Z</time>
      </trkpt>
      <trkpt lat="47.30258" lon="6.207">
        <ele>259.022</ele>
        <time>2016-09-06T08:00:48.000Z</time>
      </trkpt>
      <trkpt lat="47.30255" lon="6.20697">
        <ele>259.028</ele>
        <time>2016-09-06T08:00:49.000Z</time>
      </trkpt>
      <trkpt lat="47.30252" lon="6.20695">
        <ele>259.14</ele>
        <time>2016-09-06T08:00:50.000Z</time>
      </trkpt>
      <trkpt lat="47.30249" lon="6.20692">
        <ele>258.721</ele>
        <time>2016-09-06T08:00:51.000Z</time>
      </trkpt>
      <trkpt lat="47.30246" lon="6.20689">
        <ele>259.093</ele>
        <time>2016-09-06T08:00:52.000Z</time>
      </trkpt>
      <trkpt lat="47.30243" lon="6.20686">
        <ele>259.05</ele>
        <time>2016-09-06T08:00:53.000Z</time>
      </trkpt>
      <trkpt lat="47.3024" lon="6.20683">
        <ele>259.36</ele>
        <time>2016-09-06T08:00:54.000Z</time>
      </trkpt>
      <trkpt lat="47.30236" lon="6.2068">
        <ele>258.256</ele>
        <time>2016-09-06T08:00:55.000Z</time>
      </trkpt>
      <trkpt lat="47.30233" lon="6.20678">
        <ele>257.905</ele>
        <time>2016-09-06T08:00:56.000Z</time>
      </trkpt>
      <trkpt lat="47.3023" lon="6.20675">
        <ele>258.507</ele>
        <time>2016-09-06T08:00:57.000Z</time>
      </trkpt>
      <trkpt lat="47.30227" lon="6.20672">
        <ele>259.01</ele>
        <time>2016-09-06T08:00:58.000Z</time>
      </trkpt>
      <trkpt lat="47.30224" lon="6.20669">
        <ele>259.331</ele>
        <time>2016-09-06T08:00:59.000Z</time>
      </trkpt>
      <trkpt lat="47.30221" lon="6.20666">
        <ele>259.506</ele>
        <time>2016-09-06T08:01:00.000Z</time>
      </trkpt>
      <trkpt lat="47.30218" lon="6.20663">
        <ele>260.289</ele>
        <time>2016-09-06T08:01:01.000Z</time>
      </trkpt>
      <trkpt lat="47.30215" lon="6.20661">
        <ele>260.376</ele>
        <time>2016-09-06T08:01:02.000Z</time>
      </trkpt>
      <trkpt lat="47.30211" lon="6.20658">
        <ele>260.279</ele>
        <time>2016-09-06T08:01:03.000Z</time>
      </trkpt>
      <trkpt lat="47.30207" lon="6.20656">
        <ele>260.246</ele>
        <time>2016-09-06T08:01:04.000Z</time>
      </trkpt>
      <trkpt lat="47.30201" lon="6.20652">
        <ele>260.262</ele>
        <time>2016-09-06T08:01:05.000Z</time>
      </trkpt>
      <trkpt lat="47.30195" lon="6.20648">
        <ele>259.846</ele>
        <time>2016-09-06T08:01:06.000Z</time>
      </trkpt>
      <trkpt lat="47.3019" lon="6.20644">
        <ele>259.822</ele>
        <time>2016-09-06T08:01:07.000Z</time>
      </trkpt>
      <trkpt lat="47.30183" lon="6.20641">
        <ele>259.42</ele>
        <time>2016-09-06T08:01:08.000Z</time>
      </trkpt>
      <trkpt lat="47.30176" lon="6.20639">
        <ele>259.493</ele>
        <time>2016-09-06T08:01:09.000Z</time>
      </trkpt>
      <trkpt lat="47.30169" lon="6.20636">
        <ele>259.029</ele>
        <time>2016-09-06T08:01:10.000Z</time>
      </trkpt>
      <trkpt lat="47.30161" lon="6.20633">
        <ele>258.571</ele>
        <time>2016-09-06T08:01:11.000Z</time>
      </trkpt>
      <trkpt lat="47.30153" lon="6.2063">
        <ele>258.394</ele>
        <time>2016-09-06T08:01:12.000Z</time>
      </trkpt>
      <trkpt lat="47.30145" lon="6.20626">
        <ele>257.796</ele>
        <time>2016-09-06T08:01:13.003Z</time>
      </trkpt>
      <trkpt lat="47.30137" lon="6.20622">
        <ele>257.345</ele>
        <time>2016-09-06T08:01:14.000Z</time>
      </trkpt>
      <trkpt lat="47.30128" lon="6.20619">
        <ele>256.845</ele>
        <time>2016-09-06T08:01:15.000Z</time>
      </trkpt>
      <trkpt lat="47.3012" lon="6.20616">
        <ele>256.418</ele>
        <time>2016-09-06T08:01:16.000Z</time>
      </trkpt>
      <trkpt lat="47.30112" lon="6.20613">
        <ele>255.75</ele>
        <time>2016-09-06T08:01:17.000Z</time>
      </trkpt>
      <trkpt lat="47.30105" lon="6.20608">
        <ele>255.737</ele>
        <time>2016-09-06T08:01:18.000Z</time>
      </trkpt>
      <trkpt lat="47.30098" lon="6.20605">
        <ele>255.296</ele>
        <time>2016-09-06T08:01:19.000Z</time>
      </trkpt>
      <trkpt lat="47.30092" lon="6.20602">
        <ele>255.199</ele>
        <time>2016-09-06T08:01:20.000Z</time>
      </trkpt>
      <trkpt lat="47.30084" lon="6.20598">
        <ele>255.966</ele>
        <time>2016-09-06T08:01:21.000Z</time>
      </trkpt>
      <trkpt lat="47.30078" lon="6.20594">
        <ele>255.493</ele>
        <time>2016-09-06T08:01:22.000Z</time>
      </trkpt>
      <trkpt lat="47.30074" lon="6.2059">
        <ele>254.493</ele>
        <time>2016-09-06T08:01:23.000Z</time>
      </trkpt>
      <trkpt lat="47.30068" lon="6.20588">
        <ele>254.806</ele>
        <time>2016-09-06T08:01:24.000Z</time>
      </trkpt>
      <trkpt lat="47.30063" lon="6.20586">
        <ele>254.841</ele>
        <time>2016-09-06T08:01:25.000Z</time>
      </trkpt>
      <trkpt lat="47.30058" lon="6.20583">
        <ele>254.583</ele>
        <time>2016-09-06T08:01:26.000Z</time>
      </trkpt>
      <trkpt lat="47.30053" lon="6.20581">
        <ele>254.725</ele>
        <time>2016-09-06T08:01:27.000Z</time>
      </trkpt>
      <trkpt lat="47.3005" lon="6.2058">
        <ele>255.091</ele>
        <time>2016-09-06T08:01:28.000Z</time>
      </trkpt>
      <trkpt lat="47.30046" lon="6.20578">
        <ele>255.663</ele>
        <time>2016-09-06T08:01:29.000Z</time>
      </trkpt>
      <trkpt lat="47.3004" lon="6.20576">
        <ele>256.113</ele>
        <time>2016-09-06T08:01:30.000Z</time>
      </trkpt>
      <trkpt lat="47.30035" lon="6.20574">
        <ele>256.257</ele>
        <time>2016-09-06T08:01:31.000Z</time>
      </trkpt>
      <trkpt lat="47.30029" lon="6.20572">
        <ele>255.99</ele>
        <time>2016-09-06T08:01:32.000Z</time>
      </trkpt>
      <trkpt lat="47.30024" lon="6.20571">
        <ele>255.381</ele>
        <time>2016-09-06T08:01:33.000Z</time>
      </trkpt>
      <trkpt lat="47.3002" lon="6.2057">
        <ele>255.644</ele>
        <time>2016-09-06T08:01:34.000Z</time>
      </trkpt>
      <trkpt lat="47.30015" lon="6.20569">
        <ele>255.193</ele>
        <time>2016-09-06T08:01:35.000Z</time>
      </trkpt>
      <trkpt lat="47.30011" lon="6.20568">
        <ele>255.466</ele>
        <time>2016-09-06T08:01:36.000Z</time>
      </trkpt>
      <trkpt lat="47.30007" lon="6.20566">
        <ele>255.589</ele>
        <time>2016-09-06T08:01:37.000Z</time>
      </trkpt>
      <trkpt lat="47.30003" lon="6.20564">
        <ele>255.702</ele>
        <time>2016-09-06T08:01:38.000Z</time>
      </trkpt>
      <trkpt lat="47.3" lon="6.20563">
        <ele>255.591</ele>
        <time>2016-09-06T08:01:39.000Z</time>
      </trkpt>
      <trkpt lat="47.29995" lon="6.20561">
        <ele>255.547</ele>
        <time>2016-09-06T08:01:40.000Z</time>
      </trkpt>
      <trkpt lat="47.29991" lon="6.2056">
        <ele>255.509</ele>
        <time>2016-09-06T08:01:41.000Z</time>
      </trkpt>
      <trkpt lat="47.29986" lon="6.20558">
        <ele>255.353</ele>
        <time>2016-09-06T08:01:42.000Z</time>
      </trkpt>
      <trkpt lat="47.2998" lon="6.20557">
        <ele>255.412</ele>
        <time>2016-09-06T08:01:43.000Z</time>
      </trkpt>
      <trkpt lat="47.29975" lon="6.20555">
        <ele>255.478</ele>
        <time>2016-09-06T08:01:44.000Z</time>
      </trkpt>
      <trkpt lat="47.2997" lon="6.20554">
        <ele>256.23</ele>
        <time>2016-09-06T08:01:45.000Z</time>
      </trkpt>
      <trkpt lat="47.29963" lon="6.20552">
        <ele>256.119</ele>
        <time>2016-09-06T08:01:46.000Z</time>
      </trkpt>
      <trkpt lat="47.29958" lon="6.20551">
        <ele>255.383</ele>
        <time>2016-09-06T08:01:47.000Z</time>
      </trkpt>
      <trkpt lat="47.29954" lon="6.20548">
        <ele>255.552</ele>
        <time>2016-09-06T08:01:48.000Z</time>
      </trkpt>
      <trkpt lat="47.29949" lon="6.20547">
        <ele>255.517</ele>
        <time>2016-09-06T08:01:49.000Z</time>
      </trkpt>
      <trkpt lat="47.29946" lon="6.20545">
        <ele>255.538</ele>
        <time>2016-09-06T08:01:50.000Z</time>
      </trkpt>
      <trkpt lat="47.29941" lon="6.20543">
        <ele>255.678</ele>
        <time>2016-09-06T08:01:51.000Z</time>
      </trkpt>
      <trkpt lat="47.29938" lon="6.20542">
        <ele>255.688</ele>
        <time>2016-09-06T08:01:52.000Z</time>
      </trkpt>
      <trkpt lat="47.29931" lon="6.2054">
        <ele>255.854</ele>
        <time>2016-09-06T08:01:53.000Z</time>
      </trkpt>
      <trkpt lat="47.29929" lon="6.20538">
        <ele>255.823</ele>
        <time>2016-09-06T08:01:54.000Z</time>
      </trkpt>
      <trkpt lat="47.29923" lon="6.20535">
        <ele>255.258</ele>
        <time>2016-09-06T08:01:55.000Z</time>
      </trkpt>
      <trkpt lat="47.29919" lon="6.20533">
        <ele>255.153</ele>
        <time>2016-09-06T08:01:56.000Z</time>
      </trkpt>
      <trkpt lat="47.29914" lon="6.20532">
        <ele>255.437</ele>
        <time>2016-09-06T08:01:57.000Z</time>
      </trkpt>
      <trkpt lat="47.29909" lon="6.2053">
        <ele>255.374</ele>
        <time>2016-09-06T08:01:58.000Z</time>
      </trkpt>
      <trkpt lat="47.29905" lon="6.20528">
        <ele>255.765</ele>
        <time>2016-09-06T08:01:59.000Z</time>
      </trkpt>
      <trkpt lat="47.29901" lon="6.20526">
        <ele>255.973</ele>
        <time>2016-09-06T08:02:00.000Z</time>
      </trkpt>
      <trkpt lat="47.29895" lon="6.20524">
        <ele>255.362</ele>
        <time>2016-09-06T08:02:01.000Z</time>
      </trkpt>
      <trkpt lat="47.29889" lon="6.20521">
        <ele>255.273</ele>
        <time>2016-09-06T08:02:02.000Z</time>
      </trkpt>
      <trkpt lat="47.29885" lon="6.20519">
        <ele>255.329</ele>
        <time>2016-09-06T08:02:03.000Z</time>
      </trkpt>
      <trkpt lat="47.29881" lon="6.20517">
        <ele>255.794</ele>
        <time>2016-09-06T08:02:04.000Z</time>
      </trkpt>
      <trkpt lat="47.29877" lon="6.20515">
        <ele>255.652</ele>
        <time>2016-09-06T08:02:05.000Z</time>
      </trkpt>
      <trkpt lat="47.29872" lon="6.20513">
        <ele>255.446</ele>
        <time>2016-09-06T08:02:06.000Z</time>
      </trkpt>
      <trkpt lat="47.29869" lon="6.20511">
        <ele>256.166</ele>
        <time>2016-09-06T08:02:07.000Z</time>
      </trkpt>
      <trkpt lat="47.29864" lon="6.20508">
        <ele>255.961</ele>
        <time>2016-09-06T08:02:08.000Z</time>
      </trkpt>
      <trkpt lat="47.2986" lon="6.20506">
        <ele>255.192</ele>
        <time>2016-09-06T08:02:09.000Z</time>
      </trkpt>
      <trkpt lat="47.29855" lon="6.20504">
        <ele>255.808</ele>
        <time>2016-09-06T08:02:10.000Z</time>
      </trkpt>
      <trkpt lat="47.2985" lon="6.20502">
        <ele>255.796</ele>
        <time>2016-09-06T08:02:11.000Z</time>
      </trkpt>
      <trkpt lat="47.29845" lon="6.205">
        <ele>255.928</ele>
        <time>2016-09-06T08:02:12.000Z</time>
      </trkpt>
      <trkpt lat="47.29839" lon="6.20499">
        <ele>256.31</ele>
        <time>2016-09-06T08:02:13.000Z</time>
      </trkpt>
      <trkpt lat="47.29834" lon="6.20496">
        <ele>256.487</ele>
        <time>2016-09-06T08:02:14.000Z</time>
      </trkpt>
      <trkpt lat="47.29828" lon="6.20494">
        <ele>256.567</ele>
        <time>2016-09-06T08:02:15.000Z</time>
      </trkpt>
      <trkpt lat="47.29823" lon="6.20492">
        <ele>257.988</ele>
        <time>2016-09-06T08:02:16.000Z</time>
      </trkpt>
      <trkpt lat="47.29817" lon="6.20491">
        <ele>258.744</ele>
        <time>2016-09-06T08:02:17.000Z</time>
      </trkpt>
      <trkpt lat="47.29813" lon="6.20489">
        <ele>258.698</ele>
        <time>2016-09-06T08:02:18.000Z</time>
      </trkpt>
      <trkpt lat="47.29808" lon="6.20488">
        <ele>258.812</ele>
        <time>2016-09-06T08:02:19.000Z</time>
      </trkpt>
      <trkpt lat="47.29803" lon="6.20485">
        <ele>258.629</ele>
        <time>2016-09-06T08:02:20.000Z</time>
      </trkpt>
      <trkpt lat="47.29799" lon="6.20484">
        <ele>258.78</ele>
        <time>2016-09-06T08:02:21.000Z</time>
      </trkpt>
      <trkpt lat="47.29794" lon="6.20482">
        <ele>260.224</ele>
        <time>2016-09-06T08:02:22.000Z</time>
      </trkpt>
      <trkpt lat="47.29787" lon="6.20481">
        <ele>259.255</ele>
        <time>2016-09-06T08:02:23.000Z</time>
      </trkpt>
      <trkpt lat="47.29783" lon="6.20479">
        <ele>259.279</ele>
        <time>2016-09-06T08:02:24.000Z</time>
      </trkpt>
      <trkpt lat="47.29778" lon="6.20478">
        <ele>259.076</ele>
        <time>2016-09-06T08:02:25.000Z</time>
      </trkpt>
      <trkpt lat="47.29774" lon="6.20476">
        <ele>258.567</ele>
        <time>2016-09-06T08:02:26.000Z</time>
      </trkpt>
      <trkpt lat="47.2977" lon="6.20475">
        <ele>260.264</ele>
        <time>2016-09-06T08:02:27.000Z</time>
      </trkpt>
      <trkpt lat="47.29765" lon="6.20474">
        <ele>259.589</ele>
        <time>2016-09-06T08:02:28.000Z</time>
      </trkpt>
      <trkpt lat="47.29761" lon="6.20473">
        <ele>261.327</ele>
        <time>2016-09-06T08:02:29.000Z</time>
      </trkpt>
      <trkpt lat="47.29756" lon="6.20473">
        <ele>261.57</ele>
        <time>2016-09-06T08:02:30.000Z</time>
      </trkpt>
      <trkpt lat="47.29752" lon="6.20472">
        <ele>263.33</ele>
        <time>2016-09-06T08:02:31.000Z</time>
      </trkpt>
      <trkpt lat="47.29747" lon="6.20471">
        <ele>262.997</ele>
        <time>2016-09-06T08:02:32.000Z</time>
      </trkpt>
      <trkpt lat="47.29741" lon="6.2047">
        <ele>262.699</ele>
        <time>2016-09-06T08:02:33.000Z</time>
      </trkpt>
      <trkpt lat="47.29737" lon="6.20468">
        <ele>263.197</ele>
        <time>2016-09-06T08:02:34.000Z</time>
      </trkpt>
      <trkpt lat="47.29732" lon="6.20467">
        <ele>263.362</ele>
        <time>2016-09-06T08:02:35.000Z</time>
      </trkpt>
      <trkpt lat="47.29727" lon="6.20465">
        <ele>262.054</ele>
        <time>2016-09-06T08:02:36.000Z</time>
      </trkpt>
      <trkpt lat="47.29721" lon="6.20462">
        <ele>259.638</ele>
        <time>2016-09-06T08:02:37.000Z</time>
      </trkpt>
      <trkpt lat="47.29717" lon="6.20462">
        <ele>259.332</ele>
        <time>2016-09-06T08:02:38.000Z</time>
      </trkpt>
      <trkpt lat="47.29713" lon="6.20461">
        <ele>259.311</ele>
        <time>2016-09-06T08:02:39.000Z</time>
      </trkpt>
      <trkpt lat="47.29709" lon="6.2046">
        <ele>258.924</ele>
        <time>2016-09-06T08:02:40.000Z</time>
      </trkpt>
      <trkpt lat="47.29704" lon="6.20459">
        <ele>259.364</ele>
        <time>2016-09-06T08:02:41.000Z</time>
      </trkpt>
      <trkpt lat="47.29701" lon="6.20459">
        <ele>261.223</ele>
        <time>2016-09-06T08:02:42.000Z</time>
      </trkpt>
      <trkpt lat="47.29698" lon="6.20458">
        <ele>262.403</ele>
        <time>2016-09-06T08:02:43.000Z</time>
      </trkpt>
      <trkpt lat="47.29693" lon="6.20457">
        <ele>261.473</ele>
        <time>2016-09-06T08:02:44.000Z</time>
      </trkpt>
      <trkpt lat="47.29689" lon="6.20455">
        <ele>261.639</ele>
        <time>2016-09-06T08:02:45.000Z</time>
      </trkpt>
      <trkpt lat="47.29684" lon="6.20454">
        <ele>261.297</ele>
        <time>2016-09-06T08:02:46.000Z</time>
      </trkpt>
      <trkpt lat="47.2968" lon="6.20453">
        <ele>261.98</ele>
        <time>2016-09-06T08:02:47.000Z</time>
      </trkpt>
      <trkpt lat="47.29676" lon="6.20454">
        <ele>261.909</ele>
        <time>2016-09-06T08:02:48.000Z</time>
      </trkpt>
      <trkpt lat="47.29672" lon="6.20454">
        <ele>262.786</ele>
        <time>2016-09-06T08:02:49.000Z</time>
      </trkpt>
      <trkpt lat="47.29668" lon="6.20453">
        <ele>263.312</ele>
        <time>2016-09-06T08:02:50.000Z</time>
      </trkpt>
      <trkpt lat="47.29663" lon="6.20453">
        <ele>262.633</ele>
        <time>2016-09-06T08:02:51.000Z</time>
      </trkpt>
      <trkpt lat="47.29659" lon="6.2045">
        <ele>262.309</ele>
        <time>2016-09-06T08:02:52.000Z</time>
      </trkpt>
      <trkpt lat="47.29655" lon="6.20449">
        <ele>262.366</ele>
        <time>2016-09-06T08:02:53.000Z</time>
      </trkpt>
      <trkpt lat="47.29651" lon="6.20448">
        <ele>262.313</ele>
        <time>2016-09-06T08:02:54.000Z</time>
      </trkpt>
      <trkpt lat="47.29647" lon="6.20446">
        <ele>262.417</ele>
        <time>2016-09-06T08:02:55.000Z</time>
      </trkpt>
      <trkpt lat="47.29643" lon="6.20445">
        <ele>261.624</ele>
        <time>2016-09-06T08:02:56.000Z</time>
      </trkpt>
      <trkpt lat="47.2964" lon="6.20443">
        <ele>261.977</ele>
        <time>2016-09-06T08:02:57.000Z</time>
      </trkpt>
      <trkpt lat="47.29637" lon="6.2044">
        <ele>262.569</ele>
        <time>2016-09-06T08:02:58.000Z</time>
      </trkpt>
      <trkpt lat="47.29634" lon="6.20438">
        <ele>263.397</ele>
        <time>2016-09-06T08:02:59.000Z</time>
      </trkpt>
      <trkpt lat="47.29631" lon="6.20436">
        <ele>260.124</ele>
        <time>2016-09-06T08:03:00.000Z</time>
      </trkpt>
      <trkpt lat="47.29628" lon="6.20433">
        <ele>258.024</ele>
        <time>2016-09-06T08:03:01.000Z</time>
      </trkpt>
      <trkpt lat="47.29626" lon="6.20431">
        <ele>257.342</ele>
        <time>2016-09-06T08:03:02.000Z</time>
      </trkpt>
      <trkpt lat="47.29624" lon="6.2043">
        <ele>256.861</ele>
        <time>2016-09-06T08:03:03.000Z</time>
      </trkpt>
      <trkpt lat="47.29621" lon="6.2043">
        <ele>257.698</ele>
        <time>2016-09-06T08:03:04.000Z</time>
      </trkpt>
      <trkpt lat="47.29617" lon="6.2043">
        <ele>257.602</ele>
        <time>2016-09-06T08:03:05.000Z</time>
      </trkpt>
      <trkpt lat="47.29614" lon="6.2043">
        <ele>257.147</ele>
        <time>2016-09-06T08:03:06.000Z</time>
      </trkpt>
      <trkpt lat="47.29611" lon="6.2043">
        <ele>256.697</ele>
        <time>2016-09-06T08:03:07.000Z</time>
      </trkpt>
      <trkpt lat="47.29607" lon="6.2043">
        <ele>256.708</ele>
        <time>2016-09-06T08:03:08.000Z</time>
      </trkpt>
      <trkpt lat="47.29604" lon="6.20429">
        <ele>254.73</ele>
        <time>2016-09-06T08:03:09.000Z</time>
      </trkpt>
      <trkpt lat="47.29601" lon="6.20429">
        <ele>254.759</ele>
        <time>2016-09-06T08:03:10.000Z</time>
      </trkpt>
      <trkpt lat="47.29598" lon="6.20428">
        <ele>254.181</ele>
        <time>2016-09-06T08:03:11.000Z</time>
      </trkpt>
      <trkpt lat="47.29594" lon="6.20427">
        <ele>254.975</ele>
        <time>2016-09-06T08:03:12.000Z</time>
      </trkpt>
      <trkpt lat="47.2959" lon="6.20427">
        <ele>255.451</ele>
        <time>2016-09-06T08:03:13.000Z</time>
      </trkpt>
      <trkpt lat="47.29586" lon="6.20426">
        <ele>255.661</ele>
        <time>2016-09-06T08:03:14.000Z</time>
      </trkpt>
      <trkpt lat="47.29581" lon="6.20426">
        <ele>256.073</ele>
        <time>2016-09-06T08:03:15.000Z</time>
      </trkpt>
      <trkpt lat="47.29578" lon="6.20425">
        <ele>256.268</ele>
        <time>2016-09-06T08:03:16.000Z</time>
      </trkpt>
      <trkpt lat="47.29575" lon="6.20425">
        <ele>256.785</ele>
        <time>2016-09-06T08:03:17.000Z</time>
      </trkpt>
      <trkpt lat="47.29571" lon="6.20425">
        <ele>255.637</ele>
        <time>2016-09-06T08:03:18.000Z</time>
      </trkpt>
      <trkpt lat="47.29568" lon="6.20424">
        <ele>254.969</ele>
        <time>2016-09-06T08:03:19.000Z</time>
      </trkpt>
      <trkpt lat="47.29564" lon="6.20423">
        <ele>254.465</ele>
        <time>2016-09-06T08:03:20.000Z</time>
      </trkpt>
      <trkpt lat="47.2956" lon="6.20422">
        <ele>253.986</ele>
        <time>2016-09-06T08:03:21.000Z</time>
      </trkpt>
      <trkpt lat="47.29556" lon="6.20421">
        <ele>254.955</ele>
        <time>2016-09-06T08:03:22.000Z</time>
      </trkpt>
      <trkpt lat="47.29552" lon="6.2042">
        <ele>254.54</ele>
        <time>2016-09-06T08:03:23.000Z</time>
      </trkpt>
      <trkpt lat="47.29547" lon="6.20419">
        <ele>255.371</ele>
        <time>2016-09-06T08:03:24.000Z</time>
      </trkpt>
      <trkpt lat="47.29543" lon="6.20418">
        <ele>256.913</ele>
        <time>2016-09-06T08:03:25.000Z</time>
      </trkpt>
      <trkpt lat="47.29539" lon="6.20417">
        <ele>253.843</ele>
        <time>2016-09-06T08:03:26.000Z</time>
      </trkpt>
      <trkpt lat="47.29535" lon="6.20416">
        <ele>253.25</ele>
        <time>2016-09-06T08:03:27.000Z</time>
      </trkpt>
      <trkpt lat="47.29531" lon="6.20415">
        <ele>251.593</ele>
        <time>2016-09-06T08:03:28.000Z</time>
      </trkpt>
      <trkpt lat="47.29527" lon="6.20414">
        <ele>252.609</ele>
        <time>2016-09-06T08:03:29.000Z</time>
      </trkpt>
      <trkpt lat="47.29523" lon="6.20413">
        <ele>251.926</ele>
        <time>2016-09-06T08:03:30.000Z</time>
      </trkpt>
      <trkpt lat="47.29518" lon="6.20411">
        <ele>252.394</ele>
        <time>2016-09-06T08:03:31.000Z</time>
      </trkpt>
      <trkpt lat="47.29513" lon="6.2041">
        <ele>251.443</ele>
        <time>2016-09-06T08:03:32.000Z</time>
      </trkpt>
      <trkpt lat="47.29508" lon="6.20408">
        <ele>251.796</ele>
        <time>2016-09-06T08:03:33.000Z</time>
      </trkpt>
      <trkpt lat="47.29504" lon="6.20407">
        <ele>252.224</ele>
        <time>2016-09-06T08:03:34.000Z</time>
      </trkpt>
      <trkpt lat="47.29499" lon="6.20406">
        <ele>249.576</ele>
        <time>2016-09-06T08:03:35.000Z</time>
      </trkpt>
      <trkpt lat="47.29494" lon="6.20404">
        <ele>250.93</ele>
        <time>2016-09-06T08:03:36.000Z</time>
      </trkpt>
      <trkpt lat="47.2949" lon="6.20403">
        <ele>250.641</ele>
        <time>2016-09-06T08:03:37.000Z</time>
      </trkpt>
      <trkpt lat="47.29485" lon="6.20401">
        <ele>248.982</ele>
        <time>2016-09-06T08:03:38.000Z</time>
      </trkpt>
      <trkpt lat="47.29481" lon="6.204">
        <ele>249.045</ele>
        <time>2016-09-06T08:03:39.000Z</time>
      </trkpt>
      <trkpt lat="47.29477" lon="6.20398">
        <ele>249.569</ele>
        <time>2016-09-06T08:03:40.000Z</time>
      </trkpt>
      <trkpt lat="47.29472" lon="6.20396">
        <ele>250.197</ele>
        <time>2016-09-06T08:03:41.000Z</time>
      </trkpt>
      <trkpt lat="47.29468" lon="6.20395">
        <ele>251.683</ele>
        <time>2016-09-06T08:03:42.000Z</time>
      </trkpt>
      <trkpt lat="47.29465" lon="6.20394">
        <ele>253.331</ele>
        <time>2016-09-06T08:03:43.000Z</time>
      </trkpt>
      <trkpt lat="47.29461" lon="6.20392">
        <ele>253.647</ele>
        <time>2016-09-06T08:03:44.000Z</time>
      </trkpt>
      <trkpt lat="47.29457" lon="6.2039">
        <ele>254.973</ele>
        <time>2016-09-06T08:03:45.000Z</time>
      </trkpt>
      <trkpt lat="47.29452" lon="6.20389">
        <ele>256.434</ele>
        <time>2016-09-06T08:03:46.000Z</time>
      </trkpt>
      <trkpt lat="47.29448" lon="6.20387">
        <ele>256.058</ele>
        <time>2016-09-06T08:03:47.000Z</time>
      </trkpt>
      <trkpt lat="47.29443" lon="6.20385">
        <ele>255.988</ele>
        <time>2016-09-06T08:03:48.000Z</time>
      </trkpt>
      <trkpt lat="47.29439" lon="6.20384">
        <ele>253.804</ele>
        <time>2016-09-06T08:03:49.000Z</time>
      </trkpt>
      <trkpt lat="47.29434" lon="6.20381">
        <ele>251.911</ele>
        <time>2016-09-06T08:03:50.000Z</time>
      </trkpt>
      <trkpt lat="47.2943" lon="6.2038">
        <ele>252.673</ele>
        <time>2016-09-06T08:03:51.000Z</time>
      </trkpt>
      <trkpt lat="47.29426" lon="6.20377">
        <ele>250.989</ele>
        <time>2016-09-06T08:03:52.000Z</time>
      </trkpt>
      <trkpt lat="47.29422" lon="6.20376">
        <ele>251.887</ele>
        <time>2016-09-06T08:03:53.000Z</time>
      </trkpt>
      <trkpt lat="47.29417" lon="6.20374">
        <ele>251.39</ele>
        <time>2016-09-06T08:03:54.000Z</time>
      </trkpt>
      <trkpt lat="47.29413" lon="6.20372">
        <ele>251.731</ele>
        <time>2016-09-06T08:03:55.000Z</time>
      </trkpt>
      <trkpt lat="47.29408" lon="6.2037">
        <ele>251.715</ele>
        <time>2016-09-06T08:03:56.000Z</time>
      </trkpt>
      <trkpt lat="47.29403" lon="6.2037">
        <ele>251.935</ele>
        <time>2016-09-06T08:03:57.000Z</time>
      </trkpt>
      <trkpt lat="47.294" lon="6.20368">
        <ele>252.271</ele>
        <time>2016-09-06T08:03:58.000Z</time>
      </trkpt>
      <trkpt lat="47.29395" lon="6.20367">
        <ele>252.442</ele>
        <time>2016-09-06T08:03:59.000Z</time>
      </trkpt>
      <trkpt lat="47.2939" lon="6.20366">
        <ele>252.187</ele>
        <time>2016-09-06T08:04:00.000Z</time>
      </trkpt>
      <trkpt lat="47.29386" lon="6.20365">
        <ele>252.264</ele>
        <time>2016-09-06T08:04:01.000Z</time>
      </trkpt>
      <trkpt lat="47.29381" lon="6.20361">
        <ele>250.113</ele>
        <time>2016-09-06T08:04:02.000Z</time>
      </trkpt>
      <trkpt lat="47.29376" lon="6.20359">
        <ele>248.826</ele>
        <time>2016-09-06T08:04:03.000Z</time>
      </trkpt>
      <trkpt lat="47.29372" lon="6.20357">
        <ele>249.002</ele>
        <time>2016-09-06T08:04:04.000Z</time>
      </trkpt>
      <trkpt lat="47.29368" lon="6.20355">
        <ele>248.879</ele>
        <time>2016-09-06T08:04:05.000Z</time>
      </trkpt>
      <trkpt lat="47.29364" lon="6.20352">
        <ele>249.595</ele>
        <time>2016-09-06T08:04:06.000Z</time>
      </trkpt>
      <trkpt lat="47.29361" lon="6.2035">
        <ele>248.144</ele>
        <time>2016-09-06T08:04:07.000Z</time>
      </trkpt>
      <trkpt lat="47.29357" lon="6.20349">
        <ele>249.249</ele>
        <time>2016-09-06T08:04:08.000Z</time>
      </trkpt>
      <trkpt lat="47.29354" lon="6.20347">
        <ele>249.643</ele>
        <time>2016-09-06T08:04:09.000Z</time>
      </trkpt>
      <trkpt lat="47.2935" lon="6.20345">
        <ele>249.507</ele>
        <time>2016-09-06T08:04:10.000Z</time>
      </trkpt>
      <trkpt lat="47.29347" lon="6.20343">
        <ele>249.635</ele>
        <time>2016-09-06T08:04:11.000Z</time>
      </trkpt>
      <trkpt lat="47.29343" lon="6.20341">
        <ele>249.691</ele>
        <time>2016-09-06T08:04:12.000Z</time>
      </trkpt>
      <trkpt lat="47.29339" lon="6.20339">
        <ele>250.003</ele>
        <time>2016-09-06T08:04:13.000Z</time>
      </trkpt>
      <trkpt lat="47.29335" lon="6.20337">
        <ele>250.553</ele>
        <time>2016-09-06T08:04:14.000Z</time>
      </trkpt>
      <trkpt lat="47.29331" lon="6.20335">
        <ele>251.099</ele>
        <time>2016-09-06T08:04:15.000Z</time>
      </trkpt>
      <trkpt lat="47.29327" lon="6.20333">
        <ele>250.287</ele>
        <time>2016-09-06T08:04:16.000Z</time>
      </trkpt>
      <trkpt lat="47.29323" lon="6.20331">
        <ele>250.927</ele>
        <time>2016-09-06T08:04:17.000Z</time>
      </trkpt>
      <trkpt lat="47.29317" lon="6.20328">
        <ele>251.899</ele>
        <time>2016-09-06T08:04:18.000Z</time>
      </trkpt>
      <trkpt lat="47.29312" lon="6.20325">
        <ele>252.029</ele>
        <time>2016-09-06T08:04:19.000Z</time>
      </trkpt>
      <trkpt lat="47.29308" lon="6.20323">
        <ele>252.243</ele>
        <time>2016-09-06T08:04:20.000Z</time>
      </trkpt>
      <trkpt lat="47.29304" lon="6.20319">
        <ele>251.227</ele>
        <time>2016-09-06T08:04:21.000Z</time>
      </trkpt>
      <trkpt lat="47.293" lon="6.20317">
        <ele>250.936</ele>
        <time>2016-09-06T08:04:22.000Z</time>
      </trkpt>
      <trkpt lat="47.29296" lon="6.20316">
        <ele>250.769</ele>
        <time>2016-09-06T08:04:23.000Z</time>
      </trkpt>
      <trkpt lat="47.29292" lon="6.20314">
        <ele>250.667</ele>
        <time>2016-09-06T08:04:24.000Z</time>
      </trkpt>
      <trkpt lat="47.29288" lon="6.20311">
        <ele>249.65</ele>
        <time>2016-09-06T08:04:25.000Z</time>
      </trkpt>
      <trkpt lat="47.29284" lon="6.2031">
        <ele>250.144</ele>
        <time>2016-09-06T08:04:26.000Z</time>
      </trkpt>
      <trkpt lat="47.29279" lon="6.20308">
        <ele>251.636</ele>
        <time>2016-09-06T08:04:27.000Z</time>
      </trkpt>
      <trkpt lat="47.29275" lon="6.20305">
        <ele>252.644</ele>
        <time>2016-09-06T08:04:28.000Z</time>
      </trkpt>
      <trkpt lat="47.29271" lon="6.20302">
        <ele>251.282</ele>
        <time>2016-09-06T08:04:29.000Z</time>
      </trkpt>
      <trkpt lat="47.29268" lon="6.203">
        <ele>250.712</ele>
        <time>2016-09-06T08:04:30.000Z</time>
      </trkpt>
      <trkpt lat="47.29265" lon="6.20297">
        <ele>252.263</ele>
        <time>2016-09-06T08:04:31.000Z</time>
      </trkpt>
      <trkpt lat="47.29261" lon="6.20295">
        <ele>253.536</ele>
        <time>2016-09-06T08:04:32.000Z</time>
      </trkpt>
      <trkpt lat="47.29259" lon="6.20293">
        <ele>253.752</ele>
        <time>2016-09-06T08:04:33.000Z</time>
      </trkpt>
      <trkpt lat="47.29256" lon="6.20291">
        <ele>254.596</ele>
        <time>2016-09-06T08:04:34.000Z</time>
      </trkpt>
      <trkpt lat="47.29254" lon="6.20291">
        <ele>254.383</ele>
        <time>2016-09-06T08:04:35.000Z</time>
      </trkpt>
      <trkpt lat="47.29253" lon="6.20295">
        <ele>254.796</ele>
        <time>2016-09-06T08:04:36.000Z</time>
      </trkpt>
      <trkpt lat="47.29252" lon="6.20298">
        <ele>255.197</ele>
        <time>2016-09-06T08:04:37.000Z</time>
      </trkpt>
      <trkpt lat="47.29251" lon="6.20301">
        <ele>256.091</ele>
        <time>2016-09-06T08:04:38.000Z</time>
      </trkpt>
      <trkpt lat="47.2925" lon="6.20305">
        <ele>256.695</ele>
        <time>2016-09-06T08:04:39.000Z</time>
      </trkpt>
      <trkpt lat="47.29249" lon="6.20309">
        <ele>256.168</ele>
        <time>2016-09-06T08:04:40.000Z</time>
      </trkpt>
      <trkpt lat="47.29248" lon="6.20312">
        <ele>256.454</ele>
        <time>2016-09-06T08:04:41.000Z</time>
      </trkpt>
      <trkpt lat="47.29246" lon="6.20315">
        <ele>256.119</ele>
        <time>2016-09-06T08:04:42.000Z</time>
      </trkpt>
      <trkpt lat="47.29244" lon="6.20319">
        <ele>256.433</ele>
        <time>2016-09-06T08:04:43.000Z</time>
      </trkpt>
      <trkpt lat="47.29241" lon="6.20322">
        <ele>256.447</ele>
        <time>2016-09-06T08:04:44.000Z</time>
      </trkpt>
      <trkpt lat="47.29237" lon="6.20324">
        <ele>257.004</ele>
        <time>2016-09-06T08:04:45.000Z</time>
      </trkpt>
      <trkpt lat="47.29232" lon="6.20324">
        <ele>256.488</ele>
        <time>2016-09-06T08:04:46.000Z</time>
      </trkpt>
      <trkpt lat="47.29224" lon="6.20316">
        <ele>256.491</ele>
        <time>2016-09-06T08:04:47.000Z</time>
      </trkpt>
      <trkpt lat="47.2922" lon="6.20317">
        <ele>256.201</ele>
        <time>2016-09-06T08:04:48.000Z</time>
      </trkpt>
      <trkpt lat="47.29214" lon="6.20311">
        <ele>255.473</ele>
        <time>2016-09-06T08:04:49.000Z</time>
      </trkpt>
      <trkpt lat="47.29209" lon="6.20306">
        <ele>255.483</ele>
        <time>2016-09-06T08:04:50.000Z</time>
      </trkpt>
      <trkpt lat="47.29203" lon="6.20301">
        <ele>255.569</ele>
        <time>2016-09-06T08:04:51.000Z</time>
      </trkpt>
      <trkpt lat="47.29198" lon="6.20297">
        <ele>256.705</ele>
        <time>2016-09-06T08:04:52.000Z</time>
      </trkpt>
      <trkpt lat="47.29193" lon="6.20293">
        <ele>256.341</ele>
        <time>2016-09-06T08:04:53.000Z</time>
      </trkpt>
      <trkpt lat="47.29189" lon="6.2029">
        <ele>257.174</ele>
        <time>2016-09-06T08:04:54.000Z</time>
      </trkpt>
      <trkpt lat="47.29185" lon="6.20287">
        <ele>256.572</ele>
        <time>2016-09-06T08:04:55.000Z</time>
      </trkpt>
      <trkpt lat="47.2918" lon="6.20283">
        <ele>256.132</ele>
        <time>2016-09-06T08:04:56.000Z</time>
      </trkpt>
      <trkpt lat="47.29175" lon="6.2028">
        <ele>255.139</ele>
        <time>2016-09-06T08:04:57.000Z</time>
      </trkpt>
      <trkpt lat="47.29171" lon="6.20277">
        <ele>254.65</ele>
        <time>2016-09-06T08:04:58.000Z</time>
      </trkpt>
      <trkpt lat="47.29167" lon="6.20274">
        <ele>255.58</ele>
        <time>2016-09-06T08:04:59.000Z</time>
      </trkpt>
      <trkpt lat="47.29163" lon="6.20271">
        <ele>255.04</ele>
        <time>2016-09-06T08:05:00.000Z</time>
      </trkpt>
      <trkpt lat="47.29159" lon="6.20268">
        <ele>255.1</ele>
        <time>2016-09-06T08:05:01.000Z</time>
      </trkpt>
      <trkpt lat="47.29154" lon="6.20265">
        <ele>254.039</ele>
        <time>2016-09-06T08:05:02.000Z</time>
      </trkpt>
      <trkpt lat="47.2915" lon="6.20261">
        <ele>254.329</ele>
        <time>2016-09-06T08:05:03.000Z</time>
      </trkpt>
      <trkpt lat="47.29146" lon="6.20262">
        <ele>253.682</ele>
        <time>2016-09-06T08:05:04.000Z</time>
      </trkpt>
      <trkpt lat="47.29142" lon="6.20263">
        <ele>254.12</ele>
        <time>2016-09-06T08:05:05.000Z</time>
      </trkpt>
      <trkpt lat="47.29138" lon="6.20265">
        <ele>253.519</ele>
        <time>2016-09-06T08:05:06.000Z</time>
      </trkpt>
      <trkpt lat="47.29134" lon="6.20266">
        <ele>253.349</ele>
        <time>2016-09-06T08:05:07.000Z</time>
      </trkpt>
      <trkpt lat="47.2913" lon="6.20269">
        <ele>253.129</ele>
        <time>2016-09-06T08:05:08.000Z</time>
      </trkpt>
      <trkpt lat="47.29126" lon="6.20269">
        <ele>252.85</ele>
        <time>2016-09-06T08:05:09.000Z</time>
      </trkpt>
      <trkpt lat="47.29122" lon="6.2027">
        <ele>252.782</ele>
        <time>2016-09-06T08:05:10.000Z</time>
      </trkpt>
      <trkpt lat="47.29118" lon="6.2027">
        <ele>252.848</ele>
        <time>2016-09-06T08:05:11.000Z</time>
      </trkpt>
      <trkpt lat="47.29114" lon="6.20269">
        <ele>252.771</ele>
        <time>2016-09-06T08:05:12.000Z</time>
      </trkpt>
      <trkpt lat="47.2911" lon="6.20269">
        <ele>253.172</ele>
        <time>2016-09-06T08:05:13.000Z</time>
      </trkpt>
      <trkpt lat="47.29106" lon="6.20269">
        <ele>253.053</ele>
        <time>2016-09-06T08:05:14.000Z</time>
      </trkpt>
      <trkpt lat="47.29102" lon="6.20269">
        <ele>253.061</ele>
        <time>2016-09-06T08:05:15.000Z</time>
      </trkpt>
      <trkpt lat="47.29099" lon="6.20269">
        <ele>253.501</ele>
        <time>2016-09-06T08:05:16.000Z</time>
      </trkpt>
      <trkpt lat="47.29095" lon="6.20269">
        <ele>252.886</ele>
        <time>2016-09-06T08:05:17.000Z</time>
      </trkpt>
      <trkpt lat="47.29091" lon="6.20268">
        <ele>253.079</ele>
        <time>2016-09-06T08:05:18.000Z</time>
      </trkpt>
      <trkpt lat="47.29086" lon="6.20267">
        <ele>250.615</ele>
        <time>2016-09-06T08:05:19.000Z</time>
      </trkpt>
      <trkpt lat="47.29082" lon="6.20265">
        <ele>250.155</ele>
        <time>2016-09-06T08:05:20.000Z</time>
      </trkpt>
      <trkpt lat="47.29078" lon="6.20262">
        <ele>248.886</ele>
        <time>2016-09-06T08:05:21.000Z</time>
      </trkpt>
      <trkpt lat="47.29075" lon="6.20258">
        <ele>248.141</ele>
        <time>2016-09-06T08:05:22.000Z</time>
      </trkpt>
      <trkpt lat="47.29071" lon="6.20253">
        <ele>246.893</ele>
        <time>2016-09-06T08:05:23.000Z</time>
      </trkpt>
      <trkpt lat="47.29068" lon="6.20248">
        <ele>248.099</ele>
        <time>2016-09-06T08:05:24.000Z</time>
      </trkpt>
      <trkpt lat="47.29065" lon="6.20243">
        <ele>249.41</ele>
        <time>2016-09-06T08:05:25.000Z</time>
      </trkpt>
      <trkpt lat="47.29062" lon="6.20238">
        <ele>250.613</ele>
        <time>2016-09-06T08:05:26.000Z</time>
      </trkpt>
      <trkpt lat="47.29059" lon="6.20233">
        <ele>252.643</ele>
        <time>2016-09-06T08:05:27.000Z</time>
      </trkpt>
      <trkpt lat="47.29057" lon="6.20228">
        <ele>253.042</ele>
        <time>2016-09-06T08:05:28.000Z</time>
      </trkpt>
      <trkpt lat="47.29056" lon="6.20222">
        <ele>253.424</ele>
        <time>2016-09-06T08:05:29.000Z</time>
      </trkpt>
      <trkpt lat="47.29054" lon="6.20215">
        <ele>252.729</ele>
        <time>2016-09-06T08:05:30.000Z</time>
      </trkpt>
      <trkpt lat="47.29052" lon="6.20209">
        <ele>251.691</ele>
        <time>2016-09-06T08:05:31.000Z</time>
      </trkpt>
      <trkpt lat="47.29052" lon="6.20199">
        <ele>251.908</ele>
        <time>2016-09-06T08:05:32.000Z</time>
      </trkpt>
      <trkpt lat="47.29049" lon="6.20192">
        <ele>251.6</ele>
        <time>2016-09-06T08:05:33.000Z</time>
      </trkpt>
      <trkpt lat="47.29047" lon="6.20186">
        <ele>250.672</ele>
        <time>2016-09-06T08:05:34.000Z</time>
      </trkpt>
      <trkpt lat="47.29044" lon="6.20181">
        <ele>250.329</ele>
        <time>2016-09-06T08:05:35.000Z</time>
      </trkpt>
      <trkpt lat="47.29042" lon="6.20177">
        <ele>251.533</ele>
        <time>2016-09-06T08:05:36.000Z</time>
      </trkpt>
      <trkpt lat="47.2904" lon="6.20172">
        <ele>252.549</ele>
        <time>2016-09-06T08:05:37.000Z</time>
      </trkpt>
      <trkpt lat="47.29037" lon="6.20167">
        <ele>252.356</ele>
        <time>2016-09-06T08:05:38.000Z</time>
      </trkpt>
      <trkpt lat="47.29036" lon="6.2016">
        <ele>251.99</ele>
        <time>2016-09-06T08:05:39.000Z</time>
      </trkpt>
      <trkpt lat="47.29033" lon="6.20155">
        <ele>251.346</ele>
        <time>2016-09-06T08:05:40.000Z</time>
      </trkpt>
      <trkpt lat="47.29031" lon="6.2015">
        <ele>252.576</ele>
        <time>2016-09-06T08:05:41.000Z</time>
      </trkpt>
      <trkpt lat="47.29029" lon="6.20145">
        <ele>252.298</ele>
        <time>2016-09-06T08:05:42.000Z</time>
      </trkpt>
      <trkpt lat="47.29027" lon="6.2014">
        <ele>253.234</ele>
        <time>2016-09-06T08:05:43.000Z</time>
      </trkpt>
      <trkpt lat="47.29025" lon="6.20135">
        <ele>253.474</ele>
        <time>2016-09-06T08:05:44.000Z</time>
      </trkpt>
      <trkpt lat="47.29023" lon="6.2013">
        <ele>253.423</ele>
        <time>2016-09-06T08:05:45.000Z</time>
      </trkpt>
      <trkpt lat="47.29018" lon="6.20125">
        <ele>252.885</ele>
        <time>2016-09-06T08:05:46.000Z</time>
      </trkpt>
      <trkpt lat="47.29017" lon="6.20123">
        <ele>252.208</ele>
        <time>2016-09-06T08:05:47.000Z</time>
      </trkpt>
      <trkpt lat="47.29016" lon="6.20122">
        <ele>253.613</ele>
        <time>2016-09-06T08:05:48.000Z</time>
      </trkpt>
      <trkpt lat="47.29013" lon="6.20117">
        <ele>254.875</ele>
        <time>2016-09-06T08:05:49.000Z</time>
      </trkpt>
      <trkpt lat="47.29013" lon="6.20113">
        <ele>258.191</ele>
        <time>2016-09-06T08:05:50.000Z</time>
      </trkpt>
      <trkpt lat="47.29011" lon="6.20105">
        <ele>259.792</ele>
        <time>2016-09-06T08:05:51.000Z</time>
      </trkpt>
      <trkpt lat="47.29009" lon="6.201">
        <ele>259.905</ele>
        <time>2016-09-06T08:05:52.000Z</time>
      </trkpt>
      <trkpt lat="47.29007" lon="6.20095">
        <ele>260.077</ele>
        <time>2016-09-06T08:05:53.000Z</time>
      </trkpt>
      <trkpt lat="47.2901" lon="6.20089">
        <ele>262.627</ele>
        <time>2016-09-06T08:05:54.000Z</time>
      </trkpt>
      <trkpt lat="47.2901" lon="6.20083">
        <ele>263.341</ele>
        <time>2016-09-06T08:05:55.000Z</time>
      </trkpt>
      <trkpt lat="47.29011" lon="6.20077">
        <ele>262.934</ele>
        <time>2016-09-06T08:05:56.000Z</time>
      </trkpt>
      <trkpt lat="47.29012" lon="6.20071">
        <ele>264.677</ele>
        <time>2016-09-06T08:05:57.000Z</time>
      </trkpt>
      <trkpt lat="47.2901" lon="6.20066">
        <ele>264.492</ele>
        <time>2016-09-06T08:05:58.000Z</time>
      </trkpt>
      <trkpt lat="47.29009" lon="6.2006">
        <ele>264.817</ele>
        <time>2016-09-06T08:05:59.000Z</time>
      </trkpt>
      <trkpt lat="47.29007" lon="6.20055">
        <ele>266.847</ele>
        <time>2016-09-06T08:06:00.000Z</time>
      </trkpt>
      <trkpt lat="47.29005" lon="6.20049">
        <ele>268.201</ele>
        <time>2016-09-06T08:06:01.000Z</time>
      </trkpt>
      <trkpt lat="47.29004" lon="6.20044">
        <ele>268.696</ele>
        <time>2016-09-06T08:06:02.000Z</time>
      </trkpt>
      <trkpt lat="47.29002" lon="6.20038">
        <ele>268.933</ele>
        <time>2016-09-06T08:06:03.000Z</time>
      </trkpt>
      <trkpt lat="47.28999" lon="6.20032">
        <ele>267.671</ele>
        <time>2016-09-06T08:06:04.000Z</time>
      </trkpt>
      <trkpt lat="47.28997" lon="6.20026">
        <ele>268.824</ele>
        <time>2016-09-06T08:06:05.000Z</time>
      </trkpt>
      <trkpt lat="47.28995" lon="6.2002">
        <ele>270.379</ele>
        <time>2016-09-06T08:06:06.000Z</time>
      </trkpt>
      <trkpt lat="47.28992" lon="6.20014">
        <ele>268.625</ele>
        <time>2016-09-06T08:06:07.000Z</time>
      </trkpt>
      <trkpt lat="47.2899" lon="6.20009">
        <ele>265.243</ele>
        <time>2016-09-06T08:06:08.000Z</time>
      </trkpt>
      <trkpt lat="47.28987" lon="6.20003">
        <ele>262.433</ele>
        <time>2016-09-06T08:06:09.000Z</time>
      </trkpt>
      <trkpt lat="47.28985" lon="6.19997">
        <ele>261.855</ele>
        <time>2016-09-06T08:06:10.000Z</time>
      </trkpt>
      <trkpt lat="47.28982" lon="6.19991">
        <ele>262.658</ele>
        <time>2016-09-06T08:06:11.000Z</time>
      </trkpt>
      <trkpt lat="47.2898" lon="6.19984">
        <ele>261.705</ele>
        <time>2016-09-06T08:06:12.000Z</time>
      </trkpt>
      <trkpt lat="47.28978" lon="6.19978">
        <ele>261.796</ele>
        <time>2016-09-06T08:06:13.000Z</time>
      </trkpt>
      <trkpt lat="47.28976" lon="6.19972">
        <ele>264.356</ele>
        <time>2016-09-06T08:06:14.000Z</time>
      </trkpt>
      <trkpt lat="47.28975" lon="6.19966">
        <ele>265.042</ele>
        <time>2016-09-06T08:06:15.000Z</time>
      </trkpt>
      <trkpt lat="47.28973" lon="6.1996">
        <ele>265.891</ele>
        <time>2016-09-06T08:06:16.000Z</time>
      </trkpt>
      <trkpt lat="47.2897" lon="6.19954">
        <ele>266.69</ele>
        <time>2016-09-06T08:06:17.000Z</time>
      </trkpt>
      <trkpt lat="47.28967" lon="6.19947">
        <ele>265.008</ele>
        <time>2016-09-06T08:06:18.000Z</time>
      </trkpt>
      <trkpt lat="47.28968" lon="6.19942">
        <ele>268.306</ele>
        <time>2016-09-06T08:06:19.000Z</time>
      </trkpt>
      <trkpt lat="47.28965" lon="6.19937">
        <ele>266.845</ele>
        <time>2016-09-06T08:06:20.000Z</time>
      </trkpt>
      <trkpt lat="47.28965" lon="6.19933">
        <ele>266.392</ele>
        <time>2016-09-06T08:06:21.000Z</time>
      </trkpt>
      <trkpt lat="47.28964" lon="6.19927">
        <ele>267.819</ele>
        <time>2016-09-06T08:06:22.000Z</time>
      </trkpt>
      <trkpt lat="47.28963" lon="6.19922">
        <ele>270.511</ele>
        <time>2016-09-06T08:06:23.000Z</time>
      </trkpt>
      <trkpt lat="47.28962" lon="6.19916">
        <ele>269.495</ele>
        <time>2016-09-06T08:06:24.000Z</time>
      </trkpt>
      <trkpt lat="47.28961" lon="6.19908">
        <ele>267.783</ele>
        <time>2016-09-06T08:06:25.000Z</time>
      </trkpt>
      <trkpt lat="47.28957" lon="6.19902">
        <ele>265.913</ele>
        <time>2016-09-06T08:06:26.000Z</time>
      </trkpt>
      <trkpt lat="47.28954" lon="6.19897">
        <ele>267.088</ele>
        <time>2016-09-06T08:06:27.000Z</time>
      </trkpt>
      <trkpt lat="47.28952" lon="6.19892">
        <ele>267.071</ele>
        <time>2016-09-06T08:06:28.000Z</time>
      </trkpt>
      <trkpt lat="47.28951" lon="6.19885">
        <ele>266.731</ele>
        <time>2016-09-06T08:06:29.000Z</time>
      </trkpt>
      <trkpt lat="47.2895" lon="6.19879">
        <ele>266.245</ele>
        <time>2016-09-06T08:06:30.000Z</time>
      </trkpt>
      <trkpt lat="47.28949" lon="6.19873">
        <ele>268.642</ele>
        <time>2016-09-06T08:06:31.000Z</time>
      </trkpt>
      <trkpt lat="47.28947" lon="6.19867">
        <ele>268.145</ele>
        <time>2016-09-06T08:06:32.000Z</time>
      </trkpt>
      <trkpt lat="47.28945" lon="6.19861">
        <ele>270.923</ele>
        <time>2016-09-06T08:06:33.000Z</time>
      </trkpt>
      <trkpt lat="47.28944" lon="6.19856">
        <ele>272.978</ele>
        <time>2016-09-06T08:06:34.000Z</time>
      </trkpt>
      <trkpt lat="47.28943" lon="6.19851">
        <ele>271.501</ele>
        <time>2016-09-06T08:06:35.000Z</time>
      </trkpt>
      <trkpt lat="47.28942" lon="6.19845">
        <ele>271.044</ele>
        <time>2016-09-06T08:06:36.000Z</time>
      </trkpt>
      <trkpt lat="47.2894" lon="6.1984">
        <ele>270.613</ele>
        <time>2016-09-06T08:06:37.000Z</time>
      </trkpt>
      <trkpt lat="47.28939" lon="6.19835">
        <ele>270.013</ele>
        <time>2016-09-06T08:06:38.000Z</time>
      </trkpt>
      <trkpt lat="47.28937" lon="6.1983">
        <ele>270.032</ele>
        <time>2016-09-06T08:06:39.000Z</time>
      </trkpt>
      <trkpt lat="47.28935" lon="6.19824">
        <ele>269.652</ele>
        <time>2016-09-06T08:06:40.000Z</time>
      </trkpt>
      <trkpt lat="47.28934" lon="6.19818">
        <ele>266.715</ele>
        <time>2016-09-06T08:06:41.000Z</time>
      </trkpt>
      <trkpt lat="47.28933" lon="6.19812">
        <ele>266.097</ele>
        <time>2016-09-06T08:06:42.000Z</time>
      </trkpt>
      <trkpt lat="47.28932" lon="6.19806">
        <ele>266.201</ele>
        <time>2016-09-06T08:06:43.000Z</time>
      </trkpt>
      <trkpt lat="47.28932" lon="6.19793">
        <ele>264.292</ele>
        <time>2016-09-06T08:06:44.000Z</time>
      </trkpt>
      <trkpt lat="47.28931" lon="6.19788">
        <ele>265.783</ele>
        <time>2016-09-06T08:06:45.000Z</time>
      </trkpt>
      <trkpt lat="47.2893" lon="6.19783">
        <ele>265.147</ele>
        <time>2016-09-06T08:06:46.000Z</time>
      </trkpt>
      <trkpt lat="47.28929" lon="6.19778">
        <ele>265.147</ele>
        <time>2016-09-06T08:06:47.000Z</time>
      </trkpt>
      <trkpt lat="47.28929" lon="6.19769">
        <ele>268.481</ele>
        <time>2016-09-06T08:06:48.000Z</time>
      </trkpt>
      <trkpt lat="47.28928" lon="6.19765">
        <ele>269.989</ele>
        <time>2016-09-06T08:06:49.000Z</time>
      </trkpt>
      <trkpt lat="47.28927" lon="6.19759">
        <ele>269.434</ele>
        <time>2016-09-06T08:06:50.000Z</time>
      </trkpt>
      <trkpt lat="47.28925" lon="6.19753">
        <ele>268.465</ele>
        <time>2016-09-06T08:06:51.000Z</time>
      </trkpt>
      <trkpt lat="47.28924" lon="6.19748">
        <ele>268.518</ele>
        <time>2016-09-06T08:06:52.000Z</time>
      </trkpt>
      <trkpt lat="47.28924" lon="6.19741">
        <ele>268.848</ele>
        <time>2016-09-06T08:06:53.000Z</time>
      </trkpt>
      <trkpt lat="47.28923" lon="6.19734">
        <ele>270.222</ele>
        <time>2016-09-06T08:06:54.000Z</time>
      </trkpt>
      <trkpt lat="47.28923" lon="6.19726">
        <ele>269.823</ele>
        <time>2016-09-06T08:06:55.000Z</time>
      </trkpt>
      <trkpt lat="47.2892" lon="6.19715">
        <ele>264.838</ele>
        <time>2016-09-06T08:06:56.000Z</time>
      </trkpt>
      <trkpt lat="47.28919" lon="6.19703">
        <ele>261.005</ele>
        <time>2016-09-06T08:06:57.000Z</time>
      </trkpt>
      <trkpt lat="47.28918" lon="6.19695">
        <ele>258.452</ele>
        <time>2016-09-06T08:06:58.000Z</time>
      </trkpt>
      <trkpt lat="47.28918" lon="6.19687">
        <ele>256.925</ele>
        <time>2016-09-06T08:06:59.000Z</time>
      </trkpt>
      <trkpt lat="47.28918" lon="6.19679">
        <ele>254.702</ele>
        <time>2016-09-06T08:07:00.000Z</time>
      </trkpt>
      <trkpt lat="47.28916" lon="6.19673">
        <ele>253.141</ele>
        <time>2016-09-06T08:07:01.000Z</time>
      </trkpt>
      <trkpt lat="47.28914" lon="6.19665">
        <ele>249.762</ele>
        <time>2016-09-06T08:07:02.000Z</time>
      </trkpt>
      <trkpt lat="47.28913" lon="6.19659">
        <ele>249.222</ele>
        <time>2016-09-06T08:07:03.000Z</time>
      </trkpt>
      <trkpt lat="47.28913" lon="6.19653">
        <ele>250.612</ele>
        <time>2016-09-06T08:07:04.000Z</time>
      </trkpt>
      <trkpt lat="47.28911" lon="6.19647">
        <ele>251.542</ele>
        <time>2016-09-06T08:07:05.000Z</time>
      </trkpt>
      <trkpt lat="47.2891" lon="6.1964">
        <ele>250.426</ele>
        <time>2016-09-06T08:07:06.000Z</time>
      </trkpt>
      <trkpt lat="47.28909" lon="6.19633">
        <ele>249.691</ele>
        <time>2016-09-06T08:07:07.000Z</time>
      </trkpt>
      <trkpt lat="47.28908" lon="6.19626">
        <ele>248.291</ele>
        <time>2016-09-06T08:07:08.000Z</time>
      </trkpt>
      <trkpt lat="47.28908" lon="6.1962">
        <ele>247.728</ele>
        <time>2016-09-06T08:07:09.000Z</time>
      </trkpt>
      <trkpt lat="47.28907" lon="6.19614">
        <ele>249.334</ele>
        <time>2016-09-06T08:07:10.000Z</time>
      </trkpt>
      <trkpt lat="47.28906" lon="6.19609">
        <ele>248.885</ele>
        <time>2016-09-06T08:07:11.000Z</time>
      </trkpt>
      <trkpt lat="47.28905" lon="6.19606">
        <ele>248.847</ele>
        <time>2016-09-06T08:07:12.000Z</time>
      </trkpt>
      <trkpt lat="47.28904" lon="6.19604">
        <ele>249.21</ele>
        <time>2016-09-06T08:07:13.000Z</time>
      </trkpt>
      <trkpt lat="47.28904" lon="6.19604">
        <ele>248.896</ele>
        <time>2016-09-06T08:07:14.000Z</time>
      </trkpt>
      <trkpt lat="47.28904" lon="6.19604">
        <ele>248.896</ele>
        <time>2016-09-06T08:07:14.624Z</time>
      </trkpt>
      <trkpt lat="47.28904" lon="6.19604">
        <ele>248.993</ele>
        <time>2016-09-06T08:07:15.000Z</time>
      </trkpt>
      <trkpt lat="47.28904" lon="6.19604">
        <ele>248.447</ele>
        <time>2016-09-06T08:07:16.000Z</time>
      </trkpt>
      <trkpt lat="47.28904" lon="6.19604">
        <ele>248.19</ele>
        <time>2016-09-06T08:07:17.000Z</time>
      </trkpt>
      <trkpt lat="47.28904" lon="6.19605">
        <ele>247.613</ele>
        <time>2016-09-06T08:07:18.000Z</time>
      </trkpt>
      <trkpt lat="47.28904" lon="6.19605">
        <ele>247.53</ele>
        <time>2016-09-06T08:07:19.000Z</time>
      </trkpt>
      <trkpt lat="47.28904" lon="6.19605">
        <ele>247.612</ele>
        <time>2016-09-06T08:07:20.000Z</time>
      </trkpt>
      <trkpt lat="47.28904" lon="6.19605">
        <ele>247.625</ele>
        <time>2016-09-06T08:07:21.000Z</time>
      </trkpt>
      <trkpt lat="47.28904" lon="6.19606">
        <ele>248.011</ele>
        <time>2016-09-06T08:07:22.000Z</time>
      </trkpt>
      <trkpt lat="47.28905" lon="6.19607">
        <ele>247.631</ele>
        <time>2016-09-06T08:07:23.000Z</time>
      </trkpt>
      <trkpt lat="47.28905" lon="6.19607">
        <ele>246.941</ele>
        <time>2016-09-06T08:07:24.000Z</time>
      </trkpt>
      <trkpt lat="47.28905" lon="6.19607">
        <ele>247.208</ele>
        <time>2016-09-06T08:07:25.000Z</time>
      </trkpt>
      <trkpt lat="47.28905" lon="6.19608">
        <ele>247.434</ele>
        <time>2016-09-06T08:07:26.000Z</time>
      </trkpt>
      <trkpt lat="47.28906" lon="6.19609">
        <ele>247.307</ele>
        <time>2016-09-06T08:07:27.000Z</time>
      </trkpt>
      <trkpt lat="47.28906" lon="6.19609">
        <ele>247.61</ele>
        <time>2016-09-06T08:07:28.000Z</time>
      </trkpt>
      <trkpt lat="47.28906" lon="6.19608">
        <ele>247.402</ele>
        <time>2016-09-06T08:07:29.000Z</time>
      </trkpt>
      <trkpt lat="47.28905" lon="6.19607">
        <ele>247.696</ele>
        <time>2016-09-06T08:07:30.000Z</time>
      </trkpt>
      <trkpt lat="47.28905" lon="6.19606">
        <ele>246.994</ele>
        <time>2016-09-06T08:07:31.000Z</time>
      </trkpt>
      <trkpt lat="47.28904" lon="6.19605">
        <ele>246.256</ele>
        <time>2016-09-06T08:07:32.000Z</time>
      </trkpt>
      <trkpt lat="47.28904" lon="6.19605">
        <ele>245.795</ele>
        <time>2016-09-06T08:07:33.000Z</time>
      </trkpt>
      <trkpt lat="47.28904" lon="6.19605">
        <ele>245.893</ele>
        <time>2016-09-06T08:07:34.000Z</time>
      </trkpt>
      <trkpt lat="47.28904" lon="6.19605">
        <ele>247.583</ele>
        <time>2016-09-06T08:07:35.000Z</time>
      </trkpt>
      <trkpt lat="47.28904" lon="6.19605">
        <ele>248.037</ele>
        <time>2016-09-06T08:07:36.000Z</time>
      </trkpt>
      <trkpt lat="47.28904" lon="6.19605">
        <ele>248.094</ele>
        <time>2016-09-06T08:07:37.000Z</time>
      </trkpt>
      <trkpt lat="47.28904" lon="6.19605">
        <ele>248.46</ele>
        <time>2016-09-06T08:07:38.000Z</time>
      </trkpt>
      <trkpt lat="47.28904" lon="6.19605">
        <ele>247.89</ele>
        <time>2016-09-06T08:07:39.000Z</time>
      </trkpt>
      <trkpt lat="47.28904" lon="6.19605">
        <ele>247.571</ele>
        <time>2016-09-06T08:07:40.000Z</time>
      </trkpt>
      <trkpt lat="47.28904" lon="6.19605">
        <ele>247.551</ele>
        <time>2016-09-06T08:07:41.000Z</time>
      </trkpt>
      <trkpt lat="47.28904" lon="6.19605">
        <ele>247.94</ele>
        <time>2016-09-06T08:07:42.000Z</time>
      </trkpt>
      <trkpt lat="47.28904" lon="6.19605">
        <ele>248.658</ele>
        <time>2016-09-06T08:07:43.000Z</time>
      </trkpt>
      <trkpt lat="47.28903" lon="6.19606">
        <ele>249.417</ele>
        <time>2016-09-06T08:07:44.000Z</time>
      </trkpt>
      <trkpt lat="47.28903" lon="6.19605">
        <ele>248.894</ele>
        <time>2016-09-06T08:07:45.000Z</time>
      </trkpt>
      <trkpt lat="47.28902" lon="6.19604">
        <ele>247.468</ele>
        <time>2016-09-06T08:07:46.000Z</time>
      </trkpt>
      <trkpt lat="47.28902" lon="6.19602">
        <ele>247.882</ele>
        <time>2016-09-06T08:07:47.000Z</time>
      </trkpt>
      <trkpt lat="47.28902" lon="6.19602">
        <ele>247.727</ele>
        <time>2016-09-06T08:07:48.000Z</time>
      </trkpt>
      <trkpt lat="47.28902" lon="6.19602">
        <ele>247.336</ele>
        <time>2016-09-06T08:07:49.000Z</time>
      </trkpt>
      <trkpt lat="47.28898" lon="6.19597">
        <ele>246.923</ele>
        <time>2016-09-06T08:07:50.000Z</time>
      </trkpt>
      <trkpt lat="47.28898" lon="6.19597">
        <ele>246.281</ele>
        <time>2016-09-06T08:07:51.000Z</time>
      </trkpt>
      <trkpt lat="47.28899" lon="6.19598">
        <ele>244.66</ele>
        <time>2016-09-06T08:07:52.000Z</time>
      </trkpt>
      <trkpt lat="47.28899" lon="6.19598">
        <ele>240.482</ele>
        <time>2016-09-06T08:07:53.000Z</time>
      </trkpt>
      <trkpt lat="47.28901" lon="6.19605">
        <ele>238.527</ele>
        <time>2016-09-06T08:07:54.000Z</time>
      </trkpt>
      <trkpt lat="47.28901" lon="6.19605">
        <ele>237.753</ele>
        <time>2016-09-06T08:07:55.000Z</time>
      </trkpt>
      <trkpt lat="47.28901" lon="6.19605">
        <ele>237.875</ele>
        <time>2016-09-06T08:07:56.000Z</time>
      </trkpt>
      <trkpt lat="47.28901" lon="6.19605">
        <ele>237.601</ele>
        <time>2016-09-06T08:07:57.000Z</time>
      </trkpt>
      <trkpt lat="47.28901" lon="6.19605">
        <ele>237.264</ele>
        <time>2016-09-06T08:07:58.000Z</time>
      </trkpt>
      <trkpt lat="47.28901" lon="6.19605">
        <ele>237.971</ele>
        <time>2016-09-06T08:07:59.000Z</time>
      </trkpt>
      <trkpt lat="47.28901" lon="6.19605">
        <ele>238.694</ele>
        <time>2016-09-06T08:08:00.000Z</time>
      </trkpt>
      <trkpt lat="47.28901" lon="6.19605">
        <ele>238.823</ele>
        <time>2016-09-06T08:08:01.000Z</time>
      </trkpt>
      <trkpt lat="47.28901" lon="6.19605">
        <ele>239.408</ele>
        <time>2016-09-06T08:08:02.000Z</time>
      </trkpt>
      <trkpt lat="47.28901" lon="6.19605">
        <ele>239.766</ele>
        <time>2016-09-06T08:08:03.000Z</time>
      </trkpt>
      <trkpt lat="47.28901" lon="6.19605">
        <ele>238.827</ele>
        <time>2016-09-06T08:08:04.000Z</time>
      </trkpt>
      <trkpt lat="47.28901" lon="6.19605">
        <ele>238.763</ele>
        <time>2016-09-06T08:08:05.000Z</time>
      </trkpt>
      <trkpt lat="47.28901" lon="6.19605">
        <ele>238.274</ele>
        <time>2016-09-06T08:08:06.000Z</time>
      </trkpt>
      <trkpt lat="47.28901" lon="6.19605">
        <ele>238.662</ele>
        <time>2016-09-06T08:08:07.000Z</time>
      </trkpt>
      <trkpt lat="47.28901" lon="6.19605">
        <ele>238.37</ele>
        <time>2016-09-06T08:08:08.000Z</time>
      </trkpt>
      <trkpt lat="47.28901" lon="6.19605">
        <ele>238.321</ele>
        <time>2016-09-06T08:08:09.000Z</time>
      </trkpt>
      <trkpt lat="47.28901" lon="6.19605">
        <ele>238.283</ele>
        <time>2016-09-06T08:08:10.000Z</time>
      </trkpt>
      <trkpt lat="47.28901" lon="6.19605">
        <ele>238.668</ele>
        <time>2016-09-06T08:08:11.000Z</time>
      </trkpt>
      <trkpt lat="47.28901" lon="6.19605">
        <ele>241.49</ele>
        <time>2016-09-06T08:08:12.000Z</time>
      </trkpt>
      <trkpt lat="47.28901" lon="6.19605">
        <ele>243.584</ele>
        <time>2016-09-06T08:08:13.000Z</time>
      </trkpt>
      <trkpt lat="47.28901" lon="6.19605">
        <ele>244.021</ele>
        <time>2016-09-06T08:08:14.000Z</time>
      </trkpt>
      <trkpt lat="47.28901" lon="6.19605">
        <ele>247.299</ele>
        <time>2016-09-06T08:08:15.000Z</time>
      </trkpt>
      <trkpt lat="47.28905" lon="6.19609">
        <ele>249.044</ele>
        <time>2016-09-06T08:08:16.000Z</time>
      </trkpt>
      <trkpt lat="47.28906" lon="6.19611">
        <ele>253.638</ele>
        <time>2016-09-06T08:08:17.000Z</time>
      </trkpt>
      <trkpt lat="47.28906" lon="6.19611">
        <ele>255.784</ele>
        <time>2016-09-06T08:08:18.000Z</time>
      </trkpt>
      <trkpt lat="47.28909" lon="6.19616">
        <ele>255.515</ele>
        <time>2016-09-06T08:08:19.000Z</time>
      </trkpt>
      <trkpt lat="47.28909" lon="6.19616">
        <ele>254.091</ele>
        <time>2016-09-06T08:08:20.000Z</time>
      </trkpt>
      <trkpt lat="47.28909" lon="6.19616">
        <ele>253.43</ele>
        <time>2016-09-06T08:08:21.000Z</time>
      </trkpt>
      <trkpt lat="47.28909" lon="6.19616">
        <ele>254.883</ele>
        <time>2016-09-06T08:08:22.000Z</time>
      </trkpt>
      <trkpt lat="47.28909" lon="6.19616">
        <ele>254.605</ele>
        <time>2016-09-06T08:08:23.000Z</time>
      </trkpt>
      <trkpt lat="47.28909" lon="6.19616">
        <ele>253.798</ele>
        <time>2016-09-06T08:08:24.000Z</time>
      </trkpt>
      <trkpt lat="47.28909" lon="6.19616">
        <ele>254.095</ele>
        <time>2016-09-06T08:08:25.003Z</time>
      </trkpt>
      <trkpt lat="47.28909" lon="6.19616">
        <ele>252.376</ele>
        <time>2016-09-06T08:08:26.000Z</time>
      </trkpt>
      <trkpt lat="47.28909" lon="6.19616">
        <ele>255.105</ele>
        <time>2016-09-06T08:08:27.000Z</time>
      </trkpt>
      <trkpt lat="47.28909" lon="6.19616">
        <ele>255.502</ele>
        <time>2016-09-06T08:08:28.000Z</time>
      </trkpt>
      <trkpt lat="47.28909" lon="6.19616">
        <ele>254.574</ele>
        <time>2016-09-06T08:08:29.000Z</time>
      </trkpt>
      <trkpt lat="47.28909" lon="6.19616">
        <ele>254.574</ele>
        <time>2016-09-06T08:08:29.640Z</time>
      </trkpt>
      <trkpt lat="47.28909" lon="6.19616">
        <ele>255.293</ele>
        <time>2016-09-06T08:08:30.000Z</time>
      </trkpt>
      <trkpt lat="47.28909" lon="6.19616">
        <ele>256.182</ele>
        <time>2016-09-06T08:08:31.000Z</time>
      </trkpt>
      <trkpt lat="47.28909" lon="6.19616">
        <ele>256.801</ele>
        <time>2016-09-06T08:08:32.000Z</time>
      </trkpt>
      <trkpt lat="47.28909" lon="6.19616">
        <ele>257.653</ele>
        <time>2016-09-06T08:08:33.000Z</time>
      </trkpt>
      <trkpt lat="47.28909" lon="6.19616">
        <ele>257.15</ele>
        <time>2016-09-06T08:08:34.000Z</time>
      </trkpt>
      <trkpt lat="47.28909" lon="6.19616">
        <ele>255.896</ele>
        <time>2016-09-06T08:08:35.000Z</time>
      </trkpt>
      <trkpt lat="47.28909" lon="6.19616">
        <ele>255.501</ele>
        <time>2016-09-06T08:08:36.000Z</time>
      </trkpt>
      <trkpt lat="47.28909" lon="6.19616">
        <ele>254.141</ele>
        <time>2016-09-06T08:08:37.000Z</time>
      </trkpt>
      <trkpt lat="47.28909" lon="6.19616">
        <ele>254.251</ele>
        <time>2016-09-06T08:08:38.000Z</time>
      </trkpt>
      <trkpt lat="47.28909" lon="6.19616">
        <ele>255.9</ele>
        <time>2016-09-06T08:08:39.000Z</time>
      </trkpt>
      <trkpt lat="47.2891" lon="6.19614">
        <ele>257.349</ele>
        <time>2016-09-06T08:08:40.000Z</time>
      </trkpt>
      <trkpt lat="47.2891" lon="6.19614">
        <ele>256.236</ele>
        <time>2016-09-06T08:08:41.000Z</time>
      </trkpt>
      <trkpt lat="47.2891" lon="6.19614">
        <ele>255.62</ele>
        <time>2016-09-06T08:08:42.000Z</time>
      </trkpt>
      <trkpt lat="47.2891" lon="6.19614">
        <ele>255.64</ele>
        <time>2016-09-06T08:08:43.000Z</time>
      </trkpt>
      <trkpt lat="47.2891" lon="6.19614">
        <ele>255.935</ele>
        <time>2016-09-06T08:08:44.000Z</time>
      </trkpt>
      <trkpt lat="47.2891" lon="6.19614">
        <ele>255.919</ele>
        <time>2016-09-06T08:08:45.000Z</time>
      </trkpt>
      <trkpt lat="47.2891" lon="6.19614">
        <ele>254.605</ele>
        <time>2016-09-06T08:08:46.000Z</time>
      </trkpt>
      <trkpt lat="47.2891" lon="6.19614">
        <ele>254.946</ele>
        <time>2016-09-06T08:08:47.000Z</time>
      </trkpt>
      <trkpt lat="47.28913" lon="6.19608">
        <ele>255.309</ele>
        <time>2016-09-06T08:08:48.000Z</time>
      </trkpt>
      <trkpt lat="47.28913" lon="6.19608">
        <ele>255.309</ele>
        <time>2016-09-06T08:08:49.089Z</time>
      </trkpt>
      <trkpt lat="47.28913" lon="6.19608">
        <ele>255.57</ele>
        <time>2016-09-06T08:08:50.000Z</time>
      </trkpt>
      <trkpt lat="47.28913" lon="6.19608">
        <ele>255.46</ele>
        <time>2016-09-06T08:08:51.000Z</time>
      </trkpt>
      <trkpt lat="47.28913" lon="6.19608">
        <ele>254.859</ele>
        <time>2016-09-06T08:08:52.000Z</time>
      </trkpt>
      <trkpt lat="47.28913" lon="6.19607">
        <ele>255.508</ele>
        <time>2016-09-06T08:08:53.000Z</time>
      </trkpt>
      <trkpt lat="47.28912" lon="6.19607">
        <ele>254.085</ele>
        <time>2016-09-06T08:08:54.000Z</time>
      </trkpt>
      <trkpt lat="47.28912" lon="6.19607">
        <ele>254.641</ele>
        <time>2016-09-06T08:08:55.000Z</time>
      </trkpt>
      <trkpt lat="47.28912" lon="6.19607">
        <ele>254.291</ele>
        <time>2016-09-06T08:08:56.000Z</time>
      </trkpt>
      <trkpt lat="47.28912" lon="6.19606">
        <ele>255.29</ele>
        <time>2016-09-06T08:08:57.000Z</time>
      </trkpt>
      <trkpt lat="47.28912" lon="6.19606">
        <ele>254.529</ele>
        <time>2016-09-06T08:08:58.000Z</time>
      </trkpt>
      <trkpt lat="47.28912" lon="6.19604">
        <ele>253.885</ele>
        <time>2016-09-06T08:08:59.000Z</time>
      </trkpt>
      <trkpt lat="47.28912" lon="6.19603">
        <ele>252.468</ele>
        <time>2016-09-06T08:09:00.000Z</time>
      </trkpt>
      <trkpt lat="47.28912" lon="6.19601">
        <ele>252.168</ele>
        <time>2016-09-06T08:09:01.000Z</time>
      </trkpt>
      <trkpt lat="47.28912" lon="6.19599">
        <ele>253.386</ele>
        <time>2016-09-06T08:09:02.000Z</time>
      </trkpt>
      <trkpt lat="47.28912" lon="6.19597">
        <ele>254.315</ele>
        <time>2016-09-06T08:09:03.000Z</time>
      </trkpt>
      <trkpt lat="47.28912" lon="6.19594">
        <ele>254.016</ele>
        <time>2016-09-06T08:09:04.000Z</time>
      </trkpt>
      <trkpt lat="47.28912" lon="6.19592">
        <ele>254.881</ele>
        <time>2016-09-06T08:09:05.000Z</time>
      </trkpt>
      <trkpt lat="47.28911" lon="6.19588">
        <ele>257.287</ele>
        <time>2016-09-06T08:09:06.000Z</time>
      </trkpt>
      <trkpt lat="47.28911" lon="6.19584">
        <ele>257.224</ele>
        <time>2016-09-06T08:09:07.000Z</time>
      </trkpt>
      <trkpt lat="47.28909" lon="6.19581">
        <ele>257.079</ele>
        <time>2016-09-06T08:09:08.000Z</time>
      </trkpt>
      <trkpt lat="47.28908" lon="6.19576">
        <ele>256.712</ele>
        <time>2016-09-06T08:09:09.000Z</time>
      </trkpt>
      <trkpt lat="47.28907" lon="6.19571">
        <ele>256.554</ele>
        <time>2016-09-06T08:09:10.000Z</time>
      </trkpt>
      <trkpt lat="47.28906" lon="6.19566">
        <ele>255.602</ele>
        <time>2016-09-06T08:09:11.000Z</time>
      </trkpt>
      <trkpt lat="47.28905" lon="6.1956">
        <ele>255.906</ele>
        <time>2016-09-06T08:09:12.000Z</time>
      </trkpt>
      <trkpt lat="47.28904" lon="6.19553">
        <ele>253.11</ele>
        <time>2016-09-06T08:09:13.000Z</time>
      </trkpt>
      <trkpt lat="47.28903" lon="6.19546">
        <ele>251.389</ele>
        <time>2016-09-06T08:09:14.000Z</time>
      </trkpt>
      <trkpt lat="47.28902" lon="6.19539">
        <ele>250.851</ele>
        <time>2016-09-06T08:09:15.000Z</time>
      </trkpt>
      <trkpt lat="47.28899" lon="6.19531">
        <ele>250.366</ele>
        <time>2016-09-06T08:09:16.000Z</time>
      </trkpt>
      <trkpt lat="47.28898" lon="6.19526">
        <ele>251.239</ele>
        <time>2016-09-06T08:09:17.000Z</time>
      </trkpt>
      <trkpt lat="47.28898" lon="6.19519">
        <ele>250.794</ele>
        <time>2016-09-06T08:09:18.000Z</time>
      </trkpt>
      <trkpt lat="47.28897" lon="6.19513">
        <ele>250.88</ele>
        <time>2016-09-06T08:09:19.000Z</time>
      </trkpt>
      <trkpt lat="47.28896" lon="6.19506">
        <ele>250.641</ele>
        <time>2016-09-06T08:09:20.000Z</time>
      </trkpt>
      <trkpt lat="47.28896" lon="6.19501">
        <ele>249.688</ele>
        <time>2016-09-06T08:09:21.000Z</time>
      </trkpt>
      <trkpt lat="47.28895" lon="6.19495">
        <ele>251.384</ele>
        <time>2016-09-06T08:09:22.000Z</time>
      </trkpt>
      <trkpt lat="47.28895" lon="6.1949">
        <ele>252.229</ele>
        <time>2016-09-06T08:09:23.000Z</time>
      </trkpt>
      <trkpt lat="47.28895" lon="6.19483">
        <ele>252.576</ele>
        <time>2016-09-06T08:09:24.000Z</time>
      </trkpt>
      <trkpt lat="47.28893" lon="6.19477">
        <ele>253.162</ele>
        <time>2016-09-06T08:09:25.000Z</time>
      </trkpt>
      <trkpt lat="47.28894" lon="6.1947">
        <ele>258.799</ele>
        <time>2016-09-06T08:09:26.000Z</time>
      </trkpt>
      <trkpt lat="47.28893" lon="6.19464">
        <ele>260.547</ele>
        <time>2016-09-06T08:09:27.000Z</time>
      </trkpt>
      <trkpt lat="47.28892" lon="6.19457">
        <ele>260.819</ele>
        <time>2016-09-06T08:09:28.000Z</time>
      </trkpt>
      <trkpt lat="47.2889" lon="6.19452">
        <ele>259.224</ele>
        <time>2016-09-06T08:09:29.000Z</time>
      </trkpt>
      <trkpt lat="47.2889" lon="6.19443">
        <ele>258.472</ele>
        <time>2016-09-06T08:09:30.000Z</time>
      </trkpt>
      <trkpt lat="47.28889" lon="6.19436">
        <ele>257.789</ele>
        <time>2016-09-06T08:09:31.000Z</time>
      </trkpt>
      <trkpt lat="47.28888" lon="6.19427">
        <ele>256.183</ele>
        <time>2016-09-06T08:09:32.000Z</time>
      </trkpt>
      <trkpt lat="47.28888" lon="6.19416">
        <ele>255.286</ele>
        <time>2016-09-06T08:09:33.000Z</time>
      </trkpt>
      <trkpt lat="47.28888" lon="6.19409">
        <ele>257.026</ele>
        <time>2016-09-06T08:09:34.000Z</time>
      </trkpt>
      <trkpt lat="47.28886" lon="6.194">
        <ele>257.306</ele>
        <time>2016-09-06T08:09:35.000Z</time>
      </trkpt>
      <trkpt lat="47.28886" lon="6.19393">
        <ele>258.775</ele>
        <time>2016-09-06T08:09:36.000Z</time>
      </trkpt>
      <trkpt lat="47.28886" lon="6.19385">
        <ele>261.494</ele>
        <time>2016-09-06T08:09:37.000Z</time>
      </trkpt>
      <trkpt lat="47.28885" lon="6.19379">
        <ele>262.158</ele>
        <time>2016-09-06T08:09:38.000Z</time>
      </trkpt>
      <trkpt lat="47.28886" lon="6.19372">
        <ele>262.156</ele>
        <time>2016-09-06T08:09:39.000Z</time>
      </trkpt>
      <trkpt lat="47.28886" lon="6.19364">
        <ele>260.901</ele>
        <time>2016-09-06T08:09:40.000Z</time>
      </trkpt>
      <trkpt lat="47.28884" lon="6.19358">
        <ele>260.752</ele>
        <time>2016-09-06T08:09:41.000Z</time>
      </trkpt>
      <trkpt lat="47.28884" lon="6.19351">
        <ele>261.576</ele>
        <time>2016-09-06T08:09:42.000Z</time>
      </trkpt>
      <trkpt lat="47.28885" lon="6.19344">
        <ele>263.741</ele>
        <time>2016-09-06T08:09:43.000Z</time>
      </trkpt>
      <trkpt lat="47.28884" lon="6.19337">
        <ele>263.535</ele>
        <time>2016-09-06T08:09:44.000Z</time>
      </trkpt>
      <trkpt lat="47.28883" lon="6.19331">
        <ele>264.47</ele>
        <time>2016-09-06T08:09:45.000Z</time>
      </trkpt>
      <trkpt lat="47.28883" lon="6.19325">
        <ele>264.639</ele>
        <time>2016-09-06T08:09:46.000Z</time>
      </trkpt>
      <trkpt lat="47.28883" lon="6.1932">
        <ele>264.338</ele>
        <time>2016-09-06T08:09:47.000Z</time>
      </trkpt>
      <trkpt lat="47.28883" lon="6.19313">
        <ele>263.772</ele>
        <time>2016-09-06T08:09:48.000Z</time>
      </trkpt>
      <trkpt lat="47.28883" lon="6.19306">
        <ele>264.079</ele>
        <time>2016-09-06T08:09:49.000Z</time>
      </trkpt>
      <trkpt lat="47.28883" lon="6.19299">
        <ele>263.944</ele>
        <time>2016-09-06T08:09:50.000Z</time>
      </trkpt>
      <trkpt lat="47.28882" lon="6.19293">
        <ele>263.394</ele>
        <time>2016-09-06T08:09:51.000Z</time>
      </trkpt>
      <trkpt lat="47.28882" lon="6.19287">
        <ele>263.633</ele>
        <time>2016-09-06T08:09:52.000Z</time>
      </trkpt>
      <trkpt lat="47.28882" lon="6.19276">
        <ele>262.227</ele>
        <time>2016-09-06T08:09:53.000Z</time>
      </trkpt>
      <trkpt lat="47.28881" lon="6.19267">
        <ele>262.077</ele>
        <time>2016-09-06T08:09:54.000Z</time>
      </trkpt>
      <trkpt lat="47.2888" lon="6.19261">
        <ele>261.592</ele>
        <time>2016-09-06T08:09:55.000Z</time>
      </trkpt>
      <trkpt lat="47.28879" lon="6.19255">
        <ele>262.647</ele>
        <time>2016-09-06T08:09:56.000Z</time>
      </trkpt>
      <trkpt lat="47.28878" lon="6.19249">
        <ele>262.243</ele>
        <time>2016-09-06T08:09:57.000Z</time>
      </trkpt>
      <trkpt lat="47.28877" lon="6.19241">
        <ele>261.841</ele>
        <time>2016-09-06T08:09:58.000Z</time>
      </trkpt>
      <trkpt lat="47.2888" lon="6.19236">
        <ele>266.378</ele>
        <time>2016-09-06T08:09:59.000Z</time>
      </trkpt>
      <trkpt lat="47.28879" lon="6.1923">
        <ele>267.243</ele>
        <time>2016-09-06T08:10:00.000Z</time>
      </trkpt>
      <trkpt lat="47.28878" lon="6.19221">
        <ele>267.22</ele>
        <time>2016-09-06T08:10:01.000Z</time>
      </trkpt>
      <trkpt lat="47.28879" lon="6.1921">
        <ele>267.187</ele>
        <time>2016-09-06T08:10:02.000Z</time>
      </trkpt>
      <trkpt lat="47.28879" lon="6.19203">
        <ele>267.241</ele>
        <time>2016-09-06T08:10:03.000Z</time>
      </trkpt>
      <trkpt lat="47.28879" lon="6.19197">
        <ele>265.315</ele>
        <time>2016-09-06T08:10:04.000Z</time>
      </trkpt>
      <trkpt lat="47.28878" lon="6.1919">
        <ele>265.87</ele>
        <time>2016-09-06T08:10:05.000Z</time>
      </trkpt>
      <trkpt lat="47.28878" lon="6.19183">
        <ele>265.288</ele>
        <time>2016-09-06T08:10:06.000Z</time>
      </trkpt>
      <trkpt lat="47.28878" lon="6.19175">
        <ele>264.018</ele>
        <time>2016-09-06T08:10:07.000Z</time>
      </trkpt>
      <trkpt lat="47.28876" lon="6.19166">
        <ele>264.486</ele>
        <time>2016-09-06T08:10:08.000Z</time>
      </trkpt>
      <trkpt lat="47.28876" lon="6.19158">
        <ele>264.007</ele>
        <time>2016-09-06T08:10:09.000Z</time>
      </trkpt>
      <trkpt lat="47.28876" lon="6.19149">
        <ele>262.013</ele>
        <time>2016-09-06T08:10:10.000Z</time>
      </trkpt>
      <trkpt lat="47.28876" lon="6.19142">
        <ele>262.097</ele>
        <time>2016-09-06T08:10:11.000Z</time>
      </trkpt>
      <trkpt lat="47.28877" lon="6.19134">
        <ele>261.125</ele>
        <time>2016-09-06T08:10:12.000Z</time>
      </trkpt>
      <trkpt lat="47.28877" lon="6.19126">
        <ele>260.301</ele>
        <time>2016-09-06T08:10:13.000Z</time>
      </trkpt>
      <trkpt lat="47.28877" lon="6.19118">
        <ele>260.187</ele>
        <time>2016-09-06T08:10:14.000Z</time>
      </trkpt>
      <trkpt lat="47.28878" lon="6.19109">
        <ele>260.858</ele>
        <time>2016-09-06T08:10:15.000Z</time>
      </trkpt>
      <trkpt lat="47.28878" lon="6.19101">
        <ele>259.923</ele>
        <time>2016-09-06T08:10:16.000Z</time>
      </trkpt>
      <trkpt lat="47.28879" lon="6.19091">
        <ele>258.977</ele>
        <time>2016-09-06T08:10:17.000Z</time>
      </trkpt>
      <trkpt lat="47.28879" lon="6.19084">
        <ele>259.006</ele>
        <time>2016-09-06T08:10:18.000Z</time>
      </trkpt>
      <trkpt lat="47.2888" lon="6.19077">
        <ele>260.652</ele>
        <time>2016-09-06T08:10:19.000Z</time>
      </trkpt>
      <trkpt lat="47.2888" lon="6.19069">
        <ele>260.82</ele>
        <time>2016-09-06T08:10:20.000Z</time>
      </trkpt>
      <trkpt lat="47.2888" lon="6.19062">
        <ele>261.518</ele>
        <time>2016-09-06T08:10:21.000Z</time>
      </trkpt>
      <trkpt lat="47.2888" lon="6.19055">
        <ele>261.155</ele>
        <time>2016-09-06T08:10:22.000Z</time>
      </trkpt>
      <trkpt lat="47.28882" lon="6.19048">
        <ele>259.6</ele>
        <time>2016-09-06T08:10:23.000Z</time>
      </trkpt>
      <trkpt lat="47.28881" lon="6.1904">
        <ele>259.105</ele>
        <time>2016-09-06T08:10:24.000Z</time>
      </trkpt>
      <trkpt lat="47.28882" lon="6.19032">
        <ele>258.899</ele>
        <time>2016-09-06T08:10:25.000Z</time>
      </trkpt>
      <trkpt lat="47.28884" lon="6.19023">
        <ele>257.445</ele>
        <time>2016-09-06T08:10:26.000Z</time>
      </trkpt>
      <trkpt lat="47.28886" lon="6.19013">
        <ele>253.86</ele>
        <time>2016-09-06T08:10:27.000Z</time>
      </trkpt>
      <trkpt lat="47.28887" lon="6.19006">
        <ele>254.565</ele>
        <time>2016-09-06T08:10:28.000Z</time>
      </trkpt>
      <trkpt lat="47.28888" lon="6.18998">
        <ele>255.256</ele>
        <time>2016-09-06T08:10:29.000Z</time>
      </trkpt>
      <trkpt lat="47.28887" lon="6.1899">
        <ele>254.941</ele>
        <time>2016-09-06T08:10:30.000Z</time>
      </trkpt>
      <trkpt lat="47.28887" lon="6.18982">
        <ele>254.959</ele>
        <time>2016-09-06T08:10:31.000Z</time>
      </trkpt>
      <trkpt lat="47.28886" lon="6.18975">
        <ele>255.895</ele>
        <time>2016-09-06T08:10:32.000Z</time>
      </trkpt>
      <trkpt lat="47.2889" lon="6.18967">
        <ele>255.254</ele>
        <time>2016-09-06T08:10:33.000Z</time>
      </trkpt>
      <trkpt lat="47.28888" lon="6.18957">
        <ele>252.561</ele>
        <time>2016-09-06T08:10:34.000Z</time>
      </trkpt>
      <trkpt lat="47.28889" lon="6.18951">
        <ele>252.979</ele>
        <time>2016-09-06T08:10:35.000Z</time>
      </trkpt>
      <trkpt lat="47.28887" lon="6.18941">
        <ele>250.38</ele>
        <time>2016-09-06T08:10:36.000Z</time>
      </trkpt>
      <trkpt lat="47.28888" lon="6.18935">
        <ele>251.509</ele>
        <time>2016-09-06T08:10:37.000Z</time>
      </trkpt>
      <trkpt lat="47.28889" lon="6.18928">
        <ele>250.005</ele>
        <time>2016-09-06T08:10:38.000Z</time>
      </trkpt>
      <trkpt lat="47.2889" lon="6.1892">
        <ele>250.283</ele>
        <time>2016-09-06T08:10:39.000Z</time>
      </trkpt>
      <trkpt lat="47.28892" lon="6.18913">
        <ele>250.933</ele>
        <time>2016-09-06T08:10:40.000Z</time>
      </trkpt>
      <trkpt lat="47.28894" lon="6.18906">
        <ele>251.811</ele>
        <time>2016-09-06T08:10:41.000Z</time>
      </trkpt>
      <trkpt lat="47.28893" lon="6.18899">
        <ele>251.563</ele>
        <time>2016-09-06T08:10:42.000Z</time>
      </trkpt>
      <trkpt lat="47.28893" lon="6.18891">
        <ele>251.441</ele>
        <time>2016-09-06T08:10:43.000Z</time>
      </trkpt>
      <trkpt lat="47.28894" lon="6.18883">
        <ele>253.134</ele>
        <time>2016-09-06T08:10:44.000Z</time>
      </trkpt>
      <trkpt lat="47.28895" lon="6.18873">
        <ele>251.976</ele>
        <time>2016-09-06T08:10:45.000Z</time>
      </trkpt>
      <trkpt lat="47.28897" lon="6.18866">
        <ele>251.947</ele>
        <time>2016-09-06T08:10:46.000Z</time>
      </trkpt>
      <trkpt lat="47.28898" lon="6.18857">
        <ele>249.78</ele>
        <time>2016-09-06T08:10:47.000Z</time>
      </trkpt>
      <trkpt lat="47.28901" lon="6.18849">
        <ele>248.794</ele>
        <time>2016-09-06T08:10:48.000Z</time>
      </trkpt>
      <trkpt lat="47.28904" lon="6.18841">
        <ele>248.791</ele>
        <time>2016-09-06T08:10:49.000Z</time>
      </trkpt>
      <trkpt lat="47.28905" lon="6.18834">
        <ele>247.767</ele>
        <time>2016-09-06T08:10:50.000Z</time>
      </trkpt>
      <trkpt lat="47.28908" lon="6.18828">
        <ele>247.858</ele>
        <time>2016-09-06T08:10:51.000Z</time>
      </trkpt>
      <trkpt lat="47.28909" lon="6.1882">
        <ele>247.549</ele>
        <time>2016-09-06T08:10:52.000Z</time>
      </trkpt>
      <trkpt lat="47.28911" lon="6.18812">
        <ele>247.687</ele>
        <time>2016-09-06T08:10:53.000Z</time>
      </trkpt>
      <trkpt lat="47.28913" lon="6.18805">
        <ele>247.874</ele>
        <time>2016-09-06T08:10:54.000Z</time>
      </trkpt>
      <trkpt lat="47.28916" lon="6.18796">
        <ele>246.448</ele>
        <time>2016-09-06T08:10:55.000Z</time>
      </trkpt>
      <trkpt lat="47.28918" lon="6.18788">
        <ele>246.304</ele>
        <time>2016-09-06T08:10:56.000Z</time>
      </trkpt>
      <trkpt lat="47.2892" lon="6.18781">
        <ele>247.028</ele>
        <time>2016-09-06T08:10:57.000Z</time>
      </trkpt>
      <trkpt lat="47.28922" lon="6.18773">
        <ele>246.221</ele>
        <time>2016-09-06T08:10:58.000Z</time>
      </trkpt>
      <trkpt lat="47.28923" lon="6.18765">
        <ele>245.974</ele>
        <time>2016-09-06T08:10:59.000Z</time>
      </trkpt>
      <trkpt lat="47.28927" lon="6.18758">
        <ele>246.394</ele>
        <time>2016-09-06T08:11:00.000Z</time>
      </trkpt>
      <trkpt lat="47.28926" lon="6.18749">
        <ele>245.261</ele>
        <time>2016-09-06T08:11:01.000Z</time>
      </trkpt>
      <trkpt lat="47.28927" lon="6.18742">
        <ele>244.927</ele>
        <time>2016-09-06T08:11:02.000Z</time>
      </trkpt>
      <trkpt lat="47.28929" lon="6.18734">
        <ele>245.083</ele>
        <time>2016-09-06T08:11:03.000Z</time>
      </trkpt>
      <trkpt lat="47.28931" lon="6.18726">
        <ele>244.401</ele>
        <time>2016-09-06T08:11:04.000Z</time>
      </trkpt>
      <trkpt lat="47.28932" lon="6.18719">
        <ele>243.767</ele>
        <time>2016-09-06T08:11:05.000Z</time>
      </trkpt>
      <trkpt lat="47.28935" lon="6.18712">
        <ele>243.964</ele>
        <time>2016-09-06T08:11:06.000Z</time>
      </trkpt>
      <trkpt lat="47.28937" lon="6.18704">
        <ele>242.829</ele>
        <time>2016-09-06T08:11:07.000Z</time>
      </trkpt>
      <trkpt lat="47.28938" lon="6.18695">
        <ele>242.078</ele>
        <time>2016-09-06T08:11:08.000Z</time>
      </trkpt>
      <trkpt lat="47.2894" lon="6.18688">
        <ele>242.452</ele>
        <time>2016-09-06T08:11:09.000Z</time>
      </trkpt>
      <trkpt lat="47.28942" lon="6.18681">
        <ele>242.257</ele>
        <time>2016-09-06T08:11:10.000Z</time>
      </trkpt>
      <trkpt lat="47.28943" lon="6.18672">
        <ele>241.744</ele>
        <time>2016-09-06T08:11:11.000Z</time>
      </trkpt>
      <trkpt lat="47.28945" lon="6.18664">
        <ele>241.947</ele>
        <time>2016-09-06T08:11:12.000Z</time>
      </trkpt>
      <trkpt lat="47.28948" lon="6.18656">
        <ele>241.477</ele>
        <time>2016-09-06T08:11:13.000Z</time>
      </trkpt>
      <trkpt lat="47.28949" lon="6.18648">
        <ele>241.749</ele>
        <time>2016-09-06T08:11:14.000Z</time>
      </trkpt>
      <trkpt lat="47.28951" lon="6.1864">
        <ele>242.357</ele>
        <time>2016-09-06T08:11:15.000Z</time>
      </trkpt>
      <trkpt lat="47.28954" lon="6.18632">
        <ele>242.727</ele>
        <time>2016-09-06T08:11:16.000Z</time>
      </trkpt>
      <trkpt lat="47.28956" lon="6.18625">
        <ele>243.408</ele>
        <time>2016-09-06T08:11:17.000Z</time>
      </trkpt>
      <trkpt lat="47.28958" lon="6.18617">
        <ele>243.39</ele>
        <time>2016-09-06T08:11:18.000Z</time>
      </trkpt>
      <trkpt lat="47.28959" lon="6.18609">
        <ele>244.024</ele>
        <time>2016-09-06T08:11:19.000Z</time>
      </trkpt>
      <trkpt lat="47.28962" lon="6.18602">
        <ele>245.009</ele>
        <time>2016-09-06T08:11:20.000Z</time>
      </trkpt>
      <trkpt lat="47.28963" lon="6.18598">
        <ele>247.015</ele>
        <time>2016-09-06T08:11:21.000Z</time>
      </trkpt>
      <trkpt lat="47.28967" lon="6.18592">
        <ele>248.415</ele>
        <time>2016-09-06T08:11:22.000Z</time>
      </trkpt>
      <trkpt lat="47.28969" lon="6.18585">
        <ele>248.824</ele>
        <time>2016-09-06T08:11:23.000Z</time>
      </trkpt>
      <trkpt lat="47.28971" lon="6.18578">
        <ele>250.67</ele>
        <time>2016-09-06T08:11:24.000Z</time>
      </trkpt>
      <trkpt lat="47.28977" lon="6.1857">
        <ele>250.402</ele>
        <time>2016-09-06T08:11:25.000Z</time>
      </trkpt>
      <trkpt lat="47.28979" lon="6.18562">
        <ele>250.656</ele>
        <time>2016-09-06T08:11:26.000Z</time>
      </trkpt>
      <trkpt lat="47.28982" lon="6.18554">
        <ele>250.881</ele>
        <time>2016-09-06T08:11:27.000Z</time>
      </trkpt>
      <trkpt lat="47.28984" lon="6.18546">
        <ele>250.903</ele>
        <time>2016-09-06T08:11:28.000Z</time>
      </trkpt>
      <trkpt lat="47.2898" lon="6.18538">
        <ele>248.711</ele>
        <time>2016-09-06T08:11:29.000Z</time>
      </trkpt>
      <trkpt lat="47.2898" lon="6.1853">
        <ele>248.137</ele>
        <time>2016-09-06T08:11:30.000Z</time>
      </trkpt>
      <trkpt lat="47.28981" lon="6.18523">
        <ele>247.928</ele>
        <time>2016-09-06T08:11:31.000Z</time>
      </trkpt>
      <trkpt lat="47.28984" lon="6.18515">
        <ele>248.286</ele>
        <time>2016-09-06T08:11:32.000Z</time>
      </trkpt>
      <trkpt lat="47.28985" lon="6.18508">
        <ele>248.984</ele>
        <time>2016-09-06T08:11:33.000Z</time>
      </trkpt>
      <trkpt lat="47.28988" lon="6.185">
        <ele>249.652</ele>
        <time>2016-09-06T08:11:34.000Z</time>
      </trkpt>
      <trkpt lat="47.2899" lon="6.18493">
        <ele>249.485</ele>
        <time>2016-09-06T08:11:35.000Z</time>
      </trkpt>
      <trkpt lat="47.28993" lon="6.18486">
        <ele>249.658</ele>
        <time>2016-09-06T08:11:36.000Z</time>
      </trkpt>
      <trkpt lat="47.28994" lon="6.18479">
        <ele>250.026</ele>
        <time>2016-09-06T08:11:37.000Z</time>
      </trkpt>
      <trkpt lat="47.28996" lon="6.18471">
        <ele>250.167</ele>
        <time>2016-09-06T08:11:38.000Z</time>
      </trkpt>
      <trkpt lat="47.29" lon="6.18463">
        <ele>249.914</ele>
        <time>2016-09-06T08:11:39.000Z</time>
      </trkpt>
      <trkpt lat="47.29004" lon="6.18456">
        <ele>251.627</ele>
        <time>2016-09-06T08:11:40.000Z</time>
      </trkpt>
      <trkpt lat="47.29002" lon="6.18448">
        <ele>250.158</ele>
        <time>2016-09-06T08:11:41.000Z</time>
      </trkpt>
      <trkpt lat="47.29006" lon="6.18441">
        <ele>250.641</ele>
        <time>2016-09-06T08:11:42.000Z</time>
      </trkpt>
      <trkpt lat="47.2901" lon="6.18433">
        <ele>249.794</ele>
        <time>2016-09-06T08:11:43.000Z</time>
      </trkpt>
      <trkpt lat="47.29011" lon="6.18425">
        <ele>249.874</ele>
        <time>2016-09-06T08:11:44.000Z</time>
      </trkpt>
      <trkpt lat="47.29013" lon="6.18417">
        <ele>251.277</ele>
        <time>2016-09-06T08:11:45.000Z</time>
      </trkpt>
      <trkpt lat="47.29015" lon="6.1841">
        <ele>251.132</ele>
        <time>2016-09-06T08:11:46.000Z</time>
      </trkpt>
      <trkpt lat="47.29019" lon="6.18403">
        <ele>251.326</ele>
        <time>2016-09-06T08:11:47.000Z</time>
      </trkpt>
      <trkpt lat="47.2902" lon="6.18397">
        <ele>251.783</ele>
        <time>2016-09-06T08:11:48.000Z</time>
      </trkpt>
      <trkpt lat="47.2902" lon="6.18389">
        <ele>251.563</ele>
        <time>2016-09-06T08:11:49.000Z</time>
      </trkpt>
      <trkpt lat="47.2902" lon="6.18381">
        <ele>250.502</ele>
        <time>2016-09-06T08:11:50.000Z</time>
      </trkpt>
      <trkpt lat="47.29024" lon="6.18374">
        <ele>250.016</ele>
        <time>2016-09-06T08:11:51.000Z</time>
      </trkpt>
      <trkpt lat="47.29027" lon="6.18368">
        <ele>250.461</ele>
        <time>2016-09-06T08:11:52.000Z</time>
      </trkpt>
      <trkpt lat="47.2903" lon="6.18361">
        <ele>250.652</ele>
        <time>2016-09-06T08:11:53.000Z</time>
      </trkpt>
      <trkpt lat="47.29034" lon="6.18354">
        <ele>250.361</ele>
        <time>2016-09-06T08:11:54.000Z</time>
      </trkpt>
      <trkpt lat="47.29037" lon="6.18346">
        <ele>250.755</ele>
        <time>2016-09-06T08:11:55.000Z</time>
      </trkpt>
      <trkpt lat="47.2904" lon="6.18339">
        <ele>251.144</ele>
        <time>2016-09-06T08:11:56.000Z</time>
      </trkpt>
      <trkpt lat="47.29041" lon="6.18331">
        <ele>250.909</ele>
        <time>2016-09-06T08:11:57.000Z</time>
      </trkpt>
      <trkpt lat="47.29043" lon="6.18323">
        <ele>250.899</ele>
        <time>2016-09-06T08:11:58.000Z</time>
      </trkpt>
      <trkpt lat="47.2904" lon="6.18314">
        <ele>249.019</ele>
        <time>2016-09-06T08:11:59.000Z</time>
      </trkpt>
      <trkpt lat="47.29039" lon="6.18305">
        <ele>247.419</ele>
        <time>2016-09-06T08:12:00.000Z</time>
      </trkpt>
      <trkpt lat="47.29041" lon="6.18297">
        <ele>247.292</ele>
        <time>2016-09-06T08:12:01.000Z</time>
      </trkpt>
      <trkpt lat="47.29042" lon="6.18291">
        <ele>249.663</ele>
        <time>2016-09-06T08:12:02.000Z</time>
      </trkpt>
      <trkpt lat="47.29043" lon="6.18283">
        <ele>251.266</ele>
        <time>2016-09-06T08:12:03.000Z</time>
      </trkpt>
      <trkpt lat="47.29044" lon="6.18277">
        <ele>251.212</ele>
        <time>2016-09-06T08:12:04.000Z</time>
      </trkpt>
      <trkpt lat="47.29044" lon="6.18269">
        <ele>252.366</ele>
        <time>2016-09-06T08:12:05.000Z</time>
      </trkpt>
      <trkpt lat="47.29046" lon="6.18262">
        <ele>250.945</ele>
        <time>2016-09-06T08:12:06.000Z</time>
      </trkpt>
      <trkpt lat="47.29049" lon="6.18253">
        <ele>249.566</ele>
        <time>2016-09-06T08:12:07.000Z</time>
      </trkpt>
      <trkpt lat="47.2905" lon="6.18247">
        <ele>249.845</ele>
        <time>2016-09-06T08:12:08.000Z</time>
      </trkpt>
      <trkpt lat="47.29051" lon="6.18239">
        <ele>251.838</ele>
        <time>2016-09-06T08:12:09.000Z</time>
      </trkpt>
      <trkpt lat="47.29054" lon="6.18231">
        <ele>251.863</ele>
        <time>2016-09-06T08:12:10.000Z</time>
      </trkpt>
      <trkpt lat="47.29055" lon="6.18225">
        <ele>252.231</ele>
        <time>2016-09-06T08:12:11.000Z</time>
      </trkpt>
      <trkpt lat="47.29056" lon="6.18214">
        <ele>249.889</ele>
        <time>2016-09-06T08:12:12.000Z</time>
      </trkpt>
      <trkpt lat="47.29056" lon="6.18206">
        <ele>250.993</ele>
        <time>2016-09-06T08:12:13.000Z</time>
      </trkpt>
      <trkpt lat="47.29058" lon="6.18199">
        <ele>250.911</ele>
        <time>2016-09-06T08:12:14.000Z</time>
      </trkpt>
      <trkpt lat="47.29059" lon="6.18191">
        <ele>250.95</ele>
        <time>2016-09-06T08:12:15.000Z</time>
      </trkpt>
      <trkpt lat="47.29063" lon="6.18184">
        <ele>250.853</ele>
        <time>2016-09-06T08:12:16.000Z</time>
      </trkpt>
      <trkpt lat="47.29065" lon="6.18175">
        <ele>251.763</ele>
        <time>2016-09-06T08:12:17.000Z</time>
      </trkpt>
      <trkpt lat="47.29067" lon="6.18167">
        <ele>251.893</ele>
        <time>2016-09-06T08:12:18.000Z</time>
      </trkpt>
      <trkpt lat="47.29068" lon="6.18158">
        <ele>252.509</ele>
        <time>2016-09-06T08:12:19.000Z</time>
      </trkpt>
      <trkpt lat="47.29068" lon="6.18151">
        <ele>252.895</ele>
        <time>2016-09-06T08:12:20.000Z</time>
      </trkpt>
      <trkpt lat="47.2907" lon="6.18143">
        <ele>252.394</ele>
        <time>2016-09-06T08:12:21.000Z</time>
      </trkpt>
      <trkpt lat="47.29072" lon="6.18139">
        <ele>254.25</ele>
        <time>2016-09-06T08:12:22.000Z</time>
      </trkpt>
      <trkpt lat="47.29069" lon="6.1813">
        <ele>251.063</ele>
        <time>2016-09-06T08:12:23.000Z</time>
      </trkpt>
      <trkpt lat="47.2907" lon="6.18124">
        <ele>251.9</ele>
        <time>2016-09-06T08:12:24.000Z</time>
      </trkpt>
      <trkpt lat="47.29072" lon="6.18115">
        <ele>251.659</ele>
        <time>2016-09-06T08:12:25.000Z</time>
      </trkpt>
      <trkpt lat="47.29073" lon="6.18105">
        <ele>250.773</ele>
        <time>2016-09-06T08:12:26.000Z</time>
      </trkpt>
      <trkpt lat="47.29077" lon="6.18097">
        <ele>249.221</ele>
        <time>2016-09-06T08:12:27.000Z</time>
      </trkpt>
      <trkpt lat="47.29077" lon="6.18089">
        <ele>248.222</ele>
        <time>2016-09-06T08:12:28.000Z</time>
      </trkpt>
      <trkpt lat="47.29079" lon="6.18082">
        <ele>248.238</ele>
        <time>2016-09-06T08:12:29.000Z</time>
      </trkpt>
      <trkpt lat="47.2908" lon="6.18076">
        <ele>249.194</ele>
        <time>2016-09-06T08:12:30.000Z</time>
      </trkpt>
      <trkpt lat="47.29082" lon="6.18071">
        <ele>250.643</ele>
        <time>2016-09-06T08:12:31.000Z</time>
      </trkpt>
      <trkpt lat="47.29081" lon="6.18064">
        <ele>251.016</ele>
        <time>2016-09-06T08:12:32.000Z</time>
      </trkpt>
      <trkpt lat="47.29083" lon="6.18056">
        <ele>250.414</ele>
        <time>2016-09-06T08:12:33.000Z</time>
      </trkpt>
      <trkpt lat="47.29083" lon="6.18048">
        <ele>249.523</ele>
        <time>2016-09-06T08:12:34.000Z</time>
      </trkpt>
      <trkpt lat="47.29082" lon="6.18041">
        <ele>248.627</ele>
        <time>2016-09-06T08:12:35.000Z</time>
      </trkpt>
      <trkpt lat="47.29083" lon="6.18034">
        <ele>248.497</ele>
        <time>2016-09-06T08:12:36.000Z</time>
      </trkpt>
      <trkpt lat="47.29081" lon="6.18026">
        <ele>248.703</ele>
        <time>2016-09-06T08:12:37.000Z</time>
      </trkpt>
      <trkpt lat="47.29083" lon="6.18019">
        <ele>249.423</ele>
        <time>2016-09-06T08:12:38.000Z</time>
      </trkpt>
      <trkpt lat="47.29084" lon="6.18012">
        <ele>250.722</ele>
        <time>2016-09-06T08:12:39.000Z</time>
      </trkpt>
      <trkpt lat="47.29084" lon="6.18006">
        <ele>251.306</ele>
        <time>2016-09-06T08:12:40.000Z</time>
      </trkpt>
      <trkpt lat="47.29082" lon="6.17999">
        <ele>252.034</ele>
        <time>2016-09-06T08:12:41.000Z</time>
      </trkpt>
      <trkpt lat="47.29082" lon="6.17991">
        <ele>251.205</ele>
        <time>2016-09-06T08:12:42.000Z</time>
      </trkpt>
      <trkpt lat="47.29082" lon="6.17983">
        <ele>249.727</ele>
        <time>2016-09-06T08:12:43.000Z</time>
      </trkpt>
      <trkpt lat="47.29081" lon="6.17976">
        <ele>249.592</ele>
        <time>2016-09-06T08:12:44.000Z</time>
      </trkpt>
      <trkpt lat="47.29082" lon="6.1797">
        <ele>250.687</ele>
        <time>2016-09-06T08:12:45.000Z</time>
      </trkpt>
      <trkpt lat="47.2908" lon="6.17964">
        <ele>251.754</ele>
        <time>2016-09-06T08:12:46.000Z</time>
      </trkpt>
      <trkpt lat="47.29079" lon="6.17957">
        <ele>252.217</ele>
        <time>2016-09-06T08:12:47.000Z</time>
      </trkpt>
      <trkpt lat="47.2908" lon="6.17949">
        <ele>252.347</ele>
        <time>2016-09-06T08:12:48.000Z</time>
      </trkpt>
      <trkpt lat="47.29079" lon="6.17943">
        <ele>253.031</ele>
        <time>2016-09-06T08:12:49.000Z</time>
      </trkpt>
      <trkpt lat="47.29079" lon="6.17936">
        <ele>253.156</ele>
        <time>2016-09-06T08:12:50.000Z</time>
      </trkpt>
      <trkpt lat="47.29077" lon="6.17929">
        <ele>252.619</ele>
        <time>2016-09-06T08:12:51.000Z</time>
      </trkpt>
      <trkpt lat="47.29077" lon="6.17921">
        <ele>251.421</ele>
        <time>2016-09-06T08:12:52.000Z</time>
      </trkpt>
      <trkpt lat="47.29076" lon="6.17914">
        <ele>251.478</ele>
        <time>2016-09-06T08:12:53.000Z</time>
      </trkpt>
      <trkpt lat="47.29073" lon="6.17905">
        <ele>248.262</ele>
        <time>2016-09-06T08:12:54.000Z</time>
      </trkpt>
      <trkpt lat="47.29072" lon="6.17897">
        <ele>248.295</ele>
        <time>2016-09-06T08:12:55.000Z</time>
      </trkpt>
      <trkpt lat="47.29071" lon="6.17889">
        <ele>247.765</ele>
        <time>2016-09-06T08:12:56.000Z</time>
      </trkpt>
      <trkpt lat="47.29071" lon="6.17882">
        <ele>248.817</ele>
        <time>2016-09-06T08:12:57.000Z</time>
      </trkpt>
      <trkpt lat="47.29069" lon="6.17875">
        <ele>249.48</ele>
        <time>2016-09-06T08:12:58.000Z</time>
      </trkpt>
      <trkpt lat="47.29068" lon="6.17867">
        <ele>249.909</ele>
        <time>2016-09-06T08:12:59.000Z</time>
      </trkpt>
      <trkpt lat="47.29066" lon="6.17857">
        <ele>248.677</ele>
        <time>2016-09-06T08:13:00.000Z</time>
      </trkpt>
      <trkpt lat="47.29064" lon="6.1785">
        <ele>251.463</ele>
        <time>2016-09-06T08:13:01.000Z</time>
      </trkpt>
      <trkpt lat="47.29064" lon="6.17844">
        <ele>251.347</ele>
        <time>2016-09-06T08:13:02.000Z</time>
      </trkpt>
      <trkpt lat="47.29063" lon="6.17836">
        <ele>252.07</ele>
        <time>2016-09-06T08:13:03.000Z</time>
      </trkpt>
      <trkpt lat="47.29061" lon="6.1783">
        <ele>251.652</ele>
        <time>2016-09-06T08:13:04.000Z</time>
      </trkpt>
      <trkpt lat="47.29061" lon="6.17822">
        <ele>252.271</ele>
        <time>2016-09-06T08:13:05.000Z</time>
      </trkpt>
      <trkpt lat="47.2906" lon="6.17814">
        <ele>251.826</ele>
        <time>2016-09-06T08:13:06.000Z</time>
      </trkpt>
      <trkpt lat="47.2906" lon="6.17807">
        <ele>253.093</ele>
        <time>2016-09-06T08:13:07.000Z</time>
      </trkpt>
      <trkpt lat="47.29061" lon="6.17802">
        <ele>256.512</ele>
        <time>2016-09-06T08:13:08.000Z</time>
      </trkpt>
      <trkpt lat="47.29058" lon="6.17793">
        <ele>257.082</ele>
        <time>2016-09-06T08:13:09.000Z</time>
      </trkpt>
      <trkpt lat="47.29056" lon="6.17786">
        <ele>257.244</ele>
        <time>2016-09-06T08:13:10.000Z</time>
      </trkpt>
      <trkpt lat="47.29055" lon="6.17779">
        <ele>256.018</ele>
        <time>2016-09-06T08:13:11.000Z</time>
      </trkpt>
      <trkpt lat="47.29054" lon="6.17771">
        <ele>258.907</ele>
        <time>2016-09-06T08:13:12.000Z</time>
      </trkpt>
      <trkpt lat="47.29052" lon="6.17764">
        <ele>259.228</ele>
        <time>2016-09-06T08:13:13.000Z</time>
      </trkpt>
      <trkpt lat="47.29052" lon="6.17757">
        <ele>258.508</ele>
        <time>2016-09-06T08:13:14.000Z</time>
      </trkpt>
      <trkpt lat="47.29051" lon="6.17751">
        <ele>261.503</ele>
        <time>2016-09-06T08:13:15.000Z</time>
      </trkpt>
      <trkpt lat="47.29049" lon="6.17743">
        <ele>259.067</ele>
        <time>2016-09-06T08:13:16.000Z</time>
      </trkpt>
      <trkpt lat="47.29047" lon="6.17737">
        <ele>261.051</ele>
        <time>2016-09-06T08:13:17.000Z</time>
      </trkpt>
      <trkpt lat="47.29046" lon="6.17729">
        <ele>259.568</ele>
        <time>2016-09-06T08:13:18.000Z</time>
      </trkpt>
      <trkpt lat="47.29045" lon="6.17724">
        <ele>259.8</ele>
        <time>2016-09-06T08:13:19.000Z</time>
      </trkpt>
      <trkpt lat="47.29043" lon="6.17717">
        <ele>255.276</ele>
        <time>2016-09-06T08:13:20.000Z</time>
      </trkpt>
      <trkpt lat="47.29042" lon="6.1771">
        <ele>256.21</ele>
        <time>2016-09-06T08:13:21.000Z</time>
      </trkpt>
      <trkpt lat="47.29043" lon="6.17703">
        <ele>257.391</ele>
        <time>2016-09-06T08:13:22.000Z</time>
      </trkpt>
      <trkpt lat="47.29042" lon="6.17696">
        <ele>257.584</ele>
        <time>2016-09-06T08:13:23.000Z</time>
      </trkpt>
      <trkpt lat="47.29041" lon="6.17694">
        <ele>259.451</ele>
        <time>2016-09-06T08:13:24.000Z</time>
      </trkpt>
      <trkpt lat="47.29041" lon="6.17688">
        <ele>261.165</ele>
        <time>2016-09-06T08:13:25.000Z</time>
      </trkpt>
      <trkpt lat="47.29038" lon="6.17679">
        <ele>261.899</ele>
        <time>2016-09-06T08:13:26.000Z</time>
      </trkpt>
      <trkpt lat="47.29036" lon="6.1767">
        <ele>263.784</ele>
        <time>2016-09-06T08:13:27.000Z</time>
      </trkpt>
      <trkpt lat="47.29034" lon="6.17663">
        <ele>263.615</ele>
        <time>2016-09-06T08:13:28.000Z</time>
      </trkpt>
      <trkpt lat="47.2903" lon="6.17654">
        <ele>262.266</ele>
        <time>2016-09-06T08:13:29.000Z</time>
      </trkpt>
      <trkpt lat="47.29028" lon="6.17647">
        <ele>261.67</ele>
        <time>2016-09-06T08:13:30.000Z</time>
      </trkpt>
      <trkpt lat="47.29025" lon="6.17637">
        <ele>258.926</ele>
        <time>2016-09-06T08:13:31.000Z</time>
      </trkpt>
      <trkpt lat="47.29021" lon="6.17629">
        <ele>257.436</ele>
        <time>2016-09-06T08:13:32.000Z</time>
      </trkpt>
      <trkpt lat="47.29018" lon="6.17622">
        <ele>255.888</ele>
        <time>2016-09-06T08:13:33.000Z</time>
      </trkpt>
      <trkpt lat="47.29015" lon="6.17615">
        <ele>256.618</ele>
        <time>2016-09-06T08:13:34.000Z</time>
      </trkpt>
      <trkpt lat="47.29011" lon="6.17608">
        <ele>257.488</ele>
        <time>2016-09-06T08:13:35.000Z</time>
      </trkpt>
      <trkpt lat="47.29008" lon="6.17603">
        <ele>254.956</ele>
        <time>2016-09-06T08:13:36.000Z</time>
      </trkpt>
      <trkpt lat="47.29004" lon="6.17597">
        <ele>251.936</ele>
        <time>2016-09-06T08:13:37.000Z</time>
      </trkpt>
      <trkpt lat="47.29002" lon="6.17589">
        <ele>251.396</ele>
        <time>2016-09-06T08:13:38.000Z</time>
      </trkpt>
      <trkpt lat="47.29003" lon="6.17583">
        <ele>251.185</ele>
        <time>2016-09-06T08:13:39.000Z</time>
      </trkpt>
      <trkpt lat="47.29007" lon="6.17581">
        <ele>251.889</ele>
        <time>2016-09-06T08:13:40.000Z</time>
      </trkpt>
      <trkpt lat="47.2901" lon="6.17576">
        <ele>252.54</ele>
        <time>2016-09-06T08:13:41.000Z</time>
      </trkpt>
      <trkpt lat="47.29013" lon="6.17572">
        <ele>254.323</ele>
        <time>2016-09-06T08:13:42.000Z</time>
      </trkpt>
      <trkpt lat="47.29015" lon="6.1757">
        <ele>252.765</ele>
        <time>2016-09-06T08:13:43.000Z</time>
      </trkpt>
      <trkpt lat="47.29016" lon="6.17564">
        <ele>252.436</ele>
        <time>2016-09-06T08:13:44.000Z</time>
      </trkpt>
      <trkpt lat="47.29016" lon="6.17557">
        <ele>253.137</ele>
        <time>2016-09-06T08:13:45.000Z</time>
      </trkpt>
      <trkpt lat="47.29013" lon="6.17551">
        <ele>251.286</ele>
        <time>2016-09-06T08:13:46.000Z</time>
      </trkpt>
      <trkpt lat="47.2901" lon="6.17542">
        <ele>251.464</ele>
        <time>2016-09-06T08:13:47.000Z</time>
      </trkpt>
      <trkpt lat="47.29008" lon="6.17536">
        <ele>251.818</ele>
        <time>2016-09-06T08:13:48.000Z</time>
      </trkpt>
      <trkpt lat="47.29004" lon="6.17528">
        <ele>250.069</ele>
        <time>2016-09-06T08:13:49.000Z</time>
      </trkpt>
      <trkpt lat="47.29001" lon="6.17523">
        <ele>249.772</ele>
        <time>2016-09-06T08:13:50.000Z</time>
      </trkpt>
      <trkpt lat="47.28994" lon="6.17516">
        <ele>249.765</ele>
        <time>2016-09-06T08:13:51.000Z</time>
      </trkpt>
      <trkpt lat="47.2899" lon="6.1751">
        <ele>249.174</ele>
        <time>2016-09-06T08:13:52.000Z</time>
      </trkpt>
      <trkpt lat="47.28987" lon="6.17502">
        <ele>250.295</ele>
        <time>2016-09-06T08:13:53.000Z</time>
      </trkpt>
      <trkpt lat="47.28984" lon="6.17495">
        <ele>250.988</ele>
        <time>2016-09-06T08:13:54.000Z</time>
      </trkpt>
      <trkpt lat="47.28982" lon="6.17488">
        <ele>251.544</ele>
        <time>2016-09-06T08:13:55.000Z</time>
      </trkpt>
      <trkpt lat="47.2898" lon="6.17484">
        <ele>252.626</ele>
        <time>2016-09-06T08:13:56.000Z</time>
      </trkpt>
      <trkpt lat="47.28979" lon="6.17473">
        <ele>247.26</ele>
        <time>2016-09-06T08:13:57.000Z</time>
      </trkpt>
      <trkpt lat="47.28975" lon="6.17461">
        <ele>241.522</ele>
        <time>2016-09-06T08:13:58.000Z</time>
      </trkpt>
      <trkpt lat="47.28975" lon="6.17453">
        <ele>242.41</ele>
        <time>2016-09-06T08:13:59.000Z</time>
      </trkpt>
      <trkpt lat="47.28975" lon="6.17446">
        <ele>242.52</ele>
        <time>2016-09-06T08:14:00.000Z</time>
      </trkpt>
      <trkpt lat="47.28972" lon="6.17437">
        <ele>239.635</ele>
        <time>2016-09-06T08:14:01.000Z</time>
      </trkpt>
      <trkpt lat="47.28971" lon="6.1743">
        <ele>239.731</ele>
        <time>2016-09-06T08:14:02.000Z</time>
      </trkpt>
      <trkpt lat="47.28969" lon="6.17423">
        <ele>239.297</ele>
        <time>2016-09-06T08:14:03.000Z</time>
      </trkpt>
      <trkpt lat="47.28971" lon="6.17416">
        <ele>239.43</ele>
        <time>2016-09-06T08:14:04.000Z</time>
      </trkpt>
      <trkpt lat="47.2897" lon="6.17407">
        <ele>239.536</ele>
        <time>2016-09-06T08:14:05.000Z</time>
      </trkpt>
      <trkpt lat="47.28968" lon="6.17398">
        <ele>240.082</ele>
        <time>2016-09-06T08:14:06.000Z</time>
      </trkpt>
      <trkpt lat="47.28967" lon="6.17389">
        <ele>240.065</ele>
        <time>2016-09-06T08:14:07.000Z</time>
      </trkpt>
      <trkpt lat="47.28965" lon="6.17379">
        <ele>236.577</ele>
        <time>2016-09-06T08:14:08.000Z</time>
      </trkpt>
      <trkpt lat="47.28965" lon="6.17371">
        <ele>236.576</ele>
        <time>2016-09-06T08:14:09.000Z</time>
      </trkpt>
      <trkpt lat="47.28963" lon="6.17362">
        <ele>235.584</ele>
        <time>2016-09-06T08:14:10.000Z</time>
      </trkpt>
      <trkpt lat="47.28963" lon="6.17356">
        <ele>239.626</ele>
        <time>2016-09-06T08:14:11.000Z</time>
      </trkpt>
      <trkpt lat="47.28963" lon="6.17348">
        <ele>239.867</ele>
        <time>2016-09-06T08:14:12.000Z</time>
      </trkpt>
      <trkpt lat="47.28962" lon="6.17341">
        <ele>241.147</ele>
        <time>2016-09-06T08:14:13.000Z</time>
      </trkpt>
      <trkpt lat="47.28961" lon="6.17336">
        <ele>243.27</ele>
        <time>2016-09-06T08:14:14.000Z</time>
      </trkpt>
      <trkpt lat="47.2896" lon="6.17328">
        <ele>243.252</ele>
        <time>2016-09-06T08:14:15.000Z</time>
      </trkpt>
      <trkpt lat="47.28959" lon="6.17321">
        <ele>242.759</ele>
        <time>2016-09-06T08:14:16.000Z</time>
      </trkpt>
      <trkpt lat="47.28958" lon="6.17314">
        <ele>242.553</ele>
        <time>2016-09-06T08:14:17.000Z</time>
      </trkpt>
      <trkpt lat="47.28958" lon="6.17306">
        <ele>245.386</ele>
        <time>2016-09-06T08:14:18.000Z</time>
      </trkpt>
      <trkpt lat="47.28958" lon="6.17298">
        <ele>247.571</ele>
        <time>2016-09-06T08:14:19.000Z</time>
      </trkpt>
      <trkpt lat="47.28957" lon="6.1729">
        <ele>247.419</ele>
        <time>2016-09-06T08:14:20.000Z</time>
      </trkpt>
      <trkpt lat="47.28957" lon="6.17278">
        <ele>245.543</ele>
        <time>2016-09-06T08:14:21.000Z</time>
      </trkpt>
      <trkpt lat="47.28956" lon="6.17269">
        <ele>245.365</ele>
        <time>2016-09-06T08:14:22.000Z</time>
      </trkpt>
      <trkpt lat="47.28957" lon="6.17261">
        <ele>247.552</ele>
        <time>2016-09-06T08:14:23.000Z</time>
      </trkpt>
      <trkpt lat="47.28956" lon="6.17253">
        <ele>247.832</ele>
        <time>2016-09-06T08:14:24.000Z</time>
      </trkpt>
      <trkpt lat="47.28955" lon="6.17243">
        <ele>247.311</ele>
        <time>2016-09-06T08:14:25.000Z</time>
      </trkpt>
      <trkpt lat="47.28955" lon="6.17235">
        <ele>246.996</ele>
        <time>2016-09-06T08:14:26.000Z</time>
      </trkpt>
      <trkpt lat="47.28955" lon="6.17227">
        <ele>247.288</ele>
        <time>2016-09-06T08:14:27.000Z</time>
      </trkpt>
      <trkpt lat="47.28954" lon="6.17218">
        <ele>247.427</ele>
        <time>2016-09-06T08:14:28.000Z</time>
      </trkpt>
      <trkpt lat="47.28953" lon="6.17209">
        <ele>250.716</ele>
        <time>2016-09-06T08:14:29.000Z</time>
      </trkpt>
      <trkpt lat="47.28954" lon="6.17199">
        <ele>248.763</ele>
        <time>2016-09-06T08:14:30.000Z</time>
      </trkpt>
      <trkpt lat="47.28953" lon="6.17192">
        <ele>249.469</ele>
        <time>2016-09-06T08:14:31.000Z</time>
      </trkpt>
      <trkpt lat="47.28953" lon="6.17187">
        <ele>250.91</ele>
        <time>2016-09-06T08:14:32.000Z</time>
      </trkpt>
      <trkpt lat="47.28952" lon="6.17179">
        <ele>251.174</ele>
        <time>2016-09-06T08:14:33.000Z</time>
      </trkpt>
      <trkpt lat="47.28952" lon="6.17168">
        <ele>250.905</ele>
        <time>2016-09-06T08:14:34.000Z</time>
      </trkpt>
      <trkpt lat="47.28952" lon="6.1716">
        <ele>250.958</ele>
        <time>2016-09-06T08:14:35.000Z</time>
      </trkpt>
      <trkpt lat="47.28949" lon="6.17151">
        <ele>249.644</ele>
        <time>2016-09-06T08:14:36.000Z</time>
      </trkpt>
      <trkpt lat="47.2895" lon="6.17143">
        <ele>250.694</ele>
        <time>2016-09-06T08:14:37.000Z</time>
      </trkpt>
      <trkpt lat="47.28949" lon="6.17136">
        <ele>251.478</ele>
        <time>2016-09-06T08:14:38.000Z</time>
      </trkpt>
      <trkpt lat="47.28949" lon="6.17128">
        <ele>251.827</ele>
        <time>2016-09-06T08:14:39.000Z</time>
      </trkpt>
      <trkpt lat="47.28946" lon="6.17119">
        <ele>247.763</ele>
        <time>2016-09-06T08:14:40.000Z</time>
      </trkpt>
      <trkpt lat="47.28946" lon="6.17113">
        <ele>247.766</ele>
        <time>2016-09-06T08:14:41.000Z</time>
      </trkpt>
      <trkpt lat="47.28944" lon="6.17106">
        <ele>247.222</ele>
        <time>2016-09-06T08:14:42.000Z</time>
      </trkpt>
      <trkpt lat="47.28944" lon="6.17101">
        <ele>246.5</ele>
        <time>2016-09-06T08:14:43.000Z</time>
      </trkpt>
      <trkpt lat="47.28943" lon="6.17095">
        <ele>246.472</ele>
        <time>2016-09-06T08:14:44.000Z</time>
      </trkpt>
      <trkpt lat="47.28942" lon="6.17092">
        <ele>246.955</ele>
        <time>2016-09-06T08:14:45.000Z</time>
      </trkpt>
      <trkpt lat="47.28942" lon="6.1709">
        <ele>247.834</ele>
        <time>2016-09-06T08:14:46.000Z</time>
      </trkpt>
      <trkpt lat="47.28942" lon="6.17088">
        <ele>247.963</ele>
        <time>2016-09-06T08:14:47.000Z</time>
      </trkpt>
      <trkpt lat="47.28941" lon="6.17085">
        <ele>247.736</ele>
        <time>2016-09-06T08:14:48.000Z</time>
      </trkpt>
      <trkpt lat="47.28941" lon="6.17082">
        <ele>247.559</ele>
        <time>2016-09-06T08:14:49.000Z</time>
      </trkpt>
      <trkpt lat="47.28941" lon="6.17079">
        <ele>247.592</ele>
        <time>2016-09-06T08:14:50.000Z</time>
      </trkpt>
      <trkpt lat="47.28941" lon="6.17077">
        <ele>247.053</ele>
        <time>2016-09-06T08:14:51.000Z</time>
      </trkpt>
      <trkpt lat="47.2894" lon="6.17075">
        <ele>247.41</ele>
        <time>2016-09-06T08:14:52.000Z</time>
      </trkpt>
      <trkpt lat="47.2894" lon="6.17071">
        <ele>244.995</ele>
        <time>2016-09-06T08:14:53.000Z</time>
      </trkpt>
      <trkpt lat="47.2894" lon="6.17068">
        <ele>247.091</ele>
        <time>2016-09-06T08:14:54.000Z</time>
      </trkpt>
      <trkpt lat="47.2894" lon="6.17064">
        <ele>244.009</ele>
        <time>2016-09-06T08:14:55.000Z</time>
      </trkpt>
      <trkpt lat="47.28939" lon="6.17059">
        <ele>244.323</ele>
        <time>2016-09-06T08:14:56.000Z</time>
      </trkpt>
      <trkpt lat="47.28939" lon="6.17054">
        <ele>245.757</ele>
        <time>2016-09-06T08:14:57.000Z</time>
      </trkpt>
      <trkpt lat="47.28938" lon="6.17048">
        <ele>246.009</ele>
        <time>2016-09-06T08:14:58.000Z</time>
      </trkpt>
      <trkpt lat="47.28938" lon="6.17043">
        <ele>247.592</ele>
        <time>2016-09-06T08:14:59.000Z</time>
      </trkpt>
      <trkpt lat="47.28938" lon="6.17038">
        <ele>246.65</ele>
        <time>2016-09-06T08:15:00.000Z</time>
      </trkpt>
      <trkpt lat="47.28937" lon="6.17032">
        <ele>247.107</ele>
        <time>2016-09-06T08:15:01.000Z</time>
      </trkpt>
      <trkpt lat="47.28937" lon="6.17027">
        <ele>247.131</ele>
        <time>2016-09-06T08:15:02.000Z</time>
      </trkpt>
      <trkpt lat="47.28936" lon="6.17021">
        <ele>245.967</ele>
        <time>2016-09-06T08:15:03.000Z</time>
      </trkpt>
      <trkpt lat="47.28935" lon="6.17014">
        <ele>244.373</ele>
        <time>2016-09-06T08:15:04.000Z</time>
      </trkpt>
      <trkpt lat="47.28935" lon="6.17008">
        <ele>247.844</ele>
        <time>2016-09-06T08:15:05.000Z</time>
      </trkpt>
      <trkpt lat="47.28935" lon="6.17002">
        <ele>247.995</ele>
        <time>2016-09-06T08:15:06.000Z</time>
      </trkpt>
      <trkpt lat="47.28935" lon="6.16995">
        <ele>248.883</ele>
        <time>2016-09-06T08:15:07.000Z</time>
      </trkpt>
      <trkpt lat="47.28935" lon="6.16986">
        <ele>247.851</ele>
        <time>2016-09-06T08:15:08.000Z</time>
      </trkpt>
      <trkpt lat="47.28933" lon="6.1698">
        <ele>245.755</ele>
        <time>2016-09-06T08:15:09.000Z</time>
      </trkpt>
      <trkpt lat="47.28932" lon="6.16974">
        <ele>245.668</ele>
        <time>2016-09-06T08:15:10.000Z</time>
      </trkpt>
      <trkpt lat="47.28932" lon="6.16967">
        <ele>247.248</ele>
        <time>2016-09-06T08:15:11.000Z</time>
      </trkpt>
      <trkpt lat="47.28932" lon="6.16961">
        <ele>247.041</ele>
        <time>2016-09-06T08:15:12.000Z</time>
      </trkpt>
      <trkpt lat="47.28932" lon="6.16955">
        <ele>247.38</ele>
        <time>2016-09-06T08:15:13.000Z</time>
      </trkpt>
      <trkpt lat="47.28932" lon="6.16949">
        <ele>247.766</ele>
        <time>2016-09-06T08:15:14.000Z</time>
      </trkpt>
      <trkpt lat="47.28931" lon="6.16943">
        <ele>247.914</ele>
        <time>2016-09-06T08:15:15.000Z</time>
      </trkpt>
      <trkpt lat="47.2893" lon="6.16937">
        <ele>247.784</ele>
        <time>2016-09-06T08:15:16.000Z</time>
      </trkpt>
      <trkpt lat="47.2893" lon="6.16931">
        <ele>249.901</ele>
        <time>2016-09-06T08:15:17.000Z</time>
      </trkpt>
      <trkpt lat="47.2893" lon="6.16925">
        <ele>249.19</ele>
        <time>2016-09-06T08:15:18.000Z</time>
      </trkpt>
      <trkpt lat="47.28929" lon="6.16918">
        <ele>249.224</ele>
        <time>2016-09-06T08:15:19.000Z</time>
      </trkpt>
      <trkpt lat="47.28928" lon="6.16912">
        <ele>247.005</ele>
        <time>2016-09-06T08:15:20.000Z</time>
      </trkpt>
      <trkpt lat="47.28927" lon="6.16906">
        <ele>247.297</ele>
        <time>2016-09-06T08:15:21.000Z</time>
      </trkpt>
      <trkpt lat="47.28926" lon="6.169">
        <ele>247.459</ele>
        <time>2016-09-06T08:15:22.000Z</time>
      </trkpt>
      <trkpt lat="47.28926" lon="6.16892">
        <ele>249.521</ele>
        <time>2016-09-06T08:15:23.000Z</time>
      </trkpt>
      <trkpt lat="47.28925" lon="6.16885">
        <ele>250.288</ele>
        <time>2016-09-06T08:15:24.000Z</time>
      </trkpt>
      <trkpt lat="47.28924" lon="6.16878">
        <ele>250.236</ele>
        <time>2016-09-06T08:15:25.000Z</time>
      </trkpt>
      <trkpt lat="47.28924" lon="6.16869">
        <ele>249.075</ele>
        <time>2016-09-06T08:15:26.000Z</time>
      </trkpt>
      <trkpt lat="47.28923" lon="6.16863">
        <ele>248.381</ele>
        <time>2016-09-06T08:15:27.000Z</time>
      </trkpt>
      <trkpt lat="47.28923" lon="6.16857">
        <ele>248.345</ele>
        <time>2016-09-06T08:15:28.000Z</time>
      </trkpt>
      <trkpt lat="47.28923" lon="6.16848">
        <ele>248.068</ele>
        <time>2016-09-06T08:15:29.000Z</time>
      </trkpt>
      <trkpt lat="47.28922" lon="6.16842">
        <ele>247.778</ele>
        <time>2016-09-06T08:15:30.000Z</time>
      </trkpt>
      <trkpt lat="47.28921" lon="6.16835">
        <ele>247.815</ele>
        <time>2016-09-06T08:15:31.000Z</time>
      </trkpt>
      <trkpt lat="47.28921" lon="6.16827">
        <ele>246.692</ele>
        <time>2016-09-06T08:15:32.000Z</time>
      </trkpt>
      <trkpt lat="47.2892" lon="6.16819">
        <ele>246.978</ele>
        <time>2016-09-06T08:15:33.000Z</time>
      </trkpt>
      <trkpt lat="47.28919" lon="6.16807">
        <ele>244.13</ele>
        <time>2016-09-06T08:15:34.000Z</time>
      </trkpt>
      <trkpt lat="47.28919" lon="6.16798">
        <ele>243.3</ele>
        <time>2016-09-06T08:15:35.000Z</time>
      </trkpt>
      <trkpt lat="47.28919" lon="6.16791">
        <ele>244.24</ele>
        <time>2016-09-06T08:15:36.000Z</time>
      </trkpt>
      <trkpt lat="47.28919" lon="6.16781">
        <ele>243.109</ele>
        <time>2016-09-06T08:15:37.000Z</time>
      </trkpt>
      <trkpt lat="47.28918" lon="6.16774">
        <ele>243.507</ele>
        <time>2016-09-06T08:15:38.000Z</time>
      </trkpt>
      <trkpt lat="47.28919" lon="6.16766">
        <ele>243.258</ele>
        <time>2016-09-06T08:15:39.000Z</time>
      </trkpt>
      <trkpt lat="47.28918" lon="6.1676">
        <ele>243.615</ele>
        <time>2016-09-06T08:15:40.000Z</time>
      </trkpt>
      <trkpt lat="47.28918" lon="6.16754">
        <ele>242.785</ele>
        <time>2016-09-06T08:15:41.000Z</time>
      </trkpt>
      <trkpt lat="47.28917" lon="6.16748">
        <ele>243.416</ele>
        <time>2016-09-06T08:15:42.000Z</time>
      </trkpt>
      <trkpt lat="47.28917" lon="6.16742">
        <ele>243.933</ele>
        <time>2016-09-06T08:15:43.000Z</time>
      </trkpt>
      <trkpt lat="47.28917" lon="6.16736">
        <ele>243.996</ele>
        <time>2016-09-06T08:15:44.000Z</time>
      </trkpt>
      <trkpt lat="47.28916" lon="6.16729">
        <ele>243.138</ele>
        <time>2016-09-06T08:15:45.000Z</time>
      </trkpt>
      <trkpt lat="47.28916" lon="6.16722">
        <ele>242.83</ele>
        <time>2016-09-06T08:15:46.000Z</time>
      </trkpt>
      <trkpt lat="47.28916" lon="6.16714">
        <ele>241.94</ele>
        <time>2016-09-06T08:15:47.000Z</time>
      </trkpt>
      <trkpt lat="47.28916" lon="6.16706">
        <ele>239.396</ele>
        <time>2016-09-06T08:15:48.000Z</time>
      </trkpt>
      <trkpt lat="47.28916" lon="6.167">
        <ele>238.883</ele>
        <time>2016-09-06T08:15:49.000Z</time>
      </trkpt>
      <trkpt lat="47.28916" lon="6.16693">
        <ele>238.506</ele>
        <time>2016-09-06T08:15:50.003Z</time>
      </trkpt>
      <trkpt lat="47.28915" lon="6.16686">
        <ele>238.612</ele>
        <time>2016-09-06T08:15:51.000Z</time>
      </trkpt>
      <trkpt lat="47.28915" lon="6.16679">
        <ele>238.964</ele>
        <time>2016-09-06T08:15:52.000Z</time>
      </trkpt>
      <trkpt lat="47.28915" lon="6.16672">
        <ele>238.291</ele>
        <time>2016-09-06T08:15:53.000Z</time>
      </trkpt>
      <trkpt lat="47.28915" lon="6.16664">
        <ele>237.429</ele>
        <time>2016-09-06T08:15:54.000Z</time>
      </trkpt>
      <trkpt lat="47.28915" lon="6.16657">
        <ele>238.268</ele>
        <time>2016-09-06T08:15:55.000Z</time>
      </trkpt>
      <trkpt lat="47.28915" lon="6.1665">
        <ele>237.531</ele>
        <time>2016-09-06T08:15:56.000Z</time>
      </trkpt>
      <trkpt lat="47.28914" lon="6.16642">
        <ele>235.905</ele>
        <time>2016-09-06T08:15:57.000Z</time>
      </trkpt>
      <trkpt lat="47.28914" lon="6.16635">
        <ele>236.541</ele>
        <time>2016-09-06T08:15:58.000Z</time>
      </trkpt>
      <trkpt lat="47.28913" lon="6.16627">
        <ele>237.103</ele>
        <time>2016-09-06T08:15:59.000Z</time>
      </trkpt>
      <trkpt lat="47.28913" lon="6.16621">
        <ele>237.787</ele>
        <time>2016-09-06T08:16:00.000Z</time>
      </trkpt>
      <trkpt lat="47.28913" lon="6.16615">
        <ele>237.994</ele>
        <time>2016-09-06T08:16:01.000Z</time>
      </trkpt>
      <trkpt lat="47.28913" lon="6.16608">
        <ele>239.816</ele>
        <time>2016-09-06T08:16:02.000Z</time>
      </trkpt>
      <trkpt lat="47.28913" lon="6.16601">
        <ele>238.779</ele>
        <time>2016-09-06T08:16:03.000Z</time>
      </trkpt>
      <trkpt lat="47.28912" lon="6.16593">
        <ele>238.619</ele>
        <time>2016-09-06T08:16:04.000Z</time>
      </trkpt>
      <trkpt lat="47.28911" lon="6.16585">
        <ele>238.497</ele>
        <time>2016-09-06T08:16:05.000Z</time>
      </trkpt>
      <trkpt lat="47.2891" lon="6.16578">
        <ele>238.38</ele>
        <time>2016-09-06T08:16:06.000Z</time>
      </trkpt>
      <trkpt lat="47.28909" lon="6.1657">
        <ele>239.148</ele>
        <time>2016-09-06T08:16:07.000Z</time>
      </trkpt>
      <trkpt lat="47.28909" lon="6.16563">
        <ele>238.625</ele>
        <time>2016-09-06T08:16:08.000Z</time>
      </trkpt>
      <trkpt lat="47.28908" lon="6.16554">
        <ele>240.008</ele>
        <time>2016-09-06T08:16:09.000Z</time>
      </trkpt>
      <trkpt lat="47.28907" lon="6.16546">
        <ele>239.144</ele>
        <time>2016-09-06T08:16:10.000Z</time>
      </trkpt>
      <trkpt lat="47.28907" lon="6.16538">
        <ele>240.133</ele>
        <time>2016-09-06T08:16:11.000Z</time>
      </trkpt>
      <trkpt lat="47.28906" lon="6.16531">
        <ele>241.208</ele>
        <time>2016-09-06T08:16:12.000Z</time>
      </trkpt>
      <trkpt lat="47.28906" lon="6.16523">
        <ele>240.424</ele>
        <time>2016-09-06T08:16:13.000Z</time>
      </trkpt>
      <trkpt lat="47.28906" lon="6.16515">
        <ele>240.719</ele>
        <time>2016-09-06T08:16:14.000Z</time>
      </trkpt>
      <trkpt lat="47.28905" lon="6.16507">
        <ele>241.657</ele>
        <time>2016-09-06T08:16:15.000Z</time>
      </trkpt>
      <trkpt lat="47.28905" lon="6.16498">
        <ele>240.742</ele>
        <time>2016-09-06T08:16:16.000Z</time>
      </trkpt>
      <trkpt lat="47.28904" lon="6.1649">
        <ele>240.358</ele>
        <time>2016-09-06T08:16:17.000Z</time>
      </trkpt>
      <trkpt lat="47.28903" lon="6.16482">
        <ele>239.53</ele>
        <time>2016-09-06T08:16:18.000Z</time>
      </trkpt>
      <trkpt lat="47.28902" lon="6.16474">
        <ele>238.984</ele>
        <time>2016-09-06T08:16:19.000Z</time>
      </trkpt>
      <trkpt lat="47.28902" lon="6.16466">
        <ele>238.53</ele>
        <time>2016-09-06T08:16:20.000Z</time>
      </trkpt>
      <trkpt lat="47.28902" lon="6.16459">
        <ele>239.613</ele>
        <time>2016-09-06T08:16:21.000Z</time>
      </trkpt>
      <trkpt lat="47.28901" lon="6.16451">
        <ele>239.123</ele>
        <time>2016-09-06T08:16:22.000Z</time>
      </trkpt>
      <trkpt lat="47.28901" lon="6.16442">
        <ele>239.781</ele>
        <time>2016-09-06T08:16:23.000Z</time>
      </trkpt>
      <trkpt lat="47.28899" lon="6.16434">
        <ele>238.226</ele>
        <time>2016-09-06T08:16:24.000Z</time>
      </trkpt>
      <trkpt lat="47.28899" lon="6.16426">
        <ele>239.114</ele>
        <time>2016-09-06T08:16:25.000Z</time>
      </trkpt>
      <trkpt lat="47.28898" lon="6.16419">
        <ele>238.507</ele>
        <time>2016-09-06T08:16:26.000Z</time>
      </trkpt>
      <trkpt lat="47.28897" lon="6.1641">
        <ele>237.889</ele>
        <time>2016-09-06T08:16:27.000Z</time>
      </trkpt>
      <trkpt lat="47.28896" lon="6.16403">
        <ele>238.131</ele>
        <time>2016-09-06T08:16:28.000Z</time>
      </trkpt>
      <trkpt lat="47.28896" lon="6.16397">
        <ele>239.187</ele>
        <time>2016-09-06T08:16:29.000Z</time>
      </trkpt>
      <trkpt lat="47.28896" lon="6.16388">
        <ele>238.28</ele>
        <time>2016-09-06T08:16:30.000Z</time>
      </trkpt>
      <trkpt lat="47.28895" lon="6.16381">
        <ele>238.82</ele>
        <time>2016-09-06T08:16:31.000Z</time>
      </trkpt>
      <trkpt lat="47.28895" lon="6.16373">
        <ele>237.436</ele>
        <time>2016-09-06T08:16:32.000Z</time>
      </trkpt>
      <trkpt lat="47.28895" lon="6.16366">
        <ele>238.615</ele>
        <time>2016-09-06T08:16:33.000Z</time>
      </trkpt>
      <trkpt lat="47.28894" lon="6.16358">
        <ele>238.805</ele>
        <time>2016-09-06T08:16:34.000Z</time>
      </trkpt>
      <trkpt lat="47.28893" lon="6.16351">
        <ele>238.012</ele>
        <time>2016-09-06T08:16:35.000Z</time>
      </trkpt>
      <trkpt lat="47.28892" lon="6.16343">
        <ele>237.236</ele>
        <time>2016-09-06T08:16:36.000Z</time>
      </trkpt>
      <trkpt lat="47.28892" lon="6.16336">
        <ele>237.835</ele>
        <time>2016-09-06T08:16:37.000Z</time>
      </trkpt>
      <trkpt lat="47.28891" lon="6.16329">
        <ele>237.957</ele>
        <time>2016-09-06T08:16:38.000Z</time>
      </trkpt>
      <trkpt lat="47.2889" lon="6.16322">
        <ele>240.207</ele>
        <time>2016-09-06T08:16:39.000Z</time>
      </trkpt>
      <trkpt lat="47.28889" lon="6.16314">
        <ele>240.244</ele>
        <time>2016-09-06T08:16:40.000Z</time>
      </trkpt>
      <trkpt lat="47.28888" lon="6.16307">
        <ele>241.815</ele>
        <time>2016-09-06T08:16:41.000Z</time>
      </trkpt>
      <trkpt lat="47.28887" lon="6.163">
        <ele>241.204</ele>
        <time>2016-09-06T08:16:42.000Z</time>
      </trkpt>
      <trkpt lat="47.28886" lon="6.16292">
        <ele>240.457</ele>
        <time>2016-09-06T08:16:43.000Z</time>
      </trkpt>
      <trkpt lat="47.28885" lon="6.16286">
        <ele>241.173</ele>
        <time>2016-09-06T08:16:44.000Z</time>
      </trkpt>
      <trkpt lat="47.28884" lon="6.16277">
        <ele>240.591</ele>
        <time>2016-09-06T08:16:45.000Z</time>
      </trkpt>
      <trkpt lat="47.28883" lon="6.16269">
        <ele>241.408</ele>
        <time>2016-09-06T08:16:46.000Z</time>
      </trkpt>
      <trkpt lat="47.28882" lon="6.16263">
        <ele>242.921</ele>
        <time>2016-09-06T08:16:47.000Z</time>
      </trkpt>
      <trkpt lat="47.28881" lon="6.16255">
        <ele>242.28</ele>
        <time>2016-09-06T08:16:48.000Z</time>
      </trkpt>
      <trkpt lat="47.2888" lon="6.16248">
        <ele>242.149</ele>
        <time>2016-09-06T08:16:49.000Z</time>
      </trkpt>
      <trkpt lat="47.28879" lon="6.16241">
        <ele>242.371</ele>
        <time>2016-09-06T08:16:50.000Z</time>
      </trkpt>
      <trkpt lat="47.28878" lon="6.16233">
        <ele>241.121</ele>
        <time>2016-09-06T08:16:51.000Z</time>
      </trkpt>
      <trkpt lat="47.28877" lon="6.16226">
        <ele>241.326</ele>
        <time>2016-09-06T08:16:52.000Z</time>
      </trkpt>
      <trkpt lat="47.28876" lon="6.16219">
        <ele>240.764</ele>
        <time>2016-09-06T08:16:53.000Z</time>
      </trkpt>
      <trkpt lat="47.28875" lon="6.16213">
        <ele>241.061</ele>
        <time>2016-09-06T08:16:54.000Z</time>
      </trkpt>
      <trkpt lat="47.28874" lon="6.16205">
        <ele>240.975</ele>
        <time>2016-09-06T08:16:55.000Z</time>
      </trkpt>
      <trkpt lat="47.28874" lon="6.16199">
        <ele>241.764</ele>
        <time>2016-09-06T08:16:56.000Z</time>
      </trkpt>
      <trkpt lat="47.28873" lon="6.16191">
        <ele>241.424</ele>
        <time>2016-09-06T08:16:57.000Z</time>
      </trkpt>
      <trkpt lat="47.28871" lon="6.16184">
        <ele>241.884</ele>
        <time>2016-09-06T08:16:58.000Z</time>
      </trkpt>
      <trkpt lat="47.28871" lon="6.16178">
        <ele>241.615</ele>
        <time>2016-09-06T08:16:59.000Z</time>
      </trkpt>
      <trkpt lat="47.28871" lon="6.16172">
        <ele>241.883</ele>
        <time>2016-09-06T08:17:00.000Z</time>
      </trkpt>
      <trkpt lat="47.2887" lon="6.16166">
        <ele>241.946</ele>
        <time>2016-09-06T08:17:01.000Z</time>
      </trkpt>
      <trkpt lat="47.28869" lon="6.16159">
        <ele>242.528</ele>
        <time>2016-09-06T08:17:02.000Z</time>
      </trkpt>
      <trkpt lat="47.28868" lon="6.16154">
        <ele>243.496</ele>
        <time>2016-09-06T08:17:03.000Z</time>
      </trkpt>
      <trkpt lat="47.28868" lon="6.16148">
        <ele>244.836</ele>
        <time>2016-09-06T08:17:04.000Z</time>
      </trkpt>
      <trkpt lat="47.28866" lon="6.16141">
        <ele>244.872</ele>
        <time>2016-09-06T08:17:05.000Z</time>
      </trkpt>
      <trkpt lat="47.28865" lon="6.16136">
        <ele>244.888</ele>
        <time>2016-09-06T08:17:06.000Z</time>
      </trkpt>
      <trkpt lat="47.28865" lon="6.16131">
        <ele>245.618</ele>
        <time>2016-09-06T08:17:07.000Z</time>
      </trkpt>
      <trkpt lat="47.28864" lon="6.16124">
        <ele>245.73</ele>
        <time>2016-09-06T08:17:08.000Z</time>
      </trkpt>
      <trkpt lat="47.28863" lon="6.16118">
        <ele>246.417</ele>
        <time>2016-09-06T08:17:09.000Z</time>
      </trkpt>
      <trkpt lat="47.28862" lon="6.16111">
        <ele>244.858</ele>
        <time>2016-09-06T08:17:10.000Z</time>
      </trkpt>
      <trkpt lat="47.28861" lon="6.16105">
        <ele>244.671</ele>
        <time>2016-09-06T08:17:11.000Z</time>
      </trkpt>
      <trkpt lat="47.2886" lon="6.16099">
        <ele>245.339</ele>
        <time>2016-09-06T08:17:12.000Z</time>
      </trkpt>
      <trkpt lat="47.2886" lon="6.16092">
        <ele>244.578</ele>
        <time>2016-09-06T08:17:13.000Z</time>
      </trkpt>
      <trkpt lat="47.28859" lon="6.16085">
        <ele>243.764</ele>
        <time>2016-09-06T08:17:14.000Z</time>
      </trkpt>
      <trkpt lat="47.28859" lon="6.16078">
        <ele>243.943</ele>
        <time>2016-09-06T08:17:15.000Z</time>
      </trkpt>
      <trkpt lat="47.28859" lon="6.16071">
        <ele>243.489</ele>
        <time>2016-09-06T08:17:16.000Z</time>
      </trkpt>
      <trkpt lat="47.28859" lon="6.16065">
        <ele>242.214</ele>
        <time>2016-09-06T08:17:17.000Z</time>
      </trkpt>
      <trkpt lat="47.28858" lon="6.16058">
        <ele>240.252</ele>
        <time>2016-09-06T08:17:18.000Z</time>
      </trkpt>
      <trkpt lat="47.28857" lon="6.16052">
        <ele>242.051</ele>
        <time>2016-09-06T08:17:19.000Z</time>
      </trkpt>
      <trkpt lat="47.28857" lon="6.16045">
        <ele>241.942</ele>
        <time>2016-09-06T08:17:20.000Z</time>
      </trkpt>
      <trkpt lat="47.28856" lon="6.16038">
        <ele>242.103</ele>
        <time>2016-09-06T08:17:21.000Z</time>
      </trkpt>
      <trkpt lat="47.28856" lon="6.16032">
        <ele>242.637</ele>
        <time>2016-09-06T08:17:22.000Z</time>
      </trkpt>
      <trkpt lat="47.28855" lon="6.16027">
        <ele>243.135</ele>
        <time>2016-09-06T08:17:23.000Z</time>
      </trkpt>
      <trkpt lat="47.28854" lon="6.16018">
        <ele>242.733</ele>
        <time>2016-09-06T08:17:24.000Z</time>
      </trkpt>
      <trkpt lat="47.28854" lon="6.16011">
        <ele>242.771</ele>
        <time>2016-09-06T08:17:25.000Z</time>
      </trkpt>
      <trkpt lat="47.28852" lon="6.16004">
        <ele>242.9</ele>
        <time>2016-09-06T08:17:26.000Z</time>
      </trkpt>
      <trkpt lat="47.2885" lon="6.15996">
        <ele>241.328</ele>
        <time>2016-09-06T08:17:27.000Z</time>
      </trkpt>
      <trkpt lat="47.28849" lon="6.15989">
        <ele>241.361</ele>
        <time>2016-09-06T08:17:28.000Z</time>
      </trkpt>
      <trkpt lat="47.28848" lon="6.15983">
        <ele>243.254</ele>
        <time>2016-09-06T08:17:29.000Z</time>
      </trkpt>
      <trkpt lat="47.28847" lon="6.15975">
        <ele>242.795</ele>
        <time>2016-09-06T08:17:30.000Z</time>
      </trkpt>
      <trkpt lat="47.28846" lon="6.15968">
        <ele>243.538</ele>
        <time>2016-09-06T08:17:31.000Z</time>
      </trkpt>
      <trkpt lat="47.28845" lon="6.15962">
        <ele>244.469</ele>
        <time>2016-09-06T08:17:32.000Z</time>
      </trkpt>
      <trkpt lat="47.28844" lon="6.15955">
        <ele>244.803</ele>
        <time>2016-09-06T08:17:33.000Z</time>
      </trkpt>
      <trkpt lat="47.28843" lon="6.15947">
        <ele>243.637</ele>
        <time>2016-09-06T08:17:34.000Z</time>
      </trkpt>
      <trkpt lat="47.28843" lon="6.1594">
        <ele>242.85</ele>
        <time>2016-09-06T08:17:35.000Z</time>
      </trkpt>
      <trkpt lat="47.28842" lon="6.15934">
        <ele>243.195</ele>
        <time>2016-09-06T08:17:36.000Z</time>
      </trkpt>
      <trkpt lat="47.28841" lon="6.15927">
        <ele>243.343</ele>
        <time>2016-09-06T08:17:37.000Z</time>
      </trkpt>
      <trkpt lat="47.2884" lon="6.1592">
        <ele>242.167</ele>
        <time>2016-09-06T08:17:38.000Z</time>
      </trkpt>
      <trkpt lat="47.28838" lon="6.15912">
        <ele>239.209</ele>
        <time>2016-09-06T08:17:39.000Z</time>
      </trkpt>
      <trkpt lat="47.28838" lon="6.15906">
        <ele>239.428</ele>
        <time>2016-09-06T08:17:40.000Z</time>
      </trkpt>
      <trkpt lat="47.28837" lon="6.159">
        <ele>238.903</ele>
        <time>2016-09-06T08:17:41.000Z</time>
      </trkpt>
      <trkpt lat="47.28836" lon="6.15893">
        <ele>238.888</ele>
        <time>2016-09-06T08:17:42.000Z</time>
      </trkpt>
      <trkpt lat="47.28835" lon="6.15888">
        <ele>239.347</ele>
        <time>2016-09-06T08:17:43.000Z</time>
      </trkpt>
      <trkpt lat="47.28834" lon="6.15881">
        <ele>240.1</ele>
        <time>2016-09-06T08:17:44.000Z</time>
      </trkpt>
      <trkpt lat="47.28833" lon="6.15875">
        <ele>239.453</ele>
        <time>2016-09-06T08:17:45.000Z</time>
      </trkpt>
      <trkpt lat="47.28832" lon="6.15868">
        <ele>239.762</ele>
        <time>2016-09-06T08:17:46.000Z</time>
      </trkpt>
      <trkpt lat="47.28832" lon="6.15862">
        <ele>241.82</ele>
        <time>2016-09-06T08:17:47.000Z</time>
      </trkpt>
      <trkpt lat="47.28832" lon="6.15857">
        <ele>241.882</ele>
        <time>2016-09-06T08:17:48.000Z</time>
      </trkpt>
      <trkpt lat="47.28831" lon="6.1585">
        <ele>241.767</ele>
        <time>2016-09-06T08:17:49.000Z</time>
      </trkpt>
      <trkpt lat="47.28831" lon="6.15844">
        <ele>241.875</ele>
        <time>2016-09-06T08:17:50.000Z</time>
      </trkpt>
      <trkpt lat="47.28831" lon="6.15837">
        <ele>242.928</ele>
        <time>2016-09-06T08:17:51.000Z</time>
      </trkpt>
      <trkpt lat="47.2883" lon="6.15831">
        <ele>243.38</ele>
        <time>2016-09-06T08:17:52.000Z</time>
      </trkpt>
      <trkpt lat="47.28828" lon="6.15823">
        <ele>240.745</ele>
        <time>2016-09-06T08:17:53.000Z</time>
      </trkpt>
      <trkpt lat="47.28827" lon="6.15815">
        <ele>240.438</ele>
        <time>2016-09-06T08:17:54.000Z</time>
      </trkpt>
      <trkpt lat="47.28826" lon="6.1581">
        <ele>240.358</ele>
        <time>2016-09-06T08:17:55.000Z</time>
      </trkpt>
      <trkpt lat="47.28825" lon="6.15804">
        <ele>240.57</ele>
        <time>2016-09-06T08:17:56.000Z</time>
      </trkpt>
      <trkpt lat="47.28824" lon="6.15798">
        <ele>241.242</ele>
        <time>2016-09-06T08:17:57.000Z</time>
      </trkpt>
      <trkpt lat="47.28824" lon="6.1579">
        <ele>239.349</ele>
        <time>2016-09-06T08:17:58.000Z</time>
      </trkpt>
      <trkpt lat="47.28822" lon="6.15783">
        <ele>239.465</ele>
        <time>2016-09-06T08:17:59.000Z</time>
      </trkpt>
      <trkpt lat="47.28821" lon="6.15776">
        <ele>239.396</ele>
        <time>2016-09-06T08:18:00.000Z</time>
      </trkpt>
      <trkpt lat="47.28821" lon="6.1577">
        <ele>239.936</ele>
        <time>2016-09-06T08:18:01.000Z</time>
      </trkpt>
      <trkpt lat="47.2882" lon="6.15763">
        <ele>239.915</ele>
        <time>2016-09-06T08:18:02.000Z</time>
      </trkpt>
      <trkpt lat="47.28819" lon="6.15757">
        <ele>240.192</ele>
        <time>2016-09-06T08:18:03.000Z</time>
      </trkpt>
      <trkpt lat="47.28818" lon="6.1575">
        <ele>241.058</ele>
        <time>2016-09-06T08:18:04.000Z</time>
      </trkpt>
      <trkpt lat="47.28817" lon="6.15743">
        <ele>240.49</ele>
        <time>2016-09-06T08:18:05.000Z</time>
      </trkpt>
      <trkpt lat="47.28817" lon="6.15737">
        <ele>241.132</ele>
        <time>2016-09-06T08:18:06.000Z</time>
      </trkpt>
      <trkpt lat="47.28816" lon="6.15731">
        <ele>241.616</ele>
        <time>2016-09-06T08:18:07.000Z</time>
      </trkpt>
      <trkpt lat="47.28814" lon="6.15724">
        <ele>240.634</ele>
        <time>2016-09-06T08:18:08.000Z</time>
      </trkpt>
      <trkpt lat="47.28813" lon="6.15717">
        <ele>241.532</ele>
        <time>2016-09-06T08:18:09.000Z</time>
      </trkpt>
      <trkpt lat="47.28812" lon="6.1571">
        <ele>242.385</ele>
        <time>2016-09-06T08:18:10.000Z</time>
      </trkpt>
      <trkpt lat="47.2881" lon="6.15703">
        <ele>240.987</ele>
        <time>2016-09-06T08:18:11.000Z</time>
      </trkpt>
      <trkpt lat="47.28809" lon="6.15695">
        <ele>239.65</ele>
        <time>2016-09-06T08:18:12.000Z</time>
      </trkpt>
      <trkpt lat="47.28807" lon="6.15687">
        <ele>238.251</ele>
        <time>2016-09-06T08:18:13.000Z</time>
      </trkpt>
      <trkpt lat="47.28806" lon="6.1568">
        <ele>238.093</ele>
        <time>2016-09-06T08:18:14.000Z</time>
      </trkpt>
      <trkpt lat="47.28804" lon="6.15674">
        <ele>237.622</ele>
        <time>2016-09-06T08:18:15.000Z</time>
      </trkpt>
      <trkpt lat="47.28802" lon="6.15667">
        <ele>236.546</ele>
        <time>2016-09-06T08:18:16.000Z</time>
      </trkpt>
      <trkpt lat="47.28801" lon="6.1566">
        <ele>236.943</ele>
        <time>2016-09-06T08:18:17.000Z</time>
      </trkpt>
      <trkpt lat="47.288" lon="6.15655">
        <ele>237.338</ele>
        <time>2016-09-06T08:18:18.000Z</time>
      </trkpt>
      <trkpt lat="47.288" lon="6.15649">
        <ele>238.767</ele>
        <time>2016-09-06T08:18:19.000Z</time>
      </trkpt>
      <trkpt lat="47.28798" lon="6.15643">
        <ele>239.852</ele>
        <time>2016-09-06T08:18:20.000Z</time>
      </trkpt>
      <trkpt lat="47.28798" lon="6.15636">
        <ele>239.141</ele>
        <time>2016-09-06T08:18:21.000Z</time>
      </trkpt>
      <trkpt lat="47.28796" lon="6.15628">
        <ele>237.874</ele>
        <time>2016-09-06T08:18:22.000Z</time>
      </trkpt>
      <trkpt lat="47.28794" lon="6.15622">
        <ele>237.685</ele>
        <time>2016-09-06T08:18:23.000Z</time>
      </trkpt>
      <trkpt lat="47.28793" lon="6.15616">
        <ele>237.148</ele>
        <time>2016-09-06T08:18:24.000Z</time>
      </trkpt>
      <trkpt lat="47.28792" lon="6.1561">
        <ele>237.29</ele>
        <time>2016-09-06T08:18:25.000Z</time>
      </trkpt>
      <trkpt lat="47.2879" lon="6.15602">
        <ele>236.41</ele>
        <time>2016-09-06T08:18:26.000Z</time>
      </trkpt>
      <trkpt lat="47.28788" lon="6.15595">
        <ele>235.118</ele>
        <time>2016-09-06T08:18:27.000Z</time>
      </trkpt>
      <trkpt lat="47.28787" lon="6.15588">
        <ele>235.941</ele>
        <time>2016-09-06T08:18:28.000Z</time>
      </trkpt>
      <trkpt lat="47.28786" lon="6.15581">
        <ele>236.79</ele>
        <time>2016-09-06T08:18:29.000Z</time>
      </trkpt>
      <trkpt lat="47.28784" lon="6.15575">
        <ele>238.639</ele>
        <time>2016-09-06T08:18:30.000Z</time>
      </trkpt>
      <trkpt lat="47.28783" lon="6.15568">
        <ele>239.481</ele>
        <time>2016-09-06T08:18:31.000Z</time>
      </trkpt>
      <trkpt lat="47.28781" lon="6.15561">
        <ele>239.843</ele>
        <time>2016-09-06T08:18:32.000Z</time>
      </trkpt>
      <trkpt lat="47.28779" lon="6.15555">
        <ele>239.406</ele>
        <time>2016-09-06T08:18:33.000Z</time>
      </trkpt>
      <trkpt lat="47.28778" lon="6.15548">
        <ele>240.521</ele>
        <time>2016-09-06T08:18:34.000Z</time>
      </trkpt>
      <trkpt lat="47.28776" lon="6.15542">
        <ele>240.225</ele>
        <time>2016-09-06T08:18:35.000Z</time>
      </trkpt>
      <trkpt lat="47.28776" lon="6.15535">
        <ele>240.08</ele>
        <time>2016-09-06T08:18:36.000Z</time>
      </trkpt>
      <trkpt lat="47.28774" lon="6.15528">
        <ele>239.663</ele>
        <time>2016-09-06T08:18:37.000Z</time>
      </trkpt>
      <trkpt lat="47.28772" lon="6.15522">
        <ele>239.655</ele>
        <time>2016-09-06T08:18:38.000Z</time>
      </trkpt>
      <trkpt lat="47.28771" lon="6.15515">
        <ele>240.416</ele>
        <time>2016-09-06T08:18:39.000Z</time>
      </trkpt>
      <trkpt lat="47.28769" lon="6.15509">
        <ele>240.226</ele>
        <time>2016-09-06T08:18:40.000Z</time>
      </trkpt>
      <trkpt lat="47.28768" lon="6.15502">
        <ele>240.44</ele>
        <time>2016-09-06T08:18:41.000Z</time>
      </trkpt>
      <trkpt lat="47.28767" lon="6.15496">
        <ele>240.467</ele>
        <time>2016-09-06T08:18:42.000Z</time>
      </trkpt>
      <trkpt lat="47.28765" lon="6.1549">
        <ele>240.46</ele>
        <time>2016-09-06T08:18:43.000Z</time>
      </trkpt>
      <trkpt lat="47.28764" lon="6.15484">
        <ele>240.419</ele>
        <time>2016-09-06T08:18:44.000Z</time>
      </trkpt>
      <trkpt lat="47.28763" lon="6.15477">
        <ele>240.408</ele>
        <time>2016-09-06T08:18:45.000Z</time>
      </trkpt>
      <trkpt lat="47.28762" lon="6.15471">
        <ele>240.87</ele>
        <time>2016-09-06T08:18:46.000Z</time>
      </trkpt>
      <trkpt lat="47.2876" lon="6.15463">
        <ele>240.413</ele>
        <time>2016-09-06T08:18:47.000Z</time>
      </trkpt>
      <trkpt lat="47.28759" lon="6.15457">
        <ele>240.811</ele>
        <time>2016-09-06T08:18:48.000Z</time>
      </trkpt>
      <trkpt lat="47.28758" lon="6.15451">
        <ele>240.753</ele>
        <time>2016-09-06T08:18:49.000Z</time>
      </trkpt>
      <trkpt lat="47.28757" lon="6.15445">
        <ele>240.991</ele>
        <time>2016-09-06T08:18:50.000Z</time>
      </trkpt>
      <trkpt lat="47.28756" lon="6.15438">
        <ele>241.147</ele>
        <time>2016-09-06T08:18:51.000Z</time>
      </trkpt>
      <trkpt lat="47.28754" lon="6.15432">
        <ele>240.524</ele>
        <time>2016-09-06T08:18:52.000Z</time>
      </trkpt>
      <trkpt lat="47.28753" lon="6.15425">
        <ele>240.24</ele>
        <time>2016-09-06T08:18:53.000Z</time>
      </trkpt>
      <trkpt lat="47.28751" lon="6.15418">
        <ele>239.759</ele>
        <time>2016-09-06T08:18:54.000Z</time>
      </trkpt>
      <trkpt lat="47.2875" lon="6.15412">
        <ele>240.174</ele>
        <time>2016-09-06T08:18:55.000Z</time>
      </trkpt>
      <trkpt lat="47.28749" lon="6.15406">
        <ele>240.073</ele>
        <time>2016-09-06T08:18:56.000Z</time>
      </trkpt>
      <trkpt lat="47.28748" lon="6.154">
        <ele>239.592</ele>
        <time>2016-09-06T08:18:57.000Z</time>
      </trkpt>
      <trkpt lat="47.28747" lon="6.15394">
        <ele>240.302</ele>
        <time>2016-09-06T08:18:58.000Z</time>
      </trkpt>
      <trkpt lat="47.28745" lon="6.15387">
        <ele>240.294</ele>
        <time>2016-09-06T08:18:59.000Z</time>
      </trkpt>
      <trkpt lat="47.28744" lon="6.15381">
        <ele>240.797</ele>
        <time>2016-09-06T08:19:00.000Z</time>
      </trkpt>
      <trkpt lat="47.28743" lon="6.15374">
        <ele>240.877</ele>
        <time>2016-09-06T08:19:01.000Z</time>
      </trkpt>
      <trkpt lat="47.28742" lon="6.15368">
        <ele>241.168</ele>
        <time>2016-09-06T08:19:02.000Z</time>
      </trkpt>
      <trkpt lat="47.2874" lon="6.15361">
        <ele>241.553</ele>
        <time>2016-09-06T08:19:03.000Z</time>
      </trkpt>
      <trkpt lat="47.28739" lon="6.15355">
        <ele>242.011</ele>
        <time>2016-09-06T08:19:04.000Z</time>
      </trkpt>
      <trkpt lat="47.28738" lon="6.15348">
        <ele>240.988</ele>
        <time>2016-09-06T08:19:05.000Z</time>
      </trkpt>
      <trkpt lat="47.28737" lon="6.15343">
        <ele>241.364</ele>
        <time>2016-09-06T08:19:06.000Z</time>
      </trkpt>
      <trkpt lat="47.28735" lon="6.15335">
        <ele>241.822</ele>
        <time>2016-09-06T08:19:07.000Z</time>
      </trkpt>
      <trkpt lat="47.28734" lon="6.15328">
        <ele>241.338</ele>
        <time>2016-09-06T08:19:08.000Z</time>
      </trkpt>
      <trkpt lat="47.28732" lon="6.15322">
        <ele>240.63</ele>
        <time>2016-09-06T08:19:09.000Z</time>
      </trkpt>
      <trkpt lat="47.28731" lon="6.15315">
        <ele>241.258</ele>
        <time>2016-09-06T08:19:10.000Z</time>
      </trkpt>
      <trkpt lat="47.2873" lon="6.15309">
        <ele>242.434</ele>
        <time>2016-09-06T08:19:11.000Z</time>
      </trkpt>
      <trkpt lat="47.28728" lon="6.15303">
        <ele>241.868</ele>
        <time>2016-09-06T08:19:12.000Z</time>
      </trkpt>
      <trkpt lat="47.28727" lon="6.15296">
        <ele>241.327</ele>
        <time>2016-09-06T08:19:13.000Z</time>
      </trkpt>
      <trkpt lat="47.28726" lon="6.15291">
        <ele>241.378</ele>
        <time>2016-09-06T08:19:14.000Z</time>
      </trkpt>
      <trkpt lat="47.28724" lon="6.15285">
        <ele>241.069</ele>
        <time>2016-09-06T08:19:15.000Z</time>
      </trkpt>
      <trkpt lat="47.28723" lon="6.15279">
        <ele>241.068</ele>
        <time>2016-09-06T08:19:16.000Z</time>
      </trkpt>
      <trkpt lat="47.28721" lon="6.15273">
        <ele>241.443</ele>
        <time>2016-09-06T08:19:17.000Z</time>
      </trkpt>
      <trkpt lat="47.2872" lon="6.15266">
        <ele>241.534</ele>
        <time>2016-09-06T08:19:18.000Z</time>
      </trkpt>
      <trkpt lat="47.28719" lon="6.1526">
        <ele>242.981</ele>
        <time>2016-09-06T08:19:19.000Z</time>
      </trkpt>
      <trkpt lat="47.28718" lon="6.15254">
        <ele>243.027</ele>
        <time>2016-09-06T08:19:20.000Z</time>
      </trkpt>
      <trkpt lat="47.28717" lon="6.15248">
        <ele>242.592</ele>
        <time>2016-09-06T08:19:21.000Z</time>
      </trkpt>
      <trkpt lat="47.28716" lon="6.15242">
        <ele>242.81</ele>
        <time>2016-09-06T08:19:22.000Z</time>
      </trkpt>
      <trkpt lat="47.28714" lon="6.15236">
        <ele>242.221</ele>
        <time>2016-09-06T08:19:23.000Z</time>
      </trkpt>
      <trkpt lat="47.28713" lon="6.1523">
        <ele>241.42</ele>
        <time>2016-09-06T08:19:24.000Z</time>
      </trkpt>
      <trkpt lat="47.28712" lon="6.15224">
        <ele>241.924</ele>
        <time>2016-09-06T08:19:25.000Z</time>
      </trkpt>
      <trkpt lat="47.28711" lon="6.15219">
        <ele>239.624</ele>
        <time>2016-09-06T08:19:26.000Z</time>
      </trkpt>
      <trkpt lat="47.2871" lon="6.15213">
        <ele>239.789</ele>
        <time>2016-09-06T08:19:27.000Z</time>
      </trkpt>
      <trkpt lat="47.28709" lon="6.15207">
        <ele>239.619</ele>
        <time>2016-09-06T08:19:28.000Z</time>
      </trkpt>
      <trkpt lat="47.28708" lon="6.15202">
        <ele>239.647</ele>
        <time>2016-09-06T08:19:29.000Z</time>
      </trkpt>
      <trkpt lat="47.28706" lon="6.15196">
        <ele>240.67</ele>
        <time>2016-09-06T08:19:30.000Z</time>
      </trkpt>
      <trkpt lat="47.28704" lon="6.1519">
        <ele>240.141</ele>
        <time>2016-09-06T08:19:31.000Z</time>
      </trkpt>
      <trkpt lat="47.28702" lon="6.15184">
        <ele>239.796</ele>
        <time>2016-09-06T08:19:32.000Z</time>
      </trkpt>
      <trkpt lat="47.28701" lon="6.15177">
        <ele>240.751</ele>
        <time>2016-09-06T08:19:33.000Z</time>
      </trkpt>
      <trkpt lat="47.28699" lon="6.15171">
        <ele>241.791</ele>
        <time>2016-09-06T08:19:34.000Z</time>
      </trkpt>
      <trkpt lat="47.28697" lon="6.15165">
        <ele>242.163</ele>
        <time>2016-09-06T08:19:35.000Z</time>
      </trkpt>
      <trkpt lat="47.28695" lon="6.15159">
        <ele>243.304</ele>
        <time>2016-09-06T08:19:36.000Z</time>
      </trkpt>
      <trkpt lat="47.28693" lon="6.15152">
        <ele>243.514</ele>
        <time>2016-09-06T08:19:37.000Z</time>
      </trkpt>
      <trkpt lat="47.28691" lon="6.15146">
        <ele>244.508</ele>
        <time>2016-09-06T08:19:38.000Z</time>
      </trkpt>
      <trkpt lat="47.28689" lon="6.1514">
        <ele>244.204</ele>
        <time>2016-09-06T08:19:39.000Z</time>
      </trkpt>
      <trkpt lat="47.28687" lon="6.15134">
        <ele>244.999</ele>
        <time>2016-09-06T08:19:40.000Z</time>
      </trkpt>
      <trkpt lat="47.28685" lon="6.15128">
        <ele>245.65</ele>
        <time>2016-09-06T08:19:41.000Z</time>
      </trkpt>
      <trkpt lat="47.28684" lon="6.15123">
        <ele>245.69</ele>
        <time>2016-09-06T08:19:42.000Z</time>
      </trkpt>
      <trkpt lat="47.28682" lon="6.15118">
        <ele>245.7</ele>
        <time>2016-09-06T08:19:43.000Z</time>
      </trkpt>
      <trkpt lat="47.2868" lon="6.15112">
        <ele>245.823</ele>
        <time>2016-09-06T08:19:44.000Z</time>
      </trkpt>
      <trkpt lat="47.28678" lon="6.15106">
        <ele>246.157</ele>
        <time>2016-09-06T08:19:45.000Z</time>
      </trkpt>
      <trkpt lat="47.28677" lon="6.151">
        <ele>246.26</ele>
        <time>2016-09-06T08:19:46.000Z</time>
      </trkpt>
      <trkpt lat="47.28675" lon="6.15094">
        <ele>246.684</ele>
        <time>2016-09-06T08:19:47.000Z</time>
      </trkpt>
      <trkpt lat="47.28673" lon="6.15088">
        <ele>246.881</ele>
        <time>2016-09-06T08:19:48.000Z</time>
      </trkpt>
      <trkpt lat="47.2867" lon="6.15083">
        <ele>246.8</ele>
        <time>2016-09-06T08:19:49.000Z</time>
      </trkpt>
      <trkpt lat="47.28669" lon="6.15077">
        <ele>246.383</ele>
        <time>2016-09-06T08:19:50.000Z</time>
      </trkpt>
      <trkpt lat="47.28667" lon="6.15071">
        <ele>244.754</ele>
        <time>2016-09-06T08:19:51.000Z</time>
      </trkpt>
      <trkpt lat="47.28665" lon="6.15065">
        <ele>244.489</ele>
        <time>2016-09-06T08:19:52.000Z</time>
      </trkpt>
      <trkpt lat="47.28664" lon="6.15059">
        <ele>243.184</ele>
        <time>2016-09-06T08:19:53.000Z</time>
      </trkpt>
      <trkpt lat="47.28662" lon="6.15053">
        <ele>242.613</ele>
        <time>2016-09-06T08:19:54.000Z</time>
      </trkpt>
      <trkpt lat="47.2866" lon="6.15047">
        <ele>241.741</ele>
        <time>2016-09-06T08:19:55.000Z</time>
      </trkpt>
      <trkpt lat="47.28658" lon="6.15041">
        <ele>240.487</ele>
        <time>2016-09-06T08:19:56.000Z</time>
      </trkpt>
      <trkpt lat="47.28656" lon="6.15035">
        <ele>240.597</ele>
        <time>2016-09-06T08:19:57.000Z</time>
      </trkpt>
      <trkpt lat="47.28653" lon="6.15027">
        <ele>239.593</ele>
        <time>2016-09-06T08:19:58.000Z</time>
      </trkpt>
      <trkpt lat="47.28651" lon="6.15021">
        <ele>238.487</ele>
        <time>2016-09-06T08:19:59.000Z</time>
      </trkpt>
      <trkpt lat="47.28649" lon="6.15016">
        <ele>238.666</ele>
        <time>2016-09-06T08:20:00.000Z</time>
      </trkpt>
      <trkpt lat="47.28646" lon="6.15009">
        <ele>238.767</ele>
        <time>2016-09-06T08:20:01.000Z</time>
      </trkpt>
      <trkpt lat="47.28644" lon="6.15003">
        <ele>238.549</ele>
        <time>2016-09-06T08:20:02.000Z</time>
      </trkpt>
      <trkpt lat="47.28642" lon="6.14997">
        <ele>237.762</ele>
        <time>2016-09-06T08:20:03.000Z</time>
      </trkpt>
      <trkpt lat="47.28639" lon="6.14991">
        <ele>237.931</ele>
        <time>2016-09-06T08:20:04.000Z</time>
      </trkpt>
      <trkpt lat="47.28637" lon="6.14985">
        <ele>237.161</ele>
        <time>2016-09-06T08:20:05.000Z</time>
      </trkpt>
      <trkpt lat="47.28635" lon="6.14979">
        <ele>237.161</ele>
        <time>2016-09-06T08:20:06.000Z</time>
      </trkpt>
      <trkpt lat="47.28633" lon="6.14975">
        <ele>239.004</ele>
        <time>2016-09-06T08:20:07.000Z</time>
      </trkpt>
      <trkpt lat="47.2863" lon="6.14969">
        <ele>239.248</ele>
        <time>2016-09-06T08:20:08.000Z</time>
      </trkpt>
      <trkpt lat="47.28628" lon="6.14963">
        <ele>239.918</ele>
        <time>2016-09-06T08:20:09.000Z</time>
      </trkpt>
      <trkpt lat="47.28626" lon="6.14957">
        <ele>240.3</ele>
        <time>2016-09-06T08:20:10.000Z</time>
      </trkpt>
      <trkpt lat="47.28624" lon="6.14951">
        <ele>241.043</ele>
        <time>2016-09-06T08:20:11.000Z</time>
      </trkpt>
      <trkpt lat="47.28622" lon="6.14946">
        <ele>241.265</ele>
        <time>2016-09-06T08:20:12.000Z</time>
      </trkpt>
      <trkpt lat="47.28619" lon="6.1494">
        <ele>239.657</ele>
        <time>2016-09-06T08:20:13.000Z</time>
      </trkpt>
      <trkpt lat="47.28616" lon="6.14936">
        <ele>241.399</ele>
        <time>2016-09-06T08:20:14.000Z</time>
      </trkpt>
      <trkpt lat="47.28613" lon="6.14931">
        <ele>241.076</ele>
        <time>2016-09-06T08:20:15.000Z</time>
      </trkpt>
      <trkpt lat="47.2861" lon="6.14925">
        <ele>240.668</ele>
        <time>2016-09-06T08:20:16.000Z</time>
      </trkpt>
      <trkpt lat="47.28608" lon="6.14922">
        <ele>241.043</ele>
        <time>2016-09-06T08:20:17.000Z</time>
      </trkpt>
      <trkpt lat="47.28606" lon="6.14915">
        <ele>242.255</ele>
        <time>2016-09-06T08:20:18.000Z</time>
      </trkpt>
      <trkpt lat="47.28604" lon="6.14909">
        <ele>243.361</ele>
        <time>2016-09-06T08:20:19.000Z</time>
      </trkpt>
      <trkpt lat="47.28603" lon="6.14903">
        <ele>243.939</ele>
        <time>2016-09-06T08:20:20.000Z</time>
      </trkpt>
      <trkpt lat="47.28601" lon="6.14896">
        <ele>242.603</ele>
        <time>2016-09-06T08:20:21.000Z</time>
      </trkpt>
      <trkpt lat="47.28599" lon="6.1489">
        <ele>244.34</ele>
        <time>2016-09-06T08:20:22.000Z</time>
      </trkpt>
      <trkpt lat="47.28596" lon="6.14885">
        <ele>245.078</ele>
        <time>2016-09-06T08:20:23.000Z</time>
      </trkpt>
      <trkpt lat="47.28592" lon="6.14878">
        <ele>244.442</ele>
        <time>2016-09-06T08:20:24.000Z</time>
      </trkpt>
      <trkpt lat="47.2859" lon="6.14873">
        <ele>245.207</ele>
        <time>2016-09-06T08:20:25.000Z</time>
      </trkpt>
      <trkpt lat="47.28587" lon="6.14868">
        <ele>245.102</ele>
        <time>2016-09-06T08:20:26.000Z</time>
      </trkpt>
      <trkpt lat="47.28586" lon="6.14863">
        <ele>244.95</ele>
        <time>2016-09-06T08:20:27.000Z</time>
      </trkpt>
      <trkpt lat="47.28583" lon="6.14857">
        <ele>244.852</ele>
        <time>2016-09-06T08:20:28.000Z</time>
      </trkpt>
      <trkpt lat="47.2858" lon="6.14849">
        <ele>243.151</ele>
        <time>2016-09-06T08:20:29.000Z</time>
      </trkpt>
      <trkpt lat="47.28578" lon="6.14841">
        <ele>244.061</ele>
        <time>2016-09-06T08:20:30.000Z</time>
      </trkpt>
      <trkpt lat="47.28576" lon="6.14835">
        <ele>244.103</ele>
        <time>2016-09-06T08:20:31.000Z</time>
      </trkpt>
      <trkpt lat="47.28574" lon="6.14829">
        <ele>245.137</ele>
        <time>2016-09-06T08:20:32.000Z</time>
      </trkpt>
      <trkpt lat="47.28572" lon="6.14822">
        <ele>243.413</ele>
        <time>2016-09-06T08:20:33.000Z</time>
      </trkpt>
      <trkpt lat="47.2857" lon="6.14815">
        <ele>243.644</ele>
        <time>2016-09-06T08:20:34.000Z</time>
      </trkpt>
      <trkpt lat="47.28567" lon="6.14809">
        <ele>243.664</ele>
        <time>2016-09-06T08:20:35.000Z</time>
      </trkpt>
      <trkpt lat="47.28565" lon="6.14804">
        <ele>243.538</ele>
        <time>2016-09-06T08:20:36.000Z</time>
      </trkpt>
      <trkpt lat="47.28562" lon="6.14798">
        <ele>243.177</ele>
        <time>2016-09-06T08:20:37.000Z</time>
      </trkpt>
      <trkpt lat="47.2856" lon="6.14794">
        <ele>244.184</ele>
        <time>2016-09-06T08:20:38.000Z</time>
      </trkpt>
      <trkpt lat="47.28558" lon="6.14787">
        <ele>244.499</ele>
        <time>2016-09-06T08:20:39.000Z</time>
      </trkpt>
      <trkpt lat="47.28557" lon="6.14782">
        <ele>246.19</ele>
        <time>2016-09-06T08:20:40.000Z</time>
      </trkpt>
      <trkpt lat="47.28553" lon="6.14774">
        <ele>244.491</ele>
        <time>2016-09-06T08:20:41.000Z</time>
      </trkpt>
      <trkpt lat="47.28551" lon="6.14767">
        <ele>244.374</ele>
        <time>2016-09-06T08:20:42.000Z</time>
      </trkpt>
      <trkpt lat="47.28549" lon="6.1476">
        <ele>243.453</ele>
        <time>2016-09-06T08:20:43.000Z</time>
      </trkpt>
      <trkpt lat="47.28547" lon="6.14754">
        <ele>242.896</ele>
        <time>2016-09-06T08:20:44.000Z</time>
      </trkpt>
      <trkpt lat="47.28545" lon="6.14747">
        <ele>242.08</ele>
        <time>2016-09-06T08:20:45.000Z</time>
      </trkpt>
      <trkpt lat="47.28543" lon="6.14741">
        <ele>242.051</ele>
        <time>2016-09-06T08:20:46.000Z</time>
      </trkpt>
      <trkpt lat="47.28541" lon="6.14736">
        <ele>241.504</ele>
        <time>2016-09-06T08:20:47.000Z</time>
      </trkpt>
      <trkpt lat="47.28538" lon="6.1473">
        <ele>241.968</ele>
        <time>2016-09-06T08:20:48.000Z</time>
      </trkpt>
      <trkpt lat="47.28537" lon="6.14725">
        <ele>242.334</ele>
        <time>2016-09-06T08:20:49.000Z</time>
      </trkpt>
      <trkpt lat="47.28534" lon="6.14719">
        <ele>242.692</ele>
        <time>2016-09-06T08:20:50.000Z</time>
      </trkpt>
      <trkpt lat="47.28533" lon="6.14713">
        <ele>243.239</ele>
        <time>2016-09-06T08:20:51.000Z</time>
      </trkpt>
      <trkpt lat="47.28532" lon="6.14708">
        <ele>243.862</ele>
        <time>2016-09-06T08:20:52.000Z</time>
      </trkpt>
      <trkpt lat="47.2853" lon="6.14702">
        <ele>243.677</ele>
        <time>2016-09-06T08:20:53.000Z</time>
      </trkpt>
      <trkpt lat="47.28528" lon="6.14695">
        <ele>244.077</ele>
        <time>2016-09-06T08:20:54.000Z</time>
      </trkpt>
      <trkpt lat="47.28527" lon="6.14689">
        <ele>244.215</ele>
        <time>2016-09-06T08:20:55.000Z</time>
      </trkpt>
      <trkpt lat="47.28526" lon="6.14683">
        <ele>244.434</ele>
        <time>2016-09-06T08:20:56.000Z</time>
      </trkpt>
      <trkpt lat="47.28523" lon="6.14676">
        <ele>243.256</ele>
        <time>2016-09-06T08:20:57.000Z</time>
      </trkpt>
      <trkpt lat="47.28522" lon="6.14669">
        <ele>243.016</ele>
        <time>2016-09-06T08:20:58.000Z</time>
      </trkpt>
      <trkpt lat="47.28523" lon="6.14663">
        <ele>242.769</ele>
        <time>2016-09-06T08:20:59.000Z</time>
      </trkpt>
      <trkpt lat="47.28522" lon="6.14656">
        <ele>243.496</ele>
        <time>2016-09-06T08:21:00.000Z</time>
      </trkpt>
      <trkpt lat="47.28521" lon="6.14649">
        <ele>241.17</ele>
        <time>2016-09-06T08:21:01.000Z</time>
      </trkpt>
      <trkpt lat="47.2852" lon="6.14643">
        <ele>237.843</ele>
        <time>2016-09-06T08:21:02.000Z</time>
      </trkpt>
      <trkpt lat="47.28519" lon="6.14637">
        <ele>237.745</ele>
        <time>2016-09-06T08:21:03.000Z</time>
      </trkpt>
      <trkpt lat="47.28518" lon="6.14632">
        <ele>238.365</ele>
        <time>2016-09-06T08:21:04.000Z</time>
      </trkpt>
      <trkpt lat="47.28517" lon="6.14627">
        <ele>239.636</ele>
        <time>2016-09-06T08:21:05.000Z</time>
      </trkpt>
      <trkpt lat="47.28515" lon="6.14621">
        <ele>241.158</ele>
        <time>2016-09-06T08:21:06.000Z</time>
      </trkpt>
      <trkpt lat="47.28513" lon="6.14615">
        <ele>241.958</ele>
        <time>2016-09-06T08:21:07.000Z</time>
      </trkpt>
      <trkpt lat="47.28512" lon="6.14606">
        <ele>241.369</ele>
        <time>2016-09-06T08:21:08.000Z</time>
      </trkpt>
      <trkpt lat="47.2851" lon="6.14598">
        <ele>240.327</ele>
        <time>2016-09-06T08:21:09.000Z</time>
      </trkpt>
      <trkpt lat="47.2851" lon="6.1459">
        <ele>239.898</ele>
        <time>2016-09-06T08:21:10.000Z</time>
      </trkpt>
      <trkpt lat="47.28508" lon="6.14582">
        <ele>238.934</ele>
        <time>2016-09-06T08:21:11.000Z</time>
      </trkpt>
      <trkpt lat="47.28506" lon="6.14575">
        <ele>239.246</ele>
        <time>2016-09-06T08:21:12.000Z</time>
      </trkpt>
      <trkpt lat="47.28505" lon="6.14566">
        <ele>237.804</ele>
        <time>2016-09-06T08:21:13.000Z</time>
      </trkpt>
      <trkpt lat="47.28503" lon="6.1456">
        <ele>238.499</ele>
        <time>2016-09-06T08:21:14.000Z</time>
      </trkpt>
      <trkpt lat="47.285" lon="6.14552">
        <ele>239.089</ele>
        <time>2016-09-06T08:21:15.000Z</time>
      </trkpt>
      <trkpt lat="47.28497" lon="6.14545">
        <ele>239.59</ele>
        <time>2016-09-06T08:21:16.000Z</time>
      </trkpt>
      <trkpt lat="47.28496" lon="6.14538">
        <ele>238.762</ele>
        <time>2016-09-06T08:21:17.000Z</time>
      </trkpt>
      <trkpt lat="47.28495" lon="6.1453">
        <ele>238.774</ele>
        <time>2016-09-06T08:21:18.000Z</time>
      </trkpt>
      <trkpt lat="47.28494" lon="6.14522">
        <ele>240.238</ele>
        <time>2016-09-06T08:21:19.000Z</time>
      </trkpt>
      <trkpt lat="47.28493" lon="6.14515">
        <ele>239.764</ele>
        <time>2016-09-06T08:21:20.000Z</time>
      </trkpt>
      <trkpt lat="47.28492" lon="6.14508">
        <ele>240.136</ele>
        <time>2016-09-06T08:21:21.000Z</time>
      </trkpt>
      <trkpt lat="47.28491" lon="6.145">
        <ele>240.192</ele>
        <time>2016-09-06T08:21:22.000Z</time>
      </trkpt>
      <trkpt lat="47.2849" lon="6.14492">
        <ele>240.101</ele>
        <time>2016-09-06T08:21:23.000Z</time>
      </trkpt>
      <trkpt lat="47.28489" lon="6.14485">
        <ele>240.448</ele>
        <time>2016-09-06T08:21:24.000Z</time>
      </trkpt>
      <trkpt lat="47.28489" lon="6.14479">
        <ele>241.348</ele>
        <time>2016-09-06T08:21:25.000Z</time>
      </trkpt>
      <trkpt lat="47.28488" lon="6.14472">
        <ele>241.997</ele>
        <time>2016-09-06T08:21:26.000Z</time>
      </trkpt>
      <trkpt lat="47.28487" lon="6.14466">
        <ele>242.391</ele>
        <time>2016-09-06T08:21:27.000Z</time>
      </trkpt>
      <trkpt lat="47.28485" lon="6.14459">
        <ele>242.266</ele>
        <time>2016-09-06T08:21:28.000Z</time>
      </trkpt>
      <trkpt lat="47.28485" lon="6.14453">
        <ele>243.569</ele>
        <time>2016-09-06T08:21:29.000Z</time>
      </trkpt>
      <trkpt lat="47.28484" lon="6.14447">
        <ele>244.081</ele>
        <time>2016-09-06T08:21:30.000Z</time>
      </trkpt>
      <trkpt lat="47.28484" lon="6.14443">
        <ele>243.004</ele>
        <time>2016-09-06T08:21:31.000Z</time>
      </trkpt>
      <trkpt lat="47.28483" lon="6.14437">
        <ele>244.19</ele>
        <time>2016-09-06T08:21:32.000Z</time>
      </trkpt>
      <trkpt lat="47.28483" lon="6.14432">
        <ele>245.11</ele>
        <time>2016-09-06T08:21:33.000Z</time>
      </trkpt>
      <trkpt lat="47.28482" lon="6.14425">
        <ele>244.921</ele>
        <time>2016-09-06T08:21:34.000Z</time>
      </trkpt>
      <trkpt lat="47.28482" lon="6.14419">
        <ele>244.602</ele>
        <time>2016-09-06T08:21:35.000Z</time>
      </trkpt>
      <trkpt lat="47.28483" lon="6.14413">
        <ele>245.442</ele>
        <time>2016-09-06T08:21:36.000Z</time>
      </trkpt>
      <trkpt lat="47.28482" lon="6.14406">
        <ele>245.39</ele>
        <time>2016-09-06T08:21:37.000Z</time>
      </trkpt>
      <trkpt lat="47.28482" lon="6.144">
        <ele>246.141</ele>
        <time>2016-09-06T08:21:38.000Z</time>
      </trkpt>
      <trkpt lat="47.28481" lon="6.14392">
        <ele>245.458</ele>
        <time>2016-09-06T08:21:39.000Z</time>
      </trkpt>
      <trkpt lat="47.28481" lon="6.14385">
        <ele>245.297</ele>
        <time>2016-09-06T08:21:40.000Z</time>
      </trkpt>
      <trkpt lat="47.28481" lon="6.14378">
        <ele>246.04</ele>
        <time>2016-09-06T08:21:41.000Z</time>
      </trkpt>
      <trkpt lat="47.28481" lon="6.14371">
        <ele>246.063</ele>
        <time>2016-09-06T08:21:42.000Z</time>
      </trkpt>
      <trkpt lat="47.2848" lon="6.14364">
        <ele>245.475</ele>
        <time>2016-09-06T08:21:43.000Z</time>
      </trkpt>
      <trkpt lat="47.28479" lon="6.14357">
        <ele>244.928</ele>
        <time>2016-09-06T08:21:44.000Z</time>
      </trkpt>
      <trkpt lat="47.28479" lon="6.1435">
        <ele>245.071</ele>
        <time>2016-09-06T08:21:45.000Z</time>
      </trkpt>
      <trkpt lat="47.28478" lon="6.14343">
        <ele>244.493</ele>
        <time>2016-09-06T08:21:46.000Z</time>
      </trkpt>
      <trkpt lat="47.28478" lon="6.14336">
        <ele>245.037</ele>
        <time>2016-09-06T08:21:47.000Z</time>
      </trkpt>
      <trkpt lat="47.28478" lon="6.14329">
        <ele>243.327</ele>
        <time>2016-09-06T08:21:48.000Z</time>
      </trkpt>
      <trkpt lat="47.28478" lon="6.14321">
        <ele>243.295</ele>
        <time>2016-09-06T08:21:49.000Z</time>
      </trkpt>
      <trkpt lat="47.28478" lon="6.14314">
        <ele>243.463</ele>
        <time>2016-09-06T08:21:50.000Z</time>
      </trkpt>
      <trkpt lat="47.28476" lon="6.14306">
        <ele>243.134</ele>
        <time>2016-09-06T08:21:51.000Z</time>
      </trkpt>
      <trkpt lat="47.28477" lon="6.14299">
        <ele>242.96</ele>
        <time>2016-09-06T08:21:52.000Z</time>
      </trkpt>
      <trkpt lat="47.28476" lon="6.1429">
        <ele>242.354</ele>
        <time>2016-09-06T08:21:53.000Z</time>
      </trkpt>
      <trkpt lat="47.28475" lon="6.14283">
        <ele>242.097</ele>
        <time>2016-09-06T08:21:54.000Z</time>
      </trkpt>
      <trkpt lat="47.28475" lon="6.14276">
        <ele>243.383</ele>
        <time>2016-09-06T08:21:55.000Z</time>
      </trkpt>
      <trkpt lat="47.28476" lon="6.14269">
        <ele>245.946</ele>
        <time>2016-09-06T08:21:56.000Z</time>
      </trkpt>
      <trkpt lat="47.28475" lon="6.14262">
        <ele>246.12</ele>
        <time>2016-09-06T08:21:57.000Z</time>
      </trkpt>
      <trkpt lat="47.28475" lon="6.14255">
        <ele>245.726</ele>
        <time>2016-09-06T08:21:58.000Z</time>
      </trkpt>
      <trkpt lat="47.28476" lon="6.14249">
        <ele>247.241</ele>
        <time>2016-09-06T08:21:59.000Z</time>
      </trkpt>
      <trkpt lat="47.28474" lon="6.14243">
        <ele>247.23</ele>
        <time>2016-09-06T08:22:00.000Z</time>
      </trkpt>
      <trkpt lat="47.28473" lon="6.14236">
        <ele>246.272</ele>
        <time>2016-09-06T08:22:01.000Z</time>
      </trkpt>
      <trkpt lat="47.28473" lon="6.1423">
        <ele>247.397</ele>
        <time>2016-09-06T08:22:02.000Z</time>
      </trkpt>
      <trkpt lat="47.28472" lon="6.14223">
        <ele>247.304</ele>
        <time>2016-09-06T08:22:03.000Z</time>
      </trkpt>
      <trkpt lat="47.28473" lon="6.14217">
        <ele>248.368</ele>
        <time>2016-09-06T08:22:04.000Z</time>
      </trkpt>
      <trkpt lat="47.28472" lon="6.1421">
        <ele>249.397</ele>
        <time>2016-09-06T08:22:05.000Z</time>
      </trkpt>
      <trkpt lat="47.28471" lon="6.14203">
        <ele>249.036</ele>
        <time>2016-09-06T08:22:06.000Z</time>
      </trkpt>
      <trkpt lat="47.2847" lon="6.14197">
        <ele>248.631</ele>
        <time>2016-09-06T08:22:07.000Z</time>
      </trkpt>
      <trkpt lat="47.28469" lon="6.14189">
        <ele>246.988</ele>
        <time>2016-09-06T08:22:08.000Z</time>
      </trkpt>
      <trkpt lat="47.28469" lon="6.14182">
        <ele>247.374</ele>
        <time>2016-09-06T08:22:09.000Z</time>
      </trkpt>
      <trkpt lat="47.28468" lon="6.14175">
        <ele>247.362</ele>
        <time>2016-09-06T08:22:10.000Z</time>
      </trkpt>
      <trkpt lat="47.28467" lon="6.14168">
        <ele>247.819</ele>
        <time>2016-09-06T08:22:11.000Z</time>
      </trkpt>
      <trkpt lat="47.28465" lon="6.1416">
        <ele>247.216</ele>
        <time>2016-09-06T08:22:12.000Z</time>
      </trkpt>
      <trkpt lat="47.28464" lon="6.14152">
        <ele>245.64</ele>
        <time>2016-09-06T08:22:13.000Z</time>
      </trkpt>
      <trkpt lat="47.28462" lon="6.14144">
        <ele>245.261</ele>
        <time>2016-09-06T08:22:14.000Z</time>
      </trkpt>
      <trkpt lat="47.28462" lon="6.14138">
        <ele>246.006</ele>
        <time>2016-09-06T08:22:15.000Z</time>
      </trkpt>
      <trkpt lat="47.28461" lon="6.14131">
        <ele>245.818</ele>
        <time>2016-09-06T08:22:16.000Z</time>
      </trkpt>
      <trkpt lat="47.28459" lon="6.14124">
        <ele>246.004</ele>
        <time>2016-09-06T08:22:17.000Z</time>
      </trkpt>
      <trkpt lat="47.28459" lon="6.14117">
        <ele>245.438</ele>
        <time>2016-09-06T08:22:18.000Z</time>
      </trkpt>
      <trkpt lat="47.28458" lon="6.1411">
        <ele>244.836</ele>
        <time>2016-09-06T08:22:19.000Z</time>
      </trkpt>
      <trkpt lat="47.28458" lon="6.14104">
        <ele>245.437</ele>
        <time>2016-09-06T08:22:20.000Z</time>
      </trkpt>
      <trkpt lat="47.28457" lon="6.14097">
        <ele>245.526</ele>
        <time>2016-09-06T08:22:21.000Z</time>
      </trkpt>
      <trkpt lat="47.28457" lon="6.1409">
        <ele>245.424</ele>
        <time>2016-09-06T08:22:22.000Z</time>
      </trkpt>
      <trkpt lat="47.28457" lon="6.14082">
        <ele>245.969</ele>
        <time>2016-09-06T08:22:23.000Z</time>
      </trkpt>
      <trkpt lat="47.28457" lon="6.14074">
        <ele>245.406</ele>
        <time>2016-09-06T08:22:24.000Z</time>
      </trkpt>
      <trkpt lat="47.28457" lon="6.14066">
        <ele>244.501</ele>
        <time>2016-09-06T08:22:25.000Z</time>
      </trkpt>
      <trkpt lat="47.28457" lon="6.14059">
        <ele>244.873</ele>
        <time>2016-09-06T08:22:26.000Z</time>
      </trkpt>
      <trkpt lat="47.28456" lon="6.14052">
        <ele>244.272</ele>
        <time>2016-09-06T08:22:27.000Z</time>
      </trkpt>
      <trkpt lat="47.28455" lon="6.14045">
        <ele>244.351</ele>
        <time>2016-09-06T08:22:28.000Z</time>
      </trkpt>
      <trkpt lat="47.28455" lon="6.14036">
        <ele>243.596</ele>
        <time>2016-09-06T08:22:29.000Z</time>
      </trkpt>
      <trkpt lat="47.28455" lon="6.1403">
        <ele>244.073</ele>
        <time>2016-09-06T08:22:30.000Z</time>
      </trkpt>
      <trkpt lat="47.28454" lon="6.14023">
        <ele>242.962</ele>
        <time>2016-09-06T08:22:31.000Z</time>
      </trkpt>
      <trkpt lat="47.28454" lon="6.14017">
        <ele>243.079</ele>
        <time>2016-09-06T08:22:32.000Z</time>
      </trkpt>
      <trkpt lat="47.28453" lon="6.14009">
        <ele>242.843</ele>
        <time>2016-09-06T08:22:33.000Z</time>
      </trkpt>
      <trkpt lat="47.28452" lon="6.14003">
        <ele>243.561</ele>
        <time>2016-09-06T08:22:34.000Z</time>
      </trkpt>
      <trkpt lat="47.2845" lon="6.13996">
        <ele>242.738</ele>
        <time>2016-09-06T08:22:35.000Z</time>
      </trkpt>
      <trkpt lat="47.2845" lon="6.1399">
        <ele>242.54</ele>
        <time>2016-09-06T08:22:36.000Z</time>
      </trkpt>
      <trkpt lat="47.28449" lon="6.13981">
        <ele>242.123</ele>
        <time>2016-09-06T08:22:37.000Z</time>
      </trkpt>
      <trkpt lat="47.2845" lon="6.13976">
        <ele>241.235</ele>
        <time>2016-09-06T08:22:38.000Z</time>
      </trkpt>
      <trkpt lat="47.28449" lon="6.13971">
        <ele>241.351</ele>
        <time>2016-09-06T08:22:39.000Z</time>
      </trkpt>
      <trkpt lat="47.28448" lon="6.13964">
        <ele>241.937</ele>
        <time>2016-09-06T08:22:40.000Z</time>
      </trkpt>
      <trkpt lat="47.28447" lon="6.13958">
        <ele>241.594</ele>
        <time>2016-09-06T08:22:41.000Z</time>
      </trkpt>
      <trkpt lat="47.28447" lon="6.13952">
        <ele>242.435</ele>
        <time>2016-09-06T08:22:42.000Z</time>
      </trkpt>
      <trkpt lat="47.28445" lon="6.13944">
        <ele>241.764</ele>
        <time>2016-09-06T08:22:43.000Z</time>
      </trkpt>
      <trkpt lat="47.28443" lon="6.13938">
        <ele>242.735</ele>
        <time>2016-09-06T08:22:44.000Z</time>
      </trkpt>
      <trkpt lat="47.28442" lon="6.13932">
        <ele>242.791</ele>
        <time>2016-09-06T08:22:45.000Z</time>
      </trkpt>
      <trkpt lat="47.2844" lon="6.13926">
        <ele>243.205</ele>
        <time>2016-09-06T08:22:46.000Z</time>
      </trkpt>
      <trkpt lat="47.28439" lon="6.13921">
        <ele>243.259</ele>
        <time>2016-09-06T08:22:47.000Z</time>
      </trkpt>
      <trkpt lat="47.28436" lon="6.13914">
        <ele>242.07</ele>
        <time>2016-09-06T08:22:48.000Z</time>
      </trkpt>
      <trkpt lat="47.28433" lon="6.13907">
        <ele>242.207</ele>
        <time>2016-09-06T08:22:49.000Z</time>
      </trkpt>
      <trkpt lat="47.28431" lon="6.13902">
        <ele>242.902</ele>
        <time>2016-09-06T08:22:50.000Z</time>
      </trkpt>
      <trkpt lat="47.28428" lon="6.13895">
        <ele>243.031</ele>
        <time>2016-09-06T08:22:51.000Z</time>
      </trkpt>
      <trkpt lat="47.28422" lon="6.13888">
        <ele>241.548</ele>
        <time>2016-09-06T08:22:52.000Z</time>
      </trkpt>
      <trkpt lat="47.28419" lon="6.13882">
        <ele>241.251</ele>
        <time>2016-09-06T08:22:53.000Z</time>
      </trkpt>
      <trkpt lat="47.28415" lon="6.13876">
        <ele>240.818</ele>
        <time>2016-09-06T08:22:54.000Z</time>
      </trkpt>
      <trkpt lat="47.2841" lon="6.13867">
        <ele>239.462</ele>
        <time>2016-09-06T08:22:55.000Z</time>
      </trkpt>
      <trkpt lat="47.28407" lon="6.13862">
        <ele>240.312</ele>
        <time>2016-09-06T08:22:56.000Z</time>
      </trkpt>
      <trkpt lat="47.28402" lon="6.13857">
        <ele>239.577</ele>
        <time>2016-09-06T08:22:57.000Z</time>
      </trkpt>
      <trkpt lat="47.28399" lon="6.13851">
        <ele>239.902</ele>
        <time>2016-09-06T08:22:58.000Z</time>
      </trkpt>
      <trkpt lat="47.28395" lon="6.13846">
        <ele>240.074</ele>
        <time>2016-09-06T08:22:59.000Z</time>
      </trkpt>
      <trkpt lat="47.28391" lon="6.1384">
        <ele>239.064</ele>
        <time>2016-09-06T08:23:00.000Z</time>
      </trkpt>
      <trkpt lat="47.2839" lon="6.13836">
        <ele>237.516</ele>
        <time>2016-09-06T08:23:01.000Z</time>
      </trkpt>
      <trkpt lat="47.28387" lon="6.13831">
        <ele>237.98</ele>
        <time>2016-09-06T08:23:02.004Z</time>
      </trkpt>
      <trkpt lat="47.28383" lon="6.13825">
        <ele>237.311</ele>
        <time>2016-09-06T08:23:03.000Z</time>
      </trkpt>
      <trkpt lat="47.28379" lon="6.1382">
        <ele>236.703</ele>
        <time>2016-09-06T08:23:04.000Z</time>
      </trkpt>
      <trkpt lat="47.28376" lon="6.13816">
        <ele>237.525</ele>
        <time>2016-09-06T08:23:05.000Z</time>
      </trkpt>
      <trkpt lat="47.28373" lon="6.13811">
        <ele>238.815</ele>
        <time>2016-09-06T08:23:06.000Z</time>
      </trkpt>
      <trkpt lat="47.2837" lon="6.13806">
        <ele>238.967</ele>
        <time>2016-09-06T08:23:07.000Z</time>
      </trkpt>
      <trkpt lat="47.28367" lon="6.13803">
        <ele>240.3</ele>
        <time>2016-09-06T08:23:08.000Z</time>
      </trkpt>
      <trkpt lat="47.28365" lon="6.13799">
        <ele>241.054</ele>
        <time>2016-09-06T08:23:09.000Z</time>
      </trkpt>
      <trkpt lat="47.28362" lon="6.13795">
        <ele>240.749</ele>
        <time>2016-09-06T08:23:10.000Z</time>
      </trkpt>
      <trkpt lat="47.28358" lon="6.1379">
        <ele>240.697</ele>
        <time>2016-09-06T08:23:11.000Z</time>
      </trkpt>
      <trkpt lat="47.28354" lon="6.13785">
        <ele>240.942</ele>
        <time>2016-09-06T08:23:12.000Z</time>
      </trkpt>
      <trkpt lat="47.28351" lon="6.13781">
        <ele>243.166</ele>
        <time>2016-09-06T08:23:13.000Z</time>
      </trkpt>
      <trkpt lat="47.28349" lon="6.13778">
        <ele>243.514</ele>
        <time>2016-09-06T08:23:14.000Z</time>
      </trkpt>
      <trkpt lat="47.28347" lon="6.13775">
        <ele>243.205</ele>
        <time>2016-09-06T08:23:15.000Z</time>
      </trkpt>
      <trkpt lat="47.28343" lon="6.13769">
        <ele>241.987</ele>
        <time>2016-09-06T08:23:16.000Z</time>
      </trkpt>
      <trkpt lat="47.2834" lon="6.13763">
        <ele>241.777</ele>
        <time>2016-09-06T08:23:17.000Z</time>
      </trkpt>
      <trkpt lat="47.28337" lon="6.1376">
        <ele>243.368</ele>
        <time>2016-09-06T08:23:18.000Z</time>
      </trkpt>
      <trkpt lat="47.28334" lon="6.13755">
        <ele>242.791</ele>
        <time>2016-09-06T08:23:19.000Z</time>
      </trkpt>
      <trkpt lat="47.28331" lon="6.13751">
        <ele>243.122</ele>
        <time>2016-09-06T08:23:20.000Z</time>
      </trkpt>
      <trkpt lat="47.28327" lon="6.13745">
        <ele>242.951</ele>
        <time>2016-09-06T08:23:21.000Z</time>
      </trkpt>
      <trkpt lat="47.28324" lon="6.1374">
        <ele>244.81</ele>
        <time>2016-09-06T08:23:22.000Z</time>
      </trkpt>
      <trkpt lat="47.28321" lon="6.13735">
        <ele>245.212</ele>
        <time>2016-09-06T08:23:23.000Z</time>
      </trkpt>
      <trkpt lat="47.28317" lon="6.1373">
        <ele>244.789</ele>
        <time>2016-09-06T08:23:24.000Z</time>
      </trkpt>
      <trkpt lat="47.28314" lon="6.13726">
        <ele>244.158</ele>
        <time>2016-09-06T08:23:25.000Z</time>
      </trkpt>
      <trkpt lat="47.28311" lon="6.13722">
        <ele>243.639</ele>
        <time>2016-09-06T08:23:26.000Z</time>
      </trkpt>
      <trkpt lat="47.28309" lon="6.13718">
        <ele>243.238</ele>
        <time>2016-09-06T08:23:27.000Z</time>
      </trkpt>
      <trkpt lat="47.28305" lon="6.13713">
        <ele>243.931</ele>
        <time>2016-09-06T08:23:28.000Z</time>
      </trkpt>
      <trkpt lat="47.28302" lon="6.13709">
        <ele>243.292</ele>
        <time>2016-09-06T08:23:29.000Z</time>
      </trkpt>
      <trkpt lat="47.283" lon="6.13704">
        <ele>244.046</ele>
        <time>2016-09-06T08:23:30.000Z</time>
      </trkpt>
      <trkpt lat="47.28297" lon="6.137">
        <ele>244.623</ele>
        <time>2016-09-06T08:23:31.000Z</time>
      </trkpt>
      <trkpt lat="47.28295" lon="6.13696">
        <ele>244.986</ele>
        <time>2016-09-06T08:23:32.000Z</time>
      </trkpt>
      <trkpt lat="47.28291" lon="6.13692">
        <ele>243.965</ele>
        <time>2016-09-06T08:23:33.000Z</time>
      </trkpt>
      <trkpt lat="47.28287" lon="6.13688">
        <ele>243.244</ele>
        <time>2016-09-06T08:23:34.000Z</time>
      </trkpt>
      <trkpt lat="47.28285" lon="6.13684">
        <ele>242.652</ele>
        <time>2016-09-06T08:23:35.000Z</time>
      </trkpt>
      <trkpt lat="47.28284" lon="6.13682">
        <ele>242.246</ele>
        <time>2016-09-06T08:23:36.000Z</time>
      </trkpt>
      <trkpt lat="47.28281" lon="6.13678">
        <ele>241.509</ele>
        <time>2016-09-06T08:23:37.000Z</time>
      </trkpt>
      <trkpt lat="47.28278" lon="6.13674">
        <ele>241.403</ele>
        <time>2016-09-06T08:23:38.000Z</time>
      </trkpt>
      <trkpt lat="47.28275" lon="6.13671">
        <ele>241.469</ele>
        <time>2016-09-06T08:23:39.000Z</time>
      </trkpt>
      <trkpt lat="47.28272" lon="6.13667">
        <ele>241.25</ele>
        <time>2016-09-06T08:23:40.000Z</time>
      </trkpt>
      <trkpt lat="47.28269" lon="6.13662">
        <ele>240.637</ele>
        <time>2016-09-06T08:23:41.000Z</time>
      </trkpt>
      <trkpt lat="47.28265" lon="6.13657">
        <ele>239.892</ele>
        <time>2016-09-06T08:23:42.000Z</time>
      </trkpt>
      <trkpt lat="47.28262" lon="6.13652">
        <ele>240.46</ele>
        <time>2016-09-06T08:23:43.000Z</time>
      </trkpt>
      <trkpt lat="47.28259" lon="6.13648">
        <ele>240.956</ele>
        <time>2016-09-06T08:23:44.000Z</time>
      </trkpt>
      <trkpt lat="47.28256" lon="6.13644">
        <ele>241.964</ele>
        <time>2016-09-06T08:23:45.000Z</time>
      </trkpt>
      <trkpt lat="47.28253" lon="6.13639">
        <ele>242.997</ele>
        <time>2016-09-06T08:23:46.000Z</time>
      </trkpt>
      <trkpt lat="47.2825" lon="6.13635">
        <ele>243.271</ele>
        <time>2016-09-06T08:23:47.000Z</time>
      </trkpt>
      <trkpt lat="47.28248" lon="6.1363">
        <ele>243.464</ele>
        <time>2016-09-06T08:23:48.000Z</time>
      </trkpt>
      <trkpt lat="47.28244" lon="6.13626">
        <ele>242.887</ele>
        <time>2016-09-06T08:23:49.000Z</time>
      </trkpt>
      <trkpt lat="47.28242" lon="6.13622">
        <ele>244.228</ele>
        <time>2016-09-06T08:23:50.000Z</time>
      </trkpt>
      <trkpt lat="47.28239" lon="6.13618">
        <ele>243.427</ele>
        <time>2016-09-06T08:23:51.000Z</time>
      </trkpt>
      <trkpt lat="47.28236" lon="6.13614">
        <ele>243.647</ele>
        <time>2016-09-06T08:23:52.000Z</time>
      </trkpt>
      <trkpt lat="47.28233" lon="6.1361">
        <ele>244.421</ele>
        <time>2016-09-06T08:23:53.000Z</time>
      </trkpt>
      <trkpt lat="47.2823" lon="6.13606">
        <ele>244.691</ele>
        <time>2016-09-06T08:23:54.000Z</time>
      </trkpt>
      <trkpt lat="47.28228" lon="6.13601">
        <ele>245.168</ele>
        <time>2016-09-06T08:23:55.000Z</time>
      </trkpt>
      <trkpt lat="47.28226" lon="6.13597">
        <ele>245.934</ele>
        <time>2016-09-06T08:23:56.000Z</time>
      </trkpt>
      <trkpt lat="47.28223" lon="6.13592">
        <ele>246.016</ele>
        <time>2016-09-06T08:23:57.000Z</time>
      </trkpt>
      <trkpt lat="47.28221" lon="6.13586">
        <ele>245.336</ele>
        <time>2016-09-06T08:23:58.000Z</time>
      </trkpt>
      <trkpt lat="47.28218" lon="6.13581">
        <ele>245.248</ele>
        <time>2016-09-06T08:23:59.000Z</time>
      </trkpt>
      <trkpt lat="47.28216" lon="6.13576">
        <ele>245.6</ele>
        <time>2016-09-06T08:24:00.000Z</time>
      </trkpt>
      <trkpt lat="47.28213" lon="6.13571">
        <ele>245.972</ele>
        <time>2016-09-06T08:24:01.000Z</time>
      </trkpt>
      <trkpt lat="47.28211" lon="6.13565">
        <ele>247.116</ele>
        <time>2016-09-06T08:24:02.000Z</time>
      </trkpt>
      <trkpt lat="47.28208" lon="6.1356">
        <ele>247.084</ele>
        <time>2016-09-06T08:24:03.000Z</time>
      </trkpt>
      <trkpt lat="47.28206" lon="6.13554">
        <ele>247.278</ele>
        <time>2016-09-06T08:24:04.000Z</time>
      </trkpt>
      <trkpt lat="47.28204" lon="6.13547">
        <ele>247.854</ele>
        <time>2016-09-06T08:24:05.000Z</time>
      </trkpt>
      <trkpt lat="47.28201" lon="6.1354">
        <ele>247.437</ele>
        <time>2016-09-06T08:24:06.000Z</time>
      </trkpt>
      <trkpt lat="47.28199" lon="6.13534">
        <ele>248.113</ele>
        <time>2016-09-06T08:24:07.000Z</time>
      </trkpt>
      <trkpt lat="47.28197" lon="6.13528">
        <ele>248.154</ele>
        <time>2016-09-06T08:24:08.000Z</time>
      </trkpt>
      <trkpt lat="47.28195" lon="6.13522">
        <ele>247.79</ele>
        <time>2016-09-06T08:24:09.000Z</time>
      </trkpt>
      <trkpt lat="47.28194" lon="6.13516">
        <ele>247.213</ele>
        <time>2016-09-06T08:24:10.000Z</time>
      </trkpt>
      <trkpt lat="47.28192" lon="6.13509">
        <ele>247.066</ele>
        <time>2016-09-06T08:24:11.000Z</time>
      </trkpt>
      <trkpt lat="47.2819" lon="6.13503">
        <ele>247.609</ele>
        <time>2016-09-06T08:24:12.000Z</time>
      </trkpt>
      <trkpt lat="47.28189" lon="6.13496">
        <ele>247.823</ele>
        <time>2016-09-06T08:24:13.000Z</time>
      </trkpt>
      <trkpt lat="47.28186" lon="6.13489">
        <ele>248.008</ele>
        <time>2016-09-06T08:24:14.000Z</time>
      </trkpt>
      <trkpt lat="47.28185" lon="6.13483">
        <ele>249.219</ele>
        <time>2016-09-06T08:24:15.000Z</time>
      </trkpt>
      <trkpt lat="47.28184" lon="6.13475">
        <ele>248.98</ele>
        <time>2016-09-06T08:24:16.000Z</time>
      </trkpt>
      <trkpt lat="47.28183" lon="6.13469">
        <ele>249.553</ele>
        <time>2016-09-06T08:24:17.000Z</time>
      </trkpt>
      <trkpt lat="47.28182" lon="6.13463">
        <ele>249.299</ele>
        <time>2016-09-06T08:24:18.000Z</time>
      </trkpt>
      <trkpt lat="47.28181" lon="6.13456">
        <ele>249.414</ele>
        <time>2016-09-06T08:24:19.000Z</time>
      </trkpt>
      <trkpt lat="47.28181" lon="6.13451">
        <ele>247.096</ele>
        <time>2016-09-06T08:24:20.000Z</time>
      </trkpt>
      <trkpt lat="47.28181" lon="6.13447">
        <ele>246.416</ele>
        <time>2016-09-06T08:24:21.000Z</time>
      </trkpt>
      <trkpt lat="47.2818" lon="6.13441">
        <ele>247.59</ele>
        <time>2016-09-06T08:24:22.000Z</time>
      </trkpt>
      <trkpt lat="47.28179" lon="6.13436">
        <ele>247.777</ele>
        <time>2016-09-06T08:24:23.000Z</time>
      </trkpt>
      <trkpt lat="47.28177" lon="6.13428">
        <ele>248.192</ele>
        <time>2016-09-06T08:24:24.000Z</time>
      </trkpt>
      <trkpt lat="47.28175" lon="6.1342">
        <ele>248.072</ele>
        <time>2016-09-06T08:24:25.000Z</time>
      </trkpt>
      <trkpt lat="47.28174" lon="6.13414">
        <ele>248.203</ele>
        <time>2016-09-06T08:24:26.000Z</time>
      </trkpt>
      <trkpt lat="47.28172" lon="6.13405">
        <ele>249.067</ele>
        <time>2016-09-06T08:24:27.000Z</time>
      </trkpt>
      <trkpt lat="47.28171" lon="6.13398">
        <ele>251.327</ele>
        <time>2016-09-06T08:24:28.000Z</time>
      </trkpt>
      <trkpt lat="47.28169" lon="6.1339">
        <ele>249.784</ele>
        <time>2016-09-06T08:24:29.000Z</time>
      </trkpt>
      <trkpt lat="47.28167" lon="6.13381">
        <ele>249.806</ele>
        <time>2016-09-06T08:24:30.000Z</time>
      </trkpt>
      <trkpt lat="47.28165" lon="6.13371">
        <ele>249.636</ele>
        <time>2016-09-06T08:24:31.000Z</time>
      </trkpt>
      <trkpt lat="47.28165" lon="6.13363">
        <ele>247.31</ele>
        <time>2016-09-06T08:24:32.000Z</time>
      </trkpt>
      <trkpt lat="47.28166" lon="6.13357">
        <ele>248.603</ele>
        <time>2016-09-06T08:24:33.000Z</time>
      </trkpt>
      <trkpt lat="47.28165" lon="6.13349">
        <ele>249.279</ele>
        <time>2016-09-06T08:24:34.000Z</time>
      </trkpt>
      <trkpt lat="47.28163" lon="6.13341">
        <ele>249.697</ele>
        <time>2016-09-06T08:24:35.000Z</time>
      </trkpt>
      <trkpt lat="47.28163" lon="6.13333">
        <ele>249.959</ele>
        <time>2016-09-06T08:24:36.000Z</time>
      </trkpt>
      <trkpt lat="47.28161" lon="6.13326">
        <ele>250.013</ele>
        <time>2016-09-06T08:24:37.000Z</time>
      </trkpt>
      <trkpt lat="47.2816" lon="6.13318">
        <ele>248.639</ele>
        <time>2016-09-06T08:24:38.000Z</time>
      </trkpt>
      <trkpt lat="47.28159" lon="6.13312">
        <ele>247.64</ele>
        <time>2016-09-06T08:24:39.000Z</time>
      </trkpt>
      <trkpt lat="47.28158" lon="6.13305">
        <ele>249.207</ele>
        <time>2016-09-06T08:24:40.000Z</time>
      </trkpt>
      <trkpt lat="47.28157" lon="6.13298">
        <ele>249.736</ele>
        <time>2016-09-06T08:24:41.000Z</time>
      </trkpt>
      <trkpt lat="47.28156" lon="6.13291">
        <ele>249.87</ele>
        <time>2016-09-06T08:24:42.000Z</time>
      </trkpt>
      <trkpt lat="47.28155" lon="6.13285">
        <ele>249.435</ele>
        <time>2016-09-06T08:24:43.000Z</time>
      </trkpt>
      <trkpt lat="47.28154" lon="6.13278">
        <ele>249.41</ele>
        <time>2016-09-06T08:24:44.000Z</time>
      </trkpt>
      <trkpt lat="47.28153" lon="6.13272">
        <ele>249.23</ele>
        <time>2016-09-06T08:24:45.000Z</time>
      </trkpt>
      <trkpt lat="47.28151" lon="6.13265">
        <ele>249.166</ele>
        <time>2016-09-06T08:24:46.000Z</time>
      </trkpt>
      <trkpt lat="47.28149" lon="6.13257">
        <ele>248.238</ele>
        <time>2016-09-06T08:24:47.000Z</time>
      </trkpt>
      <trkpt lat="47.28146" lon="6.13252">
        <ele>248.056</ele>
        <time>2016-09-06T08:24:48.000Z</time>
      </trkpt>
      <trkpt lat="47.28146" lon="6.13246">
        <ele>247.393</ele>
        <time>2016-09-06T08:24:49.000Z</time>
      </trkpt>
      <trkpt lat="47.28146" lon="6.1324">
        <ele>246.413</ele>
        <time>2016-09-06T08:24:50.000Z</time>
      </trkpt>
      <trkpt lat="47.28145" lon="6.13234">
        <ele>244.983</ele>
        <time>2016-09-06T08:24:51.000Z</time>
      </trkpt>
      <trkpt lat="47.28146" lon="6.13229">
        <ele>244.003</ele>
        <time>2016-09-06T08:24:52.000Z</time>
      </trkpt>
      <trkpt lat="47.28146" lon="6.13223">
        <ele>246.347</ele>
        <time>2016-09-06T08:24:53.000Z</time>
      </trkpt>
      <trkpt lat="47.28144" lon="6.13217">
        <ele>246.191</ele>
        <time>2016-09-06T08:24:54.000Z</time>
      </trkpt>
      <trkpt lat="47.28143" lon="6.13212">
        <ele>246.635</ele>
        <time>2016-09-06T08:24:55.000Z</time>
      </trkpt>
      <trkpt lat="47.28142" lon="6.13205">
        <ele>247.084</ele>
        <time>2016-09-06T08:24:56.000Z</time>
      </trkpt>
      <trkpt lat="47.28142" lon="6.13198">
        <ele>243.493</ele>
        <time>2016-09-06T08:24:57.000Z</time>
      </trkpt>
      <trkpt lat="47.28141" lon="6.13191">
        <ele>242.229</ele>
        <time>2016-09-06T08:24:58.000Z</time>
      </trkpt>
      <trkpt lat="47.28141" lon="6.13184">
        <ele>244.155</ele>
        <time>2016-09-06T08:24:59.000Z</time>
      </trkpt>
      <trkpt lat="47.28138" lon="6.13178">
        <ele>244.937</ele>
        <time>2016-09-06T08:25:00.000Z</time>
      </trkpt>
      <trkpt lat="47.28137" lon="6.13171">
        <ele>245.12</ele>
        <time>2016-09-06T08:25:01.000Z</time>
      </trkpt>
      <trkpt lat="47.28135" lon="6.13164">
        <ele>244.906</ele>
        <time>2016-09-06T08:25:02.000Z</time>
      </trkpt>
      <trkpt lat="47.28133" lon="6.13157">
        <ele>244.903</ele>
        <time>2016-09-06T08:25:03.000Z</time>
      </trkpt>
      <trkpt lat="47.28132" lon="6.13148">
        <ele>243.986</ele>
        <time>2016-09-06T08:25:04.000Z</time>
      </trkpt>
      <trkpt lat="47.28131" lon="6.13141">
        <ele>245.589</ele>
        <time>2016-09-06T08:25:05.000Z</time>
      </trkpt>
      <trkpt lat="47.28129" lon="6.13135">
        <ele>246.972</ele>
        <time>2016-09-06T08:25:06.000Z</time>
      </trkpt>
      <trkpt lat="47.28128" lon="6.13127">
        <ele>246.965</ele>
        <time>2016-09-06T08:25:07.000Z</time>
      </trkpt>
      <trkpt lat="47.28126" lon="6.1312">
        <ele>248.35</ele>
        <time>2016-09-06T08:25:08.000Z</time>
      </trkpt>
      <trkpt lat="47.28125" lon="6.13113">
        <ele>247.69</ele>
        <time>2016-09-06T08:25:09.000Z</time>
      </trkpt>
      <trkpt lat="47.28123" lon="6.13107">
        <ele>248.58</ele>
        <time>2016-09-06T08:25:10.000Z</time>
      </trkpt>
      <trkpt lat="47.28122" lon="6.13101">
        <ele>250.416</ele>
        <time>2016-09-06T08:25:11.000Z</time>
      </trkpt>
      <trkpt lat="47.28121" lon="6.13094">
        <ele>249.235</ele>
        <time>2016-09-06T08:25:12.000Z</time>
      </trkpt>
      <trkpt lat="47.2812" lon="6.13087">
        <ele>249.867</ele>
        <time>2016-09-06T08:25:13.000Z</time>
      </trkpt>
      <trkpt lat="47.28119" lon="6.13079">
        <ele>250.341</ele>
        <time>2016-09-06T08:25:14.000Z</time>
      </trkpt>
      <trkpt lat="47.28118" lon="6.13073">
        <ele>250.496</ele>
        <time>2016-09-06T08:25:15.000Z</time>
      </trkpt>
      <trkpt lat="47.28117" lon="6.13066">
        <ele>250.954</ele>
        <time>2016-09-06T08:25:16.000Z</time>
      </trkpt>
      <trkpt lat="47.28116" lon="6.13058">
        <ele>250.697</ele>
        <time>2016-09-06T08:25:17.000Z</time>
      </trkpt>
      <trkpt lat="47.28115" lon="6.13052">
        <ele>251.715</ele>
        <time>2016-09-06T08:25:18.000Z</time>
      </trkpt>
      <trkpt lat="47.28115" lon="6.13044">
        <ele>252.033</ele>
        <time>2016-09-06T08:25:19.000Z</time>
      </trkpt>
      <trkpt lat="47.28114" lon="6.13038">
        <ele>251.941</ele>
        <time>2016-09-06T08:25:20.000Z</time>
      </trkpt>
      <trkpt lat="47.28113" lon="6.13031">
        <ele>251.353</ele>
        <time>2016-09-06T08:25:21.000Z</time>
      </trkpt>
      <trkpt lat="47.28113" lon="6.13025">
        <ele>251.205</ele>
        <time>2016-09-06T08:25:22.000Z</time>
      </trkpt>
      <trkpt lat="47.28112" lon="6.13018">
        <ele>251.165</ele>
        <time>2016-09-06T08:25:23.000Z</time>
      </trkpt>
      <trkpt lat="47.28111" lon="6.13012">
        <ele>251.135</ele>
        <time>2016-09-06T08:25:24.000Z</time>
      </trkpt>
      <trkpt lat="47.28111" lon="6.13004">
        <ele>250.397</ele>
        <time>2016-09-06T08:25:25.000Z</time>
      </trkpt>
      <trkpt lat="47.28111" lon="6.12997">
        <ele>250.021</ele>
        <time>2016-09-06T08:25:26.000Z</time>
      </trkpt>
      <trkpt lat="47.28111" lon="6.1299">
        <ele>249.234</ele>
        <time>2016-09-06T08:25:27.000Z</time>
      </trkpt>
      <trkpt lat="47.2811" lon="6.12983">
        <ele>249.199</ele>
        <time>2016-09-06T08:25:28.000Z</time>
      </trkpt>
      <trkpt lat="47.28109" lon="6.12977">
        <ele>249.09</ele>
        <time>2016-09-06T08:25:29.000Z</time>
      </trkpt>
      <trkpt lat="47.28109" lon="6.12971">
        <ele>249.99</ele>
        <time>2016-09-06T08:25:30.000Z</time>
      </trkpt>
      <trkpt lat="47.28108" lon="6.12964">
        <ele>249.684</ele>
        <time>2016-09-06T08:25:31.000Z</time>
      </trkpt>
      <trkpt lat="47.28107" lon="6.12956">
        <ele>248.388</ele>
        <time>2016-09-06T08:25:32.000Z</time>
      </trkpt>
      <trkpt lat="47.28106" lon="6.1295">
        <ele>248.533</ele>
        <time>2016-09-06T08:25:33.000Z</time>
      </trkpt>
      <trkpt lat="47.28105" lon="6.12941">
        <ele>248.466</ele>
        <time>2016-09-06T08:25:34.000Z</time>
      </trkpt>
      <trkpt lat="47.28105" lon="6.12934">
        <ele>248.919</ele>
        <time>2016-09-06T08:25:35.000Z</time>
      </trkpt>
      <trkpt lat="47.28104" lon="6.12928">
        <ele>249.434</ele>
        <time>2016-09-06T08:25:36.000Z</time>
      </trkpt>
      <trkpt lat="47.28102" lon="6.12921">
        <ele>249.703</ele>
        <time>2016-09-06T08:25:37.000Z</time>
      </trkpt>
      <trkpt lat="47.28102" lon="6.12916">
        <ele>248.772</ele>
        <time>2016-09-06T08:25:38.000Z</time>
      </trkpt>
      <trkpt lat="47.28101" lon="6.12911">
        <ele>250.215</ele>
        <time>2016-09-06T08:25:39.000Z</time>
      </trkpt>
      <trkpt lat="47.28104" lon="6.12904">
        <ele>251.537</ele>
        <time>2016-09-06T08:25:40.000Z</time>
      </trkpt>
      <trkpt lat="47.28104" lon="6.12895">
        <ele>249.063</ele>
        <time>2016-09-06T08:25:41.000Z</time>
      </trkpt>
      <trkpt lat="47.28103" lon="6.12888">
        <ele>247.289</ele>
        <time>2016-09-06T08:25:42.000Z</time>
      </trkpt>
      <trkpt lat="47.28101" lon="6.1288">
        <ele>247.532</ele>
        <time>2016-09-06T08:25:43.000Z</time>
      </trkpt>
      <trkpt lat="47.281" lon="6.12873">
        <ele>246.293</ele>
        <time>2016-09-06T08:25:44.000Z</time>
      </trkpt>
      <trkpt lat="47.28099" lon="6.12864">
        <ele>245.749</ele>
        <time>2016-09-06T08:25:45.000Z</time>
      </trkpt>
      <trkpt lat="47.28098" lon="6.12855">
        <ele>244.777</ele>
        <time>2016-09-06T08:25:46.000Z</time>
      </trkpt>
      <trkpt lat="47.28097" lon="6.12849">
        <ele>245.879</ele>
        <time>2016-09-06T08:25:47.000Z</time>
      </trkpt>
      <trkpt lat="47.28097" lon="6.12842">
        <ele>245.317</ele>
        <time>2016-09-06T08:25:48.000Z</time>
      </trkpt>
      <trkpt lat="47.28097" lon="6.12836">
        <ele>246.549</ele>
        <time>2016-09-06T08:25:49.000Z</time>
      </trkpt>
      <trkpt lat="47.28096" lon="6.12829">
        <ele>246.962</ele>
        <time>2016-09-06T08:25:50.000Z</time>
      </trkpt>
      <trkpt lat="47.28095" lon="6.12823">
        <ele>247.79</ele>
        <time>2016-09-06T08:25:51.000Z</time>
      </trkpt>
      <trkpt lat="47.28094" lon="6.12816">
        <ele>247.869</ele>
        <time>2016-09-06T08:25:52.000Z</time>
      </trkpt>
      <trkpt lat="47.28094" lon="6.12809">
        <ele>248.406</ele>
        <time>2016-09-06T08:25:53.000Z</time>
      </trkpt>
      <trkpt lat="47.28093" lon="6.12803">
        <ele>248.196</ele>
        <time>2016-09-06T08:25:54.000Z</time>
      </trkpt>
      <trkpt lat="47.28092" lon="6.12796">
        <ele>247.699</ele>
        <time>2016-09-06T08:25:55.000Z</time>
      </trkpt>
      <trkpt lat="47.28092" lon="6.12789">
        <ele>246.418</ele>
        <time>2016-09-06T08:25:56.000Z</time>
      </trkpt>
      <trkpt lat="47.28091" lon="6.12781">
        <ele>246.28</ele>
        <time>2016-09-06T08:25:57.000Z</time>
      </trkpt>
      <trkpt lat="47.28091" lon="6.12775">
        <ele>247.098</ele>
        <time>2016-09-06T08:25:58.000Z</time>
      </trkpt>
      <trkpt lat="47.2809" lon="6.12769">
        <ele>247.564</ele>
        <time>2016-09-06T08:25:59.000Z</time>
      </trkpt>
      <trkpt lat="47.28089" lon="6.12762">
        <ele>247.49</ele>
        <time>2016-09-06T08:26:00.000Z</time>
      </trkpt>
      <trkpt lat="47.28088" lon="6.12757">
        <ele>247.377</ele>
        <time>2016-09-06T08:26:01.000Z</time>
      </trkpt>
      <trkpt lat="47.28087" lon="6.12749">
        <ele>246.536</ele>
        <time>2016-09-06T08:26:02.000Z</time>
      </trkpt>
      <trkpt lat="47.28086" lon="6.12741">
        <ele>246.059</ele>
        <time>2016-09-06T08:26:03.000Z</time>
      </trkpt>
      <trkpt lat="47.28085" lon="6.12735">
        <ele>247.894</ele>
        <time>2016-09-06T08:26:04.000Z</time>
      </trkpt>
      <trkpt lat="47.28085" lon="6.1273">
        <ele>248.674</ele>
        <time>2016-09-06T08:26:05.000Z</time>
      </trkpt>
      <trkpt lat="47.28083" lon="6.12724">
        <ele>247.639</ele>
        <time>2016-09-06T08:26:06.000Z</time>
      </trkpt>
      <trkpt lat="47.28083" lon="6.12717">
        <ele>249.292</ele>
        <time>2016-09-06T08:26:07.000Z</time>
      </trkpt>
      <trkpt lat="47.28082" lon="6.12711">
        <ele>250.247</ele>
        <time>2016-09-06T08:26:08.000Z</time>
      </trkpt>
      <trkpt lat="47.28081" lon="6.12704">
        <ele>250.256</ele>
        <time>2016-09-06T08:26:09.000Z</time>
      </trkpt>
      <trkpt lat="47.2808" lon="6.12697">
        <ele>248.954</ele>
        <time>2016-09-06T08:26:10.000Z</time>
      </trkpt>
      <trkpt lat="47.28078" lon="6.12691">
        <ele>248.606</ele>
        <time>2016-09-06T08:26:11.000Z</time>
      </trkpt>
      <trkpt lat="47.28078" lon="6.12686">
        <ele>249.116</ele>
        <time>2016-09-06T08:26:12.000Z</time>
      </trkpt>
      <trkpt lat="47.28077" lon="6.12679">
        <ele>249.422</ele>
        <time>2016-09-06T08:26:13.000Z</time>
      </trkpt>
      <trkpt lat="47.28076" lon="6.12674">
        <ele>251.041</ele>
        <time>2016-09-06T08:26:14.000Z</time>
      </trkpt>
      <trkpt lat="47.28075" lon="6.12669">
        <ele>251.983</ele>
        <time>2016-09-06T08:26:15.000Z</time>
      </trkpt>
      <trkpt lat="47.28074" lon="6.12665">
        <ele>251.935</ele>
        <time>2016-09-06T08:26:16.000Z</time>
      </trkpt>
      <trkpt lat="47.28073" lon="6.12661">
        <ele>255.665</ele>
        <time>2016-09-06T08:26:17.000Z</time>
      </trkpt>
      <trkpt lat="47.28072" lon="6.12657">
        <ele>255.773</ele>
        <time>2016-09-06T08:26:18.000Z</time>
      </trkpt>
      <trkpt lat="47.28071" lon="6.12651">
        <ele>256.772</ele>
        <time>2016-09-06T08:26:19.000Z</time>
      </trkpt>
      <trkpt lat="47.2807" lon="6.12646">
        <ele>257.265</ele>
        <time>2016-09-06T08:26:20.000Z</time>
      </trkpt>
      <trkpt lat="47.28069" lon="6.1264">
        <ele>258.28</ele>
        <time>2016-09-06T08:26:21.000Z</time>
      </trkpt>
      <trkpt lat="47.28067" lon="6.12634">
        <ele>258.922</ele>
        <time>2016-09-06T08:26:22.000Z</time>
      </trkpt>
      <trkpt lat="47.28066" lon="6.12627">
        <ele>257.444</ele>
        <time>2016-09-06T08:26:23.000Z</time>
      </trkpt>
      <trkpt lat="47.28065" lon="6.1262">
        <ele>256.755</ele>
        <time>2016-09-06T08:26:24.000Z</time>
      </trkpt>
      <trkpt lat="47.28064" lon="6.12613">
        <ele>254.95</ele>
        <time>2016-09-06T08:26:25.000Z</time>
      </trkpt>
      <trkpt lat="47.28062" lon="6.12602">
        <ele>254.855</ele>
        <time>2016-09-06T08:26:26.000Z</time>
      </trkpt>
      <trkpt lat="47.28061" lon="6.12595">
        <ele>254.539</ele>
        <time>2016-09-06T08:26:27.000Z</time>
      </trkpt>
      <trkpt lat="47.28059" lon="6.12588">
        <ele>252.512</ele>
        <time>2016-09-06T08:26:28.000Z</time>
      </trkpt>
      <trkpt lat="47.28057" lon="6.12581">
        <ele>252.469</ele>
        <time>2016-09-06T08:26:29.000Z</time>
      </trkpt>
      <trkpt lat="47.28055" lon="6.12575">
        <ele>252.08</ele>
        <time>2016-09-06T08:26:30.000Z</time>
      </trkpt>
      <trkpt lat="47.28053" lon="6.12569">
        <ele>252.625</ele>
        <time>2016-09-06T08:26:31.000Z</time>
      </trkpt>
      <trkpt lat="47.2805" lon="6.12563">
        <ele>252.198</ele>
        <time>2016-09-06T08:26:32.000Z</time>
      </trkpt>
      <trkpt lat="47.28047" lon="6.12555">
        <ele>249.886</ele>
        <time>2016-09-06T08:26:33.000Z</time>
      </trkpt>
      <trkpt lat="47.28045" lon="6.12548">
        <ele>248.513</ele>
        <time>2016-09-06T08:26:34.000Z</time>
      </trkpt>
      <trkpt lat="47.28041" lon="6.12541">
        <ele>248.403</ele>
        <time>2016-09-06T08:26:35.000Z</time>
      </trkpt>
      <trkpt lat="47.28039" lon="6.12536">
        <ele>248.439</ele>
        <time>2016-09-06T08:26:36.000Z</time>
      </trkpt>
      <trkpt lat="47.28036" lon="6.1253">
        <ele>247.274</ele>
        <time>2016-09-06T08:26:37.000Z</time>
      </trkpt>
      <trkpt lat="47.28033" lon="6.12523">
        <ele>247.603</ele>
        <time>2016-09-06T08:26:38.000Z</time>
      </trkpt>
      <trkpt lat="47.2803" lon="6.12518">
        <ele>248.849</ele>
        <time>2016-09-06T08:26:39.000Z</time>
      </trkpt>
      <trkpt lat="47.28027" lon="6.12512">
        <ele>249.206</ele>
        <time>2016-09-06T08:26:40.000Z</time>
      </trkpt>
      <trkpt lat="47.28023" lon="6.12504">
        <ele>248.285</ele>
        <time>2016-09-06T08:26:41.000Z</time>
      </trkpt>
      <trkpt lat="47.28019" lon="6.12497">
        <ele>246.399</ele>
        <time>2016-09-06T08:26:42.000Z</time>
      </trkpt>
      <trkpt lat="47.28015" lon="6.1249">
        <ele>246.554</ele>
        <time>2016-09-06T08:26:43.000Z</time>
      </trkpt>
      <trkpt lat="47.28011" lon="6.12485">
        <ele>244.072</ele>
        <time>2016-09-06T08:26:44.000Z</time>
      </trkpt>
      <trkpt lat="47.28009" lon="6.12479">
        <ele>244.578</ele>
        <time>2016-09-06T08:26:45.000Z</time>
      </trkpt>
      <trkpt lat="47.28005" lon="6.12473">
        <ele>246.815</ele>
        <time>2016-09-06T08:26:46.000Z</time>
      </trkpt>
      <trkpt lat="47.28002" lon="6.12466">
        <ele>246.686</ele>
        <time>2016-09-06T08:26:47.000Z</time>
      </trkpt>
      <trkpt lat="47.27999" lon="6.1246">
        <ele>245.994</ele>
        <time>2016-09-06T08:26:48.000Z</time>
      </trkpt>
      <trkpt lat="47.27995" lon="6.12454">
        <ele>245.596</ele>
        <time>2016-09-06T08:26:49.000Z</time>
      </trkpt>
      <trkpt lat="47.27992" lon="6.12447">
        <ele>246.063</ele>
        <time>2016-09-06T08:26:50.000Z</time>
      </trkpt>
      <trkpt lat="47.27989" lon="6.12441">
        <ele>246.375</ele>
        <time>2016-09-06T08:26:51.000Z</time>
      </trkpt>
      <trkpt lat="47.27985" lon="6.12436">
        <ele>246.689</ele>
        <time>2016-09-06T08:26:52.000Z</time>
      </trkpt>
      <trkpt lat="47.27982" lon="6.12431">
        <ele>246.866</ele>
        <time>2016-09-06T08:26:53.000Z</time>
      </trkpt>
      <trkpt lat="47.27979" lon="6.12424">
        <ele>246.26</ele>
        <time>2016-09-06T08:26:54.000Z</time>
      </trkpt>
      <trkpt lat="47.27976" lon="6.12419">
        <ele>245.049</ele>
        <time>2016-09-06T08:26:55.000Z</time>
      </trkpt>
      <trkpt lat="47.27973" lon="6.12414">
        <ele>244.968</ele>
        <time>2016-09-06T08:26:56.000Z</time>
      </trkpt>
      <trkpt lat="47.27968" lon="6.12408">
        <ele>246.114</ele>
        <time>2016-09-06T08:26:57.000Z</time>
      </trkpt>
      <trkpt lat="47.27966" lon="6.12403">
        <ele>244.955</ele>
        <time>2016-09-06T08:26:58.000Z</time>
      </trkpt>
      <trkpt lat="47.27962" lon="6.12397">
        <ele>245.573</ele>
        <time>2016-09-06T08:26:59.000Z</time>
      </trkpt>
      <trkpt lat="47.27957" lon="6.12393">
        <ele>246.639</ele>
        <time>2016-09-06T08:27:00.000Z</time>
      </trkpt>
      <trkpt lat="47.27954" lon="6.12388">
        <ele>244.286</ele>
        <time>2016-09-06T08:27:01.000Z</time>
      </trkpt>
      <trkpt lat="47.27952" lon="6.12384">
        <ele>242.81</ele>
        <time>2016-09-06T08:27:02.000Z</time>
      </trkpt>
      <trkpt lat="47.2795" lon="6.12379">
        <ele>244.614</ele>
        <time>2016-09-06T08:27:03.000Z</time>
      </trkpt>
      <trkpt lat="47.27949" lon="6.12374">
        <ele>243.711</ele>
        <time>2016-09-06T08:27:04.000Z</time>
      </trkpt>
      <trkpt lat="47.27947" lon="6.12371">
        <ele>242.888</ele>
        <time>2016-09-06T08:27:05.000Z</time>
      </trkpt>
      <trkpt lat="47.27944" lon="6.12367">
        <ele>243.155</ele>
        <time>2016-09-06T08:27:06.000Z</time>
      </trkpt>
      <trkpt lat="47.27941" lon="6.12362">
        <ele>242.562</ele>
        <time>2016-09-06T08:27:07.000Z</time>
      </trkpt>
      <trkpt lat="47.27938" lon="6.12357">
        <ele>244.363</ele>
        <time>2016-09-06T08:27:08.000Z</time>
      </trkpt>
      <trkpt lat="47.27933" lon="6.1235">
        <ele>243.863</ele>
        <time>2016-09-06T08:27:09.000Z</time>
      </trkpt>
      <trkpt lat="47.27931" lon="6.12345">
        <ele>244.582</ele>
        <time>2016-09-06T08:27:10.000Z</time>
      </trkpt>
      <trkpt lat="47.27928" lon="6.12339">
        <ele>243.641</ele>
        <time>2016-09-06T08:27:11.000Z</time>
      </trkpt>
      <trkpt lat="47.27924" lon="6.12333">
        <ele>245.341</ele>
        <time>2016-09-06T08:27:12.000Z</time>
      </trkpt>
      <trkpt lat="47.27921" lon="6.12327">
        <ele>244.526</ele>
        <time>2016-09-06T08:27:13.000Z</time>
      </trkpt>
      <trkpt lat="47.27918" lon="6.12321">
        <ele>244.534</ele>
        <time>2016-09-06T08:27:14.000Z</time>
      </trkpt>
      <trkpt lat="47.27914" lon="6.12315">
        <ele>245.483</ele>
        <time>2016-09-06T08:27:15.000Z</time>
      </trkpt>
      <trkpt lat="47.27911" lon="6.12309">
        <ele>245.776</ele>
        <time>2016-09-06T08:27:16.000Z</time>
      </trkpt>
      <trkpt lat="47.27906" lon="6.12304">
        <ele>245.733</ele>
        <time>2016-09-06T08:27:17.000Z</time>
      </trkpt>
      <trkpt lat="47.27904" lon="6.12298">
        <ele>244.956</ele>
        <time>2016-09-06T08:27:18.000Z</time>
      </trkpt>
      <trkpt lat="47.27901" lon="6.12292">
        <ele>246.032</ele>
        <time>2016-09-06T08:27:19.000Z</time>
      </trkpt>
      <trkpt lat="47.27897" lon="6.12287">
        <ele>244.902</ele>
        <time>2016-09-06T08:27:20.000Z</time>
      </trkpt>
      <trkpt lat="47.27894" lon="6.12282">
        <ele>244.57</ele>
        <time>2016-09-06T08:27:21.000Z</time>
      </trkpt>
      <trkpt lat="47.2789" lon="6.12276">
        <ele>243.665</ele>
        <time>2016-09-06T08:27:22.000Z</time>
      </trkpt>
      <trkpt lat="47.27886" lon="6.12271">
        <ele>244.588</ele>
        <time>2016-09-06T08:27:23.000Z</time>
      </trkpt>
      <trkpt lat="47.27883" lon="6.12266">
        <ele>244.273</ele>
        <time>2016-09-06T08:27:24.000Z</time>
      </trkpt>
      <trkpt lat="47.2788" lon="6.12262">
        <ele>243.946</ele>
        <time>2016-09-06T08:27:25.000Z</time>
      </trkpt>
      <trkpt lat="47.27876" lon="6.12256">
        <ele>244.418</ele>
        <time>2016-09-06T08:27:26.000Z</time>
      </trkpt>
      <trkpt lat="47.27873" lon="6.12251">
        <ele>243.515</ele>
        <time>2016-09-06T08:27:27.000Z</time>
      </trkpt>
      <trkpt lat="47.2787" lon="6.12246">
        <ele>244.538</ele>
        <time>2016-09-06T08:27:28.000Z</time>
      </trkpt>
      <trkpt lat="47.27867" lon="6.12241">
        <ele>245.755</ele>
        <time>2016-09-06T08:27:29.000Z</time>
      </trkpt>
      <trkpt lat="47.27864" lon="6.12237">
        <ele>245.501</ele>
        <time>2016-09-06T08:27:30.000Z</time>
      </trkpt>
      <trkpt lat="47.27861" lon="6.12233">
        <ele>244.781</ele>
        <time>2016-09-06T08:27:31.000Z</time>
      </trkpt>
      <trkpt lat="47.27858" lon="6.12227">
        <ele>245.143</ele>
        <time>2016-09-06T08:27:32.000Z</time>
      </trkpt>
      <trkpt lat="47.27855" lon="6.12222">
        <ele>244.567</ele>
        <time>2016-09-06T08:27:33.000Z</time>
      </trkpt>
      <trkpt lat="47.27852" lon="6.12217">
        <ele>244.44</ele>
        <time>2016-09-06T08:27:34.000Z</time>
      </trkpt>
      <trkpt lat="47.27849" lon="6.12212">
        <ele>244.269</ele>
        <time>2016-09-06T08:27:35.000Z</time>
      </trkpt>
      <trkpt lat="47.27845" lon="6.12208">
        <ele>244.417</ele>
        <time>2016-09-06T08:27:36.000Z</time>
      </trkpt>
      <trkpt lat="47.27842" lon="6.12203">
        <ele>243.425</ele>
        <time>2016-09-06T08:27:37.000Z</time>
      </trkpt>
      <trkpt lat="47.2784" lon="6.12199">
        <ele>244.191</ele>
        <time>2016-09-06T08:27:38.000Z</time>
      </trkpt>
      <trkpt lat="47.27837" lon="6.12194">
        <ele>243.482</ele>
        <time>2016-09-06T08:27:39.000Z</time>
      </trkpt>
      <trkpt lat="47.27834" lon="6.12189">
        <ele>242.492</ele>
        <time>2016-09-06T08:27:40.000Z</time>
      </trkpt>
      <trkpt lat="47.27831" lon="6.12183">
        <ele>242.037</ele>
        <time>2016-09-06T08:27:41.000Z</time>
      </trkpt>
      <trkpt lat="47.27827" lon="6.12177">
        <ele>241.326</ele>
        <time>2016-09-06T08:27:42.000Z</time>
      </trkpt>
      <trkpt lat="47.27825" lon="6.12175">
        <ele>241.187</ele>
        <time>2016-09-06T08:27:43.000Z</time>
      </trkpt>
      <trkpt lat="47.27822" lon="6.1217">
        <ele>241.2</ele>
        <time>2016-09-06T08:27:44.000Z</time>
      </trkpt>
      <trkpt lat="47.27818" lon="6.12164">
        <ele>241.144</ele>
        <time>2016-09-06T08:27:45.000Z</time>
      </trkpt>
      <trkpt lat="47.27814" lon="6.1216">
        <ele>240.182</ele>
        <time>2016-09-06T08:27:46.000Z</time>
      </trkpt>
      <trkpt lat="47.2781" lon="6.12155">
        <ele>240.637</ele>
        <time>2016-09-06T08:27:47.000Z</time>
      </trkpt>
      <trkpt lat="47.27806" lon="6.12151">
        <ele>240.704</ele>
        <time>2016-09-06T08:27:48.000Z</time>
      </trkpt>
      <trkpt lat="47.27803" lon="6.12147">
        <ele>240.887</ele>
        <time>2016-09-06T08:27:49.000Z</time>
      </trkpt>
      <trkpt lat="47.27798" lon="6.12143">
        <ele>238.353</ele>
        <time>2016-09-06T08:27:50.000Z</time>
      </trkpt>
      <trkpt lat="47.27796" lon="6.1214">
        <ele>239.002</ele>
        <time>2016-09-06T08:27:51.000Z</time>
      </trkpt>
      <trkpt lat="47.27792" lon="6.12137">
        <ele>240.156</ele>
        <time>2016-09-06T08:27:52.000Z</time>
      </trkpt>
      <trkpt lat="47.27787" lon="6.12132">
        <ele>239.098</ele>
        <time>2016-09-06T08:27:53.000Z</time>
      </trkpt>
      <trkpt lat="47.27782" lon="6.12128">
        <ele>238.609</ele>
        <time>2016-09-06T08:27:54.000Z</time>
      </trkpt>
      <trkpt lat="47.27778" lon="6.12125">
        <ele>238.895</ele>
        <time>2016-09-06T08:27:55.000Z</time>
      </trkpt>
      <trkpt lat="47.27773" lon="6.12121">
        <ele>238.599</ele>
        <time>2016-09-06T08:27:56.000Z</time>
      </trkpt>
      <trkpt lat="47.27769" lon="6.12117">
        <ele>237.869</ele>
        <time>2016-09-06T08:27:57.000Z</time>
      </trkpt>
      <trkpt lat="47.27764" lon="6.12114">
        <ele>238.987</ele>
        <time>2016-09-06T08:27:58.000Z</time>
      </trkpt>
      <trkpt lat="47.27759" lon="6.1211">
        <ele>239.137</ele>
        <time>2016-09-06T08:27:59.000Z</time>
      </trkpt>
      <trkpt lat="47.27755" lon="6.12108">
        <ele>239.154</ele>
        <time>2016-09-06T08:28:00.000Z</time>
      </trkpt>
      <trkpt lat="47.27751" lon="6.12104">
        <ele>239.75</ele>
        <time>2016-09-06T08:28:01.000Z</time>
      </trkpt>
      <trkpt lat="47.27747" lon="6.121">
        <ele>239.491</ele>
        <time>2016-09-06T08:28:02.000Z</time>
      </trkpt>
      <trkpt lat="47.27744" lon="6.12096">
        <ele>240.905</ele>
        <time>2016-09-06T08:28:03.000Z</time>
      </trkpt>
      <trkpt lat="47.27739" lon="6.1209">
        <ele>239.668</ele>
        <time>2016-09-06T08:28:04.000Z</time>
      </trkpt>
      <trkpt lat="47.27734" lon="6.12086">
        <ele>240.405</ele>
        <time>2016-09-06T08:28:05.000Z</time>
      </trkpt>
      <trkpt lat="47.27731" lon="6.12083">
        <ele>242.633</ele>
        <time>2016-09-06T08:28:06.000Z</time>
      </trkpt>
      <trkpt lat="47.27726" lon="6.12076">
        <ele>240.798</ele>
        <time>2016-09-06T08:28:07.000Z</time>
      </trkpt>
      <trkpt lat="47.2772" lon="6.12071">
        <ele>239.804</ele>
        <time>2016-09-06T08:28:08.000Z</time>
      </trkpt>
      <trkpt lat="47.27716" lon="6.12066">
        <ele>240.904</ele>
        <time>2016-09-06T08:28:09.000Z</time>
      </trkpt>
      <trkpt lat="47.27711" lon="6.12062">
        <ele>241.192</ele>
        <time>2016-09-06T08:28:10.000Z</time>
      </trkpt>
      <trkpt lat="47.27707" lon="6.12057">
        <ele>240.673</ele>
        <time>2016-09-06T08:28:11.000Z</time>
      </trkpt>
      <trkpt lat="47.27704" lon="6.12054">
        <ele>241.777</ele>
        <time>2016-09-06T08:28:12.000Z</time>
      </trkpt>
      <trkpt lat="47.27699" lon="6.12048">
        <ele>240.748</ele>
        <time>2016-09-06T08:28:13.000Z</time>
      </trkpt>
      <trkpt lat="47.27693" lon="6.12043">
        <ele>239.526</ele>
        <time>2016-09-06T08:28:14.000Z</time>
      </trkpt>
      <trkpt lat="47.27689" lon="6.12039">
        <ele>241.135</ele>
        <time>2016-09-06T08:28:15.000Z</time>
      </trkpt>
      <trkpt lat="47.27684" lon="6.12035">
        <ele>241.092</ele>
        <time>2016-09-06T08:28:16.000Z</time>
      </trkpt>
      <trkpt lat="47.27679" lon="6.12029">
        <ele>240.425</ele>
        <time>2016-09-06T08:28:17.000Z</time>
      </trkpt>
      <trkpt lat="47.27675" lon="6.12023">
        <ele>239.778</ele>
        <time>2016-09-06T08:28:18.000Z</time>
      </trkpt>
      <trkpt lat="47.27671" lon="6.12019">
        <ele>241.105</ele>
        <time>2016-09-06T08:28:19.000Z</time>
      </trkpt>
      <trkpt lat="47.27667" lon="6.12014">
        <ele>242.373</ele>
        <time>2016-09-06T08:28:20.000Z</time>
      </trkpt>
      <trkpt lat="47.27663" lon="6.1201">
        <ele>241.672</ele>
        <time>2016-09-06T08:28:21.000Z</time>
      </trkpt>
      <trkpt lat="47.27659" lon="6.12005">
        <ele>242.794</ele>
        <time>2016-09-06T08:28:22.000Z</time>
      </trkpt>
      <trkpt lat="47.27656" lon="6.12001">
        <ele>244.118</ele>
        <time>2016-09-06T08:28:23.000Z</time>
      </trkpt>
      <trkpt lat="47.27652" lon="6.11998">
        <ele>244.018</ele>
        <time>2016-09-06T08:28:24.000Z</time>
      </trkpt>
      <trkpt lat="47.27647" lon="6.11993">
        <ele>243.805</ele>
        <time>2016-09-06T08:28:25.000Z</time>
      </trkpt>
      <trkpt lat="47.27644" lon="6.11989">
        <ele>243.115</ele>
        <time>2016-09-06T08:28:26.000Z</time>
      </trkpt>
      <trkpt lat="47.2764" lon="6.11984">
        <ele>242.682</ele>
        <time>2016-09-06T08:28:27.000Z</time>
      </trkpt>
      <trkpt lat="47.27635" lon="6.1198">
        <ele>241.875</ele>
        <time>2016-09-06T08:28:28.000Z</time>
      </trkpt>
      <trkpt lat="47.27631" lon="6.11975">
        <ele>243.306</ele>
        <time>2016-09-06T08:28:29.000Z</time>
      </trkpt>
      <trkpt lat="47.27629" lon="6.1197">
        <ele>242.801</ele>
        <time>2016-09-06T08:28:30.000Z</time>
      </trkpt>
      <trkpt lat="47.27625" lon="6.11966">
        <ele>242.442</ele>
        <time>2016-09-06T08:28:31.000Z</time>
      </trkpt>
      <trkpt lat="47.2762" lon="6.11961">
        <ele>243.47</ele>
        <time>2016-09-06T08:28:32.000Z</time>
      </trkpt>
      <trkpt lat="47.27617" lon="6.11956">
        <ele>242.938</ele>
        <time>2016-09-06T08:28:33.000Z</time>
      </trkpt>
      <trkpt lat="47.27613" lon="6.11951">
        <ele>243.996</ele>
        <time>2016-09-06T08:28:34.000Z</time>
      </trkpt>
      <trkpt lat="47.27609" lon="6.11946">
        <ele>243.589</ele>
        <time>2016-09-06T08:28:35.000Z</time>
      </trkpt>
      <trkpt lat="47.27605" lon="6.1194">
        <ele>243.616</ele>
        <time>2016-09-06T08:28:36.000Z</time>
      </trkpt>
      <trkpt lat="47.27601" lon="6.11937">
        <ele>243.336</ele>
        <time>2016-09-06T08:28:37.000Z</time>
      </trkpt>
      <trkpt lat="47.27598" lon="6.11931">
        <ele>243.13</ele>
        <time>2016-09-06T08:28:38.000Z</time>
      </trkpt>
      <trkpt lat="47.27595" lon="6.11927">
        <ele>242.104</ele>
        <time>2016-09-06T08:28:39.000Z</time>
      </trkpt>
      <trkpt lat="47.27591" lon="6.11921">
        <ele>241.637</ele>
        <time>2016-09-06T08:28:40.000Z</time>
      </trkpt>
      <trkpt lat="47.27588" lon="6.11917">
        <ele>240.462</ele>
        <time>2016-09-06T08:28:41.000Z</time>
      </trkpt>
      <trkpt lat="47.27584" lon="6.11913">
        <ele>240.835</ele>
        <time>2016-09-06T08:28:42.000Z</time>
      </trkpt>
      <trkpt lat="47.27581" lon="6.11908">
        <ele>241.562</ele>
        <time>2016-09-06T08:28:43.000Z</time>
      </trkpt>
      <trkpt lat="47.27578" lon="6.11904">
        <ele>241.658</ele>
        <time>2016-09-06T08:28:44.000Z</time>
      </trkpt>
      <trkpt lat="47.27575" lon="6.119">
        <ele>240.955</ele>
        <time>2016-09-06T08:28:45.000Z</time>
      </trkpt>
      <trkpt lat="47.27571" lon="6.11895">
        <ele>240.682</ele>
        <time>2016-09-06T08:28:46.000Z</time>
      </trkpt>
      <trkpt lat="47.27567" lon="6.11891">
        <ele>239.598</ele>
        <time>2016-09-06T08:28:47.000Z</time>
      </trkpt>
      <trkpt lat="47.27563" lon="6.11886">
        <ele>240.231</ele>
        <time>2016-09-06T08:28:48.000Z</time>
      </trkpt>
      <trkpt lat="47.27559" lon="6.11882">
        <ele>240.339</ele>
        <time>2016-09-06T08:28:49.000Z</time>
      </trkpt>
      <trkpt lat="47.27555" lon="6.11878">
        <ele>241.056</ele>
        <time>2016-09-06T08:28:50.000Z</time>
      </trkpt>
      <trkpt lat="47.27551" lon="6.11874">
        <ele>241.291</ele>
        <time>2016-09-06T08:28:51.000Z</time>
      </trkpt>
      <trkpt lat="47.27547" lon="6.11869">
        <ele>241.756</ele>
        <time>2016-09-06T08:28:52.000Z</time>
      </trkpt>
      <trkpt lat="47.27543" lon="6.11865">
        <ele>241.828</ele>
        <time>2016-09-06T08:28:53.000Z</time>
      </trkpt>
      <trkpt lat="47.2754" lon="6.1186">
        <ele>241.656</ele>
        <time>2016-09-06T08:28:54.000Z</time>
      </trkpt>
      <trkpt lat="47.27536" lon="6.11856">
        <ele>241.302</ele>
        <time>2016-09-06T08:28:55.000Z</time>
      </trkpt>
      <trkpt lat="47.27533" lon="6.11852">
        <ele>242.45</ele>
        <time>2016-09-06T08:28:56.000Z</time>
      </trkpt>
      <trkpt lat="47.2753" lon="6.11847">
        <ele>242.088</ele>
        <time>2016-09-06T08:28:57.000Z</time>
      </trkpt>
      <trkpt lat="47.27526" lon="6.11843">
        <ele>241.573</ele>
        <time>2016-09-06T08:28:58.000Z</time>
      </trkpt>
      <trkpt lat="47.27522" lon="6.11839">
        <ele>241.924</ele>
        <time>2016-09-06T08:28:59.000Z</time>
      </trkpt>
      <trkpt lat="47.27518" lon="6.11835">
        <ele>242.064</ele>
        <time>2016-09-06T08:29:00.000Z</time>
      </trkpt>
      <trkpt lat="47.27514" lon="6.11831">
        <ele>241.289</ele>
        <time>2016-09-06T08:29:01.000Z</time>
      </trkpt>
      <trkpt lat="47.2751" lon="6.11826">
        <ele>241.332</ele>
        <time>2016-09-06T08:29:02.000Z</time>
      </trkpt>
      <trkpt lat="47.27507" lon="6.11822">
        <ele>241.649</ele>
        <time>2016-09-06T08:29:03.000Z</time>
      </trkpt>
      <trkpt lat="47.27503" lon="6.11817">
        <ele>241.069</ele>
        <time>2016-09-06T08:29:04.000Z</time>
      </trkpt>
      <trkpt lat="47.27498" lon="6.11812">
        <ele>241.344</ele>
        <time>2016-09-06T08:29:05.000Z</time>
      </trkpt>
      <trkpt lat="47.27494" lon="6.11808">
        <ele>241.744</ele>
        <time>2016-09-06T08:29:06.000Z</time>
      </trkpt>
      <trkpt lat="47.27491" lon="6.11803">
        <ele>241.883</ele>
        <time>2016-09-06T08:29:07.000Z</time>
      </trkpt>
      <trkpt lat="47.27487" lon="6.11798">
        <ele>241.758</ele>
        <time>2016-09-06T08:29:08.000Z</time>
      </trkpt>
      <trkpt lat="47.27484" lon="6.11794">
        <ele>241.156</ele>
        <time>2016-09-06T08:29:09.000Z</time>
      </trkpt>
      <trkpt lat="47.27479" lon="6.11789">
        <ele>241.375</ele>
        <time>2016-09-06T08:29:10.000Z</time>
      </trkpt>
      <trkpt lat="47.27475" lon="6.11786">
        <ele>241.601</ele>
        <time>2016-09-06T08:29:11.000Z</time>
      </trkpt>
      <trkpt lat="47.27471" lon="6.11783">
        <ele>242.688</ele>
        <time>2016-09-06T08:29:12.000Z</time>
      </trkpt>
      <trkpt lat="47.27468" lon="6.1178">
        <ele>244.311</ele>
        <time>2016-09-06T08:29:13.000Z</time>
      </trkpt>
      <trkpt lat="47.27465" lon="6.11776">
        <ele>244.982</ele>
        <time>2016-09-06T08:29:14.000Z</time>
      </trkpt>
      <trkpt lat="47.2746" lon="6.11772">
        <ele>244.288</ele>
        <time>2016-09-06T08:29:15.000Z</time>
      </trkpt>
      <trkpt lat="47.27456" lon="6.11768">
        <ele>245.549</ele>
        <time>2016-09-06T08:29:16.000Z</time>
      </trkpt>
      <trkpt lat="47.27452" lon="6.11764">
        <ele>246.147</ele>
        <time>2016-09-06T08:29:17.000Z</time>
      </trkpt>
      <trkpt lat="47.27449" lon="6.11761">
        <ele>248.163</ele>
        <time>2016-09-06T08:29:18.000Z</time>
      </trkpt>
      <trkpt lat="47.27445" lon="6.11758">
        <ele>247.446</ele>
        <time>2016-09-06T08:29:19.000Z</time>
      </trkpt>
      <trkpt lat="47.27441" lon="6.11756">
        <ele>247.144</ele>
        <time>2016-09-06T08:29:20.000Z</time>
      </trkpt>
      <trkpt lat="47.27437" lon="6.11753">
        <ele>247.128</ele>
        <time>2016-09-06T08:29:21.000Z</time>
      </trkpt>
      <trkpt lat="47.27433" lon="6.1175">
        <ele>246.641</ele>
        <time>2016-09-06T08:29:22.000Z</time>
      </trkpt>
      <trkpt lat="47.27428" lon="6.11749">
        <ele>246.899</ele>
        <time>2016-09-06T08:29:23.000Z</time>
      </trkpt>
      <trkpt lat="47.27424" lon="6.11748">
        <ele>247.305</ele>
        <time>2016-09-06T08:29:24.000Z</time>
      </trkpt>
      <trkpt lat="47.2742" lon="6.11746">
        <ele>247.301</ele>
        <time>2016-09-06T08:29:25.000Z</time>
      </trkpt>
      <trkpt lat="47.27416" lon="6.11744">
        <ele>247.447</ele>
        <time>2016-09-06T08:29:26.000Z</time>
      </trkpt>
      <trkpt lat="47.27411" lon="6.11741">
        <ele>246.696</ele>
        <time>2016-09-06T08:29:27.000Z</time>
      </trkpt>
      <trkpt lat="47.27407" lon="6.1174">
        <ele>245.277</ele>
        <time>2016-09-06T08:29:28.000Z</time>
      </trkpt>
      <trkpt lat="47.27405" lon="6.11736">
        <ele>245.521</ele>
        <time>2016-09-06T08:29:29.000Z</time>
      </trkpt>
      <trkpt lat="47.274" lon="6.11734">
        <ele>245.517</ele>
        <time>2016-09-06T08:29:30.000Z</time>
      </trkpt>
      <trkpt lat="47.27398" lon="6.1173">
        <ele>244.453</ele>
        <time>2016-09-06T08:29:31.000Z</time>
      </trkpt>
      <trkpt lat="47.27394" lon="6.11728">
        <ele>243.992</ele>
        <time>2016-09-06T08:29:32.000Z</time>
      </trkpt>
      <trkpt lat="47.27391" lon="6.11724">
        <ele>243.504</ele>
        <time>2016-09-06T08:29:33.000Z</time>
      </trkpt>
      <trkpt lat="47.27388" lon="6.11721">
        <ele>244.906</ele>
        <time>2016-09-06T08:29:34.000Z</time>
      </trkpt>
      <trkpt lat="47.27384" lon="6.11717">
        <ele>244.156</ele>
        <time>2016-09-06T08:29:35.000Z</time>
      </trkpt>
      <trkpt lat="47.2738" lon="6.11714">
        <ele>244.063</ele>
        <time>2016-09-06T08:29:36.000Z</time>
      </trkpt>
      <trkpt lat="47.27377" lon="6.1171">
        <ele>245.117</ele>
        <time>2016-09-06T08:29:37.000Z</time>
      </trkpt>
      <trkpt lat="47.27373" lon="6.11707">
        <ele>246.415</ele>
        <time>2016-09-06T08:29:38.000Z</time>
      </trkpt>
      <trkpt lat="47.27369" lon="6.11704">
        <ele>246.516</ele>
        <time>2016-09-06T08:29:39.000Z</time>
      </trkpt>
      <trkpt lat="47.27365" lon="6.117">
        <ele>247.513</ele>
        <time>2016-09-06T08:29:40.000Z</time>
      </trkpt>
      <trkpt lat="47.27362" lon="6.11697">
        <ele>247.546</ele>
        <time>2016-09-06T08:29:41.000Z</time>
      </trkpt>
      <trkpt lat="47.27359" lon="6.11693">
        <ele>246.342</ele>
        <time>2016-09-06T08:29:42.000Z</time>
      </trkpt>
      <trkpt lat="47.27355" lon="6.11689">
        <ele>246.353</ele>
        <time>2016-09-06T08:29:43.000Z</time>
      </trkpt>
      <trkpt lat="47.27352" lon="6.11685">
        <ele>245.941</ele>
        <time>2016-09-06T08:29:44.000Z</time>
      </trkpt>
      <trkpt lat="47.27349" lon="6.11681">
        <ele>246.111</ele>
        <time>2016-09-06T08:29:45.000Z</time>
      </trkpt>
      <trkpt lat="47.27346" lon="6.11677">
        <ele>246.467</ele>
        <time>2016-09-06T08:29:46.000Z</time>
      </trkpt>
      <trkpt lat="47.27343" lon="6.11673">
        <ele>246.395</ele>
        <time>2016-09-06T08:29:47.000Z</time>
      </trkpt>
      <trkpt lat="47.2734" lon="6.11669">
        <ele>247.035</ele>
        <time>2016-09-06T08:29:48.000Z</time>
      </trkpt>
      <trkpt lat="47.27338" lon="6.11665">
        <ele>246.962</ele>
        <time>2016-09-06T08:29:49.000Z</time>
      </trkpt>
      <trkpt lat="47.27335" lon="6.11662">
        <ele>246.75</ele>
        <time>2016-09-06T08:29:50.000Z</time>
      </trkpt>
      <trkpt lat="47.27332" lon="6.11658">
        <ele>246.456</ele>
        <time>2016-09-06T08:29:51.000Z</time>
      </trkpt>
      <trkpt lat="47.2733" lon="6.11655">
        <ele>246.975</ele>
        <time>2016-09-06T08:29:52.000Z</time>
      </trkpt>
      <trkpt lat="47.27327" lon="6.11651">
        <ele>246.933</ele>
        <time>2016-09-06T08:29:53.000Z</time>
      </trkpt>
      <trkpt lat="47.27324" lon="6.11647">
        <ele>247.142</ele>
        <time>2016-09-06T08:29:54.000Z</time>
      </trkpt>
      <trkpt lat="47.27321" lon="6.11643">
        <ele>247.103</ele>
        <time>2016-09-06T08:29:55.000Z</time>
      </trkpt>
      <trkpt lat="47.27318" lon="6.11639">
        <ele>246.926</ele>
        <time>2016-09-06T08:29:56.000Z</time>
      </trkpt>
      <trkpt lat="47.27315" lon="6.11636">
        <ele>245.97</ele>
        <time>2016-09-06T08:29:57.000Z</time>
      </trkpt>
      <trkpt lat="47.27311" lon="6.11632">
        <ele>246.084</ele>
        <time>2016-09-06T08:29:58.000Z</time>
      </trkpt>
      <trkpt lat="47.27308" lon="6.11628">
        <ele>246.123</ele>
        <time>2016-09-06T08:29:59.000Z</time>
      </trkpt>
      <trkpt lat="47.27304" lon="6.11625">
        <ele>246.305</ele>
        <time>2016-09-06T08:30:00.000Z</time>
      </trkpt>
      <trkpt lat="47.27301" lon="6.11622">
        <ele>246.603</ele>
        <time>2016-09-06T08:30:01.000Z</time>
      </trkpt>
      <trkpt lat="47.27297" lon="6.11619">
        <ele>246.401</ele>
        <time>2016-09-06T08:30:02.000Z</time>
      </trkpt>
      <trkpt lat="47.27294" lon="6.11616">
        <ele>246.257</ele>
        <time>2016-09-06T08:30:03.000Z</time>
      </trkpt>
      <trkpt lat="47.2729" lon="6.11613">
        <ele>245.558</ele>
        <time>2016-09-06T08:30:04.000Z</time>
      </trkpt>
      <trkpt lat="47.27287" lon="6.1161">
        <ele>245.357</ele>
        <time>2016-09-06T08:30:05.000Z</time>
      </trkpt>
      <trkpt lat="47.27284" lon="6.11607">
        <ele>246.636</ele>
        <time>2016-09-06T08:30:06.000Z</time>
      </trkpt>
      <trkpt lat="47.27281" lon="6.11605">
        <ele>246.676</ele>
        <time>2016-09-06T08:30:07.000Z</time>
      </trkpt>
      <trkpt lat="47.27278" lon="6.11603">
        <ele>246.796</ele>
        <time>2016-09-06T08:30:08.000Z</time>
      </trkpt>
      <trkpt lat="47.27276" lon="6.11602">
        <ele>245.89</ele>
        <time>2016-09-06T08:30:09.000Z</time>
      </trkpt>
      <trkpt lat="47.27274" lon="6.116">
        <ele>245.162</ele>
        <time>2016-09-06T08:30:10.000Z</time>
      </trkpt>
      <trkpt lat="47.27273" lon="6.11598">
        <ele>244.374</ele>
        <time>2016-09-06T08:30:11.000Z</time>
      </trkpt>
      <trkpt lat="47.27273" lon="6.11597">
        <ele>243.775</ele>
        <time>2016-09-06T08:30:12.000Z</time>
      </trkpt>
      <trkpt lat="47.27273" lon="6.11597">
        <ele>243.353</ele>
        <time>2016-09-06T08:30:13.000Z</time>
      </trkpt>
      <trkpt lat="47.27273" lon="6.11597">
        <ele>241.929</ele>
        <time>2016-09-06T08:30:14.003Z</time>
      </trkpt>
      <trkpt lat="47.27273" lon="6.11597">
        <ele>241.682</ele>
        <time>2016-09-06T08:30:15.000Z</time>
      </trkpt>
      <trkpt lat="47.27273" lon="6.11597">
        <ele>242.306</ele>
        <time>2016-09-06T08:30:16.000Z</time>
      </trkpt>
      <trkpt lat="47.27273" lon="6.11597">
        <ele>242.901</ele>
        <time>2016-09-06T08:30:17.000Z</time>
      </trkpt>
      <trkpt lat="47.27273" lon="6.11597">
        <ele>243.183</ele>
        <time>2016-09-06T08:30:18.000Z</time>
      </trkpt>
      <trkpt lat="47.27273" lon="6.11597">
        <ele>244.434</ele>
        <time>2016-09-06T08:30:19.000Z</time>
      </trkpt>
      <trkpt lat="47.27273" lon="6.11597">
        <ele>244.333</ele>
        <time>2016-09-06T08:30:20.000Z</time>
      </trkpt>
      <trkpt lat="47.27273" lon="6.11597">
        <ele>244.265</ele>
        <time>2016-09-06T08:30:21.000Z</time>
      </trkpt>
      <trkpt lat="47.27274" lon="6.11598">
        <ele>244.4</ele>
        <time>2016-09-06T08:30:22.000Z</time>
      </trkpt>
      <trkpt lat="47.27274" lon="6.11598">
        <ele>244.908</ele>
        <time>2016-09-06T08:30:23.000Z</time>
      </trkpt>
      <trkpt lat="47.27274" lon="6.11598">
        <ele>244.963</ele>
        <time>2016-09-06T08:30:24.000Z</time>
      </trkpt>
      <trkpt lat="47.27274" lon="6.11598">
        <ele>245.271</ele>
        <time>2016-09-06T08:30:25.000Z</time>
      </trkpt>
      <trkpt lat="47.27274" lon="6.11598">
        <ele>245.291</ele>
        <time>2016-09-06T08:30:26.000Z</time>
      </trkpt>
      <trkpt lat="47.27274" lon="6.11598">
        <ele>245.276</ele>
        <time>2016-09-06T08:30:27.000Z</time>
      </trkpt>
      <trkpt lat="47.27274" lon="6.11598">
        <ele>246.176</ele>
        <time>2016-09-06T08:30:28.000Z</time>
      </trkpt>
      <trkpt lat="47.27274" lon="6.11598">
        <ele>246.362</ele>
        <time>2016-09-06T08:30:29.000Z</time>
      </trkpt>
      <trkpt lat="47.27274" lon="6.11598">
        <ele>246.476</ele>
        <time>2016-09-06T08:30:30.000Z</time>
      </trkpt>
      <trkpt lat="47.27274" lon="6.11598">
        <ele>246.033</ele>
        <time>2016-09-06T08:30:31.000Z</time>
      </trkpt>
      <trkpt lat="47.27274" lon="6.11598">
        <ele>245.715</ele>
        <time>2016-09-06T08:30:32.000Z</time>
      </trkpt>
      <trkpt lat="47.27274" lon="6.11598">
        <ele>245.141</ele>
        <time>2016-09-06T08:30:33.000Z</time>
      </trkpt>
      <trkpt lat="47.27274" lon="6.11598">
        <ele>245.263</ele>
        <time>2016-09-06T08:30:34.000Z</time>
      </trkpt>
      <trkpt lat="47.27274" lon="6.11598">
        <ele>245.716</ele>
        <time>2016-09-06T08:30:35.000Z</time>
      </trkpt>
      <trkpt lat="47.27274" lon="6.11598">
        <ele>245.723</ele>
        <time>2016-09-06T08:30:36.000Z</time>
      </trkpt>
      <trkpt lat="47.27274" lon="6.11598">
        <ele>246.039</ele>
        <time>2016-09-06T08:30:37.000Z</time>
      </trkpt>
      <trkpt lat="47.27274" lon="6.11598">
        <ele>246.014</ele>
        <time>2016-09-06T08:30:38.000Z</time>
      </trkpt>
      <trkpt lat="47.27274" lon="6.11598">
        <ele>245.721</ele>
        <time>2016-09-06T08:30:39.000Z</time>
      </trkpt>
      <trkpt lat="47.27274" lon="6.11598">
        <ele>246.178</ele>
        <time>2016-09-06T08:30:40.000Z</time>
      </trkpt>
      <trkpt lat="47.27274" lon="6.11598">
        <ele>246.011</ele>
        <time>2016-09-06T08:30:41.000Z</time>
      </trkpt>
      <trkpt lat="47.27274" lon="6.11598">
        <ele>246.947</ele>
        <time>2016-09-06T08:30:42.000Z</time>
      </trkpt>
      <trkpt lat="47.27274" lon="6.11598">
        <ele>247.37</ele>
        <time>2016-09-06T08:30:43.000Z</time>
      </trkpt>
      <trkpt lat="47.27274" lon="6.11598">
        <ele>247.505</ele>
        <time>2016-09-06T08:30:44.000Z</time>
      </trkpt>
      <trkpt lat="47.27274" lon="6.11598">
        <ele>246.994</ele>
        <time>2016-09-06T08:30:45.000Z</time>
      </trkpt>
      <trkpt lat="47.27274" lon="6.11598">
        <ele>246.294</ele>
        <time>2016-09-06T08:30:46.000Z</time>
      </trkpt>
      <trkpt lat="47.27274" lon="6.11598">
        <ele>246.386</ele>
        <time>2016-09-06T08:30:47.000Z</time>
      </trkpt>
      <trkpt lat="47.27274" lon="6.11598">
        <ele>245.993</ele>
        <time>2016-09-06T08:30:48.000Z</time>
      </trkpt>
      <trkpt lat="47.27274" lon="6.11598">
        <ele>246.316</ele>
        <time>2016-09-06T08:30:49.000Z</time>
      </trkpt>
      <trkpt lat="47.27274" lon="6.11598">
        <ele>246.444</ele>
        <time>2016-09-06T08:30:50.000Z</time>
      </trkpt>
      <trkpt lat="47.27278" lon="6.11601">
        <ele>246.355</ele>
        <time>2016-09-06T08:30:51.000Z</time>
      </trkpt>
      <trkpt lat="47.27278" lon="6.11601">
        <ele>246.38</ele>
        <time>2016-09-06T08:30:52.000Z</time>
      </trkpt>
      <trkpt lat="47.27278" lon="6.11601">
        <ele>245.865</ele>
        <time>2016-09-06T08:30:53.000Z</time>
      </trkpt>
      <trkpt lat="47.27278" lon="6.11601">
        <ele>246.129</ele>
        <time>2016-09-06T08:30:54.000Z</time>
      </trkpt>
      <trkpt lat="47.27278" lon="6.11602">
        <ele>246.033</ele>
        <time>2016-09-06T08:30:55.000Z</time>
      </trkpt>
      <trkpt lat="47.27278" lon="6.11602">
        <ele>246.209</ele>
        <time>2016-09-06T08:30:56.000Z</time>
      </trkpt>
      <trkpt lat="47.27278" lon="6.11602">
        <ele>246.803</ele>
        <time>2016-09-06T08:30:57.000Z</time>
      </trkpt>
      <trkpt lat="47.27278" lon="6.11602">
        <ele>247.205</ele>
        <time>2016-09-06T08:30:58.000Z</time>
      </trkpt>
      <trkpt lat="47.27278" lon="6.11602">
        <ele>247.269</ele>
        <time>2016-09-06T08:30:59.000Z</time>
      </trkpt>
      <trkpt lat="47.27278" lon="6.11602">
        <ele>247.486</ele>
        <time>2016-09-06T08:31:00.000Z</time>
      </trkpt>
      <trkpt lat="47.27278" lon="6.11602">
        <ele>247.498</ele>
        <time>2016-09-06T08:31:01.000Z</time>
      </trkpt>
      <trkpt lat="47.27278" lon="6.11602">
        <ele>247.402</ele>
        <time>2016-09-06T08:31:02.000Z</time>
      </trkpt>
      <trkpt lat="47.27278" lon="6.11602">
        <ele>247.606</ele>
        <time>2016-09-06T08:31:03.000Z</time>
      </trkpt>
      <trkpt lat="47.27278" lon="6.11602">
        <ele>248.247</ele>
        <time>2016-09-06T08:31:04.000Z</time>
      </trkpt>
      <trkpt lat="47.27278" lon="6.11602">
        <ele>247.754</ele>
        <time>2016-09-06T08:31:05.000Z</time>
      </trkpt>
      <trkpt lat="47.27278" lon="6.11602">
        <ele>247.348</ele>
        <time>2016-09-06T08:31:06.000Z</time>
      </trkpt>
      <trkpt lat="47.27278" lon="6.11602">
        <ele>247.449</ele>
        <time>2016-09-06T08:31:07.000Z</time>
      </trkpt>
      <trkpt lat="47.27278" lon="6.11602">
        <ele>247.64</ele>
        <time>2016-09-06T08:31:08.000Z</time>
      </trkpt>
      <trkpt lat="47.27278" lon="6.11602">
        <ele>247.664</ele>
        <time>2016-09-06T08:31:09.000Z</time>
      </trkpt>
      <trkpt lat="47.27277" lon="6.11602">
        <ele>248.059</ele>
        <time>2016-09-06T08:31:10.000Z</time>
      </trkpt>
      <trkpt lat="47.27277" lon="6.11602">
        <ele>247.946</ele>
        <time>2016-09-06T08:31:11.000Z</time>
      </trkpt>
      <trkpt lat="47.27277" lon="6.11602">
        <ele>247.665</ele>
        <time>2016-09-06T08:31:12.000Z</time>
      </trkpt>
      <trkpt lat="47.27277" lon="6.11602">
        <ele>247.224</ele>
        <time>2016-09-06T08:31:13.000Z</time>
      </trkpt>
      <trkpt lat="47.27277" lon="6.11602">
        <ele>246.658</ele>
        <time>2016-09-06T08:31:14.000Z</time>
      </trkpt>
      <trkpt lat="47.27277" lon="6.11602">
        <ele>246.446</ele>
        <time>2016-09-06T08:31:15.000Z</time>
      </trkpt>
      <trkpt lat="47.27277" lon="6.11602">
        <ele>246.069</ele>
        <time>2016-09-06T08:31:16.000Z</time>
      </trkpt>
      <trkpt lat="47.27277" lon="6.11602">
        <ele>245.591</ele>
        <time>2016-09-06T08:31:17.000Z</time>
      </trkpt>
      <trkpt lat="47.27277" lon="6.11602">
        <ele>245.38</ele>
        <time>2016-09-06T08:31:18.000Z</time>
      </trkpt>
      <trkpt lat="47.27277" lon="6.11602">
        <ele>245.261</ele>
        <time>2016-09-06T08:31:19.000Z</time>
      </trkpt>
      <trkpt lat="47.27277" lon="6.11602">
        <ele>245.321</ele>
        <time>2016-09-06T08:31:20.000Z</time>
      </trkpt>
      <trkpt lat="47.27277" lon="6.11602">
        <ele>245.563</ele>
        <time>2016-09-06T08:31:21.000Z</time>
      </trkpt>
      <trkpt lat="47.27277" lon="6.11602">
        <ele>245.674</ele>
        <time>2016-09-06T08:31:22.000Z</time>
      </trkpt>
      <trkpt lat="47.27277" lon="6.11602">
        <ele>245.705</ele>
        <time>2016-09-06T08:31:23.000Z</time>
      </trkpt>
      <trkpt lat="47.27277" lon="6.11602">
        <ele>245.785</ele>
        <time>2016-09-06T08:31:24.000Z</time>
      </trkpt>
      <trkpt lat="47.27277" lon="6.11602">
        <ele>245.839</ele>
        <time>2016-09-06T08:31:25.000Z</time>
      </trkpt>
      <trkpt lat="47.27277" lon="6.11602">
        <ele>245.781</ele>
        <time>2016-09-06T08:31:26.000Z</time>
      </trkpt>
      <trkpt lat="47.27277" lon="6.11602">
        <ele>245.772</ele>
        <time>2016-09-06T08:31:27.000Z</time>
      </trkpt>
      <trkpt lat="47.27277" lon="6.11602">
        <ele>245.768</ele>
        <time>2016-09-06T08:31:28.000Z</time>
      </trkpt>
      <trkpt lat="47.27277" lon="6.11602">
        <ele>245.767</ele>
        <time>2016-09-06T08:31:29.000Z</time>
      </trkpt>
      <trkpt lat="47.27277" lon="6.11602">
        <ele>245.766</ele>
        <time>2016-09-06T08:31:30.000Z</time>
      </trkpt>
      <trkpt lat="47.27277" lon="6.11602">
        <ele>245.765</ele>
        <time>2016-09-06T08:31:31.000Z</time>
      </trkpt>
      <trkpt lat="47.27277" lon="6.11602">
        <ele>245.763</ele>
        <time>2016-09-06T08:31:32.000Z</time>
      </trkpt>
      <trkpt lat="47.27277" lon="6.11602">
        <ele>245.768</ele>
        <time>2016-09-06T08:31:33.000Z</time>
      </trkpt>
      <trkpt lat="47.27277" lon="6.11602">
        <ele>245.766</ele>
        <time>2016-09-06T08:31:34.000Z</time>
      </trkpt>
      <trkpt lat="47.27277" lon="6.11602">
        <ele>245.764</ele>
        <time>2016-09-06T08:31:35.000Z</time>
      </trkpt>
      <trkpt lat="47.27277" lon="6.11602">
        <ele>245.771</ele>
        <time>2016-09-06T08:31:36.000Z</time>
      </trkpt>
      <trkpt lat="47.27277" lon="6.11602">
        <ele>245.774</ele>
        <time>2016-09-06T08:31:37.000Z</time>
      </trkpt>
      <trkpt lat="47.27277" lon="6.11602">
        <ele>245.779</ele>
        <time>2016-09-06T08:31:38.000Z</time>
      </trkpt>
      <trkpt lat="47.27277" lon="6.11602">
        <ele>245.783</ele>
        <time>2016-09-06T08:31:39.000Z</time>
      </trkpt>
      <trkpt lat="47.27277" lon="6.11602">
        <ele>245.781</ele>
        <time>2016-09-06T08:31:40.000Z</time>
      </trkpt>
      <trkpt lat="47.27277" lon="6.11602">
        <ele>245.785</ele>
        <time>2016-09-06T08:31:41.000Z</time>
      </trkpt>
      <trkpt lat="47.27277" lon="6.11602">
        <ele>245.782</ele>
        <time>2016-09-06T08:31:42.000Z</time>
      </trkpt>
      <trkpt lat="47.27277" lon="6.11602">
        <ele>245.786</ele>
        <time>2016-09-06T08:31:43.000Z</time>
      </trkpt>
      <trkpt lat="47.27277" lon="6.11602">
        <ele>245.786</ele>
        <time>2016-09-06T08:31:44.000Z</time>
      </trkpt>
      <trkpt lat="47.27277" lon="6.11602">
        <ele>245.788</ele>
        <time>2016-09-06T08:31:45.000Z</time>
      </trkpt>
      <trkpt lat="47.27277" lon="6.11602">
        <ele>245.787</ele>
        <time>2016-09-06T08:31:46.000Z</time>
      </trkpt>
      <trkpt lat="47.27277" lon="6.11602">
        <ele>245.788</ele>
        <time>2016-09-06T08:31:47.000Z</time>
      </trkpt>
      <trkpt lat="47.27277" lon="6.11602">
        <ele>245.788</ele>
        <time>2016-09-06T08:31:48.000Z</time>
      </trkpt>
      <trkpt lat="47.27277" lon="6.11602">
        <ele>245.784</ele>
        <time>2016-09-06T08:31:49.000Z</time>
      </trkpt>
      <trkpt lat="47.27277" lon="6.11602">
        <ele>245.778</ele>
        <time>2016-09-06T08:31:50.000Z</time>
      </trkpt>
      <trkpt lat="47.27277" lon="6.11602">
        <ele>245.779</ele>
        <time>2016-09-06T08:31:51.000Z</time>
      </trkpt>
      <trkpt lat="47.27277" lon="6.11602">
        <ele>245.781</ele>
        <time>2016-09-06T08:31:52.000Z</time>
      </trkpt>
      <trkpt lat="47.27277" lon="6.11602">
        <ele>245.78</ele>
        <time>2016-09-06T08:31:53.000Z</time>
      </trkpt>
      <trkpt lat="47.27277" lon="6.11602">
        <ele>245.777</ele>
        <time>2016-09-06T08:31:54.000Z</time>
      </trkpt>
      <trkpt lat="47.27277" lon="6.11602">
        <ele>245.774</ele>
        <time>2016-09-06T08:31:55.000Z</time>
      </trkpt>
      <trkpt lat="47.27277" lon="6.11602">
        <ele>245.775</ele>
        <time>2016-09-06T08:31:56.000Z</time>
      </trkpt>
      <trkpt lat="47.27277" lon="6.11602">
        <ele>245.773</ele>
        <time>2016-09-06T08:31:57.000Z</time>
      </trkpt>
      <trkpt lat="47.27277" lon="6.11602">
        <ele>245.772</ele>
        <time>2016-09-06T08:31:58.000Z</time>
      </trkpt>
      <trkpt lat="47.27277" lon="6.11602">
        <ele>245.771</ele>
        <time>2016-09-06T08:31:59.000Z</time>
      </trkpt>
      <trkpt lat="47.27277" lon="6.11602">
        <ele>245.77</ele>
        <time>2016-09-06T08:32:00.000Z</time>
      </trkpt>
      <trkpt lat="47.27277" lon="6.11602">
        <ele>245.768</ele>
        <time>2016-09-06T08:32:01.000Z</time>
      </trkpt>
      <trkpt lat="47.27277" lon="6.11602">
        <ele>245.761</ele>
        <time>2016-09-06T08:32:02.000Z</time>
      </trkpt>
      <trkpt lat="47.27277" lon="6.11602">
        <ele>245.756</ele>
        <time>2016-09-06T08:32:03.000Z</time>
      </trkpt>
      <trkpt lat="47.27277" lon="6.11602">
        <ele>245.756</ele>
        <time>2016-09-06T08:32:04.000Z</time>
      </trkpt>
      <trkpt lat="47.27277" lon="6.11602">
        <ele>245.754</ele>
        <time>2016-09-06T08:32:05.000Z</time>
      </trkpt>
      <trkpt lat="47.27277" lon="6.11602">
        <ele>245.752</ele>
        <time>2016-09-06T08:32:06.000Z</time>
      </trkpt>
      <trkpt lat="47.27277" lon="6.11602">
        <ele>245.751</ele>
        <time>2016-09-06T08:32:07.000Z</time>
      </trkpt>
      <trkpt lat="47.27277" lon="6.11602">
        <ele>245.75</ele>
        <time>2016-09-06T08:32:08.000Z</time>
      </trkpt>
      <trkpt lat="47.27277" lon="6.11602">
        <ele>245.744</ele>
        <time>2016-09-06T08:32:09.000Z</time>
      </trkpt>
      <trkpt lat="47.27277" lon="6.11602">
        <ele>245.739</ele>
        <time>2016-09-06T08:32:10.000Z</time>
      </trkpt>
      <trkpt lat="47.27277" lon="6.11602">
        <ele>245.732</ele>
        <time>2016-09-06T08:32:11.000Z</time>
      </trkpt>
      <trkpt lat="47.27277" lon="6.11602">
        <ele>245.729</ele>
        <time>2016-09-06T08:32:12.000Z</time>
      </trkpt>
      <trkpt lat="47.27277" lon="6.11602">
        <ele>245.722</ele>
        <time>2016-09-06T08:32:13.000Z</time>
      </trkpt>
      <trkpt lat="47.27277" lon="6.11602">
        <ele>245.716</ele>
        <time>2016-09-06T08:32:14.000Z</time>
      </trkpt>
      <trkpt lat="47.27277" lon="6.11602">
        <ele>245.709</ele>
        <time>2016-09-06T08:32:15.000Z</time>
      </trkpt>
      <trkpt lat="47.27277" lon="6.11602">
        <ele>245.703</ele>
        <time>2016-09-06T08:32:16.000Z</time>
      </trkpt>
      <trkpt lat="47.27277" lon="6.11602">
        <ele>245.699</ele>
        <time>2016-09-06T08:32:17.000Z</time>
      </trkpt>
      <trkpt lat="47.27277" lon="6.11602">
        <ele>245.696</ele>
        <time>2016-09-06T08:32:18.000Z</time>
      </trkpt>
      <trkpt lat="47.27277" lon="6.11602">
        <ele>245.697</ele>
        <time>2016-09-06T08:32:19.000Z</time>
      </trkpt>
      <trkpt lat="47.27277" lon="6.11602">
        <ele>245.691</ele>
        <time>2016-09-06T08:32:20.000Z</time>
      </trkpt>
      <trkpt lat="47.27277" lon="6.11602">
        <ele>245.685</ele>
        <time>2016-09-06T08:32:21.000Z</time>
      </trkpt>
      <trkpt lat="47.27277" lon="6.11602">
        <ele>245.686</ele>
        <time>2016-09-06T08:32:22.000Z</time>
      </trkpt>
      <trkpt lat="47.27277" lon="6.11602">
        <ele>245.683</ele>
        <time>2016-09-06T08:32:23.000Z</time>
      </trkpt>
      <trkpt lat="47.27277" lon="6.11602">
        <ele>245.68</ele>
        <time>2016-09-06T08:32:24.000Z</time>
      </trkpt>
      <trkpt lat="47.27277" lon="6.11602">
        <ele>245.683</ele>
        <time>2016-09-06T08:32:25.000Z</time>
      </trkpt>
      <trkpt lat="47.27277" lon="6.11602">
        <ele>245.686</ele>
        <time>2016-09-06T08:32:26.000Z</time>
      </trkpt>
      <trkpt lat="47.27277" lon="6.11602">
        <ele>245.683</ele>
        <time>2016-09-06T08:32:27.000Z</time>
      </trkpt>
      <trkpt lat="47.27277" lon="6.11602">
        <ele>245.683</ele>
        <time>2016-09-06T08:32:28.000Z</time>
      </trkpt>
      <trkpt lat="47.27277" lon="6.11602">
        <ele>245.684</ele>
        <time>2016-09-06T08:32:29.000Z</time>
      </trkpt>
      <trkpt lat="47.27277" lon="6.11602">
        <ele>245.686</ele>
        <time>2016-09-06T08:32:30.000Z</time>
      </trkpt>
      <trkpt lat="47.27277" lon="6.11602">
        <ele>245.685</ele>
        <time>2016-09-06T08:32:31.000Z</time>
      </trkpt>
      <trkpt lat="47.27277" lon="6.11602">
        <ele>245.688</ele>
        <time>2016-09-06T08:32:32.000Z</time>
      </trkpt>
      <trkpt lat="47.27277" lon="6.11602">
        <ele>245.685</ele>
        <time>2016-09-06T08:32:33.000Z</time>
      </trkpt>
      <trkpt lat="47.27277" lon="6.11602">
        <ele>245.683</ele>
        <time>2016-09-06T08:32:34.000Z</time>
      </trkpt>
      <trkpt lat="47.27277" lon="6.11602">
        <ele>245.683</ele>
        <time>2016-09-06T08:32:35.000Z</time>
      </trkpt>
      <trkpt lat="47.27277" lon="6.11602">
        <ele>245.681</ele>
        <time>2016-09-06T08:32:36.000Z</time>
      </trkpt>
      <trkpt lat="47.27277" lon="6.11602">
        <ele>245.679</ele>
        <time>2016-09-06T08:32:37.000Z</time>
      </trkpt>
      <trkpt lat="47.27277" lon="6.11602">
        <ele>245.681</ele>
        <time>2016-09-06T08:32:38.000Z</time>
      </trkpt>
      <trkpt lat="47.27277" lon="6.11602">
        <ele>245.684</ele>
        <time>2016-09-06T08:32:39.000Z</time>
      </trkpt>
      <trkpt lat="47.27277" lon="6.11602">
        <ele>245.681</ele>
        <time>2016-09-06T08:32:40.000Z</time>
      </trkpt>
      <trkpt lat="47.27277" lon="6.11602">
        <ele>245.678</ele>
        <time>2016-09-06T08:32:41.000Z</time>
      </trkpt>
      <trkpt lat="47.27277" lon="6.11602">
        <ele>245.68</ele>
        <time>2016-09-06T08:32:42.000Z</time>
      </trkpt>
      <trkpt lat="47.27277" lon="6.11602">
        <ele>245.685</ele>
        <time>2016-09-06T08:32:43.000Z</time>
      </trkpt>
      <trkpt lat="47.27277" lon="6.11602">
        <ele>245.685</ele>
        <time>2016-09-06T08:32:44.000Z</time>
      </trkpt>
      <trkpt lat="47.27277" lon="6.11602">
        <ele>245.686</ele>
        <time>2016-09-06T08:32:45.000Z</time>
      </trkpt>
      <trkpt lat="47.27277" lon="6.11602">
        <ele>245.687</ele>
        <time>2016-09-06T08:32:46.000Z</time>
      </trkpt>
      <trkpt lat="47.27277" lon="6.11602">
        <ele>245.694</ele>
        <time>2016-09-06T08:32:47.000Z</time>
      </trkpt>
      <trkpt lat="47.27277" lon="6.11602">
        <ele>245.696</ele>
        <time>2016-09-06T08:32:48.000Z</time>
      </trkpt>
      <trkpt lat="47.27277" lon="6.11602">
        <ele>245.698</ele>
        <time>2016-09-06T08:32:49.000Z</time>
      </trkpt>
      <trkpt lat="47.27277" lon="6.11602">
        <ele>245.7</ele>
        <time>2016-09-06T08:32:50.000Z</time>
      </trkpt>
      <trkpt lat="47.27277" lon="6.11602">
        <ele>245.709</ele>
        <time>2016-09-06T08:32:51.000Z</time>
      </trkpt>
      <trkpt lat="47.27277" lon="6.11602">
        <ele>245.717</ele>
        <time>2016-09-06T08:32:52.000Z</time>
      </trkpt>
      <trkpt lat="47.27277" lon="6.11602">
        <ele>245.717</ele>
        <time>2016-09-06T08:32:53.000Z</time>
      </trkpt>
      <trkpt lat="47.27277" lon="6.11602">
        <ele>245.716</ele>
        <time>2016-09-06T08:32:54.000Z</time>
      </trkpt>
      <trkpt lat="47.27277" lon="6.11602">
        <ele>245.714</ele>
        <time>2016-09-06T08:32:55.000Z</time>
      </trkpt>
      <trkpt lat="47.27277" lon="6.11602">
        <ele>245.712</ele>
        <time>2016-09-06T08:32:56.000Z</time>
      </trkpt>
      <trkpt lat="47.27277" lon="6.11602">
        <ele>245.714</ele>
        <time>2016-09-06T08:32:57.000Z</time>
      </trkpt>
      <trkpt lat="47.27277" lon="6.11602">
        <ele>245.718</ele>
        <time>2016-09-06T08:32:58.000Z</time>
      </trkpt>
      <trkpt lat="47.27277" lon="6.11602">
        <ele>245.717</ele>
        <time>2016-09-06T08:32:59.000Z</time>
      </trkpt>
      <trkpt lat="47.27277" lon="6.11602">
        <ele>245.716</ele>
        <time>2016-09-06T08:33:00.000Z</time>
      </trkpt>
      <trkpt lat="47.27277" lon="6.11602">
        <ele>245.717</ele>
        <time>2016-09-06T08:33:01.000Z</time>
      </trkpt>
      <trkpt lat="47.27277" lon="6.11602">
        <ele>245.718</ele>
        <time>2016-09-06T08:33:02.000Z</time>
      </trkpt>
      <trkpt lat="47.27277" lon="6.11602">
        <ele>245.718</ele>
        <time>2016-09-06T08:33:03.000Z</time>
      </trkpt>
      <trkpt lat="47.27277" lon="6.11602">
        <ele>245.717</ele>
        <time>2016-09-06T08:33:04.000Z</time>
      </trkpt>
      <trkpt lat="47.27277" lon="6.11602">
        <ele>245.716</ele>
        <time>2016-09-06T08:33:05.000Z</time>
      </trkpt>
      <trkpt lat="47.27277" lon="6.11602">
        <ele>245.715</ele>
        <time>2016-09-06T08:33:06.000Z</time>
      </trkpt>
      <trkpt lat="47.27277" lon="6.11602">
        <ele>245.719</ele>
        <time>2016-09-06T08:33:07.000Z</time>
      </trkpt>
      <trkpt lat="47.27277" lon="6.11602">
        <ele>245.719</ele>
        <time>2016-09-06T08:33:08.000Z</time>
      </trkpt>
      <trkpt lat="47.27277" lon="6.11602">
        <ele>245.72</ele>
        <time>2016-09-06T08:33:09.000Z</time>
      </trkpt>
      <trkpt lat="47.27277" lon="6.11602">
        <ele>245.72</ele>
        <time>2016-09-06T08:33:10.000Z</time>
      </trkpt>
      <trkpt lat="47.27277" lon="6.11602">
        <ele>245.72</ele>
        <time>2016-09-06T08:33:11.000Z</time>
      </trkpt>
      <trkpt lat="47.27277" lon="6.11602">
        <ele>245.721</ele>
        <time>2016-09-06T08:33:12.000Z</time>
      </trkpt>
      <trkpt lat="47.27277" lon="6.11602">
        <ele>245.72</ele>
        <time>2016-09-06T08:33:13.000Z</time>
      </trkpt>
      <trkpt lat="47.27277" lon="6.11602">
        <ele>245.72</ele>
        <time>2016-09-06T08:33:14.000Z</time>
      </trkpt>
      <trkpt lat="47.27277" lon="6.11602">
        <ele>245.72</ele>
        <time>2016-09-06T08:33:15.000Z</time>
      </trkpt>
      <trkpt lat="47.27277" lon="6.11602">
        <ele>245.727</ele>
        <time>2016-09-06T08:33:16.000Z</time>
      </trkpt>
      <trkpt lat="47.27277" lon="6.11602">
        <ele>245.729</ele>
        <time>2016-09-06T08:33:17.000Z</time>
      </trkpt>
      <trkpt lat="47.27277" lon="6.11602">
        <ele>245.737</ele>
        <time>2016-09-06T08:33:18.000Z</time>
      </trkpt>
      <trkpt lat="47.27277" lon="6.11602">
        <ele>245.738</ele>
        <time>2016-09-06T08:33:19.000Z</time>
      </trkpt>
      <trkpt lat="47.27277" lon="6.11602">
        <ele>245.746</ele>
        <time>2016-09-06T08:33:20.000Z</time>
      </trkpt>
      <trkpt lat="47.27277" lon="6.11602">
        <ele>245.753</ele>
        <time>2016-09-06T08:33:21.000Z</time>
      </trkpt>
      <trkpt lat="47.27277" lon="6.11602">
        <ele>245.752</ele>
        <time>2016-09-06T08:33:22.000Z</time>
      </trkpt>
      <trkpt lat="47.27277" lon="6.11602">
        <ele>245.754</ele>
        <time>2016-09-06T08:33:23.000Z</time>
      </trkpt>
      <trkpt lat="47.27277" lon="6.11602">
        <ele>245.756</ele>
        <time>2016-09-06T08:33:24.000Z</time>
      </trkpt>
      <trkpt lat="47.27277" lon="6.11602">
        <ele>245.756</ele>
        <time>2016-09-06T08:33:25.000Z</time>
      </trkpt>
      <trkpt lat="47.27277" lon="6.11602">
        <ele>245.756</ele>
        <time>2016-09-06T08:33:26.000Z</time>
      </trkpt>
      <trkpt lat="47.27277" lon="6.11602">
        <ele>245.758</ele>
        <time>2016-09-06T08:33:27.000Z</time>
      </trkpt>
      <trkpt lat="47.27277" lon="6.11602">
        <ele>245.76</ele>
        <time>2016-09-06T08:33:28.000Z</time>
      </trkpt>
      <trkpt lat="47.27277" lon="6.11602">
        <ele>245.759</ele>
        <time>2016-09-06T08:33:29.000Z</time>
      </trkpt>
      <trkpt lat="47.27277" lon="6.11602">
        <ele>245.76</ele>
        <time>2016-09-06T08:33:30.000Z</time>
      </trkpt>
      <trkpt lat="47.27277" lon="6.11602">
        <ele>245.758</ele>
        <time>2016-09-06T08:33:31.000Z</time>
      </trkpt>
      <trkpt lat="47.27277" lon="6.11602">
        <ele>245.759</ele>
        <time>2016-09-06T08:33:32.000Z</time>
      </trkpt>
      <trkpt lat="47.27277" lon="6.11602">
        <ele>245.755</ele>
        <time>2016-09-06T08:33:33.000Z</time>
      </trkpt>
      <trkpt lat="47.27277" lon="6.11602">
        <ele>245.757</ele>
        <time>2016-09-06T08:33:34.000Z</time>
      </trkpt>
      <trkpt lat="47.27277" lon="6.11602">
        <ele>245.755</ele>
        <time>2016-09-06T08:33:35.000Z</time>
      </trkpt>
      <trkpt lat="47.27277" lon="6.11602">
        <ele>245.754</ele>
        <time>2016-09-06T08:33:36.000Z</time>
      </trkpt>
      <trkpt lat="47.27277" lon="6.11602">
        <ele>245.754</ele>
        <time>2016-09-06T08:33:37.000Z</time>
      </trkpt>
      <trkpt lat="47.27277" lon="6.11602">
        <ele>245.753</ele>
        <time>2016-09-06T08:33:38.000Z</time>
      </trkpt>
      <trkpt lat="47.27277" lon="6.11602">
        <ele>245.756</ele>
        <time>2016-09-06T08:33:39.000Z</time>
      </trkpt>
      <trkpt lat="47.27277" lon="6.11602">
        <ele>245.757</ele>
        <time>2016-09-06T08:33:40.000Z</time>
      </trkpt>
      <trkpt lat="47.27277" lon="6.11602">
        <ele>245.756</ele>
        <time>2016-09-06T08:33:41.000Z</time>
      </trkpt>
      <trkpt lat="47.27277" lon="6.11602">
        <ele>245.756</ele>
        <time>2016-09-06T08:33:42.000Z</time>
      </trkpt>
      <trkpt lat="47.27277" lon="6.11602">
        <ele>245.755</ele>
        <time>2016-09-06T08:33:43.000Z</time>
      </trkpt>
      <trkpt lat="47.27277" lon="6.11602">
        <ele>245.757</ele>
        <time>2016-09-06T08:33:44.000Z</time>
      </trkpt>
      <trkpt lat="47.27277" lon="6.11602">
        <ele>245.758</ele>
        <time>2016-09-06T08:33:45.000Z</time>
      </trkpt>
      <trkpt lat="47.27277" lon="6.11602">
        <ele>245.76</ele>
        <time>2016-09-06T08:33:46.000Z</time>
      </trkpt>
      <trkpt lat="47.27277" lon="6.11602">
        <ele>245.762</ele>
        <time>2016-09-06T08:33:47.000Z</time>
      </trkpt>
      <trkpt lat="47.27277" lon="6.11602">
        <ele>245.763</ele>
        <time>2016-09-06T08:33:48.000Z</time>
      </trkpt>
      <trkpt lat="47.27277" lon="6.11602">
        <ele>245.766</ele>
        <time>2016-09-06T08:33:49.000Z</time>
      </trkpt>
      <trkpt lat="47.27277" lon="6.11602">
        <ele>245.764</ele>
        <time>2016-09-06T08:33:50.000Z</time>
      </trkpt>
      <trkpt lat="47.27277" lon="6.11602">
        <ele>245.764</ele>
        <time>2016-09-06T08:33:51.000Z</time>
      </trkpt>
      <trkpt lat="47.27277" lon="6.11602">
        <ele>245.764</ele>
        <time>2016-09-06T08:33:52.000Z</time>
      </trkpt>
      <trkpt lat="47.27277" lon="6.11602">
        <ele>245.763</ele>
        <time>2016-09-06T08:33:53.000Z</time>
      </trkpt>
      <trkpt lat="47.27277" lon="6.11602">
        <ele>245.762</ele>
        <time>2016-09-06T08:33:54.000Z</time>
      </trkpt>
      <trkpt lat="47.27277" lon="6.11602">
        <ele>245.763</ele>
        <time>2016-09-06T08:33:55.000Z</time>
      </trkpt>
      <trkpt lat="47.27277" lon="6.11602">
        <ele>245.761</ele>
        <time>2016-09-06T08:33:56.000Z</time>
      </trkpt>
      <trkpt lat="47.27277" lon="6.11602">
        <ele>245.761</ele>
        <time>2016-09-06T08:33:57.000Z</time>
      </trkpt>
      <trkpt lat="47.27277" lon="6.11602">
        <ele>245.759</ele>
        <time>2016-09-06T08:33:58.000Z</time>
      </trkpt>
      <trkpt lat="47.27277" lon="6.11602">
        <ele>245.758</ele>
        <time>2016-09-06T08:33:59.000Z</time>
      </trkpt>
      <trkpt lat="47.27277" lon="6.11602">
        <ele>245.759</ele>
        <time>2016-09-06T08:34:00.000Z</time>
      </trkpt>
      <trkpt lat="47.27277" lon="6.11602">
        <ele>245.76</ele>
        <time>2016-09-06T08:34:01.000Z</time>
      </trkpt>
      <trkpt lat="47.27277" lon="6.11602">
        <ele>245.766</ele>
        <time>2016-09-06T08:34:02.000Z</time>
      </trkpt>
      <trkpt lat="47.27277" lon="6.11602">
        <ele>245.768</ele>
        <time>2016-09-06T08:34:03.000Z</time>
      </trkpt>
      <trkpt lat="47.27277" lon="6.11602">
        <ele>245.77</ele>
        <time>2016-09-06T08:34:04.000Z</time>
      </trkpt>
      <trkpt lat="47.27277" lon="6.11602">
        <ele>245.77</ele>
        <time>2016-09-06T08:34:05.000Z</time>
      </trkpt>
      <trkpt lat="47.27277" lon="6.11602">
        <ele>245.769</ele>
        <time>2016-09-06T08:34:06.000Z</time>
      </trkpt>
      <trkpt lat="47.27277" lon="6.11602">
        <ele>245.771</ele>
        <time>2016-09-06T08:34:07.000Z</time>
      </trkpt>
      <trkpt lat="47.27277" lon="6.11602">
        <ele>245.769</ele>
        <time>2016-09-06T08:34:08.000Z</time>
      </trkpt>
      <trkpt lat="47.27277" lon="6.11602">
        <ele>245.769</ele>
        <time>2016-09-06T08:34:09.000Z</time>
      </trkpt>
      <trkpt lat="47.27277" lon="6.11602">
        <ele>245.766</ele>
        <time>2016-09-06T08:34:10.000Z</time>
      </trkpt>
      <trkpt lat="47.27277" lon="6.11602">
        <ele>245.764</ele>
        <time>2016-09-06T08:34:11.000Z</time>
      </trkpt>
      <trkpt lat="47.27277" lon="6.11602">
        <ele>245.76</ele>
        <time>2016-09-06T08:34:12.000Z</time>
      </trkpt>
      <trkpt lat="47.27277" lon="6.11602">
        <ele>245.756</ele>
        <time>2016-09-06T08:34:13.000Z</time>
      </trkpt>
      <trkpt lat="47.27277" lon="6.11602">
        <ele>245.751</ele>
        <time>2016-09-06T08:34:14.000Z</time>
      </trkpt>
      <trkpt lat="47.27277" lon="6.11602">
        <ele>245.747</ele>
        <time>2016-09-06T08:34:15.000Z</time>
      </trkpt>
      <trkpt lat="47.27277" lon="6.11602">
        <ele>245.74</ele>
        <time>2016-09-06T08:34:16.000Z</time>
      </trkpt>
      <trkpt lat="47.27277" lon="6.11602">
        <ele>245.736</ele>
        <time>2016-09-06T08:34:17.000Z</time>
      </trkpt>
      <trkpt lat="47.27277" lon="6.11602">
        <ele>245.731</ele>
        <time>2016-09-06T08:34:18.000Z</time>
      </trkpt>
      <trkpt lat="47.27277" lon="6.11602">
        <ele>245.732</ele>
        <time>2016-09-06T08:34:19.000Z</time>
      </trkpt>
      <trkpt lat="47.27277" lon="6.11602">
        <ele>245.729</ele>
        <time>2016-09-06T08:34:20.000Z</time>
      </trkpt>
      <trkpt lat="47.27277" lon="6.11602">
        <ele>245.721</ele>
        <time>2016-09-06T08:34:21.000Z</time>
      </trkpt>
      <trkpt lat="47.27277" lon="6.11602">
        <ele>245.725</ele>
        <time>2016-09-06T08:34:22.000Z</time>
      </trkpt>
      <trkpt lat="47.27277" lon="6.11602">
        <ele>245.726</ele>
        <time>2016-09-06T08:34:23.000Z</time>
      </trkpt>
      <trkpt lat="47.27277" lon="6.11602">
        <ele>245.729</ele>
        <time>2016-09-06T08:34:24.000Z</time>
      </trkpt>
      <trkpt lat="47.27277" lon="6.11602">
        <ele>245.73</ele>
        <time>2016-09-06T08:34:25.000Z</time>
      </trkpt>
      <trkpt lat="47.27277" lon="6.11602">
        <ele>245.732</ele>
        <time>2016-09-06T08:34:26.000Z</time>
      </trkpt>
      <trkpt lat="47.27277" lon="6.11602">
        <ele>245.736</ele>
        <time>2016-09-06T08:34:27.000Z</time>
      </trkpt>
      <trkpt lat="47.27277" lon="6.11602">
        <ele>245.739</ele>
        <time>2016-09-06T08:34:28.000Z</time>
      </trkpt>
      <trkpt lat="47.27277" lon="6.11602">
        <ele>245.742</ele>
        <time>2016-09-06T08:34:29.000Z</time>
      </trkpt>
      <trkpt lat="47.27277" lon="6.11602">
        <ele>245.746</ele>
        <time>2016-09-06T08:34:30.000Z</time>
      </trkpt>
      <trkpt lat="47.27277" lon="6.11602">
        <ele>245.746</ele>
        <time>2016-09-06T08:34:31.000Z</time>
      </trkpt>
      <trkpt lat="47.27277" lon="6.11602">
        <ele>245.75</ele>
        <time>2016-09-06T08:34:32.000Z</time>
      </trkpt>
      <trkpt lat="47.27277" lon="6.11602">
        <ele>245.744</ele>
        <time>2016-09-06T08:34:33.000Z</time>
      </trkpt>
      <trkpt lat="47.27277" lon="6.11602">
        <ele>245.743</ele>
        <time>2016-09-06T08:34:34.000Z</time>
      </trkpt>
      <trkpt lat="47.27277" lon="6.11602">
        <ele>245.743</ele>
        <time>2016-09-06T08:34:35.000Z</time>
      </trkpt>
      <trkpt lat="47.27277" lon="6.11602">
        <ele>245.745</ele>
        <time>2016-09-06T08:34:36.000Z</time>
      </trkpt>
      <trkpt lat="47.27277" lon="6.11602">
        <ele>245.739</ele>
        <time>2016-09-06T08:34:37.000Z</time>
      </trkpt>
      <trkpt lat="47.27277" lon="6.11602">
        <ele>245.736</ele>
        <time>2016-09-06T08:34:38.000Z</time>
      </trkpt>
      <trkpt lat="47.27277" lon="6.11602">
        <ele>245.73</ele>
        <time>2016-09-06T08:34:39.000Z</time>
      </trkpt>
      <trkpt lat="47.27277" lon="6.11602">
        <ele>245.727</ele>
        <time>2016-09-06T08:34:40.000Z</time>
      </trkpt>
      <trkpt lat="47.27277" lon="6.11602">
        <ele>245.722</ele>
        <time>2016-09-06T08:34:41.000Z</time>
      </trkpt>
      <trkpt lat="47.27275" lon="6.11601">
        <ele>245.671</ele>
        <time>2016-09-06T08:34:42.000Z</time>
      </trkpt>
      <trkpt lat="47.27275" lon="6.11601">
        <ele>245.806</ele>
        <time>2016-09-06T08:34:43.000Z</time>
      </trkpt>
      <trkpt lat="47.27275" lon="6.11601">
        <ele>245.873</ele>
        <time>2016-09-06T08:34:44.000Z</time>
      </trkpt>
      <trkpt lat="47.27275" lon="6.11601">
        <ele>246.134</ele>
        <time>2016-09-06T08:34:45.000Z</time>
      </trkpt>
      <trkpt lat="47.27275" lon="6.11601">
        <ele>246.009</ele>
        <time>2016-09-06T08:34:46.000Z</time>
      </trkpt>
      <trkpt lat="47.27275" lon="6.11601">
        <ele>245.948</ele>
        <time>2016-09-06T08:34:47.000Z</time>
      </trkpt>
      <trkpt lat="47.27275" lon="6.11601">
        <ele>246.238</ele>
        <time>2016-09-06T08:34:48.000Z</time>
      </trkpt>
      <trkpt lat="47.27275" lon="6.11601">
        <ele>246.604</ele>
        <time>2016-09-06T08:34:49.000Z</time>
      </trkpt>
      <trkpt lat="47.27275" lon="6.11601">
        <ele>246.291</ele>
        <time>2016-09-06T08:34:50.000Z</time>
      </trkpt>
      <trkpt lat="47.27275" lon="6.11601">
        <ele>246.687</ele>
        <time>2016-09-06T08:34:51.000Z</time>
      </trkpt>
      <trkpt lat="47.27275" lon="6.11601">
        <ele>246.713</ele>
        <time>2016-09-06T08:34:52.000Z</time>
      </trkpt>
      <trkpt lat="47.27275" lon="6.11601">
        <ele>246.458</ele>
        <time>2016-09-06T08:34:53.000Z</time>
      </trkpt>
      <trkpt lat="47.27275" lon="6.11601">
        <ele>246.161</ele>
        <time>2016-09-06T08:34:54.000Z</time>
      </trkpt>
      <trkpt lat="47.27275" lon="6.11601">
        <ele>246.22</ele>
        <time>2016-09-06T08:34:55.000Z</time>
      </trkpt>
      <trkpt lat="47.27275" lon="6.11601">
        <ele>246.034</ele>
        <time>2016-09-06T08:34:56.000Z</time>
      </trkpt>
      <trkpt lat="47.27275" lon="6.11601">
        <ele>246.243</ele>
        <time>2016-09-06T08:34:57.000Z</time>
      </trkpt>
      <trkpt lat="47.27275" lon="6.11601">
        <ele>246.177</ele>
        <time>2016-09-06T08:34:58.000Z</time>
      </trkpt>
      <trkpt lat="47.27276" lon="6.11601">
        <ele>246.234</ele>
        <time>2016-09-06T08:34:59.000Z</time>
      </trkpt>
      <trkpt lat="47.27276" lon="6.11601">
        <ele>245.691</ele>
        <time>2016-09-06T08:35:00.000Z</time>
      </trkpt>
      <trkpt lat="47.27276" lon="6.116">
        <ele>245.974</ele>
        <time>2016-09-06T08:35:01.000Z</time>
      </trkpt>
      <trkpt lat="47.27275" lon="6.116">
        <ele>245.029</ele>
        <time>2016-09-06T08:35:02.000Z</time>
      </trkpt>
      <trkpt lat="47.27275" lon="6.116">
        <ele>244.756</ele>
        <time>2016-09-06T08:35:03.000Z</time>
      </trkpt>
      <trkpt lat="47.27275" lon="6.116">
        <ele>244.81</ele>
        <time>2016-09-06T08:35:04.000Z</time>
      </trkpt>
      <trkpt lat="47.27275" lon="6.116">
        <ele>245.536</ele>
        <time>2016-09-06T08:35:05.000Z</time>
      </trkpt>
      <trkpt lat="47.27275" lon="6.116">
        <ele>245.292</ele>
        <time>2016-09-06T08:35:06.000Z</time>
      </trkpt>
      <trkpt lat="47.27275" lon="6.116">
        <ele>245.157</ele>
        <time>2016-09-06T08:35:07.000Z</time>
      </trkpt>
      <trkpt lat="47.27275" lon="6.116">
        <ele>246.06</ele>
        <time>2016-09-06T08:35:08.000Z</time>
      </trkpt>
      <trkpt lat="47.27275" lon="6.116">
        <ele>247.189</ele>
        <time>2016-09-06T08:35:09.000Z</time>
      </trkpt>
      <trkpt lat="47.27275" lon="6.116">
        <ele>247.562</ele>
        <time>2016-09-06T08:35:10.000Z</time>
      </trkpt>
      <trkpt lat="47.27275" lon="6.116">
        <ele>247.087</ele>
        <time>2016-09-06T08:35:11.000Z</time>
      </trkpt>
      <trkpt lat="47.27275" lon="6.116">
        <ele>245.953</ele>
        <time>2016-09-06T08:35:12.000Z</time>
      </trkpt>
      <trkpt lat="47.27275" lon="6.116">
        <ele>245.202</ele>
        <time>2016-09-06T08:35:13.000Z</time>
      </trkpt>
      <trkpt lat="47.27275" lon="6.116">
        <ele>245.511</ele>
        <time>2016-09-06T08:35:14.000Z</time>
      </trkpt>
      <trkpt lat="47.27275" lon="6.116">
        <ele>245.626</ele>
        <time>2016-09-06T08:35:15.000Z</time>
      </trkpt>
      <trkpt lat="47.27275" lon="6.116">
        <ele>245.477</ele>
        <time>2016-09-06T08:35:16.000Z</time>
      </trkpt>
      <trkpt lat="47.27275" lon="6.116">
        <ele>245.886</ele>
        <time>2016-09-06T08:35:17.000Z</time>
      </trkpt>
      <trkpt lat="47.27275" lon="6.116">
        <ele>245.258</ele>
        <time>2016-09-06T08:35:18.000Z</time>
      </trkpt>
      <trkpt lat="47.27275" lon="6.116">
        <ele>245.576</ele>
        <time>2016-09-06T08:35:19.000Z</time>
      </trkpt>
      <trkpt lat="47.27275" lon="6.116">
        <ele>245.711</ele>
        <time>2016-09-06T08:35:20.000Z</time>
      </trkpt>
      <trkpt lat="47.27275" lon="6.116">
        <ele>244.866</ele>
        <time>2016-09-06T08:35:21.000Z</time>
      </trkpt>
      <trkpt lat="47.27275" lon="6.116">
        <ele>244.931</ele>
        <time>2016-09-06T08:35:22.000Z</time>
      </trkpt>
      <trkpt lat="47.27275" lon="6.116">
        <ele>245.177</ele>
        <time>2016-09-06T08:35:23.000Z</time>
      </trkpt>
      <trkpt lat="47.27275" lon="6.116">
        <ele>245.278</ele>
        <time>2016-09-06T08:35:24.000Z</time>
      </trkpt>
      <trkpt lat="47.27274" lon="6.116">
        <ele>245.108</ele>
        <time>2016-09-06T08:35:25.000Z</time>
      </trkpt>
      <trkpt lat="47.27274" lon="6.116">
        <ele>244.649</ele>
        <time>2016-09-06T08:35:26.000Z</time>
      </trkpt>
      <trkpt lat="47.27274" lon="6.116">
        <ele>243.929</ele>
        <time>2016-09-06T08:35:27.000Z</time>
      </trkpt>
      <trkpt lat="47.27274" lon="6.116">
        <ele>244.674</ele>
        <time>2016-09-06T08:35:28.000Z</time>
      </trkpt>
      <trkpt lat="47.27274" lon="6.116">
        <ele>244.721</ele>
        <time>2016-09-06T08:35:29.000Z</time>
      </trkpt>
      <trkpt lat="47.27274" lon="6.116">
        <ele>244.696</ele>
        <time>2016-09-06T08:35:30.000Z</time>
      </trkpt>
      <trkpt lat="47.27274" lon="6.116">
        <ele>244.832</ele>
        <time>2016-09-06T08:35:31.000Z</time>
      </trkpt>
      <trkpt lat="47.27274" lon="6.116">
        <ele>244.334</ele>
        <time>2016-09-06T08:35:32.000Z</time>
      </trkpt>
      <trkpt lat="47.27274" lon="6.116">
        <ele>244.422</ele>
        <time>2016-09-06T08:35:33.000Z</time>
      </trkpt>
      <trkpt lat="47.27274" lon="6.116">
        <ele>245.267</ele>
        <time>2016-09-06T08:35:34.000Z</time>
      </trkpt>
      <trkpt lat="47.27274" lon="6.116">
        <ele>245.658</ele>
        <time>2016-09-06T08:35:35.000Z</time>
      </trkpt>
      <trkpt lat="47.27274" lon="6.116">
        <ele>246.652</ele>
        <time>2016-09-06T08:35:36.000Z</time>
      </trkpt>
      <trkpt lat="47.27274" lon="6.116">
        <ele>246.662</ele>
        <time>2016-09-06T08:35:37.000Z</time>
      </trkpt>
      <trkpt lat="47.27274" lon="6.116">
        <ele>246.67</ele>
        <time>2016-09-06T08:35:38.000Z</time>
      </trkpt>
      <trkpt lat="47.27274" lon="6.116">
        <ele>246.669</ele>
        <time>2016-09-06T08:35:39.000Z</time>
      </trkpt>
      <trkpt lat="47.27274" lon="6.116">
        <ele>246.687</ele>
        <time>2016-09-06T08:35:40.000Z</time>
      </trkpt>
      <trkpt lat="47.27274" lon="6.116">
        <ele>246.298</ele>
        <time>2016-09-06T08:35:41.000Z</time>
      </trkpt>
      <trkpt lat="47.27274" lon="6.116">
        <ele>246.509</ele>
        <time>2016-09-06T08:35:42.000Z</time>
      </trkpt>
      <trkpt lat="47.27274" lon="6.11601">
        <ele>246.015</ele>
        <time>2016-09-06T08:35:43.000Z</time>
      </trkpt>
      <trkpt lat="47.27274" lon="6.11601">
        <ele>245.826</ele>
        <time>2016-09-06T08:35:44.000Z</time>
      </trkpt>
      <trkpt lat="47.27274" lon="6.116">
        <ele>245.612</ele>
        <time>2016-09-06T08:35:45.000Z</time>
      </trkpt>
      <trkpt lat="47.27273" lon="6.11599">
        <ele>245.918</ele>
        <time>2016-09-06T08:35:46.000Z</time>
      </trkpt>
      <trkpt lat="47.27271" lon="6.11598">
        <ele>245.907</ele>
        <time>2016-09-06T08:35:47.000Z</time>
      </trkpt>
      <trkpt lat="47.27269" lon="6.11596">
        <ele>245.947</ele>
        <time>2016-09-06T08:35:48.000Z</time>
      </trkpt>
      <trkpt lat="47.27266" lon="6.11594">
        <ele>246.949</ele>
        <time>2016-09-06T08:35:49.000Z</time>
      </trkpt>
      <trkpt lat="47.27263" lon="6.11591">
        <ele>246.848</ele>
        <time>2016-09-06T08:35:50.000Z</time>
      </trkpt>
      <trkpt lat="47.2726" lon="6.11588">
        <ele>246.888</ele>
        <time>2016-09-06T08:35:51.000Z</time>
      </trkpt>
      <trkpt lat="47.27256" lon="6.11585">
        <ele>247.76</ele>
        <time>2016-09-06T08:35:52.000Z</time>
      </trkpt>
      <trkpt lat="47.27252" lon="6.11581">
        <ele>247.555</ele>
        <time>2016-09-06T08:35:53.000Z</time>
      </trkpt>
      <trkpt lat="47.27247" lon="6.11577">
        <ele>247.556</ele>
        <time>2016-09-06T08:35:54.000Z</time>
      </trkpt>
      <trkpt lat="47.27244" lon="6.11574">
        <ele>246.75</ele>
        <time>2016-09-06T08:35:55.000Z</time>
      </trkpt>
      <trkpt lat="47.27239" lon="6.1157">
        <ele>246.673</ele>
        <time>2016-09-06T08:35:56.000Z</time>
      </trkpt>
      <trkpt lat="47.27235" lon="6.11565">
        <ele>245.647</ele>
        <time>2016-09-06T08:35:57.000Z</time>
      </trkpt>
      <trkpt lat="47.27231" lon="6.11562">
        <ele>244.812</ele>
        <time>2016-09-06T08:35:58.000Z</time>
      </trkpt>
      <trkpt lat="47.27228" lon="6.11559">
        <ele>244.715</ele>
        <time>2016-09-06T08:35:59.000Z</time>
      </trkpt>
      <trkpt lat="47.27223" lon="6.11555">
        <ele>245.283</ele>
        <time>2016-09-06T08:36:00.000Z</time>
      </trkpt>
      <trkpt lat="47.2722" lon="6.11551">
        <ele>245.408</ele>
        <time>2016-09-06T08:36:01.000Z</time>
      </trkpt>
      <trkpt lat="47.27216" lon="6.11548">
        <ele>245.837</ele>
        <time>2016-09-06T08:36:02.000Z</time>
      </trkpt>
      <trkpt lat="47.27212" lon="6.11545">
        <ele>246.37</ele>
        <time>2016-09-06T08:36:03.000Z</time>
      </trkpt>
      <trkpt lat="47.27208" lon="6.11542">
        <ele>246.465</ele>
        <time>2016-09-06T08:36:04.000Z</time>
      </trkpt>
      <trkpt lat="47.27204" lon="6.11539">
        <ele>246.5</ele>
        <time>2016-09-06T08:36:05.000Z</time>
      </trkpt>
      <trkpt lat="47.27201" lon="6.11535">
        <ele>245.548</ele>
        <time>2016-09-06T08:36:06.000Z</time>
      </trkpt>
      <trkpt lat="47.27197" lon="6.11531">
        <ele>245.275</ele>
        <time>2016-09-06T08:36:07.000Z</time>
      </trkpt>
      <trkpt lat="47.27193" lon="6.11527">
        <ele>245.572</ele>
        <time>2016-09-06T08:36:08.000Z</time>
      </trkpt>
      <trkpt lat="47.27189" lon="6.11525">
        <ele>245.733</ele>
        <time>2016-09-06T08:36:09.000Z</time>
      </trkpt>
      <trkpt lat="47.27186" lon="6.11521">
        <ele>245.159</ele>
        <time>2016-09-06T08:36:10.000Z</time>
      </trkpt>
      <trkpt lat="47.27182" lon="6.11517">
        <ele>244.656</ele>
        <time>2016-09-06T08:36:11.000Z</time>
      </trkpt>
      <trkpt lat="47.27178" lon="6.11513">
        <ele>244.603</ele>
        <time>2016-09-06T08:36:12.000Z</time>
      </trkpt>
      <trkpt lat="47.27176" lon="6.11508">
        <ele>243.71</ele>
        <time>2016-09-06T08:36:13.000Z</time>
      </trkpt>
      <trkpt lat="47.27171" lon="6.11504">
        <ele>244.423</ele>
        <time>2016-09-06T08:36:14.000Z</time>
      </trkpt>
      <trkpt lat="47.27168" lon="6.115">
        <ele>245.076</ele>
        <time>2016-09-06T08:36:15.000Z</time>
      </trkpt>
      <trkpt lat="47.27164" lon="6.11497">
        <ele>245.131</ele>
        <time>2016-09-06T08:36:16.000Z</time>
      </trkpt>
      <trkpt lat="47.2716" lon="6.11493">
        <ele>244.576</ele>
        <time>2016-09-06T08:36:17.000Z</time>
      </trkpt>
      <trkpt lat="47.27156" lon="6.1149">
        <ele>244.297</ele>
        <time>2016-09-06T08:36:18.000Z</time>
      </trkpt>
      <trkpt lat="47.27153" lon="6.11485">
        <ele>244.294</ele>
        <time>2016-09-06T08:36:19.000Z</time>
      </trkpt>
      <trkpt lat="47.27149" lon="6.11481">
        <ele>244.418</ele>
        <time>2016-09-06T08:36:20.000Z</time>
      </trkpt>
      <trkpt lat="47.27145" lon="6.11477">
        <ele>244.332</ele>
        <time>2016-09-06T08:36:21.000Z</time>
      </trkpt>
      <trkpt lat="47.27141" lon="6.11473">
        <ele>243.971</ele>
        <time>2016-09-06T08:36:22.000Z</time>
      </trkpt>
      <trkpt lat="47.27138" lon="6.11469">
        <ele>243.743</ele>
        <time>2016-09-06T08:36:23.000Z</time>
      </trkpt>
      <trkpt lat="47.27134" lon="6.11465">
        <ele>243.594</ele>
        <time>2016-09-06T08:36:24.000Z</time>
      </trkpt>
      <trkpt lat="47.27131" lon="6.11461">
        <ele>242.957</ele>
        <time>2016-09-06T08:36:25.000Z</time>
      </trkpt>
      <trkpt lat="47.27128" lon="6.11457">
        <ele>241.593</ele>
        <time>2016-09-06T08:36:26.000Z</time>
      </trkpt>
      <trkpt lat="47.27124" lon="6.11453">
        <ele>240.794</ele>
        <time>2016-09-06T08:36:27.000Z</time>
      </trkpt>
      <trkpt lat="47.2712" lon="6.11449">
        <ele>240.416</ele>
        <time>2016-09-06T08:36:28.000Z</time>
      </trkpt>
      <trkpt lat="47.27117" lon="6.11445">
        <ele>239.753</ele>
        <time>2016-09-06T08:36:29.000Z</time>
      </trkpt>
      <trkpt lat="47.27114" lon="6.1144">
        <ele>239.581</ele>
        <time>2016-09-06T08:36:30.000Z</time>
      </trkpt>
      <trkpt lat="47.2711" lon="6.11435">
        <ele>239.525</ele>
        <time>2016-09-06T08:36:31.000Z</time>
      </trkpt>
      <trkpt lat="47.27107" lon="6.11432">
        <ele>240.014</ele>
        <time>2016-09-06T08:36:32.000Z</time>
      </trkpt>
      <trkpt lat="47.27104" lon="6.11428">
        <ele>239.901</ele>
        <time>2016-09-06T08:36:33.000Z</time>
      </trkpt>
      <trkpt lat="47.27101" lon="6.11423">
        <ele>240.166</ele>
        <time>2016-09-06T08:36:34.000Z</time>
      </trkpt>
      <trkpt lat="47.27098" lon="6.11419">
        <ele>239.891</ele>
        <time>2016-09-06T08:36:35.000Z</time>
      </trkpt>
      <trkpt lat="47.27095" lon="6.11415">
        <ele>240.434</ele>
        <time>2016-09-06T08:36:36.000Z</time>
      </trkpt>
      <trkpt lat="47.27092" lon="6.11409">
        <ele>239.547</ele>
        <time>2016-09-06T08:36:37.000Z</time>
      </trkpt>
      <trkpt lat="47.27089" lon="6.11404">
        <ele>238.664</ele>
        <time>2016-09-06T08:36:38.000Z</time>
      </trkpt>
      <trkpt lat="47.27086" lon="6.11399">
        <ele>239.246</ele>
        <time>2016-09-06T08:36:39.000Z</time>
      </trkpt>
      <trkpt lat="47.27083" lon="6.11394">
        <ele>238.878</ele>
        <time>2016-09-06T08:36:40.000Z</time>
      </trkpt>
      <trkpt lat="47.2708" lon="6.11389">
        <ele>238.753</ele>
        <time>2016-09-06T08:36:41.000Z</time>
      </trkpt>
      <trkpt lat="47.27077" lon="6.11384">
        <ele>238.939</ele>
        <time>2016-09-06T08:36:42.000Z</time>
      </trkpt>
      <trkpt lat="47.27074" lon="6.11379">
        <ele>239.038</ele>
        <time>2016-09-06T08:36:43.000Z</time>
      </trkpt>
      <trkpt lat="47.2707" lon="6.11374">
        <ele>238.736</ele>
        <time>2016-09-06T08:36:44.000Z</time>
      </trkpt>
      <trkpt lat="47.27067" lon="6.1137">
        <ele>239.765</ele>
        <time>2016-09-06T08:36:45.000Z</time>
      </trkpt>
      <trkpt lat="47.27064" lon="6.11365">
        <ele>239.614</ele>
        <time>2016-09-06T08:36:46.000Z</time>
      </trkpt>
      <trkpt lat="47.27061" lon="6.11359">
        <ele>239.117</ele>
        <time>2016-09-06T08:36:47.000Z</time>
      </trkpt>
      <trkpt lat="47.27059" lon="6.11354">
        <ele>239.322</ele>
        <time>2016-09-06T08:36:48.000Z</time>
      </trkpt>
      <trkpt lat="47.27056" lon="6.11349">
        <ele>239.489</ele>
        <time>2016-09-06T08:36:49.000Z</time>
      </trkpt>
      <trkpt lat="47.27054" lon="6.11344">
        <ele>239.143</ele>
        <time>2016-09-06T08:36:50.000Z</time>
      </trkpt>
      <trkpt lat="47.27051" lon="6.11339">
        <ele>238.673</ele>
        <time>2016-09-06T08:36:51.000Z</time>
      </trkpt>
      <trkpt lat="47.27047" lon="6.11335">
        <ele>238.268</ele>
        <time>2016-09-06T08:36:52.000Z</time>
      </trkpt>
      <trkpt lat="47.27044" lon="6.1133">
        <ele>239.077</ele>
        <time>2016-09-06T08:36:53.000Z</time>
      </trkpt>
      <trkpt lat="47.27041" lon="6.11325">
        <ele>239.643</ele>
        <time>2016-09-06T08:36:54.000Z</time>
      </trkpt>
      <trkpt lat="47.27039" lon="6.11321">
        <ele>241.115</ele>
        <time>2016-09-06T08:36:55.000Z</time>
      </trkpt>
      <trkpt lat="47.27036" lon="6.11317">
        <ele>240.787</ele>
        <time>2016-09-06T08:36:56.000Z</time>
      </trkpt>
      <trkpt lat="47.27034" lon="6.11312">
        <ele>242.318</ele>
        <time>2016-09-06T08:36:57.000Z</time>
      </trkpt>
      <trkpt lat="47.27031" lon="6.11306">
        <ele>242.082</ele>
        <time>2016-09-06T08:36:58.000Z</time>
      </trkpt>
      <trkpt lat="47.27028" lon="6.11301">
        <ele>243.412</ele>
        <time>2016-09-06T08:36:59.000Z</time>
      </trkpt>
      <trkpt lat="47.27026" lon="6.11296">
        <ele>243.379</ele>
        <time>2016-09-06T08:37:00.000Z</time>
      </trkpt>
      <trkpt lat="47.27023" lon="6.11291">
        <ele>244.27</ele>
        <time>2016-09-06T08:37:01.000Z</time>
      </trkpt>
      <trkpt lat="47.27021" lon="6.11286">
        <ele>245.525</ele>
        <time>2016-09-06T08:37:02.000Z</time>
      </trkpt>
      <trkpt lat="47.27018" lon="6.11282">
        <ele>246.941</ele>
        <time>2016-09-06T08:37:03.000Z</time>
      </trkpt>
      <trkpt lat="47.27016" lon="6.11276">
        <ele>247.191</ele>
        <time>2016-09-06T08:37:04.000Z</time>
      </trkpt>
      <trkpt lat="47.27013" lon="6.1127">
        <ele>246.967</ele>
        <time>2016-09-06T08:37:05.000Z</time>
      </trkpt>
      <trkpt lat="47.2701" lon="6.11264">
        <ele>246.88</ele>
        <time>2016-09-06T08:37:06.000Z</time>
      </trkpt>
      <trkpt lat="47.27007" lon="6.11258">
        <ele>246.629</ele>
        <time>2016-09-06T08:37:07.000Z</time>
      </trkpt>
      <trkpt lat="47.27005" lon="6.11252">
        <ele>246.379</ele>
        <time>2016-09-06T08:37:08.000Z</time>
      </trkpt>
      <trkpt lat="47.27003" lon="6.11247">
        <ele>247.115</ele>
        <time>2016-09-06T08:37:09.000Z</time>
      </trkpt>
      <trkpt lat="47.27" lon="6.11242">
        <ele>247.751</ele>
        <time>2016-09-06T08:37:10.000Z</time>
      </trkpt>
      <trkpt lat="47.26998" lon="6.11237">
        <ele>247.964</ele>
        <time>2016-09-06T08:37:11.000Z</time>
      </trkpt>
      <trkpt lat="47.26997" lon="6.11232">
        <ele>247.524</ele>
        <time>2016-09-06T08:37:12.000Z</time>
      </trkpt>
      <trkpt lat="47.26994" lon="6.11227">
        <ele>248.111</ele>
        <time>2016-09-06T08:37:13.000Z</time>
      </trkpt>
      <trkpt lat="47.26993" lon="6.11221">
        <ele>247.773</ele>
        <time>2016-09-06T08:37:14.000Z</time>
      </trkpt>
      <trkpt lat="47.2699" lon="6.11215">
        <ele>247.652</ele>
        <time>2016-09-06T08:37:15.000Z</time>
      </trkpt>
      <trkpt lat="47.26988" lon="6.11209">
        <ele>247.581</ele>
        <time>2016-09-06T08:37:16.000Z</time>
      </trkpt>
      <trkpt lat="47.26985" lon="6.11203">
        <ele>247.196</ele>
        <time>2016-09-06T08:37:17.000Z</time>
      </trkpt>
      <trkpt lat="47.26983" lon="6.11198">
        <ele>246.853</ele>
        <time>2016-09-06T08:37:18.000Z</time>
      </trkpt>
      <trkpt lat="47.2698" lon="6.11193">
        <ele>246.825</ele>
        <time>2016-09-06T08:37:19.000Z</time>
      </trkpt>
      <trkpt lat="47.2698" lon="6.11189">
        <ele>247.99</ele>
        <time>2016-09-06T08:37:20.000Z</time>
      </trkpt>
      <trkpt lat="47.26978" lon="6.11183">
        <ele>248.11</ele>
        <time>2016-09-06T08:37:21.000Z</time>
      </trkpt>
      <trkpt lat="47.26975" lon="6.11177">
        <ele>247.878</ele>
        <time>2016-09-06T08:37:22.000Z</time>
      </trkpt>
      <trkpt lat="47.26973" lon="6.11171">
        <ele>247.16</ele>
        <time>2016-09-06T08:37:23.000Z</time>
      </trkpt>
      <trkpt lat="47.26971" lon="6.11166">
        <ele>248.445</ele>
        <time>2016-09-06T08:37:24.000Z</time>
      </trkpt>
      <trkpt lat="47.26969" lon="6.11161">
        <ele>249.27</ele>
        <time>2016-09-06T08:37:25.003Z</time>
      </trkpt>
      <trkpt lat="47.26968" lon="6.11155">
        <ele>250.14</ele>
        <time>2016-09-06T08:37:26.000Z</time>
      </trkpt>
      <trkpt lat="47.26967" lon="6.11149">
        <ele>250.69</ele>
        <time>2016-09-06T08:37:27.000Z</time>
      </trkpt>
      <trkpt lat="47.26965" lon="6.11144">
        <ele>251.483</ele>
        <time>2016-09-06T08:37:28.000Z</time>
      </trkpt>
      <trkpt lat="47.26963" lon="6.11138">
        <ele>250.852</ele>
        <time>2016-09-06T08:37:29.000Z</time>
      </trkpt>
      <trkpt lat="47.26961" lon="6.11132">
        <ele>250.428</ele>
        <time>2016-09-06T08:37:30.000Z</time>
      </trkpt>
      <trkpt lat="47.26959" lon="6.11126">
        <ele>250.178</ele>
        <time>2016-09-06T08:37:31.000Z</time>
      </trkpt>
      <trkpt lat="47.26958" lon="6.1112">
        <ele>249.704</ele>
        <time>2016-09-06T08:37:32.000Z</time>
      </trkpt>
      <trkpt lat="47.26956" lon="6.11114">
        <ele>250.158</ele>
        <time>2016-09-06T08:37:33.000Z</time>
      </trkpt>
      <trkpt lat="47.26955" lon="6.11108">
        <ele>249.956</ele>
        <time>2016-09-06T08:37:34.000Z</time>
      </trkpt>
      <trkpt lat="47.26953" lon="6.11102">
        <ele>249.783</ele>
        <time>2016-09-06T08:37:35.000Z</time>
      </trkpt>
      <trkpt lat="47.26952" lon="6.11096">
        <ele>250.319</ele>
        <time>2016-09-06T08:37:36.000Z</time>
      </trkpt>
      <trkpt lat="47.2695" lon="6.1109">
        <ele>250.436</ele>
        <time>2016-09-06T08:37:37.000Z</time>
      </trkpt>
      <trkpt lat="47.26949" lon="6.11085">
        <ele>250.236</ele>
        <time>2016-09-06T08:37:38.000Z</time>
      </trkpt>
      <trkpt lat="47.26947" lon="6.11079">
        <ele>250.545</ele>
        <time>2016-09-06T08:37:39.000Z</time>
      </trkpt>
      <trkpt lat="47.26946" lon="6.11073">
        <ele>250.535</ele>
        <time>2016-09-06T08:37:40.000Z</time>
      </trkpt>
      <trkpt lat="47.26944" lon="6.11067">
        <ele>251.223</ele>
        <time>2016-09-06T08:37:41.000Z</time>
      </trkpt>
      <trkpt lat="47.26943" lon="6.11062">
        <ele>251.177</ele>
        <time>2016-09-06T08:37:42.000Z</time>
      </trkpt>
      <trkpt lat="47.26941" lon="6.11056">
        <ele>250.617</ele>
        <time>2016-09-06T08:37:43.000Z</time>
      </trkpt>
      <trkpt lat="47.2694" lon="6.11049">
        <ele>250.227</ele>
        <time>2016-09-06T08:37:44.000Z</time>
      </trkpt>
      <trkpt lat="47.26938" lon="6.11043">
        <ele>250.138</ele>
        <time>2016-09-06T08:37:45.000Z</time>
      </trkpt>
      <trkpt lat="47.26937" lon="6.11037">
        <ele>249.953</ele>
        <time>2016-09-06T08:37:46.000Z</time>
      </trkpt>
      <trkpt lat="47.26936" lon="6.11031">
        <ele>249.859</ele>
        <time>2016-09-06T08:37:47.000Z</time>
      </trkpt>
      <trkpt lat="47.26936" lon="6.11025">
        <ele>249.123</ele>
        <time>2016-09-06T08:37:48.000Z</time>
      </trkpt>
      <trkpt lat="47.26935" lon="6.1102">
        <ele>249.615</ele>
        <time>2016-09-06T08:37:49.000Z</time>
      </trkpt>
      <trkpt lat="47.26934" lon="6.11013">
        <ele>249.477</ele>
        <time>2016-09-06T08:37:50.000Z</time>
      </trkpt>
      <trkpt lat="47.26933" lon="6.11007">
        <ele>249.16</ele>
        <time>2016-09-06T08:37:51.000Z</time>
      </trkpt>
      <trkpt lat="47.26932" lon="6.11">
        <ele>249.132</ele>
        <time>2016-09-06T08:37:52.000Z</time>
      </trkpt>
      <trkpt lat="47.26931" lon="6.10994">
        <ele>250.095</ele>
        <time>2016-09-06T08:37:53.000Z</time>
      </trkpt>
      <trkpt lat="47.2693" lon="6.10988">
        <ele>249.566</ele>
        <time>2016-09-06T08:37:54.000Z</time>
      </trkpt>
      <trkpt lat="47.26929" lon="6.10982">
        <ele>249.823</ele>
        <time>2016-09-06T08:37:55.000Z</time>
      </trkpt>
      <trkpt lat="47.26927" lon="6.10975">
        <ele>250.101</ele>
        <time>2016-09-06T08:37:56.000Z</time>
      </trkpt>
      <trkpt lat="47.26926" lon="6.10969">
        <ele>249.447</ele>
        <time>2016-09-06T08:37:57.000Z</time>
      </trkpt>
      <trkpt lat="47.26926" lon="6.10963">
        <ele>249.738</ele>
        <time>2016-09-06T08:37:58.000Z</time>
      </trkpt>
      <trkpt lat="47.26925" lon="6.10956">
        <ele>249.192</ele>
        <time>2016-09-06T08:37:59.000Z</time>
      </trkpt>
      <trkpt lat="47.26923" lon="6.10951">
        <ele>248.986</ele>
        <time>2016-09-06T08:38:00.000Z</time>
      </trkpt>
      <trkpt lat="47.26922" lon="6.10945">
        <ele>248.748</ele>
        <time>2016-09-06T08:38:01.000Z</time>
      </trkpt>
      <trkpt lat="47.2692" lon="6.10939">
        <ele>247.792</ele>
        <time>2016-09-06T08:38:02.000Z</time>
      </trkpt>
      <trkpt lat="47.26919" lon="6.10932">
        <ele>247.958</ele>
        <time>2016-09-06T08:38:03.000Z</time>
      </trkpt>
      <trkpt lat="47.26918" lon="6.10925">
        <ele>246.39</ele>
        <time>2016-09-06T08:38:04.000Z</time>
      </trkpt>
      <trkpt lat="47.26918" lon="6.10918">
        <ele>247.092</ele>
        <time>2016-09-06T08:38:05.000Z</time>
      </trkpt>
      <trkpt lat="47.26917" lon="6.10912">
        <ele>246.428</ele>
        <time>2016-09-06T08:38:06.000Z</time>
      </trkpt>
      <trkpt lat="47.26916" lon="6.10905">
        <ele>246.008</ele>
        <time>2016-09-06T08:38:07.000Z</time>
      </trkpt>
      <trkpt lat="47.26915" lon="6.10898">
        <ele>245.512</ele>
        <time>2016-09-06T08:38:08.000Z</time>
      </trkpt>
      <trkpt lat="47.26914" lon="6.10891">
        <ele>245.078</ele>
        <time>2016-09-06T08:38:09.000Z</time>
      </trkpt>
      <trkpt lat="47.26913" lon="6.10885">
        <ele>245.475</ele>
        <time>2016-09-06T08:38:10.000Z</time>
      </trkpt>
      <trkpt lat="47.26913" lon="6.10878">
        <ele>246.471</ele>
        <time>2016-09-06T08:38:11.000Z</time>
      </trkpt>
      <trkpt lat="47.26912" lon="6.10871">
        <ele>245.971</ele>
        <time>2016-09-06T08:38:12.000Z</time>
      </trkpt>
      <trkpt lat="47.26911" lon="6.10865">
        <ele>245.594</ele>
        <time>2016-09-06T08:38:13.000Z</time>
      </trkpt>
      <trkpt lat="47.2691" lon="6.10858">
        <ele>245.878</ele>
        <time>2016-09-06T08:38:14.000Z</time>
      </trkpt>
      <trkpt lat="47.2691" lon="6.10852">
        <ele>246.843</ele>
        <time>2016-09-06T08:38:15.000Z</time>
      </trkpt>
      <trkpt lat="47.26909" lon="6.10845">
        <ele>246.747</ele>
        <time>2016-09-06T08:38:16.000Z</time>
      </trkpt>
      <trkpt lat="47.2691" lon="6.10839">
        <ele>246.645</ele>
        <time>2016-09-06T08:38:17.000Z</time>
      </trkpt>
      <trkpt lat="47.26909" lon="6.10832">
        <ele>245.42</ele>
        <time>2016-09-06T08:38:18.000Z</time>
      </trkpt>
      <trkpt lat="47.26909" lon="6.10825">
        <ele>245.251</ele>
        <time>2016-09-06T08:38:19.000Z</time>
      </trkpt>
      <trkpt lat="47.26908" lon="6.10818">
        <ele>244.728</ele>
        <time>2016-09-06T08:38:20.000Z</time>
      </trkpt>
      <trkpt lat="47.26908" lon="6.10811">
        <ele>244.27</ele>
        <time>2016-09-06T08:38:21.000Z</time>
      </trkpt>
      <trkpt lat="47.26907" lon="6.10804">
        <ele>244.26</ele>
        <time>2016-09-06T08:38:22.000Z</time>
      </trkpt>
      <trkpt lat="47.26908" lon="6.10797">
        <ele>244.629</ele>
        <time>2016-09-06T08:38:23.000Z</time>
      </trkpt>
      <trkpt lat="47.26907" lon="6.1079">
        <ele>244.999</ele>
        <time>2016-09-06T08:38:24.000Z</time>
      </trkpt>
      <trkpt lat="47.26907" lon="6.10783">
        <ele>245.682</ele>
        <time>2016-09-06T08:38:25.000Z</time>
      </trkpt>
      <trkpt lat="47.26906" lon="6.10775">
        <ele>243.978</ele>
        <time>2016-09-06T08:38:26.000Z</time>
      </trkpt>
      <trkpt lat="47.26906" lon="6.10767">
        <ele>245.1</ele>
        <time>2016-09-06T08:38:27.000Z</time>
      </trkpt>
      <trkpt lat="47.26905" lon="6.10759">
        <ele>243.742</ele>
        <time>2016-09-06T08:38:28.000Z</time>
      </trkpt>
      <trkpt lat="47.26904" lon="6.10752">
        <ele>243.144</ele>
        <time>2016-09-06T08:38:29.000Z</time>
      </trkpt>
      <trkpt lat="47.26904" lon="6.10745">
        <ele>243.773</ele>
        <time>2016-09-06T08:38:30.000Z</time>
      </trkpt>
      <trkpt lat="47.26903" lon="6.10738">
        <ele>243.862</ele>
        <time>2016-09-06T08:38:31.000Z</time>
      </trkpt>
      <trkpt lat="47.26903" lon="6.1073">
        <ele>243.131</ele>
        <time>2016-09-06T08:38:32.000Z</time>
      </trkpt>
      <trkpt lat="47.26903" lon="6.10725">
        <ele>242.93</ele>
        <time>2016-09-06T08:38:33.000Z</time>
      </trkpt>
      <trkpt lat="47.26904" lon="6.10718">
        <ele>244.186</ele>
        <time>2016-09-06T08:38:34.000Z</time>
      </trkpt>
      <trkpt lat="47.26904" lon="6.10711">
        <ele>243.864</ele>
        <time>2016-09-06T08:38:35.000Z</time>
      </trkpt>
      <trkpt lat="47.26904" lon="6.10705">
        <ele>244.558</ele>
        <time>2016-09-06T08:38:36.000Z</time>
      </trkpt>
      <trkpt lat="47.26905" lon="6.10699">
        <ele>244.816</ele>
        <time>2016-09-06T08:38:37.000Z</time>
      </trkpt>
      <trkpt lat="47.26906" lon="6.10693">
        <ele>245.206</ele>
        <time>2016-09-06T08:38:38.000Z</time>
      </trkpt>
      <trkpt lat="47.26906" lon="6.10687">
        <ele>245.809</ele>
        <time>2016-09-06T08:38:39.000Z</time>
      </trkpt>
      <trkpt lat="47.26905" lon="6.10681">
        <ele>246.117</ele>
        <time>2016-09-06T08:38:40.000Z</time>
      </trkpt>
      <trkpt lat="47.26904" lon="6.10674">
        <ele>245.607</ele>
        <time>2016-09-06T08:38:41.000Z</time>
      </trkpt>
      <trkpt lat="47.26903" lon="6.10667">
        <ele>245.321</ele>
        <time>2016-09-06T08:38:42.000Z</time>
      </trkpt>
      <trkpt lat="47.26902" lon="6.10661">
        <ele>244.668</ele>
        <time>2016-09-06T08:38:43.000Z</time>
      </trkpt>
      <trkpt lat="47.26902" lon="6.10654">
        <ele>243.583</ele>
        <time>2016-09-06T08:38:44.000Z</time>
      </trkpt>
      <trkpt lat="47.26902" lon="6.10648">
        <ele>244.175</ele>
        <time>2016-09-06T08:38:45.000Z</time>
      </trkpt>
      <trkpt lat="47.26902" lon="6.10641">
        <ele>244.472</ele>
        <time>2016-09-06T08:38:46.000Z</time>
      </trkpt>
      <trkpt lat="47.26902" lon="6.10633">
        <ele>244.31</ele>
        <time>2016-09-06T08:38:47.000Z</time>
      </trkpt>
      <trkpt lat="47.26902" lon="6.10627">
        <ele>244.343</ele>
        <time>2016-09-06T08:38:48.000Z</time>
      </trkpt>
      <trkpt lat="47.26902" lon="6.10621">
        <ele>244.007</ele>
        <time>2016-09-06T08:38:49.000Z</time>
      </trkpt>
      <trkpt lat="47.26902" lon="6.10614">
        <ele>244.897</ele>
        <time>2016-09-06T08:38:50.000Z</time>
      </trkpt>
      <trkpt lat="47.26903" lon="6.10609">
        <ele>246.368</ele>
        <time>2016-09-06T08:38:51.000Z</time>
      </trkpt>
      <trkpt lat="47.26903" lon="6.10603">
        <ele>246.578</ele>
        <time>2016-09-06T08:38:52.000Z</time>
      </trkpt>
      <trkpt lat="47.26903" lon="6.10595">
        <ele>246.917</ele>
        <time>2016-09-06T08:38:53.000Z</time>
      </trkpt>
      <trkpt lat="47.26903" lon="6.10589">
        <ele>246.963</ele>
        <time>2016-09-06T08:38:54.000Z</time>
      </trkpt>
      <trkpt lat="47.26903" lon="6.10582">
        <ele>247.183</ele>
        <time>2016-09-06T08:38:55.000Z</time>
      </trkpt>
      <trkpt lat="47.26903" lon="6.10576">
        <ele>248.096</ele>
        <time>2016-09-06T08:38:56.000Z</time>
      </trkpt>
      <trkpt lat="47.26903" lon="6.10569">
        <ele>248.191</ele>
        <time>2016-09-06T08:38:57.000Z</time>
      </trkpt>
      <trkpt lat="47.26903" lon="6.10561">
        <ele>247.061</ele>
        <time>2016-09-06T08:38:58.000Z</time>
      </trkpt>
      <trkpt lat="47.26903" lon="6.10555">
        <ele>247.267</ele>
        <time>2016-09-06T08:38:59.000Z</time>
      </trkpt>
      <trkpt lat="47.26904" lon="6.10548">
        <ele>247.248</ele>
        <time>2016-09-06T08:39:00.000Z</time>
      </trkpt>
      <trkpt lat="47.26905" lon="6.10543">
        <ele>248.505</ele>
        <time>2016-09-06T08:39:01.000Z</time>
      </trkpt>
      <trkpt lat="47.26906" lon="6.10536">
        <ele>247.799</ele>
        <time>2016-09-06T08:39:02.000Z</time>
      </trkpt>
      <trkpt lat="47.26907" lon="6.10531">
        <ele>248.245</ele>
        <time>2016-09-06T08:39:03.000Z</time>
      </trkpt>
      <trkpt lat="47.26907" lon="6.10525">
        <ele>247.702</ele>
        <time>2016-09-06T08:39:04.000Z</time>
      </trkpt>
      <trkpt lat="47.26908" lon="6.10519">
        <ele>248.429</ele>
        <time>2016-09-06T08:39:05.000Z</time>
      </trkpt>
      <trkpt lat="47.26908" lon="6.10512">
        <ele>248.887</ele>
        <time>2016-09-06T08:39:06.000Z</time>
      </trkpt>
      <trkpt lat="47.26908" lon="6.10506">
        <ele>248.858</ele>
        <time>2016-09-06T08:39:07.000Z</time>
      </trkpt>
      <trkpt lat="47.26909" lon="6.105">
        <ele>249.331</ele>
        <time>2016-09-06T08:39:08.000Z</time>
      </trkpt>
      <trkpt lat="47.26909" lon="6.10494">
        <ele>248.796</ele>
        <time>2016-09-06T08:39:09.000Z</time>
      </trkpt>
      <trkpt lat="47.2691" lon="6.10488">
        <ele>248.353</ele>
        <time>2016-09-06T08:39:10.000Z</time>
      </trkpt>
      <trkpt lat="47.26911" lon="6.10482">
        <ele>249.736</ele>
        <time>2016-09-06T08:39:11.000Z</time>
      </trkpt>
      <trkpt lat="47.26911" lon="6.10475">
        <ele>248.054</ele>
        <time>2016-09-06T08:39:12.000Z</time>
      </trkpt>
      <trkpt lat="47.26912" lon="6.10468">
        <ele>248.771</ele>
        <time>2016-09-06T08:39:13.000Z</time>
      </trkpt>
      <trkpt lat="47.26912" lon="6.10462">
        <ele>249.081</ele>
        <time>2016-09-06T08:39:14.000Z</time>
      </trkpt>
      <trkpt lat="47.26913" lon="6.10455">
        <ele>248.799</ele>
        <time>2016-09-06T08:39:15.000Z</time>
      </trkpt>
      <trkpt lat="47.26914" lon="6.10449">
        <ele>249.329</ele>
        <time>2016-09-06T08:39:16.000Z</time>
      </trkpt>
      <trkpt lat="47.26915" lon="6.1044">
        <ele>249.004</ele>
        <time>2016-09-06T08:39:17.000Z</time>
      </trkpt>
      <trkpt lat="47.26917" lon="6.10433">
        <ele>250.129</ele>
        <time>2016-09-06T08:39:18.000Z</time>
      </trkpt>
      <trkpt lat="47.26919" lon="6.10424">
        <ele>249.71</ele>
        <time>2016-09-06T08:39:19.000Z</time>
      </trkpt>
      <trkpt lat="47.26919" lon="6.10417">
        <ele>249.075</ele>
        <time>2016-09-06T08:39:20.000Z</time>
      </trkpt>
      <trkpt lat="47.26921" lon="6.10411">
        <ele>249.002</ele>
        <time>2016-09-06T08:39:21.000Z</time>
      </trkpt>
      <trkpt lat="47.26922" lon="6.10404">
        <ele>248.89</ele>
        <time>2016-09-06T08:39:22.000Z</time>
      </trkpt>
      <trkpt lat="47.26923" lon="6.10398">
        <ele>248.909</ele>
        <time>2016-09-06T08:39:23.000Z</time>
      </trkpt>
      <trkpt lat="47.26923" lon="6.10391">
        <ele>249.564</ele>
        <time>2016-09-06T08:39:24.000Z</time>
      </trkpt>
      <trkpt lat="47.26925" lon="6.10384">
        <ele>250.124</ele>
        <time>2016-09-06T08:39:25.000Z</time>
      </trkpt>
      <trkpt lat="47.26926" lon="6.10378">
        <ele>250.335</ele>
        <time>2016-09-06T08:39:26.000Z</time>
      </trkpt>
      <trkpt lat="47.26927" lon="6.1037">
        <ele>249.679</ele>
        <time>2016-09-06T08:39:27.000Z</time>
      </trkpt>
      <trkpt lat="47.26927" lon="6.10364">
        <ele>249.943</ele>
        <time>2016-09-06T08:39:28.000Z</time>
      </trkpt>
      <trkpt lat="47.26926" lon="6.10356">
        <ele>247.801</ele>
        <time>2016-09-06T08:39:29.000Z</time>
      </trkpt>
      <trkpt lat="47.26927" lon="6.1035">
        <ele>247.182</ele>
        <time>2016-09-06T08:39:30.000Z</time>
      </trkpt>
      <trkpt lat="47.26929" lon="6.10344">
        <ele>247.278</ele>
        <time>2016-09-06T08:39:31.000Z</time>
      </trkpt>
      <trkpt lat="47.2693" lon="6.10337">
        <ele>247.221</ele>
        <time>2016-09-06T08:39:32.000Z</time>
      </trkpt>
      <trkpt lat="47.26931" lon="6.10331">
        <ele>246.947</ele>
        <time>2016-09-06T08:39:33.000Z</time>
      </trkpt>
      <trkpt lat="47.26931" lon="6.10324">
        <ele>246.402</ele>
        <time>2016-09-06T08:39:34.000Z</time>
      </trkpt>
      <trkpt lat="47.26932" lon="6.10318">
        <ele>245.06</ele>
        <time>2016-09-06T08:39:35.000Z</time>
      </trkpt>
      <trkpt lat="47.26933" lon="6.10311">
        <ele>243.939</ele>
        <time>2016-09-06T08:39:36.000Z</time>
      </trkpt>
      <trkpt lat="47.26935" lon="6.10305">
        <ele>243.894</ele>
        <time>2016-09-06T08:39:37.000Z</time>
      </trkpt>
      <trkpt lat="47.26936" lon="6.10299">
        <ele>243.748</ele>
        <time>2016-09-06T08:39:38.000Z</time>
      </trkpt>
      <trkpt lat="47.26937" lon="6.10293">
        <ele>243.958</ele>
        <time>2016-09-06T08:39:39.000Z</time>
      </trkpt>
      <trkpt lat="47.26938" lon="6.10287">
        <ele>244.489</ele>
        <time>2016-09-06T08:39:40.000Z</time>
      </trkpt>
      <trkpt lat="47.26939" lon="6.10281">
        <ele>244.687</ele>
        <time>2016-09-06T08:39:41.000Z</time>
      </trkpt>
      <trkpt lat="47.2694" lon="6.10275">
        <ele>245.864</ele>
        <time>2016-09-06T08:39:42.000Z</time>
      </trkpt>
      <trkpt lat="47.26941" lon="6.10269">
        <ele>245.267</ele>
        <time>2016-09-06T08:39:43.000Z</time>
      </trkpt>
      <trkpt lat="47.26942" lon="6.10263">
        <ele>245.496</ele>
        <time>2016-09-06T08:39:44.000Z</time>
      </trkpt>
      <trkpt lat="47.26943" lon="6.10257">
        <ele>245.35</ele>
        <time>2016-09-06T08:39:45.000Z</time>
      </trkpt>
      <trkpt lat="47.26945" lon="6.10251">
        <ele>245.59</ele>
        <time>2016-09-06T08:39:46.000Z</time>
      </trkpt>
      <trkpt lat="47.26946" lon="6.10244">
        <ele>246.273</ele>
        <time>2016-09-06T08:39:47.000Z</time>
      </trkpt>
      <trkpt lat="47.26948" lon="6.10239">
        <ele>245.977</ele>
        <time>2016-09-06T08:39:48.000Z</time>
      </trkpt>
      <trkpt lat="47.26949" lon="6.10232">
        <ele>244.803</ele>
        <time>2016-09-06T08:39:49.000Z</time>
      </trkpt>
      <trkpt lat="47.26951" lon="6.10226">
        <ele>245.519</ele>
        <time>2016-09-06T08:39:50.000Z</time>
      </trkpt>
      <trkpt lat="47.26953" lon="6.10217">
        <ele>244.632</ele>
        <time>2016-09-06T08:39:51.000Z</time>
      </trkpt>
      <trkpt lat="47.26953" lon="6.10212">
        <ele>244.523</ele>
        <time>2016-09-06T08:39:52.000Z</time>
      </trkpt>
      <trkpt lat="47.26954" lon="6.10207">
        <ele>246.755</ele>
        <time>2016-09-06T08:39:53.000Z</time>
      </trkpt>
      <trkpt lat="47.26955" lon="6.102">
        <ele>247.688</ele>
        <time>2016-09-06T08:39:54.000Z</time>
      </trkpt>
      <trkpt lat="47.26956" lon="6.10193">
        <ele>248.144</ele>
        <time>2016-09-06T08:39:55.000Z</time>
      </trkpt>
      <trkpt lat="47.26957" lon="6.10187">
        <ele>248.424</ele>
        <time>2016-09-06T08:39:56.000Z</time>
      </trkpt>
      <trkpt lat="47.26958" lon="6.1018">
        <ele>249.114</ele>
        <time>2016-09-06T08:39:57.000Z</time>
      </trkpt>
      <trkpt lat="47.2696" lon="6.10174">
        <ele>249.91</ele>
        <time>2016-09-06T08:39:58.000Z</time>
      </trkpt>
      <trkpt lat="47.26961" lon="6.10168">
        <ele>250.907</ele>
        <time>2016-09-06T08:39:59.000Z</time>
      </trkpt>
      <trkpt lat="47.26963" lon="6.10161">
        <ele>251.416</ele>
        <time>2016-09-06T08:40:00.000Z</time>
      </trkpt>
      <trkpt lat="47.26964" lon="6.10155">
        <ele>252.065</ele>
        <time>2016-09-06T08:40:01.000Z</time>
      </trkpt>
      <trkpt lat="47.26966" lon="6.10148">
        <ele>251.855</ele>
        <time>2016-09-06T08:40:02.000Z</time>
      </trkpt>
      <trkpt lat="47.26967" lon="6.10142">
        <ele>251.5</ele>
        <time>2016-09-06T08:40:03.000Z</time>
      </trkpt>
      <trkpt lat="47.26969" lon="6.10135">
        <ele>251.971</ele>
        <time>2016-09-06T08:40:04.000Z</time>
      </trkpt>
      <trkpt lat="47.26971" lon="6.10129">
        <ele>251.771</ele>
        <time>2016-09-06T08:40:05.000Z</time>
      </trkpt>
      <trkpt lat="47.26972" lon="6.10122">
        <ele>251.703</ele>
        <time>2016-09-06T08:40:06.000Z</time>
      </trkpt>
      <trkpt lat="47.26972" lon="6.10116">
        <ele>250.791</ele>
        <time>2016-09-06T08:40:07.000Z</time>
      </trkpt>
      <trkpt lat="47.26974" lon="6.10109">
        <ele>250.022</ele>
        <time>2016-09-06T08:40:08.000Z</time>
      </trkpt>
      <trkpt lat="47.26975" lon="6.10102">
        <ele>250.098</ele>
        <time>2016-09-06T08:40:09.000Z</time>
      </trkpt>
      <trkpt lat="47.26976" lon="6.10096">
        <ele>250.41</ele>
        <time>2016-09-06T08:40:10.000Z</time>
      </trkpt>
      <trkpt lat="47.26977" lon="6.1009">
        <ele>250.175</ele>
        <time>2016-09-06T08:40:11.000Z</time>
      </trkpt>
      <trkpt lat="47.26979" lon="6.10084">
        <ele>250.857</ele>
        <time>2016-09-06T08:40:12.000Z</time>
      </trkpt>
      <trkpt lat="47.26979" lon="6.10077">
        <ele>250.094</ele>
        <time>2016-09-06T08:40:13.000Z</time>
      </trkpt>
      <trkpt lat="47.26981" lon="6.10071">
        <ele>250.216</ele>
        <time>2016-09-06T08:40:14.000Z</time>
      </trkpt>
      <trkpt lat="47.26982" lon="6.10065">
        <ele>249.689</ele>
        <time>2016-09-06T08:40:15.000Z</time>
      </trkpt>
      <trkpt lat="47.26983" lon="6.10058">
        <ele>249.328</ele>
        <time>2016-09-06T08:40:16.000Z</time>
      </trkpt>
      <trkpt lat="47.26984" lon="6.10051">
        <ele>249.292</ele>
        <time>2016-09-06T08:40:17.000Z</time>
      </trkpt>
      <trkpt lat="47.26983" lon="6.10045">
        <ele>249.124</ele>
        <time>2016-09-06T08:40:18.000Z</time>
      </trkpt>
      <trkpt lat="47.26983" lon="6.10039">
        <ele>249.627</ele>
        <time>2016-09-06T08:40:19.000Z</time>
      </trkpt>
      <trkpt lat="47.26984" lon="6.10032">
        <ele>250.045</ele>
        <time>2016-09-06T08:40:20.000Z</time>
      </trkpt>
      <trkpt lat="47.26985" lon="6.10025">
        <ele>250.347</ele>
        <time>2016-09-06T08:40:21.000Z</time>
      </trkpt>
      <trkpt lat="47.26986" lon="6.10018">
        <ele>251.202</ele>
        <time>2016-09-06T08:40:22.000Z</time>
      </trkpt>
      <trkpt lat="47.26985" lon="6.10013">
        <ele>250.41</ele>
        <time>2016-09-06T08:40:23.000Z</time>
      </trkpt>
      <trkpt lat="47.26986" lon="6.10006">
        <ele>250.152</ele>
        <time>2016-09-06T08:40:24.000Z</time>
      </trkpt>
      <trkpt lat="47.26987" lon="6.09999">
        <ele>250.298</ele>
        <time>2016-09-06T08:40:25.000Z</time>
      </trkpt>
      <trkpt lat="47.26989" lon="6.09992">
        <ele>249.314</ele>
        <time>2016-09-06T08:40:26.000Z</time>
      </trkpt>
      <trkpt lat="47.2699" lon="6.09986">
        <ele>250.187</ele>
        <time>2016-09-06T08:40:27.000Z</time>
      </trkpt>
      <trkpt lat="47.26991" lon="6.09979">
        <ele>250.89</ele>
        <time>2016-09-06T08:40:28.000Z</time>
      </trkpt>
      <trkpt lat="47.2699" lon="6.09974">
        <ele>250.805</ele>
        <time>2016-09-06T08:40:29.000Z</time>
      </trkpt>
      <trkpt lat="47.26991" lon="6.09967">
        <ele>250.067</ele>
        <time>2016-09-06T08:40:30.000Z</time>
      </trkpt>
      <trkpt lat="47.26991" lon="6.09961">
        <ele>249.869</ele>
        <time>2016-09-06T08:40:31.000Z</time>
      </trkpt>
      <trkpt lat="47.26991" lon="6.09954">
        <ele>250.355</ele>
        <time>2016-09-06T08:40:32.000Z</time>
      </trkpt>
      <trkpt lat="47.26991" lon="6.09948">
        <ele>250.262</ele>
        <time>2016-09-06T08:40:33.000Z</time>
      </trkpt>
      <trkpt lat="47.26992" lon="6.09942">
        <ele>250.544</ele>
        <time>2016-09-06T08:40:34.000Z</time>
      </trkpt>
      <trkpt lat="47.26993" lon="6.09936">
        <ele>250.735</ele>
        <time>2016-09-06T08:40:35.000Z</time>
      </trkpt>
      <trkpt lat="47.26993" lon="6.09929">
        <ele>249.996</ele>
        <time>2016-09-06T08:40:36.000Z</time>
      </trkpt>
      <trkpt lat="47.26994" lon="6.09922">
        <ele>250.178</ele>
        <time>2016-09-06T08:40:37.000Z</time>
      </trkpt>
      <trkpt lat="47.26995" lon="6.09916">
        <ele>251.588</ele>
        <time>2016-09-06T08:40:38.000Z</time>
      </trkpt>
      <trkpt lat="47.26994" lon="6.0991">
        <ele>251.197</ele>
        <time>2016-09-06T08:40:39.000Z</time>
      </trkpt>
      <trkpt lat="47.26994" lon="6.09904">
        <ele>250.549</ele>
        <time>2016-09-06T08:40:40.000Z</time>
      </trkpt>
      <trkpt lat="47.26994" lon="6.09898">
        <ele>250.312</ele>
        <time>2016-09-06T08:40:41.000Z</time>
      </trkpt>
      <trkpt lat="47.26994" lon="6.09892">
        <ele>250.515</ele>
        <time>2016-09-06T08:40:42.000Z</time>
      </trkpt>
      <trkpt lat="47.26994" lon="6.09885">
        <ele>249.925</ele>
        <time>2016-09-06T08:40:43.000Z</time>
      </trkpt>
      <trkpt lat="47.26995" lon="6.09881">
        <ele>250.711</ele>
        <time>2016-09-06T08:40:44.000Z</time>
      </trkpt>
      <trkpt lat="47.26995" lon="6.09873">
        <ele>250.773</ele>
        <time>2016-09-06T08:40:45.000Z</time>
      </trkpt>
      <trkpt lat="47.26995" lon="6.09865">
        <ele>248.82</ele>
        <time>2016-09-06T08:40:46.000Z</time>
      </trkpt>
      <trkpt lat="47.26994" lon="6.0986">
        <ele>249.755</ele>
        <time>2016-09-06T08:40:47.000Z</time>
      </trkpt>
      <trkpt lat="47.26993" lon="6.09854">
        <ele>249.803</ele>
        <time>2016-09-06T08:40:48.000Z</time>
      </trkpt>
      <trkpt lat="47.26994" lon="6.09847">
        <ele>249.96</ele>
        <time>2016-09-06T08:40:49.000Z</time>
      </trkpt>
      <trkpt lat="47.26994" lon="6.0984">
        <ele>250.62</ele>
        <time>2016-09-06T08:40:50.000Z</time>
      </trkpt>
      <trkpt lat="47.26991" lon="6.09832">
        <ele>247.908</ele>
        <time>2016-09-06T08:40:51.000Z</time>
      </trkpt>
      <trkpt lat="47.2699" lon="6.09826">
        <ele>247.275</ele>
        <time>2016-09-06T08:40:52.000Z</time>
      </trkpt>
      <trkpt lat="47.26989" lon="6.09819">
        <ele>247.257</ele>
        <time>2016-09-06T08:40:53.000Z</time>
      </trkpt>
      <trkpt lat="47.2699" lon="6.09813">
        <ele>248.762</ele>
        <time>2016-09-06T08:40:54.000Z</time>
      </trkpt>
      <trkpt lat="47.2699" lon="6.09806">
        <ele>249.242</ele>
        <time>2016-09-06T08:40:55.000Z</time>
      </trkpt>
      <trkpt lat="47.26988" lon="6.098">
        <ele>248.691</ele>
        <time>2016-09-06T08:40:56.000Z</time>
      </trkpt>
      <trkpt lat="47.26988" lon="6.09794">
        <ele>248.916</ele>
        <time>2016-09-06T08:40:57.000Z</time>
      </trkpt>
      <trkpt lat="47.26988" lon="6.09787">
        <ele>248.419</ele>
        <time>2016-09-06T08:40:58.000Z</time>
      </trkpt>
      <trkpt lat="47.26987" lon="6.0978">
        <ele>247.37</ele>
        <time>2016-09-06T08:40:59.000Z</time>
      </trkpt>
      <trkpt lat="47.26987" lon="6.09771">
        <ele>247.625</ele>
        <time>2016-09-06T08:41:00.000Z</time>
      </trkpt>
      <trkpt lat="47.26987" lon="6.09764">
        <ele>247.1</ele>
        <time>2016-09-06T08:41:01.000Z</time>
      </trkpt>
      <trkpt lat="47.26986" lon="6.09756">
        <ele>246.192</ele>
        <time>2016-09-06T08:41:02.000Z</time>
      </trkpt>
      <trkpt lat="47.26986" lon="6.09747">
        <ele>246.654</ele>
        <time>2016-09-06T08:41:03.000Z</time>
      </trkpt>
      <trkpt lat="47.26985" lon="6.0974">
        <ele>246.221</ele>
        <time>2016-09-06T08:41:04.000Z</time>
      </trkpt>
      <trkpt lat="47.26985" lon="6.09733">
        <ele>246.989</ele>
        <time>2016-09-06T08:41:05.000Z</time>
      </trkpt>
      <trkpt lat="47.26985" lon="6.09727">
        <ele>246.26</ele>
        <time>2016-09-06T08:41:06.000Z</time>
      </trkpt>
      <trkpt lat="47.26985" lon="6.09719">
        <ele>246.311</ele>
        <time>2016-09-06T08:41:07.000Z</time>
      </trkpt>
      <trkpt lat="47.26985" lon="6.09714">
        <ele>248.452</ele>
        <time>2016-09-06T08:41:08.000Z</time>
      </trkpt>
      <trkpt lat="47.26985" lon="6.09709">
        <ele>249.127</ele>
        <time>2016-09-06T08:41:09.000Z</time>
      </trkpt>
      <trkpt lat="47.26984" lon="6.09703">
        <ele>249.435</ele>
        <time>2016-09-06T08:41:10.000Z</time>
      </trkpt>
      <trkpt lat="47.26983" lon="6.09695">
        <ele>249.486</ele>
        <time>2016-09-06T08:41:11.000Z</time>
      </trkpt>
      <trkpt lat="47.26984" lon="6.09687">
        <ele>247.865</ele>
        <time>2016-09-06T08:41:12.000Z</time>
      </trkpt>
      <trkpt lat="47.26983" lon="6.09681">
        <ele>248.384</ele>
        <time>2016-09-06T08:41:13.000Z</time>
      </trkpt>
      <trkpt lat="47.26983" lon="6.09673">
        <ele>248.02</ele>
        <time>2016-09-06T08:41:14.000Z</time>
      </trkpt>
      <trkpt lat="47.26983" lon="6.09668">
        <ele>247.546</ele>
        <time>2016-09-06T08:41:15.000Z</time>
      </trkpt>
      <trkpt lat="47.26983" lon="6.09662">
        <ele>248.629</ele>
        <time>2016-09-06T08:41:16.000Z</time>
      </trkpt>
      <trkpt lat="47.26982" lon="6.09655">
        <ele>248.075</ele>
        <time>2016-09-06T08:41:17.000Z</time>
      </trkpt>
      <trkpt lat="47.26981" lon="6.09647">
        <ele>248.358</ele>
        <time>2016-09-06T08:41:18.000Z</time>
      </trkpt>
      <trkpt lat="47.2698" lon="6.09641">
        <ele>248.096</ele>
        <time>2016-09-06T08:41:19.000Z</time>
      </trkpt>
      <trkpt lat="47.26981" lon="6.09635">
        <ele>248.585</ele>
        <time>2016-09-06T08:41:20.000Z</time>
      </trkpt>
      <trkpt lat="47.26979" lon="6.09627">
        <ele>248.039</ele>
        <time>2016-09-06T08:41:21.000Z</time>
      </trkpt>
      <trkpt lat="47.2698" lon="6.0962">
        <ele>247.516</ele>
        <time>2016-09-06T08:41:22.000Z</time>
      </trkpt>
      <trkpt lat="47.2698" lon="6.09614">
        <ele>247.92</ele>
        <time>2016-09-06T08:41:23.000Z</time>
      </trkpt>
      <trkpt lat="47.2698" lon="6.09607">
        <ele>247.821</ele>
        <time>2016-09-06T08:41:24.000Z</time>
      </trkpt>
      <trkpt lat="47.26979" lon="6.09601">
        <ele>248.09</ele>
        <time>2016-09-06T08:41:25.000Z</time>
      </trkpt>
      <trkpt lat="47.26977" lon="6.09594">
        <ele>246.903</ele>
        <time>2016-09-06T08:41:26.000Z</time>
      </trkpt>
      <trkpt lat="47.26978" lon="6.09586">
        <ele>246.043</ele>
        <time>2016-09-06T08:41:27.000Z</time>
      </trkpt>
      <trkpt lat="47.26978" lon="6.09579">
        <ele>245.337</ele>
        <time>2016-09-06T08:41:28.000Z</time>
      </trkpt>
      <trkpt lat="47.26978" lon="6.09572">
        <ele>243.372</ele>
        <time>2016-09-06T08:41:29.000Z</time>
      </trkpt>
      <trkpt lat="47.26978" lon="6.09565">
        <ele>243.485</ele>
        <time>2016-09-06T08:41:30.000Z</time>
      </trkpt>
      <trkpt lat="47.26979" lon="6.09558">
        <ele>242.962</ele>
        <time>2016-09-06T08:41:31.000Z</time>
      </trkpt>
      <trkpt lat="47.26979" lon="6.09551">
        <ele>241.527</ele>
        <time>2016-09-06T08:41:32.000Z</time>
      </trkpt>
      <trkpt lat="47.26979" lon="6.09545">
        <ele>242.137</ele>
        <time>2016-09-06T08:41:33.000Z</time>
      </trkpt>
      <trkpt lat="47.26979" lon="6.09538">
        <ele>242.848</ele>
        <time>2016-09-06T08:41:34.000Z</time>
      </trkpt>
      <trkpt lat="47.26979" lon="6.09531">
        <ele>241.909</ele>
        <time>2016-09-06T08:41:35.000Z</time>
      </trkpt>
      <trkpt lat="47.2698" lon="6.09524">
        <ele>241.758</ele>
        <time>2016-09-06T08:41:36.000Z</time>
      </trkpt>
      <trkpt lat="47.2698" lon="6.09517">
        <ele>243.273</ele>
        <time>2016-09-06T08:41:37.000Z</time>
      </trkpt>
      <trkpt lat="47.26982" lon="6.09509">
        <ele>242.469</ele>
        <time>2016-09-06T08:41:38.000Z</time>
      </trkpt>
      <trkpt lat="47.26985" lon="6.09502">
        <ele>244.673</ele>
        <time>2016-09-06T08:41:39.000Z</time>
      </trkpt>
      <trkpt lat="47.26985" lon="6.09497">
        <ele>244.788</ele>
        <time>2016-09-06T08:41:40.000Z</time>
      </trkpt>
      <trkpt lat="47.26987" lon="6.0949">
        <ele>245.932</ele>
        <time>2016-09-06T08:41:41.000Z</time>
      </trkpt>
      <trkpt lat="47.26987" lon="6.09482">
        <ele>245.949</ele>
        <time>2016-09-06T08:41:42.000Z</time>
      </trkpt>
      <trkpt lat="47.26986" lon="6.09475">
        <ele>245.999</ele>
        <time>2016-09-06T08:41:43.000Z</time>
      </trkpt>
      <trkpt lat="47.26987" lon="6.09469">
        <ele>246.8</ele>
        <time>2016-09-06T08:41:44.000Z</time>
      </trkpt>
      <trkpt lat="47.26987" lon="6.09464">
        <ele>247.352</ele>
        <time>2016-09-06T08:41:45.000Z</time>
      </trkpt>
      <trkpt lat="47.26988" lon="6.09457">
        <ele>246.896</ele>
        <time>2016-09-06T08:41:46.000Z</time>
      </trkpt>
      <trkpt lat="47.26989" lon="6.09451">
        <ele>247.683</ele>
        <time>2016-09-06T08:41:47.000Z</time>
      </trkpt>
      <trkpt lat="47.26989" lon="6.09444">
        <ele>248.018</ele>
        <time>2016-09-06T08:41:48.000Z</time>
      </trkpt>
      <trkpt lat="47.2699" lon="6.09437">
        <ele>248.542</ele>
        <time>2016-09-06T08:41:49.000Z</time>
      </trkpt>
      <trkpt lat="47.2699" lon="6.0943">
        <ele>247.875</ele>
        <time>2016-09-06T08:41:50.000Z</time>
      </trkpt>
      <trkpt lat="47.2699" lon="6.09422">
        <ele>247.741</ele>
        <time>2016-09-06T08:41:51.000Z</time>
      </trkpt>
      <trkpt lat="47.26992" lon="6.09414">
        <ele>247.722</ele>
        <time>2016-09-06T08:41:52.000Z</time>
      </trkpt>
      <trkpt lat="47.26991" lon="6.0941">
        <ele>248.578</ele>
        <time>2016-09-06T08:41:53.000Z</time>
      </trkpt>
      <trkpt lat="47.26994" lon="6.09401">
        <ele>248.34</ele>
        <time>2016-09-06T08:41:54.000Z</time>
      </trkpt>
      <trkpt lat="47.26996" lon="6.09394">
        <ele>247.807</ele>
        <time>2016-09-06T08:41:55.000Z</time>
      </trkpt>
      <trkpt lat="47.26996" lon="6.09387">
        <ele>247.417</ele>
        <time>2016-09-06T08:41:56.000Z</time>
      </trkpt>
      <trkpt lat="47.26995" lon="6.09382">
        <ele>248.277</ele>
        <time>2016-09-06T08:41:57.000Z</time>
      </trkpt>
      <trkpt lat="47.26995" lon="6.09376">
        <ele>247.058</ele>
        <time>2016-09-06T08:41:58.000Z</time>
      </trkpt>
      <trkpt lat="47.26995" lon="6.09372">
        <ele>247.859</ele>
        <time>2016-09-06T08:41:59.000Z</time>
      </trkpt>
      <trkpt lat="47.26995" lon="6.09367">
        <ele>247.807</ele>
        <time>2016-09-06T08:42:00.000Z</time>
      </trkpt>
      <trkpt lat="47.26995" lon="6.09362">
        <ele>249.868</ele>
        <time>2016-09-06T08:42:01.000Z</time>
      </trkpt>
      <trkpt lat="47.26997" lon="6.09356">
        <ele>249.069</ele>
        <time>2016-09-06T08:42:02.000Z</time>
      </trkpt>
      <trkpt lat="47.26996" lon="6.09349">
        <ele>248.382</ele>
        <time>2016-09-06T08:42:03.000Z</time>
      </trkpt>
      <trkpt lat="47.26996" lon="6.09344">
        <ele>249.355</ele>
        <time>2016-09-06T08:42:04.000Z</time>
      </trkpt>
      <trkpt lat="47.26996" lon="6.09339">
        <ele>249.741</ele>
        <time>2016-09-06T08:42:05.000Z</time>
      </trkpt>
      <trkpt lat="47.26996" lon="6.09334">
        <ele>250.342</ele>
        <time>2016-09-06T08:42:06.000Z</time>
      </trkpt>
      <trkpt lat="47.26997" lon="6.09328">
        <ele>250.383</ele>
        <time>2016-09-06T08:42:07.000Z</time>
      </trkpt>
      <trkpt lat="47.26998" lon="6.09321">
        <ele>249.451</ele>
        <time>2016-09-06T08:42:08.000Z</time>
      </trkpt>
      <trkpt lat="47.26999" lon="6.09313">
        <ele>247.023</ele>
        <time>2016-09-06T08:42:09.000Z</time>
      </trkpt>
      <trkpt lat="47.27" lon="6.09305">
        <ele>246.345</ele>
        <time>2016-09-06T08:42:10.000Z</time>
      </trkpt>
      <trkpt lat="47.27004" lon="6.09292">
        <ele>245.616</ele>
        <time>2016-09-06T08:42:11.000Z</time>
      </trkpt>
      <trkpt lat="47.27006" lon="6.09283">
        <ele>247.068</ele>
        <time>2016-09-06T08:42:12.000Z</time>
      </trkpt>
      <trkpt lat="47.27008" lon="6.09275">
        <ele>246.426</ele>
        <time>2016-09-06T08:42:13.000Z</time>
      </trkpt>
      <trkpt lat="47.27009" lon="6.09268">
        <ele>245.539</ele>
        <time>2016-09-06T08:42:14.000Z</time>
      </trkpt>
      <trkpt lat="47.2701" lon="6.0926">
        <ele>243.635</ele>
        <time>2016-09-06T08:42:15.000Z</time>
      </trkpt>
      <trkpt lat="47.27012" lon="6.09252">
        <ele>244.016</ele>
        <time>2016-09-06T08:42:16.000Z</time>
      </trkpt>
      <trkpt lat="47.27012" lon="6.09245">
        <ele>244.058</ele>
        <time>2016-09-06T08:42:17.000Z</time>
      </trkpt>
      <trkpt lat="47.27014" lon="6.09238">
        <ele>244.572</ele>
        <time>2016-09-06T08:42:18.000Z</time>
      </trkpt>
      <trkpt lat="47.27015" lon="6.09231">
        <ele>244.256</ele>
        <time>2016-09-06T08:42:19.000Z</time>
      </trkpt>
      <trkpt lat="47.27016" lon="6.09225">
        <ele>243.449</ele>
        <time>2016-09-06T08:42:20.000Z</time>
      </trkpt>
      <trkpt lat="47.27018" lon="6.09218">
        <ele>244.179</ele>
        <time>2016-09-06T08:42:21.000Z</time>
      </trkpt>
      <trkpt lat="47.27018" lon="6.09211">
        <ele>243.739</ele>
        <time>2016-09-06T08:42:22.000Z</time>
      </trkpt>
      <trkpt lat="47.27019" lon="6.09204">
        <ele>244.049</ele>
        <time>2016-09-06T08:42:23.000Z</time>
      </trkpt>
      <trkpt lat="47.27021" lon="6.09197">
        <ele>245.543</ele>
        <time>2016-09-06T08:42:24.000Z</time>
      </trkpt>
      <trkpt lat="47.27024" lon="6.0919">
        <ele>245.596</ele>
        <time>2016-09-06T08:42:25.000Z</time>
      </trkpt>
      <trkpt lat="47.27024" lon="6.09184">
        <ele>246.794</ele>
        <time>2016-09-06T08:42:26.000Z</time>
      </trkpt>
      <trkpt lat="47.27025" lon="6.09178">
        <ele>246.719</ele>
        <time>2016-09-06T08:42:27.000Z</time>
      </trkpt>
      <trkpt lat="47.27023" lon="6.09172">
        <ele>246.395</ele>
        <time>2016-09-06T08:42:28.000Z</time>
      </trkpt>
      <trkpt lat="47.27028" lon="6.09164">
        <ele>247.384</ele>
        <time>2016-09-06T08:42:29.000Z</time>
      </trkpt>
      <trkpt lat="47.27028" lon="6.09157">
        <ele>246.573</ele>
        <time>2016-09-06T08:42:30.000Z</time>
      </trkpt>
      <trkpt lat="47.27031" lon="6.09151">
        <ele>247.548</ele>
        <time>2016-09-06T08:42:31.000Z</time>
      </trkpt>
      <trkpt lat="47.27032" lon="6.09145">
        <ele>246.834</ele>
        <time>2016-09-06T08:42:32.000Z</time>
      </trkpt>
      <trkpt lat="47.27033" lon="6.09138">
        <ele>247.077</ele>
        <time>2016-09-06T08:42:33.000Z</time>
      </trkpt>
      <trkpt lat="47.27031" lon="6.09131">
        <ele>245.674</ele>
        <time>2016-09-06T08:42:34.000Z</time>
      </trkpt>
      <trkpt lat="47.27033" lon="6.09124">
        <ele>245.308</ele>
        <time>2016-09-06T08:42:35.000Z</time>
      </trkpt>
      <trkpt lat="47.27034" lon="6.09117">
        <ele>245.083</ele>
        <time>2016-09-06T08:42:36.000Z</time>
      </trkpt>
      <trkpt lat="47.27035" lon="6.09111">
        <ele>245.443</ele>
        <time>2016-09-06T08:42:37.000Z</time>
      </trkpt>
      <trkpt lat="47.27036" lon="6.09106">
        <ele>245.363</ele>
        <time>2016-09-06T08:42:38.000Z</time>
      </trkpt>
      <trkpt lat="47.27036" lon="6.091">
        <ele>244.189</ele>
        <time>2016-09-06T08:42:39.000Z</time>
      </trkpt>
      <trkpt lat="47.27036" lon="6.09094">
        <ele>244.162</ele>
        <time>2016-09-06T08:42:40.000Z</time>
      </trkpt>
      <trkpt lat="47.27037" lon="6.09086">
        <ele>241.655</ele>
        <time>2016-09-06T08:42:41.000Z</time>
      </trkpt>
      <trkpt lat="47.27039" lon="6.09079">
        <ele>243.609</ele>
        <time>2016-09-06T08:42:42.000Z</time>
      </trkpt>
      <trkpt lat="47.2704" lon="6.09072">
        <ele>243.375</ele>
        <time>2016-09-06T08:42:43.000Z</time>
      </trkpt>
      <trkpt lat="47.27041" lon="6.09064">
        <ele>244.022</ele>
        <time>2016-09-06T08:42:44.000Z</time>
      </trkpt>
      <trkpt lat="47.27043" lon="6.09057">
        <ele>243.533</ele>
        <time>2016-09-06T08:42:45.000Z</time>
      </trkpt>
      <trkpt lat="47.27044" lon="6.09049">
        <ele>243.208</ele>
        <time>2016-09-06T08:42:46.000Z</time>
      </trkpt>
      <trkpt lat="47.27045" lon="6.09042">
        <ele>242.864</ele>
        <time>2016-09-06T08:42:47.000Z</time>
      </trkpt>
      <trkpt lat="47.27048" lon="6.09035">
        <ele>242.821</ele>
        <time>2016-09-06T08:42:48.000Z</time>
      </trkpt>
      <trkpt lat="47.27049" lon="6.09028">
        <ele>243.057</ele>
        <time>2016-09-06T08:42:49.000Z</time>
      </trkpt>
      <trkpt lat="47.27051" lon="6.09021">
        <ele>243.423</ele>
        <time>2016-09-06T08:42:50.000Z</time>
      </trkpt>
      <trkpt lat="47.27055" lon="6.09013">
        <ele>244.373</ele>
        <time>2016-09-06T08:42:51.000Z</time>
      </trkpt>
      <trkpt lat="47.27056" lon="6.09008">
        <ele>246.505</ele>
        <time>2016-09-06T08:42:52.000Z</time>
      </trkpt>
      <trkpt lat="47.27057" lon="6.09001">
        <ele>248.175</ele>
        <time>2016-09-06T08:42:53.000Z</time>
      </trkpt>
      <trkpt lat="47.27056" lon="6.08995">
        <ele>247.998</ele>
        <time>2016-09-06T08:42:54.000Z</time>
      </trkpt>
      <trkpt lat="47.27057" lon="6.08987">
        <ele>247.239</ele>
        <time>2016-09-06T08:42:55.000Z</time>
      </trkpt>
      <trkpt lat="47.27058" lon="6.0898">
        <ele>247.287</ele>
        <time>2016-09-06T08:42:56.000Z</time>
      </trkpt>
      <trkpt lat="47.27058" lon="6.08974">
        <ele>247.702</ele>
        <time>2016-09-06T08:42:57.000Z</time>
      </trkpt>
      <trkpt lat="47.2706" lon="6.08966">
        <ele>247.732</ele>
        <time>2016-09-06T08:42:58.000Z</time>
      </trkpt>
      <trkpt lat="47.27059" lon="6.0896">
        <ele>247.836</ele>
        <time>2016-09-06T08:42:59.000Z</time>
      </trkpt>
      <trkpt lat="47.27062" lon="6.08953">
        <ele>248.507</ele>
        <time>2016-09-06T08:43:00.000Z</time>
      </trkpt>
      <trkpt lat="47.27062" lon="6.08947">
        <ele>247.484</ele>
        <time>2016-09-06T08:43:01.000Z</time>
      </trkpt>
      <trkpt lat="47.27063" lon="6.08941">
        <ele>247.773</ele>
        <time>2016-09-06T08:43:02.000Z</time>
      </trkpt>
      <trkpt lat="47.27063" lon="6.08933">
        <ele>247.276</ele>
        <time>2016-09-06T08:43:03.000Z</time>
      </trkpt>
      <trkpt lat="47.27065" lon="6.08927">
        <ele>246.905</ele>
        <time>2016-09-06T08:43:04.000Z</time>
      </trkpt>
      <trkpt lat="47.27067" lon="6.08921">
        <ele>246.772</ele>
        <time>2016-09-06T08:43:05.000Z</time>
      </trkpt>
      <trkpt lat="47.27066" lon="6.08913">
        <ele>246.139</ele>
        <time>2016-09-06T08:43:06.000Z</time>
      </trkpt>
      <trkpt lat="47.27068" lon="6.08907">
        <ele>245.651</ele>
        <time>2016-09-06T08:43:07.000Z</time>
      </trkpt>
      <trkpt lat="47.27066" lon="6.08902">
        <ele>245.661</ele>
        <time>2016-09-06T08:43:08.000Z</time>
      </trkpt>
      <trkpt lat="47.27067" lon="6.08894">
        <ele>246.326</ele>
        <time>2016-09-06T08:43:09.000Z</time>
      </trkpt>
      <trkpt lat="47.27068" lon="6.08887">
        <ele>245.811</ele>
        <time>2016-09-06T08:43:10.000Z</time>
      </trkpt>
      <trkpt lat="47.2707" lon="6.08881">
        <ele>245.85</ele>
        <time>2016-09-06T08:43:11.000Z</time>
      </trkpt>
      <trkpt lat="47.27073" lon="6.08874">
        <ele>245.216</ele>
        <time>2016-09-06T08:43:12.000Z</time>
      </trkpt>
      <trkpt lat="47.27073" lon="6.08868">
        <ele>244.591</ele>
        <time>2016-09-06T08:43:13.000Z</time>
      </trkpt>
      <trkpt lat="47.27073" lon="6.08863">
        <ele>245.793</ele>
        <time>2016-09-06T08:43:14.000Z</time>
      </trkpt>
      <trkpt lat="47.27073" lon="6.08856">
        <ele>246.447</ele>
        <time>2016-09-06T08:43:15.000Z</time>
      </trkpt>
      <trkpt lat="47.27075" lon="6.0885">
        <ele>246.112</ele>
        <time>2016-09-06T08:43:16.000Z</time>
      </trkpt>
      <trkpt lat="47.2708" lon="6.08842">
        <ele>245.156</ele>
        <time>2016-09-06T08:43:17.000Z</time>
      </trkpt>
      <trkpt lat="47.27082" lon="6.08835">
        <ele>244.255</ele>
        <time>2016-09-06T08:43:18.000Z</time>
      </trkpt>
      <trkpt lat="47.27081" lon="6.08828">
        <ele>243.229</ele>
        <time>2016-09-06T08:43:19.000Z</time>
      </trkpt>
      <trkpt lat="47.27081" lon="6.08822">
        <ele>243.954</ele>
        <time>2016-09-06T08:43:20.000Z</time>
      </trkpt>
      <trkpt lat="47.2708" lon="6.08818">
        <ele>245.617</ele>
        <time>2016-09-06T08:43:21.000Z</time>
      </trkpt>
      <trkpt lat="47.27082" lon="6.08812">
        <ele>246.344</ele>
        <time>2016-09-06T08:43:22.000Z</time>
      </trkpt>
      <trkpt lat="47.27083" lon="6.08805">
        <ele>246.663</ele>
        <time>2016-09-06T08:43:23.000Z</time>
      </trkpt>
      <trkpt lat="47.27085" lon="6.08799">
        <ele>247.32</ele>
        <time>2016-09-06T08:43:24.000Z</time>
      </trkpt>
      <trkpt lat="47.27086" lon="6.08793">
        <ele>247.853</ele>
        <time>2016-09-06T08:43:25.000Z</time>
      </trkpt>
      <trkpt lat="47.27085" lon="6.08784">
        <ele>245.62</ele>
        <time>2016-09-06T08:43:26.000Z</time>
      </trkpt>
      <trkpt lat="47.27087" lon="6.08778">
        <ele>245.848</ele>
        <time>2016-09-06T08:43:27.000Z</time>
      </trkpt>
      <trkpt lat="47.27089" lon="6.0877">
        <ele>244.55</ele>
        <time>2016-09-06T08:43:28.000Z</time>
      </trkpt>
      <trkpt lat="47.27089" lon="6.08764">
        <ele>244.674</ele>
        <time>2016-09-06T08:43:29.000Z</time>
      </trkpt>
      <trkpt lat="47.2709" lon="6.08757">
        <ele>244.619</ele>
        <time>2016-09-06T08:43:30.000Z</time>
      </trkpt>
      <trkpt lat="47.27091" lon="6.08749">
        <ele>244.204</ele>
        <time>2016-09-06T08:43:31.000Z</time>
      </trkpt>
      <trkpt lat="47.27092" lon="6.08743">
        <ele>243.508</ele>
        <time>2016-09-06T08:43:32.000Z</time>
      </trkpt>
      <trkpt lat="47.2709" lon="6.08737">
        <ele>243.123</ele>
        <time>2016-09-06T08:43:33.000Z</time>
      </trkpt>
      <trkpt lat="47.27092" lon="6.08732">
        <ele>243.25</ele>
        <time>2016-09-06T08:43:34.000Z</time>
      </trkpt>
      <trkpt lat="47.27091" lon="6.08727">
        <ele>245.669</ele>
        <time>2016-09-06T08:43:35.000Z</time>
      </trkpt>
      <trkpt lat="47.27091" lon="6.0872">
        <ele>245.285</ele>
        <time>2016-09-06T08:43:36.000Z</time>
      </trkpt>
      <trkpt lat="47.27092" lon="6.08716">
        <ele>246.13</ele>
        <time>2016-09-06T08:43:37.000Z</time>
      </trkpt>
      <trkpt lat="47.27092" lon="6.08709">
        <ele>246.14</ele>
        <time>2016-09-06T08:43:38.000Z</time>
      </trkpt>
      <trkpt lat="47.27092" lon="6.08702">
        <ele>246.161</ele>
        <time>2016-09-06T08:43:39.000Z</time>
      </trkpt>
      <trkpt lat="47.27093" lon="6.08695">
        <ele>245.871</ele>
        <time>2016-09-06T08:43:40.000Z</time>
      </trkpt>
      <trkpt lat="47.27093" lon="6.08688">
        <ele>246.867</ele>
        <time>2016-09-06T08:43:41.000Z</time>
      </trkpt>
      <trkpt lat="47.27094" lon="6.08682">
        <ele>246.48</ele>
        <time>2016-09-06T08:43:42.000Z</time>
      </trkpt>
      <trkpt lat="47.27094" lon="6.08675">
        <ele>246.784</ele>
        <time>2016-09-06T08:43:43.000Z</time>
      </trkpt>
      <trkpt lat="47.27096" lon="6.0867">
        <ele>248.134</ele>
        <time>2016-09-06T08:43:44.000Z</time>
      </trkpt>
      <trkpt lat="47.27096" lon="6.08665">
        <ele>249.137</ele>
        <time>2016-09-06T08:43:45.000Z</time>
      </trkpt>
      <trkpt lat="47.27096" lon="6.0866">
        <ele>249.302</ele>
        <time>2016-09-06T08:43:46.000Z</time>
      </trkpt>
      <trkpt lat="47.27096" lon="6.08654">
        <ele>249.879</ele>
        <time>2016-09-06T08:43:47.000Z</time>
      </trkpt>
      <trkpt lat="47.27096" lon="6.08648">
        <ele>250.828</ele>
        <time>2016-09-06T08:43:48.000Z</time>
      </trkpt>
      <trkpt lat="47.27096" lon="6.08644">
        <ele>250.013</ele>
        <time>2016-09-06T08:43:49.000Z</time>
      </trkpt>
      <trkpt lat="47.27096" lon="6.08637">
        <ele>249.201</ele>
        <time>2016-09-06T08:43:50.000Z</time>
      </trkpt>
      <trkpt lat="47.27096" lon="6.08632">
        <ele>249.98</ele>
        <time>2016-09-06T08:43:51.000Z</time>
      </trkpt>
      <trkpt lat="47.27096" lon="6.08625">
        <ele>249.213</ele>
        <time>2016-09-06T08:43:52.000Z</time>
      </trkpt>
      <trkpt lat="47.27095" lon="6.08618">
        <ele>247.005</ele>
        <time>2016-09-06T08:43:53.000Z</time>
      </trkpt>
      <trkpt lat="47.27095" lon="6.08611">
        <ele>247.629</ele>
        <time>2016-09-06T08:43:54.000Z</time>
      </trkpt>
      <trkpt lat="47.27095" lon="6.08604">
        <ele>248.365</ele>
        <time>2016-09-06T08:43:55.000Z</time>
      </trkpt>
      <trkpt lat="47.27094" lon="6.08598">
        <ele>248.953</ele>
        <time>2016-09-06T08:43:56.000Z</time>
      </trkpt>
      <trkpt lat="47.27094" lon="6.08592">
        <ele>248.502</ele>
        <time>2016-09-06T08:43:57.000Z</time>
      </trkpt>
      <trkpt lat="47.27093" lon="6.08586">
        <ele>248.676</ele>
        <time>2016-09-06T08:43:58.000Z</time>
      </trkpt>
      <trkpt lat="47.27093" lon="6.0858">
        <ele>248.339</ele>
        <time>2016-09-06T08:43:59.000Z</time>
      </trkpt>
      <trkpt lat="47.27093" lon="6.08575">
        <ele>249.558</ele>
        <time>2016-09-06T08:44:00.000Z</time>
      </trkpt>
      <trkpt lat="47.27093" lon="6.0857">
        <ele>250.785</ele>
        <time>2016-09-06T08:44:01.000Z</time>
      </trkpt>
      <trkpt lat="47.27092" lon="6.08565">
        <ele>251.374</ele>
        <time>2016-09-06T08:44:02.000Z</time>
      </trkpt>
      <trkpt lat="47.27091" lon="6.08559">
        <ele>251.123</ele>
        <time>2016-09-06T08:44:03.000Z</time>
      </trkpt>
      <trkpt lat="47.2709" lon="6.08553">
        <ele>251.084</ele>
        <time>2016-09-06T08:44:04.000Z</time>
      </trkpt>
      <trkpt lat="47.27089" lon="6.08547">
        <ele>249.936</ele>
        <time>2016-09-06T08:44:05.000Z</time>
      </trkpt>
      <trkpt lat="47.27089" lon="6.0854">
        <ele>249.214</ele>
        <time>2016-09-06T08:44:06.000Z</time>
      </trkpt>
      <trkpt lat="47.27088" lon="6.08534">
        <ele>248.699</ele>
        <time>2016-09-06T08:44:07.000Z</time>
      </trkpt>
      <trkpt lat="47.27087" lon="6.08527">
        <ele>248.706</ele>
        <time>2016-09-06T08:44:08.000Z</time>
      </trkpt>
      <trkpt lat="47.27086" lon="6.08521">
        <ele>247.192</ele>
        <time>2016-09-06T08:44:09.000Z</time>
      </trkpt>
      <trkpt lat="47.27085" lon="6.08514">
        <ele>246.969</ele>
        <time>2016-09-06T08:44:10.000Z</time>
      </trkpt>
      <trkpt lat="47.27085" lon="6.08509">
        <ele>246.199</ele>
        <time>2016-09-06T08:44:11.000Z</time>
      </trkpt>
      <trkpt lat="47.27084" lon="6.08503">
        <ele>245.405</ele>
        <time>2016-09-06T08:44:12.000Z</time>
      </trkpt>
      <trkpt lat="47.27084" lon="6.08497">
        <ele>244.652</ele>
        <time>2016-09-06T08:44:13.000Z</time>
      </trkpt>
      <trkpt lat="47.27084" lon="6.08493">
        <ele>244.742</ele>
        <time>2016-09-06T08:44:14.000Z</time>
      </trkpt>
      <trkpt lat="47.27084" lon="6.0849">
        <ele>245.321</ele>
        <time>2016-09-06T08:44:15.000Z</time>
      </trkpt>
      <trkpt lat="47.27084" lon="6.08488">
        <ele>245.055</ele>
        <time>2016-09-06T08:44:16.000Z</time>
      </trkpt>
      <trkpt lat="47.27084" lon="6.08486">
        <ele>245.258</ele>
        <time>2016-09-06T08:44:17.000Z</time>
      </trkpt>
      <trkpt lat="47.27084" lon="6.08484">
        <ele>245.355</ele>
        <time>2016-09-06T08:44:18.000Z</time>
      </trkpt>
      <trkpt lat="47.27084" lon="6.08484">
        <ele>245.227</ele>
        <time>2016-09-06T08:44:19.000Z</time>
      </trkpt>
      <trkpt lat="47.27084" lon="6.08483">
        <ele>245.98</ele>
        <time>2016-09-06T08:44:20.000Z</time>
      </trkpt>
      <trkpt lat="47.27084" lon="6.08483">
        <ele>245.349</ele>
        <time>2016-09-06T08:44:21.000Z</time>
      </trkpt>
      <trkpt lat="47.27084" lon="6.08482">
        <ele>244.753</ele>
        <time>2016-09-06T08:44:22.000Z</time>
      </trkpt>
      <trkpt lat="47.27084" lon="6.08482">
        <ele>244.91</ele>
        <time>2016-09-06T08:44:23.000Z</time>
      </trkpt>
      <trkpt lat="47.27083" lon="6.08481">
        <ele>244.754</ele>
        <time>2016-09-06T08:44:24.000Z</time>
      </trkpt>
      <trkpt lat="47.27083" lon="6.0848">
        <ele>244.201</ele>
        <time>2016-09-06T08:44:25.000Z</time>
      </trkpt>
      <trkpt lat="47.27083" lon="6.08479">
        <ele>243.992</ele>
        <time>2016-09-06T08:44:26.000Z</time>
      </trkpt>
      <trkpt lat="47.27082" lon="6.08477">
        <ele>244.142</ele>
        <time>2016-09-06T08:44:27.000Z</time>
      </trkpt>
      <trkpt lat="47.27081" lon="6.08475">
        <ele>245.499</ele>
        <time>2016-09-06T08:44:28.000Z</time>
      </trkpt>
      <trkpt lat="47.27079" lon="6.08474">
        <ele>245.71</ele>
        <time>2016-09-06T08:44:29.000Z</time>
      </trkpt>
      <trkpt lat="47.27077" lon="6.08474">
        <ele>245.36</ele>
        <time>2016-09-06T08:44:30.000Z</time>
      </trkpt>
      <trkpt lat="47.27074" lon="6.08474">
        <ele>245.788</ele>
        <time>2016-09-06T08:44:31.000Z</time>
      </trkpt>
      <trkpt lat="47.27072" lon="6.08475">
        <ele>246.132</ele>
        <time>2016-09-06T08:44:32.000Z</time>
      </trkpt>
      <trkpt lat="47.27069" lon="6.08476">
        <ele>247.257</ele>
        <time>2016-09-06T08:44:33.000Z</time>
      </trkpt>
      <trkpt lat="47.27066" lon="6.08476">
        <ele>248.083</ele>
        <time>2016-09-06T08:44:34.000Z</time>
      </trkpt>
      <trkpt lat="47.27063" lon="6.08477">
        <ele>247.796</ele>
        <time>2016-09-06T08:44:35.000Z</time>
      </trkpt>
      <trkpt lat="47.27061" lon="6.08478">
        <ele>247.796</ele>
        <time>2016-09-06T08:44:36.000Z</time>
      </trkpt>
      <trkpt lat="47.27058" lon="6.08479">
        <ele>247.76</ele>
        <time>2016-09-06T08:44:37.003Z</time>
      </trkpt>
      <trkpt lat="47.27055" lon="6.08479">
        <ele>248.027</ele>
        <time>2016-09-06T08:44:38.000Z</time>
      </trkpt>
      <trkpt lat="47.27052" lon="6.0848">
        <ele>248.107</ele>
        <time>2016-09-06T08:44:39.000Z</time>
      </trkpt>
      <trkpt lat="47.27049" lon="6.0848">
        <ele>248.375</ele>
        <time>2016-09-06T08:44:40.000Z</time>
      </trkpt>
      <trkpt lat="47.27046" lon="6.08481">
        <ele>248.884</ele>
        <time>2016-09-06T08:44:41.000Z</time>
      </trkpt>
      <trkpt lat="47.27043" lon="6.08482">
        <ele>248.825</ele>
        <time>2016-09-06T08:44:42.000Z</time>
      </trkpt>
      <trkpt lat="47.2704" lon="6.08482">
        <ele>249.067</ele>
        <time>2016-09-06T08:44:43.000Z</time>
      </trkpt>
      <trkpt lat="47.27037" lon="6.08483">
        <ele>249.513</ele>
        <time>2016-09-06T08:44:44.000Z</time>
      </trkpt>
      <trkpt lat="47.27034" lon="6.08484">
        <ele>248.847</ele>
        <time>2016-09-06T08:44:45.000Z</time>
      </trkpt>
      <trkpt lat="47.27032" lon="6.08484">
        <ele>248.868</ele>
        <time>2016-09-06T08:44:46.000Z</time>
      </trkpt>
      <trkpt lat="47.27029" lon="6.08485">
        <ele>248.869</ele>
        <time>2016-09-06T08:44:47.000Z</time>
      </trkpt>
      <trkpt lat="47.27025" lon="6.08486">
        <ele>248.859</ele>
        <time>2016-09-06T08:44:48.000Z</time>
      </trkpt>
      <trkpt lat="47.27022" lon="6.08486">
        <ele>248.836</ele>
        <time>2016-09-06T08:44:49.000Z</time>
      </trkpt>
      <trkpt lat="47.27019" lon="6.08487">
        <ele>249.176</ele>
        <time>2016-09-06T08:44:50.000Z</time>
      </trkpt>
      <trkpt lat="47.27016" lon="6.08488">
        <ele>249.04</ele>
        <time>2016-09-06T08:44:51.000Z</time>
      </trkpt>
      <trkpt lat="47.27012" lon="6.08489">
        <ele>249.542</ele>
        <time>2016-09-06T08:44:52.000Z</time>
      </trkpt>
      <trkpt lat="47.27008" lon="6.0849">
        <ele>249.715</ele>
        <time>2016-09-06T08:44:53.000Z</time>
      </trkpt>
      <trkpt lat="47.27005" lon="6.0849">
        <ele>249.833</ele>
        <time>2016-09-06T08:44:54.000Z</time>
      </trkpt>
      <trkpt lat="47.27001" lon="6.08491">
        <ele>250.565</ele>
        <time>2016-09-06T08:44:55.000Z</time>
      </trkpt>
      <trkpt lat="47.26997" lon="6.08492">
        <ele>250.754</ele>
        <time>2016-09-06T08:44:56.000Z</time>
      </trkpt>
      <trkpt lat="47.26994" lon="6.08494">
        <ele>250.83</ele>
        <time>2016-09-06T08:44:57.000Z</time>
      </trkpt>
      <trkpt lat="47.2699" lon="6.08495">
        <ele>250.534</ele>
        <time>2016-09-06T08:44:58.000Z</time>
      </trkpt>
      <trkpt lat="47.26986" lon="6.08496">
        <ele>250.741</ele>
        <time>2016-09-06T08:44:59.000Z</time>
      </trkpt>
      <trkpt lat="47.26982" lon="6.08496">
        <ele>250.745</ele>
        <time>2016-09-06T08:45:00.000Z</time>
      </trkpt>
      <trkpt lat="47.26978" lon="6.08497">
        <ele>251.06</ele>
        <time>2016-09-06T08:45:01.000Z</time>
      </trkpt>
      <trkpt lat="47.26974" lon="6.08498">
        <ele>250.792</ele>
        <time>2016-09-06T08:45:02.000Z</time>
      </trkpt>
      <trkpt lat="47.2697" lon="6.08499">
        <ele>250.875</ele>
        <time>2016-09-06T08:45:03.000Z</time>
      </trkpt>
      <trkpt lat="47.26966" lon="6.085">
        <ele>250.785</ele>
        <time>2016-09-06T08:45:04.000Z</time>
      </trkpt>
      <trkpt lat="47.26962" lon="6.08501">
        <ele>250.904</ele>
        <time>2016-09-06T08:45:05.000Z</time>
      </trkpt>
      <trkpt lat="47.26957" lon="6.08503">
        <ele>250.979</ele>
        <time>2016-09-06T08:45:06.000Z</time>
      </trkpt>
      <trkpt lat="47.26952" lon="6.08504">
        <ele>251.193</ele>
        <time>2016-09-06T08:45:07.000Z</time>
      </trkpt>
      <trkpt lat="47.26947" lon="6.08505">
        <ele>251.691</ele>
        <time>2016-09-06T08:45:08.000Z</time>
      </trkpt>
      <trkpt lat="47.26942" lon="6.08506">
        <ele>251.167</ele>
        <time>2016-09-06T08:45:09.000Z</time>
      </trkpt>
      <trkpt lat="47.26937" lon="6.08507">
        <ele>251.348</ele>
        <time>2016-09-06T08:45:10.000Z</time>
      </trkpt>
      <trkpt lat="47.26933" lon="6.08508">
        <ele>251.86</ele>
        <time>2016-09-06T08:45:11.000Z</time>
      </trkpt>
      <trkpt lat="47.26927" lon="6.08509">
        <ele>251.207</ele>
        <time>2016-09-06T08:45:12.000Z</time>
      </trkpt>
      <trkpt lat="47.26922" lon="6.0851">
        <ele>250.625</ele>
        <time>2016-09-06T08:45:13.000Z</time>
      </trkpt>
      <trkpt lat="47.26917" lon="6.08512">
        <ele>250.897</ele>
        <time>2016-09-06T08:45:14.000Z</time>
      </trkpt>
      <trkpt lat="47.26911" lon="6.08513">
        <ele>251.212</ele>
        <time>2016-09-06T08:45:15.000Z</time>
      </trkpt>
      <trkpt lat="47.26906" lon="6.08514">
        <ele>250.699</ele>
        <time>2016-09-06T08:45:16.000Z</time>
      </trkpt>
      <trkpt lat="47.26902" lon="6.08516">
        <ele>250.986</ele>
        <time>2016-09-06T08:45:17.000Z</time>
      </trkpt>
      <trkpt lat="47.26898" lon="6.08518">
        <ele>251.878</ele>
        <time>2016-09-06T08:45:18.000Z</time>
      </trkpt>
      <trkpt lat="47.26893" lon="6.08521">
        <ele>250.949</ele>
        <time>2016-09-06T08:45:19.000Z</time>
      </trkpt>
      <trkpt lat="47.26888" lon="6.08522">
        <ele>251.141</ele>
        <time>2016-09-06T08:45:20.000Z</time>
      </trkpt>
      <trkpt lat="47.26884" lon="6.08526">
        <ele>251.097</ele>
        <time>2016-09-06T08:45:21.000Z</time>
      </trkpt>
      <trkpt lat="47.2688" lon="6.08531">
        <ele>251.393</ele>
        <time>2016-09-06T08:45:22.000Z</time>
      </trkpt>
      <trkpt lat="47.26875" lon="6.08534">
        <ele>251.069</ele>
        <time>2016-09-06T08:45:23.000Z</time>
      </trkpt>
      <trkpt lat="47.2687" lon="6.08538">
        <ele>251.467</ele>
        <time>2016-09-06T08:45:24.000Z</time>
      </trkpt>
      <trkpt lat="47.26866" lon="6.08543">
        <ele>251.53</ele>
        <time>2016-09-06T08:45:25.000Z</time>
      </trkpt>
      <trkpt lat="47.26862" lon="6.08548">
        <ele>251.771</ele>
        <time>2016-09-06T08:45:26.000Z</time>
      </trkpt>
      <trkpt lat="47.26858" lon="6.08553">
        <ele>250.237</ele>
        <time>2016-09-06T08:45:27.000Z</time>
      </trkpt>
      <trkpt lat="47.26855" lon="6.08556">
        <ele>248.68</ele>
        <time>2016-09-06T08:45:28.000Z</time>
      </trkpt>
      <trkpt lat="47.26852" lon="6.08562">
        <ele>247.881</ele>
        <time>2016-09-06T08:45:29.000Z</time>
      </trkpt>
      <trkpt lat="47.26849" lon="6.08568">
        <ele>247.813</ele>
        <time>2016-09-06T08:45:30.000Z</time>
      </trkpt>
      <trkpt lat="47.26846" lon="6.08576">
        <ele>247.76</ele>
        <time>2016-09-06T08:45:31.000Z</time>
      </trkpt>
      <trkpt lat="47.26843" lon="6.08583">
        <ele>248.063</ele>
        <time>2016-09-06T08:45:32.000Z</time>
      </trkpt>
      <trkpt lat="47.26842" lon="6.08591">
        <ele>247.746</ele>
        <time>2016-09-06T08:45:33.000Z</time>
      </trkpt>
      <trkpt lat="47.2684" lon="6.08598">
        <ele>247.162</ele>
        <time>2016-09-06T08:45:34.000Z</time>
      </trkpt>
      <trkpt lat="47.26838" lon="6.08604">
        <ele>246.572</ele>
        <time>2016-09-06T08:45:35.000Z</time>
      </trkpt>
      <trkpt lat="47.26836" lon="6.08612">
        <ele>246.08</ele>
        <time>2016-09-06T08:45:36.000Z</time>
      </trkpt>
      <trkpt lat="47.26835" lon="6.08619">
        <ele>246.003</ele>
        <time>2016-09-06T08:45:37.000Z</time>
      </trkpt>
      <trkpt lat="47.26834" lon="6.08626">
        <ele>244.679</ele>
        <time>2016-09-06T08:45:38.000Z</time>
      </trkpt>
      <trkpt lat="47.26833" lon="6.08633">
        <ele>243.721</ele>
        <time>2016-09-06T08:45:39.000Z</time>
      </trkpt>
      <trkpt lat="47.26833" lon="6.0864">
        <ele>243.786</ele>
        <time>2016-09-06T08:45:40.000Z</time>
      </trkpt>
      <trkpt lat="47.26834" lon="6.08647">
        <ele>244.556</ele>
        <time>2016-09-06T08:45:41.000Z</time>
      </trkpt>
      <trkpt lat="47.26835" lon="6.08654">
        <ele>244.131</ele>
        <time>2016-09-06T08:45:42.000Z</time>
      </trkpt>
      <trkpt lat="47.26835" lon="6.0866">
        <ele>244.745</ele>
        <time>2016-09-06T08:45:43.000Z</time>
      </trkpt>
      <trkpt lat="47.26836" lon="6.08667">
        <ele>243.853</ele>
        <time>2016-09-06T08:45:44.000Z</time>
      </trkpt>
      <trkpt lat="47.26837" lon="6.08674">
        <ele>243.72</ele>
        <time>2016-09-06T08:45:45.000Z</time>
      </trkpt>
      <trkpt lat="47.26837" lon="6.0868">
        <ele>244.452</ele>
        <time>2016-09-06T08:45:46.000Z</time>
      </trkpt>
      <trkpt lat="47.26837" lon="6.08686">
        <ele>244.438</ele>
        <time>2016-09-06T08:45:47.000Z</time>
      </trkpt>
      <trkpt lat="47.26838" lon="6.08692">
        <ele>244.985</ele>
        <time>2016-09-06T08:45:48.000Z</time>
      </trkpt>
      <trkpt lat="47.26838" lon="6.08698">
        <ele>244.699</ele>
        <time>2016-09-06T08:45:49.000Z</time>
      </trkpt>
      <trkpt lat="47.26839" lon="6.08705">
        <ele>244.684</ele>
        <time>2016-09-06T08:45:50.000Z</time>
      </trkpt>
      <trkpt lat="47.26839" lon="6.08711">
        <ele>244.712</ele>
        <time>2016-09-06T08:45:51.000Z</time>
      </trkpt>
      <trkpt lat="47.26839" lon="6.08717">
        <ele>244.234</ele>
        <time>2016-09-06T08:45:52.000Z</time>
      </trkpt>
      <trkpt lat="47.26839" lon="6.08724">
        <ele>244.29</ele>
        <time>2016-09-06T08:45:53.000Z</time>
      </trkpt>
      <trkpt lat="47.2684" lon="6.08729">
        <ele>244.551</ele>
        <time>2016-09-06T08:45:54.000Z</time>
      </trkpt>
      <trkpt lat="47.2684" lon="6.08734">
        <ele>245.52</ele>
        <time>2016-09-06T08:45:55.000Z</time>
      </trkpt>
      <trkpt lat="47.2684" lon="6.08739">
        <ele>245.382</ele>
        <time>2016-09-06T08:45:56.000Z</time>
      </trkpt>
      <trkpt lat="47.26841" lon="6.08744">
        <ele>245.982</ele>
        <time>2016-09-06T08:45:57.000Z</time>
      </trkpt>
      <trkpt lat="47.26841" lon="6.08749">
        <ele>246.079</ele>
        <time>2016-09-06T08:45:58.000Z</time>
      </trkpt>
      <trkpt lat="47.26842" lon="6.08753">
        <ele>245.472</ele>
        <time>2016-09-06T08:45:59.000Z</time>
      </trkpt>
      <trkpt lat="47.26843" lon="6.08758">
        <ele>245.608</ele>
        <time>2016-09-06T08:46:00.000Z</time>
      </trkpt>
      <trkpt lat="47.26843" lon="6.08762">
        <ele>245.862</ele>
        <time>2016-09-06T08:46:01.000Z</time>
      </trkpt>
      <trkpt lat="47.26844" lon="6.08766">
        <ele>246.738</ele>
        <time>2016-09-06T08:46:02.000Z</time>
      </trkpt>
      <trkpt lat="47.26844" lon="6.0877">
        <ele>246.725</ele>
        <time>2016-09-06T08:46:03.000Z</time>
      </trkpt>
      <trkpt lat="47.26843" lon="6.08773">
        <ele>246.028</ele>
        <time>2016-09-06T08:46:04.000Z</time>
      </trkpt>
      <trkpt lat="47.26842" lon="6.08777">
        <ele>246.032</ele>
        <time>2016-09-06T08:46:05.000Z</time>
      </trkpt>
      <trkpt lat="47.26841" lon="6.08782">
        <ele>244.481</ele>
        <time>2016-09-06T08:46:06.000Z</time>
      </trkpt>
      <trkpt lat="47.26839" lon="6.08786">
        <ele>244.179</ele>
        <time>2016-09-06T08:46:07.000Z</time>
      </trkpt>
      <trkpt lat="47.26836" lon="6.0879">
        <ele>243.738</ele>
        <time>2016-09-06T08:46:08.000Z</time>
      </trkpt>
      <trkpt lat="47.26833" lon="6.08794">
        <ele>243.406</ele>
        <time>2016-09-06T08:46:09.000Z</time>
      </trkpt>
      <trkpt lat="47.2683" lon="6.08797">
        <ele>242.814</ele>
        <time>2016-09-06T08:46:10.000Z</time>
      </trkpt>
      <trkpt lat="47.26827" lon="6.08799">
        <ele>243.134</ele>
        <time>2016-09-06T08:46:11.000Z</time>
      </trkpt>
      <trkpt lat="47.26824" lon="6.08801">
        <ele>243.66</ele>
        <time>2016-09-06T08:46:12.000Z</time>
      </trkpt>
      <trkpt lat="47.26821" lon="6.08802">
        <ele>243.728</ele>
        <time>2016-09-06T08:46:13.000Z</time>
      </trkpt>
      <trkpt lat="47.26817" lon="6.08803">
        <ele>244.25</ele>
        <time>2016-09-06T08:46:13.999Z</time>
      </trkpt>
      <trkpt lat="47.26814" lon="6.08804">
        <ele>244.557</ele>
        <time>2016-09-06T08:46:14.999Z</time>
      </trkpt>
      <trkpt lat="47.2681" lon="6.08806">
        <ele>244.946</ele>
        <time>2016-09-06T08:46:15.999Z</time>
      </trkpt>
      <trkpt lat="47.26808" lon="6.08809">
        <ele>244.764</ele>
        <time>2016-09-06T08:46:16.999Z</time>
      </trkpt>
      <trkpt lat="47.26805" lon="6.08812">
        <ele>243.653</ele>
        <time>2016-09-06T08:46:17.999Z</time>
      </trkpt>
      <trkpt lat="47.26802" lon="6.08815">
        <ele>243.764</ele>
        <time>2016-09-06T08:46:18.999Z</time>
      </trkpt>
      <trkpt lat="47.268" lon="6.08817">
        <ele>243.267</ele>
        <time>2016-09-06T08:46:19.999Z</time>
      </trkpt>
      <trkpt lat="47.26798" lon="6.08819">
        <ele>243.249</ele>
        <time>2016-09-06T08:46:20.999Z</time>
      </trkpt>
      <trkpt lat="47.26797" lon="6.08819">
        <ele>243.951</ele>
        <time>2016-09-06T08:46:21.999Z</time>
      </trkpt>
      <trkpt lat="47.26797" lon="6.08819">
        <ele>244.074</ele>
        <time>2016-09-06T08:46:22.999Z</time>
      </trkpt>
      <trkpt lat="47.26797" lon="6.08819">
        <ele>244.706</ele>
        <time>2016-09-06T08:46:23.999Z</time>
      </trkpt>
      <trkpt lat="47.26797" lon="6.08819">
        <ele>245.093</ele>
        <time>2016-09-06T08:46:24.999Z</time>
      </trkpt>
      <trkpt lat="47.26797" lon="6.08819">
        <ele>245.937</ele>
        <time>2016-09-06T08:46:25.999Z</time>
      </trkpt>
      <trkpt lat="47.26797" lon="6.08819">
        <ele>245.336</ele>
        <time>2016-09-06T08:46:26.999Z</time>
      </trkpt>
      <trkpt lat="47.26797" lon="6.08819">
        <ele>246.45</ele>
        <time>2016-09-06T08:46:27.999Z</time>
      </trkpt>
      <trkpt lat="47.26798" lon="6.08817">
        <ele>246.612</ele>
        <time>2016-09-06T08:46:28.999Z</time>
      </trkpt>
      <trkpt lat="47.26798" lon="6.08817">
        <ele>247.047</ele>
        <time>2016-09-06T08:46:29.999Z</time>
      </trkpt>
      <trkpt lat="47.26798" lon="6.08817">
        <ele>246.923</ele>
        <time>2016-09-06T08:46:30.999Z</time>
      </trkpt>
      <trkpt lat="47.26798" lon="6.08817">
        <ele>247.862</ele>
        <time>2016-09-06T08:46:31.999Z</time>
      </trkpt>
      <trkpt lat="47.26798" lon="6.08817">
        <ele>247.763</ele>
        <time>2016-09-06T08:46:32.999Z</time>
      </trkpt>
      <trkpt lat="47.26798" lon="6.08817">
        <ele>247.312</ele>
        <time>2016-09-06T08:46:33.999Z</time>
      </trkpt>
      <trkpt lat="47.26798" lon="6.08817">
        <ele>248.142</ele>
        <time>2016-09-06T08:46:34.999Z</time>
      </trkpt>
      <trkpt lat="47.26798" lon="6.08817">
        <ele>248.741</ele>
        <time>2016-09-06T08:46:35.999Z</time>
      </trkpt>
      <trkpt lat="47.26798" lon="6.08817">
        <ele>248.466</ele>
        <time>2016-09-06T08:46:36.999Z</time>
      </trkpt>
      <trkpt lat="47.26798" lon="6.08817">
        <ele>248.683</ele>
        <time>2016-09-06T08:46:37.999Z</time>
      </trkpt>
      <trkpt lat="47.26798" lon="6.08817">
        <ele>248.006</ele>
        <time>2016-09-06T08:46:38.999Z</time>
      </trkpt>
      <trkpt lat="47.26798" lon="6.08817">
        <ele>248.526</ele>
        <time>2016-09-06T08:46:39.999Z</time>
      </trkpt>
      <trkpt lat="47.26798" lon="6.08817">
        <ele>248.564</ele>
        <time>2016-09-06T08:46:40.999Z</time>
      </trkpt>
      <trkpt lat="47.26798" lon="6.08817">
        <ele>248.607</ele>
        <time>2016-09-06T08:46:41.999Z</time>
      </trkpt>
      <trkpt lat="47.26798" lon="6.08817">
        <ele>248.832</ele>
        <time>2016-09-06T08:46:42.999Z</time>
      </trkpt>
      <trkpt lat="47.26798" lon="6.08817">
        <ele>249.264</ele>
        <time>2016-09-06T08:46:43.999Z</time>
      </trkpt>
      <trkpt lat="47.26798" lon="6.08817">
        <ele>249.321</ele>
        <time>2016-09-06T08:46:44.999Z</time>
      </trkpt>
      <trkpt lat="47.26798" lon="6.08817">
        <ele>250.249</ele>
        <time>2016-09-06T08:46:45.999Z</time>
      </trkpt>
      <trkpt lat="47.26798" lon="6.08817">
        <ele>250.148</ele>
        <time>2016-09-06T08:46:46.999Z</time>
      </trkpt>
      <trkpt lat="47.26798" lon="6.08817">
        <ele>250.186</ele>
        <time>2016-09-06T08:46:47.999Z</time>
      </trkpt>
      <trkpt lat="47.26798" lon="6.08818">
        <ele>249.628</ele>
        <time>2016-09-06T08:46:48.999Z</time>
      </trkpt>
      <trkpt lat="47.26797" lon="6.08819">
        <ele>250.46</ele>
        <time>2016-09-06T08:46:49.999Z</time>
      </trkpt>
      <trkpt lat="47.26796" lon="6.0882">
        <ele>249.582</ele>
        <time>2016-09-06T08:46:50.999Z</time>
      </trkpt>
      <trkpt lat="47.26794" lon="6.08821">
        <ele>249.75</ele>
        <time>2016-09-06T08:46:51.999Z</time>
      </trkpt>
      <trkpt lat="47.26793" lon="6.08823">
        <ele>249.971</ele>
        <time>2016-09-06T08:46:52.999Z</time>
      </trkpt>
      <trkpt lat="47.26791" lon="6.08825">
        <ele>249.982</ele>
        <time>2016-09-06T08:46:53.999Z</time>
      </trkpt>
      <trkpt lat="47.26789" lon="6.08828">
        <ele>250.431</ele>
        <time>2016-09-06T08:46:54.999Z</time>
      </trkpt>
      <trkpt lat="47.26786" lon="6.08831">
        <ele>249.73</ele>
        <time>2016-09-06T08:46:55.999Z</time>
      </trkpt>
      <trkpt lat="47.26784" lon="6.08834">
        <ele>249.911</ele>
        <time>2016-09-06T08:46:56.999Z</time>
      </trkpt>
      <trkpt lat="47.26782" lon="6.08836">
        <ele>249.053</ele>
        <time>2016-09-06T08:46:57.999Z</time>
      </trkpt>
      <trkpt lat="47.26779" lon="6.08839">
        <ele>248.155</ele>
        <time>2016-09-06T08:46:58.999Z</time>
      </trkpt>
      <trkpt lat="47.26776" lon="6.08842">
        <ele>248.492</ele>
        <time>2016-09-06T08:46:59.999Z</time>
      </trkpt>
      <trkpt lat="47.26774" lon="6.08846">
        <ele>248.265</ele>
        <time>2016-09-06T08:47:00.999Z</time>
      </trkpt>
      <trkpt lat="47.26772" lon="6.08849">
        <ele>247.169</ele>
        <time>2016-09-06T08:47:01.999Z</time>
      </trkpt>
      <trkpt lat="47.2677" lon="6.08851">
        <ele>246.56</ele>
        <time>2016-09-06T08:47:02.999Z</time>
      </trkpt>
      <trkpt lat="47.26768" lon="6.08854">
        <ele>247.255</ele>
        <time>2016-09-06T08:47:03.999Z</time>
      </trkpt>
      <trkpt lat="47.26765" lon="6.08857">
        <ele>248.191</ele>
        <time>2016-09-06T08:47:04.999Z</time>
      </trkpt>
      <trkpt lat="47.26762" lon="6.0886">
        <ele>247.539</ele>
        <time>2016-09-06T08:47:05.999Z</time>
      </trkpt>
      <trkpt lat="47.26758" lon="6.08863">
        <ele>247.348</ele>
        <time>2016-09-06T08:47:06.999Z</time>
      </trkpt>
      <trkpt lat="47.26755" lon="6.08866">
        <ele>247.332</ele>
        <time>2016-09-06T08:47:07.999Z</time>
      </trkpt>
      <trkpt lat="47.26752" lon="6.08869">
        <ele>247.179</ele>
        <time>2016-09-06T08:47:08.999Z</time>
      </trkpt>
      <trkpt lat="47.2675" lon="6.08871">
        <ele>247.299</ele>
        <time>2016-09-06T08:47:09.999Z</time>
      </trkpt>
      <trkpt lat="47.26746" lon="6.08873">
        <ele>247.731</ele>
        <time>2016-09-06T08:47:10.999Z</time>
      </trkpt>
      <trkpt lat="47.26743" lon="6.08875">
        <ele>248.962</ele>
        <time>2016-09-06T08:47:11.999Z</time>
      </trkpt>
      <trkpt lat="47.26739" lon="6.08877">
        <ele>248.244</ele>
        <time>2016-09-06T08:47:12.999Z</time>
      </trkpt>
      <trkpt lat="47.26735" lon="6.0888">
        <ele>248.09</ele>
        <time>2016-09-06T08:47:13.999Z</time>
      </trkpt>
      <trkpt lat="47.26732" lon="6.08881">
        <ele>248.254</ele>
        <time>2016-09-06T08:47:14.999Z</time>
      </trkpt>
      <trkpt lat="47.26728" lon="6.08881">
        <ele>248.129</ele>
        <time>2016-09-06T08:47:15.999Z</time>
      </trkpt>
      <trkpt lat="47.26725" lon="6.0888">
        <ele>246.929</ele>
        <time>2016-09-06T08:47:16.999Z</time>
      </trkpt>
      <trkpt lat="47.26722" lon="6.08878">
        <ele>245.939</ele>
        <time>2016-09-06T08:47:17.999Z</time>
      </trkpt>
      <trkpt lat="47.26718" lon="6.08877">
        <ele>246.607</ele>
        <time>2016-09-06T08:47:18.999Z</time>
      </trkpt>
      <trkpt lat="47.26715" lon="6.08875">
        <ele>246.472</ele>
        <time>2016-09-06T08:47:19.999Z</time>
      </trkpt>
      <trkpt lat="47.26711" lon="6.08873">
        <ele>245.489</ele>
        <time>2016-09-06T08:47:20.999Z</time>
      </trkpt>
      <trkpt lat="47.26708" lon="6.08871">
        <ele>246.184</ele>
        <time>2016-09-06T08:47:21.999Z</time>
      </trkpt>
      <trkpt lat="47.26704" lon="6.0887">
        <ele>245.045</ele>
        <time>2016-09-06T08:47:22.999Z</time>
      </trkpt>
      <trkpt lat="47.267" lon="6.08869">
        <ele>245.06</ele>
        <time>2016-09-06T08:47:23.999Z</time>
      </trkpt>
      <trkpt lat="47.26696" lon="6.08868">
        <ele>243.931</ele>
        <time>2016-09-06T08:47:24.999Z</time>
      </trkpt>
      <trkpt lat="47.26692" lon="6.08867">
        <ele>243.474</ele>
        <time>2016-09-06T08:47:25.999Z</time>
      </trkpt>
      <trkpt lat="47.26688" lon="6.08867">
        <ele>242.867</ele>
        <time>2016-09-06T08:47:26.999Z</time>
      </trkpt>
      <trkpt lat="47.26684" lon="6.08865">
        <ele>244.306</ele>
        <time>2016-09-06T08:47:27.999Z</time>
      </trkpt>
      <trkpt lat="47.26679" lon="6.08862">
        <ele>244.035</ele>
        <time>2016-09-06T08:47:28.999Z</time>
      </trkpt>
      <trkpt lat="47.26674" lon="6.08861">
        <ele>242.797</ele>
        <time>2016-09-06T08:47:29.999Z</time>
      </trkpt>
      <trkpt lat="47.26669" lon="6.08858">
        <ele>242.117</ele>
        <time>2016-09-06T08:47:30.999Z</time>
      </trkpt>
      <trkpt lat="47.26664" lon="6.08855">
        <ele>243.85</ele>
        <time>2016-09-06T08:47:31.999Z</time>
      </trkpt>
      <trkpt lat="47.26659" lon="6.08852">
        <ele>244.31</ele>
        <time>2016-09-06T08:47:32.999Z</time>
      </trkpt>
      <trkpt lat="47.26653" lon="6.08851">
        <ele>243.222</ele>
        <time>2016-09-06T08:47:33.999Z</time>
      </trkpt>
      <trkpt lat="47.26647" lon="6.08849">
        <ele>241.667</ele>
        <time>2016-09-06T08:47:34.999Z</time>
      </trkpt>
      <trkpt lat="47.26642" lon="6.0885">
        <ele>240.59</ele>
        <time>2016-09-06T08:47:35.999Z</time>
      </trkpt>
      <trkpt lat="47.26636" lon="6.08849">
        <ele>240.054</ele>
        <time>2016-09-06T08:47:36.999Z</time>
      </trkpt>
      <trkpt lat="47.2663" lon="6.08848">
        <ele>240.767</ele>
        <time>2016-09-06T08:47:37.999Z</time>
      </trkpt>
      <trkpt lat="47.26625" lon="6.08847">
        <ele>240.455</ele>
        <time>2016-09-06T08:47:38.999Z</time>
      </trkpt>
      <trkpt lat="47.2662" lon="6.08846">
        <ele>239.878</ele>
        <time>2016-09-06T08:47:39.999Z</time>
      </trkpt>
      <trkpt lat="47.26614" lon="6.08845">
        <ele>240.18</ele>
        <time>2016-09-06T08:47:40.999Z</time>
      </trkpt>
      <trkpt lat="47.26609" lon="6.08844">
        <ele>240.102</ele>
        <time>2016-09-06T08:47:41.999Z</time>
      </trkpt>
      <trkpt lat="47.26604" lon="6.08842">
        <ele>241.381</ele>
        <time>2016-09-06T08:47:42.999Z</time>
      </trkpt>
      <trkpt lat="47.26599" lon="6.0884">
        <ele>240.689</ele>
        <time>2016-09-06T08:47:43.999Z</time>
      </trkpt>
      <trkpt lat="47.26593" lon="6.08839">
        <ele>241.138</ele>
        <time>2016-09-06T08:47:44.999Z</time>
      </trkpt>
      <trkpt lat="47.26588" lon="6.08836">
        <ele>239.376</ele>
        <time>2016-09-06T08:47:45.999Z</time>
      </trkpt>
      <trkpt lat="47.26583" lon="6.08833">
        <ele>240.305</ele>
        <time>2016-09-06T08:47:46.999Z</time>
      </trkpt>
      <trkpt lat="47.26577" lon="6.08831">
        <ele>236.966</ele>
        <time>2016-09-06T08:47:47.999Z</time>
      </trkpt>
      <trkpt lat="47.2657" lon="6.08827">
        <ele>238.145</ele>
        <time>2016-09-06T08:47:48.999Z</time>
      </trkpt>
      <trkpt lat="47.26564" lon="6.08824">
        <ele>236.53</ele>
        <time>2016-09-06T08:47:49.999Z</time>
      </trkpt>
      <trkpt lat="47.26557" lon="6.0882">
        <ele>235.656</ele>
        <time>2016-09-06T08:47:50.999Z</time>
      </trkpt>
      <trkpt lat="47.26551" lon="6.08817">
        <ele>234.943</ele>
        <time>2016-09-06T08:47:51.999Z</time>
      </trkpt>
      <trkpt lat="47.26545" lon="6.08813">
        <ele>234.938</ele>
        <time>2016-09-06T08:47:52.999Z</time>
      </trkpt>
      <trkpt lat="47.26538" lon="6.08809">
        <ele>235.033</ele>
        <time>2016-09-06T08:47:53.999Z</time>
      </trkpt>
      <trkpt lat="47.26533" lon="6.08806">
        <ele>236.069</ele>
        <time>2016-09-06T08:47:54.999Z</time>
      </trkpt>
      <trkpt lat="47.26527" lon="6.08802">
        <ele>236.432</ele>
        <time>2016-09-06T08:47:55.999Z</time>
      </trkpt>
      <trkpt lat="47.26521" lon="6.088">
        <ele>236.109</ele>
        <time>2016-09-06T08:47:56.999Z</time>
      </trkpt>
      <trkpt lat="47.26514" lon="6.08796">
        <ele>235.946</ele>
        <time>2016-09-06T08:47:57.999Z</time>
      </trkpt>
      <trkpt lat="47.26508" lon="6.08793">
        <ele>235.242</ele>
        <time>2016-09-06T08:47:58.999Z</time>
      </trkpt>
      <trkpt lat="47.26503" lon="6.0879">
        <ele>234.562</ele>
        <time>2016-09-06T08:47:59.999Z</time>
      </trkpt>
      <trkpt lat="47.26497" lon="6.08786">
        <ele>234.498</ele>
        <time>2016-09-06T08:48:00.999Z</time>
      </trkpt>
      <trkpt lat="47.26492" lon="6.08783">
        <ele>235.195</ele>
        <time>2016-09-06T08:48:01.999Z</time>
      </trkpt>
      <trkpt lat="47.26486" lon="6.0878">
        <ele>234.346</ele>
        <time>2016-09-06T08:48:02.999Z</time>
      </trkpt>
      <trkpt lat="47.26482" lon="6.08777">
        <ele>235.173</ele>
        <time>2016-09-06T08:48:03.999Z</time>
      </trkpt>
      <trkpt lat="47.26476" lon="6.08774">
        <ele>235.716</ele>
        <time>2016-09-06T08:48:04.999Z</time>
      </trkpt>
      <trkpt lat="47.26471" lon="6.0877">
        <ele>235.788</ele>
        <time>2016-09-06T08:48:05.999Z</time>
      </trkpt>
      <trkpt lat="47.26465" lon="6.08767">
        <ele>235.9</ele>
        <time>2016-09-06T08:48:06.999Z</time>
      </trkpt>
      <trkpt lat="47.26459" lon="6.08763">
        <ele>234.814</ele>
        <time>2016-09-06T08:48:07.999Z</time>
      </trkpt>
      <trkpt lat="47.26453" lon="6.08758">
        <ele>235.826</ele>
        <time>2016-09-06T08:48:08.999Z</time>
      </trkpt>
      <trkpt lat="47.26448" lon="6.08755">
        <ele>235.319</ele>
        <time>2016-09-06T08:48:09.999Z</time>
      </trkpt>
      <trkpt lat="47.26442" lon="6.08753">
        <ele>235.301</ele>
        <time>2016-09-06T08:48:10.999Z</time>
      </trkpt>
      <trkpt lat="47.26437" lon="6.08751">
        <ele>236.009</ele>
        <time>2016-09-06T08:48:11.999Z</time>
      </trkpt>
      <trkpt lat="47.26433" lon="6.08749">
        <ele>236.048</ele>
        <time>2016-09-06T08:48:12.999Z</time>
      </trkpt>
      <trkpt lat="47.26428" lon="6.08747">
        <ele>237.977</ele>
        <time>2016-09-06T08:48:13.999Z</time>
      </trkpt>
      <trkpt lat="47.26423" lon="6.08744">
        <ele>237.535</ele>
        <time>2016-09-06T08:48:14.999Z</time>
      </trkpt>
      <trkpt lat="47.26418" lon="6.08743">
        <ele>237.608</ele>
        <time>2016-09-06T08:48:15.999Z</time>
      </trkpt>
      <trkpt lat="47.26413" lon="6.08741">
        <ele>237.262</ele>
        <time>2016-09-06T08:48:16.999Z</time>
      </trkpt>
      <trkpt lat="47.26408" lon="6.0874">
        <ele>237.471</ele>
        <time>2016-09-06T08:48:17.999Z</time>
      </trkpt>
      <trkpt lat="47.26403" lon="6.08739">
        <ele>238.496</ele>
        <time>2016-09-06T08:48:18.999Z</time>
      </trkpt>
      <trkpt lat="47.26398" lon="6.08738">
        <ele>238.621</ele>
        <time>2016-09-06T08:48:19.999Z</time>
      </trkpt>
      <trkpt lat="47.26393" lon="6.08736">
        <ele>239.064</ele>
        <time>2016-09-06T08:48:20.999Z</time>
      </trkpt>
      <trkpt lat="47.26388" lon="6.08734">
        <ele>238.904</ele>
        <time>2016-09-06T08:48:21.999Z</time>
      </trkpt>
      <trkpt lat="47.26383" lon="6.08733">
        <ele>238.525</ele>
        <time>2016-09-06T08:48:22.999Z</time>
      </trkpt>
      <trkpt lat="47.26378" lon="6.08731">
        <ele>238.351</ele>
        <time>2016-09-06T08:48:23.999Z</time>
      </trkpt>
      <trkpt lat="47.26373" lon="6.08729">
        <ele>238.637</ele>
        <time>2016-09-06T08:48:24.999Z</time>
      </trkpt>
      <trkpt lat="47.26368" lon="6.08728">
        <ele>238.728</ele>
        <time>2016-09-06T08:48:25.999Z</time>
      </trkpt>
      <trkpt lat="47.26363" lon="6.08727">
        <ele>238.682</ele>
        <time>2016-09-06T08:48:26.999Z</time>
      </trkpt>
      <trkpt lat="47.26357" lon="6.08726">
        <ele>238.447</ele>
        <time>2016-09-06T08:48:27.999Z</time>
      </trkpt>
      <trkpt lat="47.26352" lon="6.08724">
        <ele>238.227</ele>
        <time>2016-09-06T08:48:28.999Z</time>
      </trkpt>
      <trkpt lat="47.26347" lon="6.08721">
        <ele>238.169</ele>
        <time>2016-09-06T08:48:29.999Z</time>
      </trkpt>
      <trkpt lat="47.26342" lon="6.08718">
        <ele>237.956</ele>
        <time>2016-09-06T08:48:30.999Z</time>
      </trkpt>
      <trkpt lat="47.26337" lon="6.08716">
        <ele>237.58</ele>
        <time>2016-09-06T08:48:31.999Z</time>
      </trkpt>
      <trkpt lat="47.26333" lon="6.08714">
        <ele>236.979</ele>
        <time>2016-09-06T08:48:32.999Z</time>
      </trkpt>
      <trkpt lat="47.26328" lon="6.08712">
        <ele>236.601</ele>
        <time>2016-09-06T08:48:33.999Z</time>
      </trkpt>
      <trkpt lat="47.26323" lon="6.08711">
        <ele>237.151</ele>
        <time>2016-09-06T08:48:34.999Z</time>
      </trkpt>
      <trkpt lat="47.26319" lon="6.08709">
        <ele>236.452</ele>
        <time>2016-09-06T08:48:35.999Z</time>
      </trkpt>
      <trkpt lat="47.26314" lon="6.08706">
        <ele>236.662</ele>
        <time>2016-09-06T08:48:36.999Z</time>
      </trkpt>
      <trkpt lat="47.2631" lon="6.08704">
        <ele>237.172</ele>
        <time>2016-09-06T08:48:37.999Z</time>
      </trkpt>
      <trkpt lat="47.26306" lon="6.08702">
        <ele>236.662</ele>
        <time>2016-09-06T08:48:38.999Z</time>
      </trkpt>
      <trkpt lat="47.26302" lon="6.08702">
        <ele>235.124</ele>
        <time>2016-09-06T08:48:39.999Z</time>
      </trkpt>
      <trkpt lat="47.26297" lon="6.08699">
        <ele>233.989</ele>
        <time>2016-09-06T08:48:40.999Z</time>
      </trkpt>
      <trkpt lat="47.26292" lon="6.08697">
        <ele>233.464</ele>
        <time>2016-09-06T08:48:41.999Z</time>
      </trkpt>
      <trkpt lat="47.26287" lon="6.08695">
        <ele>233.759</ele>
        <time>2016-09-06T08:48:42.999Z</time>
      </trkpt>
      <trkpt lat="47.26282" lon="6.08692">
        <ele>232.423</ele>
        <time>2016-09-06T08:48:43.999Z</time>
      </trkpt>
      <trkpt lat="47.26277" lon="6.0869">
        <ele>231.456</ele>
        <time>2016-09-06T08:48:44.999Z</time>
      </trkpt>
      <trkpt lat="47.26273" lon="6.08687">
        <ele>231.512</ele>
        <time>2016-09-06T08:48:45.999Z</time>
      </trkpt>
      <trkpt lat="47.26268" lon="6.08684">
        <ele>231.394</ele>
        <time>2016-09-06T08:48:46.999Z</time>
      </trkpt>
      <trkpt lat="47.26264" lon="6.08682">
        <ele>232.712</ele>
        <time>2016-09-06T08:48:47.999Z</time>
      </trkpt>
      <trkpt lat="47.2626" lon="6.0868">
        <ele>231.549</ele>
        <time>2016-09-06T08:48:48.999Z</time>
      </trkpt>
      <trkpt lat="47.26254" lon="6.08678">
        <ele>231.64</ele>
        <time>2016-09-06T08:48:49.999Z</time>
      </trkpt>
      <trkpt lat="47.26249" lon="6.08675">
        <ele>230.976</ele>
        <time>2016-09-06T08:48:50.999Z</time>
      </trkpt>
      <trkpt lat="47.26245" lon="6.08672">
        <ele>230.357</ele>
        <time>2016-09-06T08:48:51.999Z</time>
      </trkpt>
      <trkpt lat="47.2624" lon="6.08669">
        <ele>230.141</ele>
        <time>2016-09-06T08:48:52.999Z</time>
      </trkpt>
      <trkpt lat="47.26235" lon="6.08666">
        <ele>230.6</ele>
        <time>2016-09-06T08:48:53.999Z</time>
      </trkpt>
      <trkpt lat="47.26231" lon="6.08663">
        <ele>231.121</ele>
        <time>2016-09-06T08:48:54.999Z</time>
      </trkpt>
      <trkpt lat="47.26226" lon="6.08661">
        <ele>231.285</ele>
        <time>2016-09-06T08:48:55.999Z</time>
      </trkpt>
      <trkpt lat="47.26222" lon="6.08657">
        <ele>231.774</ele>
        <time>2016-09-06T08:48:56.999Z</time>
      </trkpt>
      <trkpt lat="47.26217" lon="6.08654">
        <ele>231.1</ele>
        <time>2016-09-06T08:48:57.999Z</time>
      </trkpt>
      <trkpt lat="47.26213" lon="6.08651">
        <ele>231.216</ele>
        <time>2016-09-06T08:48:58.999Z</time>
      </trkpt>
      <trkpt lat="47.26209" lon="6.08647">
        <ele>232.886</ele>
        <time>2016-09-06T08:48:59.999Z</time>
      </trkpt>
      <trkpt lat="47.26204" lon="6.08643">
        <ele>232.56</ele>
        <time>2016-09-06T08:49:00.999Z</time>
      </trkpt>
      <trkpt lat="47.262" lon="6.0864">
        <ele>232.984</ele>
        <time>2016-09-06T08:49:01.999Z</time>
      </trkpt>
      <trkpt lat="47.26196" lon="6.08636">
        <ele>233.214</ele>
        <time>2016-09-06T08:49:02.999Z</time>
      </trkpt>
      <trkpt lat="47.26192" lon="6.08633">
        <ele>233.158</ele>
        <time>2016-09-06T08:49:03.999Z</time>
      </trkpt>
      <trkpt lat="47.26188" lon="6.08629">
        <ele>234.847</ele>
        <time>2016-09-06T08:49:04.999Z</time>
      </trkpt>
      <trkpt lat="47.26184" lon="6.08626">
        <ele>235.332</ele>
        <time>2016-09-06T08:49:05.999Z</time>
      </trkpt>
      <trkpt lat="47.2618" lon="6.08622">
        <ele>236.347</ele>
        <time>2016-09-06T08:49:06.999Z</time>
      </trkpt>
      <trkpt lat="47.26176" lon="6.08618">
        <ele>237.461</ele>
        <time>2016-09-06T08:49:07.999Z</time>
      </trkpt>
      <trkpt lat="47.26172" lon="6.08615">
        <ele>237.556</ele>
        <time>2016-09-06T08:49:08.999Z</time>
      </trkpt>
      <trkpt lat="47.26168" lon="6.08612">
        <ele>237.409</ele>
        <time>2016-09-06T08:49:09.999Z</time>
      </trkpt>
      <trkpt lat="47.26163" lon="6.08608">
        <ele>238.134</ele>
        <time>2016-09-06T08:49:10.999Z</time>
      </trkpt>
      <trkpt lat="47.26159" lon="6.08605">
        <ele>237.719</ele>
        <time>2016-09-06T08:49:11.999Z</time>
      </trkpt>
      <trkpt lat="47.26155" lon="6.08603">
        <ele>237.044</ele>
        <time>2016-09-06T08:49:12.999Z</time>
      </trkpt>
      <trkpt lat="47.26151" lon="6.086">
        <ele>238</ele>
        <time>2016-09-06T08:49:13.999Z</time>
      </trkpt>
      <trkpt lat="47.26147" lon="6.08597">
        <ele>236.977</ele>
        <time>2016-09-06T08:49:14.999Z</time>
      </trkpt>
      <trkpt lat="47.26144" lon="6.08593">
        <ele>238.276</ele>
        <time>2016-09-06T08:49:15.999Z</time>
      </trkpt>
      <trkpt lat="47.2614" lon="6.0859">
        <ele>239.031</ele>
        <time>2016-09-06T08:49:16.999Z</time>
      </trkpt>
      <trkpt lat="47.26136" lon="6.08586">
        <ele>239.082</ele>
        <time>2016-09-06T08:49:17.999Z</time>
      </trkpt>
      <trkpt lat="47.26131" lon="6.08582">
        <ele>238.741</ele>
        <time>2016-09-06T08:49:18.999Z</time>
      </trkpt>
      <trkpt lat="47.26127" lon="6.08579">
        <ele>238.26</ele>
        <time>2016-09-06T08:49:19.999Z</time>
      </trkpt>
      <trkpt lat="47.26123" lon="6.08575">
        <ele>239.096</ele>
        <time>2016-09-06T08:49:20.999Z</time>
      </trkpt>
      <trkpt lat="47.26119" lon="6.08571">
        <ele>239.406</ele>
        <time>2016-09-06T08:49:21.999Z</time>
      </trkpt>
      <trkpt lat="47.26115" lon="6.08568">
        <ele>238.947</ele>
        <time>2016-09-06T08:49:22.999Z</time>
      </trkpt>
      <trkpt lat="47.26111" lon="6.08565">
        <ele>239.863</ele>
        <time>2016-09-06T08:49:23.999Z</time>
      </trkpt>
      <trkpt lat="47.26107" lon="6.08562">
        <ele>240.323</ele>
        <time>2016-09-06T08:49:24.999Z</time>
      </trkpt>
      <trkpt lat="47.26102" lon="6.08559">
        <ele>240.888</ele>
        <time>2016-09-06T08:49:25.999Z</time>
      </trkpt>
      <trkpt lat="47.26098" lon="6.08556">
        <ele>240.944</ele>
        <time>2016-09-06T08:49:26.999Z</time>
      </trkpt>
      <trkpt lat="47.26094" lon="6.08552">
        <ele>240.897</ele>
        <time>2016-09-06T08:49:27.999Z</time>
      </trkpt>
      <trkpt lat="47.2609" lon="6.0855">
        <ele>240.797</ele>
        <time>2016-09-06T08:49:28.999Z</time>
      </trkpt>
      <trkpt lat="47.26085" lon="6.08547">
        <ele>240.918</ele>
        <time>2016-09-06T08:49:29.999Z</time>
      </trkpt>
      <trkpt lat="47.26081" lon="6.08544">
        <ele>241.009</ele>
        <time>2016-09-06T08:49:30.999Z</time>
      </trkpt>
      <trkpt lat="47.26077" lon="6.08541">
        <ele>240.53</ele>
        <time>2016-09-06T08:49:31.999Z</time>
      </trkpt>
      <trkpt lat="47.26073" lon="6.08538">
        <ele>240.619</ele>
        <time>2016-09-06T08:49:32.999Z</time>
      </trkpt>
      <trkpt lat="47.26068" lon="6.08535">
        <ele>240.653</ele>
        <time>2016-09-06T08:49:33.999Z</time>
      </trkpt>
      <trkpt lat="47.26064" lon="6.08533">
        <ele>240.702</ele>
        <time>2016-09-06T08:49:34.999Z</time>
      </trkpt>
      <trkpt lat="47.2606" lon="6.0853">
        <ele>240.77</ele>
        <time>2016-09-06T08:49:35.999Z</time>
      </trkpt>
      <trkpt lat="47.26055" lon="6.08528">
        <ele>240.105</ele>
        <time>2016-09-06T08:49:36.999Z</time>
      </trkpt>
      <trkpt lat="47.26051" lon="6.08525">
        <ele>239.927</ele>
        <time>2016-09-06T08:49:37.999Z</time>
      </trkpt>
      <trkpt lat="47.26047" lon="6.08522">
        <ele>240.423</ele>
        <time>2016-09-06T08:49:38.999Z</time>
      </trkpt>
      <trkpt lat="47.26042" lon="6.08519">
        <ele>240.324</ele>
        <time>2016-09-06T08:49:39.999Z</time>
      </trkpt>
      <trkpt lat="47.26038" lon="6.08517">
        <ele>240.81</ele>
        <time>2016-09-06T08:49:40.999Z</time>
      </trkpt>
      <trkpt lat="47.26033" lon="6.08514">
        <ele>240.886</ele>
        <time>2016-09-06T08:49:41.999Z</time>
      </trkpt>
      <trkpt lat="47.26029" lon="6.08512">
        <ele>241.972</ele>
        <time>2016-09-06T08:49:42.999Z</time>
      </trkpt>
      <trkpt lat="47.26025" lon="6.0851">
        <ele>243.095</ele>
        <time>2016-09-06T08:49:43.999Z</time>
      </trkpt>
      <trkpt lat="47.26021" lon="6.08507">
        <ele>243.042</ele>
        <time>2016-09-06T08:49:44.999Z</time>
      </trkpt>
      <trkpt lat="47.26016" lon="6.08504">
        <ele>243.256</ele>
        <time>2016-09-06T08:49:45.999Z</time>
      </trkpt>
      <trkpt lat="47.26012" lon="6.08501">
        <ele>242.08</ele>
        <time>2016-09-06T08:49:46.999Z</time>
      </trkpt>
      <trkpt lat="47.26008" lon="6.08498">
        <ele>242.596</ele>
        <time>2016-09-06T08:49:47.999Z</time>
      </trkpt>
      <trkpt lat="47.26004" lon="6.08495">
        <ele>242.673</ele>
        <time>2016-09-06T08:49:48.999Z</time>
      </trkpt>
      <trkpt lat="47.26" lon="6.08492">
        <ele>243.151</ele>
        <time>2016-09-06T08:49:49.999Z</time>
      </trkpt>
      <trkpt lat="47.25996" lon="6.08488">
        <ele>243.628</ele>
        <time>2016-09-06T08:49:50.999Z</time>
      </trkpt>
      <trkpt lat="47.25992" lon="6.08485">
        <ele>244.005</ele>
        <time>2016-09-06T08:49:51.999Z</time>
      </trkpt>
      <trkpt lat="47.25988" lon="6.08482">
        <ele>244.482</ele>
        <time>2016-09-06T08:49:52.999Z</time>
      </trkpt>
      <trkpt lat="47.25985" lon="6.08479">
        <ele>244.384</ele>
        <time>2016-09-06T08:49:53.999Z</time>
      </trkpt>
      <trkpt lat="47.25981" lon="6.08476">
        <ele>244.688</ele>
        <time>2016-09-06T08:49:54.999Z</time>
      </trkpt>
      <trkpt lat="47.25978" lon="6.08472">
        <ele>244.234</ele>
        <time>2016-09-06T08:49:55.999Z</time>
      </trkpt>
      <trkpt lat="47.25974" lon="6.08471">
        <ele>244.247</ele>
        <time>2016-09-06T08:49:56.999Z</time>
      </trkpt>
      <trkpt lat="47.2597" lon="6.08468">
        <ele>244.925</ele>
        <time>2016-09-06T08:49:57.999Z</time>
      </trkpt>
      <trkpt lat="47.25966" lon="6.08465">
        <ele>245.161</ele>
        <time>2016-09-06T08:49:58.999Z</time>
      </trkpt>
      <trkpt lat="47.25962" lon="6.08463">
        <ele>244.53</ele>
        <time>2016-09-06T08:49:59.999Z</time>
      </trkpt>
      <trkpt lat="47.25959" lon="6.08462">
        <ele>243.485</ele>
        <time>2016-09-06T08:50:00.999Z</time>
      </trkpt>
      <trkpt lat="47.25954" lon="6.08461">
        <ele>242.291</ele>
        <time>2016-09-06T08:50:01.999Z</time>
      </trkpt>
      <trkpt lat="47.25949" lon="6.08459">
        <ele>242.117</ele>
        <time>2016-09-06T08:50:02.999Z</time>
      </trkpt>
      <trkpt lat="47.25945" lon="6.08457">
        <ele>241.414</ele>
        <time>2016-09-06T08:50:03.999Z</time>
      </trkpt>
      <trkpt lat="47.2594" lon="6.08456">
        <ele>240.574</ele>
        <time>2016-09-06T08:50:04.999Z</time>
      </trkpt>
      <trkpt lat="47.25935" lon="6.08454">
        <ele>240.941</ele>
        <time>2016-09-06T08:50:05.999Z</time>
      </trkpt>
      <trkpt lat="47.25931" lon="6.08451">
        <ele>242.384</ele>
        <time>2016-09-06T08:50:06.999Z</time>
      </trkpt>
      <trkpt lat="47.25927" lon="6.0845">
        <ele>241.853</ele>
        <time>2016-09-06T08:50:07.999Z</time>
      </trkpt>
      <trkpt lat="47.25921" lon="6.08448">
        <ele>241.3</ele>
        <time>2016-09-06T08:50:08.999Z</time>
      </trkpt>
      <trkpt lat="47.25916" lon="6.08447">
        <ele>240.55</ele>
        <time>2016-09-06T08:50:09.999Z</time>
      </trkpt>
      <trkpt lat="47.25912" lon="6.08445">
        <ele>240.966</ele>
        <time>2016-09-06T08:50:10.999Z</time>
      </trkpt>
      <trkpt lat="47.25908" lon="6.08444">
        <ele>241.686</ele>
        <time>2016-09-06T08:50:11.999Z</time>
      </trkpt>
      <trkpt lat="47.25903" lon="6.08442">
        <ele>242.847</ele>
        <time>2016-09-06T08:50:12.999Z</time>
      </trkpt>
      <trkpt lat="47.25899" lon="6.08439">
        <ele>242.257</ele>
        <time>2016-09-06T08:50:13.999Z</time>
      </trkpt>
      <trkpt lat="47.25894" lon="6.08437">
        <ele>242.595</ele>
        <time>2016-09-06T08:50:14.999Z</time>
      </trkpt>
      <trkpt lat="47.25889" lon="6.08435">
        <ele>241.71</ele>
        <time>2016-09-06T08:50:15.999Z</time>
      </trkpt>
      <trkpt lat="47.25885" lon="6.08433">
        <ele>241.582</ele>
        <time>2016-09-06T08:50:16.999Z</time>
      </trkpt>
      <trkpt lat="47.25881" lon="6.0843">
        <ele>241.281</ele>
        <time>2016-09-06T08:50:17.999Z</time>
      </trkpt>
      <trkpt lat="47.25876" lon="6.08428">
        <ele>241.154</ele>
        <time>2016-09-06T08:50:18.999Z</time>
      </trkpt>
      <trkpt lat="47.25873" lon="6.08425">
        <ele>239.882</ele>
        <time>2016-09-06T08:50:19.999Z</time>
      </trkpt>
      <trkpt lat="47.25868" lon="6.08423">
        <ele>239.796</ele>
        <time>2016-09-06T08:50:20.999Z</time>
      </trkpt>
      <trkpt lat="47.25864" lon="6.08421">
        <ele>239.458</ele>
        <time>2016-09-06T08:50:21.999Z</time>
      </trkpt>
      <trkpt lat="47.2586" lon="6.08418">
        <ele>239.429</ele>
        <time>2016-09-06T08:50:22.999Z</time>
      </trkpt>
      <trkpt lat="47.25855" lon="6.08415">
        <ele>238.74</ele>
        <time>2016-09-06T08:50:23.999Z</time>
      </trkpt>
      <trkpt lat="47.25852" lon="6.08413">
        <ele>238.093</ele>
        <time>2016-09-06T08:50:24.999Z</time>
      </trkpt>
      <trkpt lat="47.25847" lon="6.0841">
        <ele>239.114</ele>
        <time>2016-09-06T08:50:25.999Z</time>
      </trkpt>
      <trkpt lat="47.25843" lon="6.08407">
        <ele>239.197</ele>
        <time>2016-09-06T08:50:26.999Z</time>
      </trkpt>
      <trkpt lat="47.25839" lon="6.08404">
        <ele>238.938</ele>
        <time>2016-09-06T08:50:27.999Z</time>
      </trkpt>
      <trkpt lat="47.25834" lon="6.08401">
        <ele>239.003</ele>
        <time>2016-09-06T08:50:28.999Z</time>
      </trkpt>
      <trkpt lat="47.2583" lon="6.08398">
        <ele>239.783</ele>
        <time>2016-09-06T08:50:29.999Z</time>
      </trkpt>
      <trkpt lat="47.25825" lon="6.08394">
        <ele>240.061</ele>
        <time>2016-09-06T08:50:30.999Z</time>
      </trkpt>
      <trkpt lat="47.25821" lon="6.08391">
        <ele>240.555</ele>
        <time>2016-09-06T08:50:31.999Z</time>
      </trkpt>
      <trkpt lat="47.25817" lon="6.08388">
        <ele>240.072</ele>
        <time>2016-09-06T08:50:32.999Z</time>
      </trkpt>
      <trkpt lat="47.25813" lon="6.08386">
        <ele>241.055</ele>
        <time>2016-09-06T08:50:33.999Z</time>
      </trkpt>
      <trkpt lat="47.25809" lon="6.08384">
        <ele>240.825</ele>
        <time>2016-09-06T08:50:34.999Z</time>
      </trkpt>
      <trkpt lat="47.25805" lon="6.0838">
        <ele>240.698</ele>
        <time>2016-09-06T08:50:35.999Z</time>
      </trkpt>
      <trkpt lat="47.258" lon="6.08377">
        <ele>239.862</ele>
        <time>2016-09-06T08:50:36.999Z</time>
      </trkpt>
      <trkpt lat="47.25796" lon="6.08374">
        <ele>238.847</ele>
        <time>2016-09-06T08:50:37.999Z</time>
      </trkpt>
      <trkpt lat="47.25792" lon="6.08371">
        <ele>238.644</ele>
        <time>2016-09-06T08:50:38.999Z</time>
      </trkpt>
      <trkpt lat="47.25788" lon="6.08368">
        <ele>239.29</ele>
        <time>2016-09-06T08:50:39.999Z</time>
      </trkpt>
      <trkpt lat="47.25784" lon="6.08366">
        <ele>238.65</ele>
        <time>2016-09-06T08:50:40.999Z</time>
      </trkpt>
      <trkpt lat="47.2578" lon="6.08363">
        <ele>239.43</ele>
        <time>2016-09-06T08:50:41.999Z</time>
      </trkpt>
      <trkpt lat="47.25775" lon="6.08362">
        <ele>239.156</ele>
        <time>2016-09-06T08:50:42.999Z</time>
      </trkpt>
      <trkpt lat="47.2577" lon="6.0836">
        <ele>239.448</ele>
        <time>2016-09-06T08:50:43.999Z</time>
      </trkpt>
      <trkpt lat="47.25766" lon="6.08357">
        <ele>239.471</ele>
        <time>2016-09-06T08:50:44.999Z</time>
      </trkpt>
      <trkpt lat="47.25762" lon="6.08355">
        <ele>239.07</ele>
        <time>2016-09-06T08:50:45.999Z</time>
      </trkpt>
      <trkpt lat="47.25758" lon="6.08351">
        <ele>239.226</ele>
        <time>2016-09-06T08:50:46.999Z</time>
      </trkpt>
      <trkpt lat="47.25753" lon="6.08349">
        <ele>239.509</ele>
        <time>2016-09-06T08:50:47.999Z</time>
      </trkpt>
      <trkpt lat="47.25749" lon="6.08345">
        <ele>239.926</ele>
        <time>2016-09-06T08:50:48.999Z</time>
      </trkpt>
      <trkpt lat="47.25744" lon="6.08343">
        <ele>240.299</ele>
        <time>2016-09-06T08:50:49.999Z</time>
      </trkpt>
      <trkpt lat="47.25739" lon="6.08341">
        <ele>240.242</ele>
        <time>2016-09-06T08:50:50.999Z</time>
      </trkpt>
      <trkpt lat="47.25734" lon="6.08338">
        <ele>240.929</ele>
        <time>2016-09-06T08:50:51.999Z</time>
      </trkpt>
      <trkpt lat="47.2573" lon="6.08334">
        <ele>241.148</ele>
        <time>2016-09-06T08:50:52.999Z</time>
      </trkpt>
      <trkpt lat="47.25725" lon="6.08332">
        <ele>241.487</ele>
        <time>2016-09-06T08:50:53.999Z</time>
      </trkpt>
      <trkpt lat="47.2572" lon="6.08329">
        <ele>241.288</ele>
        <time>2016-09-06T08:50:54.999Z</time>
      </trkpt>
      <trkpt lat="47.25716" lon="6.08325">
        <ele>241.241</ele>
        <time>2016-09-06T08:50:55.999Z</time>
      </trkpt>
      <trkpt lat="47.25712" lon="6.08323">
        <ele>241.279</ele>
        <time>2016-09-06T08:50:56.999Z</time>
      </trkpt>
      <trkpt lat="47.25707" lon="6.08321">
        <ele>240.63</ele>
        <time>2016-09-06T08:50:57.999Z</time>
      </trkpt>
      <trkpt lat="47.25703" lon="6.08319">
        <ele>240.675</ele>
        <time>2016-09-06T08:50:58.999Z</time>
      </trkpt>
      <trkpt lat="47.25699" lon="6.08316">
        <ele>239.479</ele>
        <time>2016-09-06T08:50:59.999Z</time>
      </trkpt>
      <trkpt lat="47.25695" lon="6.08314">
        <ele>239.414</ele>
        <time>2016-09-06T08:51:00.999Z</time>
      </trkpt>
      <trkpt lat="47.25691" lon="6.0831">
        <ele>239.254</ele>
        <time>2016-09-06T08:51:01.999Z</time>
      </trkpt>
      <trkpt lat="47.25686" lon="6.08307">
        <ele>238.695</ele>
        <time>2016-09-06T08:51:02.999Z</time>
      </trkpt>
      <trkpt lat="47.25681" lon="6.08304">
        <ele>238.223</ele>
        <time>2016-09-06T08:51:03.999Z</time>
      </trkpt>
      <trkpt lat="47.25677" lon="6.08301">
        <ele>237.962</ele>
        <time>2016-09-06T08:51:04.999Z</time>
      </trkpt>
      <trkpt lat="47.25673" lon="6.08298">
        <ele>237.208</ele>
        <time>2016-09-06T08:51:05.999Z</time>
      </trkpt>
      <trkpt lat="47.25668" lon="6.08296">
        <ele>237.426</ele>
        <time>2016-09-06T08:51:06.999Z</time>
      </trkpt>
      <trkpt lat="47.25664" lon="6.08293">
        <ele>236.045</ele>
        <time>2016-09-06T08:51:07.999Z</time>
      </trkpt>
      <trkpt lat="47.25659" lon="6.0829">
        <ele>236.095</ele>
        <time>2016-09-06T08:51:08.999Z</time>
      </trkpt>
      <trkpt lat="47.25654" lon="6.08287">
        <ele>236.304</ele>
        <time>2016-09-06T08:51:09.999Z</time>
      </trkpt>
      <trkpt lat="47.2565" lon="6.08283">
        <ele>237.774</ele>
        <time>2016-09-06T08:51:10.999Z</time>
      </trkpt>
      <trkpt lat="47.25645" lon="6.08281">
        <ele>237.81</ele>
        <time>2016-09-06T08:51:11.999Z</time>
      </trkpt>
      <trkpt lat="47.25641" lon="6.08277">
        <ele>237.551</ele>
        <time>2016-09-06T08:51:12.999Z</time>
      </trkpt>
      <trkpt lat="47.25636" lon="6.08276">
        <ele>236.605</ele>
        <time>2016-09-06T08:51:13.999Z</time>
      </trkpt>
      <trkpt lat="47.25631" lon="6.08273">
        <ele>236.502</ele>
        <time>2016-09-06T08:51:14.999Z</time>
      </trkpt>
      <trkpt lat="47.25627" lon="6.0827">
        <ele>237.022</ele>
        <time>2016-09-06T08:51:15.999Z</time>
      </trkpt>
      <trkpt lat="47.25622" lon="6.08267">
        <ele>237.103</ele>
        <time>2016-09-06T08:51:16.999Z</time>
      </trkpt>
      <trkpt lat="47.25618" lon="6.08264">
        <ele>236.743</ele>
        <time>2016-09-06T08:51:17.999Z</time>
      </trkpt>
      <trkpt lat="47.25614" lon="6.08261">
        <ele>236.165</ele>
        <time>2016-09-06T08:51:18.999Z</time>
      </trkpt>
      <trkpt lat="47.25609" lon="6.08259">
        <ele>236.117</ele>
        <time>2016-09-06T08:51:19.999Z</time>
      </trkpt>
      <trkpt lat="47.25605" lon="6.08256">
        <ele>236.037</ele>
        <time>2016-09-06T08:51:20.999Z</time>
      </trkpt>
      <trkpt lat="47.256" lon="6.08254">
        <ele>236.183</ele>
        <time>2016-09-06T08:51:21.999Z</time>
      </trkpt>
      <trkpt lat="47.25596" lon="6.08251">
        <ele>236.508</ele>
        <time>2016-09-06T08:51:22.999Z</time>
      </trkpt>
      <trkpt lat="47.25592" lon="6.08248">
        <ele>236.462</ele>
        <time>2016-09-06T08:51:23.999Z</time>
      </trkpt>
      <trkpt lat="47.25587" lon="6.08245">
        <ele>236.275</ele>
        <time>2016-09-06T08:51:24.999Z</time>
      </trkpt>
      <trkpt lat="47.25584" lon="6.08243">
        <ele>235.239</ele>
        <time>2016-09-06T08:51:25.999Z</time>
      </trkpt>
      <trkpt lat="47.25579" lon="6.08241">
        <ele>235.037</ele>
        <time>2016-09-06T08:51:26.999Z</time>
      </trkpt>
      <trkpt lat="47.25574" lon="6.08238">
        <ele>235.493</ele>
        <time>2016-09-06T08:51:27.999Z</time>
      </trkpt>
      <trkpt lat="47.2557" lon="6.08236">
        <ele>235.03</ele>
        <time>2016-09-06T08:51:28.999Z</time>
      </trkpt>
      <trkpt lat="47.25566" lon="6.08233">
        <ele>235.681</ele>
        <time>2016-09-06T08:51:29.999Z</time>
      </trkpt>
      <trkpt lat="47.25562" lon="6.0823">
        <ele>236.496</ele>
        <time>2016-09-06T08:51:30.999Z</time>
      </trkpt>
      <trkpt lat="47.25557" lon="6.08228">
        <ele>237.207</ele>
        <time>2016-09-06T08:51:31.999Z</time>
      </trkpt>
      <trkpt lat="47.25553" lon="6.08226">
        <ele>237.044</ele>
        <time>2016-09-06T08:51:32.999Z</time>
      </trkpt>
      <trkpt lat="47.25548" lon="6.08223">
        <ele>236.845</ele>
        <time>2016-09-06T08:51:33.999Z</time>
      </trkpt>
      <trkpt lat="47.25544" lon="6.0822">
        <ele>237.229</ele>
        <time>2016-09-06T08:51:34.999Z</time>
      </trkpt>
      <trkpt lat="47.25539" lon="6.08218">
        <ele>238.22</ele>
        <time>2016-09-06T08:51:35.999Z</time>
      </trkpt>
      <trkpt lat="47.25535" lon="6.08214">
        <ele>238.957</ele>
        <time>2016-09-06T08:51:36.999Z</time>
      </trkpt>
      <trkpt lat="47.25531" lon="6.08212">
        <ele>236.993</ele>
        <time>2016-09-06T08:51:37.999Z</time>
      </trkpt>
      <trkpt lat="47.25527" lon="6.0821">
        <ele>237.173</ele>
        <time>2016-09-06T08:51:38.999Z</time>
      </trkpt>
      <trkpt lat="47.25523" lon="6.08207">
        <ele>237.748</ele>
        <time>2016-09-06T08:51:39.999Z</time>
      </trkpt>
      <trkpt lat="47.25518" lon="6.08205">
        <ele>238.154</ele>
        <time>2016-09-06T08:51:40.999Z</time>
      </trkpt>
      <trkpt lat="47.25514" lon="6.08202">
        <ele>238.034</ele>
        <time>2016-09-06T08:51:41.999Z</time>
      </trkpt>
      <trkpt lat="47.2551" lon="6.082">
        <ele>238.432</ele>
        <time>2016-09-06T08:51:42.999Z</time>
      </trkpt>
      <trkpt lat="47.25505" lon="6.08197">
        <ele>238.675</ele>
        <time>2016-09-06T08:51:43.999Z</time>
      </trkpt>
      <trkpt lat="47.25501" lon="6.08195">
        <ele>238.335</ele>
        <time>2016-09-06T08:51:44.999Z</time>
      </trkpt>
      <trkpt lat="47.25497" lon="6.08192">
        <ele>236.514</ele>
        <time>2016-09-06T08:51:45.999Z</time>
      </trkpt>
      <trkpt lat="47.25492" lon="6.0819">
        <ele>236.281</ele>
        <time>2016-09-06T08:51:46.999Z</time>
      </trkpt>
      <trkpt lat="47.25489" lon="6.08188">
        <ele>237.114</ele>
        <time>2016-09-06T08:51:47.999Z</time>
      </trkpt>
      <trkpt lat="47.25485" lon="6.08185">
        <ele>237.892</ele>
        <time>2016-09-06T08:51:49.002Z</time>
      </trkpt>
      <trkpt lat="47.25481" lon="6.08182">
        <ele>238.396</ele>
        <time>2016-09-06T08:51:50.000Z</time>
      </trkpt>
      <trkpt lat="47.25477" lon="6.08179">
        <ele>238.305</ele>
        <time>2016-09-06T08:51:51.000Z</time>
      </trkpt>
      <trkpt lat="47.25473" lon="6.08176">
        <ele>238.36</ele>
        <time>2016-09-06T08:51:52.000Z</time>
      </trkpt>
      <trkpt lat="47.25469" lon="6.08173">
        <ele>238.681</ele>
        <time>2016-09-06T08:51:53.000Z</time>
      </trkpt>
      <trkpt lat="47.25465" lon="6.0817">
        <ele>238.772</ele>
        <time>2016-09-06T08:51:54.000Z</time>
      </trkpt>
      <trkpt lat="47.2546" lon="6.08167">
        <ele>240.412</ele>
        <time>2016-09-06T08:51:55.000Z</time>
      </trkpt>
      <trkpt lat="47.25456" lon="6.08163">
        <ele>241.122</ele>
        <time>2016-09-06T08:51:56.000Z</time>
      </trkpt>
      <trkpt lat="47.25453" lon="6.08161">
        <ele>239.462</ele>
        <time>2016-09-06T08:51:57.000Z</time>
      </trkpt>
      <trkpt lat="47.25449" lon="6.08157">
        <ele>240.137</ele>
        <time>2016-09-06T08:51:58.000Z</time>
      </trkpt>
      <trkpt lat="47.25445" lon="6.08153">
        <ele>240.512</ele>
        <time>2016-09-06T08:51:59.000Z</time>
      </trkpt>
      <trkpt lat="47.25441" lon="6.08149">
        <ele>241.254</ele>
        <time>2016-09-06T08:52:00.000Z</time>
      </trkpt>
      <trkpt lat="47.25437" lon="6.08146">
        <ele>241.927</ele>
        <time>2016-09-06T08:52:01.000Z</time>
      </trkpt>
      <trkpt lat="47.25433" lon="6.08143">
        <ele>240.926</ele>
        <time>2016-09-06T08:52:02.000Z</time>
      </trkpt>
      <trkpt lat="47.25428" lon="6.0814">
        <ele>240.628</ele>
        <time>2016-09-06T08:52:03.000Z</time>
      </trkpt>
      <trkpt lat="47.25424" lon="6.08137">
        <ele>241.136</ele>
        <time>2016-09-06T08:52:04.000Z</time>
      </trkpt>
      <trkpt lat="47.2542" lon="6.08134">
        <ele>240.165</ele>
        <time>2016-09-06T08:52:05.000Z</time>
      </trkpt>
      <trkpt lat="47.25416" lon="6.08132">
        <ele>239.32</ele>
        <time>2016-09-06T08:52:06.000Z</time>
      </trkpt>
      <trkpt lat="47.25412" lon="6.08129">
        <ele>240.191</ele>
        <time>2016-09-06T08:52:07.000Z</time>
      </trkpt>
      <trkpt lat="47.25408" lon="6.08127">
        <ele>240.156</ele>
        <time>2016-09-06T08:52:08.000Z</time>
      </trkpt>
      <trkpt lat="47.25404" lon="6.08123">
        <ele>238.241</ele>
        <time>2016-09-06T08:52:09.000Z</time>
      </trkpt>
      <trkpt lat="47.254" lon="6.0812">
        <ele>236.851</ele>
        <time>2016-09-06T08:52:10.000Z</time>
      </trkpt>
      <trkpt lat="47.25396" lon="6.08118">
        <ele>237.862</ele>
        <time>2016-09-06T08:52:11.000Z</time>
      </trkpt>
      <trkpt lat="47.25391" lon="6.08114">
        <ele>238.158</ele>
        <time>2016-09-06T08:52:12.000Z</time>
      </trkpt>
      <trkpt lat="47.25386" lon="6.0811">
        <ele>238.151</ele>
        <time>2016-09-06T08:52:13.000Z</time>
      </trkpt>
      <trkpt lat="47.25381" lon="6.08106">
        <ele>238.352</ele>
        <time>2016-09-06T08:52:14.000Z</time>
      </trkpt>
      <trkpt lat="47.25377" lon="6.08103">
        <ele>237.887</ele>
        <time>2016-09-06T08:52:15.000Z</time>
      </trkpt>
      <trkpt lat="47.25373" lon="6.08099">
        <ele>238.863</ele>
        <time>2016-09-06T08:52:16.000Z</time>
      </trkpt>
      <trkpt lat="47.25369" lon="6.08095">
        <ele>237.585</ele>
        <time>2016-09-06T08:52:17.000Z</time>
      </trkpt>
      <trkpt lat="47.25364" lon="6.08091">
        <ele>238.547</ele>
        <time>2016-09-06T08:52:18.000Z</time>
      </trkpt>
      <trkpt lat="47.2536" lon="6.08087">
        <ele>239.519</ele>
        <time>2016-09-06T08:52:19.000Z</time>
      </trkpt>
      <trkpt lat="47.25356" lon="6.08083">
        <ele>239.814</ele>
        <time>2016-09-06T08:52:20.000Z</time>
      </trkpt>
      <trkpt lat="47.25352" lon="6.08079">
        <ele>240.848</ele>
        <time>2016-09-06T08:52:21.000Z</time>
      </trkpt>
      <trkpt lat="47.25349" lon="6.08076">
        <ele>241.55</ele>
        <time>2016-09-06T08:52:22.000Z</time>
      </trkpt>
      <trkpt lat="47.25345" lon="6.08071">
        <ele>240.97</ele>
        <time>2016-09-06T08:52:23.000Z</time>
      </trkpt>
      <trkpt lat="47.25341" lon="6.08067">
        <ele>240.514</ele>
        <time>2016-09-06T08:52:24.000Z</time>
      </trkpt>
      <trkpt lat="47.25337" lon="6.08061">
        <ele>240.751</ele>
        <time>2016-09-06T08:52:25.000Z</time>
      </trkpt>
      <trkpt lat="47.25335" lon="6.08057">
        <ele>242.26</ele>
        <time>2016-09-06T08:52:26.000Z</time>
      </trkpt>
      <trkpt lat="47.25333" lon="6.08052">
        <ele>242.765</ele>
        <time>2016-09-06T08:52:27.000Z</time>
      </trkpt>
      <trkpt lat="47.25331" lon="6.08048">
        <ele>242.241</ele>
        <time>2016-09-06T08:52:28.000Z</time>
      </trkpt>
      <trkpt lat="47.2533" lon="6.08043">
        <ele>242.898</ele>
        <time>2016-09-06T08:52:29.000Z</time>
      </trkpt>
      <trkpt lat="47.25328" lon="6.08038">
        <ele>240.477</ele>
        <time>2016-09-06T08:52:30.000Z</time>
      </trkpt>
      <trkpt lat="47.25326" lon="6.08035">
        <ele>240.197</ele>
        <time>2016-09-06T08:52:31.000Z</time>
      </trkpt>
      <trkpt lat="47.25323" lon="6.08033">
        <ele>239.301</ele>
        <time>2016-09-06T08:52:32.000Z</time>
      </trkpt>
      <trkpt lat="47.2532" lon="6.08031">
        <ele>240.198</ele>
        <time>2016-09-06T08:52:33.000Z</time>
      </trkpt>
      <trkpt lat="47.25318" lon="6.08029">
        <ele>240.754</ele>
        <time>2016-09-06T08:52:34.000Z</time>
      </trkpt>
      <trkpt lat="47.25316" lon="6.08026">
        <ele>240.948</ele>
        <time>2016-09-06T08:52:35.000Z</time>
      </trkpt>
      <trkpt lat="47.25313" lon="6.08023">
        <ele>240.678</ele>
        <time>2016-09-06T08:52:36.000Z</time>
      </trkpt>
      <trkpt lat="47.25311" lon="6.0802">
        <ele>239.974</ele>
        <time>2016-09-06T08:52:37.000Z</time>
      </trkpt>
      <trkpt lat="47.25309" lon="6.08017">
        <ele>240.967</ele>
        <time>2016-09-06T08:52:38.000Z</time>
      </trkpt>
      <trkpt lat="47.25307" lon="6.08015">
        <ele>239.866</ele>
        <time>2016-09-06T08:52:39.000Z</time>
      </trkpt>
      <trkpt lat="47.25304" lon="6.08014">
        <ele>239.923</ele>
        <time>2016-09-06T08:52:40.000Z</time>
      </trkpt>
      <trkpt lat="47.25303" lon="6.08013">
        <ele>239.97</ele>
        <time>2016-09-06T08:52:41.000Z</time>
      </trkpt>
      <trkpt lat="47.25301" lon="6.08013">
        <ele>239.921</ele>
        <time>2016-09-06T08:52:42.000Z</time>
      </trkpt>
      <trkpt lat="47.25301" lon="6.08013">
        <ele>240.519</ele>
        <time>2016-09-06T08:52:43.000Z</time>
      </trkpt>
      <trkpt lat="47.25301" lon="6.08014">
        <ele>240.491</ele>
        <time>2016-09-06T08:52:44.000Z</time>
      </trkpt>
      <trkpt lat="47.25301" lon="6.08015">
        <ele>240.109</ele>
        <time>2016-09-06T08:52:45.000Z</time>
      </trkpt>
      <trkpt lat="47.25301" lon="6.08016">
        <ele>239.993</ele>
        <time>2016-09-06T08:52:46.000Z</time>
      </trkpt>
      <trkpt lat="47.25301" lon="6.08016">
        <ele>240.039</ele>
        <time>2016-09-06T08:52:47.000Z</time>
      </trkpt>
      <trkpt lat="47.25301" lon="6.08016">
        <ele>240.048</ele>
        <time>2016-09-06T08:52:48.000Z</time>
      </trkpt>
      <trkpt lat="47.25301" lon="6.08016">
        <ele>240.042</ele>
        <time>2016-09-06T08:52:49.000Z</time>
      </trkpt>
      <trkpt lat="47.25301" lon="6.08016">
        <ele>240.042</ele>
        <time>2016-09-06T08:52:50.000Z</time>
      </trkpt>
      <trkpt lat="47.25301" lon="6.08016">
        <ele>240.04</ele>
        <time>2016-09-06T08:52:51.000Z</time>
      </trkpt>
      <trkpt lat="47.25301" lon="6.08016">
        <ele>240.053</ele>
        <time>2016-09-06T08:52:52.000Z</time>
      </trkpt>
      <trkpt lat="47.25301" lon="6.08016">
        <ele>240.05</ele>
        <time>2016-09-06T08:52:53.000Z</time>
      </trkpt>
      <trkpt lat="47.25301" lon="6.08016">
        <ele>240.05</ele>
        <time>2016-09-06T08:52:54.000Z</time>
      </trkpt>
      <trkpt lat="47.25301" lon="6.08016">
        <ele>240.052</ele>
        <time>2016-09-06T08:52:55.000Z</time>
      </trkpt>
      <trkpt lat="47.25301" lon="6.08016">
        <ele>240.048</ele>
        <time>2016-09-06T08:52:56.000Z</time>
      </trkpt>
      <trkpt lat="47.25301" lon="6.08016">
        <ele>240.06</ele>
        <time>2016-09-06T08:52:57.000Z</time>
      </trkpt>
      <trkpt lat="47.25301" lon="6.08016">
        <ele>240.062</ele>
        <time>2016-09-06T08:52:58.000Z</time>
      </trkpt>
      <trkpt lat="47.25301" lon="6.08016">
        <ele>240.063</ele>
        <time>2016-09-06T08:52:59.000Z</time>
      </trkpt>
      <trkpt lat="47.25301" lon="6.08016">
        <ele>240.065</ele>
        <time>2016-09-06T08:53:00.000Z</time>
      </trkpt>
      <trkpt lat="47.25301" lon="6.08016">
        <ele>240.075</ele>
        <time>2016-09-06T08:53:01.000Z</time>
      </trkpt>
      <trkpt lat="47.25301" lon="6.08016">
        <ele>240.073</ele>
        <time>2016-09-06T08:53:02.000Z</time>
      </trkpt>
      <trkpt lat="47.25301" lon="6.08016">
        <ele>240.071</ele>
        <time>2016-09-06T08:53:03.000Z</time>
      </trkpt>
      <trkpt lat="47.25301" lon="6.08016">
        <ele>240.07</ele>
        <time>2016-09-06T08:53:04.000Z</time>
      </trkpt>
      <trkpt lat="47.25301" lon="6.08016">
        <ele>240.066</ele>
        <time>2016-09-06T08:53:05.000Z</time>
      </trkpt>
      <trkpt lat="47.25301" lon="6.08016">
        <ele>240.061</ele>
        <time>2016-09-06T08:53:06.000Z</time>
      </trkpt>
      <trkpt lat="47.25301" lon="6.08016">
        <ele>240.054</ele>
        <time>2016-09-06T08:53:07.000Z</time>
      </trkpt>
      <trkpt lat="47.25301" lon="6.08016">
        <ele>239.874</ele>
        <time>2016-09-06T08:53:08.000Z</time>
      </trkpt>
      <trkpt lat="47.25301" lon="6.08016">
        <ele>239.892</ele>
        <time>2016-09-06T08:53:09.000Z</time>
      </trkpt>
      <trkpt lat="47.25301" lon="6.08016">
        <ele>239.906</ele>
        <time>2016-09-06T08:53:10.000Z</time>
      </trkpt>
      <trkpt lat="47.25301" lon="6.08016">
        <ele>239.92</ele>
        <time>2016-09-06T08:53:11.000Z</time>
      </trkpt>
      <trkpt lat="47.25301" lon="6.08016">
        <ele>239.927</ele>
        <time>2016-09-06T08:53:12.000Z</time>
      </trkpt>
      <trkpt lat="47.25301" lon="6.08016">
        <ele>239.936</ele>
        <time>2016-09-06T08:53:13.000Z</time>
      </trkpt>
      <trkpt lat="47.25301" lon="6.08016">
        <ele>239.938</ele>
        <time>2016-09-06T08:53:14.000Z</time>
      </trkpt>
      <trkpt lat="47.25301" lon="6.08016">
        <ele>239.934</ele>
        <time>2016-09-06T08:53:15.000Z</time>
      </trkpt>
      <trkpt lat="47.25301" lon="6.08016">
        <ele>239.94</ele>
        <time>2016-09-06T08:53:16.000Z</time>
      </trkpt>
      <trkpt lat="47.25301" lon="6.08016">
        <ele>239.938</ele>
        <time>2016-09-06T08:53:17.000Z</time>
      </trkpt>
      <trkpt lat="47.25301" lon="6.08016">
        <ele>239.94</ele>
        <time>2016-09-06T08:53:18.000Z</time>
      </trkpt>
      <trkpt lat="47.25301" lon="6.08016">
        <ele>239.939</ele>
        <time>2016-09-06T08:53:19.000Z</time>
      </trkpt>
      <trkpt lat="47.25301" lon="6.08016">
        <ele>239.933</ele>
        <time>2016-09-06T08:53:20.000Z</time>
      </trkpt>
      <trkpt lat="47.25301" lon="6.08016">
        <ele>239.924</ele>
        <time>2016-09-06T08:53:21.000Z</time>
      </trkpt>
      <trkpt lat="47.25301" lon="6.08016">
        <ele>239.922</ele>
        <time>2016-09-06T08:53:22.000Z</time>
      </trkpt>
      <trkpt lat="47.25301" lon="6.08016">
        <ele>239.93</ele>
        <time>2016-09-06T08:53:23.000Z</time>
      </trkpt>
      <trkpt lat="47.25301" lon="6.08016">
        <ele>239.936</ele>
        <time>2016-09-06T08:53:24.000Z</time>
      </trkpt>
      <trkpt lat="47.25301" lon="6.08016">
        <ele>239.951</ele>
        <time>2016-09-06T08:53:25.000Z</time>
      </trkpt>
      <trkpt lat="47.25301" lon="6.08016">
        <ele>239.968</ele>
        <time>2016-09-06T08:53:26.000Z</time>
      </trkpt>
      <trkpt lat="47.25301" lon="6.08016">
        <ele>239.974</ele>
        <time>2016-09-06T08:53:27.000Z</time>
      </trkpt>
      <trkpt lat="47.25301" lon="6.08016">
        <ele>240.763</ele>
        <time>2016-09-06T08:53:28.000Z</time>
      </trkpt>
      <trkpt lat="47.25301" lon="6.08016">
        <ele>240.803</ele>
        <time>2016-09-06T08:53:29.000Z</time>
      </trkpt>
      <trkpt lat="47.25301" lon="6.08016">
        <ele>240.813</ele>
        <time>2016-09-06T08:53:30.000Z</time>
      </trkpt>
      <trkpt lat="47.25301" lon="6.08016">
        <ele>240.817</ele>
        <time>2016-09-06T08:53:31.000Z</time>
      </trkpt>
      <trkpt lat="47.25301" lon="6.08016">
        <ele>240.829</ele>
        <time>2016-09-06T08:53:32.000Z</time>
      </trkpt>
      <trkpt lat="47.25301" lon="6.08016">
        <ele>240.844</ele>
        <time>2016-09-06T08:53:33.000Z</time>
      </trkpt>
      <trkpt lat="47.25301" lon="6.08016">
        <ele>241.489</ele>
        <time>2016-09-06T08:53:34.000Z</time>
      </trkpt>
      <trkpt lat="47.25301" lon="6.08016">
        <ele>242.184</ele>
        <time>2016-09-06T08:53:35.000Z</time>
      </trkpt>
      <trkpt lat="47.25301" lon="6.08016">
        <ele>243.057</ele>
        <time>2016-09-06T08:53:36.000Z</time>
      </trkpt>
      <trkpt lat="47.25302" lon="6.08015">
        <ele>244.367</ele>
        <time>2016-09-06T08:53:37.000Z</time>
      </trkpt>
      <trkpt lat="47.25302" lon="6.08015">
        <ele>244.735</ele>
        <time>2016-09-06T08:53:38.000Z</time>
      </trkpt>
      <trkpt lat="47.25302" lon="6.08015">
        <ele>244.778</ele>
        <time>2016-09-06T08:53:39.000Z</time>
      </trkpt>
      <trkpt lat="47.25302" lon="6.08015">
        <ele>244.784</ele>
        <time>2016-09-06T08:53:40.000Z</time>
      </trkpt>
      <trkpt lat="47.25302" lon="6.08015">
        <ele>244.79</ele>
        <time>2016-09-06T08:53:41.000Z</time>
      </trkpt>
      <trkpt lat="47.25302" lon="6.08015">
        <ele>244.786</ele>
        <time>2016-09-06T08:53:42.000Z</time>
      </trkpt>
      <trkpt lat="47.25302" lon="6.08015">
        <ele>244.788</ele>
        <time>2016-09-06T08:53:43.000Z</time>
      </trkpt>
      <trkpt lat="47.25302" lon="6.08015">
        <ele>244.786</ele>
        <time>2016-09-06T08:53:44.000Z</time>
      </trkpt>
      <trkpt lat="47.25302" lon="6.08015">
        <ele>244.781</ele>
        <time>2016-09-06T08:53:45.000Z</time>
      </trkpt>
      <trkpt lat="47.25302" lon="6.08015">
        <ele>244.768</ele>
        <time>2016-09-06T08:53:46.000Z</time>
      </trkpt>
      <trkpt lat="47.25302" lon="6.08015">
        <ele>244.775</ele>
        <time>2016-09-06T08:53:47.000Z</time>
      </trkpt>
      <trkpt lat="47.25302" lon="6.08015">
        <ele>244.783</ele>
        <time>2016-09-06T08:53:48.000Z</time>
      </trkpt>
      <trkpt lat="47.25302" lon="6.08015">
        <ele>244.787</ele>
        <time>2016-09-06T08:53:49.000Z</time>
      </trkpt>
      <trkpt lat="47.25302" lon="6.08015">
        <ele>244.788</ele>
        <time>2016-09-06T08:53:50.000Z</time>
      </trkpt>
      <trkpt lat="47.25302" lon="6.08015">
        <ele>244.799</ele>
        <time>2016-09-06T08:53:51.000Z</time>
      </trkpt>
      <trkpt lat="47.25302" lon="6.08015">
        <ele>244.804</ele>
        <time>2016-09-06T08:53:52.000Z</time>
      </trkpt>
      <trkpt lat="47.25302" lon="6.08015">
        <ele>244.807</ele>
        <time>2016-09-06T08:53:53.000Z</time>
      </trkpt>
      <trkpt lat="47.25302" lon="6.08015">
        <ele>244.808</ele>
        <time>2016-09-06T08:53:54.000Z</time>
      </trkpt>
      <trkpt lat="47.25302" lon="6.08015">
        <ele>244.814</ele>
        <time>2016-09-06T08:53:55.000Z</time>
      </trkpt>
      <trkpt lat="47.25302" lon="6.08015">
        <ele>244.815</ele>
        <time>2016-09-06T08:53:56.000Z</time>
      </trkpt>
      <trkpt lat="47.25302" lon="6.08015">
        <ele>244.82</ele>
        <time>2016-09-06T08:53:57.000Z</time>
      </trkpt>
      <trkpt lat="47.25302" lon="6.08015">
        <ele>244.83</ele>
        <time>2016-09-06T08:53:58.000Z</time>
      </trkpt>
      <trkpt lat="47.25302" lon="6.08015">
        <ele>244.838</ele>
        <time>2016-09-06T08:53:59.000Z</time>
      </trkpt>
      <trkpt lat="47.25302" lon="6.08015">
        <ele>244.849</ele>
        <time>2016-09-06T08:54:00.000Z</time>
      </trkpt>
      <trkpt lat="47.25302" lon="6.08015">
        <ele>244.854</ele>
        <time>2016-09-06T08:54:01.000Z</time>
      </trkpt>
      <trkpt lat="47.25302" lon="6.08015">
        <ele>244.839</ele>
        <time>2016-09-06T08:54:02.000Z</time>
      </trkpt>
      <trkpt lat="47.25302" lon="6.08015">
        <ele>244.842</ele>
        <time>2016-09-06T08:54:03.000Z</time>
      </trkpt>
      <trkpt lat="47.25302" lon="6.08015">
        <ele>244.846</ele>
        <time>2016-09-06T08:54:04.000Z</time>
      </trkpt>
      <trkpt lat="47.25302" lon="6.08015">
        <ele>244.861</ele>
        <time>2016-09-06T08:54:05.000Z</time>
      </trkpt>
      <trkpt lat="47.25302" lon="6.08015">
        <ele>244.867</ele>
        <time>2016-09-06T08:54:06.000Z</time>
      </trkpt>
      <trkpt lat="47.25302" lon="6.08015">
        <ele>244.869</ele>
        <time>2016-09-06T08:54:07.000Z</time>
      </trkpt>
      <trkpt lat="47.25302" lon="6.08015">
        <ele>244.865</ele>
        <time>2016-09-06T08:54:08.000Z</time>
      </trkpt>
      <trkpt lat="47.25302" lon="6.08015">
        <ele>244.873</ele>
        <time>2016-09-06T08:54:09.000Z</time>
      </trkpt>
      <trkpt lat="47.25302" lon="6.08015">
        <ele>244.874</ele>
        <time>2016-09-06T08:54:10.000Z</time>
      </trkpt>
      <trkpt lat="47.25302" lon="6.08015">
        <ele>244.875</ele>
        <time>2016-09-06T08:54:11.000Z</time>
      </trkpt>
      <trkpt lat="47.25302" lon="6.08015">
        <ele>244.876</ele>
        <time>2016-09-06T08:54:12.000Z</time>
      </trkpt>
      <trkpt lat="47.25302" lon="6.08015">
        <ele>244.877</ele>
        <time>2016-09-06T08:54:13.000Z</time>
      </trkpt>
      <trkpt lat="47.25302" lon="6.08015">
        <ele>244.874</ele>
        <time>2016-09-06T08:54:14.000Z</time>
      </trkpt>
      <trkpt lat="47.25302" lon="6.08015">
        <ele>244.879</ele>
        <time>2016-09-06T08:54:15.000Z</time>
      </trkpt>
      <trkpt lat="47.25302" lon="6.08015">
        <ele>244.88</ele>
        <time>2016-09-06T08:54:16.000Z</time>
      </trkpt>
      <trkpt lat="47.25302" lon="6.08015">
        <ele>244.876</ele>
        <time>2016-09-06T08:54:17.000Z</time>
      </trkpt>
      <trkpt lat="47.25302" lon="6.08015">
        <ele>244.872</ele>
        <time>2016-09-06T08:54:18.000Z</time>
      </trkpt>
      <trkpt lat="47.25302" lon="6.08015">
        <ele>244.874</ele>
        <time>2016-09-06T08:54:19.000Z</time>
      </trkpt>
      <trkpt lat="47.25302" lon="6.08015">
        <ele>244.871</ele>
        <time>2016-09-06T08:54:20.000Z</time>
      </trkpt>
      <trkpt lat="47.25302" lon="6.08015">
        <ele>244.879</ele>
        <time>2016-09-06T08:54:21.000Z</time>
      </trkpt>
      <trkpt lat="47.25302" lon="6.08015">
        <ele>244.877</ele>
        <time>2016-09-06T08:54:22.000Z</time>
      </trkpt>
      <trkpt lat="47.25302" lon="6.08015">
        <ele>244.881</ele>
        <time>2016-09-06T08:54:23.000Z</time>
      </trkpt>
      <trkpt lat="47.25302" lon="6.08015">
        <ele>244.887</ele>
        <time>2016-09-06T08:54:24.000Z</time>
      </trkpt>
      <trkpt lat="47.25302" lon="6.08015">
        <ele>244.89</ele>
        <time>2016-09-06T08:54:25.000Z</time>
      </trkpt>
      <trkpt lat="47.25302" lon="6.08015">
        <ele>244.899</ele>
        <time>2016-09-06T08:54:26.000Z</time>
      </trkpt>
      <trkpt lat="47.25302" lon="6.08015">
        <ele>244.9</ele>
        <time>2016-09-06T08:54:27.000Z</time>
      </trkpt>
      <trkpt lat="47.25302" lon="6.08015">
        <ele>244.91</ele>
        <time>2016-09-06T08:54:28.000Z</time>
      </trkpt>
      <trkpt lat="47.25302" lon="6.08015">
        <ele>244.904</ele>
        <time>2016-09-06T08:54:29.000Z</time>
      </trkpt>
      <trkpt lat="47.25302" lon="6.08015">
        <ele>244.902</ele>
        <time>2016-09-06T08:54:30.000Z</time>
      </trkpt>
      <trkpt lat="47.25302" lon="6.08015">
        <ele>244.91</ele>
        <time>2016-09-06T08:54:31.000Z</time>
      </trkpt>
      <trkpt lat="47.25302" lon="6.08015">
        <ele>244.913</ele>
        <time>2016-09-06T08:54:32.000Z</time>
      </trkpt>
      <trkpt lat="47.25302" lon="6.08015">
        <ele>244.909</ele>
        <time>2016-09-06T08:54:33.000Z</time>
      </trkpt>
      <trkpt lat="47.25302" lon="6.08015">
        <ele>244.912</ele>
        <time>2016-09-06T08:54:34.000Z</time>
      </trkpt>
      <trkpt lat="47.25302" lon="6.08015">
        <ele>244.907</ele>
        <time>2016-09-06T08:54:35.000Z</time>
      </trkpt>
      <trkpt lat="47.25302" lon="6.08015">
        <ele>244.899</ele>
        <time>2016-09-06T08:54:36.000Z</time>
      </trkpt>
      <trkpt lat="47.25302" lon="6.08015">
        <ele>244.894</ele>
        <time>2016-09-06T08:54:37.000Z</time>
      </trkpt>
      <trkpt lat="47.25302" lon="6.08015">
        <ele>244.89</ele>
        <time>2016-09-06T08:54:38.000Z</time>
      </trkpt>
      <trkpt lat="47.25302" lon="6.08015">
        <ele>244.888</ele>
        <time>2016-09-06T08:54:39.000Z</time>
      </trkpt>
      <trkpt lat="47.25302" lon="6.08015">
        <ele>244.886</ele>
        <time>2016-09-06T08:54:40.000Z</time>
      </trkpt>
      <trkpt lat="47.25302" lon="6.08015">
        <ele>244.892</ele>
        <time>2016-09-06T08:54:41.000Z</time>
      </trkpt>
      <trkpt lat="47.25302" lon="6.08015">
        <ele>244.887</ele>
        <time>2016-09-06T08:54:42.000Z</time>
      </trkpt>
      <trkpt lat="47.25302" lon="6.08015">
        <ele>244.891</ele>
        <time>2016-09-06T08:54:43.000Z</time>
      </trkpt>
      <trkpt lat="47.25302" lon="6.08015">
        <ele>244.899</ele>
        <time>2016-09-06T08:54:44.000Z</time>
      </trkpt>
      <trkpt lat="47.25302" lon="6.08015">
        <ele>244.907</ele>
        <time>2016-09-06T08:54:45.000Z</time>
      </trkpt>
      <trkpt lat="47.25302" lon="6.08015">
        <ele>244.9</ele>
        <time>2016-09-06T08:54:46.000Z</time>
      </trkpt>
      <trkpt lat="47.25302" lon="6.08015">
        <ele>244.899</ele>
        <time>2016-09-06T08:54:47.000Z</time>
      </trkpt>
      <trkpt lat="47.25302" lon="6.08015">
        <ele>244.901</ele>
        <time>2016-09-06T08:54:48.000Z</time>
      </trkpt>
      <trkpt lat="47.25302" lon="6.08015">
        <ele>244.898</ele>
        <time>2016-09-06T08:54:49.000Z</time>
      </trkpt>
      <trkpt lat="47.25302" lon="6.08015">
        <ele>244.897</ele>
        <time>2016-09-06T08:54:50.000Z</time>
      </trkpt>
      <trkpt lat="47.25302" lon="6.08015">
        <ele>244.888</ele>
        <time>2016-09-06T08:54:51.000Z</time>
      </trkpt>
      <trkpt lat="47.25302" lon="6.08015">
        <ele>244.883</ele>
        <time>2016-09-06T08:54:52.000Z</time>
      </trkpt>
      <trkpt lat="47.25302" lon="6.08015">
        <ele>244.891</ele>
        <time>2016-09-06T08:54:53.000Z</time>
      </trkpt>
      <trkpt lat="47.25302" lon="6.08015">
        <ele>244.886</ele>
        <time>2016-09-06T08:54:54.000Z</time>
      </trkpt>
      <trkpt lat="47.25302" lon="6.08015">
        <ele>244.884</ele>
        <time>2016-09-06T08:54:55.000Z</time>
      </trkpt>
      <trkpt lat="47.25302" lon="6.08015">
        <ele>244.885</ele>
        <time>2016-09-06T08:54:56.000Z</time>
      </trkpt>
      <trkpt lat="47.25302" lon="6.08015">
        <ele>244.887</ele>
        <time>2016-09-06T08:54:57.000Z</time>
      </trkpt>
      <trkpt lat="47.25302" lon="6.08015">
        <ele>244.885</ele>
        <time>2016-09-06T08:54:58.000Z</time>
      </trkpt>
      <trkpt lat="47.25302" lon="6.08015">
        <ele>244.883</ele>
        <time>2016-09-06T08:54:59.000Z</time>
      </trkpt>
      <trkpt lat="47.25302" lon="6.08015">
        <ele>244.882</ele>
        <time>2016-09-06T08:55:00.000Z</time>
      </trkpt>
      <trkpt lat="47.25302" lon="6.08015">
        <ele>244.881</ele>
        <time>2016-09-06T08:55:01.000Z</time>
      </trkpt>
      <trkpt lat="47.25302" lon="6.08015">
        <ele>244.868</ele>
        <time>2016-09-06T08:55:02.000Z</time>
      </trkpt>
      <trkpt lat="47.25302" lon="6.08015">
        <ele>244.865</ele>
        <time>2016-09-06T08:55:03.000Z</time>
      </trkpt>
      <trkpt lat="47.25302" lon="6.08015">
        <ele>244.869</ele>
        <time>2016-09-06T08:55:04.000Z</time>
      </trkpt>
      <trkpt lat="47.25302" lon="6.08015">
        <ele>244.863</ele>
        <time>2016-09-06T08:55:05.000Z</time>
      </trkpt>
      <trkpt lat="47.25302" lon="6.08015">
        <ele>244.871</ele>
        <time>2016-09-06T08:55:06.000Z</time>
      </trkpt>
      <trkpt lat="47.25302" lon="6.08015">
        <ele>244.875</ele>
        <time>2016-09-06T08:55:07.000Z</time>
      </trkpt>
      <trkpt lat="47.25302" lon="6.08015">
        <ele>244.868</ele>
        <time>2016-09-06T08:55:08.000Z</time>
      </trkpt>
      <trkpt lat="47.25302" lon="6.08015">
        <ele>244.86</ele>
        <time>2016-09-06T08:55:09.000Z</time>
      </trkpt>
      <trkpt lat="47.25302" lon="6.08015">
        <ele>244.854</ele>
        <time>2016-09-06T08:55:10.000Z</time>
      </trkpt>
      <trkpt lat="47.25302" lon="6.08015">
        <ele>244.849</ele>
        <time>2016-09-06T08:55:11.000Z</time>
      </trkpt>
      <trkpt lat="47.25302" lon="6.08015">
        <ele>244.847</ele>
        <time>2016-09-06T08:55:12.000Z</time>
      </trkpt>
      <trkpt lat="47.25302" lon="6.08015">
        <ele>244.851</ele>
        <time>2016-09-06T08:55:13.000Z</time>
      </trkpt>
      <trkpt lat="47.25302" lon="6.08015">
        <ele>244.849</ele>
        <time>2016-09-06T08:55:14.000Z</time>
      </trkpt>
      <trkpt lat="47.25302" lon="6.08015">
        <ele>244.844</ele>
        <time>2016-09-06T08:55:15.000Z</time>
      </trkpt>
      <trkpt lat="47.25302" lon="6.08015">
        <ele>244.834</ele>
        <time>2016-09-06T08:55:16.000Z</time>
      </trkpt>
      <trkpt lat="47.25302" lon="6.08015">
        <ele>244.839</ele>
        <time>2016-09-06T08:55:17.000Z</time>
      </trkpt>
      <trkpt lat="47.25302" lon="6.08015">
        <ele>244.825</ele>
        <time>2016-09-06T08:55:18.000Z</time>
      </trkpt>
      <trkpt lat="47.25302" lon="6.08015">
        <ele>244.816</ele>
        <time>2016-09-06T08:55:19.000Z</time>
      </trkpt>
      <trkpt lat="47.25302" lon="6.08015">
        <ele>244.807</ele>
        <time>2016-09-06T08:55:20.000Z</time>
      </trkpt>
      <trkpt lat="47.25302" lon="6.08015">
        <ele>244.806</ele>
        <time>2016-09-06T08:55:21.000Z</time>
      </trkpt>
      <trkpt lat="47.25302" lon="6.08015">
        <ele>244.789</ele>
        <time>2016-09-06T08:55:22.000Z</time>
      </trkpt>
      <trkpt lat="47.25302" lon="6.08015">
        <ele>244.776</ele>
        <time>2016-09-06T08:55:23.000Z</time>
      </trkpt>
      <trkpt lat="47.25302" lon="6.08015">
        <ele>244.766</ele>
        <time>2016-09-06T08:55:24.000Z</time>
      </trkpt>
      <trkpt lat="47.25302" lon="6.08015">
        <ele>244.757</ele>
        <time>2016-09-06T08:55:25.000Z</time>
      </trkpt>
      <trkpt lat="47.25302" lon="6.08015">
        <ele>244.755</ele>
        <time>2016-09-06T08:55:26.000Z</time>
      </trkpt>
      <trkpt lat="47.25302" lon="6.08015">
        <ele>244.749</ele>
        <time>2016-09-06T08:55:27.000Z</time>
      </trkpt>
      <trkpt lat="47.25302" lon="6.08015">
        <ele>244.741</ele>
        <time>2016-09-06T08:55:28.000Z</time>
      </trkpt>
      <trkpt lat="47.25302" lon="6.08015">
        <ele>244.744</ele>
        <time>2016-09-06T08:55:29.000Z</time>
      </trkpt>
      <trkpt lat="47.25302" lon="6.08015">
        <ele>244.735</ele>
        <time>2016-09-06T08:55:30.000Z</time>
      </trkpt>
      <trkpt lat="47.25302" lon="6.08015">
        <ele>244.732</ele>
        <time>2016-09-06T08:55:31.000Z</time>
      </trkpt>
      <trkpt lat="47.25302" lon="6.08015">
        <ele>244.727</ele>
        <time>2016-09-06T08:55:32.000Z</time>
      </trkpt>
      <trkpt lat="47.25302" lon="6.08015">
        <ele>244.721</ele>
        <time>2016-09-06T08:55:33.000Z</time>
      </trkpt>
      <trkpt lat="47.25302" lon="6.08015">
        <ele>244.719</ele>
        <time>2016-09-06T08:55:34.000Z</time>
      </trkpt>
      <trkpt lat="47.25302" lon="6.08015">
        <ele>244.713</ele>
        <time>2016-09-06T08:55:35.000Z</time>
      </trkpt>
      <trkpt lat="47.25302" lon="6.08015">
        <ele>244.701</ele>
        <time>2016-09-06T08:55:36.000Z</time>
      </trkpt>
      <trkpt lat="47.25302" lon="6.08015">
        <ele>244.694</ele>
        <time>2016-09-06T08:55:37.000Z</time>
      </trkpt>
      <trkpt lat="47.25302" lon="6.08015">
        <ele>244.686</ele>
        <time>2016-09-06T08:55:38.000Z</time>
      </trkpt>
      <trkpt lat="47.25302" lon="6.08015">
        <ele>244.679</ele>
        <time>2016-09-06T08:55:39.000Z</time>
      </trkpt>
      <trkpt lat="47.25302" lon="6.08015">
        <ele>244.669</ele>
        <time>2016-09-06T08:55:40.000Z</time>
      </trkpt>
      <trkpt lat="47.25302" lon="6.08015">
        <ele>244.661</ele>
        <time>2016-09-06T08:55:41.000Z</time>
      </trkpt>
      <trkpt lat="47.25302" lon="6.08015">
        <ele>244.649</ele>
        <time>2016-09-06T08:55:42.000Z</time>
      </trkpt>
      <trkpt lat="47.25302" lon="6.08015">
        <ele>244.64</ele>
        <time>2016-09-06T08:55:43.000Z</time>
      </trkpt>
      <trkpt lat="47.25302" lon="6.08015">
        <ele>244.627</ele>
        <time>2016-09-06T08:55:44.000Z</time>
      </trkpt>
      <trkpt lat="47.25302" lon="6.08015">
        <ele>244.62</ele>
        <time>2016-09-06T08:55:45.000Z</time>
      </trkpt>
      <trkpt lat="47.25302" lon="6.08015">
        <ele>244.617</ele>
        <time>2016-09-06T08:55:46.000Z</time>
      </trkpt>
      <trkpt lat="47.25302" lon="6.08015">
        <ele>244.614</ele>
        <time>2016-09-06T08:55:47.000Z</time>
      </trkpt>
      <trkpt lat="47.25302" lon="6.08015">
        <ele>244.613</ele>
        <time>2016-09-06T08:55:48.000Z</time>
      </trkpt>
      <trkpt lat="47.25302" lon="6.08015">
        <ele>244.603</ele>
        <time>2016-09-06T08:55:49.000Z</time>
      </trkpt>
      <trkpt lat="47.25302" lon="6.08015">
        <ele>244.604</ele>
        <time>2016-09-06T08:55:50.000Z</time>
      </trkpt>
      <trkpt lat="47.25302" lon="6.08015">
        <ele>244.603</ele>
        <time>2016-09-06T08:55:51.000Z</time>
      </trkpt>
      <trkpt lat="47.25302" lon="6.08015">
        <ele>244.596</ele>
        <time>2016-09-06T08:55:52.000Z</time>
      </trkpt>
      <trkpt lat="47.25302" lon="6.08015">
        <ele>244.583</ele>
        <time>2016-09-06T08:55:53.000Z</time>
      </trkpt>
      <trkpt lat="47.25302" lon="6.08015">
        <ele>244.573</ele>
        <time>2016-09-06T08:55:54.000Z</time>
      </trkpt>
      <trkpt lat="47.25302" lon="6.08015">
        <ele>244.561</ele>
        <time>2016-09-06T08:55:55.000Z</time>
      </trkpt>
      <trkpt lat="47.25302" lon="6.08015">
        <ele>244.564</ele>
        <time>2016-09-06T08:55:56.000Z</time>
      </trkpt>
      <trkpt lat="47.25302" lon="6.08015">
        <ele>244.569</ele>
        <time>2016-09-06T08:55:57.000Z</time>
      </trkpt>
      <trkpt lat="47.25302" lon="6.08015">
        <ele>244.563</ele>
        <time>2016-09-06T08:55:58.000Z</time>
      </trkpt>
      <trkpt lat="47.25302" lon="6.08015">
        <ele>244.557</ele>
        <time>2016-09-06T08:55:59.000Z</time>
      </trkpt>
      <trkpt lat="47.25302" lon="6.08015">
        <ele>244.56</ele>
        <time>2016-09-06T08:56:00.000Z</time>
      </trkpt>
      <trkpt lat="47.25302" lon="6.08015">
        <ele>244.561</ele>
        <time>2016-09-06T08:56:01.000Z</time>
      </trkpt>
      <trkpt lat="47.25302" lon="6.08015">
        <ele>244.555</ele>
        <time>2016-09-06T08:56:02.000Z</time>
      </trkpt>
      <trkpt lat="47.25302" lon="6.08015">
        <ele>244.549</ele>
        <time>2016-09-06T08:56:03.000Z</time>
      </trkpt>
      <trkpt lat="47.25302" lon="6.08015">
        <ele>244.543</ele>
        <time>2016-09-06T08:56:04.000Z</time>
      </trkpt>
      <trkpt lat="47.25302" lon="6.08015">
        <ele>244.54</ele>
        <time>2016-09-06T08:56:05.000Z</time>
      </trkpt>
      <trkpt lat="47.25302" lon="6.08015">
        <ele>244.546</ele>
        <time>2016-09-06T08:56:06.000Z</time>
      </trkpt>
      <trkpt lat="47.25302" lon="6.08015">
        <ele>244.549</ele>
        <time>2016-09-06T08:56:07.000Z</time>
      </trkpt>
      <trkpt lat="47.25302" lon="6.08015">
        <ele>244.552</ele>
        <time>2016-09-06T08:56:08.000Z</time>
      </trkpt>
      <trkpt lat="47.25302" lon="6.08015">
        <ele>244.566</ele>
        <time>2016-09-06T08:56:09.000Z</time>
      </trkpt>
      <trkpt lat="47.25302" lon="6.08015">
        <ele>244.578</ele>
        <time>2016-09-06T08:56:10.000Z</time>
      </trkpt>
      <trkpt lat="47.25302" lon="6.08015">
        <ele>244.587</ele>
        <time>2016-09-06T08:56:11.000Z</time>
      </trkpt>
      <trkpt lat="47.25302" lon="6.08015">
        <ele>244.591</ele>
        <time>2016-09-06T08:56:12.000Z</time>
      </trkpt>
      <trkpt lat="47.25302" lon="6.08015">
        <ele>244.593</ele>
        <time>2016-09-06T08:56:13.000Z</time>
      </trkpt>
      <trkpt lat="47.25302" lon="6.08015">
        <ele>244.604</ele>
        <time>2016-09-06T08:56:14.000Z</time>
      </trkpt>
      <trkpt lat="47.25302" lon="6.08015">
        <ele>244.598</ele>
        <time>2016-09-06T08:56:15.000Z</time>
      </trkpt>
      <trkpt lat="47.25302" lon="6.08015">
        <ele>244.59</ele>
        <time>2016-09-06T08:56:16.000Z</time>
      </trkpt>
      <trkpt lat="47.25302" lon="6.08015">
        <ele>244.592</ele>
        <time>2016-09-06T08:56:17.000Z</time>
      </trkpt>
      <trkpt lat="47.25302" lon="6.08015">
        <ele>244.598</ele>
        <time>2016-09-06T08:56:18.000Z</time>
      </trkpt>
      <trkpt lat="47.25302" lon="6.08015">
        <ele>244.595</ele>
        <time>2016-09-06T08:56:19.000Z</time>
      </trkpt>
      <trkpt lat="47.25302" lon="6.08015">
        <ele>244.588</ele>
        <time>2016-09-06T08:56:20.000Z</time>
      </trkpt>
      <trkpt lat="47.25302" lon="6.08015">
        <ele>244.585</ele>
        <time>2016-09-06T08:56:21.000Z</time>
      </trkpt>
      <trkpt lat="47.25302" lon="6.08015">
        <ele>244.589</ele>
        <time>2016-09-06T08:56:22.000Z</time>
      </trkpt>
      <trkpt lat="47.25302" lon="6.08015">
        <ele>244.592</ele>
        <time>2016-09-06T08:56:23.000Z</time>
      </trkpt>
      <trkpt lat="47.25302" lon="6.08015">
        <ele>244.591</ele>
        <time>2016-09-06T08:56:24.000Z</time>
      </trkpt>
      <trkpt lat="47.25302" lon="6.08015">
        <ele>244.589</ele>
        <time>2016-09-06T08:56:25.000Z</time>
      </trkpt>
      <trkpt lat="47.25302" lon="6.08015">
        <ele>244.6</ele>
        <time>2016-09-06T08:56:26.000Z</time>
      </trkpt>
      <trkpt lat="47.25302" lon="6.08015">
        <ele>244.609</ele>
        <time>2016-09-06T08:56:27.000Z</time>
      </trkpt>
      <trkpt lat="47.25302" lon="6.08015">
        <ele>244.602</ele>
        <time>2016-09-06T08:56:28.000Z</time>
      </trkpt>
      <trkpt lat="47.25302" lon="6.08015">
        <ele>244.59</ele>
        <time>2016-09-06T08:56:29.000Z</time>
      </trkpt>
      <trkpt lat="47.25302" lon="6.08015">
        <ele>244.591</ele>
        <time>2016-09-06T08:56:30.000Z</time>
      </trkpt>
      <trkpt lat="47.25302" lon="6.08015">
        <ele>244.592</ele>
        <time>2016-09-06T08:56:31.000Z</time>
      </trkpt>
      <trkpt lat="47.25302" lon="6.08015">
        <ele>244.589</ele>
        <time>2016-09-06T08:56:32.000Z</time>
      </trkpt>
      <trkpt lat="47.25302" lon="6.08015">
        <ele>244.585</ele>
        <time>2016-09-06T08:56:33.000Z</time>
      </trkpt>
      <trkpt lat="47.25302" lon="6.08015">
        <ele>244.581</ele>
        <time>2016-09-06T08:56:34.000Z</time>
      </trkpt>
      <trkpt lat="47.25302" lon="6.08015">
        <ele>244.576</ele>
        <time>2016-09-06T08:56:35.000Z</time>
      </trkpt>
      <trkpt lat="47.25302" lon="6.08015">
        <ele>244.563</ele>
        <time>2016-09-06T08:56:36.000Z</time>
      </trkpt>
      <trkpt lat="47.25302" lon="6.08015">
        <ele>244.556</ele>
        <time>2016-09-06T08:56:37.000Z</time>
      </trkpt>
      <trkpt lat="47.25302" lon="6.08015">
        <ele>244.551</ele>
        <time>2016-09-06T08:56:38.000Z</time>
      </trkpt>
      <trkpt lat="47.25302" lon="6.08015">
        <ele>244.551</ele>
        <time>2016-09-06T08:56:39.000Z</time>
      </trkpt>
      <trkpt lat="47.25302" lon="6.08015">
        <ele>244.548</ele>
        <time>2016-09-06T08:56:40.000Z</time>
      </trkpt>
      <trkpt lat="47.25302" lon="6.08015">
        <ele>244.54</ele>
        <time>2016-09-06T08:56:41.000Z</time>
      </trkpt>
      <trkpt lat="47.25302" lon="6.08015">
        <ele>244.54</ele>
        <time>2016-09-06T08:56:42.000Z</time>
      </trkpt>
      <trkpt lat="47.25302" lon="6.08015">
        <ele>244.532</ele>
        <time>2016-09-06T08:56:43.000Z</time>
      </trkpt>
      <trkpt lat="47.25302" lon="6.08015">
        <ele>244.529</ele>
        <time>2016-09-06T08:56:44.000Z</time>
      </trkpt>
      <trkpt lat="47.25302" lon="6.08015">
        <ele>244.527</ele>
        <time>2016-09-06T08:56:45.000Z</time>
      </trkpt>
      <trkpt lat="47.25302" lon="6.08015">
        <ele>244.535</ele>
        <time>2016-09-06T08:56:46.000Z</time>
      </trkpt>
      <trkpt lat="47.25302" lon="6.08015">
        <ele>244.537</ele>
        <time>2016-09-06T08:56:47.000Z</time>
      </trkpt>
      <trkpt lat="47.25302" lon="6.08015">
        <ele>244.536</ele>
        <time>2016-09-06T08:56:48.000Z</time>
      </trkpt>
      <trkpt lat="47.25302" lon="6.08015">
        <ele>244.53</ele>
        <time>2016-09-06T08:56:49.000Z</time>
      </trkpt>
      <trkpt lat="47.25302" lon="6.08015">
        <ele>244.53</ele>
        <time>2016-09-06T08:56:50.000Z</time>
      </trkpt>
      <trkpt lat="47.25302" lon="6.08015">
        <ele>244.535</ele>
        <time>2016-09-06T08:56:51.000Z</time>
      </trkpt>
      <trkpt lat="47.25302" lon="6.08015">
        <ele>244.539</ele>
        <time>2016-09-06T08:56:52.000Z</time>
      </trkpt>
      <trkpt lat="47.25302" lon="6.08015">
        <ele>244.549</ele>
        <time>2016-09-06T08:56:53.000Z</time>
      </trkpt>
      <trkpt lat="47.25302" lon="6.08015">
        <ele>244.553</ele>
        <time>2016-09-06T08:56:54.000Z</time>
      </trkpt>
      <trkpt lat="47.25302" lon="6.08015">
        <ele>244.554</ele>
        <time>2016-09-06T08:56:55.000Z</time>
      </trkpt>
      <trkpt lat="47.25302" lon="6.08015">
        <ele>244.555</ele>
        <time>2016-09-06T08:56:56.000Z</time>
      </trkpt>
      <trkpt lat="47.25302" lon="6.08015">
        <ele>244.554</ele>
        <time>2016-09-06T08:56:57.000Z</time>
      </trkpt>
      <trkpt lat="47.25302" lon="6.08015">
        <ele>244.545</ele>
        <time>2016-09-06T08:56:58.000Z</time>
      </trkpt>
      <trkpt lat="47.25302" lon="6.08015">
        <ele>244.54</ele>
        <time>2016-09-06T08:56:59.000Z</time>
      </trkpt>
      <trkpt lat="47.25302" lon="6.08015">
        <ele>244.541</ele>
        <time>2016-09-06T08:57:00.000Z</time>
      </trkpt>
      <trkpt lat="47.25302" lon="6.08015">
        <ele>244.543</ele>
        <time>2016-09-06T08:57:01.000Z</time>
      </trkpt>
      <trkpt lat="47.25302" lon="6.08015">
        <ele>244.536</ele>
        <time>2016-09-06T08:57:02.000Z</time>
      </trkpt>
      <trkpt lat="47.25302" lon="6.08015">
        <ele>244.54</ele>
        <time>2016-09-06T08:57:03.000Z</time>
      </trkpt>
      <trkpt lat="47.25302" lon="6.08015">
        <ele>244.533</ele>
        <time>2016-09-06T08:57:04.000Z</time>
      </trkpt>
      <trkpt lat="47.25302" lon="6.08015">
        <ele>244.529</ele>
        <time>2016-09-06T08:57:05.000Z</time>
      </trkpt>
      <trkpt lat="47.25302" lon="6.08015">
        <ele>244.535</ele>
        <time>2016-09-06T08:57:06.000Z</time>
      </trkpt>
      <trkpt lat="47.25302" lon="6.08015">
        <ele>244.533</ele>
        <time>2016-09-06T08:57:07.000Z</time>
      </trkpt>
      <trkpt lat="47.25302" lon="6.08015">
        <ele>244.527</ele>
        <time>2016-09-06T08:57:08.000Z</time>
      </trkpt>
      <trkpt lat="47.25302" lon="6.08015">
        <ele>244.53</ele>
        <time>2016-09-06T08:57:09.000Z</time>
      </trkpt>
      <trkpt lat="47.25302" lon="6.08015">
        <ele>244.527</ele>
        <time>2016-09-06T08:57:10.000Z</time>
      </trkpt>
      <trkpt lat="47.25302" lon="6.08015">
        <ele>244.523</ele>
        <time>2016-09-06T08:57:11.000Z</time>
      </trkpt>
      <trkpt lat="47.25302" lon="6.08015">
        <ele>244.517</ele>
        <time>2016-09-06T08:57:12.000Z</time>
      </trkpt>
      <trkpt lat="47.25302" lon="6.08015">
        <ele>244.518</ele>
        <time>2016-09-06T08:57:13.000Z</time>
      </trkpt>
      <trkpt lat="47.25302" lon="6.08015">
        <ele>244.522</ele>
        <time>2016-09-06T08:57:14.000Z</time>
      </trkpt>
      <trkpt lat="47.25302" lon="6.08015">
        <ele>244.525</ele>
        <time>2016-09-06T08:57:15.000Z</time>
      </trkpt>
      <trkpt lat="47.25302" lon="6.08015">
        <ele>244.528</ele>
        <time>2016-09-06T08:57:16.000Z</time>
      </trkpt>
      <trkpt lat="47.25302" lon="6.08015">
        <ele>244.532</ele>
        <time>2016-09-06T08:57:17.000Z</time>
      </trkpt>
      <trkpt lat="47.25302" lon="6.08015">
        <ele>244.538</ele>
        <time>2016-09-06T08:57:18.000Z</time>
      </trkpt>
      <trkpt lat="47.25302" lon="6.08015">
        <ele>244.541</ele>
        <time>2016-09-06T08:57:19.000Z</time>
      </trkpt>
      <trkpt lat="47.25302" lon="6.08015">
        <ele>244.551</ele>
        <time>2016-09-06T08:57:20.000Z</time>
      </trkpt>
      <trkpt lat="47.25302" lon="6.08015">
        <ele>244.559</ele>
        <time>2016-09-06T08:57:21.000Z</time>
      </trkpt>
      <trkpt lat="47.25302" lon="6.08015">
        <ele>244.57</ele>
        <time>2016-09-06T08:57:22.000Z</time>
      </trkpt>
      <trkpt lat="47.25302" lon="6.08013">
        <ele>245.123</ele>
        <time>2016-09-06T08:57:23.000Z</time>
      </trkpt>
      <trkpt lat="47.25302" lon="6.08013">
        <ele>245.286</ele>
        <time>2016-09-06T08:57:24.000Z</time>
      </trkpt>
      <trkpt lat="47.25302" lon="6.08013">
        <ele>245.916</ele>
        <time>2016-09-06T08:57:25.000Z</time>
      </trkpt>
      <trkpt lat="47.25302" lon="6.08013">
        <ele>246.334</ele>
        <time>2016-09-06T08:57:26.000Z</time>
      </trkpt>
      <trkpt lat="47.25302" lon="6.08013">
        <ele>246.352</ele>
        <time>2016-09-06T08:57:27.000Z</time>
      </trkpt>
      <trkpt lat="47.25302" lon="6.08013">
        <ele>246.354</ele>
        <time>2016-09-06T08:57:28.000Z</time>
      </trkpt>
      <trkpt lat="47.25302" lon="6.08013">
        <ele>246.355</ele>
        <time>2016-09-06T08:57:29.000Z</time>
      </trkpt>
      <trkpt lat="47.25302" lon="6.08013">
        <ele>247.086</ele>
        <time>2016-09-06T08:57:30.000Z</time>
      </trkpt>
      <trkpt lat="47.25302" lon="6.08013">
        <ele>247.103</ele>
        <time>2016-09-06T08:57:31.000Z</time>
      </trkpt>
      <trkpt lat="47.25302" lon="6.08013">
        <ele>247.106</ele>
        <time>2016-09-06T08:57:32.000Z</time>
      </trkpt>
      <trkpt lat="47.25302" lon="6.08013">
        <ele>247.101</ele>
        <time>2016-09-06T08:57:33.000Z</time>
      </trkpt>
      <trkpt lat="47.25302" lon="6.08013">
        <ele>247.444</ele>
        <time>2016-09-06T08:57:34.000Z</time>
      </trkpt>
      <trkpt lat="47.25302" lon="6.08013">
        <ele>247.478</ele>
        <time>2016-09-06T08:57:35.000Z</time>
      </trkpt>
      <trkpt lat="47.25302" lon="6.08013">
        <ele>247.783</ele>
        <time>2016-09-06T08:57:36.000Z</time>
      </trkpt>
      <trkpt lat="47.25302" lon="6.08013">
        <ele>248.138</ele>
        <time>2016-09-06T08:57:37.000Z</time>
      </trkpt>
      <trkpt lat="47.25302" lon="6.08013">
        <ele>248.951</ele>
        <time>2016-09-06T08:57:38.000Z</time>
      </trkpt>
      <trkpt lat="47.25302" lon="6.08013">
        <ele>248.97</ele>
        <time>2016-09-06T08:57:39.000Z</time>
      </trkpt>
      <trkpt lat="47.25302" lon="6.08013">
        <ele>248.974</ele>
        <time>2016-09-06T08:57:40.000Z</time>
      </trkpt>
      <trkpt lat="47.25302" lon="6.08013">
        <ele>248.981</ele>
        <time>2016-09-06T08:57:41.000Z</time>
      </trkpt>
      <trkpt lat="47.25302" lon="6.08013">
        <ele>249.036</ele>
        <time>2016-09-06T08:57:42.000Z</time>
      </trkpt>
      <trkpt lat="47.25302" lon="6.08013">
        <ele>248.906</ele>
        <time>2016-09-06T08:57:43.000Z</time>
      </trkpt>
      <trkpt lat="47.25302" lon="6.08013">
        <ele>248.75</ele>
        <time>2016-09-06T08:57:44.000Z</time>
      </trkpt>
      <trkpt lat="47.25302" lon="6.08011">
        <ele>248.317</ele>
        <time>2016-09-06T08:57:45.000Z</time>
      </trkpt>
      <trkpt lat="47.25302" lon="6.08011">
        <ele>248.247</ele>
        <time>2016-09-06T08:57:46.000Z</time>
      </trkpt>
      <trkpt lat="47.25302" lon="6.08011">
        <ele>248.473</ele>
        <time>2016-09-06T08:57:47.000Z</time>
      </trkpt>
      <trkpt lat="47.25303" lon="6.08011">
        <ele>248.285</ele>
        <time>2016-09-06T08:57:48.000Z</time>
      </trkpt>
      <trkpt lat="47.25303" lon="6.08011">
        <ele>247.877</ele>
        <time>2016-09-06T08:57:49.000Z</time>
      </trkpt>
      <trkpt lat="47.25303" lon="6.0801">
        <ele>248.146</ele>
        <time>2016-09-06T08:57:50.000Z</time>
      </trkpt>
      <trkpt lat="47.25303" lon="6.0801">
        <ele>250.765</ele>
        <time>2016-09-06T08:57:51.000Z</time>
      </trkpt>
      <trkpt lat="47.25304" lon="6.08009">
        <ele>251.196</ele>
        <time>2016-09-06T08:57:52.000Z</time>
      </trkpt>
      <trkpt lat="47.25304" lon="6.08009">
        <ele>251.713</ele>
        <time>2016-09-06T08:57:53.000Z</time>
      </trkpt>
      <trkpt lat="47.25304" lon="6.08009">
        <ele>252.019</ele>
        <time>2016-09-06T08:57:54.000Z</time>
      </trkpt>
      <trkpt lat="47.25304" lon="6.08009">
        <ele>251.337</ele>
        <time>2016-09-06T08:57:55.000Z</time>
      </trkpt>
      <trkpt lat="47.25305" lon="6.08008">
        <ele>250.985</ele>
        <time>2016-09-06T08:57:56.000Z</time>
      </trkpt>
      <trkpt lat="47.25305" lon="6.08008">
        <ele>251.954</ele>
        <time>2016-09-06T08:57:57.000Z</time>
      </trkpt>
      <trkpt lat="47.25305" lon="6.08008">
        <ele>251.727</ele>
        <time>2016-09-06T08:57:58.000Z</time>
      </trkpt>
      <trkpt lat="47.25305" lon="6.08008">
        <ele>252.31</ele>
        <time>2016-09-06T08:57:59.000Z</time>
      </trkpt>
      <trkpt lat="47.25305" lon="6.08008">
        <ele>252.311</ele>
        <time>2016-09-06T08:58:00.000Z</time>
      </trkpt>
      <trkpt lat="47.25305" lon="6.08008">
        <ele>251.423</ele>
        <time>2016-09-06T08:58:01.000Z</time>
      </trkpt>
      <trkpt lat="47.25305" lon="6.08008">
        <ele>251.633</ele>
        <time>2016-09-06T08:58:02.000Z</time>
      </trkpt>
      <trkpt lat="47.25305" lon="6.08008">
        <ele>251.604</ele>
        <time>2016-09-06T08:58:03.000Z</time>
      </trkpt>
      <trkpt lat="47.25305" lon="6.08008">
        <ele>251.602</ele>
        <time>2016-09-06T08:58:04.000Z</time>
      </trkpt>
      <trkpt lat="47.25305" lon="6.08008">
        <ele>251.602</ele>
        <time>2016-09-06T08:58:05.000Z</time>
      </trkpt>
      <trkpt lat="47.25305" lon="6.08008">
        <ele>251.598</ele>
        <time>2016-09-06T08:58:06.000Z</time>
      </trkpt>
      <trkpt lat="47.25305" lon="6.08008">
        <ele>251.604</ele>
        <time>2016-09-06T08:58:07.000Z</time>
      </trkpt>
      <trkpt lat="47.25305" lon="6.08008">
        <ele>251.612</ele>
        <time>2016-09-06T08:58:08.000Z</time>
      </trkpt>
      <trkpt lat="47.25305" lon="6.08008">
        <ele>251.62</ele>
        <time>2016-09-06T08:58:09.000Z</time>
      </trkpt>
      <trkpt lat="47.25305" lon="6.08008">
        <ele>251.625</ele>
        <time>2016-09-06T08:58:10.000Z</time>
      </trkpt>
      <trkpt lat="47.25305" lon="6.08008">
        <ele>251.631</ele>
        <time>2016-09-06T08:58:11.000Z</time>
      </trkpt>
      <trkpt lat="47.25305" lon="6.08008">
        <ele>251.634</ele>
        <time>2016-09-06T08:58:12.000Z</time>
      </trkpt>
      <trkpt lat="47.25305" lon="6.08008">
        <ele>251.632</ele>
        <time>2016-09-06T08:58:13.000Z</time>
      </trkpt>
      <trkpt lat="47.25305" lon="6.08008">
        <ele>251.149</ele>
        <time>2016-09-06T08:58:14.000Z</time>
      </trkpt>
      <trkpt lat="47.25302" lon="6.08009">
        <ele>250.916</ele>
        <time>2016-09-06T08:58:15.000Z</time>
      </trkpt>
      <trkpt lat="47.25302" lon="6.08009">
        <ele>251.771</ele>
        <time>2016-09-06T08:58:16.000Z</time>
      </trkpt>
      <trkpt lat="47.25302" lon="6.08009">
        <ele>252.178</ele>
        <time>2016-09-06T08:58:17.000Z</time>
      </trkpt>
      <trkpt lat="47.25303" lon="6.08009">
        <ele>252.353</ele>
        <time>2016-09-06T08:58:18.000Z</time>
      </trkpt>
      <trkpt lat="47.25303" lon="6.08009">
        <ele>252.29</ele>
        <time>2016-09-06T08:58:19.000Z</time>
      </trkpt>
      <trkpt lat="47.25303" lon="6.08009">
        <ele>251.989</ele>
        <time>2016-09-06T08:58:20.000Z</time>
      </trkpt>
      <trkpt lat="47.25303" lon="6.08009">
        <ele>251.144</ele>
        <time>2016-09-06T08:58:21.000Z</time>
      </trkpt>
      <trkpt lat="47.25303" lon="6.08009">
        <ele>251.115</ele>
        <time>2016-09-06T08:58:22.000Z</time>
      </trkpt>
      <trkpt lat="47.25303" lon="6.08009">
        <ele>251.433</ele>
        <time>2016-09-06T08:58:23.000Z</time>
      </trkpt>
      <trkpt lat="47.25303" lon="6.08009">
        <ele>250.848</ele>
        <time>2016-09-06T08:58:24.000Z</time>
      </trkpt>
      <trkpt lat="47.25303" lon="6.08009">
        <ele>250.69</ele>
        <time>2016-09-06T08:58:25.000Z</time>
      </trkpt>
      <trkpt lat="47.25303" lon="6.08009">
        <ele>250.489</ele>
        <time>2016-09-06T08:58:26.000Z</time>
      </trkpt>
      <trkpt lat="47.25303" lon="6.08009">
        <ele>250.488</ele>
        <time>2016-09-06T08:58:27.000Z</time>
      </trkpt>
      <trkpt lat="47.25305" lon="6.08015">
        <ele>250.484</ele>
        <time>2016-09-06T08:58:28.000Z</time>
      </trkpt>
      <trkpt lat="47.25305" lon="6.08015">
        <ele>250.486</ele>
        <time>2016-09-06T08:58:29.000Z</time>
      </trkpt>
      <trkpt lat="47.25305" lon="6.08015">
        <ele>250.738</ele>
        <time>2016-09-06T08:58:30.000Z</time>
      </trkpt>
      <trkpt lat="47.25305" lon="6.08015">
        <ele>250.823</ele>
        <time>2016-09-06T08:58:31.000Z</time>
      </trkpt>
      <trkpt lat="47.25305" lon="6.08015">
        <ele>250.858</ele>
        <time>2016-09-06T08:58:32.000Z</time>
      </trkpt>
      <trkpt lat="47.25305" lon="6.08015">
        <ele>250.941</ele>
        <time>2016-09-06T08:58:33.000Z</time>
      </trkpt>
      <trkpt lat="47.25305" lon="6.08015">
        <ele>250.508</ele>
        <time>2016-09-06T08:58:34.000Z</time>
      </trkpt>
      <trkpt lat="47.25305" lon="6.08015">
        <ele>250.564</ele>
        <time>2016-09-06T08:58:35.000Z</time>
      </trkpt>
      <trkpt lat="47.25305" lon="6.08015">
        <ele>250.897</ele>
        <time>2016-09-06T08:58:36.000Z</time>
      </trkpt>
      <trkpt lat="47.25305" lon="6.08015">
        <ele>251.825</ele>
        <time>2016-09-06T08:58:37.000Z</time>
      </trkpt>
      <trkpt lat="47.25305" lon="6.08015">
        <ele>252.688</ele>
        <time>2016-09-06T08:58:38.000Z</time>
      </trkpt>
      <trkpt lat="47.25305" lon="6.08015">
        <ele>253.419</ele>
        <time>2016-09-06T08:58:39.000Z</time>
      </trkpt>
      <trkpt lat="47.25305" lon="6.08015">
        <ele>253.795</ele>
        <time>2016-09-06T08:58:40.000Z</time>
      </trkpt>
      <trkpt lat="47.25305" lon="6.08015">
        <ele>253.797</ele>
        <time>2016-09-06T08:58:41.000Z</time>
      </trkpt>
      <trkpt lat="47.25305" lon="6.08015">
        <ele>253.718</ele>
        <time>2016-09-06T08:58:42.000Z</time>
      </trkpt>
      <trkpt lat="47.25305" lon="6.08015">
        <ele>253.905</ele>
        <time>2016-09-06T08:58:43.000Z</time>
      </trkpt>
      <trkpt lat="47.25305" lon="6.08015">
        <ele>253.128</ele>
        <time>2016-09-06T08:58:44.000Z</time>
      </trkpt>
      <trkpt lat="47.25305" lon="6.08015">
        <ele>252.925</ele>
        <time>2016-09-06T08:58:45.000Z</time>
      </trkpt>
      <trkpt lat="47.25305" lon="6.08015">
        <ele>252.501</ele>
        <time>2016-09-06T08:58:46.000Z</time>
      </trkpt>
      <trkpt lat="47.25305" lon="6.08015">
        <ele>252.788</ele>
        <time>2016-09-06T08:58:47.000Z</time>
      </trkpt>
      <trkpt lat="47.25305" lon="6.08015">
        <ele>253.227</ele>
        <time>2016-09-06T08:58:48.000Z</time>
      </trkpt>
      <trkpt lat="47.25305" lon="6.08015">
        <ele>253.232</ele>
        <time>2016-09-06T08:58:49.000Z</time>
      </trkpt>
      <trkpt lat="47.25305" lon="6.08015">
        <ele>253.389</ele>
        <time>2016-09-06T08:58:50.000Z</time>
      </trkpt>
      <trkpt lat="47.25305" lon="6.08015">
        <ele>254.15</ele>
        <time>2016-09-06T08:58:51.000Z</time>
      </trkpt>
      <trkpt lat="47.25305" lon="6.08015">
        <ele>254.12</ele>
        <time>2016-09-06T08:58:52.000Z</time>
      </trkpt>
      <trkpt lat="47.25305" lon="6.08015">
        <ele>254.555</ele>
        <time>2016-09-06T08:58:53.000Z</time>
      </trkpt>
      <trkpt lat="47.25305" lon="6.08015">
        <ele>254.378</ele>
        <time>2016-09-06T08:58:54.000Z</time>
      </trkpt>
      <trkpt lat="47.25305" lon="6.08015">
        <ele>254.2</ele>
        <time>2016-09-06T08:58:55.000Z</time>
      </trkpt>
      <trkpt lat="47.25305" lon="6.08015">
        <ele>254.214</ele>
        <time>2016-09-06T08:58:56.000Z</time>
      </trkpt>
      <trkpt lat="47.25305" lon="6.08015">
        <ele>254.539</ele>
        <time>2016-09-06T08:58:57.000Z</time>
      </trkpt>
      <trkpt lat="47.25305" lon="6.08015">
        <ele>254.261</ele>
        <time>2016-09-06T08:58:58.000Z</time>
      </trkpt>
      <trkpt lat="47.25305" lon="6.08015">
        <ele>254.358</ele>
        <time>2016-09-06T08:58:59.000Z</time>
      </trkpt>
      <trkpt lat="47.25309" lon="6.08013">
        <ele>254.088</ele>
        <time>2016-09-06T08:59:00.000Z</time>
      </trkpt>
      <trkpt lat="47.25309" lon="6.08013">
        <ele>253.544</ele>
        <time>2016-09-06T08:59:01.004Z</time>
      </trkpt>
      <trkpt lat="47.25309" lon="6.08013">
        <ele>254.327</ele>
        <time>2016-09-06T08:59:02.000Z</time>
      </trkpt>
      <trkpt lat="47.25309" lon="6.08012">
        <ele>254.422</ele>
        <time>2016-09-06T08:59:03.000Z</time>
      </trkpt>
      <trkpt lat="47.25309" lon="6.08012">
        <ele>254.247</ele>
        <time>2016-09-06T08:59:04.000Z</time>
      </trkpt>
      <trkpt lat="47.25308" lon="6.08012">
        <ele>253.438</ele>
        <time>2016-09-06T08:59:05.000Z</time>
      </trkpt>
      <trkpt lat="47.25308" lon="6.08011">
        <ele>253.525</ele>
        <time>2016-09-06T08:59:06.000Z</time>
      </trkpt>
      <trkpt lat="47.25307" lon="6.08011">
        <ele>254.01</ele>
        <time>2016-09-06T08:59:07.000Z</time>
      </trkpt>
      <trkpt lat="47.25306" lon="6.0801">
        <ele>253.957</ele>
        <time>2016-09-06T08:59:08.000Z</time>
      </trkpt>
      <trkpt lat="47.25305" lon="6.08009">
        <ele>252.61</ele>
        <time>2016-09-06T08:59:09.000Z</time>
      </trkpt>
      <trkpt lat="47.25305" lon="6.08009">
        <ele>253.903</ele>
        <time>2016-09-06T08:59:10.000Z</time>
      </trkpt>
      <trkpt lat="47.25304" lon="6.08008">
        <ele>253.833</ele>
        <time>2016-09-06T08:59:11.000Z</time>
      </trkpt>
      <trkpt lat="47.25304" lon="6.08008">
        <ele>252.772</ele>
        <time>2016-09-06T08:59:12.000Z</time>
      </trkpt>
      <trkpt lat="47.25304" lon="6.08007">
        <ele>252.825</ele>
        <time>2016-09-06T08:59:13.000Z</time>
      </trkpt>
      <trkpt lat="47.25304" lon="6.08007">
        <ele>253.345</ele>
        <time>2016-09-06T08:59:14.000Z</time>
      </trkpt>
      <trkpt lat="47.25304" lon="6.08007">
        <ele>251.434</ele>
        <time>2016-09-06T08:59:15.000Z</time>
      </trkpt>
      <trkpt lat="47.25304" lon="6.08007">
        <ele>251.41</ele>
        <time>2016-09-06T08:59:16.000Z</time>
      </trkpt>
      <trkpt lat="47.25304" lon="6.08007">
        <ele>250.382</ele>
        <time>2016-09-06T08:59:17.000Z</time>
      </trkpt>
      <trkpt lat="47.25303" lon="6.08007">
        <ele>250.104</ele>
        <time>2016-09-06T08:59:18.000Z</time>
      </trkpt>
      <trkpt lat="47.25303" lon="6.08007">
        <ele>249.489</ele>
        <time>2016-09-06T08:59:19.000Z</time>
      </trkpt>
      <trkpt lat="47.25302" lon="6.08008">
        <ele>249.028</ele>
        <time>2016-09-06T08:59:20.000Z</time>
      </trkpt>
      <trkpt lat="47.25302" lon="6.08008">
        <ele>249.248</ele>
        <time>2016-09-06T08:59:21.000Z</time>
      </trkpt>
      <trkpt lat="47.25302" lon="6.08008">
        <ele>249.356</ele>
        <time>2016-09-06T08:59:22.000Z</time>
      </trkpt>
      <trkpt lat="47.25302" lon="6.08008">
        <ele>248.853</ele>
        <time>2016-09-06T08:59:23.000Z</time>
      </trkpt>
      <trkpt lat="47.25302" lon="6.08008">
        <ele>247.663</ele>
        <time>2016-09-06T08:59:24.000Z</time>
      </trkpt>
      <trkpt lat="47.25302" lon="6.08008">
        <ele>247.763</ele>
        <time>2016-09-06T08:59:25.000Z</time>
      </trkpt>
      <trkpt lat="47.25302" lon="6.08008">
        <ele>248.015</ele>
        <time>2016-09-06T08:59:26.000Z</time>
      </trkpt>
      <trkpt lat="47.25302" lon="6.08008">
        <ele>247.834</ele>
        <time>2016-09-06T08:59:27.000Z</time>
      </trkpt>
      <trkpt lat="47.25302" lon="6.08008">
        <ele>248.628</ele>
        <time>2016-09-06T08:59:28.000Z</time>
      </trkpt>
      <trkpt lat="47.25302" lon="6.08008">
        <ele>248.628</ele>
        <time>2016-09-06T08:59:29.000Z</time>
      </trkpt>
      <trkpt lat="47.25302" lon="6.08008">
        <ele>248.379</ele>
        <time>2016-09-06T08:59:30.000Z</time>
      </trkpt>
      <trkpt lat="47.25302" lon="6.08008">
        <ele>247.68</ele>
        <time>2016-09-06T08:59:31.000Z</time>
      </trkpt>
      <trkpt lat="47.25302" lon="6.08008">
        <ele>247.444</ele>
        <time>2016-09-06T08:59:32.000Z</time>
      </trkpt>
      <trkpt lat="47.25302" lon="6.08008">
        <ele>247.47</ele>
        <time>2016-09-06T08:59:33.000Z</time>
      </trkpt>
      <trkpt lat="47.25301" lon="6.08012">
        <ele>246.776</ele>
        <time>2016-09-06T08:59:34.000Z</time>
      </trkpt>
      <trkpt lat="47.253" lon="6.08011">
        <ele>246.386</ele>
        <time>2016-09-06T08:59:35.000Z</time>
      </trkpt>
      <trkpt lat="47.253" lon="6.0801">
        <ele>245.979</ele>
        <time>2016-09-06T08:59:36.000Z</time>
      </trkpt>
      <trkpt lat="47.253" lon="6.08008">
        <ele>246.083</ele>
        <time>2016-09-06T08:59:37.000Z</time>
      </trkpt>
      <trkpt lat="47.253" lon="6.08006">
        <ele>245.982</ele>
        <time>2016-09-06T08:59:38.000Z</time>
      </trkpt>
      <trkpt lat="47.25299" lon="6.08004">
        <ele>246.013</ele>
        <time>2016-09-06T08:59:39.000Z</time>
      </trkpt>
      <trkpt lat="47.25299" lon="6.08003">
        <ele>245.665</ele>
        <time>2016-09-06T08:59:40.000Z</time>
      </trkpt>
      <trkpt lat="47.25298" lon="6.08001">
        <ele>245.671</ele>
        <time>2016-09-06T08:59:41.000Z</time>
      </trkpt>
      <trkpt lat="47.25296" lon="6.07999">
        <ele>245.673</ele>
        <time>2016-09-06T08:59:42.000Z</time>
      </trkpt>
      <trkpt lat="47.25295" lon="6.07997">
        <ele>245.677</ele>
        <time>2016-09-06T08:59:43.000Z</time>
      </trkpt>
      <trkpt lat="47.25293" lon="6.07995">
        <ele>244.588</ele>
        <time>2016-09-06T08:59:44.000Z</time>
      </trkpt>
      <trkpt lat="47.25292" lon="6.07992">
        <ele>244.44</ele>
        <time>2016-09-06T08:59:45.000Z</time>
      </trkpt>
      <trkpt lat="47.25291" lon="6.07988">
        <ele>244.808</ele>
        <time>2016-09-06T08:59:46.000Z</time>
      </trkpt>
      <trkpt lat="47.2529" lon="6.07984">
        <ele>246.041</ele>
        <time>2016-09-06T08:59:47.000Z</time>
      </trkpt>
      <trkpt lat="47.25289" lon="6.07981">
        <ele>246.151</ele>
        <time>2016-09-06T08:59:48.000Z</time>
      </trkpt>
      <trkpt lat="47.25288" lon="6.07978">
        <ele>246.152</ele>
        <time>2016-09-06T08:59:49.000Z</time>
      </trkpt>
      <trkpt lat="47.25287" lon="6.07976">
        <ele>247.063</ele>
        <time>2016-09-06T08:59:50.000Z</time>
      </trkpt>
      <trkpt lat="47.25286" lon="6.07974">
        <ele>247.489</ele>
        <time>2016-09-06T08:59:51.000Z</time>
      </trkpt>
      <trkpt lat="47.25285" lon="6.07971">
        <ele>246.832</ele>
        <time>2016-09-06T08:59:52.000Z</time>
      </trkpt>
      <trkpt lat="47.25283" lon="6.07968">
        <ele>246.648</ele>
        <time>2016-09-06T08:59:53.000Z</time>
      </trkpt>
      <trkpt lat="47.25282" lon="6.07965">
        <ele>247.032</ele>
        <time>2016-09-06T08:59:54.000Z</time>
      </trkpt>
      <trkpt lat="47.25281" lon="6.07962">
        <ele>247.252</ele>
        <time>2016-09-06T08:59:55.000Z</time>
      </trkpt>
      <trkpt lat="47.2528" lon="6.07959">
        <ele>247.66</ele>
        <time>2016-09-06T08:59:56.000Z</time>
      </trkpt>
      <trkpt lat="47.25279" lon="6.07956">
        <ele>247.956</ele>
        <time>2016-09-06T08:59:57.000Z</time>
      </trkpt>
      <trkpt lat="47.25279" lon="6.07952">
        <ele>248.021</ele>
        <time>2016-09-06T08:59:58.000Z</time>
      </trkpt>
      <trkpt lat="47.25278" lon="6.07949">
        <ele>246.621</ele>
        <time>2016-09-06T08:59:59.000Z</time>
      </trkpt>
      <trkpt lat="47.25277" lon="6.07945">
        <ele>246.638</ele>
        <time>2016-09-06T09:00:00.000Z</time>
      </trkpt>
      <trkpt lat="47.25276" lon="6.07942">
        <ele>246.814</ele>
        <time>2016-09-06T09:00:01.000Z</time>
      </trkpt>
      <trkpt lat="47.25274" lon="6.07939">
        <ele>247.025</ele>
        <time>2016-09-06T09:00:02.000Z</time>
      </trkpt>
      <trkpt lat="47.25272" lon="6.07936">
        <ele>246.295</ele>
        <time>2016-09-06T09:00:03.000Z</time>
      </trkpt>
      <trkpt lat="47.25271" lon="6.07933">
        <ele>246.766</ele>
        <time>2016-09-06T09:00:04.000Z</time>
      </trkpt>
      <trkpt lat="47.2527" lon="6.0793">
        <ele>246.833</ele>
        <time>2016-09-06T09:00:05.000Z</time>
      </trkpt>
      <trkpt lat="47.25268" lon="6.07927">
        <ele>248.15</ele>
        <time>2016-09-06T09:00:06.000Z</time>
      </trkpt>
      <trkpt lat="47.25268" lon="6.07923">
        <ele>248.222</ele>
        <time>2016-09-06T09:00:07.000Z</time>
      </trkpt>
      <trkpt lat="47.25267" lon="6.07919">
        <ele>247.498</ele>
        <time>2016-09-06T09:00:08.000Z</time>
      </trkpt>
      <trkpt lat="47.25266" lon="6.07914">
        <ele>247.503</ele>
        <time>2016-09-06T09:00:09.000Z</time>
      </trkpt>
      <trkpt lat="47.25265" lon="6.0791">
        <ele>248.074</ele>
        <time>2016-09-06T09:00:10.000Z</time>
      </trkpt>
      <trkpt lat="47.25264" lon="6.07905">
        <ele>247.217</ele>
        <time>2016-09-06T09:00:11.000Z</time>
      </trkpt>
      <trkpt lat="47.25264" lon="6.07901">
        <ele>245.997</ele>
        <time>2016-09-06T09:00:12.000Z</time>
      </trkpt>
      <trkpt lat="47.25263" lon="6.07896">
        <ele>245.491</ele>
        <time>2016-09-06T09:00:13.000Z</time>
      </trkpt>
      <trkpt lat="47.25263" lon="6.07892">
        <ele>245.232</ele>
        <time>2016-09-06T09:00:14.000Z</time>
      </trkpt>
      <trkpt lat="47.25262" lon="6.07887">
        <ele>244.533</ele>
        <time>2016-09-06T09:00:15.000Z</time>
      </trkpt>
      <trkpt lat="47.25261" lon="6.07883">
        <ele>244.178</ele>
        <time>2016-09-06T09:00:16.000Z</time>
      </trkpt>
      <trkpt lat="47.2526" lon="6.07878">
        <ele>242.899</ele>
        <time>2016-09-06T09:00:17.000Z</time>
      </trkpt>
      <trkpt lat="47.25259" lon="6.07874">
        <ele>242.443</ele>
        <time>2016-09-06T09:00:18.000Z</time>
      </trkpt>
      <trkpt lat="47.25258" lon="6.07869">
        <ele>241.929</ele>
        <time>2016-09-06T09:00:19.000Z</time>
      </trkpt>
      <trkpt lat="47.25256" lon="6.07864">
        <ele>241.944</ele>
        <time>2016-09-06T09:00:20.000Z</time>
      </trkpt>
      <trkpt lat="47.25255" lon="6.0786">
        <ele>241.926</ele>
        <time>2016-09-06T09:00:21.000Z</time>
      </trkpt>
      <trkpt lat="47.25254" lon="6.07854">
        <ele>241.676</ele>
        <time>2016-09-06T09:00:22.000Z</time>
      </trkpt>
      <trkpt lat="47.25252" lon="6.07848">
        <ele>243.362</ele>
        <time>2016-09-06T09:00:23.000Z</time>
      </trkpt>
      <trkpt lat="47.25251" lon="6.07843">
        <ele>241.7</ele>
        <time>2016-09-06T09:00:24.000Z</time>
      </trkpt>
      <trkpt lat="47.2525" lon="6.07838">
        <ele>239.062</ele>
        <time>2016-09-06T09:00:25.000Z</time>
      </trkpt>
      <trkpt lat="47.25249" lon="6.07833">
        <ele>238.117</ele>
        <time>2016-09-06T09:00:26.000Z</time>
      </trkpt>
      <trkpt lat="47.25248" lon="6.07827">
        <ele>238.698</ele>
        <time>2016-09-06T09:00:27.000Z</time>
      </trkpt>
      <trkpt lat="47.25247" lon="6.07821">
        <ele>238.931</ele>
        <time>2016-09-06T09:00:28.000Z</time>
      </trkpt>
      <trkpt lat="47.25246" lon="6.07815">
        <ele>239.95</ele>
        <time>2016-09-06T09:00:29.000Z</time>
      </trkpt>
      <trkpt lat="47.25245" lon="6.07808">
        <ele>240.195</ele>
        <time>2016-09-06T09:00:30.000Z</time>
      </trkpt>
      <trkpt lat="47.25243" lon="6.07802">
        <ele>241.034</ele>
        <time>2016-09-06T09:00:31.000Z</time>
      </trkpt>
      <trkpt lat="47.25242" lon="6.07796">
        <ele>240.425</ele>
        <time>2016-09-06T09:00:32.000Z</time>
      </trkpt>
      <trkpt lat="47.2524" lon="6.0779">
        <ele>239.07</ele>
        <time>2016-09-06T09:00:33.000Z</time>
      </trkpt>
      <trkpt lat="47.25239" lon="6.07784">
        <ele>239.534</ele>
        <time>2016-09-06T09:00:34.000Z</time>
      </trkpt>
      <trkpt lat="47.25237" lon="6.07778">
        <ele>239.723</ele>
        <time>2016-09-06T09:00:35.000Z</time>
      </trkpt>
      <trkpt lat="47.25235" lon="6.07771">
        <ele>239.384</ele>
        <time>2016-09-06T09:00:36.000Z</time>
      </trkpt>
      <trkpt lat="47.25234" lon="6.07765">
        <ele>241.175</ele>
        <time>2016-09-06T09:00:37.000Z</time>
      </trkpt>
      <trkpt lat="47.25232" lon="6.07759">
        <ele>238.968</ele>
        <time>2016-09-06T09:00:38.000Z</time>
      </trkpt>
      <trkpt lat="47.2523" lon="6.07753">
        <ele>238.599</ele>
        <time>2016-09-06T09:00:39.000Z</time>
      </trkpt>
      <trkpt lat="47.25228" lon="6.07747">
        <ele>238.821</ele>
        <time>2016-09-06T09:00:40.000Z</time>
      </trkpt>
      <trkpt lat="47.25224" lon="6.07739">
        <ele>238.673</ele>
        <time>2016-09-06T09:00:41.000Z</time>
      </trkpt>
      <trkpt lat="47.25223" lon="6.07734">
        <ele>239.81</ele>
        <time>2016-09-06T09:00:42.000Z</time>
      </trkpt>
      <trkpt lat="47.25221" lon="6.07726">
        <ele>238.658</ele>
        <time>2016-09-06T09:00:43.000Z</time>
      </trkpt>
      <trkpt lat="47.25221" lon="6.0772">
        <ele>239.29</ele>
        <time>2016-09-06T09:00:44.000Z</time>
      </trkpt>
      <trkpt lat="47.25219" lon="6.07714">
        <ele>239.729</ele>
        <time>2016-09-06T09:00:45.000Z</time>
      </trkpt>
      <trkpt lat="47.25217" lon="6.07709">
        <ele>239.837</ele>
        <time>2016-09-06T09:00:46.000Z</time>
      </trkpt>
      <trkpt lat="47.25215" lon="6.07703">
        <ele>239.81</ele>
        <time>2016-09-06T09:00:47.000Z</time>
      </trkpt>
      <trkpt lat="47.25213" lon="6.07699">
        <ele>240.657</ele>
        <time>2016-09-06T09:00:48.000Z</time>
      </trkpt>
      <trkpt lat="47.25211" lon="6.07695">
        <ele>241.028</ele>
        <time>2016-09-06T09:00:49.000Z</time>
      </trkpt>
      <trkpt lat="47.25208" lon="6.07692">
        <ele>240.057</ele>
        <time>2016-09-06T09:00:50.000Z</time>
      </trkpt>
      <trkpt lat="47.25205" lon="6.07685">
        <ele>240.124</ele>
        <time>2016-09-06T09:00:51.000Z</time>
      </trkpt>
      <trkpt lat="47.25203" lon="6.0768">
        <ele>241.136</ele>
        <time>2016-09-06T09:00:52.000Z</time>
      </trkpt>
      <trkpt lat="47.25201" lon="6.07675">
        <ele>240.501</ele>
        <time>2016-09-06T09:00:53.000Z</time>
      </trkpt>
      <trkpt lat="47.25199" lon="6.0767">
        <ele>239.271</ele>
        <time>2016-09-06T09:00:54.000Z</time>
      </trkpt>
      <trkpt lat="47.25197" lon="6.07666">
        <ele>239.746</ele>
        <time>2016-09-06T09:00:55.000Z</time>
      </trkpt>
      <trkpt lat="47.25194" lon="6.0766">
        <ele>240.16</ele>
        <time>2016-09-06T09:00:56.000Z</time>
      </trkpt>
      <trkpt lat="47.25192" lon="6.07655">
        <ele>240.387</ele>
        <time>2016-09-06T09:00:57.000Z</time>
      </trkpt>
      <trkpt lat="47.2519" lon="6.07651">
        <ele>239.792</ele>
        <time>2016-09-06T09:00:58.000Z</time>
      </trkpt>
      <trkpt lat="47.25188" lon="6.07646">
        <ele>240.354</ele>
        <time>2016-09-06T09:00:59.000Z</time>
      </trkpt>
      <trkpt lat="47.25185" lon="6.07642">
        <ele>240.134</ele>
        <time>2016-09-06T09:01:00.000Z</time>
      </trkpt>
      <trkpt lat="47.25183" lon="6.07638">
        <ele>240.421</ele>
        <time>2016-09-06T09:01:01.000Z</time>
      </trkpt>
      <trkpt lat="47.2518" lon="6.07633">
        <ele>241.192</ele>
        <time>2016-09-06T09:01:02.000Z</time>
      </trkpt>
      <trkpt lat="47.25178" lon="6.07629">
        <ele>242.027</ele>
        <time>2016-09-06T09:01:03.000Z</time>
      </trkpt>
      <trkpt lat="47.25176" lon="6.07624">
        <ele>242.421</ele>
        <time>2016-09-06T09:01:04.000Z</time>
      </trkpt>
      <trkpt lat="47.25173" lon="6.0762">
        <ele>242.352</ele>
        <time>2016-09-06T09:01:05.000Z</time>
      </trkpt>
      <trkpt lat="47.25169" lon="6.07616">
        <ele>242.808</ele>
        <time>2016-09-06T09:01:06.000Z</time>
      </trkpt>
      <trkpt lat="47.25166" lon="6.0761">
        <ele>242.749</ele>
        <time>2016-09-06T09:01:07.000Z</time>
      </trkpt>
      <trkpt lat="47.25163" lon="6.07606">
        <ele>242.525</ele>
        <time>2016-09-06T09:01:08.000Z</time>
      </trkpt>
      <trkpt lat="47.2516" lon="6.076">
        <ele>242.775</ele>
        <time>2016-09-06T09:01:09.000Z</time>
      </trkpt>
      <trkpt lat="47.25156" lon="6.07595">
        <ele>242.996</ele>
        <time>2016-09-06T09:01:10.000Z</time>
      </trkpt>
      <trkpt lat="47.25153" lon="6.07589">
        <ele>243.562</ele>
        <time>2016-09-06T09:01:11.000Z</time>
      </trkpt>
      <trkpt lat="47.25149" lon="6.07585">
        <ele>243.093</ele>
        <time>2016-09-06T09:01:12.000Z</time>
      </trkpt>
      <trkpt lat="47.25147" lon="6.07578">
        <ele>242.817</ele>
        <time>2016-09-06T09:01:13.000Z</time>
      </trkpt>
      <trkpt lat="47.25144" lon="6.07573">
        <ele>243.187</ele>
        <time>2016-09-06T09:01:14.000Z</time>
      </trkpt>
      <trkpt lat="47.25141" lon="6.07569">
        <ele>243.354</ele>
        <time>2016-09-06T09:01:15.000Z</time>
      </trkpt>
      <trkpt lat="47.25139" lon="6.07565">
        <ele>243.782</ele>
        <time>2016-09-06T09:01:16.000Z</time>
      </trkpt>
      <trkpt lat="47.25136" lon="6.07561">
        <ele>244.342</ele>
        <time>2016-09-06T09:01:17.000Z</time>
      </trkpt>
      <trkpt lat="47.25133" lon="6.07556">
        <ele>244.019</ele>
        <time>2016-09-06T09:01:18.000Z</time>
      </trkpt>
      <trkpt lat="47.2513" lon="6.07552">
        <ele>243.428</ele>
        <time>2016-09-06T09:01:19.000Z</time>
      </trkpt>
      <trkpt lat="47.25126" lon="6.07548">
        <ele>243.73</ele>
        <time>2016-09-06T09:01:20.000Z</time>
      </trkpt>
      <trkpt lat="47.25123" lon="6.07544">
        <ele>243.36</ele>
        <time>2016-09-06T09:01:21.000Z</time>
      </trkpt>
      <trkpt lat="47.25119" lon="6.07539">
        <ele>243.676</ele>
        <time>2016-09-06T09:01:22.000Z</time>
      </trkpt>
      <trkpt lat="47.25115" lon="6.07534">
        <ele>244.409</ele>
        <time>2016-09-06T09:01:23.000Z</time>
      </trkpt>
      <trkpt lat="47.25112" lon="6.07531">
        <ele>245.787</ele>
        <time>2016-09-06T09:01:24.000Z</time>
      </trkpt>
      <trkpt lat="47.25108" lon="6.07527">
        <ele>245.128</ele>
        <time>2016-09-06T09:01:25.000Z</time>
      </trkpt>
      <trkpt lat="47.25104" lon="6.07522">
        <ele>244.361</ele>
        <time>2016-09-06T09:01:26.000Z</time>
      </trkpt>
      <trkpt lat="47.251" lon="6.07519">
        <ele>243.207</ele>
        <time>2016-09-06T09:01:27.000Z</time>
      </trkpt>
      <trkpt lat="47.25096" lon="6.07514">
        <ele>242.837</ele>
        <time>2016-09-06T09:01:28.000Z</time>
      </trkpt>
      <trkpt lat="47.25092" lon="6.07509">
        <ele>242.263</ele>
        <time>2016-09-06T09:01:29.000Z</time>
      </trkpt>
      <trkpt lat="47.25088" lon="6.07504">
        <ele>242.387</ele>
        <time>2016-09-06T09:01:30.000Z</time>
      </trkpt>
      <trkpt lat="47.25083" lon="6.075">
        <ele>241.657</ele>
        <time>2016-09-06T09:01:31.000Z</time>
      </trkpt>
      <trkpt lat="47.2508" lon="6.07496">
        <ele>241.879</ele>
        <time>2016-09-06T09:01:32.000Z</time>
      </trkpt>
      <trkpt lat="47.25076" lon="6.07491">
        <ele>242.253</ele>
        <time>2016-09-06T09:01:33.000Z</time>
      </trkpt>
      <trkpt lat="47.25072" lon="6.07487">
        <ele>243.164</ele>
        <time>2016-09-06T09:01:34.000Z</time>
      </trkpt>
      <trkpt lat="47.25069" lon="6.07484">
        <ele>243.506</ele>
        <time>2016-09-06T09:01:35.000Z</time>
      </trkpt>
      <trkpt lat="47.25066" lon="6.07479">
        <ele>243.069</ele>
        <time>2016-09-06T09:01:36.000Z</time>
      </trkpt>
      <trkpt lat="47.25062" lon="6.07476">
        <ele>243.561</ele>
        <time>2016-09-06T09:01:37.000Z</time>
      </trkpt>
      <trkpt lat="47.25058" lon="6.07472">
        <ele>243.159</ele>
        <time>2016-09-06T09:01:38.000Z</time>
      </trkpt>
      <trkpt lat="47.25055" lon="6.07467">
        <ele>242.624</ele>
        <time>2016-09-06T09:01:39.000Z</time>
      </trkpt>
      <trkpt lat="47.25051" lon="6.07463">
        <ele>242.183</ele>
        <time>2016-09-06T09:01:40.000Z</time>
      </trkpt>
      <trkpt lat="47.25047" lon="6.07459">
        <ele>241.925</ele>
        <time>2016-09-06T09:01:41.000Z</time>
      </trkpt>
      <trkpt lat="47.25043" lon="6.07455">
        <ele>241.817</ele>
        <time>2016-09-06T09:01:42.000Z</time>
      </trkpt>
      <trkpt lat="47.25039" lon="6.07451">
        <ele>241.102</ele>
        <time>2016-09-06T09:01:43.000Z</time>
      </trkpt>
      <trkpt lat="47.25036" lon="6.07449">
        <ele>240.15</ele>
        <time>2016-09-06T09:01:44.000Z</time>
      </trkpt>
      <trkpt lat="47.25033" lon="6.07446">
        <ele>240.839</ele>
        <time>2016-09-06T09:01:45.000Z</time>
      </trkpt>
      <trkpt lat="47.25029" lon="6.07443">
        <ele>241.031</ele>
        <time>2016-09-06T09:01:46.000Z</time>
      </trkpt>
      <trkpt lat="47.25025" lon="6.0744">
        <ele>240.915</ele>
        <time>2016-09-06T09:01:47.000Z</time>
      </trkpt>
      <trkpt lat="47.25021" lon="6.07437">
        <ele>240.205</ele>
        <time>2016-09-06T09:01:48.000Z</time>
      </trkpt>
      <trkpt lat="47.25016" lon="6.07433">
        <ele>239.47</ele>
        <time>2016-09-06T09:01:49.000Z</time>
      </trkpt>
      <trkpt lat="47.25012" lon="6.07429">
        <ele>239.444</ele>
        <time>2016-09-06T09:01:50.000Z</time>
      </trkpt>
      <trkpt lat="47.25008" lon="6.07426">
        <ele>238.794</ele>
        <time>2016-09-06T09:01:51.000Z</time>
      </trkpt>
      <trkpt lat="47.25004" lon="6.07422">
        <ele>238.608</ele>
        <time>2016-09-06T09:01:52.000Z</time>
      </trkpt>
      <trkpt lat="47.25" lon="6.07419">
        <ele>238.727</ele>
        <time>2016-09-06T09:01:53.000Z</time>
      </trkpt>
      <trkpt lat="47.24996" lon="6.07416">
        <ele>236.723</ele>
        <time>2016-09-06T09:01:54.000Z</time>
      </trkpt>
      <trkpt lat="47.24993" lon="6.07412">
        <ele>235.352</ele>
        <time>2016-09-06T09:01:55.000Z</time>
      </trkpt>
      <trkpt lat="47.2499" lon="6.07408">
        <ele>234.789</ele>
        <time>2016-09-06T09:01:56.000Z</time>
      </trkpt>
      <trkpt lat="47.24986" lon="6.07405">
        <ele>235.001</ele>
        <time>2016-09-06T09:01:57.000Z</time>
      </trkpt>
      <trkpt lat="47.24983" lon="6.07402">
        <ele>234.344</ele>
        <time>2016-09-06T09:01:58.000Z</time>
      </trkpt>
      <trkpt lat="47.24979" lon="6.07398">
        <ele>234.489</ele>
        <time>2016-09-06T09:01:59.000Z</time>
      </trkpt>
      <trkpt lat="47.24975" lon="6.07396">
        <ele>235.645</ele>
        <time>2016-09-06T09:02:00.000Z</time>
      </trkpt>
      <trkpt lat="47.24971" lon="6.07393">
        <ele>236.089</ele>
        <time>2016-09-06T09:02:01.000Z</time>
      </trkpt>
      <trkpt lat="47.24967" lon="6.07389">
        <ele>236.347</ele>
        <time>2016-09-06T09:02:02.000Z</time>
      </trkpt>
      <trkpt lat="47.24962" lon="6.07385">
        <ele>236.54</ele>
        <time>2016-09-06T09:02:03.000Z</time>
      </trkpt>
      <trkpt lat="47.24959" lon="6.07383">
        <ele>235.622</ele>
        <time>2016-09-06T09:02:04.000Z</time>
      </trkpt>
      <trkpt lat="47.24955" lon="6.07379">
        <ele>235.736</ele>
        <time>2016-09-06T09:02:05.000Z</time>
      </trkpt>
      <trkpt lat="47.2495" lon="6.07377">
        <ele>234.77</ele>
        <time>2016-09-06T09:02:06.000Z</time>
      </trkpt>
      <trkpt lat="47.24946" lon="6.07374">
        <ele>236.487</ele>
        <time>2016-09-06T09:02:07.000Z</time>
      </trkpt>
      <trkpt lat="47.24942" lon="6.0737">
        <ele>236.635</ele>
        <time>2016-09-06T09:02:08.000Z</time>
      </trkpt>
      <trkpt lat="47.24938" lon="6.07366">
        <ele>237.291</ele>
        <time>2016-09-06T09:02:09.000Z</time>
      </trkpt>
      <trkpt lat="47.24934" lon="6.07363">
        <ele>236.967</ele>
        <time>2016-09-06T09:02:10.000Z</time>
      </trkpt>
      <trkpt lat="47.2493" lon="6.0736">
        <ele>237.229</ele>
        <time>2016-09-06T09:02:11.000Z</time>
      </trkpt>
      <trkpt lat="47.24927" lon="6.07357">
        <ele>237.388</ele>
        <time>2016-09-06T09:02:12.000Z</time>
      </trkpt>
      <trkpt lat="47.24923" lon="6.07354">
        <ele>237.895</ele>
        <time>2016-09-06T09:02:13.000Z</time>
      </trkpt>
      <trkpt lat="47.24919" lon="6.0735">
        <ele>237.645</ele>
        <time>2016-09-06T09:02:14.000Z</time>
      </trkpt>
      <trkpt lat="47.24916" lon="6.07348">
        <ele>238.154</ele>
        <time>2016-09-06T09:02:15.000Z</time>
      </trkpt>
      <trkpt lat="47.24911" lon="6.07345">
        <ele>237.482</ele>
        <time>2016-09-06T09:02:16.000Z</time>
      </trkpt>
      <trkpt lat="47.24908" lon="6.07343">
        <ele>237.834</ele>
        <time>2016-09-06T09:02:17.000Z</time>
      </trkpt>
      <trkpt lat="47.24905" lon="6.07339">
        <ele>237.977</ele>
        <time>2016-09-06T09:02:18.000Z</time>
      </trkpt>
      <trkpt lat="47.24901" lon="6.07336">
        <ele>238.178</ele>
        <time>2016-09-06T09:02:19.000Z</time>
      </trkpt>
      <trkpt lat="47.24898" lon="6.07333">
        <ele>238.918</ele>
        <time>2016-09-06T09:02:20.000Z</time>
      </trkpt>
      <trkpt lat="47.24894" lon="6.0733">
        <ele>239.458</ele>
        <time>2016-09-06T09:02:21.000Z</time>
      </trkpt>
      <trkpt lat="47.24891" lon="6.07327">
        <ele>239.178</ele>
        <time>2016-09-06T09:02:22.000Z</time>
      </trkpt>
      <trkpt lat="47.24887" lon="6.07324">
        <ele>239.417</ele>
        <time>2016-09-06T09:02:23.000Z</time>
      </trkpt>
      <trkpt lat="47.24883" lon="6.07321">
        <ele>238.487</ele>
        <time>2016-09-06T09:02:24.000Z</time>
      </trkpt>
      <trkpt lat="47.2488" lon="6.07318">
        <ele>238.448</ele>
        <time>2016-09-06T09:02:25.000Z</time>
      </trkpt>
      <trkpt lat="47.24876" lon="6.07314">
        <ele>237.286</ele>
        <time>2016-09-06T09:02:26.000Z</time>
      </trkpt>
      <trkpt lat="47.24872" lon="6.07311">
        <ele>237.387</ele>
        <time>2016-09-06T09:02:27.000Z</time>
      </trkpt>
      <trkpt lat="47.24869" lon="6.07307">
        <ele>237.707</ele>
        <time>2016-09-06T09:02:28.000Z</time>
      </trkpt>
      <trkpt lat="47.24865" lon="6.07304">
        <ele>236.864</ele>
        <time>2016-09-06T09:02:29.000Z</time>
      </trkpt>
      <trkpt lat="47.24861" lon="6.073">
        <ele>234.679</ele>
        <time>2016-09-06T09:02:30.000Z</time>
      </trkpt>
      <trkpt lat="47.24858" lon="6.07297">
        <ele>234.451</ele>
        <time>2016-09-06T09:02:31.000Z</time>
      </trkpt>
      <trkpt lat="47.24855" lon="6.07293">
        <ele>232.687</ele>
        <time>2016-09-06T09:02:32.000Z</time>
      </trkpt>
      <trkpt lat="47.24851" lon="6.07289">
        <ele>231.476</ele>
        <time>2016-09-06T09:02:33.000Z</time>
      </trkpt>
      <trkpt lat="47.24848" lon="6.07285">
        <ele>232.092</ele>
        <time>2016-09-06T09:02:34.000Z</time>
      </trkpt>
      <trkpt lat="47.24844" lon="6.07281">
        <ele>232.457</ele>
        <time>2016-09-06T09:02:35.000Z</time>
      </trkpt>
      <trkpt lat="47.24841" lon="6.07277">
        <ele>233.26</ele>
        <time>2016-09-06T09:02:36.000Z</time>
      </trkpt>
      <trkpt lat="47.24837" lon="6.07272">
        <ele>233.345</ele>
        <time>2016-09-06T09:02:37.000Z</time>
      </trkpt>
      <trkpt lat="47.24834" lon="6.07268">
        <ele>233.669</ele>
        <time>2016-09-06T09:02:38.000Z</time>
      </trkpt>
      <trkpt lat="47.24831" lon="6.07262">
        <ele>234.687</ele>
        <time>2016-09-06T09:02:39.000Z</time>
      </trkpt>
      <trkpt lat="47.24827" lon="6.07258">
        <ele>235.626</ele>
        <time>2016-09-06T09:02:40.000Z</time>
      </trkpt>
      <trkpt lat="47.24824" lon="6.07253">
        <ele>235.548</ele>
        <time>2016-09-06T09:02:41.000Z</time>
      </trkpt>
      <trkpt lat="47.24821" lon="6.07249">
        <ele>236.38</ele>
        <time>2016-09-06T09:02:42.000Z</time>
      </trkpt>
      <trkpt lat="47.24817" lon="6.07245">
        <ele>237.383</ele>
        <time>2016-09-06T09:02:43.000Z</time>
      </trkpt>
      <trkpt lat="47.24814" lon="6.07241">
        <ele>238.385</ele>
        <time>2016-09-06T09:02:44.000Z</time>
      </trkpt>
      <trkpt lat="47.24811" lon="6.07237">
        <ele>239.699</ele>
        <time>2016-09-06T09:02:45.000Z</time>
      </trkpt>
      <trkpt lat="47.24808" lon="6.07232">
        <ele>240.172</ele>
        <time>2016-09-06T09:02:46.000Z</time>
      </trkpt>
      <trkpt lat="47.24804" lon="6.07228">
        <ele>240.504</ele>
        <time>2016-09-06T09:02:47.000Z</time>
      </trkpt>
      <trkpt lat="47.248" lon="6.07223">
        <ele>239.916</ele>
        <time>2016-09-06T09:02:48.000Z</time>
      </trkpt>
      <trkpt lat="47.24797" lon="6.07218">
        <ele>240.445</ele>
        <time>2016-09-06T09:02:49.000Z</time>
      </trkpt>
      <trkpt lat="47.24794" lon="6.07214">
        <ele>240.816</ele>
        <time>2016-09-06T09:02:50.000Z</time>
      </trkpt>
      <trkpt lat="47.24792" lon="6.07209">
        <ele>242.296</ele>
        <time>2016-09-06T09:02:51.000Z</time>
      </trkpt>
      <trkpt lat="47.24787" lon="6.07202">
        <ele>240.35</ele>
        <time>2016-09-06T09:02:52.000Z</time>
      </trkpt>
      <trkpt lat="47.24784" lon="6.07197">
        <ele>238.93</ele>
        <time>2016-09-06T09:02:53.000Z</time>
      </trkpt>
      <trkpt lat="47.24781" lon="6.07193">
        <ele>240.283</ele>
        <time>2016-09-06T09:02:54.000Z</time>
      </trkpt>
      <trkpt lat="47.24779" lon="6.07187">
        <ele>241.095</ele>
        <time>2016-09-06T09:02:55.000Z</time>
      </trkpt>
      <trkpt lat="47.24776" lon="6.07182">
        <ele>240.927</ele>
        <time>2016-09-06T09:02:56.000Z</time>
      </trkpt>
      <trkpt lat="47.24774" lon="6.07177">
        <ele>241.48</ele>
        <time>2016-09-06T09:02:57.000Z</time>
      </trkpt>
      <trkpt lat="47.24771" lon="6.07173">
        <ele>241.421</ele>
        <time>2016-09-06T09:02:58.000Z</time>
      </trkpt>
      <trkpt lat="47.24768" lon="6.07168">
        <ele>242.567</ele>
        <time>2016-09-06T09:02:59.000Z</time>
      </trkpt>
      <trkpt lat="47.24765" lon="6.07163">
        <ele>242.448</ele>
        <time>2016-09-06T09:03:00.000Z</time>
      </trkpt>
      <trkpt lat="47.24761" lon="6.07158">
        <ele>243.343</ele>
        <time>2016-09-06T09:03:01.000Z</time>
      </trkpt>
      <trkpt lat="47.24759" lon="6.07152">
        <ele>241.829</ele>
        <time>2016-09-06T09:03:02.000Z</time>
      </trkpt>
      <trkpt lat="47.24756" lon="6.07147">
        <ele>241.526</ele>
        <time>2016-09-06T09:03:03.000Z</time>
      </trkpt>
      <trkpt lat="47.24754" lon="6.07142">
        <ele>242.009</ele>
        <time>2016-09-06T09:03:04.000Z</time>
      </trkpt>
      <trkpt lat="47.24751" lon="6.07137">
        <ele>242.026</ele>
        <time>2016-09-06T09:03:05.000Z</time>
      </trkpt>
      <trkpt lat="47.24748" lon="6.07132">
        <ele>240.967</ele>
        <time>2016-09-06T09:03:06.000Z</time>
      </trkpt>
      <trkpt lat="47.24745" lon="6.07127">
        <ele>241.053</ele>
        <time>2016-09-06T09:03:07.000Z</time>
      </trkpt>
      <trkpt lat="47.24742" lon="6.07123">
        <ele>241.446</ele>
        <time>2016-09-06T09:03:08.000Z</time>
      </trkpt>
      <trkpt lat="47.2474" lon="6.07118">
        <ele>242.583</ele>
        <time>2016-09-06T09:03:09.000Z</time>
      </trkpt>
      <trkpt lat="47.24737" lon="6.07114">
        <ele>243.287</ele>
        <time>2016-09-06T09:03:10.000Z</time>
      </trkpt>
      <trkpt lat="47.24735" lon="6.07109">
        <ele>243.278</ele>
        <time>2016-09-06T09:03:11.000Z</time>
      </trkpt>
      <trkpt lat="47.24731" lon="6.07105">
        <ele>243.848</ele>
        <time>2016-09-06T09:03:12.000Z</time>
      </trkpt>
      <trkpt lat="47.24728" lon="6.071">
        <ele>245.067</ele>
        <time>2016-09-06T09:03:13.000Z</time>
      </trkpt>
      <trkpt lat="47.24725" lon="6.07096">
        <ele>245.117</ele>
        <time>2016-09-06T09:03:14.000Z</time>
      </trkpt>
      <trkpt lat="47.24723" lon="6.07091">
        <ele>245.209</ele>
        <time>2016-09-06T09:03:15.000Z</time>
      </trkpt>
      <trkpt lat="47.2472" lon="6.07087">
        <ele>244.988</ele>
        <time>2016-09-06T09:03:16.000Z</time>
      </trkpt>
      <trkpt lat="47.24718" lon="6.07083">
        <ele>245.512</ele>
        <time>2016-09-06T09:03:17.000Z</time>
      </trkpt>
      <trkpt lat="47.24714" lon="6.07079">
        <ele>244.659</ele>
        <time>2016-09-06T09:03:18.000Z</time>
      </trkpt>
      <trkpt lat="47.24712" lon="6.07074">
        <ele>244.162</ele>
        <time>2016-09-06T09:03:19.000Z</time>
      </trkpt>
      <trkpt lat="47.24709" lon="6.07069">
        <ele>245.139</ele>
        <time>2016-09-06T09:03:20.000Z</time>
      </trkpt>
      <trkpt lat="47.24706" lon="6.07065">
        <ele>245.561</ele>
        <time>2016-09-06T09:03:21.000Z</time>
      </trkpt>
      <trkpt lat="47.24703" lon="6.0706">
        <ele>246.583</ele>
        <time>2016-09-06T09:03:22.000Z</time>
      </trkpt>
      <trkpt lat="47.247" lon="6.07055">
        <ele>246.85</ele>
        <time>2016-09-06T09:03:23.000Z</time>
      </trkpt>
      <trkpt lat="47.24697" lon="6.07051">
        <ele>246.76</ele>
        <time>2016-09-06T09:03:24.000Z</time>
      </trkpt>
      <trkpt lat="47.24696" lon="6.07047">
        <ele>245.914</ele>
        <time>2016-09-06T09:03:25.000Z</time>
      </trkpt>
      <trkpt lat="47.24694" lon="6.07042">
        <ele>245.47</ele>
        <time>2016-09-06T09:03:26.000Z</time>
      </trkpt>
      <trkpt lat="47.2469" lon="6.07037">
        <ele>245.344</ele>
        <time>2016-09-06T09:03:27.000Z</time>
      </trkpt>
      <trkpt lat="47.24687" lon="6.07032">
        <ele>245.244</ele>
        <time>2016-09-06T09:03:28.000Z</time>
      </trkpt>
      <trkpt lat="47.24684" lon="6.07028">
        <ele>245.414</ele>
        <time>2016-09-06T09:03:29.000Z</time>
      </trkpt>
      <trkpt lat="47.2468" lon="6.07024">
        <ele>246.287</ele>
        <time>2016-09-06T09:03:30.000Z</time>
      </trkpt>
      <trkpt lat="47.24677" lon="6.07018">
        <ele>245.514</ele>
        <time>2016-09-06T09:03:31.000Z</time>
      </trkpt>
      <trkpt lat="47.24673" lon="6.07014">
        <ele>244.683</ele>
        <time>2016-09-06T09:03:32.000Z</time>
      </trkpt>
      <trkpt lat="47.2467" lon="6.0701">
        <ele>245.35</ele>
        <time>2016-09-06T09:03:33.000Z</time>
      </trkpt>
      <trkpt lat="47.24666" lon="6.07006">
        <ele>245.473</ele>
        <time>2016-09-06T09:03:34.000Z</time>
      </trkpt>
      <trkpt lat="47.24663" lon="6.07002">
        <ele>245.097</ele>
        <time>2016-09-06T09:03:35.000Z</time>
      </trkpt>
      <trkpt lat="47.24661" lon="6.06998">
        <ele>245.747</ele>
        <time>2016-09-06T09:03:36.000Z</time>
      </trkpt>
      <trkpt lat="47.24657" lon="6.06993">
        <ele>245.966</ele>
        <time>2016-09-06T09:03:37.000Z</time>
      </trkpt>
      <trkpt lat="47.24654" lon="6.06989">
        <ele>246.816</ele>
        <time>2016-09-06T09:03:38.000Z</time>
      </trkpt>
      <trkpt lat="47.24652" lon="6.06985">
        <ele>247.218</ele>
        <time>2016-09-06T09:03:39.000Z</time>
      </trkpt>
      <trkpt lat="47.24648" lon="6.06981">
        <ele>246.739</ele>
        <time>2016-09-06T09:03:40.000Z</time>
      </trkpt>
      <trkpt lat="47.24645" lon="6.06977">
        <ele>247.022</ele>
        <time>2016-09-06T09:03:41.000Z</time>
      </trkpt>
      <trkpt lat="47.24642" lon="6.06972">
        <ele>246.014</ele>
        <time>2016-09-06T09:03:42.000Z</time>
      </trkpt>
      <trkpt lat="47.2464" lon="6.06968">
        <ele>246.068</ele>
        <time>2016-09-06T09:03:43.000Z</time>
      </trkpt>
      <trkpt lat="47.24637" lon="6.06963">
        <ele>246.145</ele>
        <time>2016-09-06T09:03:44.000Z</time>
      </trkpt>
      <trkpt lat="47.24633" lon="6.06959">
        <ele>245.207</ele>
        <time>2016-09-06T09:03:45.000Z</time>
      </trkpt>
      <trkpt lat="47.2463" lon="6.06954">
        <ele>244.498</ele>
        <time>2016-09-06T09:03:46.000Z</time>
      </trkpt>
      <trkpt lat="47.24627" lon="6.06949">
        <ele>244.197</ele>
        <time>2016-09-06T09:03:47.000Z</time>
      </trkpt>
      <trkpt lat="47.24624" lon="6.06945">
        <ele>244.52</ele>
        <time>2016-09-06T09:03:48.000Z</time>
      </trkpt>
      <trkpt lat="47.24621" lon="6.0694">
        <ele>244.34</ele>
        <time>2016-09-06T09:03:49.000Z</time>
      </trkpt>
      <trkpt lat="47.24618" lon="6.06936">
        <ele>244.689</ele>
        <time>2016-09-06T09:03:50.000Z</time>
      </trkpt>
      <trkpt lat="47.24614" lon="6.06932">
        <ele>245.722</ele>
        <time>2016-09-06T09:03:51.000Z</time>
      </trkpt>
      <trkpt lat="47.24611" lon="6.06927">
        <ele>245.589</ele>
        <time>2016-09-06T09:03:52.000Z</time>
      </trkpt>
      <trkpt lat="47.24608" lon="6.06923">
        <ele>245.863</ele>
        <time>2016-09-06T09:03:53.000Z</time>
      </trkpt>
      <trkpt lat="47.24604" lon="6.06919">
        <ele>246.767</ele>
        <time>2016-09-06T09:03:54.000Z</time>
      </trkpt>
      <trkpt lat="47.24601" lon="6.06915">
        <ele>245.006</ele>
        <time>2016-09-06T09:03:55.000Z</time>
      </trkpt>
      <trkpt lat="47.24598" lon="6.0691">
        <ele>244.925</ele>
        <time>2016-09-06T09:03:56.000Z</time>
      </trkpt>
      <trkpt lat="47.24594" lon="6.06906">
        <ele>243.18</ele>
        <time>2016-09-06T09:03:57.000Z</time>
      </trkpt>
      <trkpt lat="47.2459" lon="6.069">
        <ele>242.414</ele>
        <time>2016-09-06T09:03:58.000Z</time>
      </trkpt>
      <trkpt lat="47.24586" lon="6.06895">
        <ele>241.853</ele>
        <time>2016-09-06T09:03:59.000Z</time>
      </trkpt>
      <trkpt lat="47.24582" lon="6.06891">
        <ele>242.47</ele>
        <time>2016-09-06T09:04:00.000Z</time>
      </trkpt>
      <trkpt lat="47.24577" lon="6.06888">
        <ele>243.088</ele>
        <time>2016-09-06T09:04:01.000Z</time>
      </trkpt>
      <trkpt lat="47.24575" lon="6.06885">
        <ele>241.535</ele>
        <time>2016-09-06T09:04:02.000Z</time>
      </trkpt>
      <trkpt lat="47.24571" lon="6.06881">
        <ele>242.338</ele>
        <time>2016-09-06T09:04:03.000Z</time>
      </trkpt>
      <trkpt lat="47.24567" lon="6.06879">
        <ele>244.455</ele>
        <time>2016-09-06T09:04:04.000Z</time>
      </trkpt>
      <trkpt lat="47.24563" lon="6.06875">
        <ele>244.224</ele>
        <time>2016-09-06T09:04:05.000Z</time>
      </trkpt>
      <trkpt lat="47.24559" lon="6.06872">
        <ele>243.977</ele>
        <time>2016-09-06T09:04:06.000Z</time>
      </trkpt>
      <trkpt lat="47.24554" lon="6.06868">
        <ele>243.807</ele>
        <time>2016-09-06T09:04:07.000Z</time>
      </trkpt>
      <trkpt lat="47.24551" lon="6.06864">
        <ele>244.352</ele>
        <time>2016-09-06T09:04:08.000Z</time>
      </trkpt>
      <trkpt lat="47.24546" lon="6.06861">
        <ele>244.265</ele>
        <time>2016-09-06T09:04:09.000Z</time>
      </trkpt>
      <trkpt lat="47.24542" lon="6.06857">
        <ele>244.357</ele>
        <time>2016-09-06T09:04:10.000Z</time>
      </trkpt>
      <trkpt lat="47.24538" lon="6.06854">
        <ele>243.898</ele>
        <time>2016-09-06T09:04:11.000Z</time>
      </trkpt>
      <trkpt lat="47.24533" lon="6.06851">
        <ele>245.576</ele>
        <time>2016-09-06T09:04:12.000Z</time>
      </trkpt>
      <trkpt lat="47.24528" lon="6.06847">
        <ele>245.677</ele>
        <time>2016-09-06T09:04:13.000Z</time>
      </trkpt>
      <trkpt lat="47.24525" lon="6.06845">
        <ele>245.089</ele>
        <time>2016-09-06T09:04:14.000Z</time>
      </trkpt>
      <trkpt lat="47.24521" lon="6.06842">
        <ele>244.559</ele>
        <time>2016-09-06T09:04:15.000Z</time>
      </trkpt>
      <trkpt lat="47.24516" lon="6.0684">
        <ele>243.139</ele>
        <time>2016-09-06T09:04:16.000Z</time>
      </trkpt>
      <trkpt lat="47.24512" lon="6.06836">
        <ele>241.071</ele>
        <time>2016-09-06T09:04:17.000Z</time>
      </trkpt>
      <trkpt lat="47.24508" lon="6.06834">
        <ele>240.66</ele>
        <time>2016-09-06T09:04:18.000Z</time>
      </trkpt>
      <trkpt lat="47.24503" lon="6.06832">
        <ele>239.947</ele>
        <time>2016-09-06T09:04:19.000Z</time>
      </trkpt>
      <trkpt lat="47.24499" lon="6.0683">
        <ele>239.202</ele>
        <time>2016-09-06T09:04:20.000Z</time>
      </trkpt>
      <trkpt lat="47.24494" lon="6.06829">
        <ele>238.965</ele>
        <time>2016-09-06T09:04:21.000Z</time>
      </trkpt>
      <trkpt lat="47.2449" lon="6.06827">
        <ele>239.406</ele>
        <time>2016-09-06T09:04:22.000Z</time>
      </trkpt>
      <trkpt lat="47.24487" lon="6.06824">
        <ele>239.415</ele>
        <time>2016-09-06T09:04:23.000Z</time>
      </trkpt>
      <trkpt lat="47.24482" lon="6.06822">
        <ele>238.917</ele>
        <time>2016-09-06T09:04:24.000Z</time>
      </trkpt>
      <trkpt lat="47.24477" lon="6.0682">
        <ele>239.445</ele>
        <time>2016-09-06T09:04:25.000Z</time>
      </trkpt>
      <trkpt lat="47.24473" lon="6.06817">
        <ele>239.27</ele>
        <time>2016-09-06T09:04:26.000Z</time>
      </trkpt>
      <trkpt lat="47.24468" lon="6.06814">
        <ele>238.75</ele>
        <time>2016-09-06T09:04:27.000Z</time>
      </trkpt>
      <trkpt lat="47.24463" lon="6.06812">
        <ele>239.673</ele>
        <time>2016-09-06T09:04:28.000Z</time>
      </trkpt>
      <trkpt lat="47.24459" lon="6.06811">
        <ele>238.479</ele>
        <time>2016-09-06T09:04:29.000Z</time>
      </trkpt>
      <trkpt lat="47.24455" lon="6.06808">
        <ele>239.61</ele>
        <time>2016-09-06T09:04:30.000Z</time>
      </trkpt>
      <trkpt lat="47.24451" lon="6.06808">
        <ele>239.952</ele>
        <time>2016-09-06T09:04:31.000Z</time>
      </trkpt>
      <trkpt lat="47.24447" lon="6.06806">
        <ele>239.209</ele>
        <time>2016-09-06T09:04:32.000Z</time>
      </trkpt>
      <trkpt lat="47.24442" lon="6.06805">
        <ele>239.238</ele>
        <time>2016-09-06T09:04:33.000Z</time>
      </trkpt>
      <trkpt lat="47.24438" lon="6.06804">
        <ele>239.249</ele>
        <time>2016-09-06T09:04:34.000Z</time>
      </trkpt>
      <trkpt lat="47.24433" lon="6.06802">
        <ele>237.996</ele>
        <time>2016-09-06T09:04:35.000Z</time>
      </trkpt>
      <trkpt lat="47.24429" lon="6.06799">
        <ele>238.454</ele>
        <time>2016-09-06T09:04:36.000Z</time>
      </trkpt>
      <trkpt lat="47.24424" lon="6.06798">
        <ele>238.877</ele>
        <time>2016-09-06T09:04:37.000Z</time>
      </trkpt>
      <trkpt lat="47.24419" lon="6.06796">
        <ele>238.405</ele>
        <time>2016-09-06T09:04:38.000Z</time>
      </trkpt>
      <trkpt lat="47.24414" lon="6.06794">
        <ele>237.963</ele>
        <time>2016-09-06T09:04:39.000Z</time>
      </trkpt>
      <trkpt lat="47.24409" lon="6.06791">
        <ele>237.171</ele>
        <time>2016-09-06T09:04:40.000Z</time>
      </trkpt>
      <trkpt lat="47.24405" lon="6.0679">
        <ele>237.893</ele>
        <time>2016-09-06T09:04:41.000Z</time>
      </trkpt>
      <trkpt lat="47.244" lon="6.06789">
        <ele>237.111</ele>
        <time>2016-09-06T09:04:42.000Z</time>
      </trkpt>
      <trkpt lat="47.24395" lon="6.06787">
        <ele>236.15</ele>
        <time>2016-09-06T09:04:43.000Z</time>
      </trkpt>
      <trkpt lat="47.24391" lon="6.06786">
        <ele>235.906</ele>
        <time>2016-09-06T09:04:44.000Z</time>
      </trkpt>
      <trkpt lat="47.24386" lon="6.06784">
        <ele>235.911</ele>
        <time>2016-09-06T09:04:45.000Z</time>
      </trkpt>
      <trkpt lat="47.24382" lon="6.06781">
        <ele>235.953</ele>
        <time>2016-09-06T09:04:46.000Z</time>
      </trkpt>
      <trkpt lat="47.24377" lon="6.0678">
        <ele>235.306</ele>
        <time>2016-09-06T09:04:47.000Z</time>
      </trkpt>
      <trkpt lat="47.24373" lon="6.06778">
        <ele>235.388</ele>
        <time>2016-09-06T09:04:48.000Z</time>
      </trkpt>
      <trkpt lat="47.24368" lon="6.06777">
        <ele>235.417</ele>
        <time>2016-09-06T09:04:49.000Z</time>
      </trkpt>
      <trkpt lat="47.24363" lon="6.06774">
        <ele>235.577</ele>
        <time>2016-09-06T09:04:50.000Z</time>
      </trkpt>
      <trkpt lat="47.24359" lon="6.06773">
        <ele>236.786</ele>
        <time>2016-09-06T09:04:51.000Z</time>
      </trkpt>
      <trkpt lat="47.24354" lon="6.06772">
        <ele>237.404</ele>
        <time>2016-09-06T09:04:52.000Z</time>
      </trkpt>
      <trkpt lat="47.2435" lon="6.0677">
        <ele>237.685</ele>
        <time>2016-09-06T09:04:53.000Z</time>
      </trkpt>
      <trkpt lat="47.24345" lon="6.06769">
        <ele>237.702</ele>
        <time>2016-09-06T09:04:54.000Z</time>
      </trkpt>
      <trkpt lat="47.24341" lon="6.06767">
        <ele>238.811</ele>
        <time>2016-09-06T09:04:55.000Z</time>
      </trkpt>
      <trkpt lat="47.24337" lon="6.06764">
        <ele>239.258</ele>
        <time>2016-09-06T09:04:56.000Z</time>
      </trkpt>
      <trkpt lat="47.24332" lon="6.06763">
        <ele>240.059</ele>
        <time>2016-09-06T09:04:57.000Z</time>
      </trkpt>
      <trkpt lat="47.24328" lon="6.06761">
        <ele>239.434</ele>
        <time>2016-09-06T09:04:58.000Z</time>
      </trkpt>
      <trkpt lat="47.24323" lon="6.0676">
        <ele>239.355</ele>
        <time>2016-09-06T09:04:59.000Z</time>
      </trkpt>
      <trkpt lat="47.24319" lon="6.06758">
        <ele>239.251</ele>
        <time>2016-09-06T09:05:00.000Z</time>
      </trkpt>
      <trkpt lat="47.24314" lon="6.06757">
        <ele>239.4</ele>
        <time>2016-09-06T09:05:01.000Z</time>
      </trkpt>
      <trkpt lat="47.24309" lon="6.06755">
        <ele>240.561</ele>
        <time>2016-09-06T09:05:02.000Z</time>
      </trkpt>
      <trkpt lat="47.24305" lon="6.06754">
        <ele>240.259</ele>
        <time>2016-09-06T09:05:03.000Z</time>
      </trkpt>
      <trkpt lat="47.243" lon="6.06754">
        <ele>239.857</ele>
        <time>2016-09-06T09:05:04.000Z</time>
      </trkpt>
      <trkpt lat="47.24296" lon="6.06751">
        <ele>240.038</ele>
        <time>2016-09-06T09:05:05.000Z</time>
      </trkpt>
      <trkpt lat="47.24292" lon="6.06749">
        <ele>239.714</ele>
        <time>2016-09-06T09:05:06.000Z</time>
      </trkpt>
      <trkpt lat="47.24287" lon="6.06747">
        <ele>240.081</ele>
        <time>2016-09-06T09:05:07.000Z</time>
      </trkpt>
      <trkpt lat="47.24283" lon="6.06746">
        <ele>241.015</ele>
        <time>2016-09-06T09:05:08.000Z</time>
      </trkpt>
      <trkpt lat="47.24279" lon="6.06745">
        <ele>241.25</ele>
        <time>2016-09-06T09:05:09.000Z</time>
      </trkpt>
      <trkpt lat="47.24274" lon="6.06744">
        <ele>241.252</ele>
        <time>2016-09-06T09:05:10.000Z</time>
      </trkpt>
      <trkpt lat="47.2427" lon="6.06743">
        <ele>240.913</ele>
        <time>2016-09-06T09:05:11.000Z</time>
      </trkpt>
      <trkpt lat="47.24265" lon="6.0674">
        <ele>241.054</ele>
        <time>2016-09-06T09:05:12.000Z</time>
      </trkpt>
      <trkpt lat="47.24261" lon="6.06738">
        <ele>240.827</ele>
        <time>2016-09-06T09:05:13.000Z</time>
      </trkpt>
      <trkpt lat="47.24258" lon="6.06737">
        <ele>241.351</ele>
        <time>2016-09-06T09:05:14.000Z</time>
      </trkpt>
      <trkpt lat="47.24253" lon="6.06736">
        <ele>242.275</ele>
        <time>2016-09-06T09:05:15.000Z</time>
      </trkpt>
      <trkpt lat="47.24249" lon="6.06733">
        <ele>242.613</ele>
        <time>2016-09-06T09:05:16.000Z</time>
      </trkpt>
      <trkpt lat="47.24245" lon="6.0673">
        <ele>242.345</ele>
        <time>2016-09-06T09:05:17.000Z</time>
      </trkpt>
      <trkpt lat="47.24241" lon="6.06728">
        <ele>241.631</ele>
        <time>2016-09-06T09:05:18.000Z</time>
      </trkpt>
      <trkpt lat="47.24237" lon="6.06727">
        <ele>241.799</ele>
        <time>2016-09-06T09:05:19.000Z</time>
      </trkpt>
      <trkpt lat="47.24233" lon="6.06725">
        <ele>241.933</ele>
        <time>2016-09-06T09:05:20.000Z</time>
      </trkpt>
      <trkpt lat="47.24228" lon="6.06723">
        <ele>242.139</ele>
        <time>2016-09-06T09:05:21.000Z</time>
      </trkpt>
      <trkpt lat="47.24224" lon="6.06721">
        <ele>241.609</ele>
        <time>2016-09-06T09:05:22.000Z</time>
      </trkpt>
      <trkpt lat="47.2422" lon="6.06719">
        <ele>241.591</ele>
        <time>2016-09-06T09:05:23.000Z</time>
      </trkpt>
      <trkpt lat="47.24216" lon="6.06716">
        <ele>241.972</ele>
        <time>2016-09-06T09:05:24.000Z</time>
      </trkpt>
      <trkpt lat="47.24212" lon="6.06713">
        <ele>242.682</ele>
        <time>2016-09-06T09:05:25.000Z</time>
      </trkpt>
      <trkpt lat="47.24209" lon="6.06711">
        <ele>242.308</ele>
        <time>2016-09-06T09:05:26.000Z</time>
      </trkpt>
      <trkpt lat="47.24204" lon="6.06708">
        <ele>241.956</ele>
        <time>2016-09-06T09:05:27.000Z</time>
      </trkpt>
      <trkpt lat="47.24199" lon="6.06705">
        <ele>241.65</ele>
        <time>2016-09-06T09:05:28.000Z</time>
      </trkpt>
      <trkpt lat="47.24195" lon="6.06702">
        <ele>241.849</ele>
        <time>2016-09-06T09:05:29.000Z</time>
      </trkpt>
      <trkpt lat="47.24191" lon="6.067">
        <ele>242.736</ele>
        <time>2016-09-06T09:05:30.000Z</time>
      </trkpt>
      <trkpt lat="47.24187" lon="6.06698">
        <ele>242.8</ele>
        <time>2016-09-06T09:05:31.000Z</time>
      </trkpt>
      <trkpt lat="47.24183" lon="6.06696">
        <ele>242.46</ele>
        <time>2016-09-06T09:05:32.000Z</time>
      </trkpt>
      <trkpt lat="47.24179" lon="6.06693">
        <ele>243.745</ele>
        <time>2016-09-06T09:05:33.000Z</time>
      </trkpt>
      <trkpt lat="47.24175" lon="6.0669">
        <ele>243.036</ele>
        <time>2016-09-06T09:05:34.000Z</time>
      </trkpt>
      <trkpt lat="47.24171" lon="6.06687">
        <ele>243.852</ele>
        <time>2016-09-06T09:05:35.000Z</time>
      </trkpt>
      <trkpt lat="47.24167" lon="6.06682">
        <ele>242.598</ele>
        <time>2016-09-06T09:05:36.000Z</time>
      </trkpt>
      <trkpt lat="47.24164" lon="6.06678">
        <ele>243.145</ele>
        <time>2016-09-06T09:05:37.000Z</time>
      </trkpt>
      <trkpt lat="47.24159" lon="6.06675">
        <ele>243.797</ele>
        <time>2016-09-06T09:05:38.000Z</time>
      </trkpt>
      <trkpt lat="47.24155" lon="6.06671">
        <ele>244.232</ele>
        <time>2016-09-06T09:05:39.000Z</time>
      </trkpt>
      <trkpt lat="47.24151" lon="6.06666">
        <ele>244.519</ele>
        <time>2016-09-06T09:05:40.000Z</time>
      </trkpt>
      <trkpt lat="47.24147" lon="6.06662">
        <ele>244.657</ele>
        <time>2016-09-06T09:05:41.000Z</time>
      </trkpt>
      <trkpt lat="47.24143" lon="6.06658">
        <ele>244.6</ele>
        <time>2016-09-06T09:05:42.000Z</time>
      </trkpt>
      <trkpt lat="47.24137" lon="6.06654">
        <ele>244.169</ele>
        <time>2016-09-06T09:05:43.000Z</time>
      </trkpt>
      <trkpt lat="47.24134" lon="6.0665">
        <ele>244.942</ele>
        <time>2016-09-06T09:05:44.000Z</time>
      </trkpt>
      <trkpt lat="47.24131" lon="6.06645">
        <ele>245.032</ele>
        <time>2016-09-06T09:05:45.000Z</time>
      </trkpt>
      <trkpt lat="47.24128" lon="6.06641">
        <ele>244.442</ele>
        <time>2016-09-06T09:05:46.000Z</time>
      </trkpt>
      <trkpt lat="47.24123" lon="6.06637">
        <ele>244.761</ele>
        <time>2016-09-06T09:05:47.000Z</time>
      </trkpt>
      <trkpt lat="47.2412" lon="6.06632">
        <ele>245.227</ele>
        <time>2016-09-06T09:05:48.000Z</time>
      </trkpt>
      <trkpt lat="47.24117" lon="6.06629">
        <ele>245.427</ele>
        <time>2016-09-06T09:05:49.000Z</time>
      </trkpt>
      <trkpt lat="47.24113" lon="6.06625">
        <ele>245.262</ele>
        <time>2016-09-06T09:05:50.000Z</time>
      </trkpt>
      <trkpt lat="47.24108" lon="6.0662">
        <ele>244.652</ele>
        <time>2016-09-06T09:05:51.000Z</time>
      </trkpt>
      <trkpt lat="47.24105" lon="6.06616">
        <ele>244.806</ele>
        <time>2016-09-06T09:05:52.000Z</time>
      </trkpt>
      <trkpt lat="47.24102" lon="6.06611">
        <ele>244.982</ele>
        <time>2016-09-06T09:05:53.000Z</time>
      </trkpt>
      <trkpt lat="47.24098" lon="6.06606">
        <ele>244.768</ele>
        <time>2016-09-06T09:05:54.000Z</time>
      </trkpt>
      <trkpt lat="47.24094" lon="6.06602">
        <ele>244.106</ele>
        <time>2016-09-06T09:05:55.000Z</time>
      </trkpt>
      <trkpt lat="47.24091" lon="6.06597">
        <ele>244.111</ele>
        <time>2016-09-06T09:05:56.000Z</time>
      </trkpt>
      <trkpt lat="47.24087" lon="6.06593">
        <ele>244.595</ele>
        <time>2016-09-06T09:05:57.000Z</time>
      </trkpt>
      <trkpt lat="47.24083" lon="6.06589">
        <ele>244.727</ele>
        <time>2016-09-06T09:05:58.000Z</time>
      </trkpt>
      <trkpt lat="47.24079" lon="6.06585">
        <ele>245.394</ele>
        <time>2016-09-06T09:05:59.000Z</time>
      </trkpt>
      <trkpt lat="47.24076" lon="6.0658">
        <ele>245.86</ele>
        <time>2016-09-06T09:06:00.000Z</time>
      </trkpt>
      <trkpt lat="47.24072" lon="6.06575">
        <ele>246.549</ele>
        <time>2016-09-06T09:06:01.000Z</time>
      </trkpt>
      <trkpt lat="47.24069" lon="6.0657">
        <ele>246.499</ele>
        <time>2016-09-06T09:06:02.000Z</time>
      </trkpt>
      <trkpt lat="47.24066" lon="6.06566">
        <ele>246.723</ele>
        <time>2016-09-06T09:06:03.000Z</time>
      </trkpt>
      <trkpt lat="47.24062" lon="6.06562">
        <ele>246.462</ele>
        <time>2016-09-06T09:06:04.000Z</time>
      </trkpt>
      <trkpt lat="47.24058" lon="6.06557">
        <ele>247.435</ele>
        <time>2016-09-06T09:06:05.000Z</time>
      </trkpt>
      <trkpt lat="47.24055" lon="6.06552">
        <ele>247.676</ele>
        <time>2016-09-06T09:06:06.000Z</time>
      </trkpt>
      <trkpt lat="47.2405" lon="6.06547">
        <ele>247.678</ele>
        <time>2016-09-06T09:06:07.000Z</time>
      </trkpt>
      <trkpt lat="47.24045" lon="6.06543">
        <ele>246.738</ele>
        <time>2016-09-06T09:06:08.000Z</time>
      </trkpt>
      <trkpt lat="47.24042" lon="6.06539">
        <ele>245.866</ele>
        <time>2016-09-06T09:06:09.000Z</time>
      </trkpt>
      <trkpt lat="47.24038" lon="6.06535">
        <ele>244.731</ele>
        <time>2016-09-06T09:06:10.000Z</time>
      </trkpt>
      <trkpt lat="47.24035" lon="6.06532">
        <ele>243.668</ele>
        <time>2016-09-06T09:06:11.000Z</time>
      </trkpt>
      <trkpt lat="47.24031" lon="6.06528">
        <ele>244.391</ele>
        <time>2016-09-06T09:06:12.003Z</time>
      </trkpt>
      <trkpt lat="47.24028" lon="6.06524">
        <ele>243.406</ele>
        <time>2016-09-06T09:06:13.000Z</time>
      </trkpt>
      <trkpt lat="47.24024" lon="6.0652">
        <ele>243.596</ele>
        <time>2016-09-06T09:06:14.000Z</time>
      </trkpt>
      <trkpt lat="47.24019" lon="6.06516">
        <ele>243.524</ele>
        <time>2016-09-06T09:06:15.001Z</time>
      </trkpt>
      <trkpt lat="47.24016" lon="6.06513">
        <ele>242.241</ele>
        <time>2016-09-06T09:06:16.000Z</time>
      </trkpt>
      <trkpt lat="47.24012" lon="6.06509">
        <ele>242.307</ele>
        <time>2016-09-06T09:06:17.000Z</time>
      </trkpt>
      <trkpt lat="47.24008" lon="6.06506">
        <ele>243.258</ele>
        <time>2016-09-06T09:06:18.000Z</time>
      </trkpt>
      <trkpt lat="47.24004" lon="6.06502">
        <ele>243.906</ele>
        <time>2016-09-06T09:06:19.000Z</time>
      </trkpt>
      <trkpt lat="47.24" lon="6.06499">
        <ele>242.66</ele>
        <time>2016-09-06T09:06:20.000Z</time>
      </trkpt>
      <trkpt lat="47.23997" lon="6.06495">
        <ele>243.351</ele>
        <time>2016-09-06T09:06:21.000Z</time>
      </trkpt>
      <trkpt lat="47.23994" lon="6.06491">
        <ele>241.557</ele>
        <time>2016-09-06T09:06:22.000Z</time>
      </trkpt>
      <trkpt lat="47.23991" lon="6.06486">
        <ele>242.016</ele>
        <time>2016-09-06T09:06:23.000Z</time>
      </trkpt>
      <trkpt lat="47.23987" lon="6.06482">
        <ele>242.271</ele>
        <time>2016-09-06T09:06:24.000Z</time>
      </trkpt>
      <trkpt lat="47.23983" lon="6.06478">
        <ele>243.089</ele>
        <time>2016-09-06T09:06:25.000Z</time>
      </trkpt>
      <trkpt lat="47.23981" lon="6.06474">
        <ele>242.634</ele>
        <time>2016-09-06T09:06:26.000Z</time>
      </trkpt>
      <trkpt lat="47.23977" lon="6.06469">
        <ele>242.964</ele>
        <time>2016-09-06T09:06:27.000Z</time>
      </trkpt>
      <trkpt lat="47.23973" lon="6.06466">
        <ele>244.064</ele>
        <time>2016-09-06T09:06:28.000Z</time>
      </trkpt>
      <trkpt lat="47.2397" lon="6.06462">
        <ele>245.088</ele>
        <time>2016-09-06T09:06:29.000Z</time>
      </trkpt>
      <trkpt lat="47.23965" lon="6.06457">
        <ele>245.136</ele>
        <time>2016-09-06T09:06:30.000Z</time>
      </trkpt>
      <trkpt lat="47.23961" lon="6.06451">
        <ele>245.186</ele>
        <time>2016-09-06T09:06:31.000Z</time>
      </trkpt>
      <trkpt lat="47.23958" lon="6.06446">
        <ele>244.611</ele>
        <time>2016-09-06T09:06:32.000Z</time>
      </trkpt>
      <trkpt lat="47.23955" lon="6.06441">
        <ele>244.861</ele>
        <time>2016-09-06T09:06:33.000Z</time>
      </trkpt>
      <trkpt lat="47.23953" lon="6.06436">
        <ele>245.019</ele>
        <time>2016-09-06T09:06:34.000Z</time>
      </trkpt>
      <trkpt lat="47.2395" lon="6.06431">
        <ele>245.111</ele>
        <time>2016-09-06T09:06:35.000Z</time>
      </trkpt>
      <trkpt lat="47.23946" lon="6.06426">
        <ele>245.078</ele>
        <time>2016-09-06T09:06:36.000Z</time>
      </trkpt>
      <trkpt lat="47.23942" lon="6.06422">
        <ele>245.507</ele>
        <time>2016-09-06T09:06:37.000Z</time>
      </trkpt>
      <trkpt lat="47.23939" lon="6.06418">
        <ele>246.288</ele>
        <time>2016-09-06T09:06:38.000Z</time>
      </trkpt>
      <trkpt lat="47.23937" lon="6.06413">
        <ele>245.246</ele>
        <time>2016-09-06T09:06:39.000Z</time>
      </trkpt>
      <trkpt lat="47.23934" lon="6.06408">
        <ele>246.085</ele>
        <time>2016-09-06T09:06:40.000Z</time>
      </trkpt>
      <trkpt lat="47.2393" lon="6.06403">
        <ele>246.202</ele>
        <time>2016-09-06T09:06:41.000Z</time>
      </trkpt>
      <trkpt lat="47.23927" lon="6.06399">
        <ele>247.023</ele>
        <time>2016-09-06T09:06:42.000Z</time>
      </trkpt>
      <trkpt lat="47.23924" lon="6.06395">
        <ele>246.275</ele>
        <time>2016-09-06T09:06:43.000Z</time>
      </trkpt>
      <trkpt lat="47.23921" lon="6.06391">
        <ele>246.914</ele>
        <time>2016-09-06T09:06:44.000Z</time>
      </trkpt>
      <trkpt lat="47.23917" lon="6.06386">
        <ele>246.36</ele>
        <time>2016-09-06T09:06:45.000Z</time>
      </trkpt>
      <trkpt lat="47.23914" lon="6.06381">
        <ele>246.661</ele>
        <time>2016-09-06T09:06:46.000Z</time>
      </trkpt>
      <trkpt lat="47.2391" lon="6.06376">
        <ele>247.307</ele>
        <time>2016-09-06T09:06:47.000Z</time>
      </trkpt>
      <trkpt lat="47.23908" lon="6.06372">
        <ele>247.237</ele>
        <time>2016-09-06T09:06:48.000Z</time>
      </trkpt>
      <trkpt lat="47.23903" lon="6.06368">
        <ele>247.05</ele>
        <time>2016-09-06T09:06:49.000Z</time>
      </trkpt>
      <trkpt lat="47.23899" lon="6.06363">
        <ele>246.58</ele>
        <time>2016-09-06T09:06:50.000Z</time>
      </trkpt>
      <trkpt lat="47.23897" lon="6.06359">
        <ele>246.023</ele>
        <time>2016-09-06T09:06:51.000Z</time>
      </trkpt>
      <trkpt lat="47.23894" lon="6.06354">
        <ele>246.74</ele>
        <time>2016-09-06T09:06:52.000Z</time>
      </trkpt>
      <trkpt lat="47.2389" lon="6.0635">
        <ele>247.041</ele>
        <time>2016-09-06T09:06:53.000Z</time>
      </trkpt>
      <trkpt lat="47.23886" lon="6.06346">
        <ele>247.079</ele>
        <time>2016-09-06T09:06:54.000Z</time>
      </trkpt>
      <trkpt lat="47.23882" lon="6.06341">
        <ele>246.514</ele>
        <time>2016-09-06T09:06:55.000Z</time>
      </trkpt>
      <trkpt lat="47.23879" lon="6.06337">
        <ele>246.305</ele>
        <time>2016-09-06T09:06:56.000Z</time>
      </trkpt>
      <trkpt lat="47.23875" lon="6.06333">
        <ele>246.764</ele>
        <time>2016-09-06T09:06:57.000Z</time>
      </trkpt>
      <trkpt lat="47.23872" lon="6.06329">
        <ele>246.011</ele>
        <time>2016-09-06T09:06:58.000Z</time>
      </trkpt>
      <trkpt lat="47.23868" lon="6.06324">
        <ele>246.198</ele>
        <time>2016-09-06T09:06:59.000Z</time>
      </trkpt>
      <trkpt lat="47.23866" lon="6.06321">
        <ele>245.915</ele>
        <time>2016-09-06T09:07:00.000Z</time>
      </trkpt>
      <trkpt lat="47.23863" lon="6.06316">
        <ele>246.93</ele>
        <time>2016-09-06T09:07:01.000Z</time>
      </trkpt>
      <trkpt lat="47.2386" lon="6.06312">
        <ele>247.783</ele>
        <time>2016-09-06T09:07:02.000Z</time>
      </trkpt>
      <trkpt lat="47.23856" lon="6.06308">
        <ele>248.768</ele>
        <time>2016-09-06T09:07:03.000Z</time>
      </trkpt>
      <trkpt lat="47.23852" lon="6.06304">
        <ele>248.919</ele>
        <time>2016-09-06T09:07:04.000Z</time>
      </trkpt>
      <trkpt lat="47.23848" lon="6.06299">
        <ele>249.012</ele>
        <time>2016-09-06T09:07:05.000Z</time>
      </trkpt>
      <trkpt lat="47.23844" lon="6.06295">
        <ele>249.279</ele>
        <time>2016-09-06T09:07:06.000Z</time>
      </trkpt>
      <trkpt lat="47.23841" lon="6.06291">
        <ele>249.811</ele>
        <time>2016-09-06T09:07:07.000Z</time>
      </trkpt>
      <trkpt lat="47.23837" lon="6.06287">
        <ele>249.403</ele>
        <time>2016-09-06T09:07:08.000Z</time>
      </trkpt>
      <trkpt lat="47.23835" lon="6.06282">
        <ele>247.823</ele>
        <time>2016-09-06T09:07:09.000Z</time>
      </trkpt>
      <trkpt lat="47.23833" lon="6.06279">
        <ele>247.325</ele>
        <time>2016-09-06T09:07:10.000Z</time>
      </trkpt>
      <trkpt lat="47.2383" lon="6.06275">
        <ele>247.801</ele>
        <time>2016-09-06T09:07:11.000Z</time>
      </trkpt>
      <trkpt lat="47.23825" lon="6.06271">
        <ele>246.639</ele>
        <time>2016-09-06T09:07:12.000Z</time>
      </trkpt>
      <trkpt lat="47.2382" lon="6.06267">
        <ele>245.67</ele>
        <time>2016-09-06T09:07:13.000Z</time>
      </trkpt>
      <trkpt lat="47.23817" lon="6.06262">
        <ele>245.464</ele>
        <time>2016-09-06T09:07:14.000Z</time>
      </trkpt>
      <trkpt lat="47.23812" lon="6.06258">
        <ele>244.937</ele>
        <time>2016-09-06T09:07:15.000Z</time>
      </trkpt>
      <trkpt lat="47.23807" lon="6.06253">
        <ele>244.622</ele>
        <time>2016-09-06T09:07:16.000Z</time>
      </trkpt>
      <trkpt lat="47.23802" lon="6.06248">
        <ele>243.459</ele>
        <time>2016-09-06T09:07:17.000Z</time>
      </trkpt>
      <trkpt lat="47.23798" lon="6.06244">
        <ele>243.152</ele>
        <time>2016-09-06T09:07:18.000Z</time>
      </trkpt>
      <trkpt lat="47.23795" lon="6.06241">
        <ele>241.633</ele>
        <time>2016-09-06T09:07:19.000Z</time>
      </trkpt>
      <trkpt lat="47.2379" lon="6.06238">
        <ele>242.984</ele>
        <time>2016-09-06T09:07:20.000Z</time>
      </trkpt>
      <trkpt lat="47.23786" lon="6.06235">
        <ele>241.784</ele>
        <time>2016-09-06T09:07:21.000Z</time>
      </trkpt>
      <trkpt lat="47.23781" lon="6.06231">
        <ele>241.943</ele>
        <time>2016-09-06T09:07:22.000Z</time>
      </trkpt>
      <trkpt lat="47.23777" lon="6.06228">
        <ele>242.322</ele>
        <time>2016-09-06T09:07:23.000Z</time>
      </trkpt>
      <trkpt lat="47.23772" lon="6.06224">
        <ele>241.912</ele>
        <time>2016-09-06T09:07:24.000Z</time>
      </trkpt>
      <trkpt lat="47.23767" lon="6.06222">
        <ele>241.619</ele>
        <time>2016-09-06T09:07:25.000Z</time>
      </trkpt>
      <trkpt lat="47.23763" lon="6.06219">
        <ele>241.084</ele>
        <time>2016-09-06T09:07:26.000Z</time>
      </trkpt>
      <trkpt lat="47.23759" lon="6.06216">
        <ele>240.976</ele>
        <time>2016-09-06T09:07:27.000Z</time>
      </trkpt>
      <trkpt lat="47.23755" lon="6.06213">
        <ele>240.919</ele>
        <time>2016-09-06T09:07:28.000Z</time>
      </trkpt>
      <trkpt lat="47.2375" lon="6.0621">
        <ele>242.02</ele>
        <time>2016-09-06T09:07:29.000Z</time>
      </trkpt>
      <trkpt lat="47.23746" lon="6.06206">
        <ele>242.67</ele>
        <time>2016-09-06T09:07:30.000Z</time>
      </trkpt>
      <trkpt lat="47.23741" lon="6.06202">
        <ele>242.626</ele>
        <time>2016-09-06T09:07:31.000Z</time>
      </trkpt>
      <trkpt lat="47.23736" lon="6.062">
        <ele>242.653</ele>
        <time>2016-09-06T09:07:32.000Z</time>
      </trkpt>
      <trkpt lat="47.23731" lon="6.06197">
        <ele>241.511</ele>
        <time>2016-09-06T09:07:33.000Z</time>
      </trkpt>
      <trkpt lat="47.23726" lon="6.06194">
        <ele>241.105</ele>
        <time>2016-09-06T09:07:34.000Z</time>
      </trkpt>
      <trkpt lat="47.23722" lon="6.06191">
        <ele>241.427</ele>
        <time>2016-09-06T09:07:35.000Z</time>
      </trkpt>
      <trkpt lat="47.23718" lon="6.06187">
        <ele>239.827</ele>
        <time>2016-09-06T09:07:36.000Z</time>
      </trkpt>
      <trkpt lat="47.23713" lon="6.06185">
        <ele>239.866</ele>
        <time>2016-09-06T09:07:37.000Z</time>
      </trkpt>
      <trkpt lat="47.23709" lon="6.06182">
        <ele>240.211</ele>
        <time>2016-09-06T09:07:38.000Z</time>
      </trkpt>
      <trkpt lat="47.23705" lon="6.0618">
        <ele>240.184</ele>
        <time>2016-09-06T09:07:39.000Z</time>
      </trkpt>
      <trkpt lat="47.237" lon="6.06177">
        <ele>239.977</ele>
        <time>2016-09-06T09:07:40.000Z</time>
      </trkpt>
      <trkpt lat="47.23696" lon="6.06175">
        <ele>240.129</ele>
        <time>2016-09-06T09:07:41.000Z</time>
      </trkpt>
      <trkpt lat="47.23691" lon="6.06173">
        <ele>240.446</ele>
        <time>2016-09-06T09:07:42.000Z</time>
      </trkpt>
      <trkpt lat="47.23686" lon="6.06171">
        <ele>240.671</ele>
        <time>2016-09-06T09:07:43.000Z</time>
      </trkpt>
      <trkpt lat="47.23681" lon="6.06168">
        <ele>240.905</ele>
        <time>2016-09-06T09:07:44.000Z</time>
      </trkpt>
      <trkpt lat="47.23675" lon="6.06164">
        <ele>240.153</ele>
        <time>2016-09-06T09:07:45.000Z</time>
      </trkpt>
      <trkpt lat="47.2367" lon="6.06162">
        <ele>240.888</ele>
        <time>2016-09-06T09:07:46.000Z</time>
      </trkpt>
      <trkpt lat="47.23665" lon="6.0616">
        <ele>240.296</ele>
        <time>2016-09-06T09:07:47.000Z</time>
      </trkpt>
      <trkpt lat="47.2366" lon="6.06158">
        <ele>239.902</ele>
        <time>2016-09-06T09:07:48.000Z</time>
      </trkpt>
      <trkpt lat="47.23655" lon="6.06156">
        <ele>239.552</ele>
        <time>2016-09-06T09:07:49.000Z</time>
      </trkpt>
      <trkpt lat="47.2365" lon="6.06154">
        <ele>240.302</ele>
        <time>2016-09-06T09:07:50.000Z</time>
      </trkpt>
      <trkpt lat="47.23646" lon="6.06154">
        <ele>239.522</ele>
        <time>2016-09-06T09:07:51.000Z</time>
      </trkpt>
      <trkpt lat="47.23641" lon="6.06153">
        <ele>240.289</ele>
        <time>2016-09-06T09:07:52.000Z</time>
      </trkpt>
      <trkpt lat="47.23636" lon="6.06151">
        <ele>239.952</ele>
        <time>2016-09-06T09:07:53.000Z</time>
      </trkpt>
      <trkpt lat="47.23632" lon="6.06149">
        <ele>239.147</ele>
        <time>2016-09-06T09:07:54.000Z</time>
      </trkpt>
      <trkpt lat="47.23627" lon="6.06147">
        <ele>239.441</ele>
        <time>2016-09-06T09:07:55.000Z</time>
      </trkpt>
      <trkpt lat="47.23623" lon="6.06146">
        <ele>239.609</ele>
        <time>2016-09-06T09:07:56.000Z</time>
      </trkpt>
      <trkpt lat="47.23618" lon="6.06145">
        <ele>239.686</ele>
        <time>2016-09-06T09:07:57.000Z</time>
      </trkpt>
      <trkpt lat="47.23614" lon="6.06144">
        <ele>239.516</ele>
        <time>2016-09-06T09:07:58.000Z</time>
      </trkpt>
      <trkpt lat="47.23609" lon="6.06143">
        <ele>239.187</ele>
        <time>2016-09-06T09:07:59.000Z</time>
      </trkpt>
      <trkpt lat="47.23604" lon="6.0614">
        <ele>238.843</ele>
        <time>2016-09-06T09:08:00.000Z</time>
      </trkpt>
      <trkpt lat="47.23599" lon="6.06139">
        <ele>239.757</ele>
        <time>2016-09-06T09:08:01.000Z</time>
      </trkpt>
      <trkpt lat="47.23594" lon="6.06139">
        <ele>240.302</ele>
        <time>2016-09-06T09:08:02.000Z</time>
      </trkpt>
      <trkpt lat="47.2359" lon="6.06137">
        <ele>240.288</ele>
        <time>2016-09-06T09:08:03.000Z</time>
      </trkpt>
      <trkpt lat="47.23585" lon="6.06135">
        <ele>239.737</ele>
        <time>2016-09-06T09:08:04.000Z</time>
      </trkpt>
      <trkpt lat="47.23581" lon="6.06134">
        <ele>239.826</ele>
        <time>2016-09-06T09:08:05.000Z</time>
      </trkpt>
      <trkpt lat="47.23576" lon="6.06132">
        <ele>239.71</ele>
        <time>2016-09-06T09:08:06.000Z</time>
      </trkpt>
      <trkpt lat="47.23572" lon="6.06131">
        <ele>239.475</ele>
        <time>2016-09-06T09:08:07.000Z</time>
      </trkpt>
      <trkpt lat="47.23568" lon="6.0613">
        <ele>239.135</ele>
        <time>2016-09-06T09:08:08.000Z</time>
      </trkpt>
      <trkpt lat="47.23564" lon="6.06129">
        <ele>238.527</ele>
        <time>2016-09-06T09:08:09.000Z</time>
      </trkpt>
      <trkpt lat="47.2356" lon="6.06127">
        <ele>238.683</ele>
        <time>2016-09-06T09:08:10.000Z</time>
      </trkpt>
      <trkpt lat="47.23556" lon="6.06126">
        <ele>239.108</ele>
        <time>2016-09-06T09:08:11.000Z</time>
      </trkpt>
      <trkpt lat="47.23552" lon="6.06125">
        <ele>239.805</ele>
        <time>2016-09-06T09:08:12.000Z</time>
      </trkpt>
      <trkpt lat="47.23548" lon="6.06124">
        <ele>240.127</ele>
        <time>2016-09-06T09:08:13.000Z</time>
      </trkpt>
      <trkpt lat="47.23543" lon="6.06122">
        <ele>239.973</ele>
        <time>2016-09-06T09:08:14.000Z</time>
      </trkpt>
      <trkpt lat="47.23539" lon="6.06121">
        <ele>239.763</ele>
        <time>2016-09-06T09:08:15.000Z</time>
      </trkpt>
      <trkpt lat="47.23535" lon="6.06121">
        <ele>240.237</ele>
        <time>2016-09-06T09:08:16.000Z</time>
      </trkpt>
      <trkpt lat="47.23531" lon="6.0612">
        <ele>239.42</ele>
        <time>2016-09-06T09:08:17.000Z</time>
      </trkpt>
      <trkpt lat="47.23528" lon="6.06119">
        <ele>238.998</ele>
        <time>2016-09-06T09:08:18.000Z</time>
      </trkpt>
      <trkpt lat="47.23524" lon="6.06118">
        <ele>239.298</ele>
        <time>2016-09-06T09:08:19.000Z</time>
      </trkpt>
      <trkpt lat="47.2352" lon="6.06117">
        <ele>238.893</ele>
        <time>2016-09-06T09:08:20.000Z</time>
      </trkpt>
      <trkpt lat="47.23516" lon="6.06117">
        <ele>238.644</ele>
        <time>2016-09-06T09:08:21.000Z</time>
      </trkpt>
      <trkpt lat="47.23512" lon="6.06116">
        <ele>239.182</ele>
        <time>2016-09-06T09:08:22.000Z</time>
      </trkpt>
      <trkpt lat="47.23508" lon="6.06115">
        <ele>238.948</ele>
        <time>2016-09-06T09:08:23.000Z</time>
      </trkpt>
      <trkpt lat="47.23504" lon="6.06114">
        <ele>240.378</ele>
        <time>2016-09-06T09:08:24.000Z</time>
      </trkpt>
      <trkpt lat="47.23499" lon="6.06114">
        <ele>241.05</ele>
        <time>2016-09-06T09:08:25.000Z</time>
      </trkpt>
      <trkpt lat="47.23495" lon="6.06113">
        <ele>240.873</ele>
        <time>2016-09-06T09:08:26.000Z</time>
      </trkpt>
      <trkpt lat="47.23489" lon="6.06112">
        <ele>240.697</ele>
        <time>2016-09-06T09:08:27.000Z</time>
      </trkpt>
      <trkpt lat="47.23485" lon="6.06111">
        <ele>240.62</ele>
        <time>2016-09-06T09:08:28.000Z</time>
      </trkpt>
      <trkpt lat="47.2348" lon="6.06109">
        <ele>239.94</ele>
        <time>2016-09-06T09:08:29.000Z</time>
      </trkpt>
      <trkpt lat="47.23475" lon="6.06108">
        <ele>240.549</ele>
        <time>2016-09-06T09:08:30.000Z</time>
      </trkpt>
      <trkpt lat="47.23472" lon="6.06108">
        <ele>242.086</ele>
        <time>2016-09-06T09:08:31.000Z</time>
      </trkpt>
      <trkpt lat="47.23467" lon="6.06106">
        <ele>241.336</ele>
        <time>2016-09-06T09:08:32.000Z</time>
      </trkpt>
      <trkpt lat="47.23463" lon="6.06105">
        <ele>242.317</ele>
        <time>2016-09-06T09:08:33.000Z</time>
      </trkpt>
      <trkpt lat="47.23458" lon="6.06104">
        <ele>241.708</ele>
        <time>2016-09-06T09:08:34.000Z</time>
      </trkpt>
      <trkpt lat="47.23454" lon="6.06103">
        <ele>242.084</ele>
        <time>2016-09-06T09:08:35.000Z</time>
      </trkpt>
      <trkpt lat="47.23449" lon="6.06102">
        <ele>242.577</ele>
        <time>2016-09-06T09:08:36.000Z</time>
      </trkpt>
      <trkpt lat="47.23444" lon="6.061">
        <ele>242.258</ele>
        <time>2016-09-06T09:08:37.000Z</time>
      </trkpt>
      <trkpt lat="47.2344" lon="6.06099">
        <ele>242.199</ele>
        <time>2016-09-06T09:08:38.000Z</time>
      </trkpt>
      <trkpt lat="47.23435" lon="6.06098">
        <ele>242.147</ele>
        <time>2016-09-06T09:08:39.000Z</time>
      </trkpt>
      <trkpt lat="47.2343" lon="6.06097">
        <ele>242.341</ele>
        <time>2016-09-06T09:08:40.000Z</time>
      </trkpt>
      <trkpt lat="47.23427" lon="6.06096">
        <ele>242.672</ele>
        <time>2016-09-06T09:08:41.000Z</time>
      </trkpt>
      <trkpt lat="47.23422" lon="6.06095">
        <ele>243.423</ele>
        <time>2016-09-06T09:08:42.000Z</time>
      </trkpt>
      <trkpt lat="47.23417" lon="6.06094">
        <ele>242.572</ele>
        <time>2016-09-06T09:08:43.000Z</time>
      </trkpt>
      <trkpt lat="47.23413" lon="6.06093">
        <ele>242.081</ele>
        <time>2016-09-06T09:08:44.000Z</time>
      </trkpt>
      <trkpt lat="47.23409" lon="6.06092">
        <ele>242.803</ele>
        <time>2016-09-06T09:08:45.000Z</time>
      </trkpt>
      <trkpt lat="47.23404" lon="6.0609">
        <ele>242.533</ele>
        <time>2016-09-06T09:08:46.000Z</time>
      </trkpt>
      <trkpt lat="47.23399" lon="6.06089">
        <ele>243.175</ele>
        <time>2016-09-06T09:08:47.000Z</time>
      </trkpt>
      <trkpt lat="47.23395" lon="6.06088">
        <ele>244.107</ele>
        <time>2016-09-06T09:08:48.000Z</time>
      </trkpt>
      <trkpt lat="47.2339" lon="6.06086">
        <ele>244.118</ele>
        <time>2016-09-06T09:08:49.000Z</time>
      </trkpt>
      <trkpt lat="47.23386" lon="6.06085">
        <ele>243.989</ele>
        <time>2016-09-06T09:08:50.000Z</time>
      </trkpt>
      <trkpt lat="47.23381" lon="6.06083">
        <ele>243.43</ele>
        <time>2016-09-06T09:08:51.000Z</time>
      </trkpt>
      <trkpt lat="47.23377" lon="6.06081">
        <ele>243.774</ele>
        <time>2016-09-06T09:08:52.000Z</time>
      </trkpt>
      <trkpt lat="47.23373" lon="6.0608">
        <ele>243.427</ele>
        <time>2016-09-06T09:08:53.000Z</time>
      </trkpt>
      <trkpt lat="47.23369" lon="6.06078">
        <ele>243.113</ele>
        <time>2016-09-06T09:08:54.000Z</time>
      </trkpt>
      <trkpt lat="47.23364" lon="6.06076">
        <ele>242.815</ele>
        <time>2016-09-06T09:08:55.000Z</time>
      </trkpt>
      <trkpt lat="47.23359" lon="6.06074">
        <ele>242.575</ele>
        <time>2016-09-06T09:08:56.000Z</time>
      </trkpt>
      <trkpt lat="47.23355" lon="6.06072">
        <ele>242.895</ele>
        <time>2016-09-06T09:08:57.000Z</time>
      </trkpt>
      <trkpt lat="47.2335" lon="6.0607">
        <ele>242.791</ele>
        <time>2016-09-06T09:08:58.000Z</time>
      </trkpt>
      <trkpt lat="47.23346" lon="6.06068">
        <ele>243.064</ele>
        <time>2016-09-06T09:08:59.000Z</time>
      </trkpt>
      <trkpt lat="47.23341" lon="6.06066">
        <ele>242.803</ele>
        <time>2016-09-06T09:09:00.000Z</time>
      </trkpt>
      <trkpt lat="47.23337" lon="6.06063">
        <ele>243.139</ele>
        <time>2016-09-06T09:09:01.000Z</time>
      </trkpt>
      <trkpt lat="47.23333" lon="6.06061">
        <ele>243.317</ele>
        <time>2016-09-06T09:09:02.000Z</time>
      </trkpt>
      <trkpt lat="47.23328" lon="6.06058">
        <ele>242.801</ele>
        <time>2016-09-06T09:09:03.000Z</time>
      </trkpt>
      <trkpt lat="47.23324" lon="6.06055">
        <ele>242.679</ele>
        <time>2016-09-06T09:09:04.000Z</time>
      </trkpt>
      <trkpt lat="47.2332" lon="6.06052">
        <ele>243.08</ele>
        <time>2016-09-06T09:09:05.000Z</time>
      </trkpt>
      <trkpt lat="47.23317" lon="6.06049">
        <ele>243.654</ele>
        <time>2016-09-06T09:09:06.000Z</time>
      </trkpt>
      <trkpt lat="47.23314" lon="6.06045">
        <ele>243.37</ele>
        <time>2016-09-06T09:09:07.000Z</time>
      </trkpt>
      <trkpt lat="47.23311" lon="6.06043">
        <ele>243.469</ele>
        <time>2016-09-06T09:09:08.000Z</time>
      </trkpt>
      <trkpt lat="47.23309" lon="6.06042">
        <ele>242.391</ele>
        <time>2016-09-06T09:09:09.000Z</time>
      </trkpt>
      <trkpt lat="47.23306" lon="6.06039">
        <ele>241.624</ele>
        <time>2016-09-06T09:09:10.000Z</time>
      </trkpt>
      <trkpt lat="47.23303" lon="6.06037">
        <ele>242.229</ele>
        <time>2016-09-06T09:09:11.000Z</time>
      </trkpt>
      <trkpt lat="47.233" lon="6.06034">
        <ele>242.691</ele>
        <time>2016-09-06T09:09:12.000Z</time>
      </trkpt>
      <trkpt lat="47.23296" lon="6.06031">
        <ele>242.293</ele>
        <time>2016-09-06T09:09:13.000Z</time>
      </trkpt>
      <trkpt lat="47.23293" lon="6.06027">
        <ele>242.227</ele>
        <time>2016-09-06T09:09:14.000Z</time>
      </trkpt>
      <trkpt lat="47.23289" lon="6.06023">
        <ele>242.773</ele>
        <time>2016-09-06T09:09:15.000Z</time>
      </trkpt>
      <trkpt lat="47.23285" lon="6.06019">
        <ele>243.221</ele>
        <time>2016-09-06T09:09:16.000Z</time>
      </trkpt>
      <trkpt lat="47.23282" lon="6.06015">
        <ele>243.942</ele>
        <time>2016-09-06T09:09:17.000Z</time>
      </trkpt>
      <trkpt lat="47.23278" lon="6.0601">
        <ele>243.221</ele>
        <time>2016-09-06T09:09:18.000Z</time>
      </trkpt>
      <trkpt lat="47.23275" lon="6.06006">
        <ele>243.161</ele>
        <time>2016-09-06T09:09:19.000Z</time>
      </trkpt>
      <trkpt lat="47.23272" lon="6.06002">
        <ele>243.502</ele>
        <time>2016-09-06T09:09:20.000Z</time>
      </trkpt>
      <trkpt lat="47.23268" lon="6.05998">
        <ele>242.933</ele>
        <time>2016-09-06T09:09:21.000Z</time>
      </trkpt>
      <trkpt lat="47.23265" lon="6.05994">
        <ele>243.311</ele>
        <time>2016-09-06T09:09:22.000Z</time>
      </trkpt>
      <trkpt lat="47.23261" lon="6.0599">
        <ele>243.533</ele>
        <time>2016-09-06T09:09:23.000Z</time>
      </trkpt>
      <trkpt lat="47.23258" lon="6.05986">
        <ele>243.876</ele>
        <time>2016-09-06T09:09:24.000Z</time>
      </trkpt>
      <trkpt lat="47.23254" lon="6.05982">
        <ele>244.834</ele>
        <time>2016-09-06T09:09:25.000Z</time>
      </trkpt>
      <trkpt lat="47.23251" lon="6.05978">
        <ele>244.9</ele>
        <time>2016-09-06T09:09:26.000Z</time>
      </trkpt>
      <trkpt lat="47.23247" lon="6.05974">
        <ele>245.702</ele>
        <time>2016-09-06T09:09:27.000Z</time>
      </trkpt>
      <trkpt lat="47.23243" lon="6.0597">
        <ele>246.548</ele>
        <time>2016-09-06T09:09:28.000Z</time>
      </trkpt>
      <trkpt lat="47.2324" lon="6.05966">
        <ele>245.155</ele>
        <time>2016-09-06T09:09:29.000Z</time>
      </trkpt>
      <trkpt lat="47.23236" lon="6.05962">
        <ele>245.567</ele>
        <time>2016-09-06T09:09:30.000Z</time>
      </trkpt>
      <trkpt lat="47.23232" lon="6.05958">
        <ele>245.47</ele>
        <time>2016-09-06T09:09:31.000Z</time>
      </trkpt>
      <trkpt lat="47.23228" lon="6.05954">
        <ele>245.368</ele>
        <time>2016-09-06T09:09:32.000Z</time>
      </trkpt>
      <trkpt lat="47.23224" lon="6.05952">
        <ele>245.088</ele>
        <time>2016-09-06T09:09:33.000Z</time>
      </trkpt>
      <trkpt lat="47.2322" lon="6.05944">
        <ele>245.052</ele>
        <time>2016-09-06T09:09:34.000Z</time>
      </trkpt>
      <trkpt lat="47.23216" lon="6.05938">
        <ele>245.196</ele>
        <time>2016-09-06T09:09:35.000Z</time>
      </trkpt>
      <trkpt lat="47.23212" lon="6.05933">
        <ele>244.104</ele>
        <time>2016-09-06T09:09:36.000Z</time>
      </trkpt>
      <trkpt lat="47.23209" lon="6.05929">
        <ele>243.204</ele>
        <time>2016-09-06T09:09:37.000Z</time>
      </trkpt>
      <trkpt lat="47.23205" lon="6.05926">
        <ele>243.96</ele>
        <time>2016-09-06T09:09:38.000Z</time>
      </trkpt>
      <trkpt lat="47.232" lon="6.05922">
        <ele>243.873</ele>
        <time>2016-09-06T09:09:39.000Z</time>
      </trkpt>
      <trkpt lat="47.23196" lon="6.05917">
        <ele>243.93</ele>
        <time>2016-09-06T09:09:40.000Z</time>
      </trkpt>
      <trkpt lat="47.23192" lon="6.05915">
        <ele>244.428</ele>
        <time>2016-09-06T09:09:41.000Z</time>
      </trkpt>
      <trkpt lat="47.23189" lon="6.05912">
        <ele>244.427</ele>
        <time>2016-09-06T09:09:42.000Z</time>
      </trkpt>
      <trkpt lat="47.23184" lon="6.05911">
        <ele>244.342</ele>
        <time>2016-09-06T09:09:43.000Z</time>
      </trkpt>
      <trkpt lat="47.23179" lon="6.05908">
        <ele>243.935</ele>
        <time>2016-09-06T09:09:44.000Z</time>
      </trkpt>
      <trkpt lat="47.23173" lon="6.05905">
        <ele>243.748</ele>
        <time>2016-09-06T09:09:45.000Z</time>
      </trkpt>
      <trkpt lat="47.2317" lon="6.05901">
        <ele>244.205</ele>
        <time>2016-09-06T09:09:46.000Z</time>
      </trkpt>
      <trkpt lat="47.23166" lon="6.05898">
        <ele>245.041</ele>
        <time>2016-09-06T09:09:47.000Z</time>
      </trkpt>
      <trkpt lat="47.23162" lon="6.05896">
        <ele>243.638</ele>
        <time>2016-09-06T09:09:48.000Z</time>
      </trkpt>
      <trkpt lat="47.23158" lon="6.05893">
        <ele>243.849</ele>
        <time>2016-09-06T09:09:49.000Z</time>
      </trkpt>
      <trkpt lat="47.23153" lon="6.05892">
        <ele>244.199</ele>
        <time>2016-09-06T09:09:50.000Z</time>
      </trkpt>
      <trkpt lat="47.2315" lon="6.05887">
        <ele>244.645</ele>
        <time>2016-09-06T09:09:51.000Z</time>
      </trkpt>
      <trkpt lat="47.23145" lon="6.05884">
        <ele>245.137</ele>
        <time>2016-09-06T09:09:52.000Z</time>
      </trkpt>
      <trkpt lat="47.23141" lon="6.0588">
        <ele>244.451</ele>
        <time>2016-09-06T09:09:53.000Z</time>
      </trkpt>
      <trkpt lat="47.23137" lon="6.05879">
        <ele>245.313</ele>
        <time>2016-09-06T09:09:54.000Z</time>
      </trkpt>
      <trkpt lat="47.23133" lon="6.05875">
        <ele>246.092</ele>
        <time>2016-09-06T09:09:55.000Z</time>
      </trkpt>
      <trkpt lat="47.23129" lon="6.05873">
        <ele>247.055</ele>
        <time>2016-09-06T09:09:56.000Z</time>
      </trkpt>
      <trkpt lat="47.23125" lon="6.05869">
        <ele>246.447</ele>
        <time>2016-09-06T09:09:57.000Z</time>
      </trkpt>
      <trkpt lat="47.23121" lon="6.05866">
        <ele>245.074</ele>
        <time>2016-09-06T09:09:58.000Z</time>
      </trkpt>
      <trkpt lat="47.23118" lon="6.05863">
        <ele>245.226</ele>
        <time>2016-09-06T09:09:59.000Z</time>
      </trkpt>
      <trkpt lat="47.23114" lon="6.05859">
        <ele>245.201</ele>
        <time>2016-09-06T09:10:00.000Z</time>
      </trkpt>
      <trkpt lat="47.2311" lon="6.05856">
        <ele>244.415</ele>
        <time>2016-09-06T09:10:01.000Z</time>
      </trkpt>
      <trkpt lat="47.23108" lon="6.05853">
        <ele>242.042</ele>
        <time>2016-09-06T09:10:02.000Z</time>
      </trkpt>
      <trkpt lat="47.23104" lon="6.0585">
        <ele>242.772</ele>
        <time>2016-09-06T09:10:03.000Z</time>
      </trkpt>
      <trkpt lat="47.23101" lon="6.05847">
        <ele>241.184</ele>
        <time>2016-09-06T09:10:04.000Z</time>
      </trkpt>
      <trkpt lat="47.23098" lon="6.05844">
        <ele>240.201</ele>
        <time>2016-09-06T09:10:05.000Z</time>
      </trkpt>
      <trkpt lat="47.23094" lon="6.05842">
        <ele>239.821</ele>
        <time>2016-09-06T09:10:06.000Z</time>
      </trkpt>
      <trkpt lat="47.23091" lon="6.05839">
        <ele>239.683</ele>
        <time>2016-09-06T09:10:07.000Z</time>
      </trkpt>
      <trkpt lat="47.23087" lon="6.05835">
        <ele>239.676</ele>
        <time>2016-09-06T09:10:08.000Z</time>
      </trkpt>
      <trkpt lat="47.23082" lon="6.05833">
        <ele>240.594</ele>
        <time>2016-09-06T09:10:09.000Z</time>
      </trkpt>
      <trkpt lat="47.23079" lon="6.0583">
        <ele>241.264</ele>
        <time>2016-09-06T09:10:10.000Z</time>
      </trkpt>
      <trkpt lat="47.23075" lon="6.05827">
        <ele>242.755</ele>
        <time>2016-09-06T09:10:11.000Z</time>
      </trkpt>
      <trkpt lat="47.23071" lon="6.05824">
        <ele>244.197</ele>
        <time>2016-09-06T09:10:12.000Z</time>
      </trkpt>
      <trkpt lat="47.23067" lon="6.0582">
        <ele>244.552</ele>
        <time>2016-09-06T09:10:13.000Z</time>
      </trkpt>
      <trkpt lat="47.23063" lon="6.05817">
        <ele>244.733</ele>
        <time>2016-09-06T09:10:14.000Z</time>
      </trkpt>
      <trkpt lat="47.23059" lon="6.05813">
        <ele>245.113</ele>
        <time>2016-09-06T09:10:15.000Z</time>
      </trkpt>
      <trkpt lat="47.23054" lon="6.05808">
        <ele>245.509</ele>
        <time>2016-09-06T09:10:16.000Z</time>
      </trkpt>
      <trkpt lat="47.23048" lon="6.05803">
        <ele>246.005</ele>
        <time>2016-09-06T09:10:17.000Z</time>
      </trkpt>
      <trkpt lat="47.23043" lon="6.05798">
        <ele>246.933</ele>
        <time>2016-09-06T09:10:18.000Z</time>
      </trkpt>
      <trkpt lat="47.23038" lon="6.05795">
        <ele>245.587</ele>
        <time>2016-09-06T09:10:19.000Z</time>
      </trkpt>
      <trkpt lat="47.23033" lon="6.05791">
        <ele>245.435</ele>
        <time>2016-09-06T09:10:20.000Z</time>
      </trkpt>
      <trkpt lat="47.23028" lon="6.05787">
        <ele>246.892</ele>
        <time>2016-09-06T09:10:21.000Z</time>
      </trkpt>
      <trkpt lat="47.23024" lon="6.05782">
        <ele>246.359</ele>
        <time>2016-09-06T09:10:22.000Z</time>
      </trkpt>
      <trkpt lat="47.23019" lon="6.05777">
        <ele>245.98</ele>
        <time>2016-09-06T09:10:23.000Z</time>
      </trkpt>
      <trkpt lat="47.23014" lon="6.05772">
        <ele>246.381</ele>
        <time>2016-09-06T09:10:24.000Z</time>
      </trkpt>
      <trkpt lat="47.23011" lon="6.05766">
        <ele>244.918</ele>
        <time>2016-09-06T09:10:25.000Z</time>
      </trkpt>
      <trkpt lat="47.23007" lon="6.05761">
        <ele>245.362</ele>
        <time>2016-09-06T09:10:26.000Z</time>
      </trkpt>
      <trkpt lat="47.23003" lon="6.05757">
        <ele>246.416</ele>
        <time>2016-09-06T09:10:27.000Z</time>
      </trkpt>
      <trkpt lat="47.23" lon="6.05752">
        <ele>246.012</ele>
        <time>2016-09-06T09:10:28.000Z</time>
      </trkpt>
      <trkpt lat="47.22996" lon="6.05749">
        <ele>246.405</ele>
        <time>2016-09-06T09:10:29.000Z</time>
      </trkpt>
      <trkpt lat="47.22992" lon="6.05746">
        <ele>245.343</ele>
        <time>2016-09-06T09:10:30.000Z</time>
      </trkpt>
      <trkpt lat="47.22988" lon="6.05743">
        <ele>246.574</ele>
        <time>2016-09-06T09:10:31.000Z</time>
      </trkpt>
      <trkpt lat="47.22982" lon="6.0574">
        <ele>246.692</ele>
        <time>2016-09-06T09:10:32.000Z</time>
      </trkpt>
      <trkpt lat="47.22977" lon="6.05734">
        <ele>245.405</ele>
        <time>2016-09-06T09:10:33.000Z</time>
      </trkpt>
      <trkpt lat="47.22973" lon="6.05729">
        <ele>245.391</ele>
        <time>2016-09-06T09:10:34.000Z</time>
      </trkpt>
      <trkpt lat="47.22969" lon="6.05723">
        <ele>246.808</ele>
        <time>2016-09-06T09:10:35.000Z</time>
      </trkpt>
      <trkpt lat="47.22965" lon="6.05719">
        <ele>246.163</ele>
        <time>2016-09-06T09:10:36.000Z</time>
      </trkpt>
      <trkpt lat="47.2296" lon="6.05714">
        <ele>246.579</ele>
        <time>2016-09-06T09:10:37.000Z</time>
      </trkpt>
      <trkpt lat="47.22956" lon="6.05708">
        <ele>246.28</ele>
        <time>2016-09-06T09:10:38.000Z</time>
      </trkpt>
      <trkpt lat="47.22952" lon="6.05703">
        <ele>245.956</ele>
        <time>2016-09-06T09:10:39.000Z</time>
      </trkpt>
      <trkpt lat="47.22949" lon="6.05698">
        <ele>246.142</ele>
        <time>2016-09-06T09:10:40.000Z</time>
      </trkpt>
      <trkpt lat="47.22946" lon="6.05692">
        <ele>245.993</ele>
        <time>2016-09-06T09:10:41.000Z</time>
      </trkpt>
      <trkpt lat="47.22942" lon="6.05687">
        <ele>245.969</ele>
        <time>2016-09-06T09:10:42.000Z</time>
      </trkpt>
      <trkpt lat="47.22939" lon="6.05683">
        <ele>246.709</ele>
        <time>2016-09-06T09:10:43.000Z</time>
      </trkpt>
      <trkpt lat="47.22936" lon="6.05678">
        <ele>247.145</ele>
        <time>2016-09-06T09:10:44.000Z</time>
      </trkpt>
      <trkpt lat="47.22931" lon="6.0567">
        <ele>247.952</ele>
        <time>2016-09-06T09:10:45.000Z</time>
      </trkpt>
      <trkpt lat="47.22927" lon="6.05668">
        <ele>246.555</ele>
        <time>2016-09-06T09:10:46.000Z</time>
      </trkpt>
      <trkpt lat="47.22926" lon="6.05666">
        <ele>245.411</ele>
        <time>2016-09-06T09:10:47.000Z</time>
      </trkpt>
      <trkpt lat="47.2292" lon="6.0566">
        <ele>245.433</ele>
        <time>2016-09-06T09:10:48.000Z</time>
      </trkpt>
      <trkpt lat="47.22917" lon="6.05657">
        <ele>245.617</ele>
        <time>2016-09-06T09:10:49.000Z</time>
      </trkpt>
      <trkpt lat="47.22912" lon="6.05652">
        <ele>245.405</ele>
        <time>2016-09-06T09:10:50.000Z</time>
      </trkpt>
      <trkpt lat="47.22911" lon="6.05648">
        <ele>247.127</ele>
        <time>2016-09-06T09:10:51.000Z</time>
      </trkpt>
      <trkpt lat="47.22907" lon="6.0564">
        <ele>246.287</ele>
        <time>2016-09-06T09:10:52.000Z</time>
      </trkpt>
      <trkpt lat="47.22905" lon="6.05634">
        <ele>246.228</ele>
        <time>2016-09-06T09:10:53.000Z</time>
      </trkpt>
      <trkpt lat="47.22898" lon="6.05629">
        <ele>246.801</ele>
        <time>2016-09-06T09:10:54.000Z</time>
      </trkpt>
      <trkpt lat="47.22906" lon="6.05624">
        <ele>245.794</ele>
        <time>2016-09-06T09:10:55.000Z</time>
      </trkpt>
      <trkpt lat="47.22901" lon="6.05618">
        <ele>245.211</ele>
        <time>2016-09-06T09:10:56.000Z</time>
      </trkpt>
      <trkpt lat="47.22902" lon="6.05612">
        <ele>245.289</ele>
        <time>2016-09-06T09:10:57.000Z</time>
      </trkpt>
      <trkpt lat="47.22897" lon="6.0561">
        <ele>245.549</ele>
        <time>2016-09-06T09:10:58.000Z</time>
      </trkpt>
      <trkpt lat="47.22894" lon="6.05603">
        <ele>245.394</ele>
        <time>2016-09-06T09:10:59.000Z</time>
      </trkpt>
      <trkpt lat="47.22885" lon="6.05597">
        <ele>243.169</ele>
        <time>2016-09-06T09:11:00.000Z</time>
      </trkpt>
      <trkpt lat="47.2288" lon="6.05593">
        <ele>244.466</ele>
        <time>2016-09-06T09:11:01.000Z</time>
      </trkpt>
      <trkpt lat="47.22876" lon="6.05587">
        <ele>243.902</ele>
        <time>2016-09-06T09:11:02.000Z</time>
      </trkpt>
      <trkpt lat="47.22867" lon="6.05581">
        <ele>240.051</ele>
        <time>2016-09-06T09:11:03.000Z</time>
      </trkpt>
      <trkpt lat="47.22863" lon="6.05576">
        <ele>239.483</ele>
        <time>2016-09-06T09:11:04.000Z</time>
      </trkpt>
      <trkpt lat="47.2286" lon="6.05572">
        <ele>241.632</ele>
        <time>2016-09-06T09:11:05.000Z</time>
      </trkpt>
      <trkpt lat="47.22859" lon="6.05568">
        <ele>242.662</ele>
        <time>2016-09-06T09:11:06.000Z</time>
      </trkpt>
      <trkpt lat="47.22856" lon="6.05564">
        <ele>242.723</ele>
        <time>2016-09-06T09:11:07.000Z</time>
      </trkpt>
      <trkpt lat="47.22854" lon="6.05561">
        <ele>244.962</ele>
        <time>2016-09-06T09:11:08.000Z</time>
      </trkpt>
      <trkpt lat="47.22851" lon="6.05556">
        <ele>244.159</ele>
        <time>2016-09-06T09:11:09.000Z</time>
      </trkpt>
      <trkpt lat="47.2285" lon="6.0555">
        <ele>244.613</ele>
        <time>2016-09-06T09:11:10.000Z</time>
      </trkpt>
      <trkpt lat="47.22852" lon="6.05548">
        <ele>249.182</ele>
        <time>2016-09-06T09:11:11.000Z</time>
      </trkpt>
      <trkpt lat="47.22847" lon="6.05544">
        <ele>248.583</ele>
        <time>2016-09-06T09:11:12.000Z</time>
      </trkpt>
      <trkpt lat="47.22844" lon="6.05538">
        <ele>247.622</ele>
        <time>2016-09-06T09:11:13.000Z</time>
      </trkpt>
      <trkpt lat="47.22839" lon="6.05531">
        <ele>245.827</ele>
        <time>2016-09-06T09:11:14.000Z</time>
      </trkpt>
      <trkpt lat="47.22836" lon="6.05528">
        <ele>244.608</ele>
        <time>2016-09-06T09:11:15.000Z</time>
      </trkpt>
      <trkpt lat="47.22832" lon="6.05522">
        <ele>243.644</ele>
        <time>2016-09-06T09:11:16.000Z</time>
      </trkpt>
      <trkpt lat="47.2283" lon="6.05517">
        <ele>243.537</ele>
        <time>2016-09-06T09:11:17.000Z</time>
      </trkpt>
      <trkpt lat="47.22828" lon="6.05512">
        <ele>244.931</ele>
        <time>2016-09-06T09:11:18.000Z</time>
      </trkpt>
      <trkpt lat="47.22822" lon="6.05505">
        <ele>242.574</ele>
        <time>2016-09-06T09:11:19.000Z</time>
      </trkpt>
      <trkpt lat="47.22817" lon="6.055">
        <ele>241.619</ele>
        <time>2016-09-06T09:11:20.000Z</time>
      </trkpt>
      <trkpt lat="47.22813" lon="6.05497">
        <ele>240.029</ele>
        <time>2016-09-06T09:11:21.000Z</time>
      </trkpt>
      <trkpt lat="47.22811" lon="6.05491">
        <ele>239.821</ele>
        <time>2016-09-06T09:11:22.000Z</time>
      </trkpt>
      <trkpt lat="47.22808" lon="6.05486">
        <ele>239.224</ele>
        <time>2016-09-06T09:11:23.000Z</time>
      </trkpt>
      <trkpt lat="47.22804" lon="6.05482">
        <ele>238.577</ele>
        <time>2016-09-06T09:11:24.000Z</time>
      </trkpt>
      <trkpt lat="47.228" lon="6.05476">
        <ele>237.544</ele>
        <time>2016-09-06T09:11:25.000Z</time>
      </trkpt>
      <trkpt lat="47.22795" lon="6.0547">
        <ele>236.836</ele>
        <time>2016-09-06T09:11:26.000Z</time>
      </trkpt>
      <trkpt lat="47.22791" lon="6.05466">
        <ele>235.805</ele>
        <time>2016-09-06T09:11:27.000Z</time>
      </trkpt>
      <trkpt lat="47.2279" lon="6.05461">
        <ele>237.807</ele>
        <time>2016-09-06T09:11:28.000Z</time>
      </trkpt>
      <trkpt lat="47.22786" lon="6.05456">
        <ele>237.866</ele>
        <time>2016-09-06T09:11:29.000Z</time>
      </trkpt>
      <trkpt lat="47.22785" lon="6.0545">
        <ele>238.765</ele>
        <time>2016-09-06T09:11:30.000Z</time>
      </trkpt>
      <trkpt lat="47.22781" lon="6.05446">
        <ele>238.199</ele>
        <time>2016-09-06T09:11:31.000Z</time>
      </trkpt>
      <trkpt lat="47.22779" lon="6.05439">
        <ele>237.81</ele>
        <time>2016-09-06T09:11:32.000Z</time>
      </trkpt>
      <trkpt lat="47.22776" lon="6.05436">
        <ele>236.846</ele>
        <time>2016-09-06T09:11:33.000Z</time>
      </trkpt>
      <trkpt lat="47.22772" lon="6.05432">
        <ele>235.325</ele>
        <time>2016-09-06T09:11:34.000Z</time>
      </trkpt>
      <trkpt lat="47.22766" lon="6.05426">
        <ele>234.011</ele>
        <time>2016-09-06T09:11:35.000Z</time>
      </trkpt>
      <trkpt lat="47.22764" lon="6.0542">
        <ele>234.59</ele>
        <time>2016-09-06T09:11:36.000Z</time>
      </trkpt>
      <trkpt lat="47.22761" lon="6.05415">
        <ele>233.287</ele>
        <time>2016-09-06T09:11:37.000Z</time>
      </trkpt>
      <trkpt lat="47.22757" lon="6.05411">
        <ele>232.182</ele>
        <time>2016-09-06T09:11:38.000Z</time>
      </trkpt>
      <trkpt lat="47.22754" lon="6.05405">
        <ele>231.708</ele>
        <time>2016-09-06T09:11:39.000Z</time>
      </trkpt>
      <trkpt lat="47.22749" lon="6.054">
        <ele>229.928</ele>
        <time>2016-09-06T09:11:40.000Z</time>
      </trkpt>
      <trkpt lat="47.22745" lon="6.05395">
        <ele>228.434</ele>
        <time>2016-09-06T09:11:41.000Z</time>
      </trkpt>
      <trkpt lat="47.22742" lon="6.0539">
        <ele>227.097</ele>
        <time>2016-09-06T09:11:42.000Z</time>
      </trkpt>
      <trkpt lat="47.22739" lon="6.05385">
        <ele>227.345</ele>
        <time>2016-09-06T09:11:43.000Z</time>
      </trkpt>
      <trkpt lat="47.22737" lon="6.05379">
        <ele>227.119</ele>
        <time>2016-09-06T09:11:44.000Z</time>
      </trkpt>
      <trkpt lat="47.22736" lon="6.05373">
        <ele>227.978</ele>
        <time>2016-09-06T09:11:45.000Z</time>
      </trkpt>
      <trkpt lat="47.22736" lon="6.05368">
        <ele>230.359</ele>
        <time>2016-09-06T09:11:46.000Z</time>
      </trkpt>
      <trkpt lat="47.22734" lon="6.05362">
        <ele>230.339</ele>
        <time>2016-09-06T09:11:47.000Z</time>
      </trkpt>
      <trkpt lat="47.22732" lon="6.05356">
        <ele>230.6</ele>
        <time>2016-09-06T09:11:48.000Z</time>
      </trkpt>
      <trkpt lat="47.22729" lon="6.05351">
        <ele>229.715</ele>
        <time>2016-09-06T09:11:49.000Z</time>
      </trkpt>
      <trkpt lat="47.22726" lon="6.05345">
        <ele>229.479</ele>
        <time>2016-09-06T09:11:50.000Z</time>
      </trkpt>
      <trkpt lat="47.22725" lon="6.05339">
        <ele>228.877</ele>
        <time>2016-09-06T09:11:51.000Z</time>
      </trkpt>
      <trkpt lat="47.22721" lon="6.05334">
        <ele>227.885</ele>
        <time>2016-09-06T09:11:52.000Z</time>
      </trkpt>
      <trkpt lat="47.22719" lon="6.05328">
        <ele>227.651</ele>
        <time>2016-09-06T09:11:53.000Z</time>
      </trkpt>
      <trkpt lat="47.22719" lon="6.05322">
        <ele>228.282</ele>
        <time>2016-09-06T09:11:54.000Z</time>
      </trkpt>
      <trkpt lat="47.22719" lon="6.05315">
        <ele>229.649</ele>
        <time>2016-09-06T09:11:55.000Z</time>
      </trkpt>
      <trkpt lat="47.22718" lon="6.0531">
        <ele>229.857</ele>
        <time>2016-09-06T09:11:56.000Z</time>
      </trkpt>
      <trkpt lat="47.22718" lon="6.05303">
        <ele>230.965</ele>
        <time>2016-09-06T09:11:57.000Z</time>
      </trkpt>
      <trkpt lat="47.22718" lon="6.05298">
        <ele>231.748</ele>
        <time>2016-09-06T09:11:58.000Z</time>
      </trkpt>
      <trkpt lat="47.22716" lon="6.05293">
        <ele>231.952</ele>
        <time>2016-09-06T09:11:59.000Z</time>
      </trkpt>
      <trkpt lat="47.22714" lon="6.05287">
        <ele>232.562</ele>
        <time>2016-09-06T09:12:00.000Z</time>
      </trkpt>
      <trkpt lat="47.22713" lon="6.05282">
        <ele>232.41</ele>
        <time>2016-09-06T09:12:01.000Z</time>
      </trkpt>
      <trkpt lat="47.22712" lon="6.05276">
        <ele>233.031</ele>
        <time>2016-09-06T09:12:02.000Z</time>
      </trkpt>
      <trkpt lat="47.22711" lon="6.0527">
        <ele>233.453</ele>
        <time>2016-09-06T09:12:03.000Z</time>
      </trkpt>
      <trkpt lat="47.22708" lon="6.05265">
        <ele>232.665</ele>
        <time>2016-09-06T09:12:04.000Z</time>
      </trkpt>
      <trkpt lat="47.22706" lon="6.05259">
        <ele>233.106</ele>
        <time>2016-09-06T09:12:05.000Z</time>
      </trkpt>
      <trkpt lat="47.22704" lon="6.05254">
        <ele>233.399</ele>
        <time>2016-09-06T09:12:06.000Z</time>
      </trkpt>
      <trkpt lat="47.22703" lon="6.05248">
        <ele>234.333</ele>
        <time>2016-09-06T09:12:07.000Z</time>
      </trkpt>
      <trkpt lat="47.22702" lon="6.05242">
        <ele>234.275</ele>
        <time>2016-09-06T09:12:08.000Z</time>
      </trkpt>
      <trkpt lat="47.227" lon="6.05237">
        <ele>233.67</ele>
        <time>2016-09-06T09:12:09.000Z</time>
      </trkpt>
      <trkpt lat="47.22699" lon="6.05231">
        <ele>232.891</ele>
        <time>2016-09-06T09:12:10.000Z</time>
      </trkpt>
      <trkpt lat="47.22697" lon="6.05226">
        <ele>232.892</ele>
        <time>2016-09-06T09:12:11.000Z</time>
      </trkpt>
      <trkpt lat="47.22695" lon="6.0522">
        <ele>231.51</ele>
        <time>2016-09-06T09:12:12.000Z</time>
      </trkpt>
      <trkpt lat="47.22692" lon="6.05214">
        <ele>231.036</ele>
        <time>2016-09-06T09:12:13.000Z</time>
      </trkpt>
      <trkpt lat="47.22688" lon="6.05207">
        <ele>231.104</ele>
        <time>2016-09-06T09:12:14.000Z</time>
      </trkpt>
      <trkpt lat="47.22687" lon="6.052">
        <ele>230.812</ele>
        <time>2016-09-06T09:12:15.000Z</time>
      </trkpt>
      <trkpt lat="47.22685" lon="6.05194">
        <ele>231.351</ele>
        <time>2016-09-06T09:12:16.000Z</time>
      </trkpt>
      <trkpt lat="47.22685" lon="6.05188">
        <ele>232.38</ele>
        <time>2016-09-06T09:12:17.000Z</time>
      </trkpt>
      <trkpt lat="47.22684" lon="6.05181">
        <ele>232.612</ele>
        <time>2016-09-06T09:12:18.000Z</time>
      </trkpt>
      <trkpt lat="47.22684" lon="6.05174">
        <ele>234.563</ele>
        <time>2016-09-06T09:12:19.000Z</time>
      </trkpt>
      <trkpt lat="47.22682" lon="6.05168">
        <ele>235.028</ele>
        <time>2016-09-06T09:12:20.000Z</time>
      </trkpt>
      <trkpt lat="47.22682" lon="6.0516">
        <ele>235.662</ele>
        <time>2016-09-06T09:12:21.000Z</time>
      </trkpt>
      <trkpt lat="47.22681" lon="6.05153">
        <ele>236.117</ele>
        <time>2016-09-06T09:12:22.000Z</time>
      </trkpt>
      <trkpt lat="47.2268" lon="6.05146">
        <ele>236.119</ele>
        <time>2016-09-06T09:12:23.000Z</time>
      </trkpt>
      <trkpt lat="47.22679" lon="6.05139">
        <ele>236.434</ele>
        <time>2016-09-06T09:12:24.000Z</time>
      </trkpt>
      <trkpt lat="47.22679" lon="6.05133">
        <ele>237.052</ele>
        <time>2016-09-06T09:12:25.000Z</time>
      </trkpt>
      <trkpt lat="47.22676" lon="6.05127">
        <ele>237.285</ele>
        <time>2016-09-06T09:12:26.000Z</time>
      </trkpt>
      <trkpt lat="47.22675" lon="6.0512">
        <ele>237.408</ele>
        <time>2016-09-06T09:12:27.000Z</time>
      </trkpt>
      <trkpt lat="47.22673" lon="6.05114">
        <ele>237.01</ele>
        <time>2016-09-06T09:12:28.000Z</time>
      </trkpt>
      <trkpt lat="47.2267" lon="6.05109">
        <ele>238.916</ele>
        <time>2016-09-06T09:12:29.000Z</time>
      </trkpt>
      <trkpt lat="47.22669" lon="6.05103">
        <ele>238.594</ele>
        <time>2016-09-06T09:12:30.000Z</time>
      </trkpt>
      <trkpt lat="47.22666" lon="6.05096">
        <ele>237.92</ele>
        <time>2016-09-06T09:12:31.000Z</time>
      </trkpt>
      <trkpt lat="47.22664" lon="6.05089">
        <ele>238.369</ele>
        <time>2016-09-06T09:12:32.000Z</time>
      </trkpt>
      <trkpt lat="47.22663" lon="6.05083">
        <ele>238.206</ele>
        <time>2016-09-06T09:12:33.000Z</time>
      </trkpt>
      <trkpt lat="47.22661" lon="6.05077">
        <ele>237.848</ele>
        <time>2016-09-06T09:12:34.000Z</time>
      </trkpt>
      <trkpt lat="47.22659" lon="6.0507">
        <ele>237.793</ele>
        <time>2016-09-06T09:12:35.000Z</time>
      </trkpt>
      <trkpt lat="47.22656" lon="6.05064">
        <ele>237.016</ele>
        <time>2016-09-06T09:12:36.000Z</time>
      </trkpt>
      <trkpt lat="47.22656" lon="6.05058">
        <ele>238.762</ele>
        <time>2016-09-06T09:12:37.000Z</time>
      </trkpt>
      <trkpt lat="47.22654" lon="6.05051">
        <ele>239.392</ele>
        <time>2016-09-06T09:12:38.000Z</time>
      </trkpt>
      <trkpt lat="47.22651" lon="6.05045">
        <ele>239.007</ele>
        <time>2016-09-06T09:12:39.000Z</time>
      </trkpt>
      <trkpt lat="47.2265" lon="6.05038">
        <ele>240.112</ele>
        <time>2016-09-06T09:12:40.000Z</time>
      </trkpt>
      <trkpt lat="47.22649" lon="6.05032">
        <ele>240.544</ele>
        <time>2016-09-06T09:12:41.000Z</time>
      </trkpt>
      <trkpt lat="47.22648" lon="6.05026">
        <ele>240.217</ele>
        <time>2016-09-06T09:12:42.000Z</time>
      </trkpt>
      <trkpt lat="47.22646" lon="6.0502">
        <ele>239.684</ele>
        <time>2016-09-06T09:12:43.000Z</time>
      </trkpt>
      <trkpt lat="47.22644" lon="6.05014">
        <ele>240.786</ele>
        <time>2016-09-06T09:12:44.000Z</time>
      </trkpt>
      <trkpt lat="47.22643" lon="6.05007">
        <ele>241.389</ele>
        <time>2016-09-06T09:12:45.000Z</time>
      </trkpt>
      <trkpt lat="47.22642" lon="6.05001">
        <ele>241.098</ele>
        <time>2016-09-06T09:12:46.000Z</time>
      </trkpt>
      <trkpt lat="47.2264" lon="6.04994">
        <ele>241.095</ele>
        <time>2016-09-06T09:12:47.000Z</time>
      </trkpt>
      <trkpt lat="47.22637" lon="6.04988">
        <ele>240.378</ele>
        <time>2016-09-06T09:12:48.000Z</time>
      </trkpt>
      <trkpt lat="47.22635" lon="6.04982">
        <ele>239.772</ele>
        <time>2016-09-06T09:12:49.000Z</time>
      </trkpt>
      <trkpt lat="47.22631" lon="6.04975">
        <ele>238.739</ele>
        <time>2016-09-06T09:12:50.000Z</time>
      </trkpt>
      <trkpt lat="47.22627" lon="6.04969">
        <ele>237.864</ele>
        <time>2016-09-06T09:12:51.000Z</time>
      </trkpt>
      <trkpt lat="47.22625" lon="6.04963">
        <ele>237.654</ele>
        <time>2016-09-06T09:12:52.000Z</time>
      </trkpt>
      <trkpt lat="47.22622" lon="6.04957">
        <ele>236.941</ele>
        <time>2016-09-06T09:12:53.000Z</time>
      </trkpt>
      <trkpt lat="47.22622" lon="6.04951">
        <ele>237.201</ele>
        <time>2016-09-06T09:12:54.000Z</time>
      </trkpt>
      <trkpt lat="47.22622" lon="6.04944">
        <ele>238.01</ele>
        <time>2016-09-06T09:12:55.000Z</time>
      </trkpt>
      <trkpt lat="47.22622" lon="6.04938">
        <ele>239.556</ele>
        <time>2016-09-06T09:12:56.000Z</time>
      </trkpt>
      <trkpt lat="47.2262" lon="6.04933">
        <ele>238.971</ele>
        <time>2016-09-06T09:12:57.000Z</time>
      </trkpt>
      <trkpt lat="47.2262" lon="6.04927">
        <ele>240.19</ele>
        <time>2016-09-06T09:12:58.000Z</time>
      </trkpt>
      <trkpt lat="47.22618" lon="6.0492">
        <ele>240.178</ele>
        <time>2016-09-06T09:12:59.000Z</time>
      </trkpt>
      <trkpt lat="47.22618" lon="6.04914">
        <ele>240.346</ele>
        <time>2016-09-06T09:13:00.000Z</time>
      </trkpt>
      <trkpt lat="47.22619" lon="6.04906">
        <ele>240.353</ele>
        <time>2016-09-06T09:13:01.000Z</time>
      </trkpt>
      <trkpt lat="47.22617" lon="6.04899">
        <ele>240.683</ele>
        <time>2016-09-06T09:13:02.000Z</time>
      </trkpt>
      <trkpt lat="47.22613" lon="6.04892">
        <ele>239.617</ele>
        <time>2016-09-06T09:13:03.000Z</time>
      </trkpt>
      <trkpt lat="47.22609" lon="6.04885">
        <ele>238.38</ele>
        <time>2016-09-06T09:13:04.000Z</time>
      </trkpt>
      <trkpt lat="47.22609" lon="6.04878">
        <ele>239.693</ele>
        <time>2016-09-06T09:13:05.000Z</time>
      </trkpt>
      <trkpt lat="47.22607" lon="6.04872">
        <ele>238.54</ele>
        <time>2016-09-06T09:13:06.000Z</time>
      </trkpt>
      <trkpt lat="47.22607" lon="6.04868">
        <ele>238.516</ele>
        <time>2016-09-06T09:13:07.000Z</time>
      </trkpt>
      <trkpt lat="47.22609" lon="6.04861">
        <ele>239.658</ele>
        <time>2016-09-06T09:13:08.000Z</time>
      </trkpt>
      <trkpt lat="47.22606" lon="6.04855">
        <ele>239.755</ele>
        <time>2016-09-06T09:13:09.000Z</time>
      </trkpt>
      <trkpt lat="47.22605" lon="6.04849">
        <ele>239.601</ele>
        <time>2016-09-06T09:13:10.000Z</time>
      </trkpt>
      <trkpt lat="47.22605" lon="6.04842">
        <ele>239.875</ele>
        <time>2016-09-06T09:13:11.000Z</time>
      </trkpt>
      <trkpt lat="47.22603" lon="6.04836">
        <ele>239.444</ele>
        <time>2016-09-06T09:13:12.000Z</time>
      </trkpt>
      <trkpt lat="47.22602" lon="6.0483">
        <ele>239.656</ele>
        <time>2016-09-06T09:13:13.000Z</time>
      </trkpt>
      <trkpt lat="47.22602" lon="6.04824">
        <ele>239.741</ele>
        <time>2016-09-06T09:13:14.000Z</time>
      </trkpt>
      <trkpt lat="47.22602" lon="6.04817">
        <ele>239.869</ele>
        <time>2016-09-06T09:13:15.000Z</time>
      </trkpt>
      <trkpt lat="47.22601" lon="6.04811">
        <ele>240.207</ele>
        <time>2016-09-06T09:13:16.000Z</time>
      </trkpt>
      <trkpt lat="47.226" lon="6.04805">
        <ele>240.897</ele>
        <time>2016-09-06T09:13:17.000Z</time>
      </trkpt>
      <trkpt lat="47.22599" lon="6.04799">
        <ele>241.024</ele>
        <time>2016-09-06T09:13:18.000Z</time>
      </trkpt>
      <trkpt lat="47.22598" lon="6.04793">
        <ele>240.718</ele>
        <time>2016-09-06T09:13:19.000Z</time>
      </trkpt>
      <trkpt lat="47.22598" lon="6.04786">
        <ele>240.714</ele>
        <time>2016-09-06T09:13:20.000Z</time>
      </trkpt>
      <trkpt lat="47.22596" lon="6.0478">
        <ele>240.669</ele>
        <time>2016-09-06T09:13:21.000Z</time>
      </trkpt>
      <trkpt lat="47.22595" lon="6.04772">
        <ele>240.567</ele>
        <time>2016-09-06T09:13:22.000Z</time>
      </trkpt>
      <trkpt lat="47.22594" lon="6.04766">
        <ele>241.251</ele>
        <time>2016-09-06T09:13:23.000Z</time>
      </trkpt>
      <trkpt lat="47.22593" lon="6.0476">
        <ele>240.766</ele>
        <time>2016-09-06T09:13:24.003Z</time>
      </trkpt>
      <trkpt lat="47.22593" lon="6.04752">
        <ele>240.87</ele>
        <time>2016-09-06T09:13:25.000Z</time>
      </trkpt>
      <trkpt lat="47.22592" lon="6.04746">
        <ele>241.136</ele>
        <time>2016-09-06T09:13:26.000Z</time>
      </trkpt>
      <trkpt lat="47.22593" lon="6.04739">
        <ele>242.321</ele>
        <time>2016-09-06T09:13:27.000Z</time>
      </trkpt>
      <trkpt lat="47.22593" lon="6.04733">
        <ele>242.627</ele>
        <time>2016-09-06T09:13:28.000Z</time>
      </trkpt>
      <trkpt lat="47.22591" lon="6.04726">
        <ele>241.73</ele>
        <time>2016-09-06T09:13:29.000Z</time>
      </trkpt>
      <trkpt lat="47.22592" lon="6.0472">
        <ele>242.18</ele>
        <time>2016-09-06T09:13:30.000Z</time>
      </trkpt>
      <trkpt lat="47.22592" lon="6.04714">
        <ele>243.233</ele>
        <time>2016-09-06T09:13:31.000Z</time>
      </trkpt>
      <trkpt lat="47.22591" lon="6.04708">
        <ele>243.209</ele>
        <time>2016-09-06T09:13:32.000Z</time>
      </trkpt>
      <trkpt lat="47.22591" lon="6.047">
        <ele>242.587</ele>
        <time>2016-09-06T09:13:33.000Z</time>
      </trkpt>
      <trkpt lat="47.2259" lon="6.04695">
        <ele>241.92</ele>
        <time>2016-09-06T09:13:34.000Z</time>
      </trkpt>
      <trkpt lat="47.22589" lon="6.04688">
        <ele>242.061</ele>
        <time>2016-09-06T09:13:35.000Z</time>
      </trkpt>
      <trkpt lat="47.22589" lon="6.04682">
        <ele>242.959</ele>
        <time>2016-09-06T09:13:36.000Z</time>
      </trkpt>
      <trkpt lat="47.22589" lon="6.04676">
        <ele>242.559</ele>
        <time>2016-09-06T09:13:37.000Z</time>
      </trkpt>
      <trkpt lat="47.22587" lon="6.04668">
        <ele>241.725</ele>
        <time>2016-09-06T09:13:38.000Z</time>
      </trkpt>
      <trkpt lat="47.22587" lon="6.04662">
        <ele>241.58</ele>
        <time>2016-09-06T09:13:39.000Z</time>
      </trkpt>
      <trkpt lat="47.22586" lon="6.04654">
        <ele>240.531</ele>
        <time>2016-09-06T09:13:40.000Z</time>
      </trkpt>
      <trkpt lat="47.22585" lon="6.04648">
        <ele>240.315</ele>
        <time>2016-09-06T09:13:41.000Z</time>
      </trkpt>
      <trkpt lat="47.22585" lon="6.0464">
        <ele>240.596</ele>
        <time>2016-09-06T09:13:42.000Z</time>
      </trkpt>
      <trkpt lat="47.22584" lon="6.04634">
        <ele>240.155</ele>
        <time>2016-09-06T09:13:43.000Z</time>
      </trkpt>
      <trkpt lat="47.22584" lon="6.04627">
        <ele>240.663</ele>
        <time>2016-09-06T09:13:44.000Z</time>
      </trkpt>
      <trkpt lat="47.22584" lon="6.0462">
        <ele>240.022</ele>
        <time>2016-09-06T09:13:45.000Z</time>
      </trkpt>
      <trkpt lat="47.22583" lon="6.04613">
        <ele>239.387</ele>
        <time>2016-09-06T09:13:46.000Z</time>
      </trkpt>
      <trkpt lat="47.22582" lon="6.04607">
        <ele>240.577</ele>
        <time>2016-09-06T09:13:47.000Z</time>
      </trkpt>
      <trkpt lat="47.22581" lon="6.046">
        <ele>240.439</ele>
        <time>2016-09-06T09:13:48.000Z</time>
      </trkpt>
      <trkpt lat="47.22581" lon="6.04593">
        <ele>240.348</ele>
        <time>2016-09-06T09:13:49.000Z</time>
      </trkpt>
      <trkpt lat="47.22581" lon="6.04586">
        <ele>240.205</ele>
        <time>2016-09-06T09:13:50.000Z</time>
      </trkpt>
      <trkpt lat="47.22581" lon="6.0458">
        <ele>239.228</ele>
        <time>2016-09-06T09:13:51.000Z</time>
      </trkpt>
      <trkpt lat="47.2258" lon="6.04573">
        <ele>238.567</ele>
        <time>2016-09-06T09:13:52.000Z</time>
      </trkpt>
      <trkpt lat="47.2258" lon="6.04567">
        <ele>238.634</ele>
        <time>2016-09-06T09:13:53.000Z</time>
      </trkpt>
      <trkpt lat="47.22578" lon="6.0456">
        <ele>237.69</ele>
        <time>2016-09-06T09:13:54.000Z</time>
      </trkpt>
      <trkpt lat="47.22578" lon="6.04555">
        <ele>237.621</ele>
        <time>2016-09-06T09:13:55.000Z</time>
      </trkpt>
      <trkpt lat="47.22577" lon="6.04548">
        <ele>237.094</ele>
        <time>2016-09-06T09:13:56.000Z</time>
      </trkpt>
      <trkpt lat="47.22577" lon="6.04541">
        <ele>237.908</ele>
        <time>2016-09-06T09:13:57.000Z</time>
      </trkpt>
      <trkpt lat="47.22577" lon="6.04535">
        <ele>237.582</ele>
        <time>2016-09-06T09:13:58.000Z</time>
      </trkpt>
      <trkpt lat="47.22577" lon="6.04528">
        <ele>237.521</ele>
        <time>2016-09-06T09:13:59.000Z</time>
      </trkpt>
      <trkpt lat="47.22577" lon="6.04522">
        <ele>239.039</ele>
        <time>2016-09-06T09:14:00.000Z</time>
      </trkpt>
      <trkpt lat="47.22577" lon="6.04516">
        <ele>238.253</ele>
        <time>2016-09-06T09:14:01.000Z</time>
      </trkpt>
      <trkpt lat="47.22577" lon="6.04509">
        <ele>238.812</ele>
        <time>2016-09-06T09:14:02.000Z</time>
      </trkpt>
      <trkpt lat="47.22578" lon="6.04503">
        <ele>239.646</ele>
        <time>2016-09-06T09:14:03.000Z</time>
      </trkpt>
      <trkpt lat="47.22577" lon="6.04497">
        <ele>239.967</ele>
        <time>2016-09-06T09:14:04.000Z</time>
      </trkpt>
      <trkpt lat="47.22577" lon="6.0449">
        <ele>237.966</ele>
        <time>2016-09-06T09:14:05.000Z</time>
      </trkpt>
      <trkpt lat="47.22578" lon="6.04483">
        <ele>237.447</ele>
        <time>2016-09-06T09:14:06.000Z</time>
      </trkpt>
      <trkpt lat="47.22578" lon="6.04476">
        <ele>236.57</ele>
        <time>2016-09-06T09:14:07.000Z</time>
      </trkpt>
      <trkpt lat="47.22579" lon="6.0447">
        <ele>237.142</ele>
        <time>2016-09-06T09:14:08.000Z</time>
      </trkpt>
      <trkpt lat="47.2258" lon="6.04464">
        <ele>236.535</ele>
        <time>2016-09-06T09:14:09.000Z</time>
      </trkpt>
      <trkpt lat="47.2258" lon="6.04457">
        <ele>235.6</ele>
        <time>2016-09-06T09:14:10.000Z</time>
      </trkpt>
      <trkpt lat="47.22581" lon="6.04451">
        <ele>236.372</ele>
        <time>2016-09-06T09:14:11.000Z</time>
      </trkpt>
      <trkpt lat="47.22582" lon="6.04445">
        <ele>235.453</ele>
        <time>2016-09-06T09:14:12.000Z</time>
      </trkpt>
      <trkpt lat="47.22583" lon="6.04438">
        <ele>235.007</ele>
        <time>2016-09-06T09:14:13.000Z</time>
      </trkpt>
      <trkpt lat="47.22584" lon="6.04432">
        <ele>234.599</ele>
        <time>2016-09-06T09:14:14.000Z</time>
      </trkpt>
      <trkpt lat="47.22585" lon="6.04425">
        <ele>234.774</ele>
        <time>2016-09-06T09:14:15.000Z</time>
      </trkpt>
      <trkpt lat="47.22586" lon="6.04419">
        <ele>234.844</ele>
        <time>2016-09-06T09:14:16.000Z</time>
      </trkpt>
      <trkpt lat="47.22588" lon="6.04412">
        <ele>234.597</ele>
        <time>2016-09-06T09:14:17.000Z</time>
      </trkpt>
      <trkpt lat="47.22591" lon="6.04407">
        <ele>236.784</ele>
        <time>2016-09-06T09:14:18.000Z</time>
      </trkpt>
      <trkpt lat="47.22593" lon="6.04401">
        <ele>237.101</ele>
        <time>2016-09-06T09:14:19.000Z</time>
      </trkpt>
      <trkpt lat="47.22594" lon="6.04395">
        <ele>236.928</ele>
        <time>2016-09-06T09:14:20.000Z</time>
      </trkpt>
      <trkpt lat="47.22595" lon="6.04389">
        <ele>236.838</ele>
        <time>2016-09-06T09:14:21.000Z</time>
      </trkpt>
      <trkpt lat="47.22595" lon="6.04383">
        <ele>236.95</ele>
        <time>2016-09-06T09:14:22.000Z</time>
      </trkpt>
      <trkpt lat="47.22596" lon="6.04378">
        <ele>236.705</ele>
        <time>2016-09-06T09:14:23.000Z</time>
      </trkpt>
      <trkpt lat="47.22596" lon="6.04372">
        <ele>237.088</ele>
        <time>2016-09-06T09:14:24.000Z</time>
      </trkpt>
      <trkpt lat="47.22597" lon="6.04366">
        <ele>237.31</ele>
        <time>2016-09-06T09:14:25.000Z</time>
      </trkpt>
      <trkpt lat="47.22598" lon="6.04361">
        <ele>237.303</ele>
        <time>2016-09-06T09:14:26.000Z</time>
      </trkpt>
      <trkpt lat="47.22599" lon="6.04356">
        <ele>237.443</ele>
        <time>2016-09-06T09:14:27.000Z</time>
      </trkpt>
      <trkpt lat="47.226" lon="6.04351">
        <ele>238.117</ele>
        <time>2016-09-06T09:14:28.000Z</time>
      </trkpt>
      <trkpt lat="47.22601" lon="6.04346">
        <ele>237.446</ele>
        <time>2016-09-06T09:14:29.000Z</time>
      </trkpt>
      <trkpt lat="47.22601" lon="6.0434">
        <ele>235.972</ele>
        <time>2016-09-06T09:14:30.000Z</time>
      </trkpt>
      <trkpt lat="47.22602" lon="6.04334">
        <ele>236.018</ele>
        <time>2016-09-06T09:14:31.000Z</time>
      </trkpt>
      <trkpt lat="47.22602" lon="6.04329">
        <ele>235.811</ele>
        <time>2016-09-06T09:14:32.000Z</time>
      </trkpt>
      <trkpt lat="47.22603" lon="6.04323">
        <ele>236.009</ele>
        <time>2016-09-06T09:14:33.000Z</time>
      </trkpt>
      <trkpt lat="47.22604" lon="6.04317">
        <ele>235.862</ele>
        <time>2016-09-06T09:14:34.000Z</time>
      </trkpt>
      <trkpt lat="47.22604" lon="6.04311">
        <ele>234.514</ele>
        <time>2016-09-06T09:14:35.000Z</time>
      </trkpt>
      <trkpt lat="47.22605" lon="6.04305">
        <ele>233.777</ele>
        <time>2016-09-06T09:14:36.000Z</time>
      </trkpt>
      <trkpt lat="47.22606" lon="6.04299">
        <ele>234.155</ele>
        <time>2016-09-06T09:14:37.000Z</time>
      </trkpt>
      <trkpt lat="47.22607" lon="6.04294">
        <ele>233.745</ele>
        <time>2016-09-06T09:14:38.000Z</time>
      </trkpt>
      <trkpt lat="47.22609" lon="6.04288">
        <ele>233.747</ele>
        <time>2016-09-06T09:14:39.000Z</time>
      </trkpt>
      <trkpt lat="47.2261" lon="6.04282">
        <ele>234.142</ele>
        <time>2016-09-06T09:14:40.000Z</time>
      </trkpt>
      <trkpt lat="47.22612" lon="6.04276">
        <ele>233.742</ele>
        <time>2016-09-06T09:14:41.000Z</time>
      </trkpt>
      <trkpt lat="47.22613" lon="6.0427">
        <ele>233.354</ele>
        <time>2016-09-06T09:14:42.000Z</time>
      </trkpt>
      <trkpt lat="47.22615" lon="6.04264">
        <ele>233.596</ele>
        <time>2016-09-06T09:14:43.000Z</time>
      </trkpt>
      <trkpt lat="47.22616" lon="6.04258">
        <ele>233.743</ele>
        <time>2016-09-06T09:14:44.000Z</time>
      </trkpt>
      <trkpt lat="47.22618" lon="6.04252">
        <ele>234.325</ele>
        <time>2016-09-06T09:14:45.000Z</time>
      </trkpt>
      <trkpt lat="47.2262" lon="6.04246">
        <ele>234.875</ele>
        <time>2016-09-06T09:14:46.000Z</time>
      </trkpt>
      <trkpt lat="47.22622" lon="6.0424">
        <ele>234.472</ele>
        <time>2016-09-06T09:14:47.000Z</time>
      </trkpt>
      <trkpt lat="47.22626" lon="6.04234">
        <ele>235.675</ele>
        <time>2016-09-06T09:14:48.000Z</time>
      </trkpt>
      <trkpt lat="47.22628" lon="6.04228">
        <ele>236.381</ele>
        <time>2016-09-06T09:14:49.000Z</time>
      </trkpt>
      <trkpt lat="47.22631" lon="6.04222">
        <ele>237.113</ele>
        <time>2016-09-06T09:14:50.000Z</time>
      </trkpt>
      <trkpt lat="47.22633" lon="6.04216">
        <ele>237.602</ele>
        <time>2016-09-06T09:14:51.000Z</time>
      </trkpt>
      <trkpt lat="47.22635" lon="6.0421">
        <ele>237.306</ele>
        <time>2016-09-06T09:14:52.000Z</time>
      </trkpt>
      <trkpt lat="47.22637" lon="6.04205">
        <ele>238.176</ele>
        <time>2016-09-06T09:14:53.000Z</time>
      </trkpt>
      <trkpt lat="47.22638" lon="6.04199">
        <ele>238.001</ele>
        <time>2016-09-06T09:14:54.000Z</time>
      </trkpt>
      <trkpt lat="47.2264" lon="6.04194">
        <ele>238.24</ele>
        <time>2016-09-06T09:14:55.000Z</time>
      </trkpt>
      <trkpt lat="47.22641" lon="6.04188">
        <ele>238.17</ele>
        <time>2016-09-06T09:14:56.000Z</time>
      </trkpt>
      <trkpt lat="47.22643" lon="6.04182">
        <ele>238.238</ele>
        <time>2016-09-06T09:14:57.000Z</time>
      </trkpt>
      <trkpt lat="47.22644" lon="6.04176">
        <ele>238.365</ele>
        <time>2016-09-06T09:14:58.000Z</time>
      </trkpt>
      <trkpt lat="47.22646" lon="6.0417">
        <ele>238.66</ele>
        <time>2016-09-06T09:14:59.000Z</time>
      </trkpt>
      <trkpt lat="47.22647" lon="6.04165">
        <ele>238.441</ele>
        <time>2016-09-06T09:15:00.000Z</time>
      </trkpt>
      <trkpt lat="47.22649" lon="6.04159">
        <ele>238.347</ele>
        <time>2016-09-06T09:15:01.000Z</time>
      </trkpt>
      <trkpt lat="47.22651" lon="6.04153">
        <ele>238.025</ele>
        <time>2016-09-06T09:15:02.000Z</time>
      </trkpt>
      <trkpt lat="47.22652" lon="6.04147">
        <ele>238.02</ele>
        <time>2016-09-06T09:15:03.000Z</time>
      </trkpt>
      <trkpt lat="47.22654" lon="6.04141">
        <ele>238.032</ele>
        <time>2016-09-06T09:15:04.000Z</time>
      </trkpt>
      <trkpt lat="47.22656" lon="6.04135">
        <ele>237.987</ele>
        <time>2016-09-06T09:15:05.000Z</time>
      </trkpt>
      <trkpt lat="47.22659" lon="6.04128">
        <ele>238.169</ele>
        <time>2016-09-06T09:15:06.000Z</time>
      </trkpt>
      <trkpt lat="47.22661" lon="6.04122">
        <ele>238.018</ele>
        <time>2016-09-06T09:15:07.000Z</time>
      </trkpt>
      <trkpt lat="47.22663" lon="6.04116">
        <ele>238.266</ele>
        <time>2016-09-06T09:15:08.000Z</time>
      </trkpt>
      <trkpt lat="47.22665" lon="6.04111">
        <ele>237.983</ele>
        <time>2016-09-06T09:15:09.000Z</time>
      </trkpt>
      <trkpt lat="47.22668" lon="6.04105">
        <ele>238.271</ele>
        <time>2016-09-06T09:15:10.000Z</time>
      </trkpt>
      <trkpt lat="47.2267" lon="6.04099">
        <ele>238.143</ele>
        <time>2016-09-06T09:15:11.000Z</time>
      </trkpt>
      <trkpt lat="47.22672" lon="6.04094">
        <ele>238.779</ele>
        <time>2016-09-06T09:15:12.000Z</time>
      </trkpt>
      <trkpt lat="47.22674" lon="6.04088">
        <ele>239.388</ele>
        <time>2016-09-06T09:15:13.000Z</time>
      </trkpt>
      <trkpt lat="47.22676" lon="6.04083">
        <ele>239.622</ele>
        <time>2016-09-06T09:15:14.000Z</time>
      </trkpt>
      <trkpt lat="47.2268" lon="6.04077">
        <ele>239.592</ele>
        <time>2016-09-06T09:15:15.000Z</time>
      </trkpt>
      <trkpt lat="47.22681" lon="6.04072">
        <ele>237.979</ele>
        <time>2016-09-06T09:15:16.000Z</time>
      </trkpt>
      <trkpt lat="47.22684" lon="6.04067">
        <ele>237.987</ele>
        <time>2016-09-06T09:15:17.000Z</time>
      </trkpt>
      <trkpt lat="47.22687" lon="6.04062">
        <ele>237.981</ele>
        <time>2016-09-06T09:15:18.000Z</time>
      </trkpt>
      <trkpt lat="47.22688" lon="6.04055">
        <ele>235.322</ele>
        <time>2016-09-06T09:15:19.000Z</time>
      </trkpt>
      <trkpt lat="47.2269" lon="6.04049">
        <ele>235.625</ele>
        <time>2016-09-06T09:15:20.000Z</time>
      </trkpt>
      <trkpt lat="47.22692" lon="6.04044">
        <ele>235.426</ele>
        <time>2016-09-06T09:15:21.000Z</time>
      </trkpt>
      <trkpt lat="47.22695" lon="6.04039">
        <ele>235.603</ele>
        <time>2016-09-06T09:15:22.000Z</time>
      </trkpt>
      <trkpt lat="47.22697" lon="6.04034">
        <ele>235.364</ele>
        <time>2016-09-06T09:15:23.000Z</time>
      </trkpt>
      <trkpt lat="47.227" lon="6.04028">
        <ele>234.377</ele>
        <time>2016-09-06T09:15:24.000Z</time>
      </trkpt>
      <trkpt lat="47.22702" lon="6.04023">
        <ele>234.786</ele>
        <time>2016-09-06T09:15:25.000Z</time>
      </trkpt>
      <trkpt lat="47.22704" lon="6.04018">
        <ele>235.103</ele>
        <time>2016-09-06T09:15:26.000Z</time>
      </trkpt>
      <trkpt lat="47.22707" lon="6.04013">
        <ele>235.798</ele>
        <time>2016-09-06T09:15:27.000Z</time>
      </trkpt>
      <trkpt lat="47.2271" lon="6.04009">
        <ele>236.178</ele>
        <time>2016-09-06T09:15:28.000Z</time>
      </trkpt>
      <trkpt lat="47.22712" lon="6.04004">
        <ele>236.098</ele>
        <time>2016-09-06T09:15:29.000Z</time>
      </trkpt>
      <trkpt lat="47.22715" lon="6.03999">
        <ele>236.453</ele>
        <time>2016-09-06T09:15:30.000Z</time>
      </trkpt>
      <trkpt lat="47.22717" lon="6.03994">
        <ele>236.717</ele>
        <time>2016-09-06T09:15:31.000Z</time>
      </trkpt>
      <trkpt lat="47.2272" lon="6.03989">
        <ele>236.477</ele>
        <time>2016-09-06T09:15:32.000Z</time>
      </trkpt>
      <trkpt lat="47.22723" lon="6.03985">
        <ele>238.103</ele>
        <time>2016-09-06T09:15:33.000Z</time>
      </trkpt>
      <trkpt lat="47.22726" lon="6.0398">
        <ele>237.921</ele>
        <time>2016-09-06T09:15:34.000Z</time>
      </trkpt>
      <trkpt lat="47.22729" lon="6.03976">
        <ele>238.648</ele>
        <time>2016-09-06T09:15:35.000Z</time>
      </trkpt>
      <trkpt lat="47.22731" lon="6.03967">
        <ele>236.09</ele>
        <time>2016-09-06T09:15:36.000Z</time>
      </trkpt>
      <trkpt lat="47.22732" lon="6.0396">
        <ele>235.605</ele>
        <time>2016-09-06T09:15:37.000Z</time>
      </trkpt>
      <trkpt lat="47.22736" lon="6.03955">
        <ele>235.004</ele>
        <time>2016-09-06T09:15:38.000Z</time>
      </trkpt>
      <trkpt lat="47.22738" lon="6.03949">
        <ele>234.88</ele>
        <time>2016-09-06T09:15:39.000Z</time>
      </trkpt>
      <trkpt lat="47.22742" lon="6.03944">
        <ele>234.999</ele>
        <time>2016-09-06T09:15:40.000Z</time>
      </trkpt>
      <trkpt lat="47.22745" lon="6.0394">
        <ele>235.068</ele>
        <time>2016-09-06T09:15:41.000Z</time>
      </trkpt>
      <trkpt lat="47.22748" lon="6.03934">
        <ele>235.091</ele>
        <time>2016-09-06T09:15:42.000Z</time>
      </trkpt>
      <trkpt lat="47.2275" lon="6.03929">
        <ele>235.341</ele>
        <time>2016-09-06T09:15:43.000Z</time>
      </trkpt>
      <trkpt lat="47.22755" lon="6.03925">
        <ele>236.132</ele>
        <time>2016-09-06T09:15:44.000Z</time>
      </trkpt>
      <trkpt lat="47.22757" lon="6.03919">
        <ele>234.298</ele>
        <time>2016-09-06T09:15:45.000Z</time>
      </trkpt>
      <trkpt lat="47.22761" lon="6.03915">
        <ele>232.999</ele>
        <time>2016-09-06T09:15:46.000Z</time>
      </trkpt>
      <trkpt lat="47.22764" lon="6.0391">
        <ele>232.438</ele>
        <time>2016-09-06T09:15:47.000Z</time>
      </trkpt>
      <trkpt lat="47.22768" lon="6.03907">
        <ele>233.08</ele>
        <time>2016-09-06T09:15:48.000Z</time>
      </trkpt>
      <trkpt lat="47.22773" lon="6.03904">
        <ele>232.595</ele>
        <time>2016-09-06T09:15:49.000Z</time>
      </trkpt>
      <trkpt lat="47.22778" lon="6.03901">
        <ele>234.206</ele>
        <time>2016-09-06T09:15:50.000Z</time>
      </trkpt>
      <trkpt lat="47.2278" lon="6.03899">
        <ele>235.862</ele>
        <time>2016-09-06T09:15:51.000Z</time>
      </trkpt>
      <trkpt lat="47.22784" lon="6.03896">
        <ele>236.856</ele>
        <time>2016-09-06T09:15:52.000Z</time>
      </trkpt>
      <trkpt lat="47.22788" lon="6.03892">
        <ele>235.805</ele>
        <time>2016-09-06T09:15:53.000Z</time>
      </trkpt>
      <trkpt lat="47.22792" lon="6.03888">
        <ele>234.97</ele>
        <time>2016-09-06T09:15:54.000Z</time>
      </trkpt>
      <trkpt lat="47.22795" lon="6.03883">
        <ele>233.208</ele>
        <time>2016-09-06T09:15:55.000Z</time>
      </trkpt>
      <trkpt lat="47.228" lon="6.03881">
        <ele>234.514</ele>
        <time>2016-09-06T09:15:56.000Z</time>
      </trkpt>
      <trkpt lat="47.22803" lon="6.03878">
        <ele>233.517</ele>
        <time>2016-09-06T09:15:57.000Z</time>
      </trkpt>
      <trkpt lat="47.22808" lon="6.03875">
        <ele>232.792</ele>
        <time>2016-09-06T09:15:58.000Z</time>
      </trkpt>
      <trkpt lat="47.22813" lon="6.03873">
        <ele>233.739</ele>
        <time>2016-09-06T09:15:59.000Z</time>
      </trkpt>
      <trkpt lat="47.22817" lon="6.0387">
        <ele>233.944</ele>
        <time>2016-09-06T09:16:00.000Z</time>
      </trkpt>
      <trkpt lat="47.22822" lon="6.03869">
        <ele>235.416</ele>
        <time>2016-09-06T09:16:01.000Z</time>
      </trkpt>
      <trkpt lat="47.22826" lon="6.03866">
        <ele>235.451</ele>
        <time>2016-09-06T09:16:02.000Z</time>
      </trkpt>
      <trkpt lat="47.2283" lon="6.03866">
        <ele>236.043</ele>
        <time>2016-09-06T09:16:03.000Z</time>
      </trkpt>
      <trkpt lat="47.22834" lon="6.03865">
        <ele>235.617</ele>
        <time>2016-09-06T09:16:04.000Z</time>
      </trkpt>
      <trkpt lat="47.22838" lon="6.03863">
        <ele>236.451</ele>
        <time>2016-09-06T09:16:05.000Z</time>
      </trkpt>
      <trkpt lat="47.22842" lon="6.03861">
        <ele>237.181</ele>
        <time>2016-09-06T09:16:06.000Z</time>
      </trkpt>
      <trkpt lat="47.22846" lon="6.0386">
        <ele>236.36</ele>
        <time>2016-09-06T09:16:07.000Z</time>
      </trkpt>
      <trkpt lat="47.22851" lon="6.03858">
        <ele>235.331</ele>
        <time>2016-09-06T09:16:08.000Z</time>
      </trkpt>
      <trkpt lat="47.22854" lon="6.03857">
        <ele>237.937</ele>
        <time>2016-09-06T09:16:09.000Z</time>
      </trkpt>
      <trkpt lat="47.22858" lon="6.03856">
        <ele>239.682</ele>
        <time>2016-09-06T09:16:10.000Z</time>
      </trkpt>
      <trkpt lat="47.22862" lon="6.03854">
        <ele>239.027</ele>
        <time>2016-09-06T09:16:11.000Z</time>
      </trkpt>
      <trkpt lat="47.22866" lon="6.03852">
        <ele>239.815</ele>
        <time>2016-09-06T09:16:12.000Z</time>
      </trkpt>
      <trkpt lat="47.22869" lon="6.03849">
        <ele>239.971</ele>
        <time>2016-09-06T09:16:13.000Z</time>
      </trkpt>
      <trkpt lat="47.22873" lon="6.03846">
        <ele>238.751</ele>
        <time>2016-09-06T09:16:14.000Z</time>
      </trkpt>
      <trkpt lat="47.22877" lon="6.03843">
        <ele>237.653</ele>
        <time>2016-09-06T09:16:15.000Z</time>
      </trkpt>
      <trkpt lat="47.22881" lon="6.0384">
        <ele>239.189</ele>
        <time>2016-09-06T09:16:16.000Z</time>
      </trkpt>
      <trkpt lat="47.22885" lon="6.03836">
        <ele>238.985</ele>
        <time>2016-09-06T09:16:17.000Z</time>
      </trkpt>
      <trkpt lat="47.22888" lon="6.03833">
        <ele>240.159</ele>
        <time>2016-09-06T09:16:18.000Z</time>
      </trkpt>
      <trkpt lat="47.22892" lon="6.03829">
        <ele>240.697</ele>
        <time>2016-09-06T09:16:19.000Z</time>
      </trkpt>
      <trkpt lat="47.22896" lon="6.03827">
        <ele>241.039</ele>
        <time>2016-09-06T09:16:20.000Z</time>
      </trkpt>
      <trkpt lat="47.229" lon="6.03824">
        <ele>241.06</ele>
        <time>2016-09-06T09:16:21.000Z</time>
      </trkpt>
      <trkpt lat="47.22903" lon="6.0382">
        <ele>240.648</ele>
        <time>2016-09-06T09:16:22.000Z</time>
      </trkpt>
      <trkpt lat="47.22907" lon="6.03816">
        <ele>240.735</ele>
        <time>2016-09-06T09:16:23.000Z</time>
      </trkpt>
      <trkpt lat="47.22911" lon="6.03813">
        <ele>240.335</ele>
        <time>2016-09-06T09:16:24.000Z</time>
      </trkpt>
      <trkpt lat="47.22915" lon="6.0381">
        <ele>239.577</ele>
        <time>2016-09-06T09:16:25.000Z</time>
      </trkpt>
      <trkpt lat="47.22919" lon="6.03807">
        <ele>240.282</ele>
        <time>2016-09-06T09:16:26.000Z</time>
      </trkpt>
      <trkpt lat="47.22921" lon="6.03803">
        <ele>239.556</ele>
        <time>2016-09-06T09:16:27.000Z</time>
      </trkpt>
      <trkpt lat="47.22925" lon="6.03799">
        <ele>239.444</ele>
        <time>2016-09-06T09:16:28.000Z</time>
      </trkpt>
      <trkpt lat="47.22928" lon="6.03795">
        <ele>239.316</ele>
        <time>2016-09-06T09:16:29.000Z</time>
      </trkpt>
      <trkpt lat="47.22932" lon="6.03792">
        <ele>238.972</ele>
        <time>2016-09-06T09:16:30.000Z</time>
      </trkpt>
      <trkpt lat="47.22936" lon="6.03788">
        <ele>239.291</ele>
        <time>2016-09-06T09:16:31.000Z</time>
      </trkpt>
      <trkpt lat="47.2294" lon="6.03785">
        <ele>238.764</ele>
        <time>2016-09-06T09:16:32.000Z</time>
      </trkpt>
      <trkpt lat="47.22943" lon="6.03782">
        <ele>238.482</ele>
        <time>2016-09-06T09:16:33.000Z</time>
      </trkpt>
      <trkpt lat="47.22947" lon="6.03779">
        <ele>238.537</ele>
        <time>2016-09-06T09:16:34.000Z</time>
      </trkpt>
      <trkpt lat="47.22951" lon="6.03776">
        <ele>238.629</ele>
        <time>2016-09-06T09:16:35.000Z</time>
      </trkpt>
      <trkpt lat="47.22955" lon="6.03773">
        <ele>238.965</ele>
        <time>2016-09-06T09:16:36.000Z</time>
      </trkpt>
      <trkpt lat="47.22958" lon="6.0377">
        <ele>240.145</ele>
        <time>2016-09-06T09:16:37.000Z</time>
      </trkpt>
      <trkpt lat="47.22962" lon="6.03767">
        <ele>240.295</ele>
        <time>2016-09-06T09:16:38.000Z</time>
      </trkpt>
      <trkpt lat="47.22966" lon="6.03764">
        <ele>240.039</ele>
        <time>2016-09-06T09:16:39.000Z</time>
      </trkpt>
      <trkpt lat="47.22971" lon="6.03763">
        <ele>240.695</ele>
        <time>2016-09-06T09:16:40.000Z</time>
      </trkpt>
      <trkpt lat="47.22974" lon="6.0376">
        <ele>241.342</ele>
        <time>2016-09-06T09:16:41.000Z</time>
      </trkpt>
      <trkpt lat="47.22977" lon="6.03757">
        <ele>240.586</ele>
        <time>2016-09-06T09:16:42.000Z</time>
      </trkpt>
      <trkpt lat="47.22981" lon="6.03753">
        <ele>240.208</ele>
        <time>2016-09-06T09:16:43.000Z</time>
      </trkpt>
      <trkpt lat="47.22983" lon="6.0375">
        <ele>240.909</ele>
        <time>2016-09-06T09:16:44.000Z</time>
      </trkpt>
      <trkpt lat="47.22987" lon="6.03747">
        <ele>242.067</ele>
        <time>2016-09-06T09:16:45.000Z</time>
      </trkpt>
      <trkpt lat="47.2299" lon="6.03744">
        <ele>241.761</ele>
        <time>2016-09-06T09:16:46.000Z</time>
      </trkpt>
      <trkpt lat="47.22995" lon="6.03741">
        <ele>240.684</ele>
        <time>2016-09-06T09:16:47.000Z</time>
      </trkpt>
      <trkpt lat="47.22998" lon="6.03739">
        <ele>241.111</ele>
        <time>2016-09-06T09:16:48.000Z</time>
      </trkpt>
      <trkpt lat="47.23001" lon="6.03736">
        <ele>241.662</ele>
        <time>2016-09-06T09:16:49.000Z</time>
      </trkpt>
      <trkpt lat="47.23005" lon="6.03733">
        <ele>242.047</ele>
        <time>2016-09-06T09:16:50.000Z</time>
      </trkpt>
      <trkpt lat="47.23009" lon="6.0373">
        <ele>241.89</ele>
        <time>2016-09-06T09:16:51.000Z</time>
      </trkpt>
      <trkpt lat="47.23012" lon="6.03727">
        <ele>241.499</ele>
        <time>2016-09-06T09:16:52.000Z</time>
      </trkpt>
      <trkpt lat="47.23016" lon="6.03724">
        <ele>243.198</ele>
        <time>2016-09-06T09:16:53.000Z</time>
      </trkpt>
      <trkpt lat="47.2302" lon="6.03721">
        <ele>240.942</ele>
        <time>2016-09-06T09:16:54.000Z</time>
      </trkpt>
      <trkpt lat="47.23024" lon="6.03718">
        <ele>241.586</ele>
        <time>2016-09-06T09:16:55.000Z</time>
      </trkpt>
      <trkpt lat="47.23027" lon="6.03714">
        <ele>241.524</ele>
        <time>2016-09-06T09:16:56.000Z</time>
      </trkpt>
      <trkpt lat="47.2303" lon="6.03711">
        <ele>241.611</ele>
        <time>2016-09-06T09:16:57.000Z</time>
      </trkpt>
      <trkpt lat="47.23034" lon="6.03708">
        <ele>242.272</ele>
        <time>2016-09-06T09:16:58.000Z</time>
      </trkpt>
      <trkpt lat="47.23038" lon="6.03705">
        <ele>241.015</ele>
        <time>2016-09-06T09:16:59.000Z</time>
      </trkpt>
      <trkpt lat="47.23041" lon="6.03703">
        <ele>241.187</ele>
        <time>2016-09-06T09:17:00.000Z</time>
      </trkpt>
      <trkpt lat="47.23044" lon="6.037">
        <ele>240.9</ele>
        <time>2016-09-06T09:17:01.000Z</time>
      </trkpt>
      <trkpt lat="47.23047" lon="6.03697">
        <ele>240.739</ele>
        <time>2016-09-06T09:17:02.000Z</time>
      </trkpt>
      <trkpt lat="47.23051" lon="6.03694">
        <ele>240.032</ele>
        <time>2016-09-06T09:17:03.000Z</time>
      </trkpt>
      <trkpt lat="47.23054" lon="6.03691">
        <ele>239.63</ele>
        <time>2016-09-06T09:17:04.000Z</time>
      </trkpt>
      <trkpt lat="47.23057" lon="6.03688">
        <ele>238.432</ele>
        <time>2016-09-06T09:17:05.000Z</time>
      </trkpt>
      <trkpt lat="47.23061" lon="6.03686">
        <ele>237.942</ele>
        <time>2016-09-06T09:17:06.000Z</time>
      </trkpt>
      <trkpt lat="47.23064" lon="6.03683">
        <ele>237.332</ele>
        <time>2016-09-06T09:17:07.000Z</time>
      </trkpt>
      <trkpt lat="47.23068" lon="6.0368">
        <ele>237.021</ele>
        <time>2016-09-06T09:17:08.000Z</time>
      </trkpt>
      <trkpt lat="47.23072" lon="6.03676">
        <ele>235.83</ele>
        <time>2016-09-06T09:17:09.000Z</time>
      </trkpt>
      <trkpt lat="47.23075" lon="6.03673">
        <ele>235.689</ele>
        <time>2016-09-06T09:17:10.000Z</time>
      </trkpt>
      <trkpt lat="47.23078" lon="6.0367">
        <ele>235.424</ele>
        <time>2016-09-06T09:17:11.000Z</time>
      </trkpt>
      <trkpt lat="47.23082" lon="6.03667">
        <ele>235.683</ele>
        <time>2016-09-06T09:17:12.000Z</time>
      </trkpt>
      <trkpt lat="47.23085" lon="6.03664">
        <ele>236.134</ele>
        <time>2016-09-06T09:17:13.000Z</time>
      </trkpt>
      <trkpt lat="47.23089" lon="6.03661">
        <ele>236.874</ele>
        <time>2016-09-06T09:17:14.000Z</time>
      </trkpt>
      <trkpt lat="47.23092" lon="6.03658">
        <ele>236.94</ele>
        <time>2016-09-06T09:17:15.000Z</time>
      </trkpt>
      <trkpt lat="47.23095" lon="6.03655">
        <ele>236.891</ele>
        <time>2016-09-06T09:17:16.000Z</time>
      </trkpt>
      <trkpt lat="47.23098" lon="6.03652">
        <ele>236.699</ele>
        <time>2016-09-06T09:17:17.000Z</time>
      </trkpt>
      <trkpt lat="47.23101" lon="6.03649">
        <ele>236.806</ele>
        <time>2016-09-06T09:17:18.000Z</time>
      </trkpt>
      <trkpt lat="47.23104" lon="6.03647">
        <ele>237.42</ele>
        <time>2016-09-06T09:17:19.000Z</time>
      </trkpt>
      <trkpt lat="47.23106" lon="6.03644">
        <ele>238.192</ele>
        <time>2016-09-06T09:17:20.000Z</time>
      </trkpt>
      <trkpt lat="47.23108" lon="6.03642">
        <ele>237.636</ele>
        <time>2016-09-06T09:17:21.000Z</time>
      </trkpt>
      <trkpt lat="47.2311" lon="6.0364">
        <ele>236.911</ele>
        <time>2016-09-06T09:17:22.000Z</time>
      </trkpt>
      <trkpt lat="47.23111" lon="6.03638">
        <ele>236.245</ele>
        <time>2016-09-06T09:17:23.000Z</time>
      </trkpt>
      <trkpt lat="47.23113" lon="6.03637">
        <ele>236.822</ele>
        <time>2016-09-06T09:17:24.000Z</time>
      </trkpt>
      <trkpt lat="47.23115" lon="6.03636">
        <ele>236.842</ele>
        <time>2016-09-06T09:17:25.000Z</time>
      </trkpt>
      <trkpt lat="47.23117" lon="6.03634">
        <ele>236.421</ele>
        <time>2016-09-06T09:17:26.000Z</time>
      </trkpt>
      <trkpt lat="47.23119" lon="6.03633">
        <ele>236.721</ele>
        <time>2016-09-06T09:17:27.000Z</time>
      </trkpt>
      <trkpt lat="47.23121" lon="6.03631">
        <ele>236.815</ele>
        <time>2016-09-06T09:17:28.000Z</time>
      </trkpt>
      <trkpt lat="47.23125" lon="6.03628">
        <ele>236.049</ele>
        <time>2016-09-06T09:17:29.000Z</time>
      </trkpt>
      <trkpt lat="47.23127" lon="6.03624">
        <ele>236.394</ele>
        <time>2016-09-06T09:17:30.000Z</time>
      </trkpt>
      <trkpt lat="47.23129" lon="6.0362">
        <ele>236.092</ele>
        <time>2016-09-06T09:17:31.000Z</time>
      </trkpt>
      <trkpt lat="47.23131" lon="6.03617">
        <ele>236.494</ele>
        <time>2016-09-06T09:17:32.000Z</time>
      </trkpt>
      <trkpt lat="47.23133" lon="6.03613">
        <ele>235.887</ele>
        <time>2016-09-06T09:17:33.000Z</time>
      </trkpt>
      <trkpt lat="47.23135" lon="6.03609">
        <ele>236.746</ele>
        <time>2016-09-06T09:17:34.000Z</time>
      </trkpt>
      <trkpt lat="47.23137" lon="6.03606">
        <ele>236.965</ele>
        <time>2016-09-06T09:17:35.000Z</time>
      </trkpt>
      <trkpt lat="47.23138" lon="6.03603">
        <ele>236.358</ele>
        <time>2016-09-06T09:17:36.000Z</time>
      </trkpt>
      <trkpt lat="47.23139" lon="6.03599">
        <ele>236.407</ele>
        <time>2016-09-06T09:17:37.000Z</time>
      </trkpt>
      <trkpt lat="47.2314" lon="6.03597">
        <ele>236.969</ele>
        <time>2016-09-06T09:17:38.000Z</time>
      </trkpt>
      <trkpt lat="47.23141" lon="6.03594">
        <ele>236.798</ele>
        <time>2016-09-06T09:17:39.000Z</time>
      </trkpt>
      <trkpt lat="47.23142" lon="6.03591">
        <ele>237.75</ele>
        <time>2016-09-06T09:17:40.000Z</time>
      </trkpt>
      <trkpt lat="47.23143" lon="6.03589">
        <ele>237.514</ele>
        <time>2016-09-06T09:17:41.000Z</time>
      </trkpt>
      <trkpt lat="47.23143" lon="6.03587">
        <ele>236.409</ele>
        <time>2016-09-06T09:17:42.000Z</time>
      </trkpt>
      <trkpt lat="47.23144" lon="6.03585">
        <ele>235.868</ele>
        <time>2016-09-06T09:17:43.000Z</time>
      </trkpt>
      <trkpt lat="47.23144" lon="6.03583">
        <ele>235.826</ele>
        <time>2016-09-06T09:17:44.000Z</time>
      </trkpt>
      <trkpt lat="47.23144" lon="6.03583">
        <ele>235.737</ele>
        <time>2016-09-06T09:17:45.000Z</time>
      </trkpt>
      <trkpt lat="47.23144" lon="6.03582">
        <ele>236.219</ele>
        <time>2016-09-06T09:17:46.000Z</time>
      </trkpt>
      <trkpt lat="47.23143" lon="6.0358">
        <ele>236.175</ele>
        <time>2016-09-06T09:17:47.000Z</time>
      </trkpt>
      <trkpt lat="47.23142" lon="6.03577">
        <ele>236.157</ele>
        <time>2016-09-06T09:17:48.000Z</time>
      </trkpt>
      <trkpt lat="47.23141" lon="6.03575">
        <ele>234.857</ele>
        <time>2016-09-06T09:17:49.000Z</time>
      </trkpt>
      <trkpt lat="47.23141" lon="6.03574">
        <ele>234.654</ele>
        <time>2016-09-06T09:17:50.000Z</time>
      </trkpt>
      <trkpt lat="47.2314" lon="6.03573">
        <ele>234.5</ele>
        <time>2016-09-06T09:17:51.000Z</time>
      </trkpt>
      <trkpt lat="47.23141" lon="6.03573">
        <ele>234.341</ele>
        <time>2016-09-06T09:17:52.000Z</time>
      </trkpt>
      <trkpt lat="47.23141" lon="6.03573">
        <ele>234.121</ele>
        <time>2016-09-06T09:17:53.000Z</time>
      </trkpt>
      <trkpt lat="47.23141" lon="6.03573">
        <ele>234.496</ele>
        <time>2016-09-06T09:17:54.000Z</time>
      </trkpt>
      <trkpt lat="47.23142" lon="6.03573">
        <ele>234.361</ele>
        <time>2016-09-06T09:17:55.000Z</time>
      </trkpt>
      <trkpt lat="47.23142" lon="6.03572">
        <ele>234.671</ele>
        <time>2016-09-06T09:17:56.000Z</time>
      </trkpt>
      <trkpt lat="47.23143" lon="6.03571">
        <ele>233.782</ele>
        <time>2016-09-06T09:17:57.000Z</time>
      </trkpt>
      <trkpt lat="47.23143" lon="6.03571">
        <ele>231.424</ele>
        <time>2016-09-06T09:17:58.000Z</time>
      </trkpt>
      <trkpt lat="47.23142" lon="6.03571">
        <ele>232.258</ele>
        <time>2016-09-06T09:17:59.000Z</time>
      </trkpt>
      <trkpt lat="47.23141" lon="6.03568">
        <ele>232.276</ele>
        <time>2016-09-06T09:18:00.000Z</time>
      </trkpt>
      <trkpt lat="47.2314" lon="6.03565">
        <ele>233.058</ele>
        <time>2016-09-06T09:18:01.000Z</time>
      </trkpt>
      <trkpt lat="47.23138" lon="6.0356">
        <ele>235.057</ele>
        <time>2016-09-06T09:18:02.000Z</time>
      </trkpt>
      <trkpt lat="47.23137" lon="6.03553">
        <ele>236.21</ele>
        <time>2016-09-06T09:18:03.000Z</time>
      </trkpt>
      <trkpt lat="47.23135" lon="6.03547">
        <ele>237.358</ele>
        <time>2016-09-06T09:18:04.000Z</time>
      </trkpt>
      <trkpt lat="47.23134" lon="6.03541">
        <ele>236.641</ele>
        <time>2016-09-06T09:18:05.000Z</time>
      </trkpt>
      <trkpt lat="47.23132" lon="6.03536">
        <ele>237.112</ele>
        <time>2016-09-06T09:18:06.000Z</time>
      </trkpt>
      <trkpt lat="47.2313" lon="6.03531">
        <ele>236.592</ele>
        <time>2016-09-06T09:18:07.000Z</time>
      </trkpt>
      <trkpt lat="47.2313" lon="6.03526">
        <ele>235.382</ele>
        <time>2016-09-06T09:18:08.000Z</time>
      </trkpt>
      <trkpt lat="47.23128" lon="6.03521">
        <ele>235.477</ele>
        <time>2016-09-06T09:18:09.000Z</time>
      </trkpt>
      <trkpt lat="47.23126" lon="6.03512">
        <ele>235.756</ele>
        <time>2016-09-06T09:18:11.000Z</time>
      </trkpt>
      <trkpt lat="47.23124" lon="6.03507">
        <ele>235.908</ele>
        <time>2016-09-06T09:18:12.000Z</time>
      </trkpt>
      <trkpt lat="47.22985" lon="6.03044">
        <ele>266.316</ele>
        <time>2016-09-06T09:19:27.000Z</time>
      </trkpt>
      <trkpt lat="47.22987" lon="6.03043">
        <ele>265.406</ele>
        <time>2016-09-06T09:19:28.000Z</time>
      </trkpt>
      <trkpt lat="47.22988" lon="6.03043">
        <ele>267</ele>
        <time>2016-09-06T09:19:29.000Z</time>
      </trkpt>
      <trkpt lat="47.2299" lon="6.03043">
        <ele>269.307</ele>
        <time>2016-09-06T09:19:30.000Z</time>
      </trkpt>
      <trkpt lat="47.22991" lon="6.03043">
        <ele>269.148</ele>
        <time>2016-09-06T09:19:31.000Z</time>
      </trkpt>
      <trkpt lat="47.22994" lon="6.03043">
        <ele>269.339</ele>
        <time>2016-09-06T09:19:32.000Z</time>
      </trkpt>
      <trkpt lat="47.22995" lon="6.03043">
        <ele>265.211</ele>
        <time>2016-09-06T09:19:33.000Z</time>
      </trkpt>
      <trkpt lat="47.22995" lon="6.03043">
        <ele>264.518</ele>
        <time>2016-09-06T09:19:34.000Z</time>
      </trkpt>
      <trkpt lat="47.22992" lon="6.03043">
        <ele>261.748</ele>
        <time>2016-09-06T09:19:35.000Z</time>
      </trkpt>
      <trkpt lat="47.22988" lon="6.03043">
        <ele>261.743</ele>
        <time>2016-09-06T09:19:36.000Z</time>
      </trkpt>
      <trkpt lat="47.22975" lon="6.03039">
        <ele>261.681</ele>
        <time>2016-09-06T09:19:37.000Z</time>
      </trkpt>
      <trkpt lat="47.22971" lon="6.03037">
        <ele>266.311</ele>
        <time>2016-09-06T09:19:38.000Z</time>
      </trkpt>
      <trkpt lat="47.22968" lon="6.03035">
        <ele>267.055</ele>
        <time>2016-09-06T09:19:39.000Z</time>
      </trkpt>
      <trkpt lat="47.22966" lon="6.03034">
        <ele>267.736</ele>
        <time>2016-09-06T09:19:40.000Z</time>
      </trkpt>
      <trkpt lat="47.22963" lon="6.03031">
        <ele>268.279</ele>
        <time>2016-09-06T09:19:41.000Z</time>
      </trkpt>
      <trkpt lat="47.2296" lon="6.03032">
        <ele>262.59</ele>
        <time>2016-09-06T09:19:42.000Z</time>
      </trkpt>
      <trkpt lat="47.22955" lon="6.0304">
        <ele>254.693</ele>
        <time>2016-09-06T09:19:43.000Z</time>
      </trkpt>
      <trkpt lat="47.22953" lon="6.03041">
        <ele>253.566</ele>
        <time>2016-09-06T09:19:44.000Z</time>
      </trkpt>
      <trkpt lat="47.2295" lon="6.03041">
        <ele>253.898</ele>
        <time>2016-09-06T09:19:45.000Z</time>
      </trkpt>
      <trkpt lat="47.22947" lon="6.03039">
        <ele>254.522</ele>
        <time>2016-09-06T09:19:46.000Z</time>
      </trkpt>
      <trkpt lat="47.22944" lon="6.03039">
        <ele>256.205</ele>
        <time>2016-09-06T09:19:47.000Z</time>
      </trkpt>
      <trkpt lat="47.22941" lon="6.03038">
        <ele>255.478</ele>
        <time>2016-09-06T09:19:48.000Z</time>
      </trkpt>
      <trkpt lat="47.22937" lon="6.03037">
        <ele>256.541</ele>
        <time>2016-09-06T09:19:49.000Z</time>
      </trkpt>
      <trkpt lat="47.22933" lon="6.03035">
        <ele>256.238</ele>
        <time>2016-09-06T09:19:50.000Z</time>
      </trkpt>
      <trkpt lat="47.22931" lon="6.03035">
        <ele>253.53</ele>
        <time>2016-09-06T09:19:51.000Z</time>
      </trkpt>
      <trkpt lat="47.22928" lon="6.03036">
        <ele>252.767</ele>
        <time>2016-09-06T09:19:52.000Z</time>
      </trkpt>
      <trkpt lat="47.22925" lon="6.03036">
        <ele>253.245</ele>
        <time>2016-09-06T09:19:53.000Z</time>
      </trkpt>
      <trkpt lat="47.22923" lon="6.03036">
        <ele>252.517</ele>
        <time>2016-09-06T09:19:54.000Z</time>
      </trkpt>
      <trkpt lat="47.2292" lon="6.03037">
        <ele>251.692</ele>
        <time>2016-09-06T09:19:55.000Z</time>
      </trkpt>
      <trkpt lat="47.22916" lon="6.03039">
        <ele>250.75</ele>
        <time>2016-09-06T09:19:56.000Z</time>
      </trkpt>
      <trkpt lat="47.22912" lon="6.03041">
        <ele>250.595</ele>
        <time>2016-09-06T09:19:57.000Z</time>
      </trkpt>
      <trkpt lat="47.22908" lon="6.03043">
        <ele>250.116</ele>
        <time>2016-09-06T09:19:58.000Z</time>
      </trkpt>
      <trkpt lat="47.22904" lon="6.03045">
        <ele>249.855</ele>
        <time>2016-09-06T09:19:59.000Z</time>
      </trkpt>
      <trkpt lat="47.229" lon="6.03048">
        <ele>247.725</ele>
        <time>2016-09-06T09:20:00.000Z</time>
      </trkpt>
      <trkpt lat="47.22897" lon="6.03051">
        <ele>245.62</ele>
        <time>2016-09-06T09:20:01.000Z</time>
      </trkpt>
      <trkpt lat="47.22892" lon="6.03056">
        <ele>243.008</ele>
        <time>2016-09-06T09:20:02.000Z</time>
      </trkpt>
      <trkpt lat="47.22889" lon="6.0306">
        <ele>243.81</ele>
        <time>2016-09-06T09:20:03.000Z</time>
      </trkpt>
      <trkpt lat="47.22885" lon="6.03065">
        <ele>241.9</ele>
        <time>2016-09-06T09:20:04.000Z</time>
      </trkpt>
      <trkpt lat="47.22882" lon="6.03069">
        <ele>241.182</ele>
        <time>2016-09-06T09:20:05.000Z</time>
      </trkpt>
      <trkpt lat="47.22879" lon="6.03073">
        <ele>240.747</ele>
        <time>2016-09-06T09:20:06.000Z</time>
      </trkpt>
      <trkpt lat="47.22876" lon="6.03077">
        <ele>240.139</ele>
        <time>2016-09-06T09:20:07.000Z</time>
      </trkpt>
      <trkpt lat="47.22874" lon="6.03082">
        <ele>239.556</ele>
        <time>2016-09-06T09:20:08.000Z</time>
      </trkpt>
      <trkpt lat="47.22872" lon="6.03086">
        <ele>239.403</ele>
        <time>2016-09-06T09:20:09.000Z</time>
      </trkpt>
      <trkpt lat="47.2287" lon="6.0309">
        <ele>238.961</ele>
        <time>2016-09-06T09:20:10.000Z</time>
      </trkpt>
      <trkpt lat="47.22867" lon="6.03095">
        <ele>238.33</ele>
        <time>2016-09-06T09:20:11.000Z</time>
      </trkpt>
      <trkpt lat="47.22864" lon="6.03099">
        <ele>238.253</ele>
        <time>2016-09-06T09:20:12.000Z</time>
      </trkpt>
      <trkpt lat="47.2286" lon="6.03103">
        <ele>237.465</ele>
        <time>2016-09-06T09:20:13.000Z</time>
      </trkpt>
      <trkpt lat="47.22857" lon="6.03108">
        <ele>237.177</ele>
        <time>2016-09-06T09:20:14.000Z</time>
      </trkpt>
      <trkpt lat="47.22854" lon="6.03113">
        <ele>237.165</ele>
        <time>2016-09-06T09:20:15.000Z</time>
      </trkpt>
      <trkpt lat="47.22851" lon="6.03117">
        <ele>236.484</ele>
        <time>2016-09-06T09:20:16.000Z</time>
      </trkpt>
      <trkpt lat="47.22848" lon="6.03121">
        <ele>236.471</ele>
        <time>2016-09-06T09:20:17.000Z</time>
      </trkpt>
      <trkpt lat="47.22845" lon="6.03125">
        <ele>236.486</ele>
        <time>2016-09-06T09:20:18.000Z</time>
      </trkpt>
      <trkpt lat="47.22842" lon="6.03129">
        <ele>236.289</ele>
        <time>2016-09-06T09:20:19.000Z</time>
      </trkpt>
      <trkpt lat="47.22839" lon="6.03134">
        <ele>236.201</ele>
        <time>2016-09-06T09:20:20.000Z</time>
      </trkpt>
      <trkpt lat="47.22837" lon="6.03139">
        <ele>236.304</ele>
        <time>2016-09-06T09:20:21.000Z</time>
      </trkpt>
      <trkpt lat="47.22834" lon="6.03144">
        <ele>236.829</ele>
        <time>2016-09-06T09:20:22.000Z</time>
      </trkpt>
      <trkpt lat="47.22832" lon="6.03149">
        <ele>237.182</ele>
        <time>2016-09-06T09:20:23.000Z</time>
      </trkpt>
      <trkpt lat="47.2283" lon="6.03154">
        <ele>238.137</ele>
        <time>2016-09-06T09:20:24.000Z</time>
      </trkpt>
      <trkpt lat="47.22827" lon="6.03158">
        <ele>239.022</ele>
        <time>2016-09-06T09:20:25.000Z</time>
      </trkpt>
      <trkpt lat="47.22825" lon="6.03162">
        <ele>238.973</ele>
        <time>2016-09-06T09:20:26.000Z</time>
      </trkpt>
      <trkpt lat="47.22822" lon="6.03166">
        <ele>239.861</ele>
        <time>2016-09-06T09:20:27.000Z</time>
      </trkpt>
      <trkpt lat="47.2282" lon="6.0317">
        <ele>240.535</ele>
        <time>2016-09-06T09:20:28.000Z</time>
      </trkpt>
      <trkpt lat="47.22817" lon="6.03173">
        <ele>241.37</ele>
        <time>2016-09-06T09:20:29.000Z</time>
      </trkpt>
      <trkpt lat="47.22814" lon="6.03176">
        <ele>242.559</ele>
        <time>2016-09-06T09:20:30.000Z</time>
      </trkpt>
      <trkpt lat="47.22811" lon="6.03179">
        <ele>242.083</ele>
        <time>2016-09-06T09:20:31.000Z</time>
      </trkpt>
      <trkpt lat="47.22807" lon="6.03183">
        <ele>241.825</ele>
        <time>2016-09-06T09:20:32.000Z</time>
      </trkpt>
      <trkpt lat="47.22804" lon="6.03186">
        <ele>241.262</ele>
        <time>2016-09-06T09:20:33.000Z</time>
      </trkpt>
      <trkpt lat="47.22799" lon="6.03189">
        <ele>241.255</ele>
        <time>2016-09-06T09:20:34.000Z</time>
      </trkpt>
      <trkpt lat="47.22796" lon="6.03192">
        <ele>241.379</ele>
        <time>2016-09-06T09:20:35.000Z</time>
      </trkpt>
      <trkpt lat="47.22792" lon="6.03195">
        <ele>241.636</ele>
        <time>2016-09-06T09:20:36.003Z</time>
      </trkpt>
      <trkpt lat="47.22789" lon="6.03197">
        <ele>242.592</ele>
        <time>2016-09-06T09:20:36.999Z</time>
      </trkpt>
      <trkpt lat="47.22785" lon="6.032">
        <ele>242.229</ele>
        <time>2016-09-06T09:20:38.001Z</time>
      </trkpt>
      <trkpt lat="47.22781" lon="6.03203">
        <ele>242.077</ele>
        <time>2016-09-06T09:20:39.000Z</time>
      </trkpt>
      <trkpt lat="47.22777" lon="6.03206">
        <ele>241.884</ele>
        <time>2016-09-06T09:20:40.000Z</time>
      </trkpt>
      <trkpt lat="47.22773" lon="6.0321">
        <ele>241.104</ele>
        <time>2016-09-06T09:20:41.000Z</time>
      </trkpt>
      <trkpt lat="47.22769" lon="6.03213">
        <ele>242.134</ele>
        <time>2016-09-06T09:20:42.000Z</time>
      </trkpt>
      <trkpt lat="47.22765" lon="6.03215">
        <ele>241.971</ele>
        <time>2016-09-06T09:20:43.000Z</time>
      </trkpt>
      <trkpt lat="47.22762" lon="6.03217">
        <ele>242.053</ele>
        <time>2016-09-06T09:20:44.000Z</time>
      </trkpt>
      <trkpt lat="47.22759" lon="6.03219">
        <ele>242.582</ele>
        <time>2016-09-06T09:20:45.000Z</time>
      </trkpt>
      <trkpt lat="47.22757" lon="6.03221">
        <ele>244.232</ele>
        <time>2016-09-06T09:20:46.000Z</time>
      </trkpt>
      <trkpt lat="47.22755" lon="6.03221">
        <ele>243.147</ele>
        <time>2016-09-06T09:20:47.000Z</time>
      </trkpt>
      <trkpt lat="47.22753" lon="6.03221">
        <ele>243.857</ele>
        <time>2016-09-06T09:20:48.000Z</time>
      </trkpt>
      <trkpt lat="47.22751" lon="6.03222">
        <ele>240.227</ele>
        <time>2016-09-06T09:20:49.000Z</time>
      </trkpt>
      <trkpt lat="47.22751" lon="6.03224">
        <ele>241.762</ele>
        <time>2016-09-06T09:20:50.000Z</time>
      </trkpt>
      <trkpt lat="47.2275" lon="6.03225">
        <ele>240.139</ele>
        <time>2016-09-06T09:20:51.000Z</time>
      </trkpt>
      <trkpt lat="47.22751" lon="6.03225">
        <ele>240.629</ele>
        <time>2016-09-06T09:20:52.000Z</time>
      </trkpt>
      <trkpt lat="47.22751" lon="6.03225">
        <ele>240.641</ele>
        <time>2016-09-06T09:20:53.000Z</time>
      </trkpt>
      <trkpt lat="47.22751" lon="6.03225">
        <ele>241.201</ele>
        <time>2016-09-06T09:20:54.000Z</time>
      </trkpt>
      <trkpt lat="47.22751" lon="6.03226">
        <ele>242.381</ele>
        <time>2016-09-06T09:20:55.000Z</time>
      </trkpt>
      <trkpt lat="47.22751" lon="6.03226">
        <ele>243.847</ele>
        <time>2016-09-06T09:20:56.000Z</time>
      </trkpt>
      <trkpt lat="47.22751" lon="6.03226">
        <ele>245.872</ele>
        <time>2016-09-06T09:20:57.000Z</time>
      </trkpt>
      <trkpt lat="47.22751" lon="6.03226">
        <ele>248.301</ele>
        <time>2016-09-06T09:20:58.000Z</time>
      </trkpt>
      <trkpt lat="47.22751" lon="6.03226">
        <ele>246.328</ele>
        <time>2016-09-06T09:20:59.000Z</time>
      </trkpt>
      <trkpt lat="47.22751" lon="6.03226">
        <ele>247.562</ele>
        <time>2016-09-06T09:21:00.000Z</time>
      </trkpt>
      <trkpt lat="47.22752" lon="6.0322">
        <ele>248.105</ele>
        <time>2016-09-06T09:21:01.000Z</time>
      </trkpt>
      <trkpt lat="47.22752" lon="6.0322">
        <ele>247.125</ele>
        <time>2016-09-06T09:21:02.000Z</time>
      </trkpt>
      <trkpt lat="47.22752" lon="6.0322">
        <ele>245.878</ele>
        <time>2016-09-06T09:21:03.000Z</time>
      </trkpt>
      <trkpt lat="47.22752" lon="6.03223">
        <ele>245.514</ele>
        <time>2016-09-06T09:21:04.000Z</time>
      </trkpt>
      <trkpt lat="47.22752" lon="6.03223">
        <ele>245.054</ele>
        <time>2016-09-06T09:21:05.000Z</time>
      </trkpt>
      <trkpt lat="47.22753" lon="6.03226">
        <ele>244.88</ele>
        <time>2016-09-06T09:21:06.000Z</time>
      </trkpt>
      <trkpt lat="47.22753" lon="6.03226">
        <ele>244.288</ele>
        <time>2016-09-06T09:21:07.000Z</time>
      </trkpt>
      <trkpt lat="47.22753" lon="6.03227">
        <ele>245.64</ele>
        <time>2016-09-06T09:21:08.000Z</time>
      </trkpt>
      <trkpt lat="47.22753" lon="6.03226">
        <ele>246.032</ele>
        <time>2016-09-06T09:21:09.000Z</time>
      </trkpt>
      <trkpt lat="47.22753" lon="6.03226">
        <ele>245.076</ele>
        <time>2016-09-06T09:21:10.000Z</time>
      </trkpt>
      <trkpt lat="47.22753" lon="6.03226">
        <ele>244.721</ele>
        <time>2016-09-06T09:21:11.000Z</time>
      </trkpt>
      <trkpt lat="47.22753" lon="6.03226">
        <ele>244.44</ele>
        <time>2016-09-06T09:21:12.000Z</time>
      </trkpt>
      <trkpt lat="47.22753" lon="6.03226">
        <ele>243.03</ele>
        <time>2016-09-06T09:21:13.000Z</time>
      </trkpt>
      <trkpt lat="47.22753" lon="6.03226">
        <ele>242.982</ele>
        <time>2016-09-06T09:21:14.000Z</time>
      </trkpt>
      <trkpt lat="47.22753" lon="6.03226">
        <ele>243.251</ele>
        <time>2016-09-06T09:21:15.000Z</time>
      </trkpt>
      <trkpt lat="47.22753" lon="6.03226">
        <ele>243.265</ele>
        <time>2016-09-06T09:21:16.000Z</time>
      </trkpt>
      <trkpt lat="47.22753" lon="6.03226">
        <ele>240.783</ele>
        <time>2016-09-06T09:21:17.000Z</time>
      </trkpt>
      <trkpt lat="47.22753" lon="6.03226">
        <ele>239.533</ele>
        <time>2016-09-06T09:21:18.000Z</time>
      </trkpt>
      <trkpt lat="47.22753" lon="6.03226">
        <ele>237.685</ele>
        <time>2016-09-06T09:21:19.000Z</time>
      </trkpt>
      <trkpt lat="47.22753" lon="6.03226">
        <ele>236.077</ele>
        <time>2016-09-06T09:21:20.000Z</time>
      </trkpt>
      <trkpt lat="47.22753" lon="6.03226">
        <ele>234.28</ele>
        <time>2016-09-06T09:21:21.000Z</time>
      </trkpt>
      <trkpt lat="47.22753" lon="6.03226">
        <ele>234.808</ele>
        <time>2016-09-06T09:21:22.000Z</time>
      </trkpt>
      <trkpt lat="47.22753" lon="6.03226">
        <ele>235.29</ele>
        <time>2016-09-06T09:21:23.000Z</time>
      </trkpt>
      <trkpt lat="47.22753" lon="6.03226">
        <ele>235.671</ele>
        <time>2016-09-06T09:21:24.000Z</time>
      </trkpt>
      <trkpt lat="47.22753" lon="6.03226">
        <ele>236.192</ele>
        <time>2016-09-06T09:21:25.000Z</time>
      </trkpt>
      <trkpt lat="47.22753" lon="6.03226">
        <ele>237.183</ele>
        <time>2016-09-06T09:21:26.000Z</time>
      </trkpt>
      <trkpt lat="47.22753" lon="6.03226">
        <ele>238.362</ele>
        <time>2016-09-06T09:21:27.000Z</time>
      </trkpt>
      <trkpt lat="47.22753" lon="6.03226">
        <ele>238.816</ele>
        <time>2016-09-06T09:21:28.000Z</time>
      </trkpt>
      <trkpt lat="47.22753" lon="6.03226">
        <ele>239.385</ele>
        <time>2016-09-06T09:21:29.000Z</time>
      </trkpt>
      <trkpt lat="47.22753" lon="6.03226">
        <ele>239.778</ele>
        <time>2016-09-06T09:21:30.000Z</time>
      </trkpt>
      <trkpt lat="47.22753" lon="6.03226">
        <ele>240.317</ele>
        <time>2016-09-06T09:21:31.000Z</time>
      </trkpt>
      <trkpt lat="47.22753" lon="6.03226">
        <ele>240.475</ele>
        <time>2016-09-06T09:21:32.000Z</time>
      </trkpt>
      <trkpt lat="47.22753" lon="6.03226">
        <ele>240.846</ele>
        <time>2016-09-06T09:21:33.000Z</time>
      </trkpt>
      <trkpt lat="47.22753" lon="6.03226">
        <ele>241.538</ele>
        <time>2016-09-06T09:21:34.000Z</time>
      </trkpt>
      <trkpt lat="47.22753" lon="6.03226">
        <ele>241.936</ele>
        <time>2016-09-06T09:21:35.000Z</time>
      </trkpt>
      <trkpt lat="47.22755" lon="6.03221">
        <ele>240.895</ele>
        <time>2016-09-06T09:21:36.000Z</time>
      </trkpt>
      <trkpt lat="47.22755" lon="6.03221">
        <ele>239.341</ele>
        <time>2016-09-06T09:21:37.000Z</time>
      </trkpt>
      <trkpt lat="47.22755" lon="6.03221">
        <ele>239.114</ele>
        <time>2016-09-06T09:21:38.000Z</time>
      </trkpt>
      <trkpt lat="47.22755" lon="6.03221">
        <ele>241.396</ele>
        <time>2016-09-06T09:21:39.000Z</time>
      </trkpt>
      <trkpt lat="47.22755" lon="6.03221">
        <ele>241.953</ele>
        <time>2016-09-06T09:21:40.000Z</time>
      </trkpt>
      <trkpt lat="47.22755" lon="6.03221">
        <ele>242.247</ele>
        <time>2016-09-06T09:21:41.000Z</time>
      </trkpt>
      <trkpt lat="47.22755" lon="6.03221">
        <ele>241.776</ele>
        <time>2016-09-06T09:21:42.000Z</time>
      </trkpt>
      <trkpt lat="47.22755" lon="6.03221">
        <ele>242.143</ele>
        <time>2016-09-06T09:21:43.000Z</time>
      </trkpt>
      <trkpt lat="47.22755" lon="6.03221">
        <ele>241</ele>
        <time>2016-09-06T09:21:44.000Z</time>
      </trkpt>
      <trkpt lat="47.22753" lon="6.03219">
        <ele>241.221</ele>
        <time>2016-09-06T09:21:45.000Z</time>
      </trkpt>
      <trkpt lat="47.22753" lon="6.03219">
        <ele>240.481</ele>
        <time>2016-09-06T09:21:46.000Z</time>
      </trkpt>
      <trkpt lat="47.22753" lon="6.03219">
        <ele>241.261</ele>
        <time>2016-09-06T09:21:47.000Z</time>
      </trkpt>
      <trkpt lat="47.22753" lon="6.03219">
        <ele>240.075</ele>
        <time>2016-09-06T09:21:48.000Z</time>
      </trkpt>
      <trkpt lat="47.22753" lon="6.03222">
        <ele>239.896</ele>
        <time>2016-09-06T09:21:49.000Z</time>
      </trkpt>
      <trkpt lat="47.22753" lon="6.03222">
        <ele>240.693</ele>
        <time>2016-09-06T09:21:50.000Z</time>
      </trkpt>
      <trkpt lat="47.22753" lon="6.03222">
        <ele>239.196</ele>
        <time>2016-09-06T09:21:51.000Z</time>
      </trkpt>
      <trkpt lat="47.22753" lon="6.03222">
        <ele>238.248</ele>
        <time>2016-09-06T09:21:52.000Z</time>
      </trkpt>
      <trkpt lat="47.22753" lon="6.03222">
        <ele>238.819</ele>
        <time>2016-09-06T09:21:53.000Z</time>
      </trkpt>
      <trkpt lat="47.22753" lon="6.03222">
        <ele>237.568</ele>
        <time>2016-09-06T09:21:54.000Z</time>
      </trkpt>
      <trkpt lat="47.22753" lon="6.03222">
        <ele>237.7</ele>
        <time>2016-09-06T09:21:55.000Z</time>
      </trkpt>
      <trkpt lat="47.22753" lon="6.03222">
        <ele>235.714</ele>
        <time>2016-09-06T09:21:56.000Z</time>
      </trkpt>
      <trkpt lat="47.22753" lon="6.03222">
        <ele>234.817</ele>
        <time>2016-09-06T09:21:57.000Z</time>
      </trkpt>
      <trkpt lat="47.22753" lon="6.03222">
        <ele>233.989</ele>
        <time>2016-09-06T09:21:58.000Z</time>
      </trkpt>
      <trkpt lat="47.22753" lon="6.03222">
        <ele>233.703</ele>
        <time>2016-09-06T09:21:59.000Z</time>
      </trkpt>
      <trkpt lat="47.22753" lon="6.03222">
        <ele>233.055</ele>
        <time>2016-09-06T09:22:00.000Z</time>
      </trkpt>
      <trkpt lat="47.22755" lon="6.03225">
        <ele>232.476</ele>
        <time>2016-09-06T09:22:01.000Z</time>
      </trkpt>
      <trkpt lat="47.22755" lon="6.03225">
        <ele>232.967</ele>
        <time>2016-09-06T09:22:02.000Z</time>
      </trkpt>
      <trkpt lat="47.22755" lon="6.03225">
        <ele>233.095</ele>
        <time>2016-09-06T09:22:03.000Z</time>
      </trkpt>
      <trkpt lat="47.22755" lon="6.03225">
        <ele>233.762</ele>
        <time>2016-09-06T09:22:04.000Z</time>
      </trkpt>
      <trkpt lat="47.22755" lon="6.03225">
        <ele>236.267</ele>
        <time>2016-09-06T09:22:05.000Z</time>
      </trkpt>
      <trkpt lat="47.22755" lon="6.0322">
        <ele>237.289</ele>
        <time>2016-09-06T09:22:06.000Z</time>
      </trkpt>
      <trkpt lat="47.22755" lon="6.0322">
        <ele>237.856</ele>
        <time>2016-09-06T09:22:07.000Z</time>
      </trkpt>
      <trkpt lat="47.22755" lon="6.0322">
        <ele>237.644</ele>
        <time>2016-09-06T09:22:08.000Z</time>
      </trkpt>
      <trkpt lat="47.22755" lon="6.0322">
        <ele>238.533</ele>
        <time>2016-09-06T09:22:09.000Z</time>
      </trkpt>
      <trkpt lat="47.22755" lon="6.0322">
        <ele>238.29</ele>
        <time>2016-09-06T09:22:10.000Z</time>
      </trkpt>
      <trkpt lat="47.22755" lon="6.0322">
        <ele>238.74</ele>
        <time>2016-09-06T09:22:11.000Z</time>
      </trkpt>
      <trkpt lat="47.22755" lon="6.0322">
        <ele>239.895</ele>
        <time>2016-09-06T09:22:12.000Z</time>
      </trkpt>
      <trkpt lat="47.22755" lon="6.0322">
        <ele>241.595</ele>
        <time>2016-09-06T09:22:13.000Z</time>
      </trkpt>
      <trkpt lat="47.22755" lon="6.0322">
        <ele>242.393</ele>
        <time>2016-09-06T09:22:14.000Z</time>
      </trkpt>
      <trkpt lat="47.22755" lon="6.0322">
        <ele>242.426</ele>
        <time>2016-09-06T09:22:15.000Z</time>
      </trkpt>
      <trkpt lat="47.22755" lon="6.0322">
        <ele>237.309</ele>
        <time>2016-09-06T09:22:16.000Z</time>
      </trkpt>
      <trkpt lat="47.22753" lon="6.03223">
        <ele>238.232</ele>
        <time>2016-09-06T09:22:17.000Z</time>
      </trkpt>
      <trkpt lat="47.22752" lon="6.03224">
        <ele>239.424</ele>
        <time>2016-09-06T09:22:18.000Z</time>
      </trkpt>
      <trkpt lat="47.22752" lon="6.03224">
        <ele>240.615</ele>
        <time>2016-09-06T09:22:19.000Z</time>
      </trkpt>
      <trkpt lat="47.22753" lon="6.03226">
        <ele>240.961</ele>
        <time>2016-09-06T09:22:20.000Z</time>
      </trkpt>
      <trkpt lat="47.22753" lon="6.03227">
        <ele>240.27</ele>
        <time>2016-09-06T09:22:21.000Z</time>
      </trkpt>
      <trkpt lat="47.22753" lon="6.03229">
        <ele>240.292</ele>
        <time>2016-09-06T09:22:22.000Z</time>
      </trkpt>
      <trkpt lat="47.22753" lon="6.0323">
        <ele>237.71</ele>
        <time>2016-09-06T09:22:23.000Z</time>
      </trkpt>
      <trkpt lat="47.22753" lon="6.0323">
        <ele>236.366</ele>
        <time>2016-09-06T09:22:24.000Z</time>
      </trkpt>
      <trkpt lat="47.22753" lon="6.0323">
        <ele>237.041</ele>
        <time>2016-09-06T09:22:25.000Z</time>
      </trkpt>
      <trkpt lat="47.22753" lon="6.0323">
        <ele>238.122</ele>
        <time>2016-09-06T09:22:26.000Z</time>
      </trkpt>
      <trkpt lat="47.22753" lon="6.0323">
        <ele>238.212</ele>
        <time>2016-09-06T09:22:27.000Z</time>
      </trkpt>
      <trkpt lat="47.22753" lon="6.0323">
        <ele>238.858</ele>
        <time>2016-09-06T09:22:28.000Z</time>
      </trkpt>
      <trkpt lat="47.22753" lon="6.0323">
        <ele>240.44</ele>
        <time>2016-09-06T09:22:29.000Z</time>
      </trkpt>
      <trkpt lat="47.22753" lon="6.0323">
        <ele>240.953</ele>
        <time>2016-09-06T09:22:30.000Z</time>
      </trkpt>
      <trkpt lat="47.22753" lon="6.0323">
        <ele>242.285</ele>
        <time>2016-09-06T09:22:31.000Z</time>
      </trkpt>
      <trkpt lat="47.22753" lon="6.0323">
        <ele>242.04</ele>
        <time>2016-09-06T09:22:32.000Z</time>
      </trkpt>
      <trkpt lat="47.22752" lon="6.03223">
        <ele>243.469</ele>
        <time>2016-09-06T09:22:33.000Z</time>
      </trkpt>
      <trkpt lat="47.22751" lon="6.03222">
        <ele>244.895</ele>
        <time>2016-09-06T09:22:34.000Z</time>
      </trkpt>
      <trkpt lat="47.2275" lon="6.0322">
        <ele>245.515</ele>
        <time>2016-09-06T09:22:35.000Z</time>
      </trkpt>
      <trkpt lat="47.2275" lon="6.0322">
        <ele>244.095</ele>
        <time>2016-09-06T09:22:36.000Z</time>
      </trkpt>
      <trkpt lat="47.2275" lon="6.03224">
        <ele>243.554</ele>
        <time>2016-09-06T09:22:37.000Z</time>
      </trkpt>
      <trkpt lat="47.2275" lon="6.03227">
        <ele>243.149</ele>
        <time>2016-09-06T09:22:38.000Z</time>
      </trkpt>
      <trkpt lat="47.2275" lon="6.03228">
        <ele>243.289</ele>
        <time>2016-09-06T09:22:39.000Z</time>
      </trkpt>
      <trkpt lat="47.2275" lon="6.03228">
        <ele>243.581</ele>
        <time>2016-09-06T09:22:40.000Z</time>
      </trkpt>
      <trkpt lat="47.2275" lon="6.03228">
        <ele>244.234</ele>
        <time>2016-09-06T09:22:41.000Z</time>
      </trkpt>
      <trkpt lat="47.2275" lon="6.03228">
        <ele>244.666</ele>
        <time>2016-09-06T09:22:42.000Z</time>
      </trkpt>
      <trkpt lat="47.2275" lon="6.03228">
        <ele>245.896</ele>
        <time>2016-09-06T09:22:43.000Z</time>
      </trkpt>
      <trkpt lat="47.2275" lon="6.03228">
        <ele>246.257</ele>
        <time>2016-09-06T09:22:44.000Z</time>
      </trkpt>
      <trkpt lat="47.2275" lon="6.03228">
        <ele>246.38</ele>
        <time>2016-09-06T09:22:45.000Z</time>
      </trkpt>
      <trkpt lat="47.2275" lon="6.03228">
        <ele>247.253</ele>
        <time>2016-09-06T09:22:46.000Z</time>
      </trkpt>
      <trkpt lat="47.22751" lon="6.03224">
        <ele>246.211</ele>
        <time>2016-09-06T09:22:47.000Z</time>
      </trkpt>
      <trkpt lat="47.2275" lon="6.03224">
        <ele>248.379</ele>
        <time>2016-09-06T09:22:48.000Z</time>
      </trkpt>
      <trkpt lat="47.22748" lon="6.03225">
        <ele>248.635</ele>
        <time>2016-09-06T09:22:49.000Z</time>
      </trkpt>
      <trkpt lat="47.22747" lon="6.03227">
        <ele>245.823</ele>
        <time>2016-09-06T09:22:50.000Z</time>
      </trkpt>
      <trkpt lat="47.22746" lon="6.03227">
        <ele>246.832</ele>
        <time>2016-09-06T09:22:51.000Z</time>
      </trkpt>
      <trkpt lat="47.22745" lon="6.03227">
        <ele>247.01</ele>
        <time>2016-09-06T09:22:52.000Z</time>
      </trkpt>
      <trkpt lat="47.22743" lon="6.03227">
        <ele>247.296</ele>
        <time>2016-09-06T09:22:53.000Z</time>
      </trkpt>
      <trkpt lat="47.2274" lon="6.03228">
        <ele>248.192</ele>
        <time>2016-09-06T09:22:54.000Z</time>
      </trkpt>
      <trkpt lat="47.22738" lon="6.0323">
        <ele>249.328</ele>
        <time>2016-09-06T09:22:55.000Z</time>
      </trkpt>
      <trkpt lat="47.22735" lon="6.03231">
        <ele>248.829</ele>
        <time>2016-09-06T09:22:56.000Z</time>
      </trkpt>
      <trkpt lat="47.22733" lon="6.03232">
        <ele>249.797</ele>
        <time>2016-09-06T09:22:57.000Z</time>
      </trkpt>
      <trkpt lat="47.22731" lon="6.03235">
        <ele>248.39</ele>
        <time>2016-09-06T09:22:58.000Z</time>
      </trkpt>
      <trkpt lat="47.22728" lon="6.03236">
        <ele>249.263</ele>
        <time>2016-09-06T09:22:59.000Z</time>
      </trkpt>
      <trkpt lat="47.22726" lon="6.03237">
        <ele>249.294</ele>
        <time>2016-09-06T09:23:00.000Z</time>
      </trkpt>
      <trkpt lat="47.22724" lon="6.03238">
        <ele>249.148</ele>
        <time>2016-09-06T09:23:01.000Z</time>
      </trkpt>
      <trkpt lat="47.22721" lon="6.03239">
        <ele>248.673</ele>
        <time>2016-09-06T09:23:02.000Z</time>
      </trkpt>
      <trkpt lat="47.22719" lon="6.0324">
        <ele>247.561</ele>
        <time>2016-09-06T09:23:03.000Z</time>
      </trkpt>
      <trkpt lat="47.22717" lon="6.03241">
        <ele>247.584</ele>
        <time>2016-09-06T09:23:04.000Z</time>
      </trkpt>
      <trkpt lat="47.22716" lon="6.03241">
        <ele>246.909</ele>
        <time>2016-09-06T09:23:05.000Z</time>
      </trkpt>
      <trkpt lat="47.22715" lon="6.03242">
        <ele>246.812</ele>
        <time>2016-09-06T09:23:06.000Z</time>
      </trkpt>
      <trkpt lat="47.22715" lon="6.03242">
        <ele>246.902</ele>
        <time>2016-09-06T09:23:07.000Z</time>
      </trkpt>
      <trkpt lat="47.22715" lon="6.03242">
        <ele>247.955</ele>
        <time>2016-09-06T09:23:08.000Z</time>
      </trkpt>
      <trkpt lat="47.22715" lon="6.03242">
        <ele>248.929</ele>
        <time>2016-09-06T09:23:09.000Z</time>
      </trkpt>
      <trkpt lat="47.22714" lon="6.0324">
        <ele>248.836</ele>
        <time>2016-09-06T09:23:10.000Z</time>
      </trkpt>
      <trkpt lat="47.22714" lon="6.0324">
        <ele>249.146</ele>
        <time>2016-09-06T09:23:11.000Z</time>
      </trkpt>
      <trkpt lat="47.22714" lon="6.0324">
        <ele>249.324</ele>
        <time>2016-09-06T09:23:12.000Z</time>
      </trkpt>
      <trkpt lat="47.22715" lon="6.03239">
        <ele>249.459</ele>
        <time>2016-09-06T09:23:13.000Z</time>
      </trkpt>
      <trkpt lat="47.22714" lon="6.03239">
        <ele>250.137</ele>
        <time>2016-09-06T09:23:14.000Z</time>
      </trkpt>
      <trkpt lat="47.22713" lon="6.0324">
        <ele>250.102</ele>
        <time>2016-09-06T09:23:15.000Z</time>
      </trkpt>
      <trkpt lat="47.22711" lon="6.0324">
        <ele>249.619</ele>
        <time>2016-09-06T09:23:16.000Z</time>
      </trkpt>
      <trkpt lat="47.22709" lon="6.0324">
        <ele>250.596</ele>
        <time>2016-09-06T09:23:17.000Z</time>
      </trkpt>
      <trkpt lat="47.22707" lon="6.0324">
        <ele>250.737</ele>
        <time>2016-09-06T09:23:18.000Z</time>
      </trkpt>
      <trkpt lat="47.22704" lon="6.03242">
        <ele>248.751</ele>
        <time>2016-09-06T09:23:19.000Z</time>
      </trkpt>
      <trkpt lat="47.22701" lon="6.03243">
        <ele>248.035</ele>
        <time>2016-09-06T09:23:20.000Z</time>
      </trkpt>
      <trkpt lat="47.22697" lon="6.03244">
        <ele>247.288</ele>
        <time>2016-09-06T09:23:21.000Z</time>
      </trkpt>
      <trkpt lat="47.22692" lon="6.03246">
        <ele>246.631</ele>
        <time>2016-09-06T09:23:22.000Z</time>
      </trkpt>
      <trkpt lat="47.22687" lon="6.03247">
        <ele>246.939</ele>
        <time>2016-09-06T09:23:23.000Z</time>
      </trkpt>
      <trkpt lat="47.22681" lon="6.03248">
        <ele>246.702</ele>
        <time>2016-09-06T09:23:24.000Z</time>
      </trkpt>
      <trkpt lat="47.22675" lon="6.03249">
        <ele>247.061</ele>
        <time>2016-09-06T09:23:25.000Z</time>
      </trkpt>
      <trkpt lat="47.2267" lon="6.03253">
        <ele>245.264</ele>
        <time>2016-09-06T09:23:26.000Z</time>
      </trkpt>
      <trkpt lat="47.22665" lon="6.03255">
        <ele>244.079</ele>
        <time>2016-09-06T09:23:27.000Z</time>
      </trkpt>
      <trkpt lat="47.22659" lon="6.03257">
        <ele>242.993</ele>
        <time>2016-09-06T09:23:28.000Z</time>
      </trkpt>
      <trkpt lat="47.22653" lon="6.03258">
        <ele>242.924</ele>
        <time>2016-09-06T09:23:29.000Z</time>
      </trkpt>
      <trkpt lat="47.22648" lon="6.03258">
        <ele>242.958</ele>
        <time>2016-09-06T09:23:30.000Z</time>
      </trkpt>
      <trkpt lat="47.22642" lon="6.03259">
        <ele>242.567</ele>
        <time>2016-09-06T09:23:31.000Z</time>
      </trkpt>
      <trkpt lat="47.22637" lon="6.0326">
        <ele>243.835</ele>
        <time>2016-09-06T09:23:32.000Z</time>
      </trkpt>
      <trkpt lat="47.22633" lon="6.03261">
        <ele>242.416</ele>
        <time>2016-09-06T09:23:33.000Z</time>
      </trkpt>
      <trkpt lat="47.22627" lon="6.03262">
        <ele>242.335</ele>
        <time>2016-09-06T09:23:34.000Z</time>
      </trkpt>
      <trkpt lat="47.22622" lon="6.03262">
        <ele>242.826</ele>
        <time>2016-09-06T09:23:35.000Z</time>
      </trkpt>
      <trkpt lat="47.22617" lon="6.03262">
        <ele>242.551</ele>
        <time>2016-09-06T09:23:36.000Z</time>
      </trkpt>
      <trkpt lat="47.22611" lon="6.03261">
        <ele>240.818</ele>
        <time>2016-09-06T09:23:37.000Z</time>
      </trkpt>
      <trkpt lat="47.22606" lon="6.0326">
        <ele>240.681</ele>
        <time>2016-09-06T09:23:38.000Z</time>
      </trkpt>
      <trkpt lat="47.22602" lon="6.03258">
        <ele>240.656</ele>
        <time>2016-09-06T09:23:39.000Z</time>
      </trkpt>
      <trkpt lat="47.22598" lon="6.03256">
        <ele>238.905</ele>
        <time>2016-09-06T09:23:40.000Z</time>
      </trkpt>
      <trkpt lat="47.22594" lon="6.03253">
        <ele>237.416</ele>
        <time>2016-09-06T09:23:41.000Z</time>
      </trkpt>
      <trkpt lat="47.22589" lon="6.03253">
        <ele>236.853</ele>
        <time>2016-09-06T09:23:42.000Z</time>
      </trkpt>
      <trkpt lat="47.22585" lon="6.03251">
        <ele>235.589</ele>
        <time>2016-09-06T09:23:43.000Z</time>
      </trkpt>
      <trkpt lat="47.22579" lon="6.03249">
        <ele>236.505</ele>
        <time>2016-09-06T09:23:44.000Z</time>
      </trkpt>
      <trkpt lat="47.22575" lon="6.03247">
        <ele>235.661</ele>
        <time>2016-09-06T09:23:45.000Z</time>
      </trkpt>
      <trkpt lat="47.2257" lon="6.03244">
        <ele>236.934</ele>
        <time>2016-09-06T09:23:46.000Z</time>
      </trkpt>
      <trkpt lat="47.22566" lon="6.03241">
        <ele>236.911</ele>
        <time>2016-09-06T09:23:47.000Z</time>
      </trkpt>
      <trkpt lat="47.22561" lon="6.0324">
        <ele>236.498</ele>
        <time>2016-09-06T09:23:48.000Z</time>
      </trkpt>
      <trkpt lat="47.22557" lon="6.03233">
        <ele>238.096</ele>
        <time>2016-09-06T09:23:49.000Z</time>
      </trkpt>
      <trkpt lat="47.22552" lon="6.03232">
        <ele>237.971</ele>
        <time>2016-09-06T09:23:50.000Z</time>
      </trkpt>
      <trkpt lat="47.22548" lon="6.03228">
        <ele>239.453</ele>
        <time>2016-09-06T09:23:51.000Z</time>
      </trkpt>
      <trkpt lat="47.22544" lon="6.03227">
        <ele>239.009</ele>
        <time>2016-09-06T09:23:52.000Z</time>
      </trkpt>
      <trkpt lat="47.2254" lon="6.03225">
        <ele>239.667</ele>
        <time>2016-09-06T09:23:53.000Z</time>
      </trkpt>
      <trkpt lat="47.22536" lon="6.03223">
        <ele>240.025</ele>
        <time>2016-09-06T09:23:54.000Z</time>
      </trkpt>
      <trkpt lat="47.22533" lon="6.03212">
        <ele>242.064</ele>
        <time>2016-09-06T09:23:55.000Z</time>
      </trkpt>
      <trkpt lat="47.2253" lon="6.03212">
        <ele>240.98</ele>
        <time>2016-09-06T09:23:56.000Z</time>
      </trkpt>
      <trkpt lat="47.22527" lon="6.03213">
        <ele>239.056</ele>
        <time>2016-09-06T09:23:57.000Z</time>
      </trkpt>
      <trkpt lat="47.22523" lon="6.0321">
        <ele>239.078</ele>
        <time>2016-09-06T09:23:58.000Z</time>
      </trkpt>
      <trkpt lat="47.2252" lon="6.03207">
        <ele>238.286</ele>
        <time>2016-09-06T09:23:59.000Z</time>
      </trkpt>
      <trkpt lat="47.22516" lon="6.03203">
        <ele>239.162</ele>
        <time>2016-09-06T09:24:00.000Z</time>
      </trkpt>
      <trkpt lat="47.22512" lon="6.03192">
        <ele>240.257</ele>
        <time>2016-09-06T09:24:01.000Z</time>
      </trkpt>
      <trkpt lat="47.22507" lon="6.03185">
        <ele>240.674</ele>
        <time>2016-09-06T09:24:02.000Z</time>
      </trkpt>
      <trkpt lat="47.22503" lon="6.03177">
        <ele>241.423</ele>
        <time>2016-09-06T09:24:03.000Z</time>
      </trkpt>
      <trkpt lat="47.22498" lon="6.03163">
        <ele>241.646</ele>
        <time>2016-09-06T09:24:04.000Z</time>
      </trkpt>
      <trkpt lat="47.22494" lon="6.0317">
        <ele>241.295</ele>
        <time>2016-09-06T09:24:05.000Z</time>
      </trkpt>
      <trkpt lat="47.22491" lon="6.0317">
        <ele>241.512</ele>
        <time>2016-09-06T09:24:06.000Z</time>
      </trkpt>
      <trkpt lat="47.22487" lon="6.03167">
        <ele>241.844</ele>
        <time>2016-09-06T09:24:07.000Z</time>
      </trkpt>
      <trkpt lat="47.22483" lon="6.03163">
        <ele>243.285</ele>
        <time>2016-09-06T09:24:08.000Z</time>
      </trkpt>
      <trkpt lat="47.22478" lon="6.03173">
        <ele>242.558</ele>
        <time>2016-09-06T09:24:09.000Z</time>
      </trkpt>
      <trkpt lat="47.22474" lon="6.0317">
        <ele>243.059</ele>
        <time>2016-09-06T09:24:10.000Z</time>
      </trkpt>
      <trkpt lat="47.22469" lon="6.03175">
        <ele>242.849</ele>
        <time>2016-09-06T09:24:11.000Z</time>
      </trkpt>
      <trkpt lat="47.22465" lon="6.03173">
        <ele>243.41</ele>
        <time>2016-09-06T09:24:12.000Z</time>
      </trkpt>
      <trkpt lat="47.2246" lon="6.0317">
        <ele>243.508</ele>
        <time>2016-09-06T09:24:13.000Z</time>
      </trkpt>
      <trkpt lat="47.22456" lon="6.03168">
        <ele>243.972</ele>
        <time>2016-09-06T09:24:14.000Z</time>
      </trkpt>
      <trkpt lat="47.22452" lon="6.03168">
        <ele>244.642</ele>
        <time>2016-09-06T09:24:15.000Z</time>
      </trkpt>
      <trkpt lat="47.22449" lon="6.03166">
        <ele>245.112</ele>
        <time>2016-09-06T09:24:16.000Z</time>
      </trkpt>
      <trkpt lat="47.22444" lon="6.03164">
        <ele>245.607</ele>
        <time>2016-09-06T09:24:17.000Z</time>
      </trkpt>
      <trkpt lat="47.22439" lon="6.03162">
        <ele>246.493</ele>
        <time>2016-09-06T09:24:18.000Z</time>
      </trkpt>
      <trkpt lat="47.22435" lon="6.03159">
        <ele>247.134</ele>
        <time>2016-09-06T09:24:19.000Z</time>
      </trkpt>
      <trkpt lat="47.2243" lon="6.03159">
        <ele>248.404</ele>
        <time>2016-09-06T09:24:20.000Z</time>
      </trkpt>
      <trkpt lat="47.22426" lon="6.03156">
        <ele>249.017</ele>
        <time>2016-09-06T09:24:21.000Z</time>
      </trkpt>
      <trkpt lat="47.22421" lon="6.03155">
        <ele>249.022</ele>
        <time>2016-09-06T09:24:22.000Z</time>
      </trkpt>
      <trkpt lat="47.22416" lon="6.03153">
        <ele>249.163</ele>
        <time>2016-09-06T09:24:23.000Z</time>
      </trkpt>
      <trkpt lat="47.22412" lon="6.03151">
        <ele>249.899</ele>
        <time>2016-09-06T09:24:24.000Z</time>
      </trkpt>
      <trkpt lat="47.22407" lon="6.03148">
        <ele>250.562</ele>
        <time>2016-09-06T09:24:25.000Z</time>
      </trkpt>
      <trkpt lat="47.22403" lon="6.03145">
        <ele>251.338</ele>
        <time>2016-09-06T09:24:26.000Z</time>
      </trkpt>
      <trkpt lat="47.22399" lon="6.03144">
        <ele>251.202</ele>
        <time>2016-09-06T09:24:27.000Z</time>
      </trkpt>
      <trkpt lat="47.22394" lon="6.03141">
        <ele>251.826</ele>
        <time>2016-09-06T09:24:28.000Z</time>
      </trkpt>
      <trkpt lat="47.22389" lon="6.0314">
        <ele>251.472</ele>
        <time>2016-09-06T09:24:29.000Z</time>
      </trkpt>
      <trkpt lat="47.22385" lon="6.03137">
        <ele>251.46</ele>
        <time>2016-09-06T09:24:30.000Z</time>
      </trkpt>
      <trkpt lat="47.2238" lon="6.03135">
        <ele>252.14</ele>
        <time>2016-09-06T09:24:31.000Z</time>
      </trkpt>
      <trkpt lat="47.22377" lon="6.03133">
        <ele>250.818</ele>
        <time>2016-09-06T09:24:32.000Z</time>
      </trkpt>
      <trkpt lat="47.22372" lon="6.03131">
        <ele>251.218</ele>
        <time>2016-09-06T09:24:33.000Z</time>
      </trkpt>
      <trkpt lat="47.22368" lon="6.0313">
        <ele>251.783</ele>
        <time>2016-09-06T09:24:34.000Z</time>
      </trkpt>
      <trkpt lat="47.22365" lon="6.03127">
        <ele>249.071</ele>
        <time>2016-09-06T09:24:35.000Z</time>
      </trkpt>
      <trkpt lat="47.22361" lon="6.03126">
        <ele>249.467</ele>
        <time>2016-09-06T09:24:36.000Z</time>
      </trkpt>
      <trkpt lat="47.22357" lon="6.03124">
        <ele>248.693</ele>
        <time>2016-09-06T09:24:37.000Z</time>
      </trkpt>
      <trkpt lat="47.22353" lon="6.03122">
        <ele>249.002</ele>
        <time>2016-09-06T09:24:38.000Z</time>
      </trkpt>
      <trkpt lat="47.22348" lon="6.0312">
        <ele>249.331</ele>
        <time>2016-09-06T09:24:39.000Z</time>
      </trkpt>
      <trkpt lat="47.22343" lon="6.03119">
        <ele>249.768</ele>
        <time>2016-09-06T09:24:40.000Z</time>
      </trkpt>
      <trkpt lat="47.22339" lon="6.03116">
        <ele>248.302</ele>
        <time>2016-09-06T09:24:41.000Z</time>
      </trkpt>
      <trkpt lat="47.22335" lon="6.03112">
        <ele>247.243</ele>
        <time>2016-09-06T09:24:42.000Z</time>
      </trkpt>
      <trkpt lat="47.2233" lon="6.03109">
        <ele>247.43</ele>
        <time>2016-09-06T09:24:43.000Z</time>
      </trkpt>
      <trkpt lat="47.22327" lon="6.03107">
        <ele>245.811</ele>
        <time>2016-09-06T09:24:44.000Z</time>
      </trkpt>
      <trkpt lat="47.22323" lon="6.03105">
        <ele>246.019</ele>
        <time>2016-09-06T09:24:45.000Z</time>
      </trkpt>
      <trkpt lat="47.22318" lon="6.03102">
        <ele>245.593</ele>
        <time>2016-09-06T09:24:46.000Z</time>
      </trkpt>
      <trkpt lat="47.22315" lon="6.031">
        <ele>245.67</ele>
        <time>2016-09-06T09:24:47.000Z</time>
      </trkpt>
      <trkpt lat="47.22311" lon="6.03098">
        <ele>245.349</ele>
        <time>2016-09-06T09:24:48.000Z</time>
      </trkpt>
      <trkpt lat="47.22307" lon="6.03095">
        <ele>246.056</ele>
        <time>2016-09-06T09:24:49.000Z</time>
      </trkpt>
      <trkpt lat="47.22302" lon="6.03092">
        <ele>246.502</ele>
        <time>2016-09-06T09:24:50.000Z</time>
      </trkpt>
      <trkpt lat="47.22298" lon="6.03089">
        <ele>246.576</ele>
        <time>2016-09-06T09:24:51.000Z</time>
      </trkpt>
      <trkpt lat="47.22293" lon="6.03085">
        <ele>247.964</ele>
        <time>2016-09-06T09:24:52.000Z</time>
      </trkpt>
      <trkpt lat="47.22288" lon="6.03083">
        <ele>247.97</ele>
        <time>2016-09-06T09:24:53.000Z</time>
      </trkpt>
      <trkpt lat="47.22283" lon="6.03081">
        <ele>248.316</ele>
        <time>2016-09-06T09:24:54.000Z</time>
      </trkpt>
      <trkpt lat="47.2228" lon="6.03079">
        <ele>248.41</ele>
        <time>2016-09-06T09:24:55.000Z</time>
      </trkpt>
      <trkpt lat="47.22276" lon="6.03077">
        <ele>248.16</ele>
        <time>2016-09-06T09:24:56.000Z</time>
      </trkpt>
      <trkpt lat="47.22272" lon="6.03075">
        <ele>248.356</ele>
        <time>2016-09-06T09:24:57.000Z</time>
      </trkpt>
      <trkpt lat="47.22268" lon="6.03073">
        <ele>248.464</ele>
        <time>2016-09-06T09:24:58.000Z</time>
      </trkpt>
      <trkpt lat="47.22264" lon="6.0307">
        <ele>248.544</ele>
        <time>2016-09-06T09:24:59.000Z</time>
      </trkpt>
      <trkpt lat="47.2226" lon="6.03068">
        <ele>248.388</ele>
        <time>2016-09-06T09:25:00.000Z</time>
      </trkpt>
      <trkpt lat="47.22256" lon="6.03066">
        <ele>248.457</ele>
        <time>2016-09-06T09:25:01.000Z</time>
      </trkpt>
      <trkpt lat="47.22251" lon="6.03064">
        <ele>247.385</ele>
        <time>2016-09-06T09:25:02.000Z</time>
      </trkpt>
      <trkpt lat="47.22247" lon="6.03061">
        <ele>247.394</ele>
        <time>2016-09-06T09:25:03.000Z</time>
      </trkpt>
      <trkpt lat="47.22243" lon="6.03059">
        <ele>246.921</ele>
        <time>2016-09-06T09:25:04.000Z</time>
      </trkpt>
      <trkpt lat="47.22238" lon="6.03057">
        <ele>246.757</ele>
        <time>2016-09-06T09:25:05.000Z</time>
      </trkpt>
      <trkpt lat="47.22233" lon="6.03056">
        <ele>246.727</ele>
        <time>2016-09-06T09:25:06.000Z</time>
      </trkpt>
      <trkpt lat="47.22229" lon="6.03053">
        <ele>245.147</ele>
        <time>2016-09-06T09:25:07.000Z</time>
      </trkpt>
      <trkpt lat="47.22225" lon="6.03051">
        <ele>244.359</ele>
        <time>2016-09-06T09:25:08.000Z</time>
      </trkpt>
      <trkpt lat="47.2222" lon="6.03049">
        <ele>244.145</ele>
        <time>2016-09-06T09:25:09.000Z</time>
      </trkpt>
      <trkpt lat="47.22216" lon="6.03046">
        <ele>244.165</ele>
        <time>2016-09-06T09:25:10.000Z</time>
      </trkpt>
      <trkpt lat="47.22212" lon="6.03044">
        <ele>243.925</ele>
        <time>2016-09-06T09:25:11.000Z</time>
      </trkpt>
      <trkpt lat="47.22208" lon="6.03041">
        <ele>244.745</ele>
        <time>2016-09-06T09:25:12.000Z</time>
      </trkpt>
      <trkpt lat="47.22204" lon="6.03039">
        <ele>244.801</ele>
        <time>2016-09-06T09:25:13.000Z</time>
      </trkpt>
      <trkpt lat="47.22199" lon="6.03037">
        <ele>244.701</ele>
        <time>2016-09-06T09:25:14.000Z</time>
      </trkpt>
      <trkpt lat="47.22195" lon="6.03035">
        <ele>244.463</ele>
        <time>2016-09-06T09:25:15.000Z</time>
      </trkpt>
      <trkpt lat="47.2219" lon="6.03033">
        <ele>244.409</ele>
        <time>2016-09-06T09:25:16.000Z</time>
      </trkpt>
      <trkpt lat="47.22186" lon="6.0303">
        <ele>244.127</ele>
        <time>2016-09-06T09:25:17.000Z</time>
      </trkpt>
      <trkpt lat="47.22182" lon="6.03028">
        <ele>243.936</ele>
        <time>2016-09-06T09:25:18.000Z</time>
      </trkpt>
      <trkpt lat="47.22179" lon="6.03026">
        <ele>244.332</ele>
        <time>2016-09-06T09:25:19.000Z</time>
      </trkpt>
      <trkpt lat="47.22176" lon="6.03024">
        <ele>244.248</ele>
        <time>2016-09-06T09:25:20.000Z</time>
      </trkpt>
      <trkpt lat="47.22171" lon="6.03021">
        <ele>244.205</ele>
        <time>2016-09-06T09:25:21.000Z</time>
      </trkpt>
      <trkpt lat="47.22168" lon="6.03017">
        <ele>244.361</ele>
        <time>2016-09-06T09:25:22.000Z</time>
      </trkpt>
      <trkpt lat="47.22165" lon="6.03016">
        <ele>245.319</ele>
        <time>2016-09-06T09:25:23.000Z</time>
      </trkpt>
      <trkpt lat="47.22162" lon="6.03014">
        <ele>245.732</ele>
        <time>2016-09-06T09:25:24.000Z</time>
      </trkpt>
      <trkpt lat="47.22159" lon="6.03012">
        <ele>245.789</ele>
        <time>2016-09-06T09:25:25.000Z</time>
      </trkpt>
      <trkpt lat="47.22157" lon="6.0301">
        <ele>246.076</ele>
        <time>2016-09-06T09:25:26.000Z</time>
      </trkpt>
      <trkpt lat="47.22154" lon="6.03008">
        <ele>246.208</ele>
        <time>2016-09-06T09:25:27.000Z</time>
      </trkpt>
      <trkpt lat="47.22151" lon="6.03004">
        <ele>246.684</ele>
        <time>2016-09-06T09:25:28.000Z</time>
      </trkpt>
      <trkpt lat="47.22147" lon="6.03001">
        <ele>247.014</ele>
        <time>2016-09-06T09:25:29.000Z</time>
      </trkpt>
      <trkpt lat="47.22143" lon="6.02998">
        <ele>247.182</ele>
        <time>2016-09-06T09:25:30.000Z</time>
      </trkpt>
      <trkpt lat="47.22139" lon="6.02995">
        <ele>246.969</ele>
        <time>2016-09-06T09:25:31.000Z</time>
      </trkpt>
      <trkpt lat="47.22135" lon="6.02992">
        <ele>247.316</ele>
        <time>2016-09-06T09:25:32.000Z</time>
      </trkpt>
      <trkpt lat="47.22131" lon="6.02989">
        <ele>247.556</ele>
        <time>2016-09-06T09:25:33.000Z</time>
      </trkpt>
      <trkpt lat="47.22127" lon="6.02988">
        <ele>247.535</ele>
        <time>2016-09-06T09:25:34.000Z</time>
      </trkpt>
      <trkpt lat="47.22125" lon="6.02983">
        <ele>246.81</ele>
        <time>2016-09-06T09:25:35.000Z</time>
      </trkpt>
      <trkpt lat="47.22121" lon="6.0298">
        <ele>246.87</ele>
        <time>2016-09-06T09:25:36.000Z</time>
      </trkpt>
      <trkpt lat="47.22117" lon="6.02976">
        <ele>246.634</ele>
        <time>2016-09-06T09:25:37.000Z</time>
      </trkpt>
      <trkpt lat="47.22119" lon="6.02979">
        <ele>247.189</ele>
        <time>2016-09-06T09:25:38.000Z</time>
      </trkpt>
      <trkpt lat="47.22119" lon="6.02975">
        <ele>246.391</ele>
        <time>2016-09-06T09:25:39.000Z</time>
      </trkpt>
      <trkpt lat="47.2212" lon="6.02971">
        <ele>246.399</ele>
        <time>2016-09-06T09:25:40.000Z</time>
      </trkpt>
      <trkpt lat="47.22122" lon="6.02966">
        <ele>246.241</ele>
        <time>2016-09-06T09:25:41.000Z</time>
      </trkpt>
      <trkpt lat="47.22122" lon="6.02962">
        <ele>246.049</ele>
        <time>2016-09-06T09:25:42.000Z</time>
      </trkpt>
      <trkpt lat="47.22124" lon="6.0296">
        <ele>245.855</ele>
        <time>2016-09-06T09:25:43.000Z</time>
      </trkpt>
      <trkpt lat="47.22125" lon="6.02959">
        <ele>245.984</ele>
        <time>2016-09-06T09:25:44.000Z</time>
      </trkpt>
      <trkpt lat="47.22128" lon="6.02958">
        <ele>246.013</ele>
        <time>2016-09-06T09:25:46.000Z</time>
      </trkpt>
      <trkpt lat="47.22127" lon="6.02958">
        <ele>245.448</ele>
        <time>2016-09-06T09:25:47.000Z</time>
      </trkpt>
      <trkpt lat="47.22128" lon="6.02956">
        <ele>245.344</ele>
        <time>2016-09-06T09:25:48.000Z</time>
      </trkpt>
      <trkpt lat="47.22128" lon="6.02956">
        <ele>242.353</ele>
        <time>2016-09-06T09:25:49.000Z</time>
      </trkpt>
      <trkpt lat="47.2212" lon="6.02964">
        <ele>244.476</ele>
        <time>2016-09-06T09:25:50.000Z</time>
      </trkpt>
      <trkpt lat="47.2212" lon="6.02964">
        <ele>243.591</ele>
        <time>2016-09-06T09:25:51.000Z</time>
      </trkpt>
      <trkpt lat="47.22119" lon="6.02964">
        <ele>242.947</ele>
        <time>2016-09-06T09:25:52.000Z</time>
      </trkpt>
      <trkpt lat="47.22119" lon="6.02964">
        <ele>244.982</ele>
        <time>2016-09-06T09:25:53.000Z</time>
      </trkpt>
      <trkpt lat="47.22119" lon="6.02964">
        <ele>245.262</ele>
        <time>2016-09-06T09:25:54.000Z</time>
      </trkpt>
      <trkpt lat="47.22119" lon="6.02967">
        <ele>245.032</ele>
        <time>2016-09-06T09:25:55.000Z</time>
      </trkpt>
      <trkpt lat="47.22119" lon="6.02967">
        <ele>245.339</ele>
        <time>2016-09-06T09:25:56.000Z</time>
      </trkpt>
      <trkpt lat="47.22119" lon="6.02967">
        <ele>245.116</ele>
        <time>2016-09-06T09:25:57.000Z</time>
      </trkpt>
      <trkpt lat="47.22119" lon="6.02967">
        <ele>244.723</ele>
        <time>2016-09-06T09:25:58.000Z</time>
      </trkpt>
      <trkpt lat="47.22119" lon="6.02967">
        <ele>244.335</ele>
        <time>2016-09-06T09:25:59.000Z</time>
      </trkpt>
      <trkpt lat="47.22119" lon="6.02967">
        <ele>244.175</ele>
        <time>2016-09-06T09:26:00.000Z</time>
      </trkpt>
      <trkpt lat="47.22119" lon="6.02967">
        <ele>244.052</ele>
        <time>2016-09-06T09:26:01.000Z</time>
      </trkpt>
      <trkpt lat="47.22119" lon="6.02967">
        <ele>243.953</ele>
        <time>2016-09-06T09:26:02.000Z</time>
      </trkpt>
      <trkpt lat="47.22119" lon="6.02967">
        <ele>243.262</ele>
        <time>2016-09-06T09:26:03.000Z</time>
      </trkpt>
      <trkpt lat="47.22119" lon="6.02967">
        <ele>243.16</ele>
        <time>2016-09-06T09:26:04.000Z</time>
      </trkpt>
      <trkpt lat="47.22119" lon="6.02967">
        <ele>242.806</ele>
        <time>2016-09-06T09:26:05.000Z</time>
      </trkpt>
      <trkpt lat="47.22119" lon="6.02967">
        <ele>242.706</ele>
        <time>2016-09-06T09:26:06.000Z</time>
      </trkpt>
      <trkpt lat="47.22119" lon="6.02967">
        <ele>242.208</ele>
        <time>2016-09-06T09:26:07.000Z</time>
      </trkpt>
      <trkpt lat="47.22119" lon="6.02967">
        <ele>242.057</ele>
        <time>2016-09-06T09:26:08.000Z</time>
      </trkpt>
      <trkpt lat="47.22119" lon="6.02967">
        <ele>241.953</ele>
        <time>2016-09-06T09:26:09.000Z</time>
      </trkpt>
      <trkpt lat="47.22119" lon="6.02967">
        <ele>241.459</ele>
        <time>2016-09-06T09:26:10.000Z</time>
      </trkpt>
      <trkpt lat="47.22119" lon="6.02967">
        <ele>241.264</ele>
        <time>2016-09-06T09:26:11.000Z</time>
      </trkpt>
      <trkpt lat="47.22119" lon="6.02967">
        <ele>241.176</ele>
        <time>2016-09-06T09:26:12.000Z</time>
      </trkpt>
      <trkpt lat="47.22119" lon="6.02967">
        <ele>241.369</ele>
        <time>2016-09-06T09:26:13.000Z</time>
      </trkpt>
      <trkpt lat="47.22119" lon="6.02967">
        <ele>241.277</ele>
        <time>2016-09-06T09:26:14.000Z</time>
      </trkpt>
      <trkpt lat="47.22119" lon="6.02967">
        <ele>241.326</ele>
        <time>2016-09-06T09:26:15.000Z</time>
      </trkpt>
      <trkpt lat="47.22119" lon="6.02967">
        <ele>241.235</ele>
        <time>2016-09-06T09:26:16.000Z</time>
      </trkpt>
      <trkpt lat="47.22119" lon="6.02967">
        <ele>241.272</ele>
        <time>2016-09-06T09:26:17.000Z</time>
      </trkpt>
      <trkpt lat="47.22119" lon="6.02967">
        <ele>241.186</ele>
        <time>2016-09-06T09:26:18.000Z</time>
      </trkpt>
      <trkpt lat="47.22119" lon="6.02967">
        <ele>241.067</ele>
        <time>2016-09-06T09:26:19.000Z</time>
      </trkpt>
      <trkpt lat="47.22119" lon="6.02967">
        <ele>241.389</ele>
        <time>2016-09-06T09:26:20.000Z</time>
      </trkpt>
      <trkpt lat="47.22121" lon="6.02969">
        <ele>241.276</ele>
        <time>2016-09-06T09:26:21.000Z</time>
      </trkpt>
      <trkpt lat="47.22121" lon="6.02969">
        <ele>241.509</ele>
        <time>2016-09-06T09:26:22.000Z</time>
      </trkpt>
      <trkpt lat="47.22121" lon="6.02969">
        <ele>241.363</ele>
        <time>2016-09-06T09:26:23.000Z</time>
      </trkpt>
      <trkpt lat="47.22121" lon="6.02969">
        <ele>241.013</ele>
        <time>2016-09-06T09:26:24.000Z</time>
      </trkpt>
      <trkpt lat="47.22122" lon="6.0297">
        <ele>240.808</ele>
        <time>2016-09-06T09:26:25.000Z</time>
      </trkpt>
      <trkpt lat="47.22123" lon="6.02969">
        <ele>240.124</ele>
        <time>2016-09-06T09:26:26.000Z</time>
      </trkpt>
      <trkpt lat="47.22125" lon="6.02968">
        <ele>239.53</ele>
        <time>2016-09-06T09:26:27.000Z</time>
      </trkpt>
      <trkpt lat="47.22126" lon="6.02967">
        <ele>240.173</ele>
        <time>2016-09-06T09:26:28.000Z</time>
      </trkpt>
      <trkpt lat="47.22128" lon="6.02966">
        <ele>239.628</ele>
        <time>2016-09-06T09:26:29.000Z</time>
      </trkpt>
      <trkpt lat="47.22129" lon="6.02964">
        <ele>239.309</ele>
        <time>2016-09-06T09:26:30.000Z</time>
      </trkpt>
      <trkpt lat="47.22127" lon="6.02959">
        <ele>238.818</ele>
        <time>2016-09-06T09:26:31.000Z</time>
      </trkpt>
      <trkpt lat="47.22129" lon="6.02954">
        <ele>238.281</ele>
        <time>2016-09-06T09:26:32.000Z</time>
      </trkpt>
      <trkpt lat="47.22127" lon="6.02952">
        <ele>238.034</ele>
        <time>2016-09-06T09:26:33.000Z</time>
      </trkpt>
      <trkpt lat="47.22128" lon="6.02947">
        <ele>237.607</ele>
        <time>2016-09-06T09:26:34.000Z</time>
      </trkpt>
      <trkpt lat="47.22121" lon="6.02942">
        <ele>237.032</ele>
        <time>2016-09-06T09:26:35.000Z</time>
      </trkpt>
      <trkpt lat="47.2212" lon="6.02936">
        <ele>236.587</ele>
        <time>2016-09-06T09:26:36.000Z</time>
      </trkpt>
      <trkpt lat="47.22104" lon="6.02942">
        <ele>238.649</ele>
        <time>2016-09-06T09:26:37.000Z</time>
      </trkpt>
      <trkpt lat="47.221" lon="6.02938">
        <ele>238.511</ele>
        <time>2016-09-06T09:26:38.000Z</time>
      </trkpt>
      <trkpt lat="47.22096" lon="6.02935">
        <ele>239.199</ele>
        <time>2016-09-06T09:26:39.000Z</time>
      </trkpt>
      <trkpt lat="47.22092" lon="6.02931">
        <ele>239.513</ele>
        <time>2016-09-06T09:26:40.000Z</time>
      </trkpt>
      <trkpt lat="47.22087" lon="6.02927">
        <ele>239.476</ele>
        <time>2016-09-06T09:26:41.000Z</time>
      </trkpt>
      <trkpt lat="47.22082" lon="6.02923">
        <ele>239.954</ele>
        <time>2016-09-06T09:26:42.000Z</time>
      </trkpt>
      <trkpt lat="47.22081" lon="6.02917">
        <ele>240.271</ele>
        <time>2016-09-06T09:26:43.000Z</time>
      </trkpt>
      <trkpt lat="47.22077" lon="6.02913">
        <ele>240.488</ele>
        <time>2016-09-06T09:26:44.000Z</time>
      </trkpt>
      <trkpt lat="47.22074" lon="6.02909">
        <ele>240.227</ele>
        <time>2016-09-06T09:26:45.000Z</time>
      </trkpt>
      <trkpt lat="47.22071" lon="6.02906">
        <ele>240.448</ele>
        <time>2016-09-06T09:26:46.000Z</time>
      </trkpt>
      <trkpt lat="47.22068" lon="6.02902">
        <ele>240.514</ele>
        <time>2016-09-06T09:26:47.000Z</time>
      </trkpt>
      <trkpt lat="47.22064" lon="6.02893">
        <ele>240.966</ele>
        <time>2016-09-06T09:26:48.000Z</time>
      </trkpt>
      <trkpt lat="47.22061" lon="6.02888">
        <ele>241.27</ele>
        <time>2016-09-06T09:26:49.000Z</time>
      </trkpt>
      <trkpt lat="47.22059" lon="6.02883">
        <ele>241.371</ele>
        <time>2016-09-06T09:26:50.000Z</time>
      </trkpt>
      <trkpt lat="47.22056" lon="6.02877">
        <ele>240.909</ele>
        <time>2016-09-06T09:26:51.000Z</time>
      </trkpt>
      <trkpt lat="47.22054" lon="6.02872">
        <ele>241</ele>
        <time>2016-09-06T09:26:52.000Z</time>
      </trkpt>
      <trkpt lat="47.22051" lon="6.02866">
        <ele>241.297</ele>
        <time>2016-09-06T09:26:53.000Z</time>
      </trkpt>
      <trkpt lat="47.22048" lon="6.02861">
        <ele>241.337</ele>
        <time>2016-09-06T09:26:54.000Z</time>
      </trkpt>
      <trkpt lat="47.22046" lon="6.02856">
        <ele>241.464</ele>
        <time>2016-09-06T09:26:55.000Z</time>
      </trkpt>
      <trkpt lat="47.22043" lon="6.0285">
        <ele>241.576</ele>
        <time>2016-09-06T09:26:56.000Z</time>
      </trkpt>
      <trkpt lat="47.2204" lon="6.02846">
        <ele>242.926</ele>
        <time>2016-09-06T09:26:57.000Z</time>
      </trkpt>
      <trkpt lat="47.22037" lon="6.02841">
        <ele>243.363</ele>
        <time>2016-09-06T09:26:58.000Z</time>
      </trkpt>
      <trkpt lat="47.22035" lon="6.02835">
        <ele>242.946</ele>
        <time>2016-09-06T09:26:59.000Z</time>
      </trkpt>
      <trkpt lat="47.22031" lon="6.02828">
        <ele>241.709</ele>
        <time>2016-09-06T09:27:00.000Z</time>
      </trkpt>
      <trkpt lat="47.22028" lon="6.02822">
        <ele>239.811</ele>
        <time>2016-09-06T09:27:01.000Z</time>
      </trkpt>
      <trkpt lat="47.22025" lon="6.02817">
        <ele>239.747</ele>
        <time>2016-09-06T09:27:02.000Z</time>
      </trkpt>
      <trkpt lat="47.22023" lon="6.0281">
        <ele>240.269</ele>
        <time>2016-09-06T09:27:03.000Z</time>
      </trkpt>
      <trkpt lat="47.22022" lon="6.02804">
        <ele>240.174</ele>
        <time>2016-09-06T09:27:04.000Z</time>
      </trkpt>
      <trkpt lat="47.2202" lon="6.02798">
        <ele>239.972</ele>
        <time>2016-09-06T09:27:05.000Z</time>
      </trkpt>
      <trkpt lat="47.22017" lon="6.0279">
        <ele>238.847</ele>
        <time>2016-09-06T09:27:06.000Z</time>
      </trkpt>
      <trkpt lat="47.22014" lon="6.02782">
        <ele>238.22</ele>
        <time>2016-09-06T09:27:07.000Z</time>
      </trkpt>
      <trkpt lat="47.22012" lon="6.02775">
        <ele>238.224</ele>
        <time>2016-09-06T09:27:08.000Z</time>
      </trkpt>
      <trkpt lat="47.2201" lon="6.02769">
        <ele>237.544</ele>
        <time>2016-09-06T09:27:09.000Z</time>
      </trkpt>
      <trkpt lat="47.22008" lon="6.02762">
        <ele>237.524</ele>
        <time>2016-09-06T09:27:10.000Z</time>
      </trkpt>
      <trkpt lat="47.22008" lon="6.02757">
        <ele>238.042</ele>
        <time>2016-09-06T09:27:11.000Z</time>
      </trkpt>
      <trkpt lat="47.22006" lon="6.02751">
        <ele>237.332</ele>
        <time>2016-09-06T09:27:12.000Z</time>
      </trkpt>
      <trkpt lat="47.22005" lon="6.02745">
        <ele>237.272</ele>
        <time>2016-09-06T09:27:13.000Z</time>
      </trkpt>
      <trkpt lat="47.22004" lon="6.02738">
        <ele>237.424</ele>
        <time>2016-09-06T09:27:14.000Z</time>
      </trkpt>
      <trkpt lat="47.22002" lon="6.02731">
        <ele>237.359</ele>
        <time>2016-09-06T09:27:15.000Z</time>
      </trkpt>
      <trkpt lat="47.22001" lon="6.02724">
        <ele>236.539</ele>
        <time>2016-09-06T09:27:16.000Z</time>
      </trkpt>
      <trkpt lat="47.21999" lon="6.02717">
        <ele>236.437</ele>
        <time>2016-09-06T09:27:17.000Z</time>
      </trkpt>
      <trkpt lat="47.21998" lon="6.0271">
        <ele>236.221</ele>
        <time>2016-09-06T09:27:18.000Z</time>
      </trkpt>
      <trkpt lat="47.21996" lon="6.02703">
        <ele>236.052</ele>
        <time>2016-09-06T09:27:19.000Z</time>
      </trkpt>
      <trkpt lat="47.21995" lon="6.02695">
        <ele>235.963</ele>
        <time>2016-09-06T09:27:20.000Z</time>
      </trkpt>
      <trkpt lat="47.21995" lon="6.02687">
        <ele>236.351</ele>
        <time>2016-09-06T09:27:21.000Z</time>
      </trkpt>
      <trkpt lat="47.21993" lon="6.0268">
        <ele>236.186</ele>
        <time>2016-09-06T09:27:22.000Z</time>
      </trkpt>
      <trkpt lat="47.21992" lon="6.02673">
        <ele>235.697</ele>
        <time>2016-09-06T09:27:23.000Z</time>
      </trkpt>
      <trkpt lat="47.2199" lon="6.02666">
        <ele>235.73</ele>
        <time>2016-09-06T09:27:24.000Z</time>
      </trkpt>
      <trkpt lat="47.21989" lon="6.02658">
        <ele>235.825</ele>
        <time>2016-09-06T09:27:25.000Z</time>
      </trkpt>
      <trkpt lat="47.21988" lon="6.0265">
        <ele>235.443</ele>
        <time>2016-09-06T09:27:26.000Z</time>
      </trkpt>
      <trkpt lat="47.21987" lon="6.02643">
        <ele>235.452</ele>
        <time>2016-09-06T09:27:27.000Z</time>
      </trkpt>
      <trkpt lat="47.21986" lon="6.02636">
        <ele>235.08</ele>
        <time>2016-09-06T09:27:28.000Z</time>
      </trkpt>
      <trkpt lat="47.21986" lon="6.02629">
        <ele>235.166</ele>
        <time>2016-09-06T09:27:29.000Z</time>
      </trkpt>
      <trkpt lat="47.21985" lon="6.02621">
        <ele>235.147</ele>
        <time>2016-09-06T09:27:30.000Z</time>
      </trkpt>
      <trkpt lat="47.21984" lon="6.02614">
        <ele>235.067</ele>
        <time>2016-09-06T09:27:31.000Z</time>
      </trkpt>
      <trkpt lat="47.21983" lon="6.02607">
        <ele>235.634</ele>
        <time>2016-09-06T09:27:32.000Z</time>
      </trkpt>
      <trkpt lat="47.21982" lon="6.02601">
        <ele>235.612</ele>
        <time>2016-09-06T09:27:33.000Z</time>
      </trkpt>
      <trkpt lat="47.21982" lon="6.02592">
        <ele>235.549</ele>
        <time>2016-09-06T09:27:34.000Z</time>
      </trkpt>
      <trkpt lat="47.21981" lon="6.02585">
        <ele>235.528</ele>
        <time>2016-09-06T09:27:35.000Z</time>
      </trkpt>
      <trkpt lat="47.2198" lon="6.02579">
        <ele>235.593</ele>
        <time>2016-09-06T09:27:36.000Z</time>
      </trkpt>
      <trkpt lat="47.21979" lon="6.02571">
        <ele>235.02</ele>
        <time>2016-09-06T09:27:37.000Z</time>
      </trkpt>
      <trkpt lat="47.21978" lon="6.02565">
        <ele>235.169</ele>
        <time>2016-09-06T09:27:38.000Z</time>
      </trkpt>
      <trkpt lat="47.21977" lon="6.02558">
        <ele>234.906</ele>
        <time>2016-09-06T09:27:39.000Z</time>
      </trkpt>
      <trkpt lat="47.21975" lon="6.02552">
        <ele>234.958</ele>
        <time>2016-09-06T09:27:40.000Z</time>
      </trkpt>
      <trkpt lat="47.21975" lon="6.02544">
        <ele>234.644</ele>
        <time>2016-09-06T09:27:41.000Z</time>
      </trkpt>
      <trkpt lat="47.21974" lon="6.02537">
        <ele>234.682</ele>
        <time>2016-09-06T09:27:42.000Z</time>
      </trkpt>
      <trkpt lat="47.21973" lon="6.0253">
        <ele>234.701</ele>
        <time>2016-09-06T09:27:43.000Z</time>
      </trkpt>
      <trkpt lat="47.21972" lon="6.02523">
        <ele>234.653</ele>
        <time>2016-09-06T09:27:44.000Z</time>
      </trkpt>
      <trkpt lat="47.21971" lon="6.02516">
        <ele>234.644</ele>
        <time>2016-09-06T09:27:45.000Z</time>
      </trkpt>
      <trkpt lat="47.21971" lon="6.02508">
        <ele>235.097</ele>
        <time>2016-09-06T09:27:46.000Z</time>
      </trkpt>
      <trkpt lat="47.2197" lon="6.02501">
        <ele>235.04</ele>
        <time>2016-09-06T09:27:47.000Z</time>
      </trkpt>
      <trkpt lat="47.2197" lon="6.02493">
        <ele>235.147</ele>
        <time>2016-09-06T09:27:48.003Z</time>
      </trkpt>
      <trkpt lat="47.21969" lon="6.02486">
        <ele>235.253</ele>
        <time>2016-09-06T09:27:49.000Z</time>
      </trkpt>
      <trkpt lat="47.21968" lon="6.02479">
        <ele>235.309</ele>
        <time>2016-09-06T09:27:50.000Z</time>
      </trkpt>
      <trkpt lat="47.21968" lon="6.02472">
        <ele>235.457</ele>
        <time>2016-09-06T09:27:51.000Z</time>
      </trkpt>
      <trkpt lat="47.21967" lon="6.02464">
        <ele>235.496</ele>
        <time>2016-09-06T09:27:52.000Z</time>
      </trkpt>
      <trkpt lat="47.21966" lon="6.02457">
        <ele>235.52</ele>
        <time>2016-09-06T09:27:53.000Z</time>
      </trkpt>
      <trkpt lat="47.21965" lon="6.0245">
        <ele>235.521</ele>
        <time>2016-09-06T09:27:54.000Z</time>
      </trkpt>
      <trkpt lat="47.21963" lon="6.02443">
        <ele>235.664</ele>
        <time>2016-09-06T09:27:55.000Z</time>
      </trkpt>
      <trkpt lat="47.21962" lon="6.02436">
        <ele>235.813</ele>
        <time>2016-09-06T09:27:56.000Z</time>
      </trkpt>
      <trkpt lat="47.21961" lon="6.0243">
        <ele>235.934</ele>
        <time>2016-09-06T09:27:57.000Z</time>
      </trkpt>
      <trkpt lat="47.21959" lon="6.02423">
        <ele>235.637</ele>
        <time>2016-09-06T09:27:58.000Z</time>
      </trkpt>
      <trkpt lat="47.21957" lon="6.02416">
        <ele>235.474</ele>
        <time>2016-09-06T09:27:59.000Z</time>
      </trkpt>
      <trkpt lat="47.21955" lon="6.02409">
        <ele>235.676</ele>
        <time>2016-09-06T09:28:00.000Z</time>
      </trkpt>
      <trkpt lat="47.21954" lon="6.02402">
        <ele>235.922</ele>
        <time>2016-09-06T09:28:01.000Z</time>
      </trkpt>
      <trkpt lat="47.21952" lon="6.02395">
        <ele>236.206</ele>
        <time>2016-09-06T09:28:02.000Z</time>
      </trkpt>
      <trkpt lat="47.2195" lon="6.02388">
        <ele>236.486</ele>
        <time>2016-09-06T09:28:03.000Z</time>
      </trkpt>
      <trkpt lat="47.21948" lon="6.02383">
        <ele>235.924</ele>
        <time>2016-09-06T09:28:04.000Z</time>
      </trkpt>
      <trkpt lat="47.21946" lon="6.02376">
        <ele>236.12</ele>
        <time>2016-09-06T09:28:05.000Z</time>
      </trkpt>
      <trkpt lat="47.21944" lon="6.02369">
        <ele>236.289</ele>
        <time>2016-09-06T09:28:06.000Z</time>
      </trkpt>
      <trkpt lat="47.21942" lon="6.02362">
        <ele>236.381</ele>
        <time>2016-09-06T09:28:07.000Z</time>
      </trkpt>
      <trkpt lat="47.2194" lon="6.02354">
        <ele>236.589</ele>
        <time>2016-09-06T09:28:08.000Z</time>
      </trkpt>
      <trkpt lat="47.21937" lon="6.02349">
        <ele>236.908</ele>
        <time>2016-09-06T09:28:09.000Z</time>
      </trkpt>
      <trkpt lat="47.21935" lon="6.02343">
        <ele>237.067</ele>
        <time>2016-09-06T09:28:10.000Z</time>
      </trkpt>
      <trkpt lat="47.21933" lon="6.02339">
        <ele>237.255</ele>
        <time>2016-09-06T09:28:11.000Z</time>
      </trkpt>
      <trkpt lat="47.2193" lon="6.02333">
        <ele>237.403</ele>
        <time>2016-09-06T09:28:12.000Z</time>
      </trkpt>
      <trkpt lat="47.21928" lon="6.02328">
        <ele>237.538</ele>
        <time>2016-09-06T09:28:13.000Z</time>
      </trkpt>
      <trkpt lat="47.21926" lon="6.02322">
        <ele>236.898</ele>
        <time>2016-09-06T09:28:14.000Z</time>
      </trkpt>
      <trkpt lat="47.21924" lon="6.02316">
        <ele>236.777</ele>
        <time>2016-09-06T09:28:15.000Z</time>
      </trkpt>
      <trkpt lat="47.21921" lon="6.0231">
        <ele>236.379</ele>
        <time>2016-09-06T09:28:16.000Z</time>
      </trkpt>
      <trkpt lat="47.2192" lon="6.02304">
        <ele>235.938</ele>
        <time>2016-09-06T09:28:17.000Z</time>
      </trkpt>
      <trkpt lat="47.21916" lon="6.02298">
        <ele>236.21</ele>
        <time>2016-09-06T09:28:18.000Z</time>
      </trkpt>
      <trkpt lat="47.21913" lon="6.02292">
        <ele>235.805</ele>
        <time>2016-09-06T09:28:19.000Z</time>
      </trkpt>
      <trkpt lat="47.21908" lon="6.0228">
        <ele>235.675</ele>
        <time>2016-09-06T09:28:20.000Z</time>
      </trkpt>
      <trkpt lat="47.21905" lon="6.02272">
        <ele>235.244</ele>
        <time>2016-09-06T09:28:21.000Z</time>
      </trkpt>
      <trkpt lat="47.21901" lon="6.02265">
        <ele>235.141</ele>
        <time>2016-09-06T09:28:22.000Z</time>
      </trkpt>
      <trkpt lat="47.21898" lon="6.02256">
        <ele>235.145</ele>
        <time>2016-09-06T09:28:23.000Z</time>
      </trkpt>
      <trkpt lat="47.21895" lon="6.02248">
        <ele>235.023</ele>
        <time>2016-09-06T09:28:24.000Z</time>
      </trkpt>
      <trkpt lat="47.21893" lon="6.02241">
        <ele>236.422</ele>
        <time>2016-09-06T09:28:25.000Z</time>
      </trkpt>
      <trkpt lat="47.2189" lon="6.02233">
        <ele>236.493</ele>
        <time>2016-09-06T09:28:26.000Z</time>
      </trkpt>
      <trkpt lat="47.21887" lon="6.02225">
        <ele>236.176</ele>
        <time>2016-09-06T09:28:27.000Z</time>
      </trkpt>
      <trkpt lat="47.21882" lon="6.02216">
        <ele>234.662</ele>
        <time>2016-09-06T09:28:28.000Z</time>
      </trkpt>
      <trkpt lat="47.21878" lon="6.02207">
        <ele>234.669</ele>
        <time>2016-09-06T09:28:29.000Z</time>
      </trkpt>
      <trkpt lat="47.21874" lon="6.02199">
        <ele>233.889</ele>
        <time>2016-09-06T09:28:30.000Z</time>
      </trkpt>
      <trkpt lat="47.21871" lon="6.02194">
        <ele>233.309</ele>
        <time>2016-09-06T09:28:31.000Z</time>
      </trkpt>
      <trkpt lat="47.21868" lon="6.02187">
        <ele>233.035</ele>
        <time>2016-09-06T09:28:32.000Z</time>
      </trkpt>
      <trkpt lat="47.21865" lon="6.02181">
        <ele>232.85</ele>
        <time>2016-09-06T09:28:33.000Z</time>
      </trkpt>
      <trkpt lat="47.21862" lon="6.02174">
        <ele>232.602</ele>
        <time>2016-09-06T09:28:34.000Z</time>
      </trkpt>
      <trkpt lat="47.21859" lon="6.02167">
        <ele>231.266</ele>
        <time>2016-09-06T09:28:35.000Z</time>
      </trkpt>
      <trkpt lat="47.21856" lon="6.02161">
        <ele>231.096</ele>
        <time>2016-09-06T09:28:36.000Z</time>
      </trkpt>
      <trkpt lat="47.21853" lon="6.02155">
        <ele>230.471</ele>
        <time>2016-09-06T09:28:37.000Z</time>
      </trkpt>
      <trkpt lat="47.2185" lon="6.02149">
        <ele>230.013</ele>
        <time>2016-09-06T09:28:38.000Z</time>
      </trkpt>
      <trkpt lat="47.21846" lon="6.02142">
        <ele>229.744</ele>
        <time>2016-09-06T09:28:39.000Z</time>
      </trkpt>
      <trkpt lat="47.21844" lon="6.02135">
        <ele>229.561</ele>
        <time>2016-09-06T09:28:40.000Z</time>
      </trkpt>
      <trkpt lat="47.2184" lon="6.02129">
        <ele>228.892</ele>
        <time>2016-09-06T09:28:41.000Z</time>
      </trkpt>
      <trkpt lat="47.21838" lon="6.02122">
        <ele>229.919</ele>
        <time>2016-09-06T09:28:42.000Z</time>
      </trkpt>
      <trkpt lat="47.21835" lon="6.02116">
        <ele>229.665</ele>
        <time>2016-09-06T09:28:43.000Z</time>
      </trkpt>
      <trkpt lat="47.21832" lon="6.02109">
        <ele>229.897</ele>
        <time>2016-09-06T09:28:44.000Z</time>
      </trkpt>
      <trkpt lat="47.21829" lon="6.02102">
        <ele>229.243</ele>
        <time>2016-09-06T09:28:45.000Z</time>
      </trkpt>
      <trkpt lat="47.21825" lon="6.02096">
        <ele>228.351</ele>
        <time>2016-09-06T09:28:46.000Z</time>
      </trkpt>
      <trkpt lat="47.21821" lon="6.02089">
        <ele>228.6</ele>
        <time>2016-09-06T09:28:47.000Z</time>
      </trkpt>
      <trkpt lat="47.21817" lon="6.02082">
        <ele>228.195</ele>
        <time>2016-09-06T09:28:48.000Z</time>
      </trkpt>
      <trkpt lat="47.21816" lon="6.02077">
        <ele>229.118</ele>
        <time>2016-09-06T09:28:49.000Z</time>
      </trkpt>
      <trkpt lat="47.21813" lon="6.02071">
        <ele>228.918</ele>
        <time>2016-09-06T09:28:50.000Z</time>
      </trkpt>
      <trkpt lat="47.21812" lon="6.02066">
        <ele>230.289</ele>
        <time>2016-09-06T09:28:51.000Z</time>
      </trkpt>
      <trkpt lat="47.21809" lon="6.02061">
        <ele>230.161</ele>
        <time>2016-09-06T09:28:52.000Z</time>
      </trkpt>
      <trkpt lat="47.21807" lon="6.02054">
        <ele>230.123</ele>
        <time>2016-09-06T09:28:53.000Z</time>
      </trkpt>
      <trkpt lat="47.21804" lon="6.02049">
        <ele>229.9</ele>
        <time>2016-09-06T09:28:54.000Z</time>
      </trkpt>
      <trkpt lat="47.21801" lon="6.02043">
        <ele>229.505</ele>
        <time>2016-09-06T09:28:55.000Z</time>
      </trkpt>
      <trkpt lat="47.21799" lon="6.02037">
        <ele>229.499</ele>
        <time>2016-09-06T09:28:56.000Z</time>
      </trkpt>
      <trkpt lat="47.21796" lon="6.02031">
        <ele>229.343</ele>
        <time>2016-09-06T09:28:57.000Z</time>
      </trkpt>
      <trkpt lat="47.21794" lon="6.02025">
        <ele>229.96</ele>
        <time>2016-09-06T09:28:58.000Z</time>
      </trkpt>
      <trkpt lat="47.21791" lon="6.02019">
        <ele>229.863</ele>
        <time>2016-09-06T09:28:59.000Z</time>
      </trkpt>
      <trkpt lat="47.21789" lon="6.02013">
        <ele>229.536</ele>
        <time>2016-09-06T09:29:00.000Z</time>
      </trkpt>
      <trkpt lat="47.21786" lon="6.02007">
        <ele>229.36</ele>
        <time>2016-09-06T09:29:01.000Z</time>
      </trkpt>
      <trkpt lat="47.21784" lon="6.02001">
        <ele>229.282</ele>
        <time>2016-09-06T09:29:02.000Z</time>
      </trkpt>
      <trkpt lat="47.21781" lon="6.01994">
        <ele>229.259</ele>
        <time>2016-09-06T09:29:03.000Z</time>
      </trkpt>
      <trkpt lat="47.21778" lon="6.01987">
        <ele>229.242</ele>
        <time>2016-09-06T09:29:04.000Z</time>
      </trkpt>
      <trkpt lat="47.21775" lon="6.01983">
        <ele>228.426</ele>
        <time>2016-09-06T09:29:05.000Z</time>
      </trkpt>
      <trkpt lat="47.21772" lon="6.01977">
        <ele>228.279</ele>
        <time>2016-09-06T09:29:06.000Z</time>
      </trkpt>
      <trkpt lat="47.2177" lon="6.01971">
        <ele>228.299</ele>
        <time>2016-09-06T09:29:07.000Z</time>
      </trkpt>
      <trkpt lat="47.21767" lon="6.01965">
        <ele>228.032</ele>
        <time>2016-09-06T09:29:08.000Z</time>
      </trkpt>
      <trkpt lat="47.21764" lon="6.01959">
        <ele>227.82</ele>
        <time>2016-09-06T09:29:09.000Z</time>
      </trkpt>
      <trkpt lat="47.21762" lon="6.01953">
        <ele>227.039</ele>
        <time>2016-09-06T09:29:10.000Z</time>
      </trkpt>
      <trkpt lat="47.21759" lon="6.01946">
        <ele>226.925</ele>
        <time>2016-09-06T09:29:11.000Z</time>
      </trkpt>
      <trkpt lat="47.21757" lon="6.0194">
        <ele>226.827</ele>
        <time>2016-09-06T09:29:12.000Z</time>
      </trkpt>
      <trkpt lat="47.21754" lon="6.01934">
        <ele>226.834</ele>
        <time>2016-09-06T09:29:13.000Z</time>
      </trkpt>
      <trkpt lat="47.21751" lon="6.01928">
        <ele>226.981</ele>
        <time>2016-09-06T09:29:14.000Z</time>
      </trkpt>
      <trkpt lat="47.21748" lon="6.01923">
        <ele>226.841</ele>
        <time>2016-09-06T09:29:15.000Z</time>
      </trkpt>
      <trkpt lat="47.21746" lon="6.01918">
        <ele>227.115</ele>
        <time>2016-09-06T09:29:16.000Z</time>
      </trkpt>
      <trkpt lat="47.21744" lon="6.01912">
        <ele>227.658</ele>
        <time>2016-09-06T09:29:17.000Z</time>
      </trkpt>
      <trkpt lat="47.21741" lon="6.01907">
        <ele>227.591</ele>
        <time>2016-09-06T09:29:18.000Z</time>
      </trkpt>
      <trkpt lat="47.21739" lon="6.01902">
        <ele>227.936</ele>
        <time>2016-09-06T09:29:19.000Z</time>
      </trkpt>
      <trkpt lat="47.21738" lon="6.01897">
        <ele>228.162</ele>
        <time>2016-09-06T09:29:20.000Z</time>
      </trkpt>
      <trkpt lat="47.21738" lon="6.01894">
        <ele>229.904</ele>
        <time>2016-09-06T09:29:21.000Z</time>
      </trkpt>
      <trkpt lat="47.21739" lon="6.01891">
        <ele>231.655</ele>
        <time>2016-09-06T09:29:22.000Z</time>
      </trkpt>
      <trkpt lat="47.21738" lon="6.0189">
        <ele>231.553</ele>
        <time>2016-09-06T09:29:23.000Z</time>
      </trkpt>
      <trkpt lat="47.2174" lon="6.01892">
        <ele>233.693</ele>
        <time>2016-09-06T09:29:24.000Z</time>
      </trkpt>
      <trkpt lat="47.2174" lon="6.01892">
        <ele>233.19</ele>
        <time>2016-09-06T09:29:25.000Z</time>
      </trkpt>
      <trkpt lat="47.21741" lon="6.01892">
        <ele>233.072</ele>
        <time>2016-09-06T09:29:26.000Z</time>
      </trkpt>
      <trkpt lat="47.21741" lon="6.01892">
        <ele>235.162</ele>
        <time>2016-09-06T09:29:27.000Z</time>
      </trkpt>
      <trkpt lat="47.21742" lon="6.01894">
        <ele>235.117</ele>
        <time>2016-09-06T09:29:28.000Z</time>
      </trkpt>
      <trkpt lat="47.21742" lon="6.01894">
        <ele>235.237</ele>
        <time>2016-09-06T09:29:29.000Z</time>
      </trkpt>
      <trkpt lat="47.21742" lon="6.01894">
        <ele>235.196</ele>
        <time>2016-09-06T09:29:30.000Z</time>
      </trkpt>
      <trkpt lat="47.21742" lon="6.01894">
        <ele>235.597</ele>
        <time>2016-09-06T09:29:31.000Z</time>
      </trkpt>
      <trkpt lat="47.21742" lon="6.01894">
        <ele>235.527</ele>
        <time>2016-09-06T09:29:32.000Z</time>
      </trkpt>
      <trkpt lat="47.21742" lon="6.01894">
        <ele>236.057</ele>
        <time>2016-09-06T09:29:33.000Z</time>
      </trkpt>
      <trkpt lat="47.21742" lon="6.01894">
        <ele>236.372</ele>
        <time>2016-09-06T09:29:34.000Z</time>
      </trkpt>
      <trkpt lat="47.21743" lon="6.01894">
        <ele>236.367</ele>
        <time>2016-09-06T09:29:35.000Z</time>
      </trkpt>
      <trkpt lat="47.21743" lon="6.01894">
        <ele>237.178</ele>
        <time>2016-09-06T09:29:36.000Z</time>
      </trkpt>
      <trkpt lat="47.21743" lon="6.01894">
        <ele>237.193</ele>
        <time>2016-09-06T09:29:37.000Z</time>
      </trkpt>
      <trkpt lat="47.21743" lon="6.01894">
        <ele>237.389</ele>
        <time>2016-09-06T09:29:38.000Z</time>
      </trkpt>
      <trkpt lat="47.21743" lon="6.01895">
        <ele>237.416</ele>
        <time>2016-09-06T09:29:39.000Z</time>
      </trkpt>
      <trkpt lat="47.21743" lon="6.01895">
        <ele>237.434</ele>
        <time>2016-09-06T09:29:40.000Z</time>
      </trkpt>
      <trkpt lat="47.21743" lon="6.01895">
        <ele>237.467</ele>
        <time>2016-09-06T09:29:41.000Z</time>
      </trkpt>
      <trkpt lat="47.21743" lon="6.01895">
        <ele>237.881</ele>
        <time>2016-09-06T09:29:42.000Z</time>
      </trkpt>
      <trkpt lat="47.21743" lon="6.01895">
        <ele>238.14</ele>
        <time>2016-09-06T09:29:43.000Z</time>
      </trkpt>
      <trkpt lat="47.21743" lon="6.01895">
        <ele>238.185</ele>
        <time>2016-09-06T09:29:44.000Z</time>
      </trkpt>
      <trkpt lat="47.21743" lon="6.01895">
        <ele>238.637</ele>
        <time>2016-09-06T09:29:45.000Z</time>
      </trkpt>
      <trkpt lat="47.21743" lon="6.01896">
        <ele>238.68</ele>
        <time>2016-09-06T09:29:46.000Z</time>
      </trkpt>
      <trkpt lat="47.21743" lon="6.01896">
        <ele>238.987</ele>
        <time>2016-09-06T09:29:47.000Z</time>
      </trkpt>
      <trkpt lat="47.21743" lon="6.01896">
        <ele>239.024</ele>
        <time>2016-09-06T09:29:48.000Z</time>
      </trkpt>
      <trkpt lat="47.21743" lon="6.01896">
        <ele>239.028</ele>
        <time>2016-09-06T09:29:49.000Z</time>
      </trkpt>
      <trkpt lat="47.21743" lon="6.01896">
        <ele>238.649</ele>
        <time>2016-09-06T09:29:50.000Z</time>
      </trkpt>
      <trkpt lat="47.21743" lon="6.01896">
        <ele>238.647</ele>
        <time>2016-09-06T09:29:51.000Z</time>
      </trkpt>
      <trkpt lat="47.21743" lon="6.01896">
        <ele>238.374</ele>
        <time>2016-09-06T09:29:52.000Z</time>
      </trkpt>
      <trkpt lat="47.21743" lon="6.01896">
        <ele>238.628</ele>
        <time>2016-09-06T09:29:53.000Z</time>
      </trkpt>
      <trkpt lat="47.21743" lon="6.01896">
        <ele>238.603</ele>
        <time>2016-09-06T09:29:54.000Z</time>
      </trkpt>
      <trkpt lat="47.21743" lon="6.01896">
        <ele>238.748</ele>
        <time>2016-09-06T09:29:55.000Z</time>
      </trkpt>
      <trkpt lat="47.21743" lon="6.01896">
        <ele>238.892</ele>
        <time>2016-09-06T09:29:56.000Z</time>
      </trkpt>
      <trkpt lat="47.21743" lon="6.01896">
        <ele>238.792</ele>
        <time>2016-09-06T09:29:57.000Z</time>
      </trkpt>
      <trkpt lat="47.21743" lon="6.01896">
        <ele>239.003</ele>
        <time>2016-09-06T09:29:58.000Z</time>
      </trkpt>
      <trkpt lat="47.21743" lon="6.01896">
        <ele>238.894</ele>
        <time>2016-09-06T09:29:59.000Z</time>
      </trkpt>
      <trkpt lat="47.21743" lon="6.01896">
        <ele>238.826</ele>
        <time>2016-09-06T09:30:00.000Z</time>
      </trkpt>
      <trkpt lat="47.21743" lon="6.01896">
        <ele>238.735</ele>
        <time>2016-09-06T09:30:01.000Z</time>
      </trkpt>
      <trkpt lat="47.21743" lon="6.01896">
        <ele>238.779</ele>
        <time>2016-09-06T09:30:02.000Z</time>
      </trkpt>
      <trkpt lat="47.21743" lon="6.01896">
        <ele>238.719</ele>
        <time>2016-09-06T09:30:03.000Z</time>
      </trkpt>
      <trkpt lat="47.21743" lon="6.01896">
        <ele>238.847</ele>
        <time>2016-09-06T09:30:04.000Z</time>
      </trkpt>
      <trkpt lat="47.21743" lon="6.01896">
        <ele>238.759</ele>
        <time>2016-09-06T09:30:05.000Z</time>
      </trkpt>
      <trkpt lat="47.21743" lon="6.01896">
        <ele>238.906</ele>
        <time>2016-09-06T09:30:06.000Z</time>
      </trkpt>
      <trkpt lat="47.21743" lon="6.01896">
        <ele>238.862</ele>
        <time>2016-09-06T09:30:07.000Z</time>
      </trkpt>
      <trkpt lat="47.21743" lon="6.01896">
        <ele>239.069</ele>
        <time>2016-09-06T09:30:08.000Z</time>
      </trkpt>
      <trkpt lat="47.21743" lon="6.01896">
        <ele>238.895</ele>
        <time>2016-09-06T09:30:09.000Z</time>
      </trkpt>
      <trkpt lat="47.21744" lon="6.01896">
        <ele>238.806</ele>
        <time>2016-09-06T09:30:10.000Z</time>
      </trkpt>
      <trkpt lat="47.21744" lon="6.01896">
        <ele>238.26</ele>
        <time>2016-09-06T09:30:11.000Z</time>
      </trkpt>
      <trkpt lat="47.21744" lon="6.01896">
        <ele>238.157</ele>
        <time>2016-09-06T09:30:12.000Z</time>
      </trkpt>
      <trkpt lat="47.21744" lon="6.01896">
        <ele>238.124</ele>
        <time>2016-09-06T09:30:13.000Z</time>
      </trkpt>
      <trkpt lat="47.21744" lon="6.01896">
        <ele>238.19</ele>
        <time>2016-09-06T09:30:14.000Z</time>
      </trkpt>
      <trkpt lat="47.21744" lon="6.01896">
        <ele>238.836</ele>
        <time>2016-09-06T09:30:15.000Z</time>
      </trkpt>
      <trkpt lat="47.21744" lon="6.01896">
        <ele>238.891</ele>
        <time>2016-09-06T09:30:16.000Z</time>
      </trkpt>
      <trkpt lat="47.21744" lon="6.01896">
        <ele>238.843</ele>
        <time>2016-09-06T09:30:17.000Z</time>
      </trkpt>
      <trkpt lat="47.21744" lon="6.01896">
        <ele>238.787</ele>
        <time>2016-09-06T09:30:18.000Z</time>
      </trkpt>
      <trkpt lat="47.21745" lon="6.01895">
        <ele>238.912</ele>
        <time>2016-09-06T09:30:19.000Z</time>
      </trkpt>
      <trkpt lat="47.21744" lon="6.01896">
        <ele>238.853</ele>
        <time>2016-09-06T09:30:20.000Z</time>
      </trkpt>
      <trkpt lat="47.21743" lon="6.01896">
        <ele>238.728</ele>
        <time>2016-09-06T09:30:21.000Z</time>
      </trkpt>
      <trkpt lat="47.21743" lon="6.01896">
        <ele>239.074</ele>
        <time>2016-09-06T09:30:22.000Z</time>
      </trkpt>
      <trkpt lat="47.21743" lon="6.01895">
        <ele>239.299</ele>
        <time>2016-09-06T09:30:23.000Z</time>
      </trkpt>
      <trkpt lat="47.21743" lon="6.01895">
        <ele>239.35</ele>
        <time>2016-09-06T09:30:24.000Z</time>
      </trkpt>
      <trkpt lat="47.21743" lon="6.01894">
        <ele>239.406</ele>
        <time>2016-09-06T09:30:25.000Z</time>
      </trkpt>
      <trkpt lat="47.21744" lon="6.01892">
        <ele>239.487</ele>
        <time>2016-09-06T09:30:26.000Z</time>
      </trkpt>
      <trkpt lat="47.21744" lon="6.01889">
        <ele>239.453</ele>
        <time>2016-09-06T09:30:27.000Z</time>
      </trkpt>
      <trkpt lat="47.21744" lon="6.01885">
        <ele>239.437</ele>
        <time>2016-09-06T09:30:28.000Z</time>
      </trkpt>
      <trkpt lat="47.21743" lon="6.01881">
        <ele>239.579</ele>
        <time>2016-09-06T09:30:29.000Z</time>
      </trkpt>
      <trkpt lat="47.21742" lon="6.01876">
        <ele>239.565</ele>
        <time>2016-09-06T09:30:30.000Z</time>
      </trkpt>
      <trkpt lat="47.21739" lon="6.01869">
        <ele>239.467</ele>
        <time>2016-09-06T09:30:31.000Z</time>
      </trkpt>
      <trkpt lat="47.21737" lon="6.01864">
        <ele>239.505</ele>
        <time>2016-09-06T09:30:32.000Z</time>
      </trkpt>
      <trkpt lat="47.21734" lon="6.01857">
        <ele>239.6</ele>
        <time>2016-09-06T09:30:33.000Z</time>
      </trkpt>
      <trkpt lat="47.2173" lon="6.01852">
        <ele>239.842</ele>
        <time>2016-09-06T09:30:34.000Z</time>
      </trkpt>
      <trkpt lat="47.21726" lon="6.01846">
        <ele>239.947</ele>
        <time>2016-09-06T09:30:35.000Z</time>
      </trkpt>
      <trkpt lat="47.21721" lon="6.01841">
        <ele>240.185</ele>
        <time>2016-09-06T09:30:36.000Z</time>
      </trkpt>
      <trkpt lat="47.21714" lon="6.01836">
        <ele>240.567</ele>
        <time>2016-09-06T09:30:37.000Z</time>
      </trkpt>
      <trkpt lat="47.21712" lon="6.01831">
        <ele>240.554</ele>
        <time>2016-09-06T09:30:38.000Z</time>
      </trkpt>
      <trkpt lat="47.21708" lon="6.01826">
        <ele>240.445</ele>
        <time>2016-09-06T09:30:39.000Z</time>
      </trkpt>
      <trkpt lat="47.21708" lon="6.01822">
        <ele>243.261</ele>
        <time>2016-09-06T09:30:41.000Z</time>
      </trkpt>
      <trkpt lat="47.21704" lon="6.01819">
        <ele>243.824</ele>
        <time>2016-09-06T09:30:42.000Z</time>
      </trkpt>
      <trkpt lat="47.21709" lon="6.01812">
        <ele>245.725</ele>
        <time>2016-09-06T09:30:43.000Z</time>
      </trkpt>
      <trkpt lat="47.21711" lon="6.01804">
        <ele>246.701</ele>
        <time>2016-09-06T09:30:44.000Z</time>
      </trkpt>
      <trkpt lat="47.2171" lon="6.01799">
        <ele>247.437</ele>
        <time>2016-09-06T09:30:45.000Z</time>
      </trkpt>
      <trkpt lat="47.2171" lon="6.01789">
        <ele>245.414</ele>
        <time>2016-09-06T09:30:46.000Z</time>
      </trkpt>
      <trkpt lat="47.21711" lon="6.01782">
        <ele>245.359</ele>
        <time>2016-09-06T09:30:47.000Z</time>
      </trkpt>
      <trkpt lat="47.2171" lon="6.01775">
        <ele>244.141</ele>
        <time>2016-09-06T09:30:48.000Z</time>
      </trkpt>
      <trkpt lat="47.2171" lon="6.01768">
        <ele>244.838</ele>
        <time>2016-09-06T09:30:49.000Z</time>
      </trkpt>
      <trkpt lat="47.21711" lon="6.01762">
        <ele>245.267</ele>
        <time>2016-09-06T09:30:50.000Z</time>
      </trkpt>
      <trkpt lat="47.21708" lon="6.01752">
        <ele>243.024</ele>
        <time>2016-09-06T09:30:51.000Z</time>
      </trkpt>
      <trkpt lat="47.21708" lon="6.01745">
        <ele>243.282</ele>
        <time>2016-09-06T09:30:52.000Z</time>
      </trkpt>
      <trkpt lat="47.21707" lon="6.01738">
        <ele>243.691</ele>
        <time>2016-09-06T09:30:53.000Z</time>
      </trkpt>
      <trkpt lat="47.21706" lon="6.01729">
        <ele>241.549</ele>
        <time>2016-09-06T09:30:54.000Z</time>
      </trkpt>
      <trkpt lat="47.21706" lon="6.01722">
        <ele>241.555</ele>
        <time>2016-09-06T09:30:55.000Z</time>
      </trkpt>
      <trkpt lat="47.21704" lon="6.01714">
        <ele>240.807</ele>
        <time>2016-09-06T09:30:56.000Z</time>
      </trkpt>
      <trkpt lat="47.21704" lon="6.01707">
        <ele>240.938</ele>
        <time>2016-09-06T09:30:57.000Z</time>
      </trkpt>
      <trkpt lat="47.21703" lon="6.017">
        <ele>240.128</ele>
        <time>2016-09-06T09:30:58.000Z</time>
      </trkpt>
      <trkpt lat="47.21702" lon="6.01692">
        <ele>239.355</ele>
        <time>2016-09-06T09:30:59.000Z</time>
      </trkpt>
      <trkpt lat="47.21701" lon="6.01685">
        <ele>239.442</ele>
        <time>2016-09-06T09:31:00.000Z</time>
      </trkpt>
      <trkpt lat="47.21701" lon="6.01677">
        <ele>239.085</ele>
        <time>2016-09-06T09:31:01.000Z</time>
      </trkpt>
      <trkpt lat="47.217" lon="6.0167">
        <ele>239.353</ele>
        <time>2016-09-06T09:31:02.000Z</time>
      </trkpt>
      <trkpt lat="47.21699" lon="6.01663">
        <ele>239.245</ele>
        <time>2016-09-06T09:31:03.000Z</time>
      </trkpt>
      <trkpt lat="47.21698" lon="6.01656">
        <ele>238.644</ele>
        <time>2016-09-06T09:31:04.000Z</time>
      </trkpt>
      <trkpt lat="47.21697" lon="6.0165">
        <ele>238.611</ele>
        <time>2016-09-06T09:31:05.000Z</time>
      </trkpt>
      <trkpt lat="47.21697" lon="6.01642">
        <ele>238.698</ele>
        <time>2016-09-06T09:31:06.000Z</time>
      </trkpt>
      <trkpt lat="47.21696" lon="6.01635">
        <ele>238.669</ele>
        <time>2016-09-06T09:31:07.000Z</time>
      </trkpt>
      <trkpt lat="47.21695" lon="6.01628">
        <ele>238.517</ele>
        <time>2016-09-06T09:31:08.000Z</time>
      </trkpt>
      <trkpt lat="47.21694" lon="6.01621">
        <ele>238.507</ele>
        <time>2016-09-06T09:31:09.000Z</time>
      </trkpt>
      <trkpt lat="47.21693" lon="6.01614">
        <ele>238.145</ele>
        <time>2016-09-06T09:31:10.000Z</time>
      </trkpt>
      <trkpt lat="47.21692" lon="6.01607">
        <ele>237.573</ele>
        <time>2016-09-06T09:31:11.000Z</time>
      </trkpt>
      <trkpt lat="47.21691" lon="6.01601">
        <ele>237.584</ele>
        <time>2016-09-06T09:31:12.000Z</time>
      </trkpt>
      <trkpt lat="47.21691" lon="6.01593">
        <ele>237.195</ele>
        <time>2016-09-06T09:31:13.000Z</time>
      </trkpt>
      <trkpt lat="47.2169" lon="6.01586">
        <ele>237.095</ele>
        <time>2016-09-06T09:31:14.000Z</time>
      </trkpt>
      <trkpt lat="47.21689" lon="6.0158">
        <ele>237.232</ele>
        <time>2016-09-06T09:31:15.000Z</time>
      </trkpt>
      <trkpt lat="47.21689" lon="6.01574">
        <ele>237.112</ele>
        <time>2016-09-06T09:31:16.000Z</time>
      </trkpt>
      <trkpt lat="47.21689" lon="6.01566">
        <ele>237.192</ele>
        <time>2016-09-06T09:31:17.000Z</time>
      </trkpt>
      <trkpt lat="47.21689" lon="6.01559">
        <ele>237.093</ele>
        <time>2016-09-06T09:31:18.000Z</time>
      </trkpt>
      <trkpt lat="47.21689" lon="6.01552">
        <ele>237.179</ele>
        <time>2016-09-06T09:31:19.000Z</time>
      </trkpt>
      <trkpt lat="47.21688" lon="6.01546">
        <ele>237.207</ele>
        <time>2016-09-06T09:31:20.000Z</time>
      </trkpt>
      <trkpt lat="47.21688" lon="6.0154">
        <ele>237.02</ele>
        <time>2016-09-06T09:31:21.000Z</time>
      </trkpt>
      <trkpt lat="47.21688" lon="6.01533">
        <ele>237.324</ele>
        <time>2016-09-06T09:31:22.000Z</time>
      </trkpt>
      <trkpt lat="47.21688" lon="6.01526">
        <ele>237.425</ele>
        <time>2016-09-06T09:31:23.000Z</time>
      </trkpt>
      <trkpt lat="47.21687" lon="6.0152">
        <ele>237.332</ele>
        <time>2016-09-06T09:31:24.000Z</time>
      </trkpt>
      <trkpt lat="47.21687" lon="6.01513">
        <ele>237.156</ele>
        <time>2016-09-06T09:31:25.000Z</time>
      </trkpt>
      <trkpt lat="47.21687" lon="6.01506">
        <ele>236.737</ele>
        <time>2016-09-06T09:31:26.000Z</time>
      </trkpt>
      <trkpt lat="47.21687" lon="6.01499">
        <ele>236.835</ele>
        <time>2016-09-06T09:31:27.000Z</time>
      </trkpt>
      <trkpt lat="47.21686" lon="6.01492">
        <ele>236.79</ele>
        <time>2016-09-06T09:31:28.000Z</time>
      </trkpt>
      <trkpt lat="47.21686" lon="6.01486">
        <ele>236.795</ele>
        <time>2016-09-06T09:31:29.000Z</time>
      </trkpt>
      <trkpt lat="47.21685" lon="6.01479">
        <ele>236.815</ele>
        <time>2016-09-06T09:31:30.000Z</time>
      </trkpt>
      <trkpt lat="47.21685" lon="6.01473">
        <ele>236.919</ele>
        <time>2016-09-06T09:31:31.000Z</time>
      </trkpt>
      <trkpt lat="47.21684" lon="6.01466">
        <ele>236.994</ele>
        <time>2016-09-06T09:31:32.000Z</time>
      </trkpt>
      <trkpt lat="47.21684" lon="6.0146">
        <ele>237.295</ele>
        <time>2016-09-06T09:31:33.000Z</time>
      </trkpt>
      <trkpt lat="47.21683" lon="6.01454">
        <ele>236.869</ele>
        <time>2016-09-06T09:31:34.000Z</time>
      </trkpt>
      <trkpt lat="47.21683" lon="6.01447">
        <ele>236.678</ele>
        <time>2016-09-06T09:31:35.000Z</time>
      </trkpt>
      <trkpt lat="47.21682" lon="6.01441">
        <ele>236.637</ele>
        <time>2016-09-06T09:31:36.000Z</time>
      </trkpt>
      <trkpt lat="47.21681" lon="6.01434">
        <ele>236.387</ele>
        <time>2016-09-06T09:31:37.000Z</time>
      </trkpt>
      <trkpt lat="47.2168" lon="6.01428">
        <ele>236.295</ele>
        <time>2016-09-06T09:31:38.000Z</time>
      </trkpt>
      <trkpt lat="47.2168" lon="6.01421">
        <ele>236.196</ele>
        <time>2016-09-06T09:31:39.000Z</time>
      </trkpt>
      <trkpt lat="47.21679" lon="6.01414">
        <ele>236.115</ele>
        <time>2016-09-06T09:31:40.000Z</time>
      </trkpt>
      <trkpt lat="47.21678" lon="6.01407">
        <ele>236.022</ele>
        <time>2016-09-06T09:31:41.000Z</time>
      </trkpt>
      <trkpt lat="47.21678" lon="6.014">
        <ele>235.867</ele>
        <time>2016-09-06T09:31:42.000Z</time>
      </trkpt>
      <trkpt lat="47.21677" lon="6.01393">
        <ele>235.827</ele>
        <time>2016-09-06T09:31:43.000Z</time>
      </trkpt>
      <trkpt lat="47.21676" lon="6.01387">
        <ele>235.723</ele>
        <time>2016-09-06T09:31:44.000Z</time>
      </trkpt>
      <trkpt lat="47.21676" lon="6.0138">
        <ele>235.776</ele>
        <time>2016-09-06T09:31:45.000Z</time>
      </trkpt>
      <trkpt lat="47.21675" lon="6.01373">
        <ele>235.699</ele>
        <time>2016-09-06T09:31:46.000Z</time>
      </trkpt>
      <trkpt lat="47.21674" lon="6.01367">
        <ele>235.575</ele>
        <time>2016-09-06T09:31:47.000Z</time>
      </trkpt>
      <trkpt lat="47.21673" lon="6.0136">
        <ele>235.334</ele>
        <time>2016-09-06T09:31:48.000Z</time>
      </trkpt>
      <trkpt lat="47.21673" lon="6.01353">
        <ele>235.236</ele>
        <time>2016-09-06T09:31:49.000Z</time>
      </trkpt>
      <trkpt lat="47.21672" lon="6.01346">
        <ele>235.144</ele>
        <time>2016-09-06T09:31:50.000Z</time>
      </trkpt>
      <trkpt lat="47.21671" lon="6.01339">
        <ele>235.058</ele>
        <time>2016-09-06T09:31:51.000Z</time>
      </trkpt>
      <trkpt lat="47.21671" lon="6.01332">
        <ele>235.241</ele>
        <time>2016-09-06T09:31:52.000Z</time>
      </trkpt>
      <trkpt lat="47.21669" lon="6.01326">
        <ele>234.808</ele>
        <time>2016-09-06T09:31:53.000Z</time>
      </trkpt>
      <trkpt lat="47.21669" lon="6.01319">
        <ele>234.756</ele>
        <time>2016-09-06T09:31:54.000Z</time>
      </trkpt>
      <trkpt lat="47.21668" lon="6.01312">
        <ele>234.732</ele>
        <time>2016-09-06T09:31:55.000Z</time>
      </trkpt>
      <trkpt lat="47.21667" lon="6.01304">
        <ele>233.463</ele>
        <time>2016-09-06T09:31:56.000Z</time>
      </trkpt>
      <trkpt lat="47.21667" lon="6.01298">
        <ele>233.329</ele>
        <time>2016-09-06T09:31:57.000Z</time>
      </trkpt>
      <trkpt lat="47.21668" lon="6.01291">
        <ele>235.297</ele>
        <time>2016-09-06T09:31:58.000Z</time>
      </trkpt>
      <trkpt lat="47.21668" lon="6.01284">
        <ele>235.388</ele>
        <time>2016-09-06T09:31:59.000Z</time>
      </trkpt>
      <trkpt lat="47.21666" lon="6.01277">
        <ele>235.19</ele>
        <time>2016-09-06T09:32:00.000Z</time>
      </trkpt>
      <trkpt lat="47.21666" lon="6.0127">
        <ele>235.424</ele>
        <time>2016-09-06T09:32:01.000Z</time>
      </trkpt>
      <trkpt lat="47.21666" lon="6.01263">
        <ele>235.732</ele>
        <time>2016-09-06T09:32:02.000Z</time>
      </trkpt>
      <trkpt lat="47.21665" lon="6.01256">
        <ele>236.044</ele>
        <time>2016-09-06T09:32:03.000Z</time>
      </trkpt>
      <trkpt lat="47.21664" lon="6.01252">
        <ele>236.43</ele>
        <time>2016-09-06T09:32:04.000Z</time>
      </trkpt>
      <trkpt lat="47.21663" lon="6.01246">
        <ele>236.442</ele>
        <time>2016-09-06T09:32:05.000Z</time>
      </trkpt>
      <trkpt lat="47.21663" lon="6.01241">
        <ele>236.403</ele>
        <time>2016-09-06T09:32:06.000Z</time>
      </trkpt>
      <trkpt lat="47.21662" lon="6.01234">
        <ele>236.399</ele>
        <time>2016-09-06T09:32:07.000Z</time>
      </trkpt>
      <trkpt lat="47.21662" lon="6.01229">
        <ele>236.34</ele>
        <time>2016-09-06T09:32:08.000Z</time>
      </trkpt>
      <trkpt lat="47.21662" lon="6.01221">
        <ele>236.479</ele>
        <time>2016-09-06T09:32:09.000Z</time>
      </trkpt>
      <trkpt lat="47.21661" lon="6.01214">
        <ele>236.412</ele>
        <time>2016-09-06T09:32:10.000Z</time>
      </trkpt>
      <trkpt lat="47.21661" lon="6.01208">
        <ele>235.769</ele>
        <time>2016-09-06T09:32:11.000Z</time>
      </trkpt>
      <trkpt lat="47.2166" lon="6.01201">
        <ele>235.667</ele>
        <time>2016-09-06T09:32:12.000Z</time>
      </trkpt>
      <trkpt lat="47.2166" lon="6.01194">
        <ele>235.504</ele>
        <time>2016-09-06T09:32:13.000Z</time>
      </trkpt>
      <trkpt lat="47.2166" lon="6.01187">
        <ele>236.599</ele>
        <time>2016-09-06T09:32:14.000Z</time>
      </trkpt>
      <trkpt lat="47.2166" lon="6.0118">
        <ele>236.588</ele>
        <time>2016-09-06T09:32:15.000Z</time>
      </trkpt>
      <trkpt lat="47.21659" lon="6.01174">
        <ele>236.828</ele>
        <time>2016-09-06T09:32:16.000Z</time>
      </trkpt>
      <trkpt lat="47.21659" lon="6.01168">
        <ele>236.923</ele>
        <time>2016-09-06T09:32:17.000Z</time>
      </trkpt>
      <trkpt lat="47.21659" lon="6.01161">
        <ele>237.239</ele>
        <time>2016-09-06T09:32:18.000Z</time>
      </trkpt>
      <trkpt lat="47.21659" lon="6.01155">
        <ele>237.529</ele>
        <time>2016-09-06T09:32:19.000Z</time>
      </trkpt>
      <trkpt lat="47.21659" lon="6.01148">
        <ele>237.535</ele>
        <time>2016-09-06T09:32:20.000Z</time>
      </trkpt>
      <trkpt lat="47.21658" lon="6.01141">
        <ele>237.132</ele>
        <time>2016-09-06T09:32:21.000Z</time>
      </trkpt>
      <trkpt lat="47.21658" lon="6.01135">
        <ele>237.104</ele>
        <time>2016-09-06T09:32:22.000Z</time>
      </trkpt>
      <trkpt lat="47.21658" lon="6.01127">
        <ele>237</ele>
        <time>2016-09-06T09:32:23.000Z</time>
      </trkpt>
      <trkpt lat="47.21657" lon="6.0112">
        <ele>237.037</ele>
        <time>2016-09-06T09:32:24.000Z</time>
      </trkpt>
      <trkpt lat="47.21657" lon="6.01113">
        <ele>237.242</ele>
        <time>2016-09-06T09:32:25.000Z</time>
      </trkpt>
      <trkpt lat="47.21657" lon="6.01105">
        <ele>237.267</ele>
        <time>2016-09-06T09:32:26.000Z</time>
      </trkpt>
      <trkpt lat="47.21657" lon="6.01096">
        <ele>236.967</ele>
        <time>2016-09-06T09:32:27.000Z</time>
      </trkpt>
      <trkpt lat="47.21657" lon="6.01088">
        <ele>236.271</ele>
        <time>2016-09-06T09:32:28.000Z</time>
      </trkpt>
      <trkpt lat="47.21656" lon="6.01079">
        <ele>235.68</ele>
        <time>2016-09-06T09:32:29.000Z</time>
      </trkpt>
      <trkpt lat="47.21656" lon="6.0107">
        <ele>235.425</ele>
        <time>2016-09-06T09:32:30.000Z</time>
      </trkpt>
      <trkpt lat="47.21656" lon="6.01063">
        <ele>235.25</ele>
        <time>2016-09-06T09:32:31.000Z</time>
      </trkpt>
      <trkpt lat="47.21655" lon="6.01055">
        <ele>234.927</ele>
        <time>2016-09-06T09:32:32.000Z</time>
      </trkpt>
      <trkpt lat="47.21655" lon="6.01047">
        <ele>234.518</ele>
        <time>2016-09-06T09:32:33.000Z</time>
      </trkpt>
      <trkpt lat="47.21654" lon="6.0104">
        <ele>234.456</ele>
        <time>2016-09-06T09:32:34.000Z</time>
      </trkpt>
      <trkpt lat="47.21654" lon="6.01031">
        <ele>234.125</ele>
        <time>2016-09-06T09:32:35.000Z</time>
      </trkpt>
      <trkpt lat="47.21653" lon="6.01024">
        <ele>233.911</ele>
        <time>2016-09-06T09:32:36.000Z</time>
      </trkpt>
      <trkpt lat="47.21653" lon="6.01017">
        <ele>233.85</ele>
        <time>2016-09-06T09:32:37.000Z</time>
      </trkpt>
      <trkpt lat="47.21652" lon="6.0101">
        <ele>233.723</ele>
        <time>2016-09-06T09:32:38.000Z</time>
      </trkpt>
      <trkpt lat="47.21652" lon="6.01003">
        <ele>234.148</ele>
        <time>2016-09-06T09:32:39.000Z</time>
      </trkpt>
      <trkpt lat="47.21652" lon="6.00997">
        <ele>234.157</ele>
        <time>2016-09-06T09:32:40.000Z</time>
      </trkpt>
      <trkpt lat="47.21651" lon="6.00992">
        <ele>234.159</ele>
        <time>2016-09-06T09:32:41.000Z</time>
      </trkpt>
      <trkpt lat="47.2165" lon="6.00984">
        <ele>234.863</ele>
        <time>2016-09-06T09:32:42.000Z</time>
      </trkpt>
      <trkpt lat="47.21649" lon="6.00978">
        <ele>235.105</ele>
        <time>2016-09-06T09:32:43.000Z</time>
      </trkpt>
      <trkpt lat="47.2165" lon="6.00968">
        <ele>233.648</ele>
        <time>2016-09-06T09:32:44.000Z</time>
      </trkpt>
      <trkpt lat="47.2165" lon="6.0096">
        <ele>233.745</ele>
        <time>2016-09-06T09:32:45.000Z</time>
      </trkpt>
      <trkpt lat="47.21649" lon="6.00954">
        <ele>233.465</ele>
        <time>2016-09-06T09:32:46.000Z</time>
      </trkpt>
      <trkpt lat="47.21649" lon="6.00947">
        <ele>233.441</ele>
        <time>2016-09-06T09:32:47.000Z</time>
      </trkpt>
      <trkpt lat="47.21649" lon="6.0094">
        <ele>233.917</ele>
        <time>2016-09-06T09:32:48.000Z</time>
      </trkpt>
      <trkpt lat="47.21649" lon="6.00934">
        <ele>233.903</ele>
        <time>2016-09-06T09:32:49.000Z</time>
      </trkpt>
      <trkpt lat="47.21649" lon="6.00927">
        <ele>233.831</ele>
        <time>2016-09-06T09:32:50.000Z</time>
      </trkpt>
      <trkpt lat="47.21649" lon="6.0092">
        <ele>233.739</ele>
        <time>2016-09-06T09:32:51.000Z</time>
      </trkpt>
      <trkpt lat="47.21649" lon="6.00913">
        <ele>233.934</ele>
        <time>2016-09-06T09:32:52.000Z</time>
      </trkpt>
      <trkpt lat="47.21648" lon="6.00906">
        <ele>234.083</ele>
        <time>2016-09-06T09:32:53.000Z</time>
      </trkpt>
      <trkpt lat="47.21648" lon="6.00898">
        <ele>234.17</ele>
        <time>2016-09-06T09:32:54.000Z</time>
      </trkpt>
      <trkpt lat="47.21648" lon="6.00892">
        <ele>234.289</ele>
        <time>2016-09-06T09:32:55.000Z</time>
      </trkpt>
      <trkpt lat="47.21647" lon="6.00886">
        <ele>234.455</ele>
        <time>2016-09-06T09:32:56.000Z</time>
      </trkpt>
      <trkpt lat="47.21647" lon="6.0088">
        <ele>234.544</ele>
        <time>2016-09-06T09:32:57.000Z</time>
      </trkpt>
      <trkpt lat="47.21646" lon="6.00873">
        <ele>234.608</ele>
        <time>2016-09-06T09:32:58.000Z</time>
      </trkpt>
      <trkpt lat="47.21645" lon="6.00867">
        <ele>234.637</ele>
        <time>2016-09-06T09:32:59.000Z</time>
      </trkpt>
      <trkpt lat="47.21645" lon="6.0086">
        <ele>234.416</ele>
        <time>2016-09-06T09:33:00.000Z</time>
      </trkpt>
      <trkpt lat="47.21644" lon="6.00853">
        <ele>234.276</ele>
        <time>2016-09-06T09:33:01.000Z</time>
      </trkpt>
      <trkpt lat="47.21643" lon="6.00846">
        <ele>234.227</ele>
        <time>2016-09-06T09:33:02.000Z</time>
      </trkpt>
      <trkpt lat="47.21642" lon="6.00837">
        <ele>232.744</ele>
        <time>2016-09-06T09:33:03.000Z</time>
      </trkpt>
      <trkpt lat="47.21641" lon="6.00831">
        <ele>232.635</ele>
        <time>2016-09-06T09:33:04.000Z</time>
      </trkpt>
      <trkpt lat="47.21641" lon="6.00824">
        <ele>232.749</ele>
        <time>2016-09-06T09:33:05.000Z</time>
      </trkpt>
      <trkpt lat="47.2164" lon="6.00818">
        <ele>232.647</ele>
        <time>2016-09-06T09:33:06.000Z</time>
      </trkpt>
      <trkpt lat="47.21639" lon="6.00812">
        <ele>233.01</ele>
        <time>2016-09-06T09:33:07.000Z</time>
      </trkpt>
      <trkpt lat="47.21639" lon="6.00805">
        <ele>232.993</ele>
        <time>2016-09-06T09:33:08.000Z</time>
      </trkpt>
      <trkpt lat="47.21639" lon="6.00798">
        <ele>233.215</ele>
        <time>2016-09-06T09:33:09.000Z</time>
      </trkpt>
      <trkpt lat="47.21639" lon="6.0079">
        <ele>233.24</ele>
        <time>2016-09-06T09:33:10.000Z</time>
      </trkpt>
      <trkpt lat="47.21639" lon="6.00783">
        <ele>233.443</ele>
        <time>2016-09-06T09:33:11.000Z</time>
      </trkpt>
      <trkpt lat="47.21639" lon="6.00774">
        <ele>233.504</ele>
        <time>2016-09-06T09:33:12.000Z</time>
      </trkpt>
      <trkpt lat="47.21636" lon="6.00772">
        <ele>234.117</ele>
        <time>2016-09-06T09:33:13.000Z</time>
      </trkpt>
      <trkpt lat="47.21636" lon="6.00765">
        <ele>234.292</ele>
        <time>2016-09-06T09:33:14.000Z</time>
      </trkpt>
      <trkpt lat="47.21636" lon="6.00758">
        <ele>234.308</ele>
        <time>2016-09-06T09:33:15.000Z</time>
      </trkpt>
      <trkpt lat="47.21636" lon="6.00752">
        <ele>234.212</ele>
        <time>2016-09-06T09:33:16.000Z</time>
      </trkpt>
      <trkpt lat="47.21635" lon="6.00745">
        <ele>233.665</ele>
        <time>2016-09-06T09:33:17.000Z</time>
      </trkpt>
      <trkpt lat="47.21634" lon="6.00739">
        <ele>233.446</ele>
        <time>2016-09-06T09:33:18.000Z</time>
      </trkpt>
      <trkpt lat="47.21634" lon="6.00733">
        <ele>233.298</ele>
        <time>2016-09-06T09:33:19.000Z</time>
      </trkpt>
      <trkpt lat="47.21633" lon="6.00726">
        <ele>232.681</ele>
        <time>2016-09-06T09:33:20.000Z</time>
      </trkpt>
      <trkpt lat="47.21633" lon="6.0072">
        <ele>232.502</ele>
        <time>2016-09-06T09:33:21.000Z</time>
      </trkpt>
      <trkpt lat="47.21632" lon="6.00713">
        <ele>232.085</ele>
        <time>2016-09-06T09:33:22.000Z</time>
      </trkpt>
      <trkpt lat="47.21631" lon="6.00706">
        <ele>231.867</ele>
        <time>2016-09-06T09:33:23.000Z</time>
      </trkpt>
      <trkpt lat="47.21631" lon="6.00699">
        <ele>232.831</ele>
        <time>2016-09-06T09:33:24.000Z</time>
      </trkpt>
      <trkpt lat="47.2163" lon="6.00693">
        <ele>232.599</ele>
        <time>2016-09-06T09:33:25.000Z</time>
      </trkpt>
      <trkpt lat="47.2163" lon="6.00685">
        <ele>233.597</ele>
        <time>2016-09-06T09:33:26.000Z</time>
      </trkpt>
      <trkpt lat="47.21629" lon="6.00678">
        <ele>234.111</ele>
        <time>2016-09-06T09:33:27.000Z</time>
      </trkpt>
      <trkpt lat="47.21628" lon="6.00671">
        <ele>233.956</ele>
        <time>2016-09-06T09:33:28.000Z</time>
      </trkpt>
      <trkpt lat="47.21629" lon="6.00663">
        <ele>234.463</ele>
        <time>2016-09-06T09:33:29.000Z</time>
      </trkpt>
      <trkpt lat="47.21628" lon="6.00656">
        <ele>234.455</ele>
        <time>2016-09-06T09:33:30.000Z</time>
      </trkpt>
      <trkpt lat="47.21628" lon="6.00649">
        <ele>233.956</ele>
        <time>2016-09-06T09:33:31.000Z</time>
      </trkpt>
      <trkpt lat="47.21627" lon="6.00642">
        <ele>233.971</ele>
        <time>2016-09-06T09:33:32.000Z</time>
      </trkpt>
      <trkpt lat="47.21626" lon="6.00635">
        <ele>234.219</ele>
        <time>2016-09-06T09:33:33.000Z</time>
      </trkpt>
      <trkpt lat="47.21625" lon="6.00628">
        <ele>234.216</ele>
        <time>2016-09-06T09:33:34.000Z</time>
      </trkpt>
      <trkpt lat="47.21624" lon="6.00621">
        <ele>234.29</ele>
        <time>2016-09-06T09:33:35.000Z</time>
      </trkpt>
      <trkpt lat="47.21623" lon="6.00614">
        <ele>234.658</ele>
        <time>2016-09-06T09:33:36.000Z</time>
      </trkpt>
      <trkpt lat="47.21622" lon="6.00607">
        <ele>234.68</ele>
        <time>2016-09-06T09:33:37.000Z</time>
      </trkpt>
      <trkpt lat="47.21622" lon="6.006">
        <ele>235.459</ele>
        <time>2016-09-06T09:33:38.000Z</time>
      </trkpt>
      <trkpt lat="47.21621" lon="6.00592">
        <ele>235.649</ele>
        <time>2016-09-06T09:33:39.000Z</time>
      </trkpt>
      <trkpt lat="47.2162" lon="6.00585">
        <ele>236.16</ele>
        <time>2016-09-06T09:33:40.000Z</time>
      </trkpt>
      <trkpt lat="47.21619" lon="6.00579">
        <ele>236.479</ele>
        <time>2016-09-06T09:33:41.000Z</time>
      </trkpt>
      <trkpt lat="47.21618" lon="6.00572">
        <ele>236.774</ele>
        <time>2016-09-06T09:33:42.000Z</time>
      </trkpt>
      <trkpt lat="47.21617" lon="6.00566">
        <ele>236.69</ele>
        <time>2016-09-06T09:33:43.000Z</time>
      </trkpt>
      <trkpt lat="47.21617" lon="6.00559">
        <ele>236.948</ele>
        <time>2016-09-06T09:33:44.000Z</time>
      </trkpt>
      <trkpt lat="47.21616" lon="6.00553">
        <ele>237.257</ele>
        <time>2016-09-06T09:33:45.000Z</time>
      </trkpt>
      <trkpt lat="47.21615" lon="6.00546">
        <ele>237.462</ele>
        <time>2016-09-06T09:33:46.000Z</time>
      </trkpt>
      <trkpt lat="47.21614" lon="6.00539">
        <ele>237.75</ele>
        <time>2016-09-06T09:33:47.000Z</time>
      </trkpt>
      <trkpt lat="47.21613" lon="6.00532">
        <ele>237.135</ele>
        <time>2016-09-06T09:33:48.000Z</time>
      </trkpt>
      <trkpt lat="47.21612" lon="6.00525">
        <ele>236.784</ele>
        <time>2016-09-06T09:33:49.000Z</time>
      </trkpt>
      <trkpt lat="47.2161" lon="6.00518">
        <ele>236.992</ele>
        <time>2016-09-06T09:33:50.000Z</time>
      </trkpt>
      <trkpt lat="47.21609" lon="6.00511">
        <ele>237.153</ele>
        <time>2016-09-06T09:33:51.000Z</time>
      </trkpt>
      <trkpt lat="47.21608" lon="6.00504">
        <ele>236.714</ele>
        <time>2016-09-06T09:33:52.000Z</time>
      </trkpt>
      <trkpt lat="47.21607" lon="6.00498">
        <ele>236.857</ele>
        <time>2016-09-06T09:33:53.000Z</time>
      </trkpt>
      <trkpt lat="47.21606" lon="6.00491">
        <ele>236.94</ele>
        <time>2016-09-06T09:33:54.000Z</time>
      </trkpt>
      <trkpt lat="47.21604" lon="6.00484">
        <ele>236.666</ele>
        <time>2016-09-06T09:33:55.000Z</time>
      </trkpt>
      <trkpt lat="47.21603" lon="6.00478">
        <ele>236.835</ele>
        <time>2016-09-06T09:33:56.000Z</time>
      </trkpt>
      <trkpt lat="47.21602" lon="6.00471">
        <ele>236.986</ele>
        <time>2016-09-06T09:33:57.000Z</time>
      </trkpt>
      <trkpt lat="47.21601" lon="6.00464">
        <ele>236.904</ele>
        <time>2016-09-06T09:33:58.000Z</time>
      </trkpt>
      <trkpt lat="47.21599" lon="6.00458">
        <ele>236.688</ele>
        <time>2016-09-06T09:33:59.000Z</time>
      </trkpt>
      <trkpt lat="47.21598" lon="6.00451">
        <ele>236.49</ele>
        <time>2016-09-06T09:34:00.000Z</time>
      </trkpt>
      <trkpt lat="47.21596" lon="6.00445">
        <ele>236.714</ele>
        <time>2016-09-06T09:34:01.000Z</time>
      </trkpt>
      <trkpt lat="47.21595" lon="6.00439">
        <ele>236.464</ele>
        <time>2016-09-06T09:34:02.000Z</time>
      </trkpt>
      <trkpt lat="47.21593" lon="6.00431">
        <ele>236.009</ele>
        <time>2016-09-06T09:34:03.000Z</time>
      </trkpt>
      <trkpt lat="47.21591" lon="6.00425">
        <ele>235.835</ele>
        <time>2016-09-06T09:34:04.000Z</time>
      </trkpt>
      <trkpt lat="47.21589" lon="6.00418">
        <ele>235.572</ele>
        <time>2016-09-06T09:34:05.000Z</time>
      </trkpt>
      <trkpt lat="47.21587" lon="6.00411">
        <ele>235.664</ele>
        <time>2016-09-06T09:34:06.000Z</time>
      </trkpt>
      <trkpt lat="47.21586" lon="6.00405">
        <ele>235.469</ele>
        <time>2016-09-06T09:34:07.000Z</time>
      </trkpt>
      <trkpt lat="47.21584" lon="6.00398">
        <ele>235.234</ele>
        <time>2016-09-06T09:34:08.000Z</time>
      </trkpt>
      <trkpt lat="47.21581" lon="6.00392">
        <ele>234.909</ele>
        <time>2016-09-06T09:34:09.000Z</time>
      </trkpt>
      <trkpt lat="47.21579" lon="6.00385">
        <ele>234.495</ele>
        <time>2016-09-06T09:34:10.000Z</time>
      </trkpt>
      <trkpt lat="47.21577" lon="6.00379">
        <ele>234.099</ele>
        <time>2016-09-06T09:34:11.000Z</time>
      </trkpt>
      <trkpt lat="47.21575" lon="6.00373">
        <ele>234.226</ele>
        <time>2016-09-06T09:34:12.000Z</time>
      </trkpt>
      <trkpt lat="47.21573" lon="6.00367">
        <ele>234.083</ele>
        <time>2016-09-06T09:34:13.000Z</time>
      </trkpt>
      <trkpt lat="47.2157" lon="6.00361">
        <ele>233.938</ele>
        <time>2016-09-06T09:34:14.000Z</time>
      </trkpt>
      <trkpt lat="47.21566" lon="6.00354">
        <ele>233.88</ele>
        <time>2016-09-06T09:34:15.000Z</time>
      </trkpt>
      <trkpt lat="47.21564" lon="6.0035">
        <ele>233.884</ele>
        <time>2016-09-06T09:34:16.000Z</time>
      </trkpt>
      <trkpt lat="47.2156" lon="6.00345">
        <ele>234.184</ele>
        <time>2016-09-06T09:34:17.000Z</time>
      </trkpt>
      <trkpt lat="47.21557" lon="6.0034">
        <ele>234.131</ele>
        <time>2016-09-06T09:34:18.000Z</time>
      </trkpt>
      <trkpt lat="47.21554" lon="6.00335">
        <ele>234.021</ele>
        <time>2016-09-06T09:34:19.000Z</time>
      </trkpt>
      <trkpt lat="47.21551" lon="6.0033">
        <ele>233.892</ele>
        <time>2016-09-06T09:34:20.000Z</time>
      </trkpt>
      <trkpt lat="47.21548" lon="6.00325">
        <ele>233.846</ele>
        <time>2016-09-06T09:34:21.000Z</time>
      </trkpt>
      <trkpt lat="47.21545" lon="6.0032">
        <ele>233.904</ele>
        <time>2016-09-06T09:34:22.000Z</time>
      </trkpt>
      <trkpt lat="47.21541" lon="6.00315">
        <ele>233.793</ele>
        <time>2016-09-06T09:34:23.000Z</time>
      </trkpt>
      <trkpt lat="47.21538" lon="6.0031">
        <ele>234.287</ele>
        <time>2016-09-06T09:34:24.000Z</time>
      </trkpt>
      <trkpt lat="47.21537" lon="6.00305">
        <ele>235.124</ele>
        <time>2016-09-06T09:34:25.000Z</time>
      </trkpt>
      <trkpt lat="47.21533" lon="6.003">
        <ele>234.927</ele>
        <time>2016-09-06T09:34:26.000Z</time>
      </trkpt>
      <trkpt lat="47.2153" lon="6.00295">
        <ele>234.995</ele>
        <time>2016-09-06T09:34:27.000Z</time>
      </trkpt>
      <trkpt lat="47.21527" lon="6.0029">
        <ele>234.659</ele>
        <time>2016-09-06T09:34:28.000Z</time>
      </trkpt>
      <trkpt lat="47.21525" lon="6.00286">
        <ele>235.065</ele>
        <time>2016-09-06T09:34:29.000Z</time>
      </trkpt>
      <trkpt lat="47.21521" lon="6.00281">
        <ele>234.709</ele>
        <time>2016-09-06T09:34:30.000Z</time>
      </trkpt>
      <trkpt lat="47.21517" lon="6.00275">
        <ele>233.316</ele>
        <time>2016-09-06T09:34:31.000Z</time>
      </trkpt>
      <trkpt lat="47.21513" lon="6.0027">
        <ele>232.906</ele>
        <time>2016-09-06T09:34:32.000Z</time>
      </trkpt>
      <trkpt lat="47.21509" lon="6.00264">
        <ele>232.665</ele>
        <time>2016-09-06T09:34:33.000Z</time>
      </trkpt>
      <trkpt lat="47.21505" lon="6.00258">
        <ele>232.358</ele>
        <time>2016-09-06T09:34:34.000Z</time>
      </trkpt>
      <trkpt lat="47.21501" lon="6.00252">
        <ele>232.52</ele>
        <time>2016-09-06T09:34:35.000Z</time>
      </trkpt>
      <trkpt lat="47.21497" lon="6.00245">
        <ele>232.614</ele>
        <time>2016-09-06T09:34:36.000Z</time>
      </trkpt>
      <trkpt lat="47.21492" lon="6.00238">
        <ele>232.77</ele>
        <time>2016-09-06T09:34:37.000Z</time>
      </trkpt>
      <trkpt lat="47.2149" lon="6.00237">
        <ele>232.574</ele>
        <time>2016-09-06T09:34:38.000Z</time>
      </trkpt>
      <trkpt lat="47.21487" lon="6.00232">
        <ele>232.486</ele>
        <time>2016-09-06T09:34:39.000Z</time>
      </trkpt>
      <trkpt lat="47.21481" lon="6.00227">
        <ele>233.014</ele>
        <time>2016-09-06T09:34:40.000Z</time>
      </trkpt>
      <trkpt lat="47.21478" lon="6.00222">
        <ele>233.025</ele>
        <time>2016-09-06T09:34:41.000Z</time>
      </trkpt>
      <trkpt lat="47.21475" lon="6.00217">
        <ele>233.361</ele>
        <time>2016-09-06T09:34:42.000Z</time>
      </trkpt>
      <trkpt lat="47.21472" lon="6.00212">
        <ele>233.486</ele>
        <time>2016-09-06T09:34:43.000Z</time>
      </trkpt>
      <trkpt lat="47.21468" lon="6.00207">
        <ele>233.844</ele>
        <time>2016-09-06T09:34:44.000Z</time>
      </trkpt>
      <trkpt lat="47.21464" lon="6.00203">
        <ele>233.58</ele>
        <time>2016-09-06T09:34:45.000Z</time>
      </trkpt>
      <trkpt lat="47.21461" lon="6.00199">
        <ele>233.7</ele>
        <time>2016-09-06T09:34:46.000Z</time>
      </trkpt>
      <trkpt lat="47.21458" lon="6.00194">
        <ele>233.777</ele>
        <time>2016-09-06T09:34:47.000Z</time>
      </trkpt>
      <trkpt lat="47.21455" lon="6.00191">
        <ele>233.926</ele>
        <time>2016-09-06T09:34:48.000Z</time>
      </trkpt>
      <trkpt lat="47.2145" lon="6.00184">
        <ele>234.091</ele>
        <time>2016-09-06T09:34:49.000Z</time>
      </trkpt>
      <trkpt lat="47.21447" lon="6.0018">
        <ele>234.602</ele>
        <time>2016-09-06T09:34:50.000Z</time>
      </trkpt>
      <trkpt lat="47.21443" lon="6.00175">
        <ele>235.207</ele>
        <time>2016-09-06T09:34:51.000Z</time>
      </trkpt>
      <trkpt lat="47.2144" lon="6.0017">
        <ele>235.499</ele>
        <time>2016-09-06T09:34:52.000Z</time>
      </trkpt>
      <trkpt lat="47.21437" lon="6.00166">
        <ele>236.044</ele>
        <time>2016-09-06T09:34:53.000Z</time>
      </trkpt>
      <trkpt lat="47.21433" lon="6.00161">
        <ele>236.407</ele>
        <time>2016-09-06T09:34:54.000Z</time>
      </trkpt>
      <trkpt lat="47.2143" lon="6.00156">
        <ele>236.66</ele>
        <time>2016-09-06T09:34:55.000Z</time>
      </trkpt>
      <trkpt lat="47.21426" lon="6.00152">
        <ele>237.243</ele>
        <time>2016-09-06T09:34:56.000Z</time>
      </trkpt>
      <trkpt lat="47.21423" lon="6.00148">
        <ele>238.071</ele>
        <time>2016-09-06T09:34:57.000Z</time>
      </trkpt>
      <trkpt lat="47.2142" lon="6.00144">
        <ele>238.264</ele>
        <time>2016-09-06T09:34:58.000Z</time>
      </trkpt>
      <trkpt lat="47.21416" lon="6.00139">
        <ele>238.447</ele>
        <time>2016-09-06T09:34:59.000Z</time>
      </trkpt>
      <trkpt lat="47.21412" lon="6.00135">
        <ele>238.925</ele>
        <time>2016-09-06T09:35:00.003Z</time>
      </trkpt>
      <trkpt lat="47.21409" lon="6.0013">
        <ele>239.058</ele>
        <time>2016-09-06T09:35:01.000Z</time>
      </trkpt>
      <trkpt lat="47.21406" lon="6.00126">
        <ele>239.58</ele>
        <time>2016-09-06T09:35:02.000Z</time>
      </trkpt>
      <trkpt lat="47.21402" lon="6.00122">
        <ele>240.007</ele>
        <time>2016-09-06T09:35:03.000Z</time>
      </trkpt>
      <trkpt lat="47.21398" lon="6.00118">
        <ele>240.313</ele>
        <time>2016-09-06T09:35:04.000Z</time>
      </trkpt>
      <trkpt lat="47.21393" lon="6.00113">
        <ele>239.795</ele>
        <time>2016-09-06T09:35:05.000Z</time>
      </trkpt>
      <trkpt lat="47.21388" lon="6.00108">
        <ele>239.084</ele>
        <time>2016-09-06T09:35:06.000Z</time>
      </trkpt>
      <trkpt lat="47.21384" lon="6.00104">
        <ele>238.781</ele>
        <time>2016-09-06T09:35:07.000Z</time>
      </trkpt>
      <trkpt lat="47.2138" lon="6.001">
        <ele>239.088</ele>
        <time>2016-09-06T09:35:08.000Z</time>
      </trkpt>
      <trkpt lat="47.21376" lon="6.00096">
        <ele>239.362</ele>
        <time>2016-09-06T09:35:09.000Z</time>
      </trkpt>
      <trkpt lat="47.21372" lon="6.00092">
        <ele>239.44</ele>
        <time>2016-09-06T09:35:10.000Z</time>
      </trkpt>
      <trkpt lat="47.21368" lon="6.00087">
        <ele>239.5</ele>
        <time>2016-09-06T09:35:11.000Z</time>
      </trkpt>
      <trkpt lat="47.21364" lon="6.00082">
        <ele>239.401</ele>
        <time>2016-09-06T09:35:12.000Z</time>
      </trkpt>
      <trkpt lat="47.21359" lon="6.00076">
        <ele>239.325</ele>
        <time>2016-09-06T09:35:13.000Z</time>
      </trkpt>
      <trkpt lat="47.21356" lon="6.00071">
        <ele>239.046</ele>
        <time>2016-09-06T09:35:14.000Z</time>
      </trkpt>
      <trkpt lat="47.21351" lon="6.00065">
        <ele>238.595</ele>
        <time>2016-09-06T09:35:15.000Z</time>
      </trkpt>
      <trkpt lat="47.21347" lon="6.00062">
        <ele>238.136</ele>
        <time>2016-09-06T09:35:16.000Z</time>
      </trkpt>
      <trkpt lat="47.21343" lon="6.00058">
        <ele>237.65</ele>
        <time>2016-09-06T09:35:17.000Z</time>
      </trkpt>
      <trkpt lat="47.21339" lon="6.00054">
        <ele>236.96</ele>
        <time>2016-09-06T09:35:18.000Z</time>
      </trkpt>
      <trkpt lat="47.21334" lon="6.0005">
        <ele>236.411</ele>
        <time>2016-09-06T09:35:19.000Z</time>
      </trkpt>
      <trkpt lat="47.21331" lon="6.00046">
        <ele>235.995</ele>
        <time>2016-09-06T09:35:20.000Z</time>
      </trkpt>
      <trkpt lat="47.21327" lon="6.00042">
        <ele>236.184</ele>
        <time>2016-09-06T09:35:21.000Z</time>
      </trkpt>
      <trkpt lat="47.21322" lon="6.00037">
        <ele>235.922</ele>
        <time>2016-09-06T09:35:22.000Z</time>
      </trkpt>
      <trkpt lat="47.21318" lon="6.00032">
        <ele>235.468</ele>
        <time>2016-09-06T09:35:23.000Z</time>
      </trkpt>
      <trkpt lat="47.21313" lon="6.00028">
        <ele>235.317</ele>
        <time>2016-09-06T09:35:24.000Z</time>
      </trkpt>
      <trkpt lat="47.21309" lon="6.00024">
        <ele>235.343</ele>
        <time>2016-09-06T09:35:25.000Z</time>
      </trkpt>
      <trkpt lat="47.21305" lon="6.00018">
        <ele>235.103</ele>
        <time>2016-09-06T09:35:26.000Z</time>
      </trkpt>
      <trkpt lat="47.213" lon="6.00013">
        <ele>234.673</ele>
        <time>2016-09-06T09:35:27.000Z</time>
      </trkpt>
      <trkpt lat="47.21294" lon="6.0001">
        <ele>235.518</ele>
        <time>2016-09-06T09:35:28.000Z</time>
      </trkpt>
      <trkpt lat="47.21289" lon="6.00006">
        <ele>235.151</ele>
        <time>2016-09-06T09:35:29.000Z</time>
      </trkpt>
      <trkpt lat="47.21284" lon="6.00001">
        <ele>235.455</ele>
        <time>2016-09-06T09:35:30.000Z</time>
      </trkpt>
      <trkpt lat="47.21279" lon="5.99996">
        <ele>235.13</ele>
        <time>2016-09-06T09:35:31.000Z</time>
      </trkpt>
      <trkpt lat="47.21274" lon="5.99992">
        <ele>236.126</ele>
        <time>2016-09-06T09:35:32.000Z</time>
      </trkpt>
      <trkpt lat="47.21269" lon="5.99988">
        <ele>235.922</ele>
        <time>2016-09-06T09:35:33.000Z</time>
      </trkpt>
      <trkpt lat="47.21265" lon="5.99983">
        <ele>236.248</ele>
        <time>2016-09-06T09:35:34.000Z</time>
      </trkpt>
      <trkpt lat="47.21261" lon="5.99978">
        <ele>235.96</ele>
        <time>2016-09-06T09:35:35.000Z</time>
      </trkpt>
      <trkpt lat="47.21257" lon="5.99973">
        <ele>235.785</ele>
        <time>2016-09-06T09:35:36.000Z</time>
      </trkpt>
      <trkpt lat="47.21252" lon="5.99969">
        <ele>235.992</ele>
        <time>2016-09-06T09:35:37.000Z</time>
      </trkpt>
      <trkpt lat="47.21248" lon="5.99964">
        <ele>235.847</ele>
        <time>2016-09-06T09:35:38.000Z</time>
      </trkpt>
      <trkpt lat="47.21247" lon="5.99963">
        <ele>238.488</ele>
        <time>2016-09-06T09:35:39.000Z</time>
      </trkpt>
      <trkpt lat="47.21243" lon="5.99959">
        <ele>238.474</ele>
        <time>2016-09-06T09:35:40.000Z</time>
      </trkpt>
      <trkpt lat="47.21239" lon="5.99955">
        <ele>238.605</ele>
        <time>2016-09-06T09:35:41.000Z</time>
      </trkpt>
      <trkpt lat="47.21234" lon="5.99951">
        <ele>237.685</ele>
        <time>2016-09-06T09:35:42.000Z</time>
      </trkpt>
      <trkpt lat="47.2123" lon="5.99947">
        <ele>237.854</ele>
        <time>2016-09-06T09:35:43.000Z</time>
      </trkpt>
      <trkpt lat="47.21226" lon="5.99943">
        <ele>237.929</ele>
        <time>2016-09-06T09:35:44.000Z</time>
      </trkpt>
      <trkpt lat="47.21222" lon="5.9994">
        <ele>238.124</ele>
        <time>2016-09-06T09:35:45.000Z</time>
      </trkpt>
      <trkpt lat="47.21218" lon="5.99936">
        <ele>237.673</ele>
        <time>2016-09-06T09:35:46.000Z</time>
      </trkpt>
      <trkpt lat="47.21214" lon="5.99932">
        <ele>237.607</ele>
        <time>2016-09-06T09:35:47.000Z</time>
      </trkpt>
      <trkpt lat="47.2121" lon="5.99928">
        <ele>237.409</ele>
        <time>2016-09-06T09:35:48.000Z</time>
      </trkpt>
      <trkpt lat="47.21206" lon="5.99924">
        <ele>237.35</ele>
        <time>2016-09-06T09:35:49.000Z</time>
      </trkpt>
      <trkpt lat="47.21202" lon="5.9992">
        <ele>237.515</ele>
        <time>2016-09-06T09:35:50.000Z</time>
      </trkpt>
      <trkpt lat="47.21198" lon="5.99915">
        <ele>237.461</ele>
        <time>2016-09-06T09:35:51.000Z</time>
      </trkpt>
      <trkpt lat="47.21194" lon="5.99911">
        <ele>237.361</ele>
        <time>2016-09-06T09:35:52.000Z</time>
      </trkpt>
      <trkpt lat="47.2119" lon="5.99908">
        <ele>237.548</ele>
        <time>2016-09-06T09:35:53.000Z</time>
      </trkpt>
      <trkpt lat="47.21186" lon="5.99904">
        <ele>237.93</ele>
        <time>2016-09-06T09:35:54.000Z</time>
      </trkpt>
      <trkpt lat="47.21182" lon="5.999">
        <ele>238.326</ele>
        <time>2016-09-06T09:35:55.000Z</time>
      </trkpt>
      <trkpt lat="47.21179" lon="5.99897">
        <ele>238.35</ele>
        <time>2016-09-06T09:35:56.000Z</time>
      </trkpt>
      <trkpt lat="47.21175" lon="5.99893">
        <ele>238.161</ele>
        <time>2016-09-06T09:35:57.000Z</time>
      </trkpt>
      <trkpt lat="47.21172" lon="5.99889">
        <ele>238.449</ele>
        <time>2016-09-06T09:35:58.000Z</time>
      </trkpt>
      <trkpt lat="47.21168" lon="5.99885">
        <ele>238.829</ele>
        <time>2016-09-06T09:35:59.000Z</time>
      </trkpt>
      <trkpt lat="47.21165" lon="5.99882">
        <ele>239.183</ele>
        <time>2016-09-06T09:36:00.000Z</time>
      </trkpt>
      <trkpt lat="47.21162" lon="5.99878">
        <ele>239.146</ele>
        <time>2016-09-06T09:36:01.000Z</time>
      </trkpt>
      <trkpt lat="47.21158" lon="5.99874">
        <ele>239.297</ele>
        <time>2016-09-06T09:36:02.000Z</time>
      </trkpt>
      <trkpt lat="47.21154" lon="5.9987">
        <ele>239.237</ele>
        <time>2016-09-06T09:36:03.000Z</time>
      </trkpt>
      <trkpt lat="47.21151" lon="5.99866">
        <ele>239.186</ele>
        <time>2016-09-06T09:36:04.000Z</time>
      </trkpt>
      <trkpt lat="47.21146" lon="5.99862">
        <ele>239.277</ele>
        <time>2016-09-06T09:36:05.000Z</time>
      </trkpt>
      <trkpt lat="47.21143" lon="5.99858">
        <ele>239.582</ele>
        <time>2016-09-06T09:36:06.000Z</time>
      </trkpt>
      <trkpt lat="47.21139" lon="5.99855">
        <ele>239.805</ele>
        <time>2016-09-06T09:36:07.000Z</time>
      </trkpt>
      <trkpt lat="47.21134" lon="5.99851">
        <ele>239.847</ele>
        <time>2016-09-06T09:36:08.000Z</time>
      </trkpt>
      <trkpt lat="47.2113" lon="5.99847">
        <ele>240.064</ele>
        <time>2016-09-06T09:36:09.000Z</time>
      </trkpt>
      <trkpt lat="47.21125" lon="5.99843">
        <ele>240.17</ele>
        <time>2016-09-06T09:36:10.000Z</time>
      </trkpt>
      <trkpt lat="47.21121" lon="5.9984">
        <ele>240.2</ele>
        <time>2016-09-06T09:36:11.000Z</time>
      </trkpt>
      <trkpt lat="47.21117" lon="5.99836">
        <ele>240.079</ele>
        <time>2016-09-06T09:36:12.000Z</time>
      </trkpt>
      <trkpt lat="47.21113" lon="5.99833">
        <ele>240.231</ele>
        <time>2016-09-06T09:36:13.000Z</time>
      </trkpt>
      <trkpt lat="47.21109" lon="5.99828">
        <ele>240.009</ele>
        <time>2016-09-06T09:36:14.000Z</time>
      </trkpt>
      <trkpt lat="47.21105" lon="5.99824">
        <ele>240.208</ele>
        <time>2016-09-06T09:36:15.000Z</time>
      </trkpt>
      <trkpt lat="47.211" lon="5.99819">
        <ele>240.573</ele>
        <time>2016-09-06T09:36:16.000Z</time>
      </trkpt>
      <trkpt lat="47.21096" lon="5.99814">
        <ele>240.76</ele>
        <time>2016-09-06T09:36:17.000Z</time>
      </trkpt>
      <trkpt lat="47.21093" lon="5.99811">
        <ele>241.832</ele>
        <time>2016-09-06T09:36:18.000Z</time>
      </trkpt>
      <trkpt lat="47.21089" lon="5.99806">
        <ele>241.944</ele>
        <time>2016-09-06T09:36:19.000Z</time>
      </trkpt>
      <trkpt lat="47.21084" lon="5.99801">
        <ele>242.103</ele>
        <time>2016-09-06T09:36:20.000Z</time>
      </trkpt>
      <trkpt lat="47.21082" lon="5.998">
        <ele>242.424</ele>
        <time>2016-09-06T09:36:21.000Z</time>
      </trkpt>
      <trkpt lat="47.21079" lon="5.99798">
        <ele>242.426</ele>
        <time>2016-09-06T09:36:22.000Z</time>
      </trkpt>
      <trkpt lat="47.21075" lon="5.99795">
        <ele>242.523</ele>
        <time>2016-09-06T09:36:23.000Z</time>
      </trkpt>
      <trkpt lat="47.21072" lon="5.99792">
        <ele>242.553</ele>
        <time>2016-09-06T09:36:24.000Z</time>
      </trkpt>
      <trkpt lat="47.21068" lon="5.99788">
        <ele>242.756</ele>
        <time>2016-09-06T09:36:25.000Z</time>
      </trkpt>
      <trkpt lat="47.21065" lon="5.99784">
        <ele>242.827</ele>
        <time>2016-09-06T09:36:26.000Z</time>
      </trkpt>
      <trkpt lat="47.21061" lon="5.99781">
        <ele>243.25</ele>
        <time>2016-09-06T09:36:27.000Z</time>
      </trkpt>
      <trkpt lat="47.21057" lon="5.99776">
        <ele>243.262</ele>
        <time>2016-09-06T09:36:28.000Z</time>
      </trkpt>
      <trkpt lat="47.21053" lon="5.99772">
        <ele>242.507</ele>
        <time>2016-09-06T09:36:29.000Z</time>
      </trkpt>
      <trkpt lat="47.21049" lon="5.99768">
        <ele>242.223</ele>
        <time>2016-09-06T09:36:30.000Z</time>
      </trkpt>
      <trkpt lat="47.21045" lon="5.99764">
        <ele>242.156</ele>
        <time>2016-09-06T09:36:31.000Z</time>
      </trkpt>
      <trkpt lat="47.2104" lon="5.99761">
        <ele>242.499</ele>
        <time>2016-09-06T09:36:32.000Z</time>
      </trkpt>
      <trkpt lat="47.21036" lon="5.99757">
        <ele>242.609</ele>
        <time>2016-09-06T09:36:33.000Z</time>
      </trkpt>
      <trkpt lat="47.21032" lon="5.99754">
        <ele>242.797</ele>
        <time>2016-09-06T09:36:34.000Z</time>
      </trkpt>
      <trkpt lat="47.21028" lon="5.9975">
        <ele>242.785</ele>
        <time>2016-09-06T09:36:35.000Z</time>
      </trkpt>
      <trkpt lat="47.21024" lon="5.99747">
        <ele>242.749</ele>
        <time>2016-09-06T09:36:36.000Z</time>
      </trkpt>
      <trkpt lat="47.2102" lon="5.99743">
        <ele>242.555</ele>
        <time>2016-09-06T09:36:37.000Z</time>
      </trkpt>
      <trkpt lat="47.21016" lon="5.99739">
        <ele>242.192</ele>
        <time>2016-09-06T09:36:38.000Z</time>
      </trkpt>
      <trkpt lat="47.21012" lon="5.99735">
        <ele>242.171</ele>
        <time>2016-09-06T09:36:39.000Z</time>
      </trkpt>
      <trkpt lat="47.21008" lon="5.99731">
        <ele>242.062</ele>
        <time>2016-09-06T09:36:40.000Z</time>
      </trkpt>
      <trkpt lat="47.21003" lon="5.99726">
        <ele>242.476</ele>
        <time>2016-09-06T09:36:41.000Z</time>
      </trkpt>
      <trkpt lat="47.20999" lon="5.99722">
        <ele>242.592</ele>
        <time>2016-09-06T09:36:42.000Z</time>
      </trkpt>
      <trkpt lat="47.20995" lon="5.99718">
        <ele>242.448</ele>
        <time>2016-09-06T09:36:43.000Z</time>
      </trkpt>
      <trkpt lat="47.20991" lon="5.99713">
        <ele>242.382</ele>
        <time>2016-09-06T09:36:44.000Z</time>
      </trkpt>
      <trkpt lat="47.20987" lon="5.99709">
        <ele>242.547</ele>
        <time>2016-09-06T09:36:45.000Z</time>
      </trkpt>
      <trkpt lat="47.20984" lon="5.99705">
        <ele>242.5</ele>
        <time>2016-09-06T09:36:46.000Z</time>
      </trkpt>
      <trkpt lat="47.20978" lon="5.99699">
        <ele>242.418</ele>
        <time>2016-09-06T09:36:47.000Z</time>
      </trkpt>
      <trkpt lat="47.20975" lon="5.99695">
        <ele>242.428</ele>
        <time>2016-09-06T09:36:48.000Z</time>
      </trkpt>
      <trkpt lat="47.2097" lon="5.99689">
        <ele>242.48</ele>
        <time>2016-09-06T09:36:49.000Z</time>
      </trkpt>
      <trkpt lat="47.20967" lon="5.99685">
        <ele>242.593</ele>
        <time>2016-09-06T09:36:50.000Z</time>
      </trkpt>
      <trkpt lat="47.20963" lon="5.99682">
        <ele>243.922</ele>
        <time>2016-09-06T09:36:51.000Z</time>
      </trkpt>
      <trkpt lat="47.20959" lon="5.99678">
        <ele>244.131</ele>
        <time>2016-09-06T09:36:52.000Z</time>
      </trkpt>
      <trkpt lat="47.20956" lon="5.99673">
        <ele>244.294</ele>
        <time>2016-09-06T09:36:53.000Z</time>
      </trkpt>
      <trkpt lat="47.20953" lon="5.99669">
        <ele>244.598</ele>
        <time>2016-09-06T09:36:54.000Z</time>
      </trkpt>
      <trkpt lat="47.2095" lon="5.99665">
        <ele>244.828</ele>
        <time>2016-09-06T09:36:55.000Z</time>
      </trkpt>
      <trkpt lat="47.20945" lon="5.99658">
        <ele>244.514</ele>
        <time>2016-09-06T09:36:56.000Z</time>
      </trkpt>
      <trkpt lat="47.20942" lon="5.99654">
        <ele>244.676</ele>
        <time>2016-09-06T09:36:57.000Z</time>
      </trkpt>
      <trkpt lat="47.20938" lon="5.99649">
        <ele>244.508</ele>
        <time>2016-09-06T09:36:58.000Z</time>
      </trkpt>
      <trkpt lat="47.20934" lon="5.99645">
        <ele>244.651</ele>
        <time>2016-09-06T09:36:59.000Z</time>
      </trkpt>
      <trkpt lat="47.2093" lon="5.9964">
        <ele>244.731</ele>
        <time>2016-09-06T09:37:00.000Z</time>
      </trkpt>
      <trkpt lat="47.20925" lon="5.99636">
        <ele>244.67</ele>
        <time>2016-09-06T09:37:01.000Z</time>
      </trkpt>
      <trkpt lat="47.20921" lon="5.99631">
        <ele>244.457</ele>
        <time>2016-09-06T09:37:02.000Z</time>
      </trkpt>
      <trkpt lat="47.20917" lon="5.99627">
        <ele>244.428</ele>
        <time>2016-09-06T09:37:03.000Z</time>
      </trkpt>
      <trkpt lat="47.20911" lon="5.99623">
        <ele>242.062</ele>
        <time>2016-09-06T09:37:04.000Z</time>
      </trkpt>
      <trkpt lat="47.20906" lon="5.99619">
        <ele>242.018</ele>
        <time>2016-09-06T09:37:05.000Z</time>
      </trkpt>
      <trkpt lat="47.20902" lon="5.99616">
        <ele>241.229</ele>
        <time>2016-09-06T09:37:06.000Z</time>
      </trkpt>
      <trkpt lat="47.20897" lon="5.99613">
        <ele>241.297</ele>
        <time>2016-09-06T09:37:07.000Z</time>
      </trkpt>
      <trkpt lat="47.20892" lon="5.99609">
        <ele>241.814</ele>
        <time>2016-09-06T09:37:08.000Z</time>
      </trkpt>
      <trkpt lat="47.20888" lon="5.99606">
        <ele>241.801</ele>
        <time>2016-09-06T09:37:09.000Z</time>
      </trkpt>
      <trkpt lat="47.20884" lon="5.99604">
        <ele>241.142</ele>
        <time>2016-09-06T09:37:10.000Z</time>
      </trkpt>
      <trkpt lat="47.20879" lon="5.99602">
        <ele>240.973</ele>
        <time>2016-09-06T09:37:11.000Z</time>
      </trkpt>
      <trkpt lat="47.20875" lon="5.99599">
        <ele>241.06</ele>
        <time>2016-09-06T09:37:12.000Z</time>
      </trkpt>
      <trkpt lat="47.2087" lon="5.99598">
        <ele>240.964</ele>
        <time>2016-09-06T09:37:13.000Z</time>
      </trkpt>
      <trkpt lat="47.20865" lon="5.99596">
        <ele>241.389</ele>
        <time>2016-09-06T09:37:14.000Z</time>
      </trkpt>
      <trkpt lat="47.20861" lon="5.99593">
        <ele>241.236</ele>
        <time>2016-09-06T09:37:15.000Z</time>
      </trkpt>
      <trkpt lat="47.20857" lon="5.99592">
        <ele>241.713</ele>
        <time>2016-09-06T09:37:16.000Z</time>
      </trkpt>
      <trkpt lat="47.20853" lon="5.99591">
        <ele>241.57</ele>
        <time>2016-09-06T09:37:17.000Z</time>
      </trkpt>
      <trkpt lat="47.20847" lon="5.99589">
        <ele>242.036</ele>
        <time>2016-09-06T09:37:18.000Z</time>
      </trkpt>
      <trkpt lat="47.20842" lon="5.99586">
        <ele>241.786</ele>
        <time>2016-09-06T09:37:19.000Z</time>
      </trkpt>
      <trkpt lat="47.20838" lon="5.99584">
        <ele>242.275</ele>
        <time>2016-09-06T09:37:20.000Z</time>
      </trkpt>
      <trkpt lat="47.20833" lon="5.99583">
        <ele>242.049</ele>
        <time>2016-09-06T09:37:21.000Z</time>
      </trkpt>
      <trkpt lat="47.20829" lon="5.99581">
        <ele>241.936</ele>
        <time>2016-09-06T09:37:22.000Z</time>
      </trkpt>
      <trkpt lat="47.20824" lon="5.99578">
        <ele>241.226</ele>
        <time>2016-09-06T09:37:23.000Z</time>
      </trkpt>
      <trkpt lat="47.20819" lon="5.99576">
        <ele>241.515</ele>
        <time>2016-09-06T09:37:24.000Z</time>
      </trkpt>
      <trkpt lat="47.20815" lon="5.99574">
        <ele>241.423</ele>
        <time>2016-09-06T09:37:25.000Z</time>
      </trkpt>
      <trkpt lat="47.2081" lon="5.99572">
        <ele>241.787</ele>
        <time>2016-09-06T09:37:26.000Z</time>
      </trkpt>
      <trkpt lat="47.20805" lon="5.9957">
        <ele>241.82</ele>
        <time>2016-09-06T09:37:27.000Z</time>
      </trkpt>
      <trkpt lat="47.20801" lon="5.99569">
        <ele>241.972</ele>
        <time>2016-09-06T09:37:28.000Z</time>
      </trkpt>
      <trkpt lat="47.20797" lon="5.99566">
        <ele>241.895</ele>
        <time>2016-09-06T09:37:29.000Z</time>
      </trkpt>
      <trkpt lat="47.20792" lon="5.99563">
        <ele>241.833</ele>
        <time>2016-09-06T09:37:30.000Z</time>
      </trkpt>
      <trkpt lat="47.20787" lon="5.9956">
        <ele>241.968</ele>
        <time>2016-09-06T09:37:31.000Z</time>
      </trkpt>
      <trkpt lat="47.20783" lon="5.99557">
        <ele>241.648</ele>
        <time>2016-09-06T09:37:32.000Z</time>
      </trkpt>
      <trkpt lat="47.20778" lon="5.99555">
        <ele>241.561</ele>
        <time>2016-09-06T09:37:33.000Z</time>
      </trkpt>
      <trkpt lat="47.20774" lon="5.99552">
        <ele>241.474</ele>
        <time>2016-09-06T09:37:34.000Z</time>
      </trkpt>
      <trkpt lat="47.2077" lon="5.9955">
        <ele>241.217</ele>
        <time>2016-09-06T09:37:35.000Z</time>
      </trkpt>
      <trkpt lat="47.20765" lon="5.99548">
        <ele>240.884</ele>
        <time>2016-09-06T09:37:36.000Z</time>
      </trkpt>
      <trkpt lat="47.20761" lon="5.99545">
        <ele>241.03</ele>
        <time>2016-09-06T09:37:37.000Z</time>
      </trkpt>
      <trkpt lat="47.20756" lon="5.99542">
        <ele>241.008</ele>
        <time>2016-09-06T09:37:38.000Z</time>
      </trkpt>
      <trkpt lat="47.20751" lon="5.99539">
        <ele>240.924</ele>
        <time>2016-09-06T09:37:39.000Z</time>
      </trkpt>
      <trkpt lat="47.20745" lon="5.99537">
        <ele>240.764</ele>
        <time>2016-09-06T09:37:40.000Z</time>
      </trkpt>
      <trkpt lat="47.2074" lon="5.99536">
        <ele>240.915</ele>
        <time>2016-09-06T09:37:41.000Z</time>
      </trkpt>
      <trkpt lat="47.20735" lon="5.99535">
        <ele>240.957</ele>
        <time>2016-09-06T09:37:42.000Z</time>
      </trkpt>
      <trkpt lat="47.20731" lon="5.99535">
        <ele>242.038</ele>
        <time>2016-09-06T09:37:43.000Z</time>
      </trkpt>
      <trkpt lat="47.20727" lon="5.99534">
        <ele>242.212</ele>
        <time>2016-09-06T09:37:44.000Z</time>
      </trkpt>
      <trkpt lat="47.20723" lon="5.99533">
        <ele>242.767</ele>
        <time>2016-09-06T09:37:45.000Z</time>
      </trkpt>
      <trkpt lat="47.20719" lon="5.99532">
        <ele>242.966</ele>
        <time>2016-09-06T09:37:46.000Z</time>
      </trkpt>
      <trkpt lat="47.20714" lon="5.9953">
        <ele>241.952</ele>
        <time>2016-09-06T09:37:47.000Z</time>
      </trkpt>
      <trkpt lat="47.2071" lon="5.99527">
        <ele>242.005</ele>
        <time>2016-09-06T09:37:48.000Z</time>
      </trkpt>
      <trkpt lat="47.20704" lon="5.99527">
        <ele>241.985</ele>
        <time>2016-09-06T09:37:49.000Z</time>
      </trkpt>
      <trkpt lat="47.207" lon="5.99525">
        <ele>242.138</ele>
        <time>2016-09-06T09:37:50.000Z</time>
      </trkpt>
      <trkpt lat="47.20695" lon="5.99524">
        <ele>241.825</ele>
        <time>2016-09-06T09:37:51.000Z</time>
      </trkpt>
      <trkpt lat="47.2069" lon="5.99522">
        <ele>241.86</ele>
        <time>2016-09-06T09:37:52.000Z</time>
      </trkpt>
      <trkpt lat="47.20685" lon="5.9952">
        <ele>242.178</ele>
        <time>2016-09-06T09:37:53.000Z</time>
      </trkpt>
      <trkpt lat="47.2068" lon="5.99518">
        <ele>242.343</ele>
        <time>2016-09-06T09:37:54.000Z</time>
      </trkpt>
      <trkpt lat="47.20674" lon="5.99519">
        <ele>242.264</ele>
        <time>2016-09-06T09:37:55.000Z</time>
      </trkpt>
      <trkpt lat="47.20669" lon="5.99523">
        <ele>241.263</ele>
        <time>2016-09-06T09:37:56.000Z</time>
      </trkpt>
      <trkpt lat="47.20664" lon="5.99531">
        <ele>240.747</ele>
        <time>2016-09-06T09:37:57.000Z</time>
      </trkpt>
      <trkpt lat="47.20658" lon="5.99541">
        <ele>239.876</ele>
        <time>2016-09-06T09:37:58.000Z</time>
      </trkpt>
      <trkpt lat="47.20655" lon="5.99549">
        <ele>238.908</ele>
        <time>2016-09-06T09:37:59.000Z</time>
      </trkpt>
      <trkpt lat="47.20649" lon="5.9956">
        <ele>238.063</ele>
        <time>2016-09-06T09:38:00.000Z</time>
      </trkpt>
      <trkpt lat="47.20649" lon="5.99566">
        <ele>238.222</ele>
        <time>2016-09-06T09:38:01.000Z</time>
      </trkpt>
      <trkpt lat="47.20651" lon="5.99566">
        <ele>239.026</ele>
        <time>2016-09-06T09:38:03.000Z</time>
      </trkpt>
      <trkpt lat="47.20652" lon="5.9957">
        <ele>238.307</ele>
        <time>2016-09-06T09:38:04.000Z</time>
      </trkpt>
      <trkpt lat="47.20653" lon="5.99574">
        <ele>238.047</ele>
        <time>2016-09-06T09:38:05.000Z</time>
      </trkpt>
      <trkpt lat="47.2065" lon="5.99579">
        <ele>238.015</ele>
        <time>2016-09-06T09:38:06.000Z</time>
      </trkpt>
      <trkpt lat="47.20649" lon="5.99582">
        <ele>238.018</ele>
        <time>2016-09-06T09:38:07.000Z</time>
      </trkpt>
      <trkpt lat="47.20649" lon="5.99585">
        <ele>238.045</ele>
        <time>2016-09-06T09:38:08.000Z</time>
      </trkpt>
      <trkpt lat="47.2065" lon="5.99586">
        <ele>237.932</ele>
        <time>2016-09-06T09:38:09.000Z</time>
      </trkpt>
      <trkpt lat="47.20649" lon="5.99585">
        <ele>238.093</ele>
        <time>2016-09-06T09:38:10.000Z</time>
      </trkpt>
      <trkpt lat="47.2065" lon="5.99585">
        <ele>238.111</ele>
        <time>2016-09-06T09:38:11.000Z</time>
      </trkpt>
      <trkpt lat="47.20649" lon="5.99584">
        <ele>238.118</ele>
        <time>2016-09-06T09:38:12.000Z</time>
      </trkpt>
      <trkpt lat="47.20647" lon="5.99583">
        <ele>237.802</ele>
        <time>2016-09-06T09:38:13.000Z</time>
      </trkpt>
      <trkpt lat="47.20646" lon="5.99581">
        <ele>237.317</ele>
        <time>2016-09-06T09:38:14.000Z</time>
      </trkpt>
      <trkpt lat="47.20644" lon="5.99579">
        <ele>237.836</ele>
        <time>2016-09-06T09:38:15.000Z</time>
      </trkpt>
      <trkpt lat="47.20642" lon="5.99579">
        <ele>238.577</ele>
        <time>2016-09-06T09:38:16.000Z</time>
      </trkpt>
      <trkpt lat="47.2064" lon="5.99578">
        <ele>237.453</ele>
        <time>2016-09-06T09:38:17.000Z</time>
      </trkpt>
      <trkpt lat="47.20639" lon="5.99576">
        <ele>237.865</ele>
        <time>2016-09-06T09:38:18.000Z</time>
      </trkpt>
      <trkpt lat="47.20637" lon="5.99574">
        <ele>237.582</ele>
        <time>2016-09-06T09:38:19.000Z</time>
      </trkpt>
      <trkpt lat="47.20635" lon="5.99571">
        <ele>237.668</ele>
        <time>2016-09-06T09:38:20.000Z</time>
      </trkpt>
      <trkpt lat="47.20632" lon="5.99569">
        <ele>237.904</ele>
        <time>2016-09-06T09:38:21.000Z</time>
      </trkpt>
      <trkpt lat="47.2063" lon="5.99568">
        <ele>237.798</ele>
        <time>2016-09-06T09:38:22.000Z</time>
      </trkpt>
      <trkpt lat="47.20628" lon="5.99566">
        <ele>237.771</ele>
        <time>2016-09-06T09:38:23.000Z</time>
      </trkpt>
      <trkpt lat="47.20627" lon="5.99565">
        <ele>237.665</ele>
        <time>2016-09-06T09:38:24.000Z</time>
      </trkpt>
      <trkpt lat="47.2062" lon="5.99562">
        <ele>238.387</ele>
        <time>2016-09-06T09:38:25.000Z</time>
      </trkpt>
      <trkpt lat="47.20614" lon="5.9956">
        <ele>239.129</ele>
        <time>2016-09-06T09:38:26.000Z</time>
      </trkpt>
      <trkpt lat="47.20611" lon="5.99559">
        <ele>239.164</ele>
        <time>2016-09-06T09:38:27.000Z</time>
      </trkpt>
      <trkpt lat="47.20608" lon="5.99557">
        <ele>239.441</ele>
        <time>2016-09-06T09:38:28.000Z</time>
      </trkpt>
      <trkpt lat="47.20604" lon="5.99555">
        <ele>239.859</ele>
        <time>2016-09-06T09:38:29.000Z</time>
      </trkpt>
      <trkpt lat="47.206" lon="5.99553">
        <ele>240.622</ele>
        <time>2016-09-06T09:38:30.000Z</time>
      </trkpt>
      <trkpt lat="47.20596" lon="5.99552">
        <ele>240.004</ele>
        <time>2016-09-06T09:38:31.000Z</time>
      </trkpt>
      <trkpt lat="47.20592" lon="5.9955">
        <ele>240.085</ele>
        <time>2016-09-06T09:38:32.000Z</time>
      </trkpt>
      <trkpt lat="47.20588" lon="5.99549">
        <ele>240.669</ele>
        <time>2016-09-06T09:38:33.000Z</time>
      </trkpt>
      <trkpt lat="47.20584" lon="5.99547">
        <ele>241.182</ele>
        <time>2016-09-06T09:38:34.000Z</time>
      </trkpt>
      <trkpt lat="47.2058" lon="5.99544">
        <ele>240.768</ele>
        <time>2016-09-06T09:38:35.000Z</time>
      </trkpt>
      <trkpt lat="47.20576" lon="5.99543">
        <ele>241.046</ele>
        <time>2016-09-06T09:38:36.000Z</time>
      </trkpt>
      <trkpt lat="47.20571" lon="5.99541">
        <ele>241.225</ele>
        <time>2016-09-06T09:38:37.000Z</time>
      </trkpt>
      <trkpt lat="47.20567" lon="5.9954">
        <ele>242.003</ele>
        <time>2016-09-06T09:38:38.000Z</time>
      </trkpt>
      <trkpt lat="47.20563" lon="5.99537">
        <ele>242.181</ele>
        <time>2016-09-06T09:38:39.000Z</time>
      </trkpt>
      <trkpt lat="47.20558" lon="5.99535">
        <ele>242.395</ele>
        <time>2016-09-06T09:38:40.000Z</time>
      </trkpt>
      <trkpt lat="47.20557" lon="5.99532">
        <ele>242.261</ele>
        <time>2016-09-06T09:38:41.000Z</time>
      </trkpt>
      <trkpt lat="47.20557" lon="5.99532">
        <ele>242.261</ele>
        <time>2016-09-06T09:38:41.994Z</time>
      </trkpt>
      <trkpt lat="47.20554" lon="5.99528">
        <ele>241.482</ele>
        <time>2016-09-06T09:38:42.000Z</time>
      </trkpt>
      <trkpt lat="47.20551" lon="5.99524">
        <ele>241.545</ele>
        <time>2016-09-06T09:38:43.000Z</time>
      </trkpt>
      <trkpt lat="47.20547" lon="5.99519">
        <ele>241.449</ele>
        <time>2016-09-06T09:38:44.000Z</time>
      </trkpt>
      <trkpt lat="47.20545" lon="5.99514">
        <ele>241.436</ele>
        <time>2016-09-06T09:38:45.000Z</time>
      </trkpt>
      <trkpt lat="47.20542" lon="5.99508">
        <ele>241.435</ele>
        <time>2016-09-06T09:38:46.000Z</time>
      </trkpt>
      <trkpt lat="47.20537" lon="5.99508">
        <ele>241.379</ele>
        <time>2016-09-06T09:38:47.000Z</time>
      </trkpt>
      <trkpt lat="47.20533" lon="5.99507">
        <ele>241.654</ele>
        <time>2016-09-06T09:38:48.000Z</time>
      </trkpt>
      <trkpt lat="47.2053" lon="5.99503">
        <ele>241.85</ele>
        <time>2016-09-06T09:38:49.000Z</time>
      </trkpt>
      <trkpt lat="47.20526" lon="5.9951">
        <ele>242.908</ele>
        <time>2016-09-06T09:38:50.000Z</time>
      </trkpt>
      <trkpt lat="47.20523" lon="5.9951">
        <ele>243.01</ele>
        <time>2016-09-06T09:38:51.000Z</time>
      </trkpt>
      <trkpt lat="47.2052" lon="5.9951">
        <ele>242.829</ele>
        <time>2016-09-06T09:38:52.000Z</time>
      </trkpt>
      <trkpt lat="47.20517" lon="5.99508">
        <ele>242.894</ele>
        <time>2016-09-06T09:38:53.000Z</time>
      </trkpt>
      <trkpt lat="47.20514" lon="5.99508">
        <ele>242.411</ele>
        <time>2016-09-06T09:38:54.000Z</time>
      </trkpt>
      <trkpt lat="47.20511" lon="5.99507">
        <ele>242.624</ele>
        <time>2016-09-06T09:38:55.000Z</time>
      </trkpt>
      <trkpt lat="47.20508" lon="5.99506">
        <ele>242.407</ele>
        <time>2016-09-06T09:38:56.000Z</time>
      </trkpt>
      <trkpt lat="47.20505" lon="5.99505">
        <ele>242.599</ele>
        <time>2016-09-06T09:38:57.000Z</time>
      </trkpt>
      <trkpt lat="47.20502" lon="5.99504">
        <ele>242.225</ele>
        <time>2016-09-06T09:38:58.000Z</time>
      </trkpt>
      <trkpt lat="47.20499" lon="5.99503">
        <ele>242.268</ele>
        <time>2016-09-06T09:38:59.000Z</time>
      </trkpt>
      <trkpt lat="47.20497" lon="5.99502">
        <ele>242.86</ele>
        <time>2016-09-06T09:39:00.000Z</time>
      </trkpt>
      <trkpt lat="47.20495" lon="5.99503">
        <ele>242.734</ele>
        <time>2016-09-06T09:39:01.000Z</time>
      </trkpt>
      <trkpt lat="47.20494" lon="5.99504">
        <ele>242.202</ele>
        <time>2016-09-06T09:39:02.000Z</time>
      </trkpt>
      <trkpt lat="47.20492" lon="5.99505">
        <ele>242.25</ele>
        <time>2016-09-06T09:39:03.000Z</time>
      </trkpt>
      <trkpt lat="47.20492" lon="5.99507">
        <ele>242.218</ele>
        <time>2016-09-06T09:39:04.000Z</time>
      </trkpt>
      <trkpt lat="47.20493" lon="5.99509">
        <ele>241.719</ele>
        <time>2016-09-06T09:39:05.000Z</time>
      </trkpt>
      <trkpt lat="47.20495" lon="5.99512">
        <ele>241.519</ele>
        <time>2016-09-06T09:39:06.000Z</time>
      </trkpt>
      <trkpt lat="47.20496" lon="5.99515">
        <ele>241.505</ele>
        <time>2016-09-06T09:39:07.000Z</time>
      </trkpt>
      <trkpt lat="47.20497" lon="5.99517">
        <ele>241.593</ele>
        <time>2016-09-06T09:39:08.000Z</time>
      </trkpt>
      <trkpt lat="47.20498" lon="5.99519">
        <ele>241.201</ele>
        <time>2016-09-06T09:39:09.000Z</time>
      </trkpt>
      <trkpt lat="47.205" lon="5.99522">
        <ele>240.969</ele>
        <time>2016-09-06T09:39:10.000Z</time>
      </trkpt>
      <trkpt lat="47.20497" lon="5.99519">
        <ele>240.968</ele>
        <time>2016-09-06T09:39:11.000Z</time>
      </trkpt>
      <trkpt lat="47.205" lon="5.99522">
        <ele>240.846</ele>
        <time>2016-09-06T09:39:12.000Z</time>
      </trkpt>
      <trkpt lat="47.205" lon="5.99516">
        <ele>240.862</ele>
        <time>2016-09-06T09:39:13.000Z</time>
      </trkpt>
      <trkpt lat="47.20499" lon="5.99515">
        <ele>241.12</ele>
        <time>2016-09-06T09:39:14.000Z</time>
      </trkpt>
      <trkpt lat="47.20496" lon="5.99516">
        <ele>241.115</ele>
        <time>2016-09-06T09:39:15.000Z</time>
      </trkpt>
      <trkpt lat="47.20497" lon="5.99516">
        <ele>241.221</ele>
        <time>2016-09-06T09:39:16.000Z</time>
      </trkpt>
      <trkpt lat="47.20497" lon="5.99516">
        <ele>241.684</ele>
        <time>2016-09-06T09:39:17.000Z</time>
      </trkpt>
      <trkpt lat="47.20495" lon="5.99514">
        <ele>241.668</ele>
        <time>2016-09-06T09:39:18.000Z</time>
      </trkpt>
      <trkpt lat="47.20493" lon="5.99513">
        <ele>241.857</ele>
        <time>2016-09-06T09:39:19.000Z</time>
      </trkpt>
      <trkpt lat="47.20492" lon="5.99513">
        <ele>241.475</ele>
        <time>2016-09-06T09:39:20.000Z</time>
      </trkpt>
      <trkpt lat="47.2049" lon="5.99513">
        <ele>241.446</ele>
        <time>2016-09-06T09:39:21.000Z</time>
      </trkpt>
      <trkpt lat="47.2049" lon="5.99513">
        <ele>241.001</ele>
        <time>2016-09-06T09:39:22.000Z</time>
      </trkpt>
      <trkpt lat="47.20488" lon="5.99513">
        <ele>240.948</ele>
        <time>2016-09-06T09:39:23.000Z</time>
      </trkpt>
      <trkpt lat="47.20489" lon="5.99514">
        <ele>240.052</ele>
        <time>2016-09-06T09:39:24.000Z</time>
      </trkpt>
      <trkpt lat="47.20487" lon="5.99514">
        <ele>239.991</ele>
        <time>2016-09-06T09:39:25.000Z</time>
      </trkpt>
      <trkpt lat="47.20487" lon="5.99514">
        <ele>240.154</ele>
        <time>2016-09-06T09:39:26.000Z</time>
      </trkpt>
      <trkpt lat="47.20489" lon="5.99514">
        <ele>240.636</ele>
        <time>2016-09-06T09:39:27.000Z</time>
      </trkpt>
      <trkpt lat="47.20488" lon="5.99514">
        <ele>240.624</ele>
        <time>2016-09-06T09:39:28.000Z</time>
      </trkpt>
      <trkpt lat="47.20488" lon="5.99514">
        <ele>240.624</ele>
        <time>2016-09-06T09:39:28.749Z</time>
      </trkpt>
      <trkpt lat="47.2049" lon="5.99512">
        <ele>241.711</ele>
        <time>2016-09-06T09:39:29.000Z</time>
      </trkpt>
      <trkpt lat="47.2049" lon="5.99512">
        <ele>241.765</ele>
        <time>2016-09-06T09:39:30.000Z</time>
      </trkpt>
      <trkpt lat="47.2049" lon="5.99512">
        <ele>242.493</ele>
        <time>2016-09-06T09:39:31.000Z</time>
      </trkpt>
      <trkpt lat="47.2049" lon="5.99512">
        <ele>242.648</ele>
        <time>2016-09-06T09:39:32.000Z</time>
      </trkpt>
      <trkpt lat="47.2049" lon="5.99512">
        <ele>241.174</ele>
        <time>2016-09-06T09:39:33.000Z</time>
      </trkpt>
      <trkpt lat="47.2049" lon="5.99512">
        <ele>241.264</ele>
        <time>2016-09-06T09:39:34.000Z</time>
      </trkpt>
      <trkpt lat="47.2049" lon="5.99512">
        <ele>240.9</ele>
        <time>2016-09-06T09:39:35.000Z</time>
      </trkpt>
      <trkpt lat="47.2049" lon="5.99512">
        <ele>240.729</ele>
        <time>2016-09-06T09:39:36.000Z</time>
      </trkpt>
      <trkpt lat="47.2049" lon="5.99512">
        <ele>240.751</ele>
        <time>2016-09-06T09:39:37.000Z</time>
      </trkpt>
      <trkpt lat="47.2049" lon="5.99512">
        <ele>240.788</ele>
        <time>2016-09-06T09:39:38.000Z</time>
      </trkpt>
      <trkpt lat="47.2049" lon="5.99512">
        <ele>240.703</ele>
        <time>2016-09-06T09:39:39.000Z</time>
      </trkpt>
      <trkpt lat="47.20488" lon="5.99511">
        <ele>240.726</ele>
        <time>2016-09-06T09:39:40.000Z</time>
      </trkpt>
      <trkpt lat="47.20488" lon="5.99511">
        <ele>239.708</ele>
        <time>2016-09-06T09:39:41.000Z</time>
      </trkpt>
      <trkpt lat="47.20488" lon="5.99511">
        <ele>239.82</ele>
        <time>2016-09-06T09:39:42.000Z</time>
      </trkpt>
      <trkpt lat="47.20488" lon="5.99511">
        <ele>239.808</ele>
        <time>2016-09-06T09:39:43.000Z</time>
      </trkpt>
      <trkpt lat="47.20488" lon="5.99509">
        <ele>239.813</ele>
        <time>2016-09-06T09:39:44.000Z</time>
      </trkpt>
      <trkpt lat="47.20488" lon="5.99509">
        <ele>239.546</ele>
        <time>2016-09-06T09:39:45.000Z</time>
      </trkpt>
      <trkpt lat="47.20489" lon="5.99508">
        <ele>239.664</ele>
        <time>2016-09-06T09:39:46.000Z</time>
      </trkpt>
      <trkpt lat="47.20488" lon="5.99508">
        <ele>239.582</ele>
        <time>2016-09-06T09:39:47.000Z</time>
      </trkpt>
      <trkpt lat="47.20488" lon="5.99507">
        <ele>239.359</ele>
        <time>2016-09-06T09:39:48.000Z</time>
      </trkpt>
      <trkpt lat="47.20487" lon="5.99507">
        <ele>239.003</ele>
        <time>2016-09-06T09:39:49.000Z</time>
      </trkpt>
      <trkpt lat="47.20487" lon="5.99506">
        <ele>239.13</ele>
        <time>2016-09-06T09:39:50.000Z</time>
      </trkpt>
      <trkpt lat="47.20486" lon="5.99505">
        <ele>238.712</ele>
        <time>2016-09-06T09:39:51.000Z</time>
      </trkpt>
      <trkpt lat="47.20485" lon="5.99503">
        <ele>238.555</ele>
        <time>2016-09-06T09:39:52.000Z</time>
      </trkpt>
      <trkpt lat="47.20483" lon="5.99504">
        <ele>238.371</ele>
        <time>2016-09-06T09:39:53.000Z</time>
      </trkpt>
      <trkpt lat="47.20481" lon="5.99501">
        <ele>238.273</ele>
        <time>2016-09-06T09:39:54.000Z</time>
      </trkpt>
      <trkpt lat="47.20479" lon="5.99501">
        <ele>237.995</ele>
        <time>2016-09-06T09:39:55.000Z</time>
      </trkpt>
      <trkpt lat="47.20478" lon="5.99499">
        <ele>237.86</ele>
        <time>2016-09-06T09:39:56.000Z</time>
      </trkpt>
      <trkpt lat="47.20475" lon="5.99499">
        <ele>237.619</ele>
        <time>2016-09-06T09:39:57.000Z</time>
      </trkpt>
      <trkpt lat="47.20475" lon="5.99498">
        <ele>237.587</ele>
        <time>2016-09-06T09:39:58.000Z</time>
      </trkpt>
      <trkpt lat="47.20473" lon="5.99497">
        <ele>237.969</ele>
        <time>2016-09-06T09:39:59.000Z</time>
      </trkpt>
      <trkpt lat="47.20472" lon="5.99496">
        <ele>237.723</ele>
        <time>2016-09-06T09:40:00.000Z</time>
      </trkpt>
      <trkpt lat="47.2047" lon="5.99494">
        <ele>238.509</ele>
        <time>2016-09-06T09:40:01.000Z</time>
      </trkpt>
      <trkpt lat="47.20469" lon="5.99492">
        <ele>238.419</ele>
        <time>2016-09-06T09:40:02.000Z</time>
      </trkpt>
      <trkpt lat="47.20467" lon="5.99491">
        <ele>238.542</ele>
        <time>2016-09-06T09:40:03.000Z</time>
      </trkpt>
      <trkpt lat="47.20465" lon="5.9949">
        <ele>238.636</ele>
        <time>2016-09-06T09:40:04.000Z</time>
      </trkpt>
      <trkpt lat="47.20463" lon="5.99489">
        <ele>238.45</ele>
        <time>2016-09-06T09:40:05.000Z</time>
      </trkpt>
      <trkpt lat="47.20459" lon="5.99488">
        <ele>238.442</ele>
        <time>2016-09-06T09:40:06.000Z</time>
      </trkpt>
      <trkpt lat="47.20457" lon="5.99486">
        <ele>238.26</ele>
        <time>2016-09-06T09:40:07.000Z</time>
      </trkpt>
      <trkpt lat="47.20453" lon="5.99484">
        <ele>238.238</ele>
        <time>2016-09-06T09:40:08.000Z</time>
      </trkpt>
      <trkpt lat="47.2045" lon="5.99482">
        <ele>237.957</ele>
        <time>2016-09-06T09:40:09.000Z</time>
      </trkpt>
      <trkpt lat="47.20447" lon="5.9948">
        <ele>237.981</ele>
        <time>2016-09-06T09:40:10.000Z</time>
      </trkpt>
      <trkpt lat="47.20444" lon="5.99478">
        <ele>237.82</ele>
        <time>2016-09-06T09:40:11.000Z</time>
      </trkpt>
      <trkpt lat="47.20439" lon="5.99477">
        <ele>238.432</ele>
        <time>2016-09-06T09:40:12.000Z</time>
      </trkpt>
      <trkpt lat="47.20436" lon="5.99475">
        <ele>238.09</ele>
        <time>2016-09-06T09:40:13.000Z</time>
      </trkpt>
      <trkpt lat="47.20432" lon="5.99474">
        <ele>237.812</ele>
        <time>2016-09-06T09:40:14.000Z</time>
      </trkpt>
      <trkpt lat="47.20429" lon="5.99473">
        <ele>237.281</ele>
        <time>2016-09-06T09:40:15.000Z</time>
      </trkpt>
      <trkpt lat="47.20426" lon="5.99471">
        <ele>237.726</ele>
        <time>2016-09-06T09:40:16.000Z</time>
      </trkpt>
      <trkpt lat="47.20423" lon="5.9947">
        <ele>237.756</ele>
        <time>2016-09-06T09:40:17.000Z</time>
      </trkpt>
      <trkpt lat="47.20419" lon="5.99469">
        <ele>237.535</ele>
        <time>2016-09-06T09:40:18.000Z</time>
      </trkpt>
      <trkpt lat="47.20415" lon="5.99468">
        <ele>237.308</ele>
        <time>2016-09-06T09:40:19.000Z</time>
      </trkpt>
      <trkpt lat="47.20411" lon="5.99466">
        <ele>237.298</ele>
        <time>2016-09-06T09:40:20.000Z</time>
      </trkpt>
      <trkpt lat="47.20406" lon="5.99464">
        <ele>237.066</ele>
        <time>2016-09-06T09:40:21.000Z</time>
      </trkpt>
      <trkpt lat="47.20404" lon="5.99464">
        <ele>237.089</ele>
        <time>2016-09-06T09:40:22.000Z</time>
      </trkpt>
      <trkpt lat="47.204" lon="5.99463">
        <ele>237.012</ele>
        <time>2016-09-06T09:40:23.000Z</time>
      </trkpt>
      <trkpt lat="47.20396" lon="5.99461">
        <ele>236.963</ele>
        <time>2016-09-06T09:40:24.000Z</time>
      </trkpt>
      <trkpt lat="47.20392" lon="5.99459">
        <ele>236.827</ele>
        <time>2016-09-06T09:40:25.000Z</time>
      </trkpt>
      <trkpt lat="47.20388" lon="5.99458">
        <ele>236.764</ele>
        <time>2016-09-06T09:40:26.000Z</time>
      </trkpt>
      <trkpt lat="47.20384" lon="5.99457">
        <ele>237.152</ele>
        <time>2016-09-06T09:40:27.000Z</time>
      </trkpt>
      <trkpt lat="47.2038" lon="5.99456">
        <ele>237.236</ele>
        <time>2016-09-06T09:40:28.000Z</time>
      </trkpt>
      <trkpt lat="47.20375" lon="5.99455">
        <ele>238.09</ele>
        <time>2016-09-06T09:40:29.000Z</time>
      </trkpt>
      <trkpt lat="47.2037" lon="5.99453">
        <ele>238.545</ele>
        <time>2016-09-06T09:40:30.000Z</time>
      </trkpt>
      <trkpt lat="47.20366" lon="5.99451">
        <ele>238.818</ele>
        <time>2016-09-06T09:40:31.000Z</time>
      </trkpt>
      <trkpt lat="47.20362" lon="5.9945">
        <ele>239.147</ele>
        <time>2016-09-06T09:40:32.000Z</time>
      </trkpt>
      <trkpt lat="47.20358" lon="5.99448">
        <ele>239.542</ele>
        <time>2016-09-06T09:40:33.000Z</time>
      </trkpt>
      <trkpt lat="47.20355" lon="5.99446">
        <ele>239.258</ele>
        <time>2016-09-06T09:40:34.000Z</time>
      </trkpt>
      <trkpt lat="47.20351" lon="5.99445">
        <ele>239.386</ele>
        <time>2016-09-06T09:40:35.000Z</time>
      </trkpt>
      <trkpt lat="47.20348" lon="5.99443">
        <ele>239.917</ele>
        <time>2016-09-06T09:40:36.000Z</time>
      </trkpt>
      <trkpt lat="47.20343" lon="5.99442">
        <ele>240.167</ele>
        <time>2016-09-06T09:40:37.000Z</time>
      </trkpt>
      <trkpt lat="47.20339" lon="5.9944">
        <ele>240.094</ele>
        <time>2016-09-06T09:40:38.000Z</time>
      </trkpt>
      <trkpt lat="47.20332" lon="5.99437">
        <ele>240.347</ele>
        <time>2016-09-06T09:40:39.000Z</time>
      </trkpt>
      <trkpt lat="47.20328" lon="5.99435">
        <ele>240.561</ele>
        <time>2016-09-06T09:40:40.000Z</time>
      </trkpt>
      <trkpt lat="47.20323" lon="5.99433">
        <ele>240.837</ele>
        <time>2016-09-06T09:40:41.000Z</time>
      </trkpt>
      <trkpt lat="47.20318" lon="5.99431">
        <ele>241.008</ele>
        <time>2016-09-06T09:40:42.000Z</time>
      </trkpt>
      <trkpt lat="47.20313" lon="5.9943">
        <ele>241.219</ele>
        <time>2016-09-06T09:40:43.000Z</time>
      </trkpt>
      <trkpt lat="47.20309" lon="5.99427">
        <ele>241.209</ele>
        <time>2016-09-06T09:40:44.000Z</time>
      </trkpt>
      <trkpt lat="47.20305" lon="5.99424">
        <ele>241.361</ele>
        <time>2016-09-06T09:40:45.000Z</time>
      </trkpt>
      <trkpt lat="47.203" lon="5.99423">
        <ele>241.228</ele>
        <time>2016-09-06T09:40:46.000Z</time>
      </trkpt>
      <trkpt lat="47.20296" lon="5.99421">
        <ele>240.703</ele>
        <time>2016-09-06T09:40:47.000Z</time>
      </trkpt>
      <trkpt lat="47.20292" lon="5.99418">
        <ele>240.928</ele>
        <time>2016-09-06T09:40:48.000Z</time>
      </trkpt>
      <trkpt lat="47.20287" lon="5.99417">
        <ele>240.596</ele>
        <time>2016-09-06T09:40:49.000Z</time>
      </trkpt>
      <trkpt lat="47.20283" lon="5.99414">
        <ele>240.898</ele>
        <time>2016-09-06T09:40:50.000Z</time>
      </trkpt>
      <trkpt lat="47.20279" lon="5.99412">
        <ele>241.061</ele>
        <time>2016-09-06T09:40:51.000Z</time>
      </trkpt>
      <trkpt lat="47.20274" lon="5.99409">
        <ele>241.49</ele>
        <time>2016-09-06T09:40:52.000Z</time>
      </trkpt>
      <trkpt lat="47.2027" lon="5.99406">
        <ele>241.769</ele>
        <time>2016-09-06T09:40:53.000Z</time>
      </trkpt>
      <trkpt lat="47.20266" lon="5.99404">
        <ele>242.338</ele>
        <time>2016-09-06T09:40:54.000Z</time>
      </trkpt>
      <trkpt lat="47.20262" lon="5.99401">
        <ele>242.543</ele>
        <time>2016-09-06T09:40:55.000Z</time>
      </trkpt>
      <trkpt lat="47.20258" lon="5.99398">
        <ele>242.877</ele>
        <time>2016-09-06T09:40:56.000Z</time>
      </trkpt>
      <trkpt lat="47.20253" lon="5.99395">
        <ele>243.306</ele>
        <time>2016-09-06T09:40:57.000Z</time>
      </trkpt>
      <trkpt lat="47.20249" lon="5.99396">
        <ele>241.449</ele>
        <time>2016-09-06T09:40:58.000Z</time>
      </trkpt>
      <trkpt lat="47.20246" lon="5.99395">
        <ele>240.479</ele>
        <time>2016-09-06T09:40:59.000Z</time>
      </trkpt>
      <trkpt lat="47.20242" lon="5.99393">
        <ele>240.425</ele>
        <time>2016-09-06T09:41:00.000Z</time>
      </trkpt>
      <trkpt lat="47.20238" lon="5.99391">
        <ele>240.535</ele>
        <time>2016-09-06T09:41:01.000Z</time>
      </trkpt>
      <trkpt lat="47.20235" lon="5.99388">
        <ele>240.88</ele>
        <time>2016-09-06T09:41:02.000Z</time>
      </trkpt>
      <trkpt lat="47.20231" lon="5.99385">
        <ele>240.721</ele>
        <time>2016-09-06T09:41:03.000Z</time>
      </trkpt>
      <trkpt lat="47.20228" lon="5.99383">
        <ele>240.511</ele>
        <time>2016-09-06T09:41:04.000Z</time>
      </trkpt>
      <trkpt lat="47.20224" lon="5.9938">
        <ele>240.516</ele>
        <time>2016-09-06T09:41:05.000Z</time>
      </trkpt>
      <trkpt lat="47.2022" lon="5.99377">
        <ele>240.521</ele>
        <time>2016-09-06T09:41:06.000Z</time>
      </trkpt>
      <trkpt lat="47.20216" lon="5.99375">
        <ele>240.59</ele>
        <time>2016-09-06T09:41:07.000Z</time>
      </trkpt>
      <trkpt lat="47.20212" lon="5.99371">
        <ele>240.478</ele>
        <time>2016-09-06T09:41:08.000Z</time>
      </trkpt>
      <trkpt lat="47.20208" lon="5.99369">
        <ele>239.946</ele>
        <time>2016-09-06T09:41:09.000Z</time>
      </trkpt>
      <trkpt lat="47.20204" lon="5.99365">
        <ele>239.556</ele>
        <time>2016-09-06T09:41:10.000Z</time>
      </trkpt>
      <trkpt lat="47.20199" lon="5.99361">
        <ele>239.835</ele>
        <time>2016-09-06T09:41:11.000Z</time>
      </trkpt>
      <trkpt lat="47.20195" lon="5.99357">
        <ele>239.449</ele>
        <time>2016-09-06T09:41:12.000Z</time>
      </trkpt>
      <trkpt lat="47.2019" lon="5.99353">
        <ele>239.468</ele>
        <time>2016-09-06T09:41:13.000Z</time>
      </trkpt>
      <trkpt lat="47.20185" lon="5.9935">
        <ele>239.493</ele>
        <time>2016-09-06T09:41:14.000Z</time>
      </trkpt>
      <trkpt lat="47.20181" lon="5.99346">
        <ele>239.718</ele>
        <time>2016-09-06T09:41:15.000Z</time>
      </trkpt>
      <trkpt lat="47.20177" lon="5.99342">
        <ele>240.321</ele>
        <time>2016-09-06T09:41:16.000Z</time>
      </trkpt>
      <trkpt lat="47.20173" lon="5.99339">
        <ele>240.268</ele>
        <time>2016-09-06T09:41:17.000Z</time>
      </trkpt>
      <trkpt lat="47.20168" lon="5.99335">
        <ele>240.564</ele>
        <time>2016-09-06T09:41:18.000Z</time>
      </trkpt>
      <trkpt lat="47.20164" lon="5.99332">
        <ele>240.45</ele>
        <time>2016-09-06T09:41:19.000Z</time>
      </trkpt>
      <trkpt lat="47.20161" lon="5.99327">
        <ele>239.936</ele>
        <time>2016-09-06T09:41:20.000Z</time>
      </trkpt>
      <trkpt lat="47.20157" lon="5.99323">
        <ele>240.458</ele>
        <time>2016-09-06T09:41:21.000Z</time>
      </trkpt>
      <trkpt lat="47.20153" lon="5.99321">
        <ele>240.27</ele>
        <time>2016-09-06T09:41:22.000Z</time>
      </trkpt>
      <trkpt lat="47.2015" lon="5.99317">
        <ele>240.578</ele>
        <time>2016-09-06T09:41:23.000Z</time>
      </trkpt>
      <trkpt lat="47.20146" lon="5.99313">
        <ele>241.448</ele>
        <time>2016-09-06T09:41:24.000Z</time>
      </trkpt>
      <trkpt lat="47.20142" lon="5.9931">
        <ele>241.268</ele>
        <time>2016-09-06T09:41:25.000Z</time>
      </trkpt>
      <trkpt lat="47.20139" lon="5.99307">
        <ele>241.047</ele>
        <time>2016-09-06T09:41:26.000Z</time>
      </trkpt>
      <trkpt lat="47.20134" lon="5.99301">
        <ele>242.732</ele>
        <time>2016-09-06T09:41:27.000Z</time>
      </trkpt>
      <trkpt lat="47.2013" lon="5.99297">
        <ele>243.197</ele>
        <time>2016-09-06T09:41:28.000Z</time>
      </trkpt>
      <trkpt lat="47.20126" lon="5.99293">
        <ele>243.369</ele>
        <time>2016-09-06T09:41:29.000Z</time>
      </trkpt>
      <trkpt lat="47.20123" lon="5.9929">
        <ele>242.721</ele>
        <time>2016-09-06T09:41:30.000Z</time>
      </trkpt>
      <trkpt lat="47.2012" lon="5.99286">
        <ele>242.33</ele>
        <time>2016-09-06T09:41:31.000Z</time>
      </trkpt>
      <trkpt lat="47.20117" lon="5.99282">
        <ele>242.412</ele>
        <time>2016-09-06T09:41:32.000Z</time>
      </trkpt>
      <trkpt lat="47.20113" lon="5.99277">
        <ele>242.53</ele>
        <time>2016-09-06T09:41:33.000Z</time>
      </trkpt>
      <trkpt lat="47.2011" lon="5.99272">
        <ele>242.615</ele>
        <time>2016-09-06T09:41:34.000Z</time>
      </trkpt>
      <trkpt lat="47.20107" lon="5.99268">
        <ele>242.573</ele>
        <time>2016-09-06T09:41:35.000Z</time>
      </trkpt>
      <trkpt lat="47.20104" lon="5.99263">
        <ele>242.359</ele>
        <time>2016-09-06T09:41:36.000Z</time>
      </trkpt>
      <trkpt lat="47.201" lon="5.99259">
        <ele>242.132</ele>
        <time>2016-09-06T09:41:37.000Z</time>
      </trkpt>
      <trkpt lat="47.20097" lon="5.99255">
        <ele>242.019</ele>
        <time>2016-09-06T09:41:38.000Z</time>
      </trkpt>
      <trkpt lat="47.20094" lon="5.9925">
        <ele>242.276</ele>
        <time>2016-09-06T09:41:39.000Z</time>
      </trkpt>
      <trkpt lat="47.2009" lon="5.99246">
        <ele>242.365</ele>
        <time>2016-09-06T09:41:40.000Z</time>
      </trkpt>
      <trkpt lat="47.20087" lon="5.99242">
        <ele>242.27</ele>
        <time>2016-09-06T09:41:41.000Z</time>
      </trkpt>
      <trkpt lat="47.20084" lon="5.99238">
        <ele>242.306</ele>
        <time>2016-09-06T09:41:42.000Z</time>
      </trkpt>
      <trkpt lat="47.20081" lon="5.99233">
        <ele>242.276</ele>
        <time>2016-09-06T09:41:43.000Z</time>
      </trkpt>
      <trkpt lat="47.20079" lon="5.99229">
        <ele>242.082</ele>
        <time>2016-09-06T09:41:44.000Z</time>
      </trkpt>
      <trkpt lat="47.20077" lon="5.99224">
        <ele>241.716</ele>
        <time>2016-09-06T09:41:45.000Z</time>
      </trkpt>
      <trkpt lat="47.20074" lon="5.9922">
        <ele>241.376</ele>
        <time>2016-09-06T09:41:46.000Z</time>
      </trkpt>
      <trkpt lat="47.20072" lon="5.99215">
        <ele>241.264</ele>
        <time>2016-09-06T09:41:47.000Z</time>
      </trkpt>
      <trkpt lat="47.20069" lon="5.99209">
        <ele>241.287</ele>
        <time>2016-09-06T09:41:48.000Z</time>
      </trkpt>
      <trkpt lat="47.20066" lon="5.99204">
        <ele>241.13</ele>
        <time>2016-09-06T09:41:49.000Z</time>
      </trkpt>
      <trkpt lat="47.20063" lon="5.99199">
        <ele>241.552</ele>
        <time>2016-09-06T09:41:50.000Z</time>
      </trkpt>
      <trkpt lat="47.2006" lon="5.99194">
        <ele>241.532</ele>
        <time>2016-09-06T09:41:51.000Z</time>
      </trkpt>
      <trkpt lat="47.20056" lon="5.99189">
        <ele>241.399</ele>
        <time>2016-09-06T09:41:52.000Z</time>
      </trkpt>
      <trkpt lat="47.20054" lon="5.99183">
        <ele>241.655</ele>
        <time>2016-09-06T09:41:53.000Z</time>
      </trkpt>
      <trkpt lat="47.20051" lon="5.99177">
        <ele>241.603</ele>
        <time>2016-09-06T09:41:54.000Z</time>
      </trkpt>
      <trkpt lat="47.20049" lon="5.99173">
        <ele>241.43</ele>
        <time>2016-09-06T09:41:55.000Z</time>
      </trkpt>
      <trkpt lat="47.20048" lon="5.99171">
        <ele>241.351</ele>
        <time>2016-09-06T09:41:56.000Z</time>
      </trkpt>
      <trkpt lat="47.20046" lon="5.99168">
        <ele>241.156</ele>
        <time>2016-09-06T09:41:57.000Z</time>
      </trkpt>
      <trkpt lat="47.20046" lon="5.99166">
        <ele>240.962</ele>
        <time>2016-09-06T09:41:58.000Z</time>
      </trkpt>
      <trkpt lat="47.20045" lon="5.99163">
        <ele>240.221</ele>
        <time>2016-09-06T09:41:59.000Z</time>
      </trkpt>
      <trkpt lat="47.20044" lon="5.9916">
        <ele>239.873</ele>
        <time>2016-09-06T09:42:00.000Z</time>
      </trkpt>
      <trkpt lat="47.20041" lon="5.99154">
        <ele>240.847</ele>
        <time>2016-09-06T09:42:01.000Z</time>
      </trkpt>
      <trkpt lat="47.2004" lon="5.99149">
        <ele>240.871</ele>
        <time>2016-09-06T09:42:02.000Z</time>
      </trkpt>
      <trkpt lat="47.20039" lon="5.99145">
        <ele>240.939</ele>
        <time>2016-09-06T09:42:03.000Z</time>
      </trkpt>
      <trkpt lat="47.20037" lon="5.99141">
        <ele>240.747</ele>
        <time>2016-09-06T09:42:04.000Z</time>
      </trkpt>
      <trkpt lat="47.20035" lon="5.99138">
        <ele>240.456</ele>
        <time>2016-09-06T09:42:05.000Z</time>
      </trkpt>
      <trkpt lat="47.20033" lon="5.99134">
        <ele>240.137</ele>
        <time>2016-09-06T09:42:06.000Z</time>
      </trkpt>
      <trkpt lat="47.20032" lon="5.9913">
        <ele>239.551</ele>
        <time>2016-09-06T09:42:07.000Z</time>
      </trkpt>
      <trkpt lat="47.20031" lon="5.99125">
        <ele>239.333</ele>
        <time>2016-09-06T09:42:08.000Z</time>
      </trkpt>
      <trkpt lat="47.2003" lon="5.99119">
        <ele>238.791</ele>
        <time>2016-09-06T09:42:09.000Z</time>
      </trkpt>
      <trkpt lat="47.20029" lon="5.99112">
        <ele>238.454</ele>
        <time>2016-09-06T09:42:10.000Z</time>
      </trkpt>
      <trkpt lat="47.20029" lon="5.99105">
        <ele>238.374</ele>
        <time>2016-09-06T09:42:11.000Z</time>
      </trkpt>
      <trkpt lat="47.2003" lon="5.99097">
        <ele>238.411</ele>
        <time>2016-09-06T09:42:12.002Z</time>
      </trkpt>
      <trkpt lat="47.2003" lon="5.99089">
        <ele>238.364</ele>
        <time>2016-09-06T09:42:13.000Z</time>
      </trkpt>
      <trkpt lat="47.20031" lon="5.99082">
        <ele>237.982</ele>
        <time>2016-09-06T09:42:14.000Z</time>
      </trkpt>
      <trkpt lat="47.20031" lon="5.99074">
        <ele>238.106</ele>
        <time>2016-09-06T09:42:15.000Z</time>
      </trkpt>
      <trkpt lat="47.2003" lon="5.99067">
        <ele>237.741</ele>
        <time>2016-09-06T09:42:16.000Z</time>
      </trkpt>
      <trkpt lat="47.20029" lon="5.9906">
        <ele>237.544</ele>
        <time>2016-09-06T09:42:17.000Z</time>
      </trkpt>
      <trkpt lat="47.20027" lon="5.99053">
        <ele>237.717</ele>
        <time>2016-09-06T09:42:18.000Z</time>
      </trkpt>
      <trkpt lat="47.20024" lon="5.99046">
        <ele>237.715</ele>
        <time>2016-09-06T09:42:19.000Z</time>
      </trkpt>
      <trkpt lat="47.20022" lon="5.99042">
        <ele>238.224</ele>
        <time>2016-09-06T09:42:20.000Z</time>
      </trkpt>
      <trkpt lat="47.2002" lon="5.99037">
        <ele>238.144</ele>
        <time>2016-09-06T09:42:21.000Z</time>
      </trkpt>
      <trkpt lat="47.20017" lon="5.99031">
        <ele>237.908</ele>
        <time>2016-09-06T09:42:22.000Z</time>
      </trkpt>
      <trkpt lat="47.20015" lon="5.99025">
        <ele>237.586</ele>
        <time>2016-09-06T09:42:23.000Z</time>
      </trkpt>
      <trkpt lat="47.20012" lon="5.9902">
        <ele>237.456</ele>
        <time>2016-09-06T09:42:24.000Z</time>
      </trkpt>
      <trkpt lat="47.2001" lon="5.99015">
        <ele>237.338</ele>
        <time>2016-09-06T09:42:25.000Z</time>
      </trkpt>
      <trkpt lat="47.20008" lon="5.9901">
        <ele>237.554</ele>
        <time>2016-09-06T09:42:26.000Z</time>
      </trkpt>
      <trkpt lat="47.20005" lon="5.99004">
        <ele>237.252</ele>
        <time>2016-09-06T09:42:27.000Z</time>
      </trkpt>
      <trkpt lat="47.20003" lon="5.98998">
        <ele>237.25</ele>
        <time>2016-09-06T09:42:28.000Z</time>
      </trkpt>
      <trkpt lat="47.2" lon="5.98993">
        <ele>236.924</ele>
        <time>2016-09-06T09:42:29.000Z</time>
      </trkpt>
      <trkpt lat="47.19998" lon="5.98987">
        <ele>236.988</ele>
        <time>2016-09-06T09:42:30.000Z</time>
      </trkpt>
      <trkpt lat="47.19995" lon="5.98981">
        <ele>236.929</ele>
        <time>2016-09-06T09:42:31.000Z</time>
      </trkpt>
      <trkpt lat="47.19993" lon="5.98975">
        <ele>237.163</ele>
        <time>2016-09-06T09:42:32.000Z</time>
      </trkpt>
      <trkpt lat="47.1999" lon="5.98968">
        <ele>236.838</ele>
        <time>2016-09-06T09:42:33.000Z</time>
      </trkpt>
      <trkpt lat="47.19987" lon="5.9896">
        <ele>235.984</ele>
        <time>2016-09-06T09:42:34.000Z</time>
      </trkpt>
      <trkpt lat="47.19985" lon="5.98953">
        <ele>235.609</ele>
        <time>2016-09-06T09:42:35.000Z</time>
      </trkpt>
      <trkpt lat="47.19982" lon="5.98947">
        <ele>235.953</ele>
        <time>2016-09-06T09:42:36.000Z</time>
      </trkpt>
      <trkpt lat="47.19978" lon="5.98941">
        <ele>235.62</ele>
        <time>2016-09-06T09:42:37.000Z</time>
      </trkpt>
      <trkpt lat="47.19976" lon="5.98934">
        <ele>235.017</ele>
        <time>2016-09-06T09:42:38.000Z</time>
      </trkpt>
      <trkpt lat="47.19972" lon="5.98928">
        <ele>234.04</ele>
        <time>2016-09-06T09:42:39.000Z</time>
      </trkpt>
      <trkpt lat="47.1997" lon="5.98922">
        <ele>234.395</ele>
        <time>2016-09-06T09:42:40.000Z</time>
      </trkpt>
      <trkpt lat="47.19968" lon="5.98915">
        <ele>234.15</ele>
        <time>2016-09-06T09:42:41.000Z</time>
      </trkpt>
      <trkpt lat="47.19966" lon="5.98909">
        <ele>233.993</ele>
        <time>2016-09-06T09:42:42.000Z</time>
      </trkpt>
      <trkpt lat="47.19963" lon="5.98905">
        <ele>234.007</ele>
        <time>2016-09-06T09:42:43.000Z</time>
      </trkpt>
      <trkpt lat="47.19962" lon="5.98897">
        <ele>234.584</ele>
        <time>2016-09-06T09:42:44.000Z</time>
      </trkpt>
      <trkpt lat="47.19958" lon="5.98893">
        <ele>233.997</ele>
        <time>2016-09-06T09:42:45.000Z</time>
      </trkpt>
      <trkpt lat="47.19956" lon="5.98886">
        <ele>233.858</ele>
        <time>2016-09-06T09:42:46.000Z</time>
      </trkpt>
      <trkpt lat="47.19954" lon="5.98879">
        <ele>233.696</ele>
        <time>2016-09-06T09:42:47.000Z</time>
      </trkpt>
      <trkpt lat="47.19951" lon="5.98873">
        <ele>233.214</ele>
        <time>2016-09-06T09:42:48.000Z</time>
      </trkpt>
      <trkpt lat="47.19951" lon="5.98866">
        <ele>234.08</ele>
        <time>2016-09-06T09:42:49.000Z</time>
      </trkpt>
      <trkpt lat="47.19949" lon="5.98859">
        <ele>233.737</ele>
        <time>2016-09-06T09:42:50.000Z</time>
      </trkpt>
      <trkpt lat="47.19946" lon="5.98853">
        <ele>232.789</ele>
        <time>2016-09-06T09:42:51.000Z</time>
      </trkpt>
      <trkpt lat="47.19944" lon="5.98848">
        <ele>233.269</ele>
        <time>2016-09-06T09:42:52.000Z</time>
      </trkpt>
      <trkpt lat="47.19942" lon="5.98842">
        <ele>233.416</ele>
        <time>2016-09-06T09:42:53.000Z</time>
      </trkpt>
      <trkpt lat="47.1994" lon="5.98837">
        <ele>233.253</ele>
        <time>2016-09-06T09:42:54.000Z</time>
      </trkpt>
      <trkpt lat="47.19938" lon="5.98831">
        <ele>233.869</ele>
        <time>2016-09-06T09:42:55.000Z</time>
      </trkpt>
      <trkpt lat="47.19935" lon="5.98824">
        <ele>232.563</ele>
        <time>2016-09-06T09:42:56.000Z</time>
      </trkpt>
      <trkpt lat="47.19933" lon="5.98818">
        <ele>232.304</ele>
        <time>2016-09-06T09:42:57.000Z</time>
      </trkpt>
      <trkpt lat="47.19931" lon="5.98813">
        <ele>232.097</ele>
        <time>2016-09-06T09:42:58.000Z</time>
      </trkpt>
      <trkpt lat="47.19929" lon="5.98807">
        <ele>231.818</ele>
        <time>2016-09-06T09:42:59.000Z</time>
      </trkpt>
      <trkpt lat="47.19926" lon="5.98801">
        <ele>231.889</ele>
        <time>2016-09-06T09:43:00.000Z</time>
      </trkpt>
      <trkpt lat="47.19923" lon="5.98797">
        <ele>232.154</ele>
        <time>2016-09-06T09:43:01.000Z</time>
      </trkpt>
      <trkpt lat="47.19922" lon="5.98791">
        <ele>232.396</ele>
        <time>2016-09-06T09:43:02.000Z</time>
      </trkpt>
      <trkpt lat="47.1992" lon="5.98784">
        <ele>232.39</ele>
        <time>2016-09-06T09:43:03.000Z</time>
      </trkpt>
      <trkpt lat="47.19919" lon="5.98778">
        <ele>232.692</ele>
        <time>2016-09-06T09:43:04.000Z</time>
      </trkpt>
      <trkpt lat="47.19917" lon="5.98771">
        <ele>233.124</ele>
        <time>2016-09-06T09:43:05.000Z</time>
      </trkpt>
      <trkpt lat="47.19915" lon="5.98765">
        <ele>233.158</ele>
        <time>2016-09-06T09:43:06.000Z</time>
      </trkpt>
      <trkpt lat="47.19912" lon="5.98759">
        <ele>232.786</ele>
        <time>2016-09-06T09:43:07.000Z</time>
      </trkpt>
      <trkpt lat="47.19909" lon="5.98754">
        <ele>232.32</ele>
        <time>2016-09-06T09:43:08.000Z</time>
      </trkpt>
      <trkpt lat="47.19907" lon="5.98749">
        <ele>231.405</ele>
        <time>2016-09-06T09:43:09.000Z</time>
      </trkpt>
      <trkpt lat="47.19905" lon="5.98743">
        <ele>232.326</ele>
        <time>2016-09-06T09:43:10.000Z</time>
      </trkpt>
      <trkpt lat="47.19902" lon="5.98739">
        <ele>232.389</ele>
        <time>2016-09-06T09:43:11.000Z</time>
      </trkpt>
      <trkpt lat="47.19901" lon="5.98733">
        <ele>232.789</ele>
        <time>2016-09-06T09:43:12.000Z</time>
      </trkpt>
      <trkpt lat="47.19898" lon="5.98729">
        <ele>233.851</ele>
        <time>2016-09-06T09:43:13.000Z</time>
      </trkpt>
      <trkpt lat="47.19895" lon="5.98722">
        <ele>233.256</ele>
        <time>2016-09-06T09:43:14.000Z</time>
      </trkpt>
      <trkpt lat="47.19893" lon="5.98716">
        <ele>232.712</ele>
        <time>2016-09-06T09:43:15.000Z</time>
      </trkpt>
      <trkpt lat="47.19891" lon="5.98709">
        <ele>232.782</ele>
        <time>2016-09-06T09:43:16.000Z</time>
      </trkpt>
      <trkpt lat="47.1989" lon="5.98701">
        <ele>232.787</ele>
        <time>2016-09-06T09:43:17.000Z</time>
      </trkpt>
      <trkpt lat="47.19888" lon="5.98695">
        <ele>232.624</ele>
        <time>2016-09-06T09:43:18.000Z</time>
      </trkpt>
      <trkpt lat="47.19885" lon="5.98689">
        <ele>233.18</ele>
        <time>2016-09-06T09:43:19.000Z</time>
      </trkpt>
      <trkpt lat="47.19884" lon="5.98684">
        <ele>233.872</ele>
        <time>2016-09-06T09:43:20.000Z</time>
      </trkpt>
      <trkpt lat="47.19882" lon="5.98679">
        <ele>234.144</ele>
        <time>2016-09-06T09:43:21.000Z</time>
      </trkpt>
      <trkpt lat="47.1988" lon="5.98674">
        <ele>234.571</ele>
        <time>2016-09-06T09:43:22.000Z</time>
      </trkpt>
      <trkpt lat="47.19877" lon="5.98668">
        <ele>234.203</ele>
        <time>2016-09-06T09:43:23.000Z</time>
      </trkpt>
      <trkpt lat="47.19875" lon="5.98662">
        <ele>234.368</ele>
        <time>2016-09-06T09:43:24.000Z</time>
      </trkpt>
      <trkpt lat="47.19872" lon="5.98656">
        <ele>234.534</ele>
        <time>2016-09-06T09:43:25.000Z</time>
      </trkpt>
      <trkpt lat="47.19869" lon="5.98651">
        <ele>233.781</ele>
        <time>2016-09-06T09:43:26.000Z</time>
      </trkpt>
      <trkpt lat="47.19866" lon="5.98646">
        <ele>232.543</ele>
        <time>2016-09-06T09:43:27.000Z</time>
      </trkpt>
      <trkpt lat="47.19863" lon="5.98641">
        <ele>232.645</ele>
        <time>2016-09-06T09:43:28.000Z</time>
      </trkpt>
      <trkpt lat="47.19859" lon="5.98637">
        <ele>230.881</ele>
        <time>2016-09-06T09:43:29.000Z</time>
      </trkpt>
      <trkpt lat="47.19856" lon="5.98631">
        <ele>230.526</ele>
        <time>2016-09-06T09:43:30.000Z</time>
      </trkpt>
      <trkpt lat="47.19854" lon="5.98624">
        <ele>230.659</ele>
        <time>2016-09-06T09:43:31.000Z</time>
      </trkpt>
      <trkpt lat="47.19852" lon="5.98618">
        <ele>231.259</ele>
        <time>2016-09-06T09:43:32.000Z</time>
      </trkpt>
      <trkpt lat="47.1985" lon="5.98611">
        <ele>232.543</ele>
        <time>2016-09-06T09:43:33.000Z</time>
      </trkpt>
      <trkpt lat="47.19847" lon="5.98606">
        <ele>231.59</ele>
        <time>2016-09-06T09:43:34.000Z</time>
      </trkpt>
      <trkpt lat="47.19845" lon="5.98599">
        <ele>232.139</ele>
        <time>2016-09-06T09:43:35.000Z</time>
      </trkpt>
      <trkpt lat="47.19843" lon="5.98592">
        <ele>232.492</ele>
        <time>2016-09-06T09:43:36.000Z</time>
      </trkpt>
      <trkpt lat="47.19838" lon="5.98587">
        <ele>231.553</ele>
        <time>2016-09-06T09:43:37.000Z</time>
      </trkpt>
      <trkpt lat="47.19836" lon="5.98581">
        <ele>231.307</ele>
        <time>2016-09-06T09:43:38.000Z</time>
      </trkpt>
      <trkpt lat="47.19834" lon="5.98575">
        <ele>231.763</ele>
        <time>2016-09-06T09:43:39.000Z</time>
      </trkpt>
      <trkpt lat="47.19833" lon="5.98569">
        <ele>232.369</ele>
        <time>2016-09-06T09:43:40.000Z</time>
      </trkpt>
      <trkpt lat="47.19831" lon="5.98563">
        <ele>232.901</ele>
        <time>2016-09-06T09:43:41.000Z</time>
      </trkpt>
      <trkpt lat="47.19829" lon="5.98558">
        <ele>233.267</ele>
        <time>2016-09-06T09:43:42.000Z</time>
      </trkpt>
      <trkpt lat="47.19828" lon="5.98552">
        <ele>233.757</ele>
        <time>2016-09-06T09:43:43.000Z</time>
      </trkpt>
      <trkpt lat="47.19827" lon="5.98546">
        <ele>234.279</ele>
        <time>2016-09-06T09:43:44.000Z</time>
      </trkpt>
      <trkpt lat="47.19825" lon="5.98539">
        <ele>233.748</ele>
        <time>2016-09-06T09:43:45.000Z</time>
      </trkpt>
      <trkpt lat="47.19823" lon="5.98534">
        <ele>234.385</ele>
        <time>2016-09-06T09:43:46.000Z</time>
      </trkpt>
      <trkpt lat="47.19819" lon="5.98529">
        <ele>232.999</ele>
        <time>2016-09-06T09:43:47.000Z</time>
      </trkpt>
      <trkpt lat="47.19816" lon="5.98522">
        <ele>232.335</ele>
        <time>2016-09-06T09:43:48.000Z</time>
      </trkpt>
      <trkpt lat="47.19814" lon="5.98516">
        <ele>232.362</ele>
        <time>2016-09-06T09:43:49.000Z</time>
      </trkpt>
      <trkpt lat="47.19813" lon="5.9851">
        <ele>232.713</ele>
        <time>2016-09-06T09:43:50.000Z</time>
      </trkpt>
      <trkpt lat="47.1981" lon="5.98505">
        <ele>232.293</ele>
        <time>2016-09-06T09:43:51.000Z</time>
      </trkpt>
      <trkpt lat="47.19808" lon="5.98497">
        <ele>232.115</ele>
        <time>2016-09-06T09:43:52.000Z</time>
      </trkpt>
      <trkpt lat="47.19809" lon="5.9849">
        <ele>231.985</ele>
        <time>2016-09-06T09:43:53.000Z</time>
      </trkpt>
      <trkpt lat="47.19808" lon="5.98481">
        <ele>231.41</ele>
        <time>2016-09-06T09:43:54.000Z</time>
      </trkpt>
      <trkpt lat="47.19805" lon="5.9848">
        <ele>232.712</ele>
        <time>2016-09-06T09:43:55.000Z</time>
      </trkpt>
      <trkpt lat="47.19804" lon="5.98471">
        <ele>232.591</ele>
        <time>2016-09-06T09:43:56.000Z</time>
      </trkpt>
      <trkpt lat="47.19802" lon="5.98465">
        <ele>232.098</ele>
        <time>2016-09-06T09:43:57.000Z</time>
      </trkpt>
      <trkpt lat="47.19801" lon="5.9846">
        <ele>233.065</ele>
        <time>2016-09-06T09:43:58.000Z</time>
      </trkpt>
      <trkpt lat="47.19802" lon="5.98452">
        <ele>233.302</ele>
        <time>2016-09-06T09:43:59.000Z</time>
      </trkpt>
      <trkpt lat="47.19802" lon="5.98444">
        <ele>233.881</ele>
        <time>2016-09-06T09:44:00.000Z</time>
      </trkpt>
      <trkpt lat="47.19803" lon="5.98436">
        <ele>234.073</ele>
        <time>2016-09-06T09:44:01.000Z</time>
      </trkpt>
      <trkpt lat="47.19802" lon="5.98429">
        <ele>233.85</ele>
        <time>2016-09-06T09:44:02.000Z</time>
      </trkpt>
      <trkpt lat="47.19805" lon="5.98419">
        <ele>234.848</ele>
        <time>2016-09-06T09:44:03.000Z</time>
      </trkpt>
      <trkpt lat="47.19804" lon="5.98412">
        <ele>234.273</ele>
        <time>2016-09-06T09:44:04.000Z</time>
      </trkpt>
      <trkpt lat="47.19804" lon="5.98406">
        <ele>234.696</ele>
        <time>2016-09-06T09:44:05.000Z</time>
      </trkpt>
      <trkpt lat="47.19803" lon="5.98401">
        <ele>234.679</ele>
        <time>2016-09-06T09:44:06.000Z</time>
      </trkpt>
      <trkpt lat="47.19803" lon="5.98393">
        <ele>235.891</ele>
        <time>2016-09-06T09:44:07.000Z</time>
      </trkpt>
      <trkpt lat="47.19804" lon="5.98385">
        <ele>236.389</ele>
        <time>2016-09-06T09:44:08.000Z</time>
      </trkpt>
      <trkpt lat="47.19803" lon="5.98378">
        <ele>236.673</ele>
        <time>2016-09-06T09:44:09.000Z</time>
      </trkpt>
      <trkpt lat="47.19804" lon="5.98372">
        <ele>236.676</ele>
        <time>2016-09-06T09:44:10.000Z</time>
      </trkpt>
      <trkpt lat="47.19804" lon="5.98365">
        <ele>236.623</ele>
        <time>2016-09-06T09:44:11.000Z</time>
      </trkpt>
      <trkpt lat="47.19806" lon="5.98358">
        <ele>236.883</ele>
        <time>2016-09-06T09:44:12.000Z</time>
      </trkpt>
      <trkpt lat="47.19807" lon="5.9835">
        <ele>236.892</ele>
        <time>2016-09-06T09:44:13.000Z</time>
      </trkpt>
      <trkpt lat="47.19808" lon="5.98344">
        <ele>236.875</ele>
        <time>2016-09-06T09:44:14.000Z</time>
      </trkpt>
      <trkpt lat="47.19809" lon="5.98337">
        <ele>236.718</ele>
        <time>2016-09-06T09:44:15.000Z</time>
      </trkpt>
      <trkpt lat="47.1981" lon="5.98331">
        <ele>237.288</ele>
        <time>2016-09-06T09:44:16.000Z</time>
      </trkpt>
      <trkpt lat="47.19811" lon="5.98324">
        <ele>237.233</ele>
        <time>2016-09-06T09:44:17.000Z</time>
      </trkpt>
      <trkpt lat="47.19812" lon="5.98318">
        <ele>237.658</ele>
        <time>2016-09-06T09:44:18.000Z</time>
      </trkpt>
      <trkpt lat="47.19816" lon="5.98311">
        <ele>239.275</ele>
        <time>2016-09-06T09:44:19.000Z</time>
      </trkpt>
      <trkpt lat="47.19817" lon="5.98305">
        <ele>239.689</ele>
        <time>2016-09-06T09:44:20.000Z</time>
      </trkpt>
      <trkpt lat="47.19818" lon="5.98298">
        <ele>239.604</ele>
        <time>2016-09-06T09:44:21.000Z</time>
      </trkpt>
      <trkpt lat="47.19819" lon="5.98292">
        <ele>239.448</ele>
        <time>2016-09-06T09:44:22.000Z</time>
      </trkpt>
      <trkpt lat="47.1982" lon="5.98286">
        <ele>238.311</ele>
        <time>2016-09-06T09:44:23.000Z</time>
      </trkpt>
      <trkpt lat="47.19822" lon="5.98281">
        <ele>238.812</ele>
        <time>2016-09-06T09:44:24.000Z</time>
      </trkpt>
      <trkpt lat="47.19824" lon="5.98276">
        <ele>238.29</ele>
        <time>2016-09-06T09:44:25.000Z</time>
      </trkpt>
      <trkpt lat="47.19823" lon="5.98271">
        <ele>235.759</ele>
        <time>2016-09-06T09:44:26.000Z</time>
      </trkpt>
      <trkpt lat="47.19825" lon="5.98266">
        <ele>235.788</ele>
        <time>2016-09-06T09:44:27.000Z</time>
      </trkpt>
      <trkpt lat="47.19826" lon="5.9826">
        <ele>234.06</ele>
        <time>2016-09-06T09:44:28.000Z</time>
      </trkpt>
      <trkpt lat="47.19828" lon="5.98254">
        <ele>233.686</ele>
        <time>2016-09-06T09:44:29.000Z</time>
      </trkpt>
      <trkpt lat="47.1983" lon="5.98248">
        <ele>232.798</ele>
        <time>2016-09-06T09:44:30.000Z</time>
      </trkpt>
      <trkpt lat="47.19833" lon="5.98242">
        <ele>232.043</ele>
        <time>2016-09-06T09:44:31.000Z</time>
      </trkpt>
      <trkpt lat="47.19835" lon="5.98236">
        <ele>231.807</ele>
        <time>2016-09-06T09:44:32.000Z</time>
      </trkpt>
      <trkpt lat="47.19838" lon="5.98231">
        <ele>231.69</ele>
        <time>2016-09-06T09:44:33.000Z</time>
      </trkpt>
      <trkpt lat="47.19841" lon="5.98225">
        <ele>232.125</ele>
        <time>2016-09-06T09:44:34.000Z</time>
      </trkpt>
      <trkpt lat="47.19843" lon="5.98218">
        <ele>230.87</ele>
        <time>2016-09-06T09:44:35.000Z</time>
      </trkpt>
      <trkpt lat="47.19846" lon="5.98212">
        <ele>231.378</ele>
        <time>2016-09-06T09:44:36.000Z</time>
      </trkpt>
      <trkpt lat="47.19849" lon="5.98207">
        <ele>232.014</ele>
        <time>2016-09-06T09:44:37.000Z</time>
      </trkpt>
      <trkpt lat="47.1985" lon="5.982">
        <ele>231.884</ele>
        <time>2016-09-06T09:44:38.000Z</time>
      </trkpt>
      <trkpt lat="47.19851" lon="5.98193">
        <ele>230.617</ele>
        <time>2016-09-06T09:44:39.000Z</time>
      </trkpt>
      <trkpt lat="47.19852" lon="5.98186">
        <ele>230.331</ele>
        <time>2016-09-06T09:44:40.000Z</time>
      </trkpt>
      <trkpt lat="47.19854" lon="5.9818">
        <ele>229.619</ele>
        <time>2016-09-06T09:44:41.000Z</time>
      </trkpt>
      <trkpt lat="47.19853" lon="5.98173">
        <ele>228.261</ele>
        <time>2016-09-06T09:44:42.000Z</time>
      </trkpt>
      <trkpt lat="47.19854" lon="5.98166">
        <ele>228.35</ele>
        <time>2016-09-06T09:44:43.000Z</time>
      </trkpt>
      <trkpt lat="47.19856" lon="5.9816">
        <ele>230.276</ele>
        <time>2016-09-06T09:44:44.000Z</time>
      </trkpt>
      <trkpt lat="47.19856" lon="5.98153">
        <ele>230.844</ele>
        <time>2016-09-06T09:44:45.000Z</time>
      </trkpt>
      <trkpt lat="47.19857" lon="5.98147">
        <ele>232.492</ele>
        <time>2016-09-06T09:44:46.000Z</time>
      </trkpt>
      <trkpt lat="47.19857" lon="5.98141">
        <ele>232.159</ele>
        <time>2016-09-06T09:44:47.000Z</time>
      </trkpt>
      <trkpt lat="47.19856" lon="5.98134">
        <ele>231.243</ele>
        <time>2016-09-06T09:44:48.000Z</time>
      </trkpt>
      <trkpt lat="47.19857" lon="5.98127">
        <ele>231.274</ele>
        <time>2016-09-06T09:44:49.000Z</time>
      </trkpt>
      <trkpt lat="47.19857" lon="5.98121">
        <ele>231.489</ele>
        <time>2016-09-06T09:44:50.000Z</time>
      </trkpt>
      <trkpt lat="47.19858" lon="5.98114">
        <ele>231.708</ele>
        <time>2016-09-06T09:44:51.000Z</time>
      </trkpt>
      <trkpt lat="47.19859" lon="5.98108">
        <ele>231.753</ele>
        <time>2016-09-06T09:44:52.000Z</time>
      </trkpt>
      <trkpt lat="47.1986" lon="5.98103">
        <ele>230.403</ele>
        <time>2016-09-06T09:44:53.000Z</time>
      </trkpt>
      <trkpt lat="47.19861" lon="5.98097">
        <ele>230.478</ele>
        <time>2016-09-06T09:44:54.000Z</time>
      </trkpt>
      <trkpt lat="47.19863" lon="5.9809">
        <ele>231.392</ele>
        <time>2016-09-06T09:44:55.000Z</time>
      </trkpt>
      <trkpt lat="47.19864" lon="5.98083">
        <ele>231.357</ele>
        <time>2016-09-06T09:44:56.000Z</time>
      </trkpt>
      <trkpt lat="47.19866" lon="5.98077">
        <ele>232.335</ele>
        <time>2016-09-06T09:44:57.000Z</time>
      </trkpt>
      <trkpt lat="47.19867" lon="5.98072">
        <ele>233.849</ele>
        <time>2016-09-06T09:44:58.000Z</time>
      </trkpt>
      <trkpt lat="47.19867" lon="5.98067">
        <ele>234.453</ele>
        <time>2016-09-06T09:44:59.000Z</time>
      </trkpt>
      <trkpt lat="47.19868" lon="5.98061">
        <ele>234.731</ele>
        <time>2016-09-06T09:45:00.000Z</time>
      </trkpt>
      <trkpt lat="47.19868" lon="5.98056">
        <ele>234.873</ele>
        <time>2016-09-06T09:45:01.000Z</time>
      </trkpt>
      <trkpt lat="47.19869" lon="5.98051">
        <ele>234.792</ele>
        <time>2016-09-06T09:45:02.000Z</time>
      </trkpt>
      <trkpt lat="47.19869" lon="5.98049">
        <ele>235.522</ele>
        <time>2016-09-06T09:45:03.000Z</time>
      </trkpt>
      <trkpt lat="47.19869" lon="5.98049">
        <ele>234.463</ele>
        <time>2016-09-06T09:45:04.000Z</time>
      </trkpt>
      <trkpt lat="47.19869" lon="5.98049">
        <ele>234.468</ele>
        <time>2016-09-06T09:45:05.000Z</time>
      </trkpt>
    </trkseg>
  </trk>
</gpx>